<?xml version='1.0' encoding='UTF-8'?><gpx version="1.1" creator="JPX - https://github.com/jenetics/jpx" xmlns="http://www.topografix.com/GPX/1/1"><trk><trkseg><trkpt lat="45.50795841208856" lon="10.463510728113404"><ele>188.0</ele><time>2026-03-28T08:03:02Z</time></trkpt><trkpt lat="45.5080152892898" lon="10.463549828913562"><ele>188.0</ele><time>2026-03-28T08:03:51.999Z</time></trkpt><trkpt lat="45.508089562827315" lon="10.463552927972582"><ele>188.0</ele><time>2026-03-28T08:04:35.998Z</time></trkpt><trkpt lat="45.50816592195118" lon="10.463542750342045"><ele>188.0</ele><time>2026-03-28T08:05:20Z</time></trkpt><trkpt lat="45.50823716068283" lon="10.463535949023976"><ele>188.0</ele><time>2026-03-28T08:05:22Z</time></trkpt><trkpt lat="45.50832247254093" lon="10.463539225013347"><ele>188.0</ele><time>2026-03-28T08:05:25Z</time></trkpt><trkpt lat="45.5083250063254" lon="10.463635483257764"><ele>188.0</ele><time>2026-03-28T08:05:29Z</time></trkpt><trkpt lat="45.5082521049582" lon="10.463712288322382"><ele>188.0</ele><time>2026-03-28T08:05:32Z</time></trkpt><trkpt lat="45.50816322454322" lon="10.463719027216705"><ele>188.0</ele><time>2026-03-28T08:05:32.999Z</time></trkpt><trkpt lat="45.508074783138355" lon="10.46371917585528"><ele>188.0</ele><time>2026-03-28T08:05:33.999Z</time></trkpt><trkpt lat="45.50797537524875" lon="10.463728635940088"><ele>188.0</ele><time>2026-03-28T08:05:34.999Z</time></trkpt><trkpt lat="45.50782358964027" lon="10.46374192431097"><ele>188.0</ele><time>2026-03-28T08:05:35.999Z</time></trkpt><trkpt lat="45.50763745075456" lon="10.463761917339893"><ele>187.0</ele><time>2026-03-28T08:05:36.999Z</time></trkpt><trkpt lat="45.50747262836712" lon="10.46377823814293"><ele>186.0</ele><time>2026-03-28T08:05:37.999Z</time></trkpt><trkpt lat="45.507322306511156" lon="10.463790521431516"><ele>185.0</ele><time>2026-03-28T08:05:38.999Z</time></trkpt><trkpt lat="45.507193075354856" lon="10.46380259554277"><ele>184.0</ele><time>2026-03-28T08:05:39.999Z</time></trkpt><trkpt lat="45.50708214420781" lon="10.463805679405105"><ele>183.66666666666669</ele><time>2026-03-28T08:05:40.999Z</time></trkpt><trkpt lat="45.50700118690823" lon="10.463785620989864"><ele>183.33333333333334</ele><time>2026-03-28T08:05:41.999Z</time></trkpt><trkpt lat="45.50694332846014" lon="10.463725703511736"><ele>183.0</ele><time>2026-03-28T08:05:42.999Z</time></trkpt><trkpt lat="45.5068854984833" lon="10.463654960764229"><ele>182.66666666666666</ele><time>2026-03-28T08:05:43.999Z</time></trkpt><trkpt lat="45.506819013820284" lon="10.463605464278702"><ele>182.33333333333331</ele><time>2026-03-28T08:05:44.999Z</time></trkpt><trkpt lat="45.50674267349013" lon="10.463600539640815"><ele>182.0</ele><time>2026-03-28T08:05:45.999Z</time></trkpt><trkpt lat="45.506675841634674" lon="10.463640596862255"><ele>182.0</ele><time>2026-03-28T08:05:46.999Z</time></trkpt><trkpt lat="45.5066358865779" lon="10.463715931020884"><ele>182.0</ele><time>2026-03-28T08:05:47.999Z</time></trkpt><trkpt lat="45.50662067968038" lon="10.463825677129456"><ele>182.0</ele><time>2026-03-28T08:05:48.999Z</time></trkpt><trkpt lat="45.506621460873426" lon="10.463963416674897"><ele>182.0</ele><time>2026-03-28T08:05:49.999Z</time></trkpt><trkpt lat="45.506656867315854" lon="10.464040647107462"><ele>182.0</ele><time>2026-03-28T08:05:50.999Z</time></trkpt><trkpt lat="45.5067297011794" lon="10.464088921547203"><ele>182.0</ele><time>2026-03-28T08:05:51.999Z</time></trkpt><trkpt lat="45.50673719634584" lon="10.464274003227777"><ele>182.0</ele><time>2026-03-28T08:05:52.999Z</time></trkpt><trkpt lat="45.50675499464364" lon="10.464418929487449"><ele>182.0</ele><time>2026-03-28T08:05:53.999Z</time></trkpt><trkpt lat="45.50674774658452" lon="10.464572246081445"><ele>182.0</ele><time>2026-03-28T08:05:54.999Z</time></trkpt><trkpt lat="45.506731339514516" lon="10.464731379075987"><ele>182.0</ele><time>2026-03-28T08:05:55.999Z</time></trkpt><trkpt lat="45.50672081258577" lon="10.464891381146353"><ele>182.0</ele><time>2026-03-28T08:05:56.999Z</time></trkpt><trkpt lat="45.506705758555896" lon="10.46506470965006"><ele>182.25</ele><time>2026-03-28T08:05:57.999Z</time></trkpt><trkpt lat="45.506690113516555" lon="10.465243049535582"><ele>182.5</ele><time>2026-03-28T08:05:58.999Z</time></trkpt><trkpt lat="45.50667192881673" lon="10.46543112661324"><ele>182.75</ele><time>2026-03-28T08:05:59.999Z</time></trkpt><trkpt lat="45.50665839663821" lon="10.465632572911165"><ele>183.0</ele><time>2026-03-28T08:06:00.999Z</time></trkpt><trkpt lat="45.506653379732626" lon="10.465830168511271"><ele>183.0</ele><time>2026-03-28T08:06:01.999Z</time></trkpt><trkpt lat="45.506661081233865" lon="10.466028303207416"><ele>183.0</ele><time>2026-03-28T08:06:02.999Z</time></trkpt><trkpt lat="45.50667557395951" lon="10.46623596554863"><ele>183.0</ele><time>2026-03-28T08:06:03.999Z</time></trkpt><trkpt lat="45.50670297785541" lon="10.466448291506225"><ele>183.0</ele><time>2026-03-28T08:06:04.999Z</time></trkpt><trkpt lat="45.506727319033516" lon="10.466661167941327"><ele>183.0</ele><time>2026-03-28T08:06:05.999Z</time></trkpt><trkpt lat="45.50676564444127" lon="10.466872641998213"><ele>183.0</ele><time>2026-03-28T08:06:06.999Z</time></trkpt><trkpt lat="45.50680086288375" lon="10.467078125928639"><ele>183.0</ele><time>2026-03-28T08:06:07.999Z</time></trkpt><trkpt lat="45.506835837400544" lon="10.467299311032708"><ele>183.0</ele><time>2026-03-28T08:06:08.999Z</time></trkpt><trkpt lat="45.50686768467848" lon="10.467503339007813"><ele>183.0</ele><time>2026-03-28T08:06:09.999Z</time></trkpt><trkpt lat="45.506891387631676" lon="10.46772056965661"><ele>183.0</ele><time>2026-03-28T08:06:10.999Z</time></trkpt><trkpt lat="45.50692176161058" lon="10.46793587879726"><ele>184.0</ele><time>2026-03-28T08:06:11.999Z</time></trkpt><trkpt lat="45.50695498060782" lon="10.46815108736398"><ele>185.0</ele><time>2026-03-28T08:06:12.999Z</time></trkpt><trkpt lat="45.50698796779232" lon="10.468366222480913"><ele>186.0</ele><time>2026-03-28T08:06:13.999Z</time></trkpt><trkpt lat="45.50702454700945" lon="10.46857673080425"><ele>186.25</ele><time>2026-03-28T08:06:14.999Z</time></trkpt><trkpt lat="45.50705568853374" lon="10.468784413766961"><ele>186.5</ele><time>2026-03-28T08:06:15.999Z</time></trkpt><trkpt lat="45.50708310543249" lon="10.468981430790485"><ele>186.75</ele><time>2026-03-28T08:06:16.999Z</time></trkpt><trkpt lat="45.507098213567055" lon="10.46916972892318"><ele>187.0</ele><time>2026-03-28T08:06:17.999Z</time></trkpt><trkpt lat="45.507100477359465" lon="10.469357680482497"><ele>187.5</ele><time>2026-03-28T08:06:18.999Z</time></trkpt><trkpt lat="45.50708270356347" lon="10.469546496061161"><ele>188.0</ele><time>2026-03-28T08:06:19.999Z</time></trkpt><trkpt lat="45.507047940609496" lon="10.469760807666056"><ele>188.5</ele><time>2026-03-28T08:06:20.999Z</time></trkpt><trkpt lat="45.507023744127" lon="10.469962545669265"><ele>189.0</ele><time>2026-03-28T08:06:21.999Z</time></trkpt><trkpt lat="45.506977732880536" lon="10.470155493804581"><ele>189.0</ele><time>2026-03-28T08:06:22.999Z</time></trkpt><trkpt lat="45.50694800166439" lon="10.470348827532785"><ele>189.0</ele><time>2026-03-28T08:06:23.999Z</time></trkpt><trkpt lat="45.506909922989536" lon="10.470555964711444"><ele>189.0</ele><time>2026-03-28T08:06:24.999Z</time></trkpt><trkpt lat="45.50686458030909" lon="10.470756294330604"><ele>189.0</ele><time>2026-03-28T08:06:25.999Z</time></trkpt><trkpt lat="45.50681394172968" lon="10.470962442478378"><ele>189.5</ele><time>2026-03-28T08:06:26.998Z</time></trkpt><trkpt lat="45.50675662178838" lon="10.471161557775392"><ele>190.0</ele><time>2026-03-28T08:06:27.998Z</time></trkpt><trkpt lat="45.50670033237133" lon="10.471350037125994"><ele>190.5</ele><time>2026-03-28T08:06:28.998Z</time></trkpt><trkpt lat="45.50665316074036" lon="10.471556849787008"><ele>191.0</ele><time>2026-03-28T08:06:29.998Z</time></trkpt><trkpt lat="45.50660695968048" lon="10.471776526477528"><ele>191.66666666666666</ele><time>2026-03-28T08:06:30.998Z</time></trkpt><trkpt lat="45.50658879067984" lon="10.47199744698914"><ele>192.33333333333331</ele><time>2026-03-28T08:06:31.998Z</time></trkpt><trkpt lat="45.50656652356885" lon="10.472203667161546"><ele>193.0</ele><time>2026-03-28T08:06:32.998Z</time></trkpt><trkpt lat="45.50654648716274" lon="10.472419155773997"><ele>193.66666666666666</ele><time>2026-03-28T08:06:33.998Z</time></trkpt><trkpt lat="45.506532441619534" lon="10.472662760658709"><ele>194.33333333333331</ele><time>2026-03-28T08:06:34.998Z</time></trkpt><trkpt lat="45.506508927002606" lon="10.47286888119896"><ele>195.0</ele><time>2026-03-28T08:06:35.998Z</time></trkpt><trkpt lat="45.50648217036121" lon="10.473076911211967"><ele>195.0</ele><time>2026-03-28T08:06:36.998Z</time></trkpt><trkpt lat="45.50645920213954" lon="10.473290390906401"><ele>195.0</ele><time>2026-03-28T08:06:37.998Z</time></trkpt><trkpt lat="45.506436591403116" lon="10.473494930007284"><ele>195.0</ele><time>2026-03-28T08:06:38.998Z</time></trkpt><trkpt lat="45.50641082304643" lon="10.47369938376252"><ele>195.0</ele><time>2026-03-28T08:06:39.998Z</time></trkpt><trkpt lat="45.506382411066355" lon="10.473906034495242"><ele>194.8</ele><time>2026-03-28T08:06:40.998Z</time></trkpt><trkpt lat="45.50635392594951" lon="10.474067297630377"><ele>194.6</ele><time>2026-03-28T08:06:41.998Z</time></trkpt><trkpt lat="45.506317708365444" lon="10.474199384013007"><ele>194.39999999999998</ele><time>2026-03-28T08:06:42.998Z</time></trkpt><trkpt lat="45.506261380125814" lon="10.474317949910843"><ele>194.2</ele><time>2026-03-28T08:06:43.998Z</time></trkpt><trkpt lat="45.5062067258205" lon="10.474428817127842"><ele>194.0</ele><time>2026-03-28T08:06:44.998Z</time></trkpt><trkpt lat="45.50615443012558" lon="10.474526256664456"><ele>194.0</ele><time>2026-03-28T08:06:45.998Z</time></trkpt><trkpt lat="45.50610498249396" lon="10.474607626272537"><ele>194.0</ele><time>2026-03-28T08:06:46.998Z</time></trkpt><trkpt lat="45.50604756309675" lon="10.474665044706047"><ele>194.0</ele><time>2026-03-28T08:06:47.998Z</time></trkpt><trkpt lat="45.50592410083401" lon="10.474527851402868"><ele>194.0</ele><time>2026-03-28T08:06:49.998Z</time></trkpt><trkpt lat="45.50586316331601" lon="10.474429331867194"><ele>194.0</ele><time>2026-03-28T08:06:50.998Z</time></trkpt><trkpt lat="45.505823126266506" lon="10.474299629910384"><ele>194.0</ele><time>2026-03-28T08:06:51.998Z</time></trkpt><trkpt lat="45.50579543450368" lon="10.474140129212511"><ele>194.0</ele><time>2026-03-28T08:06:52.998Z</time></trkpt><trkpt lat="45.5057691090042" lon="10.473956567557638"><ele>194.0</ele><time>2026-03-28T08:06:53.998Z</time></trkpt><trkpt lat="45.505731422360455" lon="10.473763953248511"><ele>194.0</ele><time>2026-03-28T08:06:54.998Z</time></trkpt><trkpt lat="45.50570541297674" lon="10.473561970681821"><ele>194.0</ele><time>2026-03-28T08:06:55.998Z</time></trkpt><trkpt lat="45.505663912270016" lon="10.473366594295202"><ele>194.0</ele><time>2026-03-28T08:06:56.998Z</time></trkpt><trkpt lat="45.505611750938634" lon="10.473204161896327"><ele>194.0</ele><time>2026-03-28T08:06:57.998Z</time></trkpt><trkpt lat="45.50555465711424" lon="10.473090492754318"><ele>194.0</ele><time>2026-03-28T08:06:58.998Z</time></trkpt><trkpt lat="45.50550215116649" lon="10.473020944026054"><ele>194.0</ele><time>2026-03-28T08:06:59.998Z</time></trkpt><trkpt lat="45.50539860103384" lon="10.473008053893746"><ele>194.2</ele><time>2026-03-28T08:07:01.998Z</time></trkpt><trkpt lat="45.50531219292991" lon="10.473165912755173"><ele>194.39999999999998</ele><time>2026-03-28T08:07:03.998Z</time></trkpt><trkpt lat="45.50524966150611" lon="10.473248466551727"><ele>194.6</ele><time>2026-03-28T08:07:04.998Z</time></trkpt><trkpt lat="45.50517164676591" lon="10.473346859950583"><ele>194.8</ele><time>2026-03-28T08:07:05.998Z</time></trkpt><trkpt lat="45.505085530387" lon="10.473464484902317"><ele>195.0</ele><time>2026-03-28T08:07:06.998Z</time></trkpt><trkpt lat="45.50498559511362" lon="10.473565772158542"><ele>195.0</ele><time>2026-03-28T08:07:07.998Z</time></trkpt><trkpt lat="45.504893745708074" lon="10.473708537290106"><ele>195.0</ele><time>2026-03-28T08:07:08.999Z</time></trkpt><trkpt lat="45.504787339353065" lon="10.473830419474833"><ele>195.0</ele><time>2026-03-28T08:07:09.999Z</time></trkpt><trkpt lat="45.504662525844104" lon="10.473936400271675"><ele>195.0</ele><time>2026-03-28T08:07:10.999Z</time></trkpt><trkpt lat="45.50453280809943" lon="10.474018343548945"><ele>197.5</ele><time>2026-03-28T08:07:11.999Z</time></trkpt><trkpt lat="45.50439915241086" lon="10.474063406929002"><ele>200.0</ele><time>2026-03-28T08:07:12.999Z</time></trkpt><trkpt lat="45.504251229334294" lon="10.474074128471862"><ele>202.5</ele><time>2026-03-28T08:07:13.999Z</time></trkpt><trkpt lat="45.50410390615857" lon="10.474050316118946"><ele>205.0</ele><time>2026-03-28T08:07:14.999Z</time></trkpt><trkpt lat="45.50396188852768" lon="10.474020434680895"><ele>205.0</ele><time>2026-03-28T08:07:15.999Z</time></trkpt><trkpt lat="45.50381979696213" lon="10.474001893829584"><ele>205.0</ele><time>2026-03-28T08:07:16.999Z</time></trkpt><trkpt lat="45.50367150938493" lon="10.473995778028792"><ele>205.0</ele><time>2026-03-28T08:07:17.999Z</time></trkpt><trkpt lat="45.50352348554788" lon="10.474007243698171"><ele>205.0</ele><time>2026-03-28T08:07:18.999Z</time></trkpt><trkpt lat="45.50338150683573" lon="10.47404776590979"><ele>206.66666666666666</ele><time>2026-03-28T08:07:19.999Z</time></trkpt><trkpt lat="45.50325360508023" lon="10.474118476595315"><ele>208.33333333333331</ele><time>2026-03-28T08:07:20.999Z</time></trkpt><trkpt lat="45.503119327836835" lon="10.474220924248968"><ele>210.0</ele><time>2026-03-28T08:07:21.999Z</time></trkpt><trkpt lat="45.50298019519847" lon="10.474334135336248"><ele>209.75</ele><time>2026-03-28T08:07:22.999Z</time></trkpt><trkpt lat="45.50284984798704" lon="10.474446253890994"><ele>209.5</ele><time>2026-03-28T08:07:23.999Z</time></trkpt><trkpt lat="45.50273091599048" lon="10.474542109678193"><ele>209.25</ele><time>2026-03-28T08:07:24.999Z</time></trkpt><trkpt lat="45.502609188826725" lon="10.4746213432843"><ele>209.0</ele><time>2026-03-28T08:07:25.999Z</time></trkpt><trkpt lat="45.50249419348279" lon="10.474663620976779"><ele>209.0</ele><time>2026-03-28T08:07:26.999Z</time></trkpt><trkpt lat="45.50237785687212" lon="10.47466434393911"><ele>209.0</ele><time>2026-03-28T08:07:27.999Z</time></trkpt><trkpt lat="45.50225803547791" lon="10.474627827680434"><ele>209.0</ele><time>2026-03-28T08:07:28.999Z</time></trkpt><trkpt lat="45.50213416348834" lon="10.474546863085576"><ele>209.0</ele><time>2026-03-28T08:07:29.999Z</time></trkpt><trkpt lat="45.5020019876272" lon="10.474475825360287"><ele>209.25</ele><time>2026-03-28T08:07:30.999Z</time></trkpt><trkpt lat="45.50187092879757" lon="10.474395643954628"><ele>209.5</ele><time>2026-03-28T08:07:31.999Z</time></trkpt><trkpt lat="45.50174561796473" lon="10.474306387908458"><ele>209.75</ele><time>2026-03-28T08:07:32.999Z</time></trkpt><trkpt lat="45.501638409707645" lon="10.474218105237334"><ele>210.0</ele><time>2026-03-28T08:07:33.999Z</time></trkpt><trkpt lat="45.501554630145236" lon="10.474135624914688"><ele>210.0</ele><time>2026-03-28T08:07:34.999Z</time></trkpt><trkpt lat="45.501486670275085" lon="10.474071816287596"><ele>210.0</ele><time>2026-03-28T08:07:35.999Z</time></trkpt><trkpt lat="45.50141139237931" lon="10.474043542672693"><ele>210.0</ele><time>2026-03-28T08:07:36.999Z</time></trkpt><trkpt lat="45.50129734804261" lon="10.474061911421742"><ele>210.0</ele><time>2026-03-28T08:07:38.999Z</time></trkpt><trkpt lat="45.501236415163575" lon="10.474118853335167"><ele>210.0</ele><time>2026-03-28T08:07:39.999Z</time></trkpt><trkpt lat="45.5011244569315" lon="10.474077505813607"><ele>209.8</ele><time>2026-03-28T08:07:41.999Z</time></trkpt><trkpt lat="45.50105994135995" lon="10.473986664498021"><ele>209.6</ele><time>2026-03-28T08:07:42.999Z</time></trkpt><trkpt lat="45.50101080788681" lon="10.473856009601887"><ele>209.39999999999998</ele><time>2026-03-28T08:07:43.999Z</time></trkpt><trkpt lat="45.50094750462147" lon="10.473715612737802"><ele>209.2</ele><time>2026-03-28T08:07:44.999Z</time></trkpt><trkpt lat="45.50088513856873" lon="10.473560193927813"><ele>209.0</ele><time>2026-03-28T08:07:45.999Z</time></trkpt><trkpt lat="45.50082499940427" lon="10.473392698246995"><ele>209.00000000000003</ele><time>2026-03-28T08:07:46.999Z</time></trkpt><trkpt lat="45.50076587305765" lon="10.47323728843641"><ele>209.0</ele><time>2026-03-28T08:07:47.999Z</time></trkpt><trkpt lat="45.500722297477246" lon="10.473100123891562"><ele>209.0</ele><time>2026-03-28T08:07:48.999Z</time></trkpt><trkpt lat="45.50067845525766" lon="10.473025245122589"><ele>209.0</ele><time>2026-03-28T08:07:49.999Z</time></trkpt><trkpt lat="45.5006131645301" lon="10.473013267434007"><ele>209.00000000000003</ele><time>2026-03-28T08:07:50.999Z</time></trkpt><trkpt lat="45.500540699228715" lon="10.47300655605728"><ele>209.0</ele><time>2026-03-28T08:07:51.999Z</time></trkpt><trkpt lat="45.500451270420626" lon="10.472991165230384"><ele>207.25</ele><time>2026-03-28T08:07:52.999Z</time></trkpt><trkpt lat="45.50035186848418" lon="10.47297817019726"><ele>205.5</ele><time>2026-03-28T08:07:53.999Z</time></trkpt><trkpt lat="45.50024600706009" lon="10.472945338708453"><ele>203.75</ele><time>2026-03-28T08:07:54.999Z</time></trkpt><trkpt lat="45.5001228447478" lon="10.472915368163854"><ele>202.0</ele><time>2026-03-28T08:07:55.999Z</time></trkpt><trkpt lat="45.49998560644727" lon="10.47286749399051"><ele>202.0</ele><time>2026-03-28T08:07:56.999Z</time></trkpt><trkpt lat="45.49984044484371" lon="10.472826885434328"><ele>202.0</ele><time>2026-03-28T08:07:57.999Z</time></trkpt><trkpt lat="45.49969672256648" lon="10.472789090236471"><ele>202.0</ele><time>2026-03-28T08:07:58.999Z</time></trkpt><trkpt lat="45.49954550803465" lon="10.47274778153667"><ele>202.0</ele><time>2026-03-28T08:07:59.999Z</time></trkpt><trkpt lat="45.49941855103572" lon="10.472702353140548"><ele>201.39999999999998</ele><time>2026-03-28T08:08:00.999Z</time></trkpt><trkpt lat="45.49931386202876" lon="10.472675243646064"><ele>200.79999999999998</ele><time>2026-03-28T08:08:01.999Z</time></trkpt><trkpt lat="45.49921769141662" lon="10.47264416019412"><ele>200.2</ele><time>2026-03-28T08:08:02.999Z</time></trkpt><trkpt lat="45.49914027841677" lon="10.472616100370892"><ele>199.6</ele><time>2026-03-28T08:08:03.999Z</time></trkpt><trkpt lat="45.49904272945986" lon="10.472585720154791"><ele>199.0</ele><time>2026-03-28T08:08:05.999Z</time></trkpt><trkpt lat="45.49900891583157" lon="10.472861234755083"><ele>199.25</ele><time>2026-03-28T08:08:09.999Z</time></trkpt><trkpt lat="45.49901038819577" lon="10.473023127102982"><ele>199.5</ele><time>2026-03-28T08:08:10.999Z</time></trkpt><trkpt lat="45.49900482584199" lon="10.473189111020494"><ele>199.75</ele><time>2026-03-28T08:08:11.999Z</time></trkpt><trkpt lat="45.49899583953845" lon="10.473370488142283"><ele>200.0</ele><time>2026-03-28T08:08:12.999Z</time></trkpt><trkpt lat="45.49898931175698" lon="10.473572488504262"><ele>200.66666666666669</ele><time>2026-03-28T08:08:13.999Z</time></trkpt><trkpt lat="45.498978060677395" lon="10.473780670272108"><ele>201.33333333333331</ele><time>2026-03-28T08:08:14.999Z</time></trkpt><trkpt lat="45.4989610666799" lon="10.474013779672811"><ele>202.0</ele><time>2026-03-28T08:08:15.999Z</time></trkpt><trkpt lat="45.4989580553725" lon="10.474252276580366"><ele>202.0</ele><time>2026-03-28T08:08:16.999Z</time></trkpt><trkpt lat="45.49894121140772" lon="10.474454262619414"><ele>202.0</ele><time>2026-03-28T08:08:17.999Z</time></trkpt><trkpt lat="45.49893881278972" lon="10.474614550110266"><ele>202.0</ele><time>2026-03-28T08:08:18.999Z</time></trkpt><trkpt lat="45.498934293129615" lon="10.474775266251642"><ele>202.0</ele><time>2026-03-28T08:08:19.999Z</time></trkpt><trkpt lat="45.49892535622992" lon="10.474927871886958"><ele>202.33333333333331</ele><time>2026-03-28T08:08:20.999Z</time></trkpt><trkpt lat="45.49891361017386" lon="10.475053206289164"><ele>202.66666666666666</ele><time>2026-03-28T08:08:21.999Z</time></trkpt><trkpt lat="45.49890578611111" lon="10.475189956063238"><ele>203.0</ele><time>2026-03-28T08:08:22.999Z</time></trkpt><trkpt lat="45.498893434395306" lon="10.475292028496217"><ele>203.33333333333331</ele><time>2026-03-28T08:08:23.999Z</time></trkpt><trkpt lat="45.49887215626091" lon="10.475420411189779"><ele>203.66666666666666</ele><time>2026-03-28T08:08:25.999Z</time></trkpt><trkpt lat="45.49878240199236" lon="10.47540769444011"><ele>204.0</ele><time>2026-03-28T08:08:27.999Z</time></trkpt><trkpt lat="45.4987132701626" lon="10.47541294661264"><ele>205.0</ele><time>2026-03-28T08:08:28.999Z</time></trkpt><trkpt lat="45.49861874928999" lon="10.475443220545097"><ele>206.0</ele><time>2026-03-28T08:08:29.998Z</time></trkpt><trkpt lat="45.49849159698106" lon="10.47545540662185"><ele>207.0</ele><time>2026-03-28T08:08:30.998Z</time></trkpt><trkpt lat="45.49835259667271" lon="10.475450228493209"><ele>208.0</ele><time>2026-03-28T08:08:31.998Z</time></trkpt><trkpt lat="45.4982142838973" lon="10.47545602669016"><ele>208.0</ele><time>2026-03-28T08:08:32.998Z</time></trkpt><trkpt lat="45.4981171747748" lon="10.475456028736438"><ele>208.0</ele><time>2026-03-28T08:08:33.998Z</time></trkpt><trkpt lat="45.49799831595221" lon="10.475452888448075"><ele>208.0</ele><time>2026-03-28T08:08:34.998Z</time></trkpt><trkpt lat="45.497872975979305" lon="10.475447284633503"><ele>208.0</ele><time>2026-03-28T08:08:35.998Z</time></trkpt><trkpt lat="45.497747023878084" lon="10.47543778719347"><ele>207.0</ele><time>2026-03-28T08:08:36.998Z</time></trkpt><trkpt lat="45.49761948527499" lon="10.475412534159384"><ele>206.0</ele><time>2026-03-28T08:08:37.998Z</time></trkpt><trkpt lat="45.497487148913095" lon="10.475381127669733"><ele>205.0</ele><time>2026-03-28T08:08:38.998Z</time></trkpt><trkpt lat="45.49734177071596" lon="10.475341942000686"><ele>204.0</ele><time>2026-03-28T08:08:39.998Z</time></trkpt><trkpt lat="45.49718648068327" lon="10.47530747411856"><ele>204.25</ele><time>2026-03-28T08:08:40.998Z</time></trkpt><trkpt lat="45.497054780639985" lon="10.47527948031959"><ele>204.5</ele><time>2026-03-28T08:08:41.998Z</time></trkpt><trkpt lat="45.49694653264171" lon="10.475254270407051"><ele>204.75</ele><time>2026-03-28T08:08:42.998Z</time></trkpt><trkpt lat="45.4968267649981" lon="10.475207156201089"><ele>205.0</ele><time>2026-03-28T08:08:43.998Z</time></trkpt><trkpt lat="45.496694046245295" lon="10.475159236500359"><ele>205.0</ele><time>2026-03-28T08:08:44.998Z</time></trkpt><trkpt lat="45.496545476368894" lon="10.47515455593546"><ele>205.0</ele><time>2026-03-28T08:08:45.998Z</time></trkpt><trkpt lat="45.49639334758343" lon="10.47513991044745"><ele>205.0</ele><time>2026-03-28T08:08:46.998Z</time></trkpt><trkpt lat="45.49623900749948" lon="10.475128188709784"><ele>205.66666666666666</ele><time>2026-03-28T08:08:47.998Z</time></trkpt><trkpt lat="45.49608731015261" lon="10.475109628268722"><ele>206.33333333333331</ele><time>2026-03-28T08:08:48.998Z</time></trkpt><trkpt lat="45.495934802689455" lon="10.475094597901712"><ele>207.0</ele><time>2026-03-28T08:08:49.998Z</time></trkpt><trkpt lat="45.495782851523174" lon="10.47507285189575"><ele>207.0</ele><time>2026-03-28T08:08:50.998Z</time></trkpt><trkpt lat="45.49563405048412" lon="10.4749913125565"><ele>207.0</ele><time>2026-03-28T08:08:51.998Z</time></trkpt><trkpt lat="45.49549081724236" lon="10.475001344479429"><ele>207.0</ele><time>2026-03-28T08:08:52.998Z</time></trkpt><trkpt lat="45.49533337586392" lon="10.474996725089193"><ele>207.25</ele><time>2026-03-28T08:08:53.998Z</time></trkpt><trkpt lat="45.49519007572151" lon="10.474968112043488"><ele>207.5</ele><time>2026-03-28T08:08:54.998Z</time></trkpt><trkpt lat="45.49504819614105" lon="10.474956404789348"><ele>207.75</ele><time>2026-03-28T08:08:55.998Z</time></trkpt><trkpt lat="45.49491156982315" lon="10.474944706946388"><ele>208.0</ele><time>2026-03-28T08:08:56.998Z</time></trkpt><trkpt lat="45.49477774032705" lon="10.47493270304511"><ele>208.0</ele><time>2026-03-28T08:08:57.998Z</time></trkpt><trkpt lat="45.49463918418513" lon="10.474921424222243"><ele>208.0</ele><time>2026-03-28T08:08:58.998Z</time></trkpt><trkpt lat="45.49449406699074" lon="10.474910576854777"><ele>208.0</ele><time>2026-03-28T08:08:59.998Z</time></trkpt><trkpt lat="45.494342336493716" lon="10.474896801673694"><ele>208.0</ele><time>2026-03-28T08:09:00.998Z</time></trkpt><trkpt lat="45.49418361221408" lon="10.474901701845393"><ele>208.0</ele><time>2026-03-28T08:09:01.998Z</time></trkpt><trkpt lat="45.494041171637996" lon="10.474882574756169"><ele>208.0</ele><time>2026-03-28T08:09:02.998Z</time></trkpt><trkpt lat="45.4939200273318" lon="10.474876616266254"><ele>208.0</ele><time>2026-03-28T08:09:03.998Z</time></trkpt><trkpt lat="45.493826125140274" lon="10.474888071453282"><ele>208.0</ele><time>2026-03-28T08:09:04.998Z</time></trkpt><trkpt lat="45.493725027544116" lon="10.474878764480321"><ele>208.8</ele><time>2026-03-28T08:09:05.998Z</time></trkpt><trkpt lat="45.493629598558606" lon="10.474896006295566"><ele>209.60000000000002</ele><time>2026-03-28T08:09:06.998Z</time></trkpt><trkpt lat="45.49354945923098" lon="10.474902966587656"><ele>210.39999999999998</ele><time>2026-03-28T08:09:07.998Z</time></trkpt><trkpt lat="45.49346502494756" lon="10.474898294175826"><ele>211.2</ele><time>2026-03-28T08:09:08.998Z</time></trkpt><trkpt lat="45.493351563846865" lon="10.474893332469502"><ele>212.0</ele><time>2026-03-28T08:09:09.998Z</time></trkpt><trkpt lat="45.493246861703156" lon="10.474890322650968"><ele>212.0</ele><time>2026-03-28T08:09:10.998Z</time></trkpt><trkpt lat="45.49312454949977" lon="10.47490913320484"><ele>212.0</ele><time>2026-03-28T08:09:11.998Z</time></trkpt><trkpt lat="45.493016840844895" lon="10.474901070972548"><ele>212.0</ele><time>2026-03-28T08:09:12.998Z</time></trkpt><trkpt lat="45.49293511347509" lon="10.474902008571698"><ele>212.0</ele><time>2026-03-28T08:09:13.998Z</time></trkpt><trkpt lat="45.49287789667489" lon="10.474859889219202"><ele>212.0</ele><time>2026-03-28T08:09:14.999Z</time></trkpt><trkpt lat="45.49281848590601" lon="10.474773567294763"><ele>213.0</ele><time>2026-03-28T08:09:17Z</time></trkpt><trkpt lat="45.49281154737003" lon="10.474569284767181"><ele>214.0</ele><time>2026-03-28T08:09:19Z</time></trkpt><trkpt lat="45.492791698144984" lon="10.474416194379636"><ele>215.0</ele><time>2026-03-28T08:09:20Z</time></trkpt><trkpt lat="45.49275016521272" lon="10.474220137582947"><ele>216.0</ele><time>2026-03-28T08:09:21Z</time></trkpt><trkpt lat="45.49271165540934" lon="10.474064155378612"><ele>216.0</ele><time>2026-03-28T08:09:22Z</time></trkpt><trkpt lat="45.492654702963264" lon="10.473937783023214"><ele>216.00000000000003</ele><time>2026-03-28T08:09:23Z</time></trkpt><trkpt lat="45.4926210040272" lon="10.473834633316217"><ele>216.00000000000003</ele><time>2026-03-28T08:09:24Z</time></trkpt><trkpt lat="45.49257945118835" lon="10.473736068449158"><ele>216.0</ele><time>2026-03-28T08:09:25Z</time></trkpt><trkpt lat="45.492547668084164" lon="10.47362379615148"><ele>216.0</ele><time>2026-03-28T08:09:26Z</time></trkpt><trkpt lat="45.49249295815983" lon="10.473505176234065"><ele>214.8</ele><time>2026-03-28T08:09:27Z</time></trkpt><trkpt lat="45.49244529223352" lon="10.473403377645342"><ele>213.60000000000002</ele><time>2026-03-28T08:09:28Z</time></trkpt><trkpt lat="45.49239086091755" lon="10.473326467839222"><ele>212.4</ele><time>2026-03-28T08:09:29Z</time></trkpt><trkpt lat="45.49235961991877" lon="10.473247078583212"><ele>211.2</ele><time>2026-03-28T08:09:30Z</time></trkpt><trkpt lat="45.49226704994729" lon="10.473104467835732"><ele>210.0</ele><time>2026-03-28T08:09:32Z</time></trkpt><trkpt lat="45.49219469957755" lon="10.47300916434249"><ele>210.0</ele><time>2026-03-28T08:09:33Z</time></trkpt><trkpt lat="45.49211858860922" lon="10.47294119761871"><ele>210.0</ele><time>2026-03-28T08:09:34Z</time></trkpt><trkpt lat="45.49203528303686" lon="10.472902459701258"><ele>210.0</ele><time>2026-03-28T08:09:35Z</time></trkpt><trkpt lat="45.49196671622803" lon="10.472863913123222"><ele>210.0</ele><time>2026-03-28T08:09:36Z</time></trkpt><trkpt lat="45.491890817553745" lon="10.472834835179238"><ele>210.0</ele><time>2026-03-28T08:09:37Z</time></trkpt><trkpt lat="45.491788997665694" lon="10.472836776940602"><ele>210.0</ele><time>2026-03-28T08:09:38Z</time></trkpt><trkpt lat="45.4916678691828" lon="10.472867545120048"><ele>208.75</ele><time>2026-03-28T08:09:39Z</time></trkpt><trkpt lat="45.491528376387215" lon="10.47292215698015"><ele>207.5</ele><time>2026-03-28T08:09:40Z</time></trkpt><trkpt lat="45.491392181380384" lon="10.472959087184583"><ele>206.25</ele><time>2026-03-28T08:09:41Z</time></trkpt><trkpt lat="45.49126533233447" lon="10.47299066949816"><ele>205.0</ele><time>2026-03-28T08:09:42Z</time></trkpt><trkpt lat="45.491149823090936" lon="10.473022902265095"><ele>204.2</ele><time>2026-03-28T08:09:43Z</time></trkpt><trkpt lat="45.491033409269754" lon="10.47302491670379"><ele>203.4</ele><time>2026-03-28T08:09:43.999Z</time></trkpt><trkpt lat="45.49093269537225" lon="10.473043689288856"><ele>202.60000000000002</ele><time>2026-03-28T08:09:44.999Z</time></trkpt><trkpt lat="45.490826489822894" lon="10.47308725757335"><ele>201.8</ele><time>2026-03-28T08:09:45.999Z</time></trkpt><trkpt lat="45.49073271063641" lon="10.47308950653087"><ele>201.0</ele><time>2026-03-28T08:09:46.999Z</time></trkpt><trkpt lat="45.490664735225415" lon="10.47311036396653"><ele>201.0</ele><time>2026-03-28T08:09:47.999Z</time></trkpt><trkpt lat="45.490573386144696" lon="10.473129334014894"><ele>201.0</ele><time>2026-03-28T08:09:48.999Z</time></trkpt><trkpt lat="45.4904831016336" lon="10.47316846431714"><ele>201.0</ele><time>2026-03-28T08:09:49.999Z</time></trkpt><trkpt lat="45.490369582725826" lon="10.47322747158022"><ele>201.0</ele><time>2026-03-28T08:09:50.999Z</time></trkpt><trkpt lat="45.49026423567589" lon="10.473290323556581"><ele>201.0</ele><time>2026-03-28T08:09:51.999Z</time></trkpt><trkpt lat="45.49015757097496" lon="10.473367161355043"><ele>198.5</ele><time>2026-03-28T08:09:52.999Z</time></trkpt><trkpt lat="45.490059864904225" lon="10.473453937003288"><ele>196.0</ele><time>2026-03-28T08:09:53.999Z</time></trkpt><trkpt lat="45.489973869237" lon="10.47355564783538"><ele>193.5</ele><time>2026-03-28T08:09:54.999Z</time></trkpt><trkpt lat="45.48985691747245" lon="10.473630384045922"><ele>191.0</ele><time>2026-03-28T08:09:55.999Z</time></trkpt><trkpt lat="45.489753878326546" lon="10.473781588184488"><ele>191.0</ele><time>2026-03-28T08:09:56.999Z</time></trkpt><trkpt lat="45.48963617103516" lon="10.473895859314458"><ele>191.0</ele><time>2026-03-28T08:09:57.999Z</time></trkpt><trkpt lat="45.4895000355576" lon="10.473979261882915"><ele>191.0</ele><time>2026-03-28T08:09:58.999Z</time></trkpt><trkpt lat="45.4893693525216" lon="10.474089993622396"><ele>191.0</ele><time>2026-03-28T08:09:59.999Z</time></trkpt><trkpt lat="45.4892332539458" lon="10.474186018695205"><ele>189.33333333333331</ele><time>2026-03-28T08:10:00.999Z</time></trkpt><trkpt lat="45.489093483928876" lon="10.474277987889707"><ele>187.66666666666666</ele><time>2026-03-28T08:10:01.999Z</time></trkpt><trkpt lat="45.48895247132689" lon="10.474358082905269"><ele>186.0</ele><time>2026-03-28T08:10:02.999Z</time></trkpt><trkpt lat="45.488806818023235" lon="10.47443870589924"><ele>185.5</ele><time>2026-03-28T08:10:03.999Z</time></trkpt><trkpt lat="45.488678767834365" lon="10.474506955798802"><ele>185.0</ele><time>2026-03-28T08:10:04.999Z</time></trkpt><trkpt lat="45.48856255649147" lon="10.474534278439194"><ele>184.5</ele><time>2026-03-28T08:10:05.999Z</time></trkpt><trkpt lat="45.48844802723132" lon="10.474595758347407"><ele>184.0</ele><time>2026-03-28T08:10:06.999Z</time></trkpt><trkpt lat="45.48833313670699" lon="10.474666809127854"><ele>184.0</ele><time>2026-03-28T08:10:07.999Z</time></trkpt><trkpt lat="45.48820745601446" lon="10.474747240618607"><ele>184.0</ele><time>2026-03-28T08:10:08.999Z</time></trkpt><trkpt lat="45.48807593139512" lon="10.474815799104322"><ele>184.0</ele><time>2026-03-28T08:10:09.999Z</time></trkpt><trkpt lat="45.4879487524298" lon="10.474893266327967"><ele>184.0</ele><time>2026-03-28T08:10:10.999Z</time></trkpt><trkpt lat="45.487844941126944" lon="10.474982497224257"><ele>183.6</ele><time>2026-03-28T08:10:11.999Z</time></trkpt><trkpt lat="45.48774864367892" lon="10.475044929292585"><ele>183.2</ele><time>2026-03-28T08:10:12.999Z</time></trkpt><trkpt lat="45.48765027474906" lon="10.47511479336878"><ele>182.79999999999998</ele><time>2026-03-28T08:10:13.999Z</time></trkpt><trkpt lat="45.487583611578124" lon="10.475193400064425"><ele>182.39999999999998</ele><time>2026-03-28T08:10:14.999Z</time></trkpt><trkpt lat="45.487525872735084" lon="10.47527543585496"><ele>182.0</ele><time>2026-03-28T08:10:15.999Z</time></trkpt><trkpt lat="45.487471071768674" lon="10.475383850338684"><ele>182.33333333333331</ele><time>2026-03-28T08:10:16.999Z</time></trkpt><trkpt lat="45.4874133776015" lon="10.475489393994637"><ele>182.66666666666666</ele><time>2026-03-28T08:10:17.999Z</time></trkpt><trkpt lat="45.4873607536109" lon="10.475552478643351"><ele>183.0</ele><time>2026-03-28T08:10:18.999Z</time></trkpt><trkpt lat="45.487283879087144" lon="10.475557828625954"><ele>183.33333333333334</ele><time>2026-03-28T08:10:19.999Z</time></trkpt><trkpt lat="45.48720700315898" lon="10.475570977617659"><ele>183.66666666666669</ele><time>2026-03-28T08:10:20.999Z</time></trkpt><trkpt lat="45.487137713075356" lon="10.475588883374542"><ele>184.0</ele><time>2026-03-28T08:10:21.999Z</time></trkpt><trkpt lat="45.48704385326051" lon="10.475597665106095"><ele>184.5</ele><time>2026-03-28T08:10:23.999Z</time></trkpt><trkpt lat="45.486989808987346" lon="10.475396220094709"><ele>185.0</ele><time>2026-03-28T08:10:25.999Z</time></trkpt><trkpt lat="45.48693561206682" lon="10.475275925637474"><ele>185.5</ele><time>2026-03-28T08:10:26.999Z</time></trkpt><trkpt lat="45.486889894918356" lon="10.475131124068294"><ele>186.0</ele><time>2026-03-28T08:10:27.999Z</time></trkpt><trkpt lat="45.486833256763205" lon="10.474983380501024"><ele>186.0</ele><time>2026-03-28T08:10:28.999Z</time></trkpt><trkpt lat="45.48679793942381" lon="10.474807687456288"><ele>186.0</ele><time>2026-03-28T08:10:29.999Z</time></trkpt><trkpt lat="45.48674989896947" lon="10.47464742641993"><ele>186.0</ele><time>2026-03-28T08:10:30.999Z</time></trkpt><trkpt lat="45.486720525795654" lon="10.474496549718097"><ele>186.0</ele><time>2026-03-28T08:10:31.999Z</time></trkpt><trkpt lat="45.48670399769535" lon="10.474358880526262"><ele>185.8</ele><time>2026-03-28T08:10:32.999Z</time></trkpt><trkpt lat="45.48668781008873" lon="10.474215732633818"><ele>185.60000000000002</ele><time>2026-03-28T08:10:33.999Z</time></trkpt><trkpt lat="45.486651228164675" lon="10.474081129878247"><ele>185.4</ele><time>2026-03-28T08:10:34.999Z</time></trkpt><trkpt lat="45.48664516734273" lon="10.473931434689474"><ele>185.2</ele><time>2026-03-28T08:10:35.999Z</time></trkpt><trkpt lat="45.48661042097845" lon="10.473778614842978"><ele>185.0</ele><time>2026-03-28T08:10:36.999Z</time></trkpt><trkpt lat="45.48656618785403" lon="10.473660076548493"><ele>185.0</ele><time>2026-03-28T08:10:37.999Z</time></trkpt><trkpt lat="45.4865233966056" lon="10.47355686159987"><ele>185.0</ele><time>2026-03-28T08:10:38.999Z</time></trkpt><trkpt lat="45.48649270191462" lon="10.473468087919837"><ele>185.0</ele><time>2026-03-28T08:10:39.999Z</time></trkpt><trkpt lat="45.48646394283863" lon="10.47335277666725"><ele>185.0</ele><time>2026-03-28T08:10:40.999Z</time></trkpt><trkpt lat="45.486388413693234" lon="10.473241841265473"><ele>185.0</ele><time>2026-03-28T08:10:42.999Z</time></trkpt><trkpt lat="45.48636881743796" lon="10.473151284288663"><ele>185.0</ele><time>2026-03-28T08:10:45.999Z</time></trkpt><trkpt lat="45.4863179308732" lon="10.473048608597198"><ele>184.6</ele><time>2026-03-28T08:10:56.998Z</time></trkpt><trkpt lat="45.48626724421278" lon="10.472938160799146"><ele>184.2</ele><time>2026-03-28T08:10:57.998Z</time></trkpt><trkpt lat="45.486208216434875" lon="10.472821015493732"><ele>183.8</ele><time>2026-03-28T08:10:58.998Z</time></trkpt><trkpt lat="45.48615719866694" lon="10.47268473436786"><ele>183.4</ele><time>2026-03-28T08:10:59.998Z</time></trkpt><trkpt lat="45.486090470552895" lon="10.472586364141193"><ele>183.0</ele><time>2026-03-28T08:11:00.998Z</time></trkpt><trkpt lat="45.48599309218662" lon="10.472501778314577"><ele>183.0</ele><time>2026-03-28T08:11:01.998Z</time></trkpt><trkpt lat="45.485931278614494" lon="10.472432667729993"><ele>183.0</ele><time>2026-03-28T08:11:02.998Z</time></trkpt><trkpt lat="45.48587701767661" lon="10.472356596320017"><ele>183.0</ele><time>2026-03-28T08:11:03.998Z</time></trkpt><trkpt lat="45.48581326247184" lon="10.472299458663372"><ele>183.0</ele><time>2026-03-28T08:11:04.998Z</time></trkpt><trkpt lat="45.485663678752395" lon="10.472388142396792"><ele>183.0</ele><time>2026-03-28T08:11:06.998Z</time></trkpt><trkpt lat="45.485585885762205" lon="10.472359858568161"><ele>183.0</ele><time>2026-03-28T08:11:08.998Z</time></trkpt><trkpt lat="45.485560632756716" lon="10.472111782399564"><ele>183.0</ele><time>2026-03-28T08:11:10.998Z</time></trkpt><trkpt lat="45.48552781124146" lon="10.47195471540402"><ele>183.0</ele><time>2026-03-28T08:11:11.998Z</time></trkpt><trkpt lat="45.485490807840506" lon="10.47177732210791"><ele>183.0</ele><time>2026-03-28T08:11:12.998Z</time></trkpt><trkpt lat="45.48544701498812" lon="10.47158687356052"><ele>181.33333333333334</ele><time>2026-03-28T08:11:13.998Z</time></trkpt><trkpt lat="45.485396701764195" lon="10.47139917210053"><ele>179.66666666666669</ele><time>2026-03-28T08:11:14.998Z</time></trkpt><trkpt lat="45.4853484744197" lon="10.47118726411977"><ele>178.0</ele><time>2026-03-28T08:11:15.998Z</time></trkpt><trkpt lat="45.485307908669945" lon="10.470975122140565"><ele>177.0</ele><time>2026-03-28T08:11:16.998Z</time></trkpt><trkpt lat="45.4852744163665" lon="10.470745272117743"><ele>176.0</ele><time>2026-03-28T08:11:17.998Z</time></trkpt><trkpt lat="45.48524547790344" lon="10.470520902473988"><ele>175.0</ele><time>2026-03-28T08:11:18.998Z</time></trkpt><trkpt lat="45.48519752374103" lon="10.470310216986027"><ele>174.25</ele><time>2026-03-28T08:11:19.998Z</time></trkpt><trkpt lat="45.48518352163855" lon="10.47010163611335"><ele>173.5</ele><time>2026-03-28T08:11:21Z</time></trkpt><trkpt lat="45.485142896592805" lon="10.469934674764373"><ele>172.75</ele><time>2026-03-28T08:11:22Z</time></trkpt><trkpt lat="45.48512231548804" lon="10.469781689813855"><ele>172.0</ele><time>2026-03-28T08:11:23Z</time></trkpt><trkpt lat="45.48510071564797" lon="10.469609031770116"><ele>171.66666666666669</ele><time>2026-03-28T08:11:24Z</time></trkpt><trkpt lat="45.485066919681174" lon="10.469427310592176"><ele>171.33333333333334</ele><time>2026-03-28T08:11:25Z</time></trkpt><trkpt lat="45.484988342430555" lon="10.469260231586226"><ele>171.0</ele><time>2026-03-28T08:11:26Z</time></trkpt><trkpt lat="45.4851097625018" lon="10.46889322432725"><ele>170.66666666666666</ele><time>2026-03-28T08:11:27Z</time></trkpt><trkpt lat="45.48510381658197" lon="10.468617820355277"><ele>170.33333333333331</ele><time>2026-03-28T08:11:28Z</time></trkpt><trkpt lat="45.48507937987194" lon="10.468327319847676"><ele>170.0</ele><time>2026-03-28T08:11:29Z</time></trkpt><trkpt lat="45.48504871793825" lon="10.468026438162468"><ele>169.5</ele><time>2026-03-28T08:11:30Z</time></trkpt><trkpt lat="45.485025928904065" lon="10.46769802861729"><ele>169.0</ele><time>2026-03-28T08:11:31Z</time></trkpt><trkpt lat="45.484997164977685" lon="10.46736629512473"><ele>169.0</ele><time>2026-03-28T08:11:32Z</time></trkpt><trkpt lat="45.484958659953136" lon="10.467036017088093"><ele>169.0</ele><time>2026-03-28T08:11:33Z</time></trkpt><trkpt lat="45.48490815071136" lon="10.466699972961973"><ele>169.0</ele><time>2026-03-28T08:11:34Z</time></trkpt><trkpt lat="45.4848579000616" lon="10.46635860563407"><ele>169.0</ele><time>2026-03-28T08:11:35Z</time></trkpt><trkpt lat="45.48481703684158" lon="10.466025958512956"><ele>168.0</ele><time>2026-03-28T08:11:36Z</time></trkpt><trkpt lat="45.484776410678684" lon="10.465684945083751"><ele>167.0</ele><time>2026-03-28T08:11:37Z</time></trkpt><trkpt lat="45.484740994942996" lon="10.465385453881803"><ele>166.66666666666666</ele><time>2026-03-28T08:11:38Z</time></trkpt><trkpt lat="45.48470560337021" lon="10.465086103499413"><ele>166.33333333333334</ele><time>2026-03-28T08:11:39Z</time></trkpt><trkpt lat="45.48466845035673" lon="10.46478453931949"><ele>166.0</ele><time>2026-03-28T08:11:40Z</time></trkpt><trkpt lat="45.484638180042616" lon="10.464493698451037"><ele>165.66666666666669</ele><time>2026-03-28T08:11:41Z</time></trkpt><trkpt lat="45.48461798700622" lon="10.464198668333134"><ele>165.33333333333334</ele><time>2026-03-28T08:11:42Z</time></trkpt><trkpt lat="45.48458657383796" lon="10.463914472549398"><ele>165.0</ele><time>2026-03-28T08:11:43Z</time></trkpt><trkpt lat="45.48456746854256" lon="10.46362199020141"><ele>164.66666666666666</ele><time>2026-03-28T08:11:44Z</time></trkpt><trkpt lat="45.484561313146074" lon="10.463303766881905"><ele>164.33333333333331</ele><time>2026-03-28T08:11:45Z</time></trkpt><trkpt lat="45.48456221622423" lon="10.463038456660717"><ele>164.0</ele><time>2026-03-28T08:11:46Z</time></trkpt><trkpt lat="45.48457710081699" lon="10.462796562258408"><ele>164.0</ele><time>2026-03-28T08:11:47Z</time></trkpt><trkpt lat="45.48459363967955" lon="10.46256065456136"><ele>164.0</ele><time>2026-03-28T08:11:48Z</time></trkpt><trkpt lat="45.48460162544965" lon="10.46233294770991"><ele>164.0</ele><time>2026-03-28T08:11:49Z</time></trkpt><trkpt lat="45.484617621914154" lon="10.46210480257332"><ele>163.66666666666666</ele><time>2026-03-28T08:11:50Z</time></trkpt><trkpt lat="45.48463864456685" lon="10.461882642842854"><ele>163.33333333333334</ele><time>2026-03-28T08:11:51Z</time></trkpt><trkpt lat="45.48464962219748" lon="10.461657949375839"><ele>163.0</ele><time>2026-03-28T08:11:52Z</time></trkpt><trkpt lat="45.48464758904415" lon="10.461435713520501"><ele>162.66666666666669</ele><time>2026-03-28T08:11:53Z</time></trkpt><trkpt lat="45.484646363244075" lon="10.461201298111359"><ele>162.33333333333334</ele><time>2026-03-28T08:11:54Z</time></trkpt><trkpt lat="45.48463957141761" lon="10.460958903619417"><ele>162.0</ele><time>2026-03-28T08:11:55Z</time></trkpt><trkpt lat="45.48463672623312" lon="10.460707866868626"><ele>162.0</ele><time>2026-03-28T08:11:56Z</time></trkpt><trkpt lat="45.48463038055991" lon="10.46045302348858"><ele>162.0</ele><time>2026-03-28T08:11:57Z</time></trkpt><trkpt lat="45.48462700214337" lon="10.460210126112818"><ele>162.0</ele><time>2026-03-28T08:11:58Z</time></trkpt><trkpt lat="45.48462286372542" lon="10.459943793968788"><ele>162.0</ele><time>2026-03-28T08:11:59Z</time></trkpt><trkpt lat="45.48461786846425" lon="10.459707976266111"><ele>162.0</ele><time>2026-03-28T08:12:00Z</time></trkpt><trkpt lat="45.484606840946455" lon="10.45950452167228"><ele>162.0</ele><time>2026-03-28T08:12:01Z</time></trkpt><trkpt lat="45.48459848933706" lon="10.459322234134397"><ele>162.0</ele><time>2026-03-28T08:12:02Z</time></trkpt><trkpt lat="45.484591229649226" lon="10.459181748074753"><ele>161.8</ele><time>2026-03-28T08:12:03Z</time></trkpt><trkpt lat="45.48458512533352" lon="10.459068003037668"><ele>161.6</ele><time>2026-03-28T08:12:04Z</time></trkpt><trkpt lat="45.48459575785095" lon="10.458943544953696"><ele>161.4</ele><time>2026-03-28T08:12:06Z</time></trkpt><trkpt lat="45.48461663950633" lon="10.458825497879651"><ele>161.20000000000002</ele><time>2026-03-28T08:12:08.999Z</time></trkpt><trkpt lat="45.4845384649092" lon="10.458792703087601"><ele>161.0</ele><time>2026-03-28T08:12:11.999Z</time></trkpt><trkpt lat="45.484415357626645" lon="10.458812053008728"><ele>161.0</ele><time>2026-03-28T08:12:13.999Z</time></trkpt><trkpt lat="45.48433612741952" lon="10.458818315967951"><ele>161.0</ele><time>2026-03-28T08:12:14.999Z</time></trkpt><trkpt lat="45.484237146043924" lon="10.458826424075774"><ele>161.0</ele><time>2026-03-28T08:12:16.999Z</time></trkpt><trkpt lat="45.4841744879566" lon="10.458839810789517"><ele>161.0</ele><time>2026-03-28T08:12:18.999Z</time></trkpt><trkpt lat="45.48410568738041" lon="10.458846572722356"><ele>161.0</ele><time>2026-03-28T08:12:20.999Z</time></trkpt><trkpt lat="45.48409889983904" lon="10.458743471665858"><ele>161.0</ele><time>2026-03-28T08:12:25.999Z</time></trkpt><trkpt lat="45.48420283602471" lon="10.458625996620786"><ele>160.4</ele><time>2026-03-28T08:12:28.999Z</time></trkpt><trkpt lat="45.484273960706794" lon="10.458517630291416"><ele>159.8</ele><time>2026-03-28T08:12:29.999Z</time></trkpt><trkpt lat="45.48435149608569" lon="10.458411954817274"><ele>159.20000000000002</ele><time>2026-03-28T08:12:30.999Z</time></trkpt><trkpt lat="45.48442450451372" lon="10.458286870737853"><ele>158.60000000000002</ele><time>2026-03-28T08:12:31.999Z</time></trkpt><trkpt lat="45.48447470506361" lon="10.458164010861625"><ele>158.0</ele><time>2026-03-28T08:12:32.999Z</time></trkpt><trkpt lat="45.48451908311517" lon="10.458025940186557"><ele>157.75</ele><time>2026-03-28T08:12:33.999Z</time></trkpt><trkpt lat="45.48453112617317" lon="10.457890865051631"><ele>157.5</ele><time>2026-03-28T08:12:34.999Z</time></trkpt><trkpt lat="45.484539958934064" lon="10.45769324952969"><ele>157.25</ele><time>2026-03-28T08:12:35.999Z</time></trkpt><trkpt lat="45.48453889163677" lon="10.457474240308743"><ele>157.0</ele><time>2026-03-28T08:12:36.999Z</time></trkpt><trkpt lat="45.48454092870054" lon="10.457248142455322"><ele>157.33333333333334</ele><time>2026-03-28T08:12:37.999Z</time></trkpt><trkpt lat="45.484540315127276" lon="10.457022455957851"><ele>157.66666666666666</ele><time>2026-03-28T08:12:38.999Z</time></trkpt><trkpt lat="45.484544838204734" lon="10.456789778239658"><ele>158.0</ele><time>2026-03-28T08:12:39.999Z</time></trkpt><trkpt lat="45.48454291615703" lon="10.456574015470677"><ele>158.0</ele><time>2026-03-28T08:12:40.999Z</time></trkpt><trkpt lat="45.48453934660733" lon="10.456326062901653"><ele>158.0</ele><time>2026-03-28T08:12:41.999Z</time></trkpt><trkpt lat="45.484538400365324" lon="10.456098711576963"><ele>158.0</ele><time>2026-03-28T08:12:42.999Z</time></trkpt><trkpt lat="45.48453560254568" lon="10.455863473092277"><ele>157.66666666666666</ele><time>2026-03-28T08:12:43.999Z</time></trkpt><trkpt lat="45.48453552437447" lon="10.4556156701808"><ele>157.33333333333334</ele><time>2026-03-28T08:12:44.999Z</time></trkpt><trkpt lat="45.48453287534157" lon="10.455371718207513"><ele>157.0</ele><time>2026-03-28T08:12:45.999Z</time></trkpt><trkpt lat="45.48452381548216" lon="10.455142742491041"><ele>156.75</ele><time>2026-03-28T08:12:46.999Z</time></trkpt><trkpt lat="45.48451864887221" lon="10.454912993168872"><ele>156.5</ele><time>2026-03-28T08:12:47.999Z</time></trkpt><trkpt lat="45.48453025413901" lon="10.4547152257673"><ele>156.25</ele><time>2026-03-28T08:12:48.999Z</time></trkpt><trkpt lat="45.48453939072417" lon="10.454565142882831"><ele>156.0</ele><time>2026-03-28T08:12:49.999Z</time></trkpt><trkpt lat="45.48454556607674" lon="10.454428068896807"><ele>155.8</ele><time>2026-03-28T08:12:50.999Z</time></trkpt><trkpt lat="45.484543234396526" lon="10.454281567572002"><ele>155.6</ele><time>2026-03-28T08:12:51.999Z</time></trkpt><trkpt lat="45.48454716792443" lon="10.454144583535637"><ele>155.4</ele><time>2026-03-28T08:12:52.999Z</time></trkpt><trkpt lat="45.48455602919286" lon="10.45402953439926"><ele>155.2</ele><time>2026-03-28T08:12:53.999Z</time></trkpt><trkpt lat="45.48451306871685" lon="10.453937197282649"><ele>155.0</ele><time>2026-03-28T08:12:55.999Z</time></trkpt><trkpt lat="45.48437791215114" lon="10.453927305834899"><ele>155.0</ele><time>2026-03-28T08:12:57.999Z</time></trkpt><trkpt lat="45.48424770819034" lon="10.453917794918178"><ele>155.0</ele><time>2026-03-28T08:12:58.999Z</time></trkpt><trkpt lat="45.484071313592594" lon="10.453894970359542"><ele>155.0</ele><time>2026-03-28T08:12:59.999Z</time></trkpt><trkpt lat="45.48388486880486" lon="10.453864680509403"><ele>154.66666666666666</ele><time>2026-03-28T08:13:00.999Z</time></trkpt><trkpt lat="45.4836761126218" lon="10.453825969753888"><ele>154.33333333333334</ele><time>2026-03-28T08:13:01.999Z</time></trkpt><trkpt lat="45.48344835407031" lon="10.453787308941529"><ele>154.0</ele><time>2026-03-28T08:13:02.999Z</time></trkpt><trkpt lat="45.48321266058196" lon="10.45375577714479"><ele>153.5</ele><time>2026-03-28T08:13:03.999Z</time></trkpt><trkpt lat="45.48297228729585" lon="10.453731052956005"><ele>153.0</ele><time>2026-03-28T08:13:04.999Z</time></trkpt><trkpt lat="45.482722035625876" lon="10.453705912178357"><ele>152.66666666666666</ele><time>2026-03-28T08:13:05.999Z</time></trkpt><trkpt lat="45.48253262515818" lon="10.453677491705335"><ele>152.33333333333331</ele><time>2026-03-28T08:13:06.999Z</time></trkpt><trkpt lat="45.4823240331134" lon="10.4536438409248"><ele>152.0</ele><time>2026-03-28T08:13:07.999Z</time></trkpt><trkpt lat="45.482104154619854" lon="10.453611446079929"><ele>152.0</ele><time>2026-03-28T08:13:08.999Z</time></trkpt><trkpt lat="45.48191140161301" lon="10.453582803778675"><ele>152.0</ele><time>2026-03-28T08:13:09.998Z</time></trkpt><trkpt lat="45.481728541869835" lon="10.453555708532274"><ele>152.0</ele><time>2026-03-28T08:13:10.998Z</time></trkpt><trkpt lat="45.48156773342088" lon="10.453528297523622"><ele>152.0</ele><time>2026-03-28T08:13:11.998Z</time></trkpt><trkpt lat="45.481398983095445" lon="10.45349926738476"><ele>152.0</ele><time>2026-03-28T08:13:12.998Z</time></trkpt><trkpt lat="45.48124357894436" lon="10.453477771993061"><ele>152.0</ele><time>2026-03-28T08:13:13.998Z</time></trkpt><trkpt lat="45.48107995446757" lon="10.453449575171716"><ele>151.66666666666666</ele><time>2026-03-28T08:13:14.998Z</time></trkpt><trkpt lat="45.48090250446715" lon="10.45342333863646"><ele>151.33333333333334</ele><time>2026-03-28T08:13:15.998Z</time></trkpt><trkpt lat="45.48073298392819" lon="10.45339669819"><ele>151.0</ele><time>2026-03-28T08:13:16.998Z</time></trkpt><trkpt lat="45.48055850644567" lon="10.453375075823306"><ele>151.25</ele><time>2026-03-28T08:13:17.998Z</time></trkpt><trkpt lat="45.48041844449711" lon="10.45335336020583"><ele>151.5</ele><time>2026-03-28T08:13:18.998Z</time></trkpt><trkpt lat="45.48026323499106" lon="10.45333702204975"><ele>151.75</ele><time>2026-03-28T08:13:19.998Z</time></trkpt><trkpt lat="45.48015660863269" lon="10.45333257940713"><ele>152.0</ele><time>2026-03-28T08:13:20.998Z</time></trkpt><trkpt lat="45.480064354221355" lon="10.453326019395549"><ele>152.0</ele><time>2026-03-28T08:13:21.998Z</time></trkpt><trkpt lat="45.47998746286606" lon="10.45332020666541"><ele>152.0</ele><time>2026-03-28T08:13:22.998Z</time></trkpt><trkpt lat="45.479883694947254" lon="10.453338596602835"><ele>152.0</ele><time>2026-03-28T08:13:24.998Z</time></trkpt><trkpt lat="45.479808182689496" lon="10.453382899989858"><ele>152.0</ele><time>2026-03-28T08:13:25.998Z</time></trkpt><trkpt lat="45.47971798180504" lon="10.453459371831043"><ele>152.0</ele><time>2026-03-28T08:13:27Z</time></trkpt><trkpt lat="45.47962127817344" lon="10.453543478854051"><ele>151.75</ele><time>2026-03-28T08:13:28Z</time></trkpt><trkpt lat="45.479515803421904" lon="10.453633347857227"><ele>151.5</ele><time>2026-03-28T08:13:29Z</time></trkpt><trkpt lat="45.47940963731717" lon="10.453729378943493"><ele>151.25</ele><time>2026-03-28T08:13:30Z</time></trkpt><trkpt lat="45.479310644670164" lon="10.453831536560305"><ele>151.0</ele><time>2026-03-28T08:13:31Z</time></trkpt><trkpt lat="45.47920670008094" lon="10.453941805174043"><ele>151.0</ele><time>2026-03-28T08:13:32Z</time></trkpt><trkpt lat="45.47910885098053" lon="10.454061835207828"><ele>151.0</ele><time>2026-03-28T08:13:33Z</time></trkpt><trkpt lat="45.479013388083104" lon="10.454182457143437"><ele>151.0</ele><time>2026-03-28T08:13:34Z</time></trkpt><trkpt lat="45.47883871038079" lon="10.454174708468765"><ele>151.0</ele><time>2026-03-28T08:13:35Z</time></trkpt><trkpt lat="45.47874513658888" lon="10.454297860935046"><ele>151.0</ele><time>2026-03-28T08:13:36Z</time></trkpt><trkpt lat="45.47864695440682" lon="10.454426484194112"><ele>151.0</ele><time>2026-03-28T08:13:37Z</time></trkpt><trkpt lat="45.478543545660315" lon="10.45454993774815"><ele>151.0</ele><time>2026-03-28T08:13:38Z</time></trkpt><trkpt lat="45.478445912606354" lon="10.454636746860038"><ele>151.0</ele><time>2026-03-28T08:13:39Z</time></trkpt><trkpt lat="45.4783088934012" lon="10.454798872072146"><ele>151.0</ele><time>2026-03-28T08:13:40Z</time></trkpt><trkpt lat="45.47823530194708" lon="10.454926413248504"><ele>151.0</ele><time>2026-03-28T08:13:41Z</time></trkpt><trkpt lat="45.47814751050548" lon="10.455044713867549"><ele>151.0</ele><time>2026-03-28T08:13:42Z</time></trkpt><trkpt lat="45.4780467610849" lon="10.455165030700755"><ele>151.0</ele><time>2026-03-28T08:13:43Z</time></trkpt><trkpt lat="45.47793948579426" lon="10.455287871845956"><ele>151.5</ele><time>2026-03-28T08:13:44Z</time></trkpt><trkpt lat="45.477830448440955" lon="10.455412731298532"><ele>152.0</ele><time>2026-03-28T08:13:45Z</time></trkpt><trkpt lat="45.47772143676681" lon="10.455537561620604"><ele>152.5</ele><time>2026-03-28T08:13:46Z</time></trkpt><trkpt lat="45.477620828928956" lon="10.455652768625907"><ele>153.0</ele><time>2026-03-28T08:13:47Z</time></trkpt><trkpt lat="45.47761700048452" lon="10.455900759811417"><ele>153.0</ele><time>2026-03-28T08:13:48Z</time></trkpt><trkpt lat="45.477538581726265" lon="10.455983286673293"><ele>153.0</ele><time>2026-03-28T08:13:49Z</time></trkpt><trkpt lat="45.47747375945618" lon="10.456053756374988"><ele>153.0</ele><time>2026-03-28T08:13:50Z</time></trkpt><trkpt lat="45.47742014446235" lon="10.456107305228075"><ele>153.0</ele><time>2026-03-28T08:13:53Z</time></trkpt><trkpt lat="45.47736461443204" lon="10.4561883412013"><ele>153.0</ele><time>2026-03-28T08:13:55Z</time></trkpt><trkpt lat="45.47732587820493" lon="10.456299694154607"><ele>153.0</ele><time>2026-03-28T08:13:56Z</time></trkpt><trkpt lat="45.47728807255368" lon="10.45642124178173"><ele>153.0</ele><time>2026-03-28T08:13:57Z</time></trkpt><trkpt lat="45.477244839367394" lon="10.456572819942481"><ele>153.0</ele><time>2026-03-28T08:13:58Z</time></trkpt><trkpt lat="45.47720508068098" lon="10.456738388254616"><ele>153.0</ele><time>2026-03-28T08:13:59Z</time></trkpt><trkpt lat="45.47716536778579" lon="10.456920446438373"><ele>153.0</ele><time>2026-03-28T08:14:00Z</time></trkpt><trkpt lat="45.477122165363504" lon="10.45711439673539"><ele>153.5</ele><time>2026-03-28T08:14:01Z</time></trkpt><trkpt lat="45.47708165284633" lon="10.457313218229434"><ele>154.0</ele><time>2026-03-28T08:14:02Z</time></trkpt><trkpt lat="45.477049928032024" lon="10.457522859483444"><ele>154.5</ele><time>2026-03-28T08:14:03Z</time></trkpt><trkpt lat="45.477014319089385" lon="10.45773266369714"><ele>155.0</ele><time>2026-03-28T08:14:04Z</time></trkpt><trkpt lat="45.47698539556698" lon="10.457923809086312"><ele>155.0</ele><time>2026-03-28T08:14:05Z</time></trkpt><trkpt lat="45.476947706909435" lon="10.458122217687118"><ele>155.0</ele><time>2026-03-28T08:14:06Z</time></trkpt><trkpt lat="45.476906173070255" lon="10.458319578749407"><ele>155.0</ele><time>2026-03-28T08:14:07Z</time></trkpt><trkpt lat="45.476868273305456" lon="10.458526137963137"><ele>155.0</ele><time>2026-03-28T08:14:08Z</time></trkpt><trkpt lat="45.47682478912235" lon="10.458731800974842"><ele>155.0</ele><time>2026-03-28T08:14:09Z</time></trkpt><trkpt lat="45.476776527232744" lon="10.458939103215947"><ele>155.0</ele><time>2026-03-28T08:14:10Z</time></trkpt><trkpt lat="45.47672027948067" lon="10.459137169428445"><ele>155.0</ele><time>2026-03-28T08:14:11Z</time></trkpt><trkpt lat="45.47667705909663" lon="10.459277332903039"><ele>155.0</ele><time>2026-03-28T08:14:12Z</time></trkpt><trkpt lat="45.47665513809221" lon="10.459366042436237"><ele>155.0</ele><time>2026-03-28T08:14:13Z</time></trkpt><trkpt lat="45.47661009461383" lon="10.459434817142535"><ele>155.0</ele><time>2026-03-28T08:14:14Z</time></trkpt><trkpt lat="45.47658812039926" lon="10.459523923153933"><ele>155.0</ele><time>2026-03-28T08:14:15Z</time></trkpt><trkpt lat="45.47641846310939" lon="10.459506917202686"><ele>155.0</ele><time>2026-03-28T08:14:15.999Z</time></trkpt><trkpt lat="45.476312883253044" lon="10.459586756258522"><ele>155.0</ele><time>2026-03-28T08:14:16.999Z</time></trkpt><trkpt lat="45.476197542063545" lon="10.459675137200742"><ele>155.0</ele><time>2026-03-28T08:14:17.999Z</time></trkpt><trkpt lat="45.476079386103684" lon="10.45976758362061"><ele>155.0</ele><time>2026-03-28T08:14:18.999Z</time></trkpt><trkpt lat="45.47596026409649" lon="10.459861224164436"><ele>155.0</ele><time>2026-03-28T08:14:19.999Z</time></trkpt><trkpt lat="45.475837237563276" lon="10.459965913662423"><ele>155.0</ele><time>2026-03-28T08:14:20.999Z</time></trkpt><trkpt lat="45.47572133127109" lon="10.460095930320664"><ele>155.0</ele><time>2026-03-28T08:14:21.999Z</time></trkpt><trkpt lat="45.47558146934073" lon="10.460208690617048"><ele>155.0</ele><time>2026-03-28T08:14:22.999Z</time></trkpt><trkpt lat="45.47543721429947" lon="10.460317803775231"><ele>155.0</ele><time>2026-03-28T08:14:23.999Z</time></trkpt><trkpt lat="45.47529372183482" lon="10.460416936220648"><ele>154.0</ele><time>2026-03-28T08:14:24.999Z</time></trkpt><trkpt lat="45.47514575033505" lon="10.460505146402223"><ele>153.0</ele><time>2026-03-28T08:14:25.999Z</time></trkpt><trkpt lat="45.47500044155441" lon="10.460582994918171"><ele>152.0</ele><time>2026-03-28T08:14:26.999Z</time></trkpt><trkpt lat="45.47485001843973" lon="10.460667570209415"><ele>152.0</ele><time>2026-03-28T08:14:27.999Z</time></trkpt><trkpt lat="45.47471453440684" lon="10.460768013493217"><ele>152.0</ele><time>2026-03-28T08:14:28.999Z</time></trkpt><trkpt lat="45.474575680909204" lon="10.460876835741804"><ele>152.0</ele><time>2026-03-28T08:14:29.999Z</time></trkpt><trkpt lat="45.47443527738788" lon="10.460991306297549"><ele>152.5</ele><time>2026-03-28T08:14:30.999Z</time></trkpt><trkpt lat="45.47431297698444" lon="10.461103477401265"><ele>153.0</ele><time>2026-03-28T08:14:31.999Z</time></trkpt><trkpt lat="45.47419183441297" lon="10.461225195302529"><ele>153.5</ele><time>2026-03-28T08:14:32.999Z</time></trkpt><trkpt lat="45.474077964157985" lon="10.46137275581346"><ele>154.0</ele><time>2026-03-28T08:14:33.999Z</time></trkpt><trkpt lat="45.473964514346854" lon="10.461520892865005"><ele>154.0</ele><time>2026-03-28T08:14:34.999Z</time></trkpt><trkpt lat="45.47384348964305" lon="10.461674639679526"><ele>154.0</ele><time>2026-03-28T08:14:35.999Z</time></trkpt><trkpt lat="45.47372054931704" lon="10.461809444186407"><ele>154.0</ele><time>2026-03-28T08:14:36.999Z</time></trkpt><trkpt lat="45.47359602763114" lon="10.461940799914586"><ele>153.66666666666669</ele><time>2026-03-28T08:14:37.999Z</time></trkpt><trkpt lat="45.47346607230907" lon="10.462055080340006"><ele>153.33333333333334</ele><time>2026-03-28T08:14:38.999Z</time></trkpt><trkpt lat="45.47333176311317" lon="10.46215955338463"><ele>153.0</ele><time>2026-03-28T08:14:39.999Z</time></trkpt><trkpt lat="45.473193179349146" lon="10.462279698544968"><ele>152.66666666666666</ele><time>2026-03-28T08:14:40.999Z</time></trkpt><trkpt lat="45.47306272694649" lon="10.46240058453337"><ele>152.33333333333331</ele><time>2026-03-28T08:14:41.999Z</time></trkpt><trkpt lat="45.472936719312564" lon="10.462532100821985"><ele>152.0</ele><time>2026-03-28T08:14:42.999Z</time></trkpt><trkpt lat="45.472822844427" lon="10.46264782822049"><ele>152.0</ele><time>2026-03-28T08:14:43.999Z</time></trkpt><trkpt lat="45.47269518097059" lon="10.462759535695277"><ele>152.0</ele><time>2026-03-28T08:14:44.999Z</time></trkpt><trkpt lat="45.47258807780462" lon="10.462891848044523"><ele>152.0</ele><time>2026-03-28T08:14:45.999Z</time></trkpt><trkpt lat="45.47246264208461" lon="10.463011852303115"><ele>152.0</ele><time>2026-03-28T08:14:46.999Z</time></trkpt><trkpt lat="45.47233868580863" lon="10.463135765512307"><ele>152.33333333333331</ele><time>2026-03-28T08:14:47.999Z</time></trkpt><trkpt lat="45.472217063885246" lon="10.46327462560646"><ele>152.66666666666666</ele><time>2026-03-28T08:14:48.999Z</time></trkpt><trkpt lat="45.47209466942388" lon="10.463414865332021"><ele>153.0</ele><time>2026-03-28T08:14:49.999Z</time></trkpt><trkpt lat="45.47196484841062" lon="10.46354701929594"><ele>153.0</ele><time>2026-03-28T08:14:50.999Z</time></trkpt><trkpt lat="45.47181346742615" lon="10.463634413534313"><ele>153.0</ele><time>2026-03-28T08:14:51.999Z</time></trkpt><trkpt lat="45.47166036376048" lon="10.463721409568448"><ele>153.0</ele><time>2026-03-28T08:14:52.999Z</time></trkpt><trkpt lat="45.47151037938606" lon="10.463801689122144"><ele>153.0</ele><time>2026-03-28T08:14:53.999Z</time></trkpt><trkpt lat="45.4713696834364" lon="10.463875015012139"><ele>153.0</ele><time>2026-03-28T08:14:54.999Z</time></trkpt><trkpt lat="45.471235149359096" lon="10.463961753634322"><ele>153.0</ele><time>2026-03-28T08:14:55.999Z</time></trkpt><trkpt lat="45.471125617627685" lon="10.464090380203661"><ele>153.0</ele><time>2026-03-28T08:14:56.999Z</time></trkpt><trkpt lat="45.47100852261914" lon="10.464237800104197"><ele>152.66666666666666</ele><time>2026-03-28T08:14:57.999Z</time></trkpt><trkpt lat="45.47090104324199" lon="10.464407903542464"><ele>152.33333333333331</ele><time>2026-03-28T08:14:58.999Z</time></trkpt><trkpt lat="45.47079258994969" lon="10.464590058115618"><ele>152.0</ele><time>2026-03-28T08:14:59.999Z</time></trkpt><trkpt lat="45.470685167094274" lon="10.464772187004236"><ele>152.0</ele><time>2026-03-28T08:15:00.999Z</time></trkpt><trkpt lat="45.47058814985176" lon="10.464942023993258"><ele>152.0</ele><time>2026-03-28T08:15:01.999Z</time></trkpt><trkpt lat="45.4704877370098" lon="10.465076066010539"><ele>152.0</ele><time>2026-03-28T08:15:02.999Z</time></trkpt><trkpt lat="45.470397402239044" lon="10.465222188894607"><ele>152.0</ele><time>2026-03-28T08:15:03.999Z</time></trkpt><trkpt lat="45.47029297537895" lon="10.465369504864924"><ele>152.0</ele><time>2026-03-28T08:15:04.999Z</time></trkpt><trkpt lat="45.47017182427829" lon="10.46551624650417"><ele>152.0</ele><time>2026-03-28T08:15:05.999Z</time></trkpt><trkpt lat="45.47004042929826" lon="10.465662794789402"><ele>152.0</ele><time>2026-03-28T08:15:06.999Z</time></trkpt><trkpt lat="45.46993199037804" lon="10.465810892923372"><ele>152.0</ele><time>2026-03-28T08:15:07.999Z</time></trkpt><trkpt lat="45.469830213344196" lon="10.465939814035732"><ele>152.0</ele><time>2026-03-28T08:15:08.999Z</time></trkpt><trkpt lat="45.46974917361186" lon="10.466065177743399"><ele>152.0</ele><time>2026-03-28T08:15:09.999Z</time></trkpt><trkpt lat="45.46968880418261" lon="10.466201844930056"><ele>152.0</ele><time>2026-03-28T08:15:10.999Z</time></trkpt><trkpt lat="45.46964297381394" lon="10.46636157273622"><ele>152.5</ele><time>2026-03-28T08:15:11.999Z</time></trkpt><trkpt lat="45.46960334593523" lon="10.466543417169895"><ele>153.0</ele><time>2026-03-28T08:15:12.998Z</time></trkpt><trkpt lat="45.469561403855124" lon="10.466736471797557"><ele>153.5</ele><time>2026-03-28T08:15:13.998Z</time></trkpt><trkpt lat="45.46951530391802" lon="10.466937779769735"><ele>154.0</ele><time>2026-03-28T08:15:14.998Z</time></trkpt><trkpt lat="45.46946064511479" lon="10.467136442797662"><ele>154.0</ele><time>2026-03-28T08:15:15.998Z</time></trkpt><trkpt lat="45.46942072577135" lon="10.467325233051437"><ele>154.0</ele><time>2026-03-28T08:15:16.998Z</time></trkpt><trkpt lat="45.46937300549013" lon="10.467511472919606"><ele>154.0</ele><time>2026-03-28T08:15:17.998Z</time></trkpt><trkpt lat="45.46930347983036" lon="10.46767888063624"><ele>154.0</ele><time>2026-03-28T08:15:18.998Z</time></trkpt><trkpt lat="45.46922045962103" lon="10.467821130388478"><ele>154.0</ele><time>2026-03-28T08:15:19.998Z</time></trkpt><trkpt lat="45.46912555957315" lon="10.467938539053483"><ele>154.0</ele><time>2026-03-28T08:15:20.998Z</time></trkpt><trkpt lat="45.46900471601657" lon="10.468021902957748"><ele>154.0</ele><time>2026-03-28T08:15:21.998Z</time></trkpt><trkpt lat="45.46887908367274" lon="10.468101129552"><ele>154.0</ele><time>2026-03-28T08:15:22.998Z</time></trkpt><trkpt lat="45.468756490958874" lon="10.468196935366135"><ele>154.0</ele><time>2026-03-28T08:15:23.998Z</time></trkpt><trkpt lat="45.468618517516866" lon="10.468261782162342"><ele>154.0</ele><time>2026-03-28T08:15:24.998Z</time></trkpt><trkpt lat="45.46847499914234" lon="10.468295726966486"><ele>154.0</ele><time>2026-03-28T08:15:25.998Z</time></trkpt><trkpt lat="45.46834831293044" lon="10.468334597381206"><ele>154.0</ele><time>2026-03-28T08:15:26.998Z</time></trkpt><trkpt lat="45.46823616635712" lon="10.468361135988586"><ele>154.0</ele><time>2026-03-28T08:15:27.998Z</time></trkpt><trkpt lat="45.468133672311" lon="10.468382291706066"><ele>154.0</ele><time>2026-03-28T08:15:28.998Z</time></trkpt><trkpt lat="45.46805032380492" lon="10.468393415518811"><ele>154.0</ele><time>2026-03-28T08:15:29.998Z</time></trkpt><trkpt lat="45.46797497786248" lon="10.468402163896329"><ele>154.0</ele><time>2026-03-28T08:15:30.998Z</time></trkpt><trkpt lat="45.467906446409465" lon="10.468409568444141"><ele>154.0</ele><time>2026-03-28T08:15:31.998Z</time></trkpt><trkpt lat="45.46781042697114" lon="10.46841994302972"><ele>154.0</ele><time>2026-03-28T08:15:34Z</time></trkpt><trkpt lat="45.46780002507457" lon="10.468631915938499"><ele>154.0</ele><time>2026-03-28T08:15:35Z</time></trkpt><trkpt lat="45.467790920745756" lon="10.468769868452975"><ele>154.0</ele><time>2026-03-28T08:15:36Z</time></trkpt><trkpt lat="45.46777584758114" lon="10.468926363720119"><ele>154.0</ele><time>2026-03-28T08:15:37Z</time></trkpt><trkpt lat="45.46774007806383" lon="10.46915943976745"><ele>154.0</ele><time>2026-03-28T08:15:38Z</time></trkpt><trkpt lat="45.467725848623736" lon="10.469339817476742"><ele>153.33333333333334</ele><time>2026-03-28T08:15:39Z</time></trkpt><trkpt lat="45.46769393889069" lon="10.469528064081475"><ele>152.66666666666666</ele><time>2026-03-28T08:15:40Z</time></trkpt><trkpt lat="45.46766581557383" lon="10.469789966521958"><ele>152.0</ele><time>2026-03-28T08:15:41Z</time></trkpt><trkpt lat="45.46762970817661" lon="10.470062519912595"><ele>152.0</ele><time>2026-03-28T08:15:42Z</time></trkpt><trkpt lat="45.46757769001283" lon="10.470335662363842"><ele>152.0</ele><time>2026-03-28T08:15:43Z</time></trkpt><trkpt lat="45.467522128829565" lon="10.470570110888152"><ele>152.0</ele><time>2026-03-28T08:15:44Z</time></trkpt><trkpt lat="45.46746696865208" lon="10.470784210741764"><ele>152.33333333333331</ele><time>2026-03-28T08:15:45Z</time></trkpt><trkpt lat="45.46741466617138" lon="10.470999116955086"><ele>152.66666666666666</ele><time>2026-03-28T08:15:46Z</time></trkpt><trkpt lat="45.46737068475629" lon="10.471212115617798"><ele>153.0</ele><time>2026-03-28T08:15:47Z</time></trkpt><trkpt lat="45.46733093627916" lon="10.471432825224552"><ele>153.25</ele><time>2026-03-28T08:15:48Z</time></trkpt><trkpt lat="45.46729452563172" lon="10.471638869880115"><ele>153.5</ele><time>2026-03-28T08:15:49Z</time></trkpt><trkpt lat="45.46726548430393" lon="10.47181722308975"><ele>153.75</ele><time>2026-03-28T08:15:50Z</time></trkpt><trkpt lat="45.46724993097485" lon="10.471958146285989"><ele>154.0</ele><time>2026-03-28T08:15:51Z</time></trkpt><trkpt lat="45.467228111494606" lon="10.472065660935487"><ele>154.75</ele><time>2026-03-28T08:15:52Z</time></trkpt><trkpt lat="45.46719380228123" lon="10.47214930956977"><ele>155.5</ele><time>2026-03-28T08:15:53Z</time></trkpt><trkpt lat="45.467090759551006" lon="10.472171100783644"><ele>156.25</ele><time>2026-03-28T08:15:55Z</time></trkpt><trkpt lat="45.46693869937882" lon="10.47200639487324"><ele>157.0</ele><time>2026-03-28T08:15:57Z</time></trkpt><trkpt lat="45.466820456476114" lon="10.47192295473929"><ele>157.2</ele><time>2026-03-28T08:15:58Z</time></trkpt><trkpt lat="45.46669445426078" lon="10.471874970240915"><ele>157.39999999999998</ele><time>2026-03-28T08:15:59Z</time></trkpt><trkpt lat="45.466594154939095" lon="10.471860856926291"><ele>157.60000000000002</ele><time>2026-03-28T08:16:00Z</time></trkpt><trkpt lat="45.466519130241174" lon="10.471814184911757"><ele>157.8</ele><time>2026-03-28T08:16:01Z</time></trkpt><trkpt lat="45.46641645251569" lon="10.471821891617374"><ele>158.0</ele><time>2026-03-28T08:16:03Z</time></trkpt><trkpt lat="45.46638480133413" lon="10.471917826948372"><ele>158.0</ele><time>2026-03-28T08:16:04Z</time></trkpt><trkpt lat="45.46634034036823" lon="10.471993564586052"><ele>158.0</ele><time>2026-03-28T08:16:05Z</time></trkpt><trkpt lat="45.46624287635222" lon="10.47202188310601"><ele>158.0</ele><time>2026-03-28T08:16:06Z</time></trkpt><trkpt lat="45.46614170831088" lon="10.472072280446037"><ele>158.0</ele><time>2026-03-28T08:16:07Z</time></trkpt><trkpt lat="45.4660157333865" lon="10.47213651362672"><ele>158.0</ele><time>2026-03-28T08:16:08Z</time></trkpt><trkpt lat="45.46588160267785" lon="10.472214148261147"><ele>158.0</ele><time>2026-03-28T08:16:09Z</time></trkpt><trkpt lat="45.465734207802285" lon="10.47227328886663"><ele>158.0</ele><time>2026-03-28T08:16:10Z</time></trkpt><trkpt lat="45.46558832394387" lon="10.472333161542007"><ele>158.0</ele><time>2026-03-28T08:16:11Z</time></trkpt><trkpt lat="45.46544087054163" lon="10.472392520136168"><ele>158.0</ele><time>2026-03-28T08:16:12Z</time></trkpt><trkpt lat="45.46529210010787" lon="10.472440728349829"><ele>158.0</ele><time>2026-03-28T08:16:13Z</time></trkpt><trkpt lat="45.46515539732124" lon="10.472470321058271"><ele>158.0</ele><time>2026-03-28T08:16:14Z</time></trkpt><trkpt lat="45.46501802251936" lon="10.47249134472922"><ele>158.0</ele><time>2026-03-28T08:16:15Z</time></trkpt><trkpt lat="45.464886561318906" lon="10.47248491226218"><ele>158.0</ele><time>2026-03-28T08:16:16Z</time></trkpt><trkpt lat="45.46476031435308" lon="10.472470166979265"><ele>158.0</ele><time>2026-03-28T08:16:17Z</time></trkpt><trkpt lat="45.46463904806342" lon="10.472468987985266"><ele>158.0</ele><time>2026-03-28T08:16:18Z</time></trkpt><trkpt lat="45.464521146684206" lon="10.472433538490716"><ele>158.0</ele><time>2026-03-28T08:16:19Z</time></trkpt><trkpt lat="45.46440021038488" lon="10.47244289274136"><ele>158.20000000000002</ele><time>2026-03-28T08:16:20Z</time></trkpt><trkpt lat="45.46427877120815" lon="10.472423335835654"><ele>158.4</ele><time>2026-03-28T08:16:21Z</time></trkpt><trkpt lat="45.46418283258972" lon="10.47241054348293"><ele>158.60000000000002</ele><time>2026-03-28T08:16:22Z</time></trkpt><trkpt lat="45.46410382507773" lon="10.472402574462441"><ele>158.8</ele><time>2026-03-28T08:16:22.999Z</time></trkpt><trkpt lat="45.46399649371485" lon="10.47240198305843"><ele>159.0</ele><time>2026-03-28T08:16:24.999Z</time></trkpt><trkpt lat="45.46392387435488" lon="10.472382880148453"><ele>159.0</ele><time>2026-03-28T08:16:29.999Z</time></trkpt><trkpt lat="45.46384421178096" lon="10.472388022061493"><ele>159.0</ele><time>2026-03-28T08:16:32.999Z</time></trkpt><trkpt lat="45.46383210289163" lon="10.47254478011399"><ele>159.0</ele><time>2026-03-28T08:16:33.999Z</time></trkpt><trkpt lat="45.46381164824763" lon="10.472632644232174"><ele>159.0</ele><time>2026-03-28T08:16:34.999Z</time></trkpt><trkpt lat="45.46380665160188" lon="10.472733968456271"><ele>159.0</ele><time>2026-03-28T08:16:35.999Z</time></trkpt><trkpt lat="45.46378593911462" lon="10.47282764069113"><ele>159.0</ele><time>2026-03-28T08:16:36.999Z</time></trkpt><trkpt lat="45.463771971177735" lon="10.472943733086685"><ele>159.16666666666666</ele><time>2026-03-28T08:16:37.999Z</time></trkpt><trkpt lat="45.463759491694006" lon="10.473074438260356"><ele>159.33333333333334</ele><time>2026-03-28T08:16:38.999Z</time></trkpt><trkpt lat="45.463747881296634" lon="10.473182694057398"><ele>159.5</ele><time>2026-03-28T08:16:39.999Z</time></trkpt><trkpt lat="45.46373924351056" lon="10.473296863976632"><ele>159.66666666666669</ele><time>2026-03-28T08:16:40.999Z</time></trkpt><trkpt lat="45.46373273254719" lon="10.473412721268009"><ele>159.83333333333334</ele><time>2026-03-28T08:16:41.999Z</time></trkpt><trkpt lat="45.463725218411405" lon="10.473564266187593"><ele>160.0</ele><time>2026-03-28T08:16:42.999Z</time></trkpt><trkpt lat="45.463712459581444" lon="10.473732974730956"><ele>160.4</ele><time>2026-03-28T08:16:43.999Z</time></trkpt><trkpt lat="45.463697753615556" lon="10.473896558234307"><ele>160.8</ele><time>2026-03-28T08:16:44.999Z</time></trkpt><trkpt lat="45.46368361938901" lon="10.47403083579885"><ele>161.2</ele><time>2026-03-28T08:16:45.999Z</time></trkpt><trkpt lat="45.463675300103716" lon="10.474159868226842"><ele>161.6</ele><time>2026-03-28T08:16:46.999Z</time></trkpt><trkpt lat="45.4636713909199" lon="10.474285698122477"><ele>162.0</ele><time>2026-03-28T08:16:47.999Z</time></trkpt><trkpt lat="45.46366150258754" lon="10.474399685900984"><ele>162.0</ele><time>2026-03-28T08:16:48.999Z</time></trkpt><trkpt lat="45.46364760726655" lon="10.474527046017942"><ele>162.0</ele><time>2026-03-28T08:16:49.999Z</time></trkpt><trkpt lat="45.46361264787022" lon="10.474655697113343"><ele>162.0</ele><time>2026-03-28T08:16:51.999Z</time></trkpt><trkpt lat="45.463454185941565" lon="10.47455180356762"><ele>162.0</ele><time>2026-03-28T08:16:54.999Z</time></trkpt><trkpt lat="45.463370870314115" lon="10.47446827609147"><ele>162.0</ele><time>2026-03-28T08:16:55.999Z</time></trkpt><trkpt lat="45.4632710761202" lon="10.474368227965229"><ele>162.0</ele><time>2026-03-28T08:16:56.999Z</time></trkpt><trkpt lat="45.46316079124883" lon="10.474263503470468"><ele>162.0</ele><time>2026-03-28T08:16:57.999Z</time></trkpt><trkpt lat="45.463053836412556" lon="10.474161506730853"><ele>162.0</ele><time>2026-03-28T08:16:58.999Z</time></trkpt><trkpt lat="45.46295844187401" lon="10.474070534388135"><ele>162.0</ele><time>2026-03-28T08:16:59.999Z</time></trkpt><trkpt lat="45.46286351754368" lon="10.474004849341222"><ele>162.0</ele><time>2026-03-28T08:17:00.999Z</time></trkpt><trkpt lat="45.46279907349993" lon="10.473932142809833"><ele>162.0</ele><time>2026-03-28T08:17:01.999Z</time></trkpt><trkpt lat="45.46273334678676" lon="10.47386225828464"><ele>162.0</ele><time>2026-03-28T08:17:02.999Z</time></trkpt><trkpt lat="45.462688146947244" lon="10.473785436044935"><ele>162.0</ele><time>2026-03-28T08:17:03.999Z</time></trkpt><trkpt lat="45.46265135272406" lon="10.473704221250584"><ele>162.0</ele><time>2026-03-28T08:17:04.999Z</time></trkpt><trkpt lat="45.46258418821673" lon="10.473673735621208"><ele>162.0</ele><time>2026-03-28T08:17:05.999Z</time></trkpt><trkpt lat="45.46251206875105" lon="10.473744903056737"><ele>162.0</ele><time>2026-03-28T08:17:06.999Z</time></trkpt><trkpt lat="45.46244465567856" lon="10.473814752152586"><ele>162.0</ele><time>2026-03-28T08:17:07.999Z</time></trkpt><trkpt lat="45.462375081510245" lon="10.473906845923851"><ele>162.0</ele><time>2026-03-28T08:17:08.999Z</time></trkpt><trkpt lat="45.46229969431877" lon="10.47401833764865"><ele>162.0</ele><time>2026-03-28T08:17:09.999Z</time></trkpt><trkpt lat="45.46222016782753" lon="10.474145137292165"><ele>162.0</ele><time>2026-03-28T08:17:10.999Z</time></trkpt><trkpt lat="45.46212903478988" lon="10.474290954534142"><ele>162.0</ele><time>2026-03-28T08:17:11.999Z</time></trkpt><trkpt lat="45.46203089583835" lon="10.474442489839042"><ele>162.0</ele><time>2026-03-28T08:17:12.999Z</time></trkpt><trkpt lat="45.4619278511743" lon="10.47460089299541"><ele>162.0</ele><time>2026-03-28T08:17:13.999Z</time></trkpt><trkpt lat="45.46182042590487" lon="10.474766865353882"><ele>161.0</ele><time>2026-03-28T08:17:14.999Z</time></trkpt><trkpt lat="45.46170840524159" lon="10.474931967297472"><ele>160.0</ele><time>2026-03-28T08:17:15.999Z</time></trkpt><trkpt lat="45.46160848835286" lon="10.47507467722864"><ele>159.0</ele><time>2026-03-28T08:17:16.999Z</time></trkpt><trkpt lat="45.461525174433596" lon="10.47520351113085"><ele>158.0</ele><time>2026-03-28T08:17:17.998Z</time></trkpt><trkpt lat="45.46145505349994" lon="10.475309328342455"><ele>158.0</ele><time>2026-03-28T08:17:18.998Z</time></trkpt><trkpt lat="45.46139540965535" lon="10.475391192622327"><ele>158.0</ele><time>2026-03-28T08:17:19.998Z</time></trkpt><trkpt lat="45.46134481452404" lon="10.475452529863608"><ele>158.0</ele><time>2026-03-28T08:17:20.998Z</time></trkpt><trkpt lat="45.461264347725155" lon="10.47548181357604"><ele>158.0</ele><time>2026-03-28T08:17:22.998Z</time></trkpt><trkpt lat="45.461169085811335" lon="10.475324954775935"><ele>158.0</ele><time>2026-03-28T08:17:23.998Z</time></trkpt><trkpt lat="45.46107944954411" lon="10.475251675746296"><ele>157.75</ele><time>2026-03-28T08:17:24.998Z</time></trkpt><trkpt lat="45.46097132553365" lon="10.475186953555276"><ele>157.5</ele><time>2026-03-28T08:17:25.998Z</time></trkpt><trkpt lat="45.46085796747443" lon="10.475093628090896"><ele>157.25</ele><time>2026-03-28T08:17:26.998Z</time></trkpt><trkpt lat="45.46073691025121" lon="10.474995740091078"><ele>157.0</ele><time>2026-03-28T08:17:27.998Z</time></trkpt><trkpt lat="45.46062368211147" lon="10.47490454035539"><ele>157.0</ele><time>2026-03-28T08:17:28.998Z</time></trkpt><trkpt lat="45.46052523658237" lon="10.474821778580099"><ele>157.0</ele><time>2026-03-28T08:17:29.998Z</time></trkpt><trkpt lat="45.46045001376405" lon="10.474755647708873"><ele>157.0</ele><time>2026-03-28T08:17:30.998Z</time></trkpt><trkpt lat="45.46038085171709" lon="10.474694091334941"><ele>157.0</ele><time>2026-03-28T08:17:31.998Z</time></trkpt><trkpt lat="45.46032187454114" lon="10.474649956752396"><ele>157.0</ele><time>2026-03-28T08:17:32.998Z</time></trkpt><trkpt lat="45.460211425083926" lon="10.474625752875996"><ele>156.6</ele><time>2026-03-28T08:17:34.998Z</time></trkpt><trkpt lat="45.460167040413715" lon="10.47472458258147"><ele>156.2</ele><time>2026-03-28T08:17:35.998Z</time></trkpt><trkpt lat="45.46012306300231" lon="10.47481177813234"><ele>155.8</ele><time>2026-03-28T08:17:36.998Z</time></trkpt><trkpt lat="45.460076981664926" lon="10.474929844644773"><ele>155.4</ele><time>2026-03-28T08:17:37.998Z</time></trkpt><trkpt lat="45.46003237489335" lon="10.475060215133741"><ele>155.0</ele><time>2026-03-28T08:17:39Z</time></trkpt><trkpt lat="45.45997803928172" lon="10.475205535755254"><ele>155.0</ele><time>2026-03-28T08:17:40Z</time></trkpt><trkpt lat="45.45991684198931" lon="10.475355646900589"><ele>155.0</ele><time>2026-03-28T08:17:41Z</time></trkpt><trkpt lat="45.45985326536025" lon="10.475521530597472"><ele>155.0</ele><time>2026-03-28T08:17:42Z</time></trkpt><trkpt lat="45.45978012579447" lon="10.475703138884562"><ele>155.0</ele><time>2026-03-28T08:17:43Z</time></trkpt><trkpt lat="45.45970153198931" lon="10.475894971085989"><ele>155.0</ele><time>2026-03-28T08:17:44Z</time></trkpt><trkpt lat="45.45962027838569" lon="10.476097147516906"><ele>155.0</ele><time>2026-03-28T08:17:45Z</time></trkpt><trkpt lat="45.45955388911671" lon="10.476277355694904"><ele>155.0</ele><time>2026-03-28T08:17:46Z</time></trkpt><trkpt lat="45.45948997675012" lon="10.476439265625098"><ele>155.0</ele><time>2026-03-28T08:17:47Z</time></trkpt><trkpt lat="45.4594262659779" lon="10.476615537078747"><ele>154.66666666666666</ele><time>2026-03-28T08:17:48Z</time></trkpt><trkpt lat="45.45935474746406" lon="10.476812573222087"><ele>154.33333333333334</ele><time>2026-03-28T08:17:49Z</time></trkpt><trkpt lat="45.4592742040039" lon="10.477002699133038"><ele>154.0</ele><time>2026-03-28T08:17:50Z</time></trkpt><trkpt lat="45.45918976499407" lon="10.477193506344493"><ele>154.0</ele><time>2026-03-28T08:17:51Z</time></trkpt><trkpt lat="45.4591130758096" lon="10.477376582162133"><ele>154.0</ele><time>2026-03-28T08:17:52Z</time></trkpt><trkpt lat="45.459045599876234" lon="10.47754880416451"><ele>154.0</ele><time>2026-03-28T08:17:53Z</time></trkpt><trkpt lat="45.45898162166248" lon="10.477717962394065"><ele>154.0</ele><time>2026-03-28T08:17:54Z</time></trkpt><trkpt lat="45.458912753675136" lon="10.477884633947422"><ele>154.25</ele><time>2026-03-28T08:17:55Z</time></trkpt><trkpt lat="45.458843249553134" lon="10.478057613927568"><ele>154.5</ele><time>2026-03-28T08:17:56Z</time></trkpt><trkpt lat="45.458775963711254" lon="10.47821840817605"><ele>154.75</ele><time>2026-03-28T08:17:57Z</time></trkpt><trkpt lat="45.45872327549561" lon="10.47837143402215"><ele>155.0</ele><time>2026-03-28T08:17:58Z</time></trkpt><trkpt lat="45.45867421883295" lon="10.478523870810333"><ele>155.25</ele><time>2026-03-28T08:17:59Z</time></trkpt><trkpt lat="45.45862597719968" lon="10.47867358938603"><ele>155.5</ele><time>2026-03-28T08:18:00Z</time></trkpt><trkpt lat="45.45858436196123" lon="10.478821776042418"><ele>155.75</ele><time>2026-03-28T08:18:01Z</time></trkpt><trkpt lat="45.458541724373504" lon="10.478975147034443"><ele>156.0</ele><time>2026-03-28T08:18:02Z</time></trkpt><trkpt lat="45.458500910995056" lon="10.479134198518555"><ele>156.5</ele><time>2026-03-28T08:18:03Z</time></trkpt><trkpt lat="45.45845573623909" lon="10.4793021060266"><ele>157.0</ele><time>2026-03-28T08:18:04Z</time></trkpt><trkpt lat="45.458407368293805" lon="10.479469306748271"><ele>157.5</ele><time>2026-03-28T08:18:05Z</time></trkpt><trkpt lat="45.4583507114764" lon="10.479637299915666"><ele>158.0</ele><time>2026-03-28T08:18:06Z</time></trkpt><trkpt lat="45.45827685500652" lon="10.47979681655659"><ele>158.0</ele><time>2026-03-28T08:18:07Z</time></trkpt><trkpt lat="45.45819586067087" lon="10.47994738961626"><ele>158.0</ele><time>2026-03-28T08:18:08Z</time></trkpt><trkpt lat="45.45810624545872" lon="10.480075229261077"><ele>158.0</ele><time>2026-03-28T08:18:09Z</time></trkpt><trkpt lat="45.458011026634274" lon="10.480195883582239"><ele>158.0</ele><time>2026-03-28T08:18:10Z</time></trkpt><trkpt lat="45.4579104307516" lon="10.480311260365465"><ele>157.75</ele><time>2026-03-28T08:18:11Z</time></trkpt><trkpt lat="45.45781448633354" lon="10.480428339045629"><ele>157.5</ele><time>2026-03-28T08:18:12Z</time></trkpt><trkpt lat="45.45771931684912" lon="10.480549851812317"><ele>157.25</ele><time>2026-03-28T08:18:13Z</time></trkpt><trkpt lat="45.457625824999724" lon="10.480668934231383"><ele>157.0</ele><time>2026-03-28T08:18:14Z</time></trkpt><trkpt lat="45.457532184925235" lon="10.480785346165197"><ele>157.0</ele><time>2026-03-28T08:18:15Z</time></trkpt><trkpt lat="45.45744130437413" lon="10.4808940452106"><ele>157.0</ele><time>2026-03-28T08:18:16Z</time></trkpt><trkpt lat="45.45735391134872" lon="10.481006069721534"><ele>157.0</ele><time>2026-03-28T08:18:17Z</time></trkpt><trkpt lat="45.45728086949215" lon="10.481132797531007"><ele>157.0</ele><time>2026-03-28T08:18:18Z</time></trkpt><trkpt lat="45.457220177723954" lon="10.48126977203859"><ele>157.0</ele><time>2026-03-28T08:18:19Z</time></trkpt><trkpt lat="45.45717542398689" lon="10.481425191147137"><ele>157.0</ele><time>2026-03-28T08:18:20Z</time></trkpt><trkpt lat="45.457149426577054" lon="10.48159424093952"><ele>157.0</ele><time>2026-03-28T08:18:21Z</time></trkpt><trkpt lat="45.4571330364019" lon="10.481773088163218"><ele>157.0</ele><time>2026-03-28T08:18:22Z</time></trkpt><trkpt lat="45.45711600629219" lon="10.481955706628757"><ele>156.75</ele><time>2026-03-28T08:18:23Z</time></trkpt><trkpt lat="45.45710085140942" lon="10.48214405854084"><ele>156.5</ele><time>2026-03-28T08:18:23.999Z</time></trkpt><trkpt lat="45.457087427796864" lon="10.48233268150496"><ele>156.25</ele><time>2026-03-28T08:18:24.999Z</time></trkpt><trkpt lat="45.45707540134832" lon="10.482519430371548"><ele>156.0</ele><time>2026-03-28T08:18:25.999Z</time></trkpt><trkpt lat="45.45706826405135" lon="10.482702974758835"><ele>156.0</ele><time>2026-03-28T08:18:26.999Z</time></trkpt><trkpt lat="45.45706316243621" lon="10.48286963943118"><ele>156.0</ele><time>2026-03-28T08:18:27.999Z</time></trkpt><trkpt lat="45.45705912946634" lon="10.483036610709478"><ele>156.0</ele><time>2026-03-28T08:18:28.999Z</time></trkpt><trkpt lat="45.4570544690405" lon="10.483204522110597"><ele>156.0</ele><time>2026-03-28T08:18:29.999Z</time></trkpt><trkpt lat="45.457052443377535" lon="10.483375565752336"><ele>156.0</ele><time>2026-03-28T08:18:30.999Z</time></trkpt><trkpt lat="45.45705206054502" lon="10.483552297143294"><ele>156.0</ele><time>2026-03-28T08:18:31.999Z</time></trkpt><trkpt lat="45.45705423248519" lon="10.4837326006594"><ele>156.0</ele><time>2026-03-28T08:18:32.999Z</time></trkpt><trkpt lat="45.45705772521022" lon="10.483907661103677"><ele>156.0</ele><time>2026-03-28T08:18:33.999Z</time></trkpt><trkpt lat="45.457064966034125" lon="10.48407599656791"><ele>156.0</ele><time>2026-03-28T08:18:34.999Z</time></trkpt><trkpt lat="45.45708343064692" lon="10.484242601480007"><ele>156.0</ele><time>2026-03-28T08:18:35.999Z</time></trkpt><trkpt lat="45.45711799725538" lon="10.484401198889472"><ele>156.0</ele><time>2026-03-28T08:18:36.999Z</time></trkpt><trkpt lat="45.45716966230376" lon="10.484554035890637"><ele>156.0</ele><time>2026-03-28T08:18:37.999Z</time></trkpt><trkpt lat="45.45722469082989" lon="10.484705483749517"><ele>159.5</ele><time>2026-03-28T08:18:38.999Z</time></trkpt><trkpt lat="45.45727451775062" lon="10.484866651406572"><ele>163.0</ele><time>2026-03-28T08:18:39.999Z</time></trkpt><trkpt lat="45.45730695833469" lon="10.485027989635348"><ele>166.5</ele><time>2026-03-28T08:18:40.999Z</time></trkpt><trkpt lat="45.457321002484946" lon="10.485177241740779"><ele>170.0</ele><time>2026-03-28T08:18:41.999Z</time></trkpt><trkpt lat="45.457324303158664" lon="10.48532937091097"><ele>169.4</ele><time>2026-03-28T08:18:42.999Z</time></trkpt><trkpt lat="45.45732165735441" lon="10.485474331460889"><ele>168.8</ele><time>2026-03-28T08:18:43.999Z</time></trkpt><trkpt lat="45.457332380254584" lon="10.485622864952116"><ele>168.2</ele><time>2026-03-28T08:18:44.999Z</time></trkpt><trkpt lat="45.45735735439899" lon="10.485766295071071"><ele>167.6</ele><time>2026-03-28T08:18:45.999Z</time></trkpt><trkpt lat="45.457398333140354" lon="10.485906567062212"><ele>167.0</ele><time>2026-03-28T08:18:46.999Z</time></trkpt><trkpt lat="45.45745025455933" lon="10.486049972227942"><ele>167.0</ele><time>2026-03-28T08:18:47.999Z</time></trkpt><trkpt lat="45.45750362115298" lon="10.48618074585899"><ele>167.0</ele><time>2026-03-28T08:18:48.999Z</time></trkpt><trkpt lat="45.457555761230175" lon="10.486300224074743"><ele>167.0</ele><time>2026-03-28T08:18:49.999Z</time></trkpt><trkpt lat="45.457599142698136" lon="10.486403607006544"><ele>167.0</ele><time>2026-03-28T08:18:50.999Z</time></trkpt><trkpt lat="45.45763811996971" lon="10.48650642289103"><ele>167.0</ele><time>2026-03-28T08:18:51.999Z</time></trkpt><trkpt lat="45.45766689584304" lon="10.486613577597659"><ele>166.0</ele><time>2026-03-28T08:18:52.999Z</time></trkpt><trkpt lat="45.4576795643977" lon="10.486737382937608"><ele>165.0</ele><time>2026-03-28T08:18:53.999Z</time></trkpt><trkpt lat="45.4576695920269" lon="10.486874297955515"><ele>164.0</ele><time>2026-03-28T08:18:54.999Z</time></trkpt><trkpt lat="45.45764580460728" lon="10.487012381187753"><ele>163.0</ele><time>2026-03-28T08:18:55.999Z</time></trkpt><trkpt lat="45.45760717131574" lon="10.48716200594331"><ele>162.0</ele><time>2026-03-28T08:18:56.999Z</time></trkpt><trkpt lat="45.45757982584619" lon="10.48730978066829"><ele>161.0</ele><time>2026-03-28T08:18:57.999Z</time></trkpt><trkpt lat="45.45757047265301" lon="10.487466197474328"><ele>160.0</ele><time>2026-03-28T08:18:58.999Z</time></trkpt><trkpt lat="45.45757703977365" lon="10.487613685425082"><ele>159.0</ele><time>2026-03-28T08:18:59.999Z</time></trkpt><trkpt lat="45.45761005838165" lon="10.487761791050582"><ele>158.0</ele><time>2026-03-28T08:19:00.999Z</time></trkpt><trkpt lat="45.4576521962876" lon="10.487915892066438"><ele>157.0</ele><time>2026-03-28T08:19:01.999Z</time></trkpt><trkpt lat="45.45769373653274" lon="10.488074090068917"><ele>157.0</ele><time>2026-03-28T08:19:02.999Z</time></trkpt><trkpt lat="45.45773531946249" lon="10.488226222712585"><ele>157.0</ele><time>2026-03-28T08:19:03.999Z</time></trkpt><trkpt lat="45.45777894032086" lon="10.488359377841837"><ele>157.0</ele><time>2026-03-28T08:19:04.999Z</time></trkpt><trkpt lat="45.457826024242586" lon="10.488472671146553"><ele>157.0</ele><time>2026-03-28T08:19:05.999Z</time></trkpt><trkpt lat="45.4578665038373" lon="10.488586019587395"><ele>157.0</ele><time>2026-03-28T08:19:06.999Z</time></trkpt><trkpt lat="45.457911818144424" lon="10.488706202710668"><ele>158.0</ele><time>2026-03-28T08:19:07.999Z</time></trkpt><trkpt lat="45.457957995942564" lon="10.488817914578844"><ele>159.0</ele><time>2026-03-28T08:19:08.999Z</time></trkpt><trkpt lat="45.45799433691772" lon="10.488929917987017"><ele>160.0</ele><time>2026-03-28T08:19:09.999Z</time></trkpt><trkpt lat="45.45802534896394" lon="10.489052014078899"><ele>161.0</ele><time>2026-03-28T08:19:10.999Z</time></trkpt><trkpt lat="45.458038960572594" lon="10.489165557707869"><ele>162.0</ele><time>2026-03-28T08:19:11.999Z</time></trkpt><trkpt lat="45.45804215187518" lon="10.489295703090086"><ele>163.0</ele><time>2026-03-28T08:19:21.998Z</time></trkpt><trkpt lat="45.45801835480884" lon="10.489404441031894"><ele>163.16666666666669</ele><time>2026-03-28T08:19:28.998Z</time></trkpt><trkpt lat="45.45789304518166" lon="10.48948244666197"><ele>163.33333333333334</ele><time>2026-03-28T08:19:30.998Z</time></trkpt><trkpt lat="45.457829655107716" lon="10.489538203143379"><ele>163.5</ele><time>2026-03-28T08:19:31.998Z</time></trkpt><trkpt lat="45.45776432314921" lon="10.489587606706111"><ele>163.66666666666666</ele><time>2026-03-28T08:19:32.998Z</time></trkpt><trkpt lat="45.45769364308111" lon="10.4896197473557"><ele>163.83333333333331</ele><time>2026-03-28T08:19:33.998Z</time></trkpt><trkpt lat="45.45763393850772" lon="10.489654683089853"><ele>164.0</ele><time>2026-03-28T08:19:34.998Z</time></trkpt><trkpt lat="45.45751532372051" lon="10.489727982461627"><ele>164.0</ele><time>2026-03-28T08:19:36.998Z</time></trkpt><trkpt lat="45.45739422950949" lon="10.489766404159006"><ele>164.0</ele><time>2026-03-28T08:19:38.998Z</time></trkpt><trkpt lat="45.45727556190223" lon="10.489702968481444"><ele>164.0</ele><time>2026-03-28T08:19:40.998Z</time></trkpt><trkpt lat="45.457223145215266" lon="10.48962586156851"><ele>164.0</ele><time>2026-03-28T08:19:41.998Z</time></trkpt><trkpt lat="45.4571686039232" lon="10.489546996508443"><ele>164.0</ele><time>2026-03-28T08:19:42.998Z</time></trkpt><trkpt lat="45.45711530209257" lon="10.489467304948745"><ele>163.33333333333331</ele><time>2026-03-28T08:19:43.998Z</time></trkpt><trkpt lat="45.457056826263916" lon="10.489382012314733"><ele>162.66666666666666</ele><time>2026-03-28T08:19:45Z</time></trkpt><trkpt lat="45.457001370422844" lon="10.489299885669501"><ele>162.0</ele><time>2026-03-28T08:19:46Z</time></trkpt><trkpt lat="45.456944075424936" lon="10.48921365162665"><ele>161.33333333333334</ele><time>2026-03-28T08:19:47Z</time></trkpt><trkpt lat="45.45689248775546" lon="10.48912572252852"><ele>160.66666666666669</ele><time>2026-03-28T08:19:48Z</time></trkpt><trkpt lat="45.45684090299631" lon="10.489033119313875"><ele>160.0</ele><time>2026-03-28T08:19:49Z</time></trkpt><trkpt lat="45.456796430249675" lon="10.488932895449098"><ele>160.0</ele><time>2026-03-28T08:19:50Z</time></trkpt><trkpt lat="45.45675694721611" lon="10.488826060259635"><ele>160.0</ele><time>2026-03-28T08:19:51Z</time></trkpt><trkpt lat="45.45673548802735" lon="10.488707975733913"><ele>160.0</ele><time>2026-03-28T08:19:52Z</time></trkpt><trkpt lat="45.45672294974505" lon="10.48857086873516"><ele>160.0</ele><time>2026-03-28T08:19:53Z</time></trkpt><trkpt lat="45.45671909589331" lon="10.48842552581712"><ele>160.0</ele><time>2026-03-28T08:19:54Z</time></trkpt><trkpt lat="45.456733014817544" lon="10.488264737030795"><ele>159.75</ele><time>2026-03-28T08:19:55Z</time></trkpt><trkpt lat="45.456752757969106" lon="10.488093118300904"><ele>159.5</ele><time>2026-03-28T08:19:56Z</time></trkpt><trkpt lat="45.4567718016257" lon="10.487914105768072"><ele>159.25</ele><time>2026-03-28T08:19:57Z</time></trkpt><trkpt lat="45.456789421788216" lon="10.487720285952035"><ele>159.0</ele><time>2026-03-28T08:19:58Z</time></trkpt><trkpt lat="45.45681964566851" lon="10.487508127559245"><ele>157.66666666666666</ele><time>2026-03-28T08:19:59Z</time></trkpt><trkpt lat="45.456830110966024" lon="10.487273972737228"><ele>156.33333333333331</ele><time>2026-03-28T08:20:00Z</time></trkpt><trkpt lat="45.45683642526695" lon="10.487045932293391"><ele>155.0</ele><time>2026-03-28T08:20:01Z</time></trkpt><trkpt lat="45.45684215533417" lon="10.486838991318994"><ele>155.0</ele><time>2026-03-28T08:20:02Z</time></trkpt><trkpt lat="45.456847894632354" lon="10.486631716892324"><ele>155.0</ele><time>2026-03-28T08:20:03Z</time></trkpt><trkpt lat="45.456853140766086" lon="10.486442253095394"><ele>155.0</ele><time>2026-03-28T08:20:04Z</time></trkpt><trkpt lat="45.456858365549174" lon="10.486253560344025"><ele>155.0</ele><time>2026-03-28T08:20:05Z</time></trkpt><trkpt lat="45.456863948823674" lon="10.486051920640412"><ele>155.0</ele><time>2026-03-28T08:20:06Z</time></trkpt><trkpt lat="45.45686632497558" lon="10.48586498492599"><ele>155.0</ele><time>2026-03-28T08:20:07Z</time></trkpt><trkpt lat="45.4568605809993" lon="10.48564225981745"><ele>155.0</ele><time>2026-03-28T08:20:08Z</time></trkpt><trkpt lat="45.456844393886506" lon="10.485425744295275"><ele>155.0</ele><time>2026-03-28T08:20:09Z</time></trkpt><trkpt lat="45.45682778843595" lon="10.485229076513392"><ele>155.0</ele><time>2026-03-28T08:20:10Z</time></trkpt><trkpt lat="45.45680713011461" lon="10.485002525496041"><ele>155.0</ele><time>2026-03-28T08:20:11Z</time></trkpt><trkpt lat="45.45678059850615" lon="10.484825752258255"><ele>155.0</ele><time>2026-03-28T08:20:12Z</time></trkpt><trkpt lat="45.45677353420427" lon="10.48464037208529"><ele>155.0</ele><time>2026-03-28T08:20:13Z</time></trkpt><trkpt lat="45.45675464905386" lon="10.484451855344284"><ele>155.25</ele><time>2026-03-28T08:20:14Z</time></trkpt><trkpt lat="45.4567260900204" lon="10.484266958383339"><ele>155.5</ele><time>2026-03-28T08:20:15Z</time></trkpt><trkpt lat="45.45669208483639" lon="10.48409973293367"><ele>155.75</ele><time>2026-03-28T08:20:16Z</time></trkpt><trkpt lat="45.456646439755886" lon="10.483928124702066"><ele>156.0</ele><time>2026-03-28T08:20:17Z</time></trkpt><trkpt lat="45.45658620339916" lon="10.483758056806058"><ele>156.25</ele><time>2026-03-28T08:20:18Z</time></trkpt><trkpt lat="45.45651661269969" lon="10.483603307569895"><ele>156.5</ele><time>2026-03-28T08:20:19Z</time></trkpt><trkpt lat="45.45644051320584" lon="10.483445923931733"><ele>156.75</ele><time>2026-03-28T08:20:20Z</time></trkpt><trkpt lat="45.456358592525525" lon="10.48329251259815"><ele>157.0</ele><time>2026-03-28T08:20:21Z</time></trkpt><trkpt lat="45.45626956447577" lon="10.483144190833283"><ele>156.25</ele><time>2026-03-28T08:20:22Z</time></trkpt><trkpt lat="45.45617301062192" lon="10.483001406839461"><ele>155.5</ele><time>2026-03-28T08:20:23Z</time></trkpt><trkpt lat="45.4560775148544" lon="10.482864496605377"><ele>154.75</ele><time>2026-03-28T08:20:24Z</time></trkpt><trkpt lat="45.4559840011606" lon="10.482725320115561"><ele>154.0</ele><time>2026-03-28T08:20:25Z</time></trkpt><trkpt lat="45.45589652977547" lon="10.482589030808038"><ele>153.75</ele><time>2026-03-28T08:20:26Z</time></trkpt><trkpt lat="45.45580947725636" lon="10.48245789756642"><ele>153.5</ele><time>2026-03-28T08:20:26.999Z</time></trkpt><trkpt lat="45.455727421839796" lon="10.48232317166865"><ele>153.25</ele><time>2026-03-28T08:20:27.999Z</time></trkpt><trkpt lat="45.45564411736381" lon="10.482193345770456"><ele>153.0</ele><time>2026-03-28T08:20:28.999Z</time></trkpt><trkpt lat="45.455563141924586" lon="10.48206897979133"><ele>153.4</ele><time>2026-03-28T08:20:29.999Z</time></trkpt><trkpt lat="45.45548629769002" lon="10.481953418516344"><ele>153.8</ele><time>2026-03-28T08:20:30.999Z</time></trkpt><trkpt lat="45.455411941634125" lon="10.481840627586545"><ele>154.2</ele><time>2026-03-28T08:20:31.999Z</time></trkpt><trkpt lat="45.45533557824355" lon="10.481732722793408"><ele>154.6</ele><time>2026-03-28T08:20:32.999Z</time></trkpt><trkpt lat="45.45525809495123" lon="10.48162800547099"><ele>155.0</ele><time>2026-03-28T08:20:33.999Z</time></trkpt><trkpt lat="45.45517934987346" lon="10.481531100708056"><ele>154.4</ele><time>2026-03-28T08:20:34.999Z</time></trkpt><trkpt lat="45.45510486724435" lon="10.481429746975124"><ele>153.8</ele><time>2026-03-28T08:20:35.999Z</time></trkpt><trkpt lat="45.45503174701648" lon="10.4813297819858"><ele>153.2</ele><time>2026-03-28T08:20:36.999Z</time></trkpt><trkpt lat="45.45495771042206" lon="10.48122828026327"><ele>152.6</ele><time>2026-03-28T08:20:37.999Z</time></trkpt><trkpt lat="45.454887935664544" lon="10.481131814657948"><ele>152.0</ele><time>2026-03-28T08:20:38.999Z</time></trkpt><trkpt lat="45.45480804476876" lon="10.481028412807017"><ele>152.0</ele><time>2026-03-28T08:20:39.999Z</time></trkpt><trkpt lat="45.45473427138335" lon="10.48092835412272"><ele>152.0</ele><time>2026-03-28T08:20:40.999Z</time></trkpt><trkpt lat="45.4546569909878" lon="10.48082607167862"><ele>152.0</ele><time>2026-03-28T08:20:41.999Z</time></trkpt><trkpt lat="45.45458208806844" lon="10.48071556444007"><ele>152.0</ele><time>2026-03-28T08:20:42.999Z</time></trkpt><trkpt lat="45.45450788959157" lon="10.480597460344528"><ele>152.0</ele><time>2026-03-28T08:20:43.999Z</time></trkpt><trkpt lat="45.454435827215384" lon="10.48047191845907"><ele>151.5</ele><time>2026-03-28T08:20:44.999Z</time></trkpt><trkpt lat="45.45436394654912" lon="10.480344372543712"><ele>151.0</ele><time>2026-03-28T08:20:45.999Z</time></trkpt><trkpt lat="45.454295158742944" lon="10.480212791998675"><ele>150.5</ele><time>2026-03-28T08:20:46.999Z</time></trkpt><trkpt lat="45.45422151452807" lon="10.480070044510487"><ele>150.0</ele><time>2026-03-28T08:20:47.999Z</time></trkpt><trkpt lat="45.454145588488345" lon="10.479924503914864"><ele>150.0</ele><time>2026-03-28T08:20:48.999Z</time></trkpt><trkpt lat="45.45406531794833" lon="10.479770938106318"><ele>150.0</ele><time>2026-03-28T08:20:49.999Z</time></trkpt><trkpt lat="45.45398287603538" lon="10.479605968525872"><ele>150.0</ele><time>2026-03-28T08:20:50.999Z</time></trkpt><trkpt lat="45.45389947915145" lon="10.479442498672833"><ele>150.0</ele><time>2026-03-28T08:20:51.999Z</time></trkpt><trkpt lat="45.453815054901156" lon="10.479279097757507"><ele>149.75</ele><time>2026-03-28T08:20:52.999Z</time></trkpt><trkpt lat="45.45372636031228" lon="10.47911546866339"><ele>149.5</ele><time>2026-03-28T08:20:53.999Z</time></trkpt><trkpt lat="45.4536387043125" lon="10.478944643816863"><ele>149.25</ele><time>2026-03-28T08:20:54.999Z</time></trkpt><trkpt lat="45.453546490239816" lon="10.47876931517182"><ele>149.0</ele><time>2026-03-28T08:20:55.999Z</time></trkpt><trkpt lat="45.45345016272939" lon="10.478591164914608"><ele>149.0</ele><time>2026-03-28T08:20:56.999Z</time></trkpt><trkpt lat="45.4533517745209" lon="10.478406814055758"><ele>149.0</ele><time>2026-03-28T08:20:57.999Z</time></trkpt><trkpt lat="45.45325032053481" lon="10.478217275966779"><ele>149.0</ele><time>2026-03-28T08:20:58.999Z</time></trkpt><trkpt lat="45.453162432671476" lon="10.4780126399707"><ele>149.33333333333331</ele><time>2026-03-28T08:20:59.999Z</time></trkpt><trkpt lat="45.45305844114012" lon="10.477813431023053"><ele>149.66666666666666</ele><time>2026-03-28T08:21:00.999Z</time></trkpt><trkpt lat="45.452952977611034" lon="10.477616266932573"><ele>150.0</ele><time>2026-03-28T08:21:01.999Z</time></trkpt><trkpt lat="45.452833065133014" lon="10.477430281293781"><ele>149.66666666666666</ele><time>2026-03-28T08:21:02.999Z</time></trkpt><trkpt lat="45.45273529773899" lon="10.477213148177281"><ele>149.33333333333331</ele><time>2026-03-28T08:21:03.999Z</time></trkpt><trkpt lat="45.45262576610017" lon="10.477015223228408"><ele>149.0</ele><time>2026-03-28T08:21:04.999Z</time></trkpt><trkpt lat="45.452511880102435" lon="10.476818871222921"><ele>149.0</ele><time>2026-03-28T08:21:05.999Z</time></trkpt><trkpt lat="45.4523967105611" lon="10.476632770396327"><ele>149.0</ele><time>2026-03-28T08:21:06.999Z</time></trkpt><trkpt lat="45.45227148076143" lon="10.476437203062607"><ele>149.0</ele><time>2026-03-28T08:21:07.999Z</time></trkpt><trkpt lat="45.452142239705246" lon="10.476242613254389"><ele>146.66666666666666</ele><time>2026-03-28T08:21:08.999Z</time></trkpt><trkpt lat="45.45201338722209" lon="10.47605863339774"><ele>144.33333333333334</ele><time>2026-03-28T08:21:09.999Z</time></trkpt><trkpt lat="45.451882108363726" lon="10.475878773724597"><ele>142.0</ele><time>2026-03-28T08:21:10.999Z</time></trkpt><trkpt lat="45.45174991043799" lon="10.475707440409794"><ele>142.0</ele><time>2026-03-28T08:21:11.999Z</time></trkpt><trkpt lat="45.451614985931506" lon="10.475539164904397"><ele>142.0</ele><time>2026-03-28T08:21:12.999Z</time></trkpt><trkpt lat="45.45148274399398" lon="10.475374657443634"><ele>142.0</ele><time>2026-03-28T08:21:13.999Z</time></trkpt><trkpt lat="45.4513548071543" lon="10.475216263369997"><ele>141.33333333333334</ele><time>2026-03-28T08:21:14.999Z</time></trkpt><trkpt lat="45.451226543342784" lon="10.475057464393785"><ele>140.66666666666666</ele><time>2026-03-28T08:21:15.999Z</time></trkpt><trkpt lat="45.451102840326385" lon="10.474900207257273"><ele>140.0</ele><time>2026-03-28T08:21:16.998Z</time></trkpt><trkpt lat="45.450984779729275" lon="10.474744373970768"><ele>140.33333333333331</ele><time>2026-03-28T08:21:17.998Z</time></trkpt><trkpt lat="45.450868932303855" lon="10.47458550154354"><ele>140.66666666666666</ele><time>2026-03-28T08:21:18.998Z</time></trkpt><trkpt lat="45.450762146588396" lon="10.474423287360581"><ele>141.0</ele><time>2026-03-28T08:21:19.998Z</time></trkpt><trkpt lat="45.45065768759216" lon="10.474241750480093"><ele>141.0</ele><time>2026-03-28T08:21:20.998Z</time></trkpt><trkpt lat="45.450557570702166" lon="10.474056795491762"><ele>141.0</ele><time>2026-03-28T08:21:21.998Z</time></trkpt><trkpt lat="45.45046377647755" lon="10.473868882232047"><ele>141.0</ele><time>2026-03-28T08:21:22.998Z</time></trkpt><trkpt lat="45.450375256811014" lon="10.473662912680497"><ele>140.0</ele><time>2026-03-28T08:21:23.998Z</time></trkpt><trkpt lat="45.45029217789094" lon="10.47345070824999"><ele>139.0</ele><time>2026-03-28T08:21:24.998Z</time></trkpt><trkpt lat="45.450214298252185" lon="10.473242449221967"><ele>138.0</ele><time>2026-03-28T08:21:25.998Z</time></trkpt><trkpt lat="45.45013751458118" lon="10.473029333466403"><ele>138.66666666666666</ele><time>2026-03-28T08:21:26.998Z</time></trkpt><trkpt lat="45.45006123009832" lon="10.4728146182163"><ele>139.33333333333331</ele><time>2026-03-28T08:21:27.998Z</time></trkpt><trkpt lat="45.44998264208836" lon="10.472600951032437"><ele>140.0</ele><time>2026-03-28T08:21:28.998Z</time></trkpt><trkpt lat="45.44988158880529" lon="10.472414810940025"><ele>140.0</ele><time>2026-03-28T08:21:29.998Z</time></trkpt><trkpt lat="45.44980958843325" lon="10.472211895616603"><ele>140.0</ele><time>2026-03-28T08:21:30.998Z</time></trkpt><trkpt lat="45.449732561196775" lon="10.471996777357106"><ele>140.0</ele><time>2026-03-28T08:21:31.998Z</time></trkpt><trkpt lat="45.44965793641007" lon="10.471786469008537"><ele>139.66666666666666</ele><time>2026-03-28T08:21:32.998Z</time></trkpt><trkpt lat="45.44958281357995" lon="10.47158336544989"><ele>139.33333333333334</ele><time>2026-03-28T08:21:33.998Z</time></trkpt><trkpt lat="45.449503158186516" lon="10.471369819874079"><ele>139.0</ele><time>2026-03-28T08:21:34.998Z</time></trkpt><trkpt lat="45.449453097146275" lon="10.47114445061212"><ele>139.0</ele><time>2026-03-28T08:21:35.998Z</time></trkpt><trkpt lat="45.449375929823795" lon="10.470933021205397"><ele>139.0</ele><time>2026-03-28T08:21:36.998Z</time></trkpt><trkpt lat="45.44929915059645" lon="10.470723405317448"><ele>139.0</ele><time>2026-03-28T08:21:37.998Z</time></trkpt><trkpt lat="45.4492225674786" lon="10.470514324953148"><ele>139.0</ele><time>2026-03-28T08:21:38.998Z</time></trkpt><trkpt lat="45.449157323336266" lon="10.470336201574268"><ele>139.0</ele><time>2026-03-28T08:21:39.998Z</time></trkpt><trkpt lat="45.44909463060446" lon="10.470165043062131"><ele>139.0</ele><time>2026-03-28T08:21:40.998Z</time></trkpt><trkpt lat="45.44904682317077" lon="10.470030834304112"><ele>139.0</ele><time>2026-03-28T08:21:41.998Z</time></trkpt><trkpt lat="45.449008250743915" lon="10.469923205163662"><ele>139.0</ele><time>2026-03-28T08:21:42.998Z</time></trkpt><trkpt lat="45.44896334005214" lon="10.469799828415551"><ele>139.0</ele><time>2026-03-28T08:21:44.998Z</time></trkpt><trkpt lat="45.44890385679668" lon="10.46963679955913"><ele>139.0</ele><time>2026-03-28T08:21:47.998Z</time></trkpt><trkpt lat="45.44885710883824" lon="10.469508836517406"><ele>139.0</ele><time>2026-03-28T08:21:48.998Z</time></trkpt><trkpt lat="45.44881349961358" lon="10.469389423053672"><ele>139.0</ele><time>2026-03-28T08:21:49.998Z</time></trkpt><trkpt lat="45.448771509817966" lon="10.469272864504198"><ele>138.8</ele><time>2026-03-28T08:21:51Z</time></trkpt><trkpt lat="45.44873366761321" lon="10.46916781897041"><ele>138.60000000000002</ele><time>2026-03-28T08:21:52Z</time></trkpt><trkpt lat="45.44870080571812" lon="10.46907659803164"><ele>138.4</ele><time>2026-03-28T08:21:53Z</time></trkpt><trkpt lat="45.448546046309566" lon="10.469042588725916"><ele>138.20000000000002</ele><time>2026-03-28T08:21:54Z</time></trkpt><trkpt lat="45.44844141239035" lon="10.4690059763509"><ele>138.0</ele><time>2026-03-28T08:21:55Z</time></trkpt><trkpt lat="45.44832088491002" lon="10.468966084519664"><ele>138.0</ele><time>2026-03-28T08:21:56Z</time></trkpt><trkpt lat="45.448189106856525" lon="10.46892561274753"><ele>138.0</ele><time>2026-03-28T08:21:57Z</time></trkpt><trkpt lat="45.448047555215965" lon="10.468880387640093"><ele>138.0</ele><time>2026-03-28T08:21:58Z</time></trkpt><trkpt lat="45.44790723215098" lon="10.46883740908858"><ele>138.0</ele><time>2026-03-28T08:21:59Z</time></trkpt><trkpt lat="45.44776383940528" lon="10.468784709082856"><ele>137.0</ele><time>2026-03-28T08:22:00Z</time></trkpt><trkpt lat="45.447616407189074" lon="10.468725266308232"><ele>136.0</ele><time>2026-03-28T08:22:01Z</time></trkpt><trkpt lat="45.44747196226665" lon="10.468661519250468"><ele>135.0</ele><time>2026-03-28T08:22:02Z</time></trkpt><trkpt lat="45.44734171467407" lon="10.468593795115295"><ele>134.0</ele><time>2026-03-28T08:22:03Z</time></trkpt><trkpt lat="45.44722181475303" lon="10.46852410637696"><ele>133.75</ele><time>2026-03-28T08:22:04Z</time></trkpt><trkpt lat="45.447104170763424" lon="10.468453574726345"><ele>133.5</ele><time>2026-03-28T08:22:05Z</time></trkpt><trkpt lat="45.446972208427766" lon="10.46838459374282"><ele>133.25</ele><time>2026-03-28T08:22:06Z</time></trkpt><trkpt lat="45.44681583549295" lon="10.468359157230287"><ele>133.0</ele><time>2026-03-28T08:22:07Z</time></trkpt><trkpt lat="45.446662618139584" lon="10.468346686608239"><ele>133.0</ele><time>2026-03-28T08:22:08Z</time></trkpt><trkpt lat="45.4464992946719" lon="10.468354548902381"><ele>133.0</ele><time>2026-03-28T08:22:09Z</time></trkpt><trkpt lat="45.446333915651294" lon="10.468333603053212"><ele>133.0</ele><time>2026-03-28T08:22:10Z</time></trkpt><trkpt lat="45.44617242040573" lon="10.46831708757778"><ele>133.0</ele><time>2026-03-28T08:22:11Z</time></trkpt><trkpt lat="45.446016558169546" lon="10.468295129710217"><ele>133.0</ele><time>2026-03-28T08:22:12Z</time></trkpt><trkpt lat="45.445865246543825" lon="10.46824914300098"><ele>133.0</ele><time>2026-03-28T08:22:13Z</time></trkpt><trkpt lat="45.44572235457824" lon="10.468222657039483"><ele>133.0</ele><time>2026-03-28T08:22:14Z</time></trkpt><trkpt lat="45.445580755299986" lon="10.468193143561992"><ele>133.0</ele><time>2026-03-28T08:22:15Z</time></trkpt><trkpt lat="45.44544467764212" lon="10.468164571215103"><ele>133.0</ele><time>2026-03-28T08:22:16Z</time></trkpt><trkpt lat="45.44531400623794" lon="10.468147308786447"><ele>133.0</ele><time>2026-03-28T08:22:17Z</time></trkpt><trkpt lat="45.445174938728606" lon="10.468137916953484"><ele>132.75</ele><time>2026-03-28T08:22:18Z</time></trkpt><trkpt lat="45.44503185510809" lon="10.468137653041618"><ele>132.5</ele><time>2026-03-28T08:22:19Z</time></trkpt><trkpt lat="45.44487729933513" lon="10.468141209964129"><ele>132.25</ele><time>2026-03-28T08:22:20Z</time></trkpt><trkpt lat="45.44472951980947" lon="10.46816516032362"><ele>132.0</ele><time>2026-03-28T08:22:21Z</time></trkpt><trkpt lat="45.44458205861228" lon="10.468176959244634"><ele>132.0</ele><time>2026-03-28T08:22:22Z</time></trkpt><trkpt lat="45.44443911546178" lon="10.468183535406698"><ele>132.0</ele><time>2026-03-28T08:22:23Z</time></trkpt><trkpt lat="45.44430642562764" lon="10.468166961809704"><ele>132.0</ele><time>2026-03-28T08:22:24Z</time></trkpt><trkpt lat="45.44417993702484" lon="10.468159961392091"><ele>132.0</ele><time>2026-03-28T08:22:25Z</time></trkpt><trkpt lat="45.44403760144951" lon="10.468162379261251"><ele>132.0</ele><time>2026-03-28T08:22:26Z</time></trkpt><trkpt lat="45.44389218958735" lon="10.468180746978474"><ele>132.0</ele><time>2026-03-28T08:22:27Z</time></trkpt><trkpt lat="45.44375401466144" lon="10.468211387701537"><ele>132.0</ele><time>2026-03-28T08:22:28Z</time></trkpt><trkpt lat="45.443642706340064" lon="10.468246676533786"><ele>132.0</ele><time>2026-03-28T08:22:29Z</time></trkpt><trkpt lat="45.44354779016228" lon="10.468261110414835"><ele>132.0</ele><time>2026-03-28T08:22:29.999Z</time></trkpt><trkpt lat="45.44345661526991" lon="10.468290280709258"><ele>132.0</ele><time>2026-03-28T08:22:30.999Z</time></trkpt><trkpt lat="45.44336277889563" lon="10.468324839507796"><ele>132.0</ele><time>2026-03-28T08:22:31.999Z</time></trkpt><trkpt lat="45.44325946030181" lon="10.468345338409906"><ele>132.0</ele><time>2026-03-28T08:22:32.999Z</time></trkpt><trkpt lat="45.4431406484324" lon="10.468350898382445"><ele>132.0</ele><time>2026-03-28T08:22:33.999Z</time></trkpt><trkpt lat="45.44301442007288" lon="10.468336004211054"><ele>131.75</ele><time>2026-03-28T08:22:34.999Z</time></trkpt><trkpt lat="45.442888484566296" lon="10.468283402830451"><ele>131.5</ele><time>2026-03-28T08:22:35.999Z</time></trkpt><trkpt lat="45.44275802948977" lon="10.468259366222666"><ele>131.25</ele><time>2026-03-28T08:22:36.999Z</time></trkpt><trkpt lat="45.442616322790144" lon="10.468235183625584"><ele>131.0</ele><time>2026-03-28T08:22:37.999Z</time></trkpt><trkpt lat="45.44247007153803" lon="10.468214206475789"><ele>131.0</ele><time>2026-03-28T08:22:38.999Z</time></trkpt><trkpt lat="45.442320624530076" lon="10.468192469020307"><ele>131.0</ele><time>2026-03-28T08:22:39.999Z</time></trkpt><trkpt lat="45.44217254943251" lon="10.468171872803673"><ele>131.0</ele><time>2026-03-28T08:22:40.999Z</time></trkpt><trkpt lat="45.44201556649694" lon="10.468147681307693"><ele>130.75</ele><time>2026-03-28T08:22:41.999Z</time></trkpt><trkpt lat="45.44188046637735" lon="10.46811638239297"><ele>130.5</ele><time>2026-03-28T08:22:42.999Z</time></trkpt><trkpt lat="45.44175646846773" lon="10.468053880024947"><ele>130.25</ele><time>2026-03-28T08:22:43.999Z</time></trkpt><trkpt lat="45.441603287321755" lon="10.467955803625"><ele>130.0</ele><time>2026-03-28T08:22:44.999Z</time></trkpt><trkpt lat="45.44145478203316" lon="10.467853195560922"><ele>130.0</ele><time>2026-03-28T08:22:45.999Z</time></trkpt><trkpt lat="45.441304514592275" lon="10.467748143165958"><ele>130.0</ele><time>2026-03-28T08:22:46.999Z</time></trkpt><trkpt lat="45.441156390194855" lon="10.46764130331563"><ele>130.0</ele><time>2026-03-28T08:22:47.999Z</time></trkpt><trkpt lat="45.441006732892106" lon="10.467528943873228"><ele>129.33333333333334</ele><time>2026-03-28T08:22:48.999Z</time></trkpt><trkpt lat="45.440860846188016" lon="10.467407054315922"><ele>128.66666666666666</ele><time>2026-03-28T08:22:49.999Z</time></trkpt><trkpt lat="45.440721877848766" lon="10.467292655981128"><ele>128.0</ele><time>2026-03-28T08:22:50.999Z</time></trkpt><trkpt lat="45.44059063131387" lon="10.467188306786067"><ele>127.5</ele><time>2026-03-28T08:22:51.999Z</time></trkpt><trkpt lat="45.440463244909346" lon="10.467088881071186"><ele>127.0</ele><time>2026-03-28T08:22:52.999Z</time></trkpt><trkpt lat="45.44034223510877" lon="10.466997387195581"><ele>126.5</ele><time>2026-03-28T08:22:53.999Z</time></trkpt><trkpt lat="45.44020377902782" lon="10.466900008713987"><ele>126.0</ele><time>2026-03-28T08:22:54.999Z</time></trkpt><trkpt lat="45.440056851569175" lon="10.466814339784108"><ele>126.0</ele><time>2026-03-28T08:22:55.999Z</time></trkpt><trkpt lat="45.43989028589367" lon="10.466737839533904"><ele>126.0</ele><time>2026-03-28T08:22:56.999Z</time></trkpt><trkpt lat="45.43972856768069" lon="10.46667708541312"><ele>126.0</ele><time>2026-03-28T08:22:57.999Z</time></trkpt><trkpt lat="45.43957022379654" lon="10.466621222409545"><ele>126.0</ele><time>2026-03-28T08:22:58.999Z</time></trkpt><trkpt lat="45.439406275745114" lon="10.466568218792714"><ele>126.0</ele><time>2026-03-28T08:22:59.999Z</time></trkpt><trkpt lat="45.43923181410536" lon="10.466514760987003"><ele>126.0</ele><time>2026-03-28T08:23:00.999Z</time></trkpt><trkpt lat="45.43906683184216" lon="10.466466083256956"><ele>126.0</ele><time>2026-03-28T08:23:01.999Z</time></trkpt><trkpt lat="45.43890773876274" lon="10.466420869630044"><ele>126.0</ele><time>2026-03-28T08:23:02.999Z</time></trkpt><trkpt lat="45.43874886166158" lon="10.466378871848388"><ele>126.0</ele><time>2026-03-28T08:23:03.999Z</time></trkpt><trkpt lat="45.43858712035799" lon="10.466336755297137"><ele>126.0</ele><time>2026-03-28T08:23:04.999Z</time></trkpt><trkpt lat="45.43844299822071" lon="10.466281709638693"><ele>126.0</ele><time>2026-03-28T08:23:05.999Z</time></trkpt><trkpt lat="45.43831505889335" lon="10.466191669931447"><ele>126.0</ele><time>2026-03-28T08:23:06.999Z</time></trkpt><trkpt lat="45.43817836352445" lon="10.466089698154706"><ele>126.0</ele><time>2026-03-28T08:23:07.999Z</time></trkpt><trkpt lat="45.438046453031326" lon="10.4659873386211"><ele>125.33333333333334</ele><time>2026-03-28T08:23:08.999Z</time></trkpt><trkpt lat="45.43790818321538" lon="10.465875482095017"><ele>124.66666666666667</ele><time>2026-03-28T08:23:09.999Z</time></trkpt><trkpt lat="45.43776144997121" lon="10.465753181060313"><ele>124.0</ele><time>2026-03-28T08:23:10.999Z</time></trkpt><trkpt lat="45.43762436360476" lon="10.46563579883851"><ele>124.0</ele><time>2026-03-28T08:23:11.999Z</time></trkpt><trkpt lat="45.437493378120784" lon="10.46552066485846"><ele>124.0</ele><time>2026-03-28T08:23:12.999Z</time></trkpt><trkpt lat="45.43736527334823" lon="10.465413276556719"><ele>124.0</ele><time>2026-03-28T08:23:13.999Z</time></trkpt><trkpt lat="45.43724304250769" lon="10.465331010363716"><ele>124.0</ele><time>2026-03-28T08:23:14.999Z</time></trkpt><trkpt lat="45.437122182026144" lon="10.46525745036814"><ele>124.0</ele><time>2026-03-28T08:23:15.999Z</time></trkpt><trkpt lat="45.43700678830111" lon="10.46519080185206"><ele>124.0</ele><time>2026-03-28T08:23:16.999Z</time></trkpt><trkpt lat="45.436892916549745" lon="10.465129761150452"><ele>124.0</ele><time>2026-03-28T08:23:17.999Z</time></trkpt><trkpt lat="45.436786283681165" lon="10.46507944714754"><ele>124.0</ele><time>2026-03-28T08:23:18.999Z</time></trkpt><trkpt lat="45.43669069007065" lon="10.465035178614812"><ele>124.0</ele><time>2026-03-28T08:23:19.998Z</time></trkpt><trkpt lat="45.436602737629634" lon="10.46499300700992"><ele>124.0</ele><time>2026-03-28T08:23:20.998Z</time></trkpt><trkpt lat="45.43652062117981" lon="10.464953588645296"><ele>124.0</ele><time>2026-03-28T08:23:21.998Z</time></trkpt><trkpt lat="45.43644932007807" lon="10.464919361973086"><ele>124.0</ele><time>2026-03-28T08:23:23.998Z</time></trkpt><trkpt lat="45.43636696275101" lon="10.465240754744844"><ele>124.0</ele><time>2026-03-28T08:23:25.998Z</time></trkpt><trkpt lat="45.436360217251895" lon="10.46539964889292"><ele>124.0</ele><time>2026-03-28T08:23:26.998Z</time></trkpt><trkpt lat="45.436350235729094" lon="10.46561622983957"><ele>124.0</ele><time>2026-03-28T08:23:27.998Z</time></trkpt><trkpt lat="45.436347742242404" lon="10.465867907378646"><ele>124.0</ele><time>2026-03-28T08:23:28.998Z</time></trkpt><trkpt lat="45.43632255442583" lon="10.466125718124665"><ele>124.33333333333334</ele><time>2026-03-28T08:23:29.998Z</time></trkpt><trkpt lat="45.43634451918506" lon="10.466335885478072"><ele>124.66666666666666</ele><time>2026-03-28T08:23:30.998Z</time></trkpt><trkpt lat="45.43636551114497" lon="10.466579725536612"><ele>125.0</ele><time>2026-03-28T08:23:31.998Z</time></trkpt><trkpt lat="45.43636396328535" lon="10.466805292823988"><ele>125.0</ele><time>2026-03-28T08:23:32.998Z</time></trkpt><trkpt lat="45.43635744086832" lon="10.46702524442306"><ele>125.0</ele><time>2026-03-28T08:23:33.998Z</time></trkpt><trkpt lat="45.43635425070902" lon="10.467191558123185"><ele>125.0</ele><time>2026-03-28T08:23:34.998Z</time></trkpt><trkpt lat="45.43634864218612" lon="10.467325991868423"><ele>125.0</ele><time>2026-03-28T08:23:35.998Z</time></trkpt><trkpt lat="45.43635197046021" lon="10.467519019594205"><ele>125.0</ele><time>2026-03-28T08:23:36.998Z</time></trkpt><trkpt lat="45.4363472497952" lon="10.467717857147317"><ele>125.0</ele><time>2026-03-28T08:23:37.998Z</time></trkpt><trkpt lat="45.436339009242865" lon="10.467910676300043"><ele>125.0</ele><time>2026-03-28T08:23:38.998Z</time></trkpt><trkpt lat="45.43634141430057" lon="10.468112532778507"><ele>125.0</ele><time>2026-03-28T08:23:39.998Z</time></trkpt><trkpt lat="45.43634688606164" lon="10.468321091270628"><ele>125.0</ele><time>2026-03-28T08:23:40.998Z</time></trkpt><trkpt lat="45.43634195564377" lon="10.468528554313917"><ele>125.0</ele><time>2026-03-28T08:23:41.998Z</time></trkpt><trkpt lat="45.436329710496906" lon="10.468735702244983"><ele>125.0</ele><time>2026-03-28T08:23:42.998Z</time></trkpt><trkpt lat="45.43631873198725" lon="10.468947863961601"><ele>125.0</ele><time>2026-03-28T08:23:43.998Z</time></trkpt><trkpt lat="45.43631154324656" lon="10.469158419013537"><ele>125.25</ele><time>2026-03-28T08:23:44.998Z</time></trkpt><trkpt lat="45.43631769982533" lon="10.469360269687655"><ele>125.5</ele><time>2026-03-28T08:23:45.998Z</time></trkpt><trkpt lat="45.43632036873063" lon="10.469557380112782"><ele>125.75</ele><time>2026-03-28T08:23:46.998Z</time></trkpt><trkpt lat="45.436315229545" lon="10.469728889024784"><ele>126.0</ele><time>2026-03-28T08:23:47.998Z</time></trkpt><trkpt lat="45.43633376822816" lon="10.46989112158932"><ele>126.25</ele><time>2026-03-28T08:23:48.998Z</time></trkpt><trkpt lat="45.43633084434254" lon="10.470089811845558"><ele>126.5</ele><time>2026-03-28T08:23:49.998Z</time></trkpt><trkpt lat="45.43634516178341" lon="10.470267271137661"><ele>126.75</ele><time>2026-03-28T08:23:50.998Z</time></trkpt><trkpt lat="45.43636119081716" lon="10.470439055906906"><ele>127.0</ele><time>2026-03-28T08:23:51.998Z</time></trkpt><trkpt lat="45.43636151872388" lon="10.470617959080599"><ele>127.0</ele><time>2026-03-28T08:23:52.998Z</time></trkpt><trkpt lat="45.43635685168214" lon="10.470794362510228"><ele>127.0</ele><time>2026-03-28T08:23:53.998Z</time></trkpt><trkpt lat="45.43635021212018" lon="10.47097345333115"><ele>127.0</ele><time>2026-03-28T08:23:54.998Z</time></trkpt><trkpt lat="45.43634725409407" lon="10.47114618853377"><ele>127.0</ele><time>2026-03-28T08:23:55.998Z</time></trkpt><trkpt lat="45.436345839949304" lon="10.471323943707757"><ele>126.75</ele><time>2026-03-28T08:23:57Z</time></trkpt><trkpt lat="45.436344808405245" lon="10.471495311104118"><ele>126.5</ele><time>2026-03-28T08:23:58Z</time></trkpt><trkpt lat="45.436327604182054" lon="10.47166796026956"><ele>126.25</ele><time>2026-03-28T08:23:59Z</time></trkpt><trkpt lat="45.43634028468673" lon="10.471846975667738"><ele>126.0</ele><time>2026-03-28T08:24:00Z</time></trkpt><trkpt lat="45.43634185591889" lon="10.472026619854887"><ele>126.25</ele><time>2026-03-28T08:24:01Z</time></trkpt><trkpt lat="45.43634501352437" lon="10.472219643952489"><ele>126.5</ele><time>2026-03-28T08:24:02Z</time></trkpt><trkpt lat="45.43634767571393" lon="10.472431428988592"><ele>126.75</ele><time>2026-03-28T08:24:03Z</time></trkpt><trkpt lat="45.43635672181972" lon="10.472660155107867"><ele>127.0</ele><time>2026-03-28T08:24:04Z</time></trkpt><trkpt lat="45.43635060735289" lon="10.472892571339665"><ele>127.0</ele><time>2026-03-28T08:24:05Z</time></trkpt><trkpt lat="45.436383552919864" lon="10.473133586235642"><ele>127.0</ele><time>2026-03-28T08:24:06Z</time></trkpt><trkpt lat="45.436402020817305" lon="10.473348649886391"><ele>127.0</ele><time>2026-03-28T08:24:07Z</time></trkpt><trkpt lat="45.436418170881396" lon="10.473609229135077"><ele>127.0</ele><time>2026-03-28T08:24:08Z</time></trkpt><trkpt lat="45.43644846455535" lon="10.473863885330058"><ele>127.0</ele><time>2026-03-28T08:24:09Z</time></trkpt><trkpt lat="45.436468644863666" lon="10.474108016070039"><ele>127.0</ele><time>2026-03-28T08:24:10Z</time></trkpt><trkpt lat="45.43648471485093" lon="10.474331909038407"><ele>127.0</ele><time>2026-03-28T08:24:11Z</time></trkpt><trkpt lat="45.436501280655236" lon="10.474549524080324"><ele>127.0</ele><time>2026-03-28T08:24:12Z</time></trkpt><trkpt lat="45.43652279850873" lon="10.474781898980979"><ele>127.0</ele><time>2026-03-28T08:24:13Z</time></trkpt><trkpt lat="45.43654933431757" lon="10.475045947934134"><ele>127.33333333333334</ele><time>2026-03-28T08:24:14Z</time></trkpt><trkpt lat="45.4365886419256" lon="10.475275101715692"><ele>127.66666666666666</ele><time>2026-03-28T08:24:15Z</time></trkpt><trkpt lat="45.436599538154596" lon="10.475487609887224"><ele>128.0</ele><time>2026-03-28T08:24:16Z</time></trkpt><trkpt lat="45.43663544146678" lon="10.47568094679976"><ele>128.0</ele><time>2026-03-28T08:24:17Z</time></trkpt><trkpt lat="45.43665876417939" lon="10.47589439248921"><ele>128.0</ele><time>2026-03-28T08:24:18Z</time></trkpt><trkpt lat="45.436692320215094" lon="10.476093946852894"><ele>128.0</ele><time>2026-03-28T08:24:19Z</time></trkpt><trkpt lat="45.43670501218418" lon="10.47623731541995"><ele>128.0</ele><time>2026-03-28T08:24:20Z</time></trkpt><trkpt lat="45.43673519827309" lon="10.476449492228182"><ele>128.0</ele><time>2026-03-28T08:24:21Z</time></trkpt><trkpt lat="45.43676199560489" lon="10.476653512363999"><ele>128.0</ele><time>2026-03-28T08:24:22Z</time></trkpt><trkpt lat="45.43678377359001" lon="10.47682890546797"><ele>128.0</ele><time>2026-03-28T08:24:23Z</time></trkpt><trkpt lat="45.43681041261996" lon="10.476999106533968"><ele>128.0</ele><time>2026-03-28T08:24:24Z</time></trkpt><trkpt lat="45.43681827949789" lon="10.477154130121223"><ele>128.20000000000002</ele><time>2026-03-28T08:24:25Z</time></trkpt><trkpt lat="45.436830805939934" lon="10.477272933792545"><ele>128.4</ele><time>2026-03-28T08:24:26Z</time></trkpt><trkpt lat="45.43684264726016" lon="10.4774272495551"><ele>128.60000000000002</ele><time>2026-03-28T08:24:28Z</time></trkpt><trkpt lat="45.436923353381594" lon="10.47747013446785"><ele>128.8</ele><time>2026-03-28T08:24:34Z</time></trkpt><trkpt lat="45.437058597833826" lon="10.477502692275127"><ele>129.0</ele><time>2026-03-28T08:24:35.999Z</time></trkpt><trkpt lat="45.43715608452942" lon="10.477518039678763"><ele>129.0</ele><time>2026-03-28T08:24:36.999Z</time></trkpt><trkpt lat="45.43727170419303" lon="10.477530903526398"><ele>129.0</ele><time>2026-03-28T08:24:37.999Z</time></trkpt><trkpt lat="45.43739806380773" lon="10.47755928668165"><ele>129.0</ele><time>2026-03-28T08:24:38.999Z</time></trkpt><trkpt lat="45.437535776431524" lon="10.47756963764295"><ele>129.0</ele><time>2026-03-28T08:24:39.999Z</time></trkpt><trkpt lat="45.43767861043193" lon="10.477585495861023"><ele>129.0</ele><time>2026-03-28T08:24:40.999Z</time></trkpt><trkpt lat="45.437816430869226" lon="10.47762208765433"><ele>129.0</ele><time>2026-03-28T08:24:41.999Z</time></trkpt><trkpt lat="45.43796499496556" lon="10.477636327700955"><ele>129.0</ele><time>2026-03-28T08:24:42.999Z</time></trkpt><trkpt lat="45.43811331418526" lon="10.477649782926738"><ele>129.0</ele><time>2026-03-28T08:24:43.999Z</time></trkpt><trkpt lat="45.43824740784409" lon="10.47766038411095"><ele>129.25</ele><time>2026-03-28T08:24:44.999Z</time></trkpt><trkpt lat="45.438378229337566" lon="10.477649407860362"><ele>129.5</ele><time>2026-03-28T08:24:45.999Z</time></trkpt><trkpt lat="45.43850324842668" lon="10.477683220582039"><ele>129.75</ele><time>2026-03-28T08:24:46.999Z</time></trkpt><trkpt lat="45.43863395887076" lon="10.477699004460147"><ele>130.0</ele><time>2026-03-28T08:24:47.999Z</time></trkpt><trkpt lat="45.4387719494263" lon="10.477700926872807"><ele>130.0</ele><time>2026-03-28T08:24:48.999Z</time></trkpt><trkpt lat="45.4389083026868" lon="10.477728681016037"><ele>130.0</ele><time>2026-03-28T08:24:49.999Z</time></trkpt><trkpt lat="45.439045676339184" lon="10.477767195186745"><ele>130.0</ele><time>2026-03-28T08:24:50.999Z</time></trkpt><trkpt lat="45.439180285073405" lon="10.477811440816794"><ele>130.0</ele><time>2026-03-28T08:24:51.999Z</time></trkpt><trkpt lat="45.4393189079332" lon="10.477859530859766"><ele>130.0</ele><time>2026-03-28T08:24:52.999Z</time></trkpt><trkpt lat="45.439451392056625" lon="10.477913096668244"><ele>130.0</ele><time>2026-03-28T08:24:53.999Z</time></trkpt><trkpt lat="45.4395812384769" lon="10.477970012325427"><ele>130.0</ele><time>2026-03-28T08:24:54.999Z</time></trkpt><trkpt lat="45.43970945334591" lon="10.478032262072583"><ele>130.0</ele><time>2026-03-28T08:24:55.999Z</time></trkpt><trkpt lat="45.43983993151851" lon="10.478091566937332"><ele>130.25</ele><time>2026-03-28T08:24:56.999Z</time></trkpt><trkpt lat="45.4399720612947" lon="10.478145147446078"><ele>130.5</ele><time>2026-03-28T08:24:57.999Z</time></trkpt><trkpt lat="45.44011276979278" lon="10.478196487113506"><ele>130.75</ele><time>2026-03-28T08:24:58.999Z</time></trkpt><trkpt lat="45.44025453594099" lon="10.478251120111375"><ele>131.0</ele><time>2026-03-28T08:24:59.999Z</time></trkpt><trkpt lat="45.44039358317909" lon="10.478298727504463"><ele>131.25</ele><time>2026-03-28T08:25:00.999Z</time></trkpt><trkpt lat="45.44053314512804" lon="10.478344246871227"><ele>131.5</ele><time>2026-03-28T08:25:01.999Z</time></trkpt><trkpt lat="45.44067331590318" lon="10.47838679040635"><ele>131.75</ele><time>2026-03-28T08:25:02.999Z</time></trkpt><trkpt lat="45.44080793971452" lon="10.478429901484915"><ele>132.0</ele><time>2026-03-28T08:25:03.999Z</time></trkpt><trkpt lat="45.44094995257855" lon="10.478474262679224"><ele>132.0</ele><time>2026-03-28T08:25:04.999Z</time></trkpt><trkpt lat="45.44108619773312" lon="10.478514543313606"><ele>132.0</ele><time>2026-03-28T08:25:05.999Z</time></trkpt><trkpt lat="45.44122054294026" lon="10.478553178889584"><ele>132.0</ele><time>2026-03-28T08:25:06.999Z</time></trkpt><trkpt lat="45.441355888915034" lon="10.478593501681058"><ele>132.0</ele><time>2026-03-28T08:25:07.999Z</time></trkpt><trkpt lat="45.44149040085279" lon="10.47862823714502"><ele>132.5</ele><time>2026-03-28T08:25:08.999Z</time></trkpt><trkpt lat="45.4416292199458" lon="10.47865003234045"><ele>133.0</ele><time>2026-03-28T08:25:09.999Z</time></trkpt><trkpt lat="45.441772739509" lon="10.478658411211018"><ele>133.5</ele><time>2026-03-28T08:25:10.999Z</time></trkpt><trkpt lat="45.441918309981745" lon="10.478647530994571"><ele>134.0</ele><time>2026-03-28T08:25:11.999Z</time></trkpt><trkpt lat="45.44206404144242" lon="10.478614273159499"><ele>134.66666666666666</ele><time>2026-03-28T08:25:12.999Z</time></trkpt><trkpt lat="45.4422096618049" lon="10.478552312624114"><ele>135.33333333333334</ele><time>2026-03-28T08:25:13.999Z</time></trkpt><trkpt lat="45.44234999150875" lon="10.478476706057426"><ele>136.0</ele><time>2026-03-28T08:25:14.999Z</time></trkpt><trkpt lat="45.44249112686028" lon="10.478400475901648"><ele>136.0</ele><time>2026-03-28T08:25:15.999Z</time></trkpt><trkpt lat="45.44262840928733" lon="10.47831153548166"><ele>136.0</ele><time>2026-03-28T08:25:16.999Z</time></trkpt><trkpt lat="45.442765510751286" lon="10.47822527930207"><ele>136.0</ele><time>2026-03-28T08:25:17.999Z</time></trkpt><trkpt lat="45.44290273127768" lon="10.478146942931863"><ele>136.0</ele><time>2026-03-28T08:25:18.999Z</time></trkpt><trkpt lat="45.44304879302334" lon="10.47806403247881"><ele>135.66666666666669</ele><time>2026-03-28T08:25:19.999Z</time></trkpt><trkpt lat="45.44320463628261" lon="10.478003105379035"><ele>135.33333333333334</ele><time>2026-03-28T08:25:20.999Z</time></trkpt><trkpt lat="45.44336787222696" lon="10.477973626468978"><ele>135.0</ele><time>2026-03-28T08:25:21.999Z</time></trkpt><trkpt lat="45.443532114564945" lon="10.477949029141353"><ele>135.0</ele><time>2026-03-28T08:25:22.999Z</time></trkpt><trkpt lat="45.44369832557577" lon="10.477947546275278"><ele>135.0</ele><time>2026-03-28T08:25:23.999Z</time></trkpt><trkpt lat="45.4438703161506" lon="10.477972568107651"><ele>135.0</ele><time>2026-03-28T08:25:24.998Z</time></trkpt><trkpt lat="45.444037717810275" lon="10.477997182532114"><ele>135.33333333333334</ele><time>2026-03-28T08:25:25.998Z</time></trkpt><trkpt lat="45.44419764907401" lon="10.478055824281457"><ele>135.66666666666669</ele><time>2026-03-28T08:25:26.998Z</time></trkpt><trkpt lat="45.444363974725505" lon="10.478104222258864"><ele>136.0</ele><time>2026-03-28T08:25:27.998Z</time></trkpt><trkpt lat="45.44452846112296" lon="10.478152139593098"><ele>136.33333333333334</ele><time>2026-03-28T08:25:28.998Z</time></trkpt><trkpt lat="45.444686654342554" lon="10.478196982789527"><ele>136.66666666666666</ele><time>2026-03-28T08:25:29.998Z</time></trkpt><trkpt lat="45.4448503388278" lon="10.47824014218693"><ele>137.0</ele><time>2026-03-28T08:25:30.998Z</time></trkpt><trkpt lat="45.44501590914991" lon="10.478289166395411"><ele>137.0</ele><time>2026-03-28T08:25:31.998Z</time></trkpt><trkpt lat="45.445178388877586" lon="10.47833873899382"><ele>137.0</ele><time>2026-03-28T08:25:32.998Z</time></trkpt><trkpt lat="45.445343063352695" lon="10.478391912610261"><ele>137.0</ele><time>2026-03-28T08:25:33.998Z</time></trkpt><trkpt lat="45.44550536818638" lon="10.478445334755037"><ele>137.66666666666666</ele><time>2026-03-28T08:25:34.998Z</time></trkpt><trkpt lat="45.445670411093836" lon="10.478527570976992"><ele>138.33333333333334</ele><time>2026-03-28T08:25:35.998Z</time></trkpt><trkpt lat="45.44581791235495" lon="10.478639554503197"><ele>139.0</ele><time>2026-03-28T08:25:36.998Z</time></trkpt><trkpt lat="45.44596736846538" lon="10.478723620808541"><ele>139.33333333333334</ele><time>2026-03-28T08:25:37.998Z</time></trkpt><trkpt lat="45.44611026650377" lon="10.478846408304419"><ele>139.66666666666666</ele><time>2026-03-28T08:25:38.998Z</time></trkpt><trkpt lat="45.446252462085134" lon="10.478963202246224"><ele>140.0</ele><time>2026-03-28T08:25:39.998Z</time></trkpt><trkpt lat="45.44639029790298" lon="10.479071749364794"><ele>140.66666666666666</ele><time>2026-03-28T08:25:40.998Z</time></trkpt><trkpt lat="45.446530438115744" lon="10.479188066922413"><ele>141.33333333333334</ele><time>2026-03-28T08:25:41.998Z</time></trkpt><trkpt lat="45.446666468322086" lon="10.479298180487662"><ele>142.0</ele><time>2026-03-28T08:25:42.998Z</time></trkpt><trkpt lat="45.446804941973376" lon="10.479415455434454"><ele>142.0</ele><time>2026-03-28T08:25:43.998Z</time></trkpt><trkpt lat="45.44694783148716" lon="10.479521539513671"><ele>142.0</ele><time>2026-03-28T08:25:44.998Z</time></trkpt><trkpt lat="45.44709911641284" lon="10.479622844741534"><ele>142.0</ele><time>2026-03-28T08:25:45.998Z</time></trkpt><trkpt lat="45.44724380483338" lon="10.479711843659517"><ele>141.33333333333334</ele><time>2026-03-28T08:25:46.998Z</time></trkpt><trkpt lat="45.44739650889577" lon="10.479788614483008"><ele>140.66666666666666</ele><time>2026-03-28T08:25:47.998Z</time></trkpt><trkpt lat="45.44755327176484" lon="10.479867086978125"><ele>140.0</ele><time>2026-03-28T08:25:48.998Z</time></trkpt><trkpt lat="45.44770785469739" lon="10.479945577481127"><ele>140.0</ele><time>2026-03-28T08:25:49.998Z</time></trkpt><trkpt lat="45.447870665053735" lon="10.480024294367484"><ele>140.0</ele><time>2026-03-28T08:25:50.998Z</time></trkpt><trkpt lat="45.44802835982366" lon="10.480106390258547"><ele>140.0</ele><time>2026-03-28T08:25:51.998Z</time></trkpt><trkpt lat="45.44818347468664" lon="10.480180859774187"><ele>140.0</ele><time>2026-03-28T08:25:52.998Z</time></trkpt><trkpt lat="45.448350860156054" lon="10.48025160965035"><ele>140.0</ele><time>2026-03-28T08:25:53.998Z</time></trkpt><trkpt lat="45.448523804652595" lon="10.48031440706754"><ele>140.0</ele><time>2026-03-28T08:25:54.998Z</time></trkpt><trkpt lat="45.44869413013598" lon="10.480369428463849"><ele>140.0</ele><time>2026-03-28T08:25:55.998Z</time></trkpt><trkpt lat="45.448858884115836" lon="10.48041546660275"><ele>140.0</ele><time>2026-03-28T08:25:56.998Z</time></trkpt><trkpt lat="45.44902236183816" lon="10.480464393045198"><ele>140.0</ele><time>2026-03-28T08:25:57.998Z</time></trkpt><trkpt lat="45.44918694172365" lon="10.480517916159904"><ele>140.0</ele><time>2026-03-28T08:25:58.998Z</time></trkpt><trkpt lat="45.44936202389852" lon="10.48056452573874"><ele>140.0</ele><time>2026-03-28T08:25:59.998Z</time></trkpt><trkpt lat="45.44952897803828" lon="10.480613572132004"><ele>140.0</ele><time>2026-03-28T08:26:00.998Z</time></trkpt><trkpt lat="45.44970153814866" lon="10.480662104099249"><ele>141.0</ele><time>2026-03-28T08:26:01.998Z</time></trkpt><trkpt lat="45.449874422685525" lon="10.480707669731068"><ele>142.0</ele><time>2026-03-28T08:26:03Z</time></trkpt><trkpt lat="45.45004779865532" lon="10.480754274764239"><ele>143.0</ele><time>2026-03-28T08:26:04Z</time></trkpt><trkpt lat="45.450220371435826" lon="10.480798327903116"><ele>143.0</ele><time>2026-03-28T08:26:05Z</time></trkpt><trkpt lat="45.45038905208379" lon="10.48084441632562"><ele>143.0</ele><time>2026-03-28T08:26:06Z</time></trkpt><trkpt lat="45.45055742440467" lon="10.48088983242277"><ele>143.0</ele><time>2026-03-28T08:26:07Z</time></trkpt><trkpt lat="45.45072561443866" lon="10.480930942469815"><ele>143.33333333333331</ele><time>2026-03-28T08:26:08Z</time></trkpt><trkpt lat="45.450892568720796" lon="10.48096761670935"><ele>143.66666666666666</ele><time>2026-03-28T08:26:09Z</time></trkpt><trkpt lat="45.451043934077255" lon="10.480993348382674"><ele>144.0</ele><time>2026-03-28T08:26:10Z</time></trkpt><trkpt lat="45.451191908612046" lon="10.481017564144583"><ele>143.75</ele><time>2026-03-28T08:26:11Z</time></trkpt><trkpt lat="45.45132323154348" lon="10.481055772138244"><ele>143.5</ele><time>2026-03-28T08:26:12Z</time></trkpt><trkpt lat="45.45145368550671" lon="10.481097651683475"><ele>143.25</ele><time>2026-03-28T08:26:13Z</time></trkpt><trkpt lat="45.45158282586046" lon="10.481142579421663"><ele>143.0</ele><time>2026-03-28T08:26:14Z</time></trkpt><trkpt lat="45.45171259251413" lon="10.481199123462927"><ele>143.0</ele><time>2026-03-28T08:26:15Z</time></trkpt><trkpt lat="45.45184483033938" lon="10.481245263648344"><ele>143.0</ele><time>2026-03-28T08:26:16Z</time></trkpt><trkpt lat="45.45197595347186" lon="10.481296121355893"><ele>143.0</ele><time>2026-03-28T08:26:17Z</time></trkpt><trkpt lat="45.45210345920634" lon="10.481360596619123"><ele>143.0</ele><time>2026-03-28T08:26:18Z</time></trkpt><trkpt lat="45.45222263074219" lon="10.481446482089318"><ele>144.0</ele><time>2026-03-28T08:26:19Z</time></trkpt><trkpt lat="45.45233371936015" lon="10.48154502806053"><ele>145.0</ele><time>2026-03-28T08:26:20Z</time></trkpt><trkpt lat="45.45243433469092" lon="10.481659840543372"><ele>146.0</ele><time>2026-03-28T08:26:21Z</time></trkpt><trkpt lat="45.45252120486632" lon="10.481802561783969"><ele>147.0</ele><time>2026-03-28T08:26:22Z</time></trkpt><trkpt lat="45.4525942854865" lon="10.481948995108567"><ele>147.25</ele><time>2026-03-28T08:26:23Z</time></trkpt><trkpt lat="45.45264584603068" lon="10.482115024093957"><ele>147.5</ele><time>2026-03-28T08:26:24Z</time></trkpt><trkpt lat="45.45268514575655" lon="10.482301078021264"><ele>147.75</ele><time>2026-03-28T08:26:25Z</time></trkpt><trkpt lat="45.45270067707261" lon="10.482503986283199"><ele>148.0</ele><time>2026-03-28T08:26:26Z</time></trkpt><trkpt lat="45.45268817327898" lon="10.482697850713821"><ele>148.0</ele><time>2026-03-28T08:26:27Z</time></trkpt><trkpt lat="45.45267413851177" lon="10.482905950698076"><ele>148.0</ele><time>2026-03-28T08:26:28Z</time></trkpt><trkpt lat="45.45265463213529" lon="10.483107412333794"><ele>148.0</ele><time>2026-03-28T08:26:29Z</time></trkpt><trkpt lat="45.4526381499043" lon="10.483305490387629"><ele>148.0</ele><time>2026-03-28T08:26:30Z</time></trkpt><trkpt lat="45.45262239299374" lon="10.483501175244683"><ele>148.5</ele><time>2026-03-28T08:26:31Z</time></trkpt><trkpt lat="45.45262559202259" lon="10.483703831896143"><ele>149.0</ele><time>2026-03-28T08:26:32Z</time></trkpt><trkpt lat="45.45263588334891" lon="10.483898985732528"><ele>149.5</ele><time>2026-03-28T08:26:33Z</time></trkpt><trkpt lat="45.45266975912939" lon="10.48409130920134"><ele>150.0</ele><time>2026-03-28T08:26:34Z</time></trkpt><trkpt lat="45.45271864992123" lon="10.484254444596887"><ele>150.0</ele><time>2026-03-28T08:26:35Z</time></trkpt><trkpt lat="45.452770062944246" lon="10.484398944070902"><ele>150.0</ele><time>2026-03-28T08:26:36Z</time></trkpt><trkpt lat="45.45282959112732" lon="10.484513598551896"><ele>150.0</ele><time>2026-03-28T08:26:37Z</time></trkpt><trkpt lat="45.45288810803109" lon="10.484609511983397"><ele>150.0</ele><time>2026-03-28T08:26:38Z</time></trkpt><trkpt lat="45.452927387331286" lon="10.484681537467722"><ele>150.0</ele><time>2026-03-28T08:26:39Z</time></trkpt><trkpt lat="45.452967305307254" lon="10.484765336720514"><ele>150.0</ele><time>2026-03-28T08:26:41Z</time></trkpt><trkpt lat="45.45289789303721" lon="10.48495117315957"><ele>151.0</ele><time>2026-03-28T08:26:43Z</time></trkpt><trkpt lat="45.45286184317437" lon="10.485035153596979"><ele>152.0</ele><time>2026-03-28T08:26:44Z</time></trkpt><trkpt lat="45.45275856240467" lon="10.485092206579344"><ele>153.0</ele><time>2026-03-28T08:26:45.999Z</time></trkpt><trkpt lat="45.45268741409325" lon="10.485094637022152"><ele>154.0</ele><time>2026-03-28T08:26:46.999Z</time></trkpt><trkpt lat="45.45260308645481" lon="10.48507374726857"><ele>155.0</ele><time>2026-03-28T08:26:47.999Z</time></trkpt><trkpt lat="45.452510711020516" lon="10.485066245279508"><ele>156.0</ele><time>2026-03-28T08:26:48.999Z</time></trkpt><trkpt lat="45.45240702897517" lon="10.485068125989143"><ele>156.0</ele><time>2026-03-28T08:26:49.999Z</time></trkpt><trkpt lat="45.45229501680969" lon="10.485037251621971"><ele>156.0</ele><time>2026-03-28T08:26:50.999Z</time></trkpt><trkpt lat="45.45215577456931" lon="10.485014880355314"><ele>156.0</ele><time>2026-03-28T08:26:51.999Z</time></trkpt><trkpt lat="45.4520110202362" lon="10.484987437805112"><ele>156.0</ele><time>2026-03-28T08:26:52.999Z</time></trkpt><trkpt lat="45.45185210212023" lon="10.484946550155374"><ele>156.0</ele><time>2026-03-28T08:26:53.999Z</time></trkpt><trkpt lat="45.45170081161561" lon="10.484889801465373"><ele>156.0</ele><time>2026-03-28T08:26:54.999Z</time></trkpt><trkpt lat="45.451546814750024" lon="10.484826124330862"><ele>156.0</ele><time>2026-03-28T08:26:55.999Z</time></trkpt><trkpt lat="45.45139510067686" lon="10.484751469521559"><ele>156.5</ele><time>2026-03-28T08:26:56.999Z</time></trkpt><trkpt lat="45.451239955007864" lon="10.484717241507818"><ele>157.0</ele><time>2026-03-28T08:26:57.999Z</time></trkpt><trkpt lat="45.45109202183943" lon="10.484666628652493"><ele>157.5</ele><time>2026-03-28T08:26:58.999Z</time></trkpt><trkpt lat="45.45095945389961" lon="10.484647164211395"><ele>158.0</ele><time>2026-03-28T08:26:59.999Z</time></trkpt><trkpt lat="45.450834900643365" lon="10.484614639389019"><ele>155.0</ele><time>2026-03-28T08:27:00.999Z</time></trkpt><trkpt lat="45.450686131847405" lon="10.484561732877275"><ele>152.0</ele><time>2026-03-28T08:27:01.999Z</time></trkpt><trkpt lat="45.45054607727188" lon="10.484498930845943"><ele>149.0</ele><time>2026-03-28T08:27:02.999Z</time></trkpt><trkpt lat="45.45038428757138" lon="10.484467379575369"><ele>148.75</ele><time>2026-03-28T08:27:03.999Z</time></trkpt><trkpt lat="45.4502312469429" lon="10.484411196662464"><ele>148.5</ele><time>2026-03-28T08:27:04.999Z</time></trkpt><trkpt lat="45.450097741993375" lon="10.484386867387974"><ele>148.25</ele><time>2026-03-28T08:27:05.999Z</time></trkpt><trkpt lat="45.44997658102649" lon="10.484365611597761"><ele>148.0</ele><time>2026-03-28T08:27:06.999Z</time></trkpt><trkpt lat="45.4498542941055" lon="10.484360889012013"><ele>148.0</ele><time>2026-03-28T08:27:07.999Z</time></trkpt><trkpt lat="45.44972009207897" lon="10.484370121609391"><ele>148.0</ele><time>2026-03-28T08:27:08.999Z</time></trkpt><trkpt lat="45.449551743065925" lon="10.484382337702794"><ele>148.0</ele><time>2026-03-28T08:27:09.999Z</time></trkpt><trkpt lat="45.44936086334508" lon="10.484398338362592"><ele>147.33333333333334</ele><time>2026-03-28T08:27:10.999Z</time></trkpt><trkpt lat="45.449173667722974" lon="10.484405153643639"><ele>146.66666666666666</ele><time>2026-03-28T08:27:11.999Z</time></trkpt><trkpt lat="45.449011023118906" lon="10.48440595109327"><ele>146.0</ele><time>2026-03-28T08:27:12.999Z</time></trkpt><trkpt lat="45.44885160173411" lon="10.484402121352591"><ele>146.25</ele><time>2026-03-28T08:27:13.999Z</time></trkpt><trkpt lat="45.44870881593126" lon="10.484398744515204"><ele>146.5</ele><time>2026-03-28T08:27:14.999Z</time></trkpt><trkpt lat="45.44856944015465" lon="10.484393227181203"><ele>146.75</ele><time>2026-03-28T08:27:15.999Z</time></trkpt><trkpt lat="45.44840826205892" lon="10.484385019806329"><ele>147.0</ele><time>2026-03-28T08:27:16.999Z</time></trkpt><trkpt lat="45.448244717193056" lon="10.48437375924681"><ele>147.0</ele><time>2026-03-28T08:27:17.999Z</time></trkpt><trkpt lat="45.448077389747404" lon="10.484356406104496"><ele>147.0</ele><time>2026-03-28T08:27:18.999Z</time></trkpt><trkpt lat="45.447948053383875" lon="10.484334807320815"><ele>147.0</ele><time>2026-03-28T08:27:19.999Z</time></trkpt><trkpt lat="45.447864160188665" lon="10.484319286724414"><ele>147.0</ele><time>2026-03-28T08:27:20.999Z</time></trkpt><trkpt lat="45.44780290815541" lon="10.484292660794438"><ele>147.0</ele><time>2026-03-28T08:27:21.999Z</time></trkpt><trkpt lat="45.44774131247013" lon="10.484247551011316"><ele>147.79999999999998</ele><time>2026-03-28T08:27:22.999Z</time></trkpt><trkpt lat="45.447682711486436" lon="10.484186374238641"><ele>148.6</ele><time>2026-03-28T08:27:23.999Z</time></trkpt><trkpt lat="45.447602254128746" lon="10.484079705544008"><ele>149.39999999999998</ele><time>2026-03-28T08:27:24.999Z</time></trkpt><trkpt lat="45.4475165868574" lon="10.483971466422313"><ele>150.2</ele><time>2026-03-28T08:27:25.999Z</time></trkpt><trkpt lat="45.447428794739956" lon="10.483881846839877"><ele>151.0</ele><time>2026-03-28T08:27:26.999Z</time></trkpt><trkpt lat="45.44732286371388" lon="10.483825886262823"><ele>151.0</ele><time>2026-03-28T08:27:27.999Z</time></trkpt><trkpt lat="45.447199479198424" lon="10.483791196287346"><ele>151.0</ele><time>2026-03-28T08:27:28.999Z</time></trkpt><trkpt lat="45.44705157030831" lon="10.483748985575378"><ele>151.0</ele><time>2026-03-28T08:27:29.999Z</time></trkpt><trkpt lat="45.446871293888336" lon="10.483702226635815"><ele>148.66666666666669</ele><time>2026-03-28T08:27:30.999Z</time></trkpt><trkpt lat="45.446719439809264" lon="10.483663825824332"><ele>146.33333333333334</ele><time>2026-03-28T08:27:31.999Z</time></trkpt><trkpt lat="45.44655805012003" lon="10.483623691435712"><ele>144.0</ele><time>2026-03-28T08:27:32.999Z</time></trkpt><trkpt lat="45.446367598569424" lon="10.483579867402495"><ele>143.66666666666666</ele><time>2026-03-28T08:27:33.999Z</time></trkpt><trkpt lat="45.446160843737864" lon="10.483538255398274"><ele>143.33333333333331</ele><time>2026-03-28T08:27:34.998Z</time></trkpt><trkpt lat="45.44593425859256" lon="10.483496023687568"><ele>143.0</ele><time>2026-03-28T08:27:35.998Z</time></trkpt><trkpt lat="45.445698142061815" lon="10.483453369104637"><ele>143.0</ele><time>2026-03-28T08:27:36.998Z</time></trkpt><trkpt lat="45.44546931951513" lon="10.48341098228127"><ele>143.0</ele><time>2026-03-28T08:27:37.998Z</time></trkpt><trkpt lat="45.44526937350744" lon="10.48337270980988"><ele>143.0</ele><time>2026-03-28T08:27:38.998Z</time></trkpt><trkpt lat="45.44508090038872" lon="10.483336633396922"><ele>143.33333333333331</ele><time>2026-03-28T08:27:39.998Z</time></trkpt><trkpt lat="45.44488286049999" lon="10.483298725770972"><ele>143.66666666666666</ele><time>2026-03-28T08:27:40.998Z</time></trkpt><trkpt lat="45.44468675843959" lon="10.483276045181851"><ele>144.0</ele><time>2026-03-28T08:27:41.998Z</time></trkpt><trkpt lat="45.4444920666841" lon="10.483244249299736"><ele>144.0</ele><time>2026-03-28T08:27:42.998Z</time></trkpt><trkpt lat="45.44430130246996" lon="10.48322395684219"><ele>144.0</ele><time>2026-03-28T08:27:43.998Z</time></trkpt><trkpt lat="45.444086914984304" lon="10.483187084366229"><ele>144.0</ele><time>2026-03-28T08:27:44.998Z</time></trkpt><trkpt lat="45.4439075324967" lon="10.483123306841359"><ele>144.33333333333334</ele><time>2026-03-28T08:27:45.998Z</time></trkpt><trkpt lat="45.44373859443461" lon="10.483097588817463"><ele>144.66666666666669</ele><time>2026-03-28T08:27:46.998Z</time></trkpt><trkpt lat="45.443550071737334" lon="10.483051852924698"><ele>145.0</ele><time>2026-03-28T08:27:47.998Z</time></trkpt><trkpt lat="45.44335755688006" lon="10.48299594875972"><ele>145.0</ele><time>2026-03-28T08:27:48.998Z</time></trkpt><trkpt lat="45.44317306990162" lon="10.482961202372381"><ele>145.0</ele><time>2026-03-28T08:27:49.998Z</time></trkpt><trkpt lat="45.44302066705074" lon="10.48292813951752"><ele>145.0</ele><time>2026-03-28T08:27:50.998Z</time></trkpt><trkpt lat="45.44288561206161" lon="10.482890178428457"><ele>143.66666666666669</ele><time>2026-03-28T08:27:51.998Z</time></trkpt><trkpt lat="45.44274195537597" lon="10.482819294108575"><ele>142.33333333333334</ele><time>2026-03-28T08:27:52.998Z</time></trkpt><trkpt lat="45.44257616202905" lon="10.482716724076342"><ele>141.0</ele><time>2026-03-28T08:27:53.998Z</time></trkpt><trkpt lat="45.44238935617127" lon="10.482575698020119"><ele>141.0</ele><time>2026-03-28T08:27:54.998Z</time></trkpt><trkpt lat="45.44218491345576" lon="10.48241680325618"><ele>141.0</ele><time>2026-03-28T08:27:55.998Z</time></trkpt><trkpt lat="45.44197827523108" lon="10.482271037221116"><ele>141.0</ele><time>2026-03-28T08:27:56.998Z</time></trkpt><trkpt lat="45.44175507142444" lon="10.482112999950498"><ele>141.0</ele><time>2026-03-28T08:27:57.998Z</time></trkpt><trkpt lat="45.44155471073119" lon="10.481971071815007"><ele>140.0</ele><time>2026-03-28T08:27:58.998Z</time></trkpt><trkpt lat="45.44136960849252" lon="10.481833051797606"><ele>139.0</ele><time>2026-03-28T08:27:59.998Z</time></trkpt><trkpt lat="45.441191439850684" lon="10.481696416997773"><ele>138.0</ele><time>2026-03-28T08:28:00.998Z</time></trkpt><trkpt lat="45.441016238402014" lon="10.481563198284027"><ele>138.0</ele><time>2026-03-28T08:28:01.998Z</time></trkpt><trkpt lat="45.440851918837645" lon="10.481444295528165"><ele>138.0</ele><time>2026-03-28T08:28:02.998Z</time></trkpt><trkpt lat="45.440685031536454" lon="10.481328071420261"><ele>138.0</ele><time>2026-03-28T08:28:03.998Z</time></trkpt><trkpt lat="45.44053233965163" lon="10.481195104363081"><ele>136.66666666666666</ele><time>2026-03-28T08:28:04.998Z</time></trkpt><trkpt lat="45.440365990960984" lon="10.48109507487694"><ele>135.33333333333331</ele><time>2026-03-28T08:28:05.998Z</time></trkpt><trkpt lat="45.44020257612621" lon="10.481019643391976"><ele>134.0</ele><time>2026-03-28T08:28:06.998Z</time></trkpt><trkpt lat="45.43998987053146" lon="10.480936199972124"><ele>134.0</ele><time>2026-03-28T08:28:07.998Z</time></trkpt><trkpt lat="45.439763235504486" lon="10.480868856202134"><ele>134.0</ele><time>2026-03-28T08:28:09Z</time></trkpt><trkpt lat="45.439555844670714" lon="10.480813350936137"><ele>134.0</ele><time>2026-03-28T08:28:10Z</time></trkpt><trkpt lat="45.43935861486854" lon="10.48076203710844"><ele>134.33333333333331</ele><time>2026-03-28T08:28:11Z</time></trkpt><trkpt lat="45.439150271087" lon="10.480707510772081"><ele>134.66666666666666</ele><time>2026-03-28T08:28:12Z</time></trkpt><trkpt lat="45.43895292178198" lon="10.480655180142216"><ele>135.0</ele><time>2026-03-28T08:28:13Z</time></trkpt><trkpt lat="45.438776264838495" lon="10.480608336454239"><ele>134.6</ele><time>2026-03-28T08:28:14Z</time></trkpt><trkpt lat="45.43864013297914" lon="10.480572238700454"><ele>134.2</ele><time>2026-03-28T08:28:15Z</time></trkpt><trkpt lat="45.43853381486575" lon="10.480544712304399"><ele>133.8</ele><time>2026-03-28T08:28:16Z</time></trkpt><trkpt lat="45.43845494719028" lon="10.48052855920801"><ele>133.4</ele><time>2026-03-28T08:28:17Z</time></trkpt><trkpt lat="45.438372438423556" lon="10.480526151200916"><ele>133.0</ele><time>2026-03-28T08:28:18Z</time></trkpt><trkpt lat="45.438262603829976" lon="10.480490615067268"><ele>132.66666666666669</ele><time>2026-03-28T08:28:19Z</time></trkpt><trkpt lat="45.43812672849525" lon="10.480426659400397"><ele>132.33333333333334</ele><time>2026-03-28T08:28:20Z</time></trkpt><trkpt lat="45.43797189106171" lon="10.480402642348375"><ele>132.0</ele><time>2026-03-28T08:28:21Z</time></trkpt><trkpt lat="45.43779093700156" lon="10.480418887036315"><ele>131.33333333333334</ele><time>2026-03-28T08:28:22Z</time></trkpt><trkpt lat="45.437599458368666" lon="10.48039635973035"><ele>130.66666666666669</ele><time>2026-03-28T08:28:23Z</time></trkpt><trkpt lat="45.43740971480662" lon="10.480398984735817"><ele>130.0</ele><time>2026-03-28T08:28:24Z</time></trkpt><trkpt lat="45.437238466007564" lon="10.480400855105934"><ele>129.66666666666669</ele><time>2026-03-28T08:28:25Z</time></trkpt><trkpt lat="45.437075388164956" lon="10.480400855106444"><ele>129.33333333333334</ele><time>2026-03-28T08:28:26Z</time></trkpt><trkpt lat="45.43690246596444" lon="10.480401814257153"><ele>129.0</ele><time>2026-03-28T08:28:27Z</time></trkpt><trkpt lat="45.43672471312682" lon="10.480409731594655"><ele>129.0</ele><time>2026-03-28T08:28:28Z</time></trkpt><trkpt lat="45.43654586821074" lon="10.480429040827191"><ele>129.0</ele><time>2026-03-28T08:28:29Z</time></trkpt><trkpt lat="45.43636803504257" lon="10.480484511738213"><ele>129.0</ele><time>2026-03-28T08:28:30Z</time></trkpt><trkpt lat="45.436193013574915" lon="10.480571915149227"><ele>129.66666666666666</ele><time>2026-03-28T08:28:31Z</time></trkpt><trkpt lat="45.436007836610855" lon="10.4806651365669"><ele>130.33333333333331</ele><time>2026-03-28T08:28:32Z</time></trkpt><trkpt lat="45.43584097952247" lon="10.480749135406935"><ele>131.0</ele><time>2026-03-28T08:28:33Z</time></trkpt><trkpt lat="45.435667085720645" lon="10.480836676672018"><ele>131.0</ele><time>2026-03-28T08:28:34Z</time></trkpt><trkpt lat="45.43549183984786" lon="10.480924898575214"><ele>131.0</ele><time>2026-03-28T08:28:35Z</time></trkpt><trkpt lat="45.43531671836625" lon="10.481020303899015"><ele>131.0</ele><time>2026-03-28T08:28:36Z</time></trkpt><trkpt lat="45.43514498353196" lon="10.481108941033414"><ele>131.0</ele><time>2026-03-28T08:28:37Z</time></trkpt><trkpt lat="45.43497611643799" lon="10.481182482091182"><ele>131.0</ele><time>2026-03-28T08:28:38Z</time></trkpt><trkpt lat="45.434797466633306" lon="10.481252185206376"><ele>131.0</ele><time>2026-03-28T08:28:39Z</time></trkpt><trkpt lat="45.43462910065775" lon="10.48129990887257"><ele>131.0</ele><time>2026-03-28T08:28:40Z</time></trkpt><trkpt lat="45.434455231180166" lon="10.481334588831718"><ele>131.0</ele><time>2026-03-28T08:28:41Z</time></trkpt><trkpt lat="45.434288027106525" lon="10.481356919351338"><ele>131.0</ele><time>2026-03-28T08:28:42Z</time></trkpt><trkpt lat="45.43412322849287" lon="10.481371431498115"><ele>131.0</ele><time>2026-03-28T08:28:43Z</time></trkpt><trkpt lat="45.433950254976786" lon="10.481375957183127"><ele>131.0</ele><time>2026-03-28T08:28:44Z</time></trkpt><trkpt lat="45.43378861023137" lon="10.481361585699815"><ele>131.0</ele><time>2026-03-28T08:28:45Z</time></trkpt><trkpt lat="45.43364296630448" lon="10.481326029340451"><ele>131.0</ele><time>2026-03-28T08:28:46Z</time></trkpt><trkpt lat="45.43349760560088" lon="10.481275733142008"><ele>131.0</ele><time>2026-03-28T08:28:47Z</time></trkpt><trkpt lat="45.43332771078406" lon="10.481195590641596"><ele>131.0</ele><time>2026-03-28T08:28:48Z</time></trkpt><trkpt lat="45.4331615667966" lon="10.48110801893008"><ele>131.33333333333331</ele><time>2026-03-28T08:28:49Z</time></trkpt><trkpt lat="45.432996546314804" lon="10.481017890167202"><ele>131.66666666666666</ele><time>2026-03-28T08:28:49.999Z</time></trkpt><trkpt lat="45.432820853818576" lon="10.480917733403057"><ele>132.0</ele><time>2026-03-28T08:28:50.999Z</time></trkpt><trkpt lat="45.43263921320957" lon="10.480818305810338"><ele>132.0</ele><time>2026-03-28T08:28:51.999Z</time></trkpt><trkpt lat="45.43247052976258" lon="10.480724771840627"><ele>132.0</ele><time>2026-03-28T08:28:52.999Z</time></trkpt><trkpt lat="45.43229970277876" lon="10.480628862965263"><ele>132.0</ele><time>2026-03-28T08:28:53.999Z</time></trkpt><trkpt lat="45.43213234280593" lon="10.480542936528941"><ele>132.33333333333334</ele><time>2026-03-28T08:28:54.999Z</time></trkpt><trkpt lat="45.43196422382482" lon="10.480461816754026"><ele>132.66666666666669</ele><time>2026-03-28T08:28:55.999Z</time></trkpt><trkpt lat="45.43179061501734" lon="10.480386366135539"><ele>133.0</ele><time>2026-03-28T08:28:56.999Z</time></trkpt><trkpt lat="45.43163636653168" lon="10.480345384819122"><ele>131.66666666666669</ele><time>2026-03-28T08:28:57.999Z</time></trkpt><trkpt lat="45.43143110458834" lon="10.480293816942739"><ele>130.33333333333334</ele><time>2026-03-28T08:28:58.999Z</time></trkpt><trkpt lat="45.43124440359766" lon="10.480226268153789"><ele>129.0</ele><time>2026-03-28T08:28:59.999Z</time></trkpt><trkpt lat="45.431065200586204" lon="10.480181820280983"><ele>129.0</ele><time>2026-03-28T08:29:00.999Z</time></trkpt><trkpt lat="45.430880367028834" lon="10.48013597585958"><ele>129.0</ele><time>2026-03-28T08:29:01.999Z</time></trkpt><trkpt lat="45.430696180631905" lon="10.480088744959962"><ele>129.0</ele><time>2026-03-28T08:29:02.999Z</time></trkpt><trkpt lat="45.430514400309974" lon="10.480040905347874"><ele>129.66666666666666</ele><time>2026-03-28T08:29:03.999Z</time></trkpt><trkpt lat="45.430330944968695" lon="10.479991973389925"><ele>130.33333333333331</ele><time>2026-03-28T08:29:04.999Z</time></trkpt><trkpt lat="45.43014940838944" lon="10.479990031434092"><ele>131.0</ele><time>2026-03-28T08:29:05.999Z</time></trkpt><trkpt lat="45.4299773704856" lon="10.479948745308235"><ele>131.0</ele><time>2026-03-28T08:29:06.999Z</time></trkpt><trkpt lat="45.429806457574294" lon="10.479903543731014"><ele>131.0</ele><time>2026-03-28T08:29:07.999Z</time></trkpt><trkpt lat="45.4296326668283" lon="10.479853800669067"><ele>131.0</ele><time>2026-03-28T08:29:08.999Z</time></trkpt><trkpt lat="45.42946373950841" lon="10.479767824447634"><ele>130.0</ele><time>2026-03-28T08:29:09.999Z</time></trkpt><trkpt lat="45.429294980621776" lon="10.479733252614546"><ele>129.0</ele><time>2026-03-28T08:29:10.999Z</time></trkpt><trkpt lat="45.42911222728171" lon="10.47971608223841"><ele>128.0</ele><time>2026-03-28T08:29:11.999Z</time></trkpt><trkpt lat="45.428934410394454" lon="10.47971330036819"><ele>127.0</ele><time>2026-03-28T08:29:12.999Z</time></trkpt><trkpt lat="45.428743690388536" lon="10.479714815220344"><ele>126.0</ele><time>2026-03-28T08:29:13.999Z</time></trkpt><trkpt lat="45.42855469434484" lon="10.479716316377361"><ele>125.0</ele><time>2026-03-28T08:29:14.999Z</time></trkpt><trkpt lat="45.42835422036857" lon="10.47971967936213"><ele>125.0</ele><time>2026-03-28T08:29:15.999Z</time></trkpt><trkpt lat="45.42816863855562" lon="10.479723642670297"><ele>125.0</ele><time>2026-03-28T08:29:16.999Z</time></trkpt><trkpt lat="45.42798240629764" lon="10.479726151587684"><ele>125.0</ele><time>2026-03-28T08:29:17.999Z</time></trkpt><trkpt lat="45.427801707152945" lon="10.479727374835342"><ele>125.33333333333333</ele><time>2026-03-28T08:29:18.999Z</time></trkpt><trkpt lat="45.42763385013369" lon="10.479726599650705"><ele>125.66666666666666</ele><time>2026-03-28T08:29:19.999Z</time></trkpt><trkpt lat="45.4274679022824" lon="10.47972336925316"><ele>126.0</ele><time>2026-03-28T08:29:20.999Z</time></trkpt><trkpt lat="45.427295659237636" lon="10.479710916551024"><ele>126.0</ele><time>2026-03-28T08:29:21.999Z</time></trkpt><trkpt lat="45.427125873118946" lon="10.479686177594138"><ele>126.0</ele><time>2026-03-28T08:29:22.999Z</time></trkpt><trkpt lat="45.426963515623385" lon="10.479649046437856"><ele>126.0</ele><time>2026-03-28T08:29:23.999Z</time></trkpt><trkpt lat="45.42679752253917" lon="10.479604297272658"><ele>125.33333333333334</ele><time>2026-03-28T08:29:24.999Z</time></trkpt><trkpt lat="45.426624757012" lon="10.479551436174845"><ele>124.66666666666667</ele><time>2026-03-28T08:29:25.999Z</time></trkpt><trkpt lat="45.42646272522062" lon="10.479497731725994"><ele>124.0</ele><time>2026-03-28T08:29:26.999Z</time></trkpt><trkpt lat="45.4262893493725" lon="10.47943998293596"><ele>124.0</ele><time>2026-03-28T08:29:27.999Z</time></trkpt><trkpt lat="45.42611293517649" lon="10.47938122211576"><ele>124.0</ele><time>2026-03-28T08:29:28.999Z</time></trkpt><trkpt lat="45.42595160691779" lon="10.479327053121503"><ele>124.0</ele><time>2026-03-28T08:29:29.999Z</time></trkpt><trkpt lat="45.425763915594565" lon="10.479263900607833"><ele>124.0</ele><time>2026-03-28T08:29:30.999Z</time></trkpt><trkpt lat="45.42558916097897" lon="10.47920483634363"><ele>124.0</ele><time>2026-03-28T08:29:31.999Z</time></trkpt><trkpt lat="45.42540512440025" lon="10.479138952707135"><ele>124.0</ele><time>2026-03-28T08:29:32.999Z</time></trkpt><trkpt lat="45.425225429021836" lon="10.47907462318527"><ele>124.33333333333334</ele><time>2026-03-28T08:29:33.999Z</time></trkpt><trkpt lat="45.42504776451081" lon="10.479012543074521"><ele>124.66666666666666</ele><time>2026-03-28T08:29:34.999Z</time></trkpt><trkpt lat="45.4248802850117" lon="10.478954041577254"><ele>125.0</ele><time>2026-03-28T08:29:35.999Z</time></trkpt><trkpt lat="45.42471652493395" lon="10.47889481920135"><ele>124.66666666666666</ele><time>2026-03-28T08:29:36.999Z</time></trkpt><trkpt lat="45.42454037118981" lon="10.478826023292555"><ele>124.33333333333334</ele><time>2026-03-28T08:29:37.999Z</time></trkpt><trkpt lat="45.42436385588636" lon="10.478757086198707"><ele>124.0</ele><time>2026-03-28T08:29:38.999Z</time></trkpt><trkpt lat="45.424195338262194" lon="10.478691998661258"><ele>123.66666666666667</ele><time>2026-03-28T08:29:39.999Z</time></trkpt><trkpt lat="45.424031119168404" lon="10.478628350769863"><ele>123.33333333333334</ele><time>2026-03-28T08:29:40.998Z</time></trkpt><trkpt lat="45.42386503872561" lon="10.478563981466552"><ele>123.0</ele><time>2026-03-28T08:29:41.998Z</time></trkpt><trkpt lat="45.42371794537793" lon="10.478506971174678"><ele>123.0</ele><time>2026-03-28T08:29:42.998Z</time></trkpt><trkpt lat="45.42356742094452" lon="10.47844684258528"><ele>123.0</ele><time>2026-03-28T08:29:43.998Z</time></trkpt><trkpt lat="45.42341181035396" lon="10.478384236221778"><ele>123.0</ele><time>2026-03-28T08:29:44.998Z</time></trkpt><trkpt lat="45.42325751558004" lon="10.478311287223937"><ele>123.0</ele><time>2026-03-28T08:29:45.998Z</time></trkpt><trkpt lat="45.42309708859733" lon="10.478222855412119"><ele>123.0</ele><time>2026-03-28T08:29:46.998Z</time></trkpt><trkpt lat="45.42293718971304" lon="10.47813156727661"><ele>123.0</ele><time>2026-03-28T08:29:47.998Z</time></trkpt><trkpt lat="45.42277664337703" lon="10.478038877130636"><ele>123.66666666666666</ele><time>2026-03-28T08:29:48.998Z</time></trkpt><trkpt lat="45.42261411641508" lon="10.477947869509274"><ele>124.33333333333333</ele><time>2026-03-28T08:29:49.998Z</time></trkpt><trkpt lat="45.422449711731375" lon="10.477856271426557"><ele>125.0</ele><time>2026-03-28T08:29:50.998Z</time></trkpt><trkpt lat="45.422276539930444" lon="10.477759431203966"><ele>123.0</ele><time>2026-03-28T08:29:51.998Z</time></trkpt><trkpt lat="45.422107934233075" lon="10.47766473758477"><ele>121.0</ele><time>2026-03-28T08:29:52.998Z</time></trkpt><trkpt lat="45.42193695948894" lon="10.477568713452156"><ele>119.0</ele><time>2026-03-28T08:29:53.998Z</time></trkpt><trkpt lat="45.42176923762913" lon="10.477470796267962"><ele>119.0</ele><time>2026-03-28T08:29:54.998Z</time></trkpt><trkpt lat="45.42159812786039" lon="10.477378806342667"><ele>119.0</ele><time>2026-03-28T08:29:55.998Z</time></trkpt><trkpt lat="45.42141496809724" lon="10.477308357273285"><ele>119.0</ele><time>2026-03-28T08:29:56.998Z</time></trkpt><trkpt lat="45.421230976413064" lon="10.477248683535262"><ele>119.66666666666666</ele><time>2026-03-28T08:29:57.998Z</time></trkpt><trkpt lat="45.421041364815714" lon="10.477196129439555"><ele>120.33333333333334</ele><time>2026-03-28T08:29:58.998Z</time></trkpt><trkpt lat="45.42085342267854" lon="10.477145680515882"><ele>121.0</ele><time>2026-03-28T08:29:59.998Z</time></trkpt><trkpt lat="45.420664215964365" lon="10.477095159616308"><ele>119.0</ele><time>2026-03-28T08:30:00.998Z</time></trkpt><trkpt lat="45.42047166296711" lon="10.477045739919514"><ele>117.0</ele><time>2026-03-28T08:30:01.998Z</time></trkpt><trkpt lat="45.420285765823614" lon="10.47699685186183"><ele>115.0</ele><time>2026-03-28T08:30:02.998Z</time></trkpt><trkpt lat="45.42010646058669" lon="10.476949102308913"><ele>115.0</ele><time>2026-03-28T08:30:03.998Z</time></trkpt><trkpt lat="45.41993220326746" lon="10.476902697007542"><ele>115.0</ele><time>2026-03-28T08:30:04.998Z</time></trkpt><trkpt lat="45.41976143685053" lon="10.476859282212596"><ele>115.0</ele><time>2026-03-28T08:30:05.998Z</time></trkpt><trkpt lat="45.41960133901094" lon="10.476818403823486"><ele>115.5</ele><time>2026-03-28T08:30:06.998Z</time></trkpt><trkpt lat="45.419455368687444" lon="10.476780940950443"><ele>116.0</ele><time>2026-03-28T08:30:07.998Z</time></trkpt><trkpt lat="45.4193203088189" lon="10.476746009129897"><ele>116.5</ele><time>2026-03-28T08:30:08.998Z</time></trkpt><trkpt lat="45.419200782887145" lon="10.476715480579141"><ele>117.0</ele><time>2026-03-28T08:30:09.998Z</time></trkpt><trkpt lat="45.419095737685595" lon="10.47668938774473"><ele>117.0</ele><time>2026-03-28T08:30:10.998Z</time></trkpt><trkpt lat="45.41900195546176" lon="10.47666609258674"><ele>117.0</ele><time>2026-03-28T08:30:11.998Z</time></trkpt><trkpt lat="45.41891561841997" lon="10.47664464673097"><ele>117.0</ele><time>2026-03-28T08:30:12.998Z</time></trkpt><trkpt lat="45.41884105790933" lon="10.47663107804455"><ele>117.0</ele><time>2026-03-28T08:30:13.998Z</time></trkpt><trkpt lat="45.41877026293909" lon="10.476637703682147"><ele>117.0</ele><time>2026-03-28T08:30:15Z</time></trkpt><trkpt lat="45.41870702411151" lon="10.476609718458466"><ele>117.0</ele><time>2026-03-28T08:30:16Z</time></trkpt><trkpt lat="45.41863068555011" lon="10.476726401337235"><ele>116.6</ele><time>2026-03-28T08:30:18Z</time></trkpt><trkpt lat="45.41862807283535" lon="10.476820001062308"><ele>116.19999999999999</ele><time>2026-03-28T08:30:19Z</time></trkpt><trkpt lat="45.41858940323615" lon="10.476904050305093"><ele>115.8</ele><time>2026-03-28T08:30:20Z</time></trkpt><trkpt lat="45.41862383353395" lon="10.477066473858994"><ele>115.4</ele><time>2026-03-28T08:30:21Z</time></trkpt><trkpt lat="45.41857330734246" lon="10.477199302634595"><ele>115.0</ele><time>2026-03-28T08:30:22Z</time></trkpt><trkpt lat="45.41850200571923" lon="10.477340330226648"><ele>116.25</ele><time>2026-03-28T08:30:23Z</time></trkpt><trkpt lat="45.418419994379555" lon="10.477487777740595"><ele>117.5</ele><time>2026-03-28T08:30:24Z</time></trkpt><trkpt lat="45.41832891818854" lon="10.47762326154554"><ele>118.75</ele><time>2026-03-28T08:30:25Z</time></trkpt><trkpt lat="45.418240438148246" lon="10.477741283107756"><ele>120.0</ele><time>2026-03-28T08:30:26Z</time></trkpt><trkpt lat="45.41816701091363" lon="10.477876764386059"><ele>119.5</ele><time>2026-03-28T08:30:27Z</time></trkpt><trkpt lat="45.418105836065486" lon="10.47805398396266"><ele>119.0</ele><time>2026-03-28T08:30:28Z</time></trkpt><trkpt lat="45.41805448799515" lon="10.478252046308533"><ele>118.5</ele><time>2026-03-28T08:30:29Z</time></trkpt><trkpt lat="45.41800076342453" lon="10.478454463556567"><ele>118.0</ele><time>2026-03-28T08:30:30Z</time></trkpt><trkpt lat="45.41795005275285" lon="10.478652010465337"><ele>119.25</ele><time>2026-03-28T08:30:31Z</time></trkpt><trkpt lat="45.417901524284936" lon="10.478837754009499"><ele>120.5</ele><time>2026-03-28T08:30:32Z</time></trkpt><trkpt lat="45.4178609996564" lon="10.479002912796268"><ele>121.75</ele><time>2026-03-28T08:30:33Z</time></trkpt><trkpt lat="45.4178336081571" lon="10.479157384014103"><ele>123.0</ele><time>2026-03-28T08:30:34Z</time></trkpt><trkpt lat="45.417830732713504" lon="10.47930542941878"><ele>123.0</ele><time>2026-03-28T08:30:35Z</time></trkpt><trkpt lat="45.41785741195568" lon="10.479457613121587"><ele>123.0</ele><time>2026-03-28T08:30:36Z</time></trkpt><trkpt lat="45.41791809281663" lon="10.479612949023933"><ele>123.0</ele><time>2026-03-28T08:30:37Z</time></trkpt><trkpt lat="45.41798087538502" lon="10.47978043627331"><ele>123.0</ele><time>2026-03-28T08:30:38Z</time></trkpt><trkpt lat="45.418037136672055" lon="10.479961187904557"><ele>124.0</ele><time>2026-03-28T08:30:39Z</time></trkpt><trkpt lat="45.41808984901389" lon="10.480146866212523"><ele>125.0</ele><time>2026-03-28T08:30:40Z</time></trkpt><trkpt lat="45.418141545839084" lon="10.48033277021339"><ele>126.0</ele><time>2026-03-28T08:30:41Z</time></trkpt><trkpt lat="45.4181923795397" lon="10.48049952325768"><ele>127.0</ele><time>2026-03-28T08:30:42Z</time></trkpt><trkpt lat="45.4182490816462" lon="10.480635072036915"><ele>127.0</ele><time>2026-03-28T08:30:43Z</time></trkpt><trkpt lat="45.4183222091942" lon="10.480759524307498"><ele>126.99999999999999</ele><time>2026-03-28T08:30:44Z</time></trkpt><trkpt lat="45.418415016177256" lon="10.480868594507054"><ele>126.99999999999999</ele><time>2026-03-28T08:30:45Z</time></trkpt><trkpt lat="45.418504679095264" lon="10.480949902722779"><ele>127.0</ele><time>2026-03-28T08:30:46Z</time></trkpt><trkpt lat="45.41858617777931" lon="10.48104053187528"><ele>127.0</ele><time>2026-03-28T08:30:47Z</time></trkpt><trkpt lat="45.418655949909194" lon="10.481149808305974"><ele>127.0</ele><time>2026-03-28T08:30:48Z</time></trkpt><trkpt lat="45.41869930247007" lon="10.481253121787475"><ele>126.99999999999999</ele><time>2026-03-28T08:30:49Z</time></trkpt><trkpt lat="45.418716375576636" lon="10.481367338325729"><ele>126.99999999999999</ele><time>2026-03-28T08:30:50Z</time></trkpt><trkpt lat="45.4187039557324" lon="10.481495119138328"><ele>127.0</ele><time>2026-03-28T08:30:51Z</time></trkpt><trkpt lat="45.41867568386196" lon="10.481594888751626"><ele>127.0</ele><time>2026-03-28T08:30:52Z</time></trkpt><trkpt lat="45.41862397697973" lon="10.481748574119704"><ele>127.00000000000001</ele><time>2026-03-28T08:30:53.999Z</time></trkpt><trkpt lat="45.41858540535084" lon="10.48183771993148"><ele>127.0</ele><time>2026-03-28T08:30:55.999Z</time></trkpt><trkpt lat="45.41866445005515" lon="10.481918578365256"><ele>127.0</ele><time>2026-03-28T08:30:56.999Z</time></trkpt><trkpt lat="45.418719973127104" lon="10.48200078833433"><ele>127.0</ele><time>2026-03-28T08:30:57.999Z</time></trkpt><trkpt lat="45.41877551320411" lon="10.482111865320679"><ele>127.00000000000001</ele><time>2026-03-28T08:30:58.999Z</time></trkpt><trkpt lat="45.41877373291455" lon="10.482224956020037"><ele>127.0</ele><time>2026-03-28T08:30:59.999Z</time></trkpt><trkpt lat="45.418785728917065" lon="10.482322703471318"><ele>127.00000000000001</ele><time>2026-03-28T08:31:00.999Z</time></trkpt><trkpt lat="45.41878583085915" lon="10.482425084424422"><ele>127.0</ele><time>2026-03-28T08:31:01.999Z</time></trkpt><trkpt lat="45.418781218602405" lon="10.482516722420613"><ele>127.0</ele><time>2026-03-28T08:31:02.999Z</time></trkpt><trkpt lat="45.41878597088682" lon="10.482629650610246"><ele>127.0</ele><time>2026-03-28T08:31:03.999Z</time></trkpt><trkpt lat="45.418791880769845" lon="10.482747338375113"><ele>127.00000000000001</ele><time>2026-03-28T08:31:04.999Z</time></trkpt><trkpt lat="45.41879177825934" lon="10.482880242717316"><ele>127.0</ele><time>2026-03-28T08:31:05.999Z</time></trkpt><trkpt lat="45.418787807270014" lon="10.482992306413346"><ele>127.5</ele><time>2026-03-28T08:31:06.999Z</time></trkpt><trkpt lat="45.41878979014322" lon="10.483100113405623"><ele>128.0</ele><time>2026-03-28T08:31:07.999Z</time></trkpt><trkpt lat="45.41895422363236" lon="10.483182929867166"><ele>128.5</ele><time>2026-03-28T08:31:08.999Z</time></trkpt><trkpt lat="45.4190488093228" lon="10.48327771260173"><ele>129.0</ele><time>2026-03-28T08:31:09.999Z</time></trkpt><trkpt lat="45.41914097310639" lon="10.483366724091265"><ele>128.8</ele><time>2026-03-28T08:31:10.999Z</time></trkpt><trkpt lat="45.41923439426949" lon="10.483443421053515"><ele>128.60000000000002</ele><time>2026-03-28T08:31:11.999Z</time></trkpt><trkpt lat="45.41929447528515" lon="10.483545658079779"><ele>128.4</ele><time>2026-03-28T08:31:12.999Z</time></trkpt><trkpt lat="45.41933407735013" lon="10.483656273599795"><ele>128.20000000000002</ele><time>2026-03-28T08:31:13.999Z</time></trkpt><trkpt lat="45.41937826131098" lon="10.483720707621822"><ele>128.0</ele><time>2026-03-28T08:31:14.999Z</time></trkpt><trkpt lat="45.41937172617891" lon="10.483890195034219"><ele>127.99999999999999</ele><time>2026-03-28T08:31:16.999Z</time></trkpt><trkpt lat="45.41935306787314" lon="10.484018564340104"><ele>128.0</ele><time>2026-03-28T08:31:17.999Z</time></trkpt><trkpt lat="45.41932849335593" lon="10.484155107397335"><ele>128.0</ele><time>2026-03-28T08:31:18.999Z</time></trkpt><trkpt lat="45.41931658242041" lon="10.484296173132801"><ele>128.0</ele><time>2026-03-28T08:31:19.999Z</time></trkpt><trkpt lat="45.41931766838968" lon="10.48441330561739"><ele>127.99999999999999</ele><time>2026-03-28T08:31:20.999Z</time></trkpt><trkpt lat="45.41933274565595" lon="10.484516708420228"><ele>128.0</ele><time>2026-03-28T08:31:21.999Z</time></trkpt><trkpt lat="45.419379330909706" lon="10.48463887501012"><ele>128.0</ele><time>2026-03-28T08:31:22.999Z</time></trkpt><trkpt lat="45.41945742029222" lon="10.484768416156353"><ele>128.0</ele><time>2026-03-28T08:31:23.999Z</time></trkpt><trkpt lat="45.41954247068054" lon="10.484885605994066"><ele>128.0</ele><time>2026-03-28T08:31:24.999Z</time></trkpt><trkpt lat="45.41964970708579" lon="10.48500013811513"><ele>128.0</ele><time>2026-03-28T08:31:25.999Z</time></trkpt><trkpt lat="45.41977101645346" lon="10.485106578081277"><ele>128.0</ele><time>2026-03-28T08:31:26.999Z</time></trkpt><trkpt lat="45.41990298989643" lon="10.485220316034317"><ele>128.0</ele><time>2026-03-28T08:31:27.999Z</time></trkpt><trkpt lat="45.42003848598861" lon="10.485313391487214"><ele>128.0</ele><time>2026-03-28T08:31:28.999Z</time></trkpt><trkpt lat="45.420179639753385" lon="10.48540421882575"><ele>130.75</ele><time>2026-03-28T08:31:29.999Z</time></trkpt><trkpt lat="45.42032720445617" lon="10.485471307290414"><ele>133.5</ele><time>2026-03-28T08:31:30.999Z</time></trkpt><trkpt lat="45.42045167550987" lon="10.48550290060513"><ele>136.25</ele><time>2026-03-28T08:31:31.999Z</time></trkpt><trkpt lat="45.4205671578323" lon="10.485510506544655"><ele>139.0</ele><time>2026-03-28T08:31:32.999Z</time></trkpt><trkpt lat="45.42070524081483" lon="10.48551332318367"><ele>139.0</ele><time>2026-03-28T08:31:33.999Z</time></trkpt><trkpt lat="45.42084749931673" lon="10.485502591031015"><ele>139.0</ele><time>2026-03-28T08:31:34.999Z</time></trkpt><trkpt lat="45.42099972399399" lon="10.485521751886804"><ele>139.0</ele><time>2026-03-28T08:31:35.999Z</time></trkpt><trkpt lat="45.421152667426256" lon="10.485525652100662"><ele>139.0</ele><time>2026-03-28T08:31:36.999Z</time></trkpt><trkpt lat="45.42130654968557" lon="10.485513561668908"><ele>139.25</ele><time>2026-03-28T08:31:37.999Z</time></trkpt><trkpt lat="45.42144650672593" lon="10.485544023802285"><ele>139.5</ele><time>2026-03-28T08:31:38.999Z</time></trkpt><trkpt lat="45.42157860705257" lon="10.485596496344662"><ele>139.75</ele><time>2026-03-28T08:31:39.999Z</time></trkpt><trkpt lat="45.42171040493971" lon="10.485623012580845"><ele>140.0</ele><time>2026-03-28T08:31:40.999Z</time></trkpt><trkpt lat="45.42182334569578" lon="10.485669212070132"><ele>140.0</ele><time>2026-03-28T08:31:41.998Z</time></trkpt><trkpt lat="45.42193943629025" lon="10.485730144171862"><ele>140.0</ele><time>2026-03-28T08:31:42.998Z</time></trkpt><trkpt lat="45.4220385157467" lon="10.485798343269634"><ele>140.0</ele><time>2026-03-28T08:31:43.998Z</time></trkpt><trkpt lat="45.42214406485839" lon="10.485887353235832"><ele>140.0</ele><time>2026-03-28T08:31:44.998Z</time></trkpt><trkpt lat="45.42223323765014" lon="10.485998141407281"><ele>140.5</ele><time>2026-03-28T08:31:45.998Z</time></trkpt><trkpt lat="45.422315451001" lon="10.48613195732037"><ele>141.0</ele><time>2026-03-28T08:31:46.998Z</time></trkpt><trkpt lat="45.422380013528006" lon="10.486302147689148"><ele>141.5</ele><time>2026-03-28T08:31:47.998Z</time></trkpt><trkpt lat="45.422383441995926" lon="10.48646653766497"><ele>142.0</ele><time>2026-03-28T08:31:48.998Z</time></trkpt><trkpt lat="45.42239124063138" lon="10.486650091564595"><ele>142.66666666666669</ele><time>2026-03-28T08:31:49.998Z</time></trkpt><trkpt lat="45.42239425469015" lon="10.486845431831965"><ele>143.33333333333334</ele><time>2026-03-28T08:31:50.998Z</time></trkpt><trkpt lat="45.42238515779202" lon="10.487065671082565"><ele>144.0</ele><time>2026-03-28T08:31:51.998Z</time></trkpt><trkpt lat="45.4223890423306" lon="10.487299511145176"><ele>144.75</ele><time>2026-03-28T08:31:52.998Z</time></trkpt><trkpt lat="45.42236188923774" lon="10.487468428766515"><ele>145.5</ele><time>2026-03-28T08:31:53.998Z</time></trkpt><trkpt lat="45.42237503938087" lon="10.487667809251288"><ele>146.25</ele><time>2026-03-28T08:31:54.998Z</time></trkpt><trkpt lat="45.42241242732559" lon="10.487870787780901"><ele>147.0</ele><time>2026-03-28T08:31:55.998Z</time></trkpt><trkpt lat="45.42247841415462" lon="10.488069735205737"><ele>147.75</ele><time>2026-03-28T08:31:56.998Z</time></trkpt><trkpt lat="45.42258180159249" lon="10.488218292383156"><ele>148.5</ele><time>2026-03-28T08:31:57.998Z</time></trkpt><trkpt lat="45.42268440100713" lon="10.488334597153443"><ele>149.25</ele><time>2026-03-28T08:31:58.998Z</time></trkpt><trkpt lat="45.42280399747759" lon="10.488456992097772"><ele>150.0</ele><time>2026-03-28T08:31:59.998Z</time></trkpt><trkpt lat="45.42298072327682" lon="10.488589035725257"><ele>150.0</ele><time>2026-03-28T08:32:00.998Z</time></trkpt><trkpt lat="45.423143584179364" lon="10.488737592402384"><ele>150.0</ele><time>2026-03-28T08:32:01.998Z</time></trkpt><trkpt lat="45.42328485723879" lon="10.488862084641964"><ele>150.0</ele><time>2026-03-28T08:32:02.998Z</time></trkpt><trkpt lat="45.42342488347003" lon="10.488978579406073"><ele>150.75</ele><time>2026-03-28T08:32:03.998Z</time></trkpt><trkpt lat="45.42355711779806" lon="10.489088545626826"><ele>151.5</ele><time>2026-03-28T08:32:04.998Z</time></trkpt><trkpt lat="45.42367508524647" lon="10.489197030394491"><ele>152.25</ele><time>2026-03-28T08:32:05.998Z</time></trkpt><trkpt lat="45.42378382298973" lon="10.489317438849252"><ele>153.0</ele><time>2026-03-28T08:32:06.998Z</time></trkpt><trkpt lat="45.42388736391437" lon="10.489449311752436"><ele>153.0</ele><time>2026-03-28T08:32:07.998Z</time></trkpt><trkpt lat="45.42398959066881" lon="10.489584795061628"><ele>153.0</ele><time>2026-03-28T08:32:08.998Z</time></trkpt><trkpt lat="45.42410411373292" lon="10.489707656733218"><ele>153.0</ele><time>2026-03-28T08:32:09.998Z</time></trkpt><trkpt lat="45.42421037523045" lon="10.489864106515345"><ele>153.0</ele><time>2026-03-28T08:32:10.998Z</time></trkpt><trkpt lat="45.424317616208015" lon="10.490009924497233"><ele>152.75</ele><time>2026-03-28T08:32:11.998Z</time></trkpt><trkpt lat="45.424418684788776" lon="10.490144834980182"><ele>152.5</ele><time>2026-03-28T08:32:12.998Z</time></trkpt><trkpt lat="45.42452634536617" lon="10.49029408070601"><ele>152.25</ele><time>2026-03-28T08:32:13.998Z</time></trkpt><trkpt lat="45.42464448713576" lon="10.490443942573718"><ele>152.0</ele><time>2026-03-28T08:32:14.998Z</time></trkpt><trkpt lat="45.42477387424646" lon="10.490594537548827"><ele>153.25</ele><time>2026-03-28T08:32:15.998Z</time></trkpt><trkpt lat="45.42489144339975" lon="10.490735010565189"><ele>154.5</ele><time>2026-03-28T08:32:16.998Z</time></trkpt><trkpt lat="45.424948543088924" lon="10.490882917945536"><ele>155.75</ele><time>2026-03-28T08:32:17.998Z</time></trkpt><trkpt lat="45.42499550886708" lon="10.491007622309397"><ele>157.0</ele><time>2026-03-28T08:32:18.998Z</time></trkpt><trkpt lat="45.425014842726455" lon="10.49111753231376"><ele>157.0</ele><time>2026-03-28T08:32:19.998Z</time></trkpt><trkpt lat="45.42502252597153" lon="10.491233036262258"><ele>157.0</ele><time>2026-03-28T08:32:21Z</time></trkpt><trkpt lat="45.42503924254931" lon="10.491341324220535"><ele>157.0</ele><time>2026-03-28T08:32:22Z</time></trkpt><trkpt lat="45.425026001497564" lon="10.4914505886956"><ele>157.0</ele><time>2026-03-28T08:32:23Z</time></trkpt><trkpt lat="45.42501946907789" lon="10.491594064755253"><ele>157.0</ele><time>2026-03-28T08:32:24Z</time></trkpt><trkpt lat="45.425008107301586" lon="10.491730931769814"><ele>157.0</ele><time>2026-03-28T08:32:25Z</time></trkpt><trkpt lat="45.425000016388005" lon="10.491888441418343"><ele>156.2</ele><time>2026-03-28T08:32:26Z</time></trkpt><trkpt lat="45.42500572160309" lon="10.492048240291425"><ele>155.39999999999998</ele><time>2026-03-28T08:32:27Z</time></trkpt><trkpt lat="45.42502169768293" lon="10.49218258103579"><ele>154.60000000000002</ele><time>2026-03-28T08:32:28Z</time></trkpt><trkpt lat="45.425028542964945" lon="10.492304413432391"><ele>153.8</ele><time>2026-03-28T08:32:29Z</time></trkpt><trkpt lat="45.42504223690362" lon="10.492443109820671"><ele>153.0</ele><time>2026-03-28T08:32:30Z</time></trkpt><trkpt lat="45.42505320997866" lon="10.492546486887573"><ele>152.0</ele><time>2026-03-28T08:32:31Z</time></trkpt><trkpt lat="45.425058765066176" lon="10.49266414196548"><ele>151.0</ele><time>2026-03-28T08:32:32Z</time></trkpt><trkpt lat="45.42514536722273" lon="10.492779025872371"><ele>150.0</ele><time>2026-03-28T08:32:33Z</time></trkpt><trkpt lat="45.42521274947422" lon="10.492874993636377"><ele>149.0</ele><time>2026-03-28T08:32:34Z</time></trkpt><trkpt lat="45.425293177229" lon="10.492930696856776"><ele>148.0</ele><time>2026-03-28T08:32:35Z</time></trkpt><trkpt lat="45.42536237087243" lon="10.492948573049077"><ele>147.4</ele><time>2026-03-28T08:32:36Z</time></trkpt><trkpt lat="45.42543062917409" lon="10.493002644403651"><ele>146.8</ele><time>2026-03-28T08:32:37Z</time></trkpt><trkpt lat="45.42551179727706" lon="10.493031923728406"><ele>146.2</ele><time>2026-03-28T08:32:38Z</time></trkpt><trkpt lat="45.42559888184353" lon="10.493119293513798"><ele>145.6</ele><time>2026-03-28T08:32:39Z</time></trkpt><trkpt lat="45.4257047700197" lon="10.49318530175497"><ele>145.0</ele><time>2026-03-28T08:32:40Z</time></trkpt><trkpt lat="45.425824332519475" lon="10.49326122442663"><ele>145.0</ele><time>2026-03-28T08:32:41Z</time></trkpt><trkpt lat="45.425964444552626" lon="10.493349926106028"><ele>145.0</ele><time>2026-03-28T08:32:42Z</time></trkpt><trkpt lat="45.42611712189134" lon="10.49343973864899"><ele>145.0</ele><time>2026-03-28T08:32:43Z</time></trkpt><trkpt lat="45.426286459642135" lon="10.49352869757219"><ele>144.0</ele><time>2026-03-28T08:32:44Z</time></trkpt><trkpt lat="45.42645496639305" lon="10.49363865959132"><ele>143.0</ele><time>2026-03-28T08:32:45Z</time></trkpt><trkpt lat="45.42660687771773" lon="10.493759977774424"><ele>142.0</ele><time>2026-03-28T08:32:46Z</time></trkpt><trkpt lat="45.42673895341832" lon="10.493874712725736"><ele>142.0</ele><time>2026-03-28T08:32:47Z</time></trkpt><trkpt lat="45.42685753030402" lon="10.493988968276694"><ele>142.0</ele><time>2026-03-28T08:32:48Z</time></trkpt><trkpt lat="45.42696617911062" lon="10.494079361934013"><ele>142.0</ele><time>2026-03-28T08:32:49Z</time></trkpt><trkpt lat="45.42704158135012" lon="10.494129009929319"><ele>142.0</ele><time>2026-03-28T08:32:50Z</time></trkpt><trkpt lat="45.4271033411847" lon="10.494146969527709"><ele>142.0</ele><time>2026-03-28T08:32:51Z</time></trkpt><trkpt lat="45.427178570131055" lon="10.494134089582571"><ele>142.75</ele><time>2026-03-28T08:32:52Z</time></trkpt><trkpt lat="45.42726975154698" lon="10.494119865263347"><ele>143.5</ele><time>2026-03-28T08:32:53Z</time></trkpt><trkpt lat="45.42740102768132" lon="10.49409136479117"><ele>144.25</ele><time>2026-03-28T08:32:54Z</time></trkpt><trkpt lat="45.42758464995951" lon="10.494080208606736"><ele>145.0</ele><time>2026-03-28T08:32:55Z</time></trkpt><trkpt lat="45.427722453376646" lon="10.494056431912528"><ele>145.0</ele><time>2026-03-28T08:32:56Z</time></trkpt><trkpt lat="45.42780807311974" lon="10.494057096859455"><ele>145.0</ele><time>2026-03-28T08:32:57Z</time></trkpt><trkpt lat="45.42788214352921" lon="10.49405901635903"><ele>145.0</ele><time>2026-03-28T08:32:58Z</time></trkpt><trkpt lat="45.427958222762854" lon="10.494063591244547"><ele>145.0</ele><time>2026-03-28T08:32:59Z</time></trkpt><trkpt lat="45.42805157214707" lon="10.494067711988722"><ele>145.0</ele><time>2026-03-28T08:33:00Z</time></trkpt><trkpt lat="45.42814905135655" lon="10.494066965152914"><ele>145.0</ele><time>2026-03-28T08:33:01Z</time></trkpt><trkpt lat="45.428250729915106" lon="10.49408244843648"><ele>145.75</ele><time>2026-03-28T08:33:02Z</time></trkpt><trkpt lat="45.428359311701215" lon="10.494125143518133"><ele>146.5</ele><time>2026-03-28T08:33:02.999Z</time></trkpt><trkpt lat="45.42846779194331" lon="10.494190307726376"><ele>147.25</ele><time>2026-03-28T08:33:03.999Z</time></trkpt><trkpt lat="45.42857695307411" lon="10.4942643143662"><ele>148.0</ele><time>2026-03-28T08:33:04.999Z</time></trkpt><trkpt lat="45.42868907653656" lon="10.494333226684029"><ele>148.66666666666669</ele><time>2026-03-28T08:33:05.999Z</time></trkpt><trkpt lat="45.42882561665202" lon="10.494418069016541"><ele>149.33333333333334</ele><time>2026-03-28T08:33:06.999Z</time></trkpt><trkpt lat="45.428991986692694" lon="10.49451902466431"><ele>150.0</ele><time>2026-03-28T08:33:07.999Z</time></trkpt><trkpt lat="45.42917051721633" lon="10.494621699789676"><ele>148.0</ele><time>2026-03-28T08:33:08.999Z</time></trkpt><trkpt lat="45.42936232399053" lon="10.494733662801552"><ele>146.0</ele><time>2026-03-28T08:33:09.999Z</time></trkpt><trkpt lat="45.429546015132374" lon="10.49485217984864"><ele>144.0</ele><time>2026-03-28T08:33:10.999Z</time></trkpt><trkpt lat="45.429722041686176" lon="10.495002765733922"><ele>146.0</ele><time>2026-03-28T08:33:11.999Z</time></trkpt><trkpt lat="45.42989214584623" lon="10.495187687839001"><ele>148.0</ele><time>2026-03-28T08:33:12.999Z</time></trkpt><trkpt lat="45.43003301967498" lon="10.495376336134758"><ele>150.0</ele><time>2026-03-28T08:33:13.999Z</time></trkpt><trkpt lat="45.43014009312272" lon="10.495542711691506"><ele>150.0</ele><time>2026-03-28T08:33:14.999Z</time></trkpt><trkpt lat="45.43022734114206" lon="10.495716996387797"><ele>150.0</ele><time>2026-03-28T08:33:15.999Z</time></trkpt><trkpt lat="45.43031328856006" lon="10.495933930027476"><ele>150.0</ele><time>2026-03-28T08:33:16.999Z</time></trkpt><trkpt lat="45.43039342688403" lon="10.496146257234296"><ele>152.0</ele><time>2026-03-28T08:33:17.999Z</time></trkpt><trkpt lat="45.430481671241225" lon="10.4963257755923"><ele>154.0</ele><time>2026-03-28T08:33:18.999Z</time></trkpt><trkpt lat="45.43058155370473" lon="10.49647689575876"><ele>156.0</ele><time>2026-03-28T08:33:19.999Z</time></trkpt><trkpt lat="45.430686189776495" lon="10.49659640313229"><ele>158.0</ele><time>2026-03-28T08:33:20.999Z</time></trkpt><trkpt lat="45.43080334550783" lon="10.496712719138555"><ele>158.0</ele><time>2026-03-28T08:33:21.999Z</time></trkpt><trkpt lat="45.430912985928245" lon="10.496825314220963"><ele>158.0</ele><time>2026-03-28T08:33:22.999Z</time></trkpt><trkpt lat="45.43103153805362" lon="10.49692883491399"><ele>158.0</ele><time>2026-03-28T08:33:23.999Z</time></trkpt><trkpt lat="45.43115123229662" lon="10.497027965706529"><ele>158.0</ele><time>2026-03-28T08:33:24.999Z</time></trkpt><trkpt lat="45.43125202573312" lon="10.497112983075791"><ele>157.5</ele><time>2026-03-28T08:33:25.999Z</time></trkpt><trkpt lat="45.4313443485943" lon="10.497222210858926"><ele>157.0</ele><time>2026-03-28T08:33:26.999Z</time></trkpt><trkpt lat="45.431469826625694" lon="10.49730371533551"><ele>156.5</ele><time>2026-03-28T08:33:27.999Z</time></trkpt><trkpt lat="45.431485025524886" lon="10.497516247569"><ele>156.0</ele><time>2026-03-28T08:33:28.999Z</time></trkpt><trkpt lat="45.43154063384589" lon="10.497713422012207"><ele>156.0</ele><time>2026-03-28T08:33:29.999Z</time></trkpt><trkpt lat="45.431604916764236" lon="10.497913349896514"><ele>156.0</ele><time>2026-03-28T08:33:30.999Z</time></trkpt><trkpt lat="45.43166473981775" lon="10.498117298683969"><ele>156.0</ele><time>2026-03-28T08:33:31.999Z</time></trkpt><trkpt lat="45.43172288650497" lon="10.498327588131135"><ele>154.5</ele><time>2026-03-28T08:33:32.999Z</time></trkpt><trkpt lat="45.43175244925241" lon="10.49853066238909"><ele>153.0</ele><time>2026-03-28T08:33:33.999Z</time></trkpt><trkpt lat="45.431762296223134" lon="10.498729366450625"><ele>151.5</ele><time>2026-03-28T08:33:34.999Z</time></trkpt><trkpt lat="45.43175022743881" lon="10.498939554192196"><ele>150.0</ele><time>2026-03-28T08:33:35.999Z</time></trkpt><trkpt lat="45.431719796781664" lon="10.499166144936547"><ele>150.0</ele><time>2026-03-28T08:33:36.999Z</time></trkpt><trkpt lat="45.43168029218757" lon="10.499402606972739"><ele>150.0</ele><time>2026-03-28T08:33:37.999Z</time></trkpt><trkpt lat="45.4316232404606" lon="10.499623243753968"><ele>150.0</ele><time>2026-03-28T08:33:38.999Z</time></trkpt><trkpt lat="45.431601512300716" lon="10.499821436680843"><ele>150.0</ele><time>2026-03-28T08:33:39.999Z</time></trkpt><trkpt lat="45.431570570224174" lon="10.500002846389156"><ele>150.0</ele><time>2026-03-28T08:33:40.999Z</time></trkpt><trkpt lat="45.431539614697485" lon="10.500201910646732"><ele>150.0</ele><time>2026-03-28T08:33:41.999Z</time></trkpt><trkpt lat="45.4315031539333" lon="10.500414630681295"><ele>150.0</ele><time>2026-03-28T08:33:42.999Z</time></trkpt><trkpt lat="45.43146652303075" lon="10.500634602259959"><ele>149.33333333333334</ele><time>2026-03-28T08:33:43.999Z</time></trkpt><trkpt lat="45.431401944302394" lon="10.50085548596758"><ele>148.66666666666669</ele><time>2026-03-28T08:33:44.999Z</time></trkpt><trkpt lat="45.43136159163824" lon="10.50109572502471"><ele>148.0</ele><time>2026-03-28T08:33:45.999Z</time></trkpt><trkpt lat="45.43132367021061" lon="10.50132148969126"><ele>147.8</ele><time>2026-03-28T08:33:46.999Z</time></trkpt><trkpt lat="45.43128988243063" lon="10.50151814287543"><ele>147.60000000000002</ele><time>2026-03-28T08:33:47.999Z</time></trkpt><trkpt lat="45.431259111934246" lon="10.501691112430061"><ele>147.39999999999998</ele><time>2026-03-28T08:33:48.999Z</time></trkpt><trkpt lat="45.431231346662045" lon="10.501824372471132"><ele>147.2</ele><time>2026-03-28T08:33:49.999Z</time></trkpt><trkpt lat="45.431207375472745" lon="10.501927999321818"><ele>147.0</ele><time>2026-03-28T08:33:50.999Z</time></trkpt><trkpt lat="45.43117796638008" lon="10.50204890441293"><ele>147.0</ele><time>2026-03-28T08:33:52.998Z</time></trkpt><trkpt lat="45.43110318958709" lon="10.502006293168197"><ele>147.0</ele><time>2026-03-28T08:33:54.998Z</time></trkpt><trkpt lat="45.43100914187264" lon="10.501881609441407"><ele>147.0</ele><time>2026-03-28T08:33:56.998Z</time></trkpt><trkpt lat="45.43090537101527" lon="10.501765012052067"><ele>147.0</ele><time>2026-03-28T08:33:58.998Z</time></trkpt><trkpt lat="45.43082262996078" lon="10.501675787631727"><ele>147.0</ele><time>2026-03-28T08:33:59.998Z</time></trkpt><trkpt lat="45.43071482497524" lon="10.501570193651402"><ele>147.0</ele><time>2026-03-28T08:34:00.998Z</time></trkpt><trkpt lat="45.43059182595214" lon="10.501452822026883"><ele>147.0</ele><time>2026-03-28T08:34:01.998Z</time></trkpt><trkpt lat="45.43046279694782" lon="10.501320504455794"><ele>147.0</ele><time>2026-03-28T08:34:02.998Z</time></trkpt><trkpt lat="45.43032937940435" lon="10.501183686750464"><ele>146.5</ele><time>2026-03-28T08:34:03.998Z</time></trkpt><trkpt lat="45.43020215921335" lon="10.501060753108394"><ele>146.0</ele><time>2026-03-28T08:34:04.998Z</time></trkpt><trkpt lat="45.4300848029557" lon="10.500946458376873"><ele>145.5</ele><time>2026-03-28T08:34:05.998Z</time></trkpt><trkpt lat="45.42999625285629" lon="10.500858335678881"><ele>145.0</ele><time>2026-03-28T08:34:06.998Z</time></trkpt><trkpt lat="45.42991339176196" lon="10.500775874793808"><ele>145.0</ele><time>2026-03-28T08:34:07.998Z</time></trkpt><trkpt lat="45.4298579590022" lon="10.50072217552627"><ele>145.0</ele><time>2026-03-28T08:34:08.998Z</time></trkpt><trkpt lat="45.42980103663881" lon="10.500667058922721"><ele>145.0</ele><time>2026-03-28T08:34:10.998Z</time></trkpt><trkpt lat="45.429673372908084" lon="10.500871764332343"><ele>145.0</ele><time>2026-03-28T08:34:11.998Z</time></trkpt><trkpt lat="45.429620649064596" lon="10.500966977420857"><ele>145.0</ele><time>2026-03-28T08:34:12.998Z</time></trkpt><trkpt lat="45.429561805075004" lon="10.501101270742561"><ele>146.25</ele><time>2026-03-28T08:34:13.998Z</time></trkpt><trkpt lat="45.429472341550365" lon="10.501237585521253"><ele>147.5</ele><time>2026-03-28T08:34:14.998Z</time></trkpt><trkpt lat="45.42938057748838" lon="10.501375727507341"><ele>148.75</ele><time>2026-03-28T08:34:15.998Z</time></trkpt><trkpt lat="45.42928324204568" lon="10.501516638424027"><ele>150.0</ele><time>2026-03-28T08:34:16.998Z</time></trkpt><trkpt lat="45.42920078949149" lon="10.501659671322424"><ele>150.25</ele><time>2026-03-28T08:34:17.998Z</time></trkpt><trkpt lat="45.42912852133788" lon="10.501767269163587"><ele>150.5</ele><time>2026-03-28T08:34:18.998Z</time></trkpt><trkpt lat="45.429065314956055" lon="10.501893089723437"><ele>150.75</ele><time>2026-03-28T08:34:19.998Z</time></trkpt><trkpt lat="45.4290111965791" lon="10.502056850120612"><ele>151.0</ele><time>2026-03-28T08:34:20.998Z</time></trkpt><trkpt lat="45.42896156730843" lon="10.502249505814204"><ele>151.25</ele><time>2026-03-28T08:34:21.998Z</time></trkpt><trkpt lat="45.428904354625196" lon="10.502441055074582"><ele>151.5</ele><time>2026-03-28T08:34:22.998Z</time></trkpt><trkpt lat="45.4288356180926" lon="10.50259696251092"><ele>151.75</ele><time>2026-03-28T08:34:23.998Z</time></trkpt><trkpt lat="45.42877420549276" lon="10.502763860037332"><ele>152.0</ele><time>2026-03-28T08:34:24.998Z</time></trkpt><trkpt lat="45.428727273020996" lon="10.502878176002122"><ele>151.6</ele><time>2026-03-28T08:34:26Z</time></trkpt><trkpt lat="45.42868356341795" lon="10.502997684587124"><ele>151.2</ele><time>2026-03-28T08:34:27Z</time></trkpt><trkpt lat="45.428617320375416" lon="10.503039142916817"><ele>150.8</ele><time>2026-03-28T08:34:28Z</time></trkpt><trkpt lat="45.428551033594424" lon="10.503075683331952"><ele>150.4</ele><time>2026-03-28T08:34:29Z</time></trkpt><trkpt lat="45.42844917247281" lon="10.503135353263591"><ele>150.0</ele><time>2026-03-28T08:34:30Z</time></trkpt><trkpt lat="45.42833340495259" lon="10.503204446804576"><ele>150.0</ele><time>2026-03-28T08:34:31Z</time></trkpt><trkpt lat="45.428263764504756" lon="10.503291538144387"><ele>150.0</ele><time>2026-03-28T08:34:32Z</time></trkpt><trkpt lat="45.42819249783347" lon="10.503398747862882"><ele>150.0</ele><time>2026-03-28T08:34:33Z</time></trkpt><trkpt lat="45.42813280305042" lon="10.503531372896306"><ele>150.0</ele><time>2026-03-28T08:34:34Z</time></trkpt><trkpt lat="45.42807957676945" lon="10.503663435091827"><ele>150.0</ele><time>2026-03-28T08:34:35Z</time></trkpt><trkpt lat="45.42800960244882" lon="10.503745950870927"><ele>147.8</ele><time>2026-03-28T08:34:36Z</time></trkpt><trkpt lat="45.42794607800804" lon="10.503783941964828"><ele>145.6</ele><time>2026-03-28T08:34:37Z</time></trkpt><trkpt lat="45.42787288036455" lon="10.503791222559014"><ele>143.4</ele><time>2026-03-28T08:34:38Z</time></trkpt><trkpt lat="45.427765865608556" lon="10.503836552982786"><ele>141.2</ele><time>2026-03-28T08:34:39Z</time></trkpt><trkpt lat="45.427644893174154" lon="10.503904097411372"><ele>139.0</ele><time>2026-03-28T08:34:40Z</time></trkpt><trkpt lat="45.42753419528653" lon="10.50402750268597"><ele>139.0</ele><time>2026-03-28T08:34:41Z</time></trkpt><trkpt lat="45.42745426455664" lon="10.504093146057631"><ele>139.0</ele><time>2026-03-28T08:34:42Z</time></trkpt><trkpt lat="45.427361042646886" lon="10.504135367807594"><ele>139.0</ele><time>2026-03-28T08:34:43Z</time></trkpt><trkpt lat="45.42724518096484" lon="10.504183296214125"><ele>139.0</ele><time>2026-03-28T08:34:44Z</time></trkpt><trkpt lat="45.427113100306315" lon="10.504185564938602"><ele>139.0</ele><time>2026-03-28T08:34:45Z</time></trkpt><trkpt lat="45.42697124237302" lon="10.504161137495142"><ele>139.25</ele><time>2026-03-28T08:34:46Z</time></trkpt><trkpt lat="45.426820756014614" lon="10.504138662840031"><ele>139.5</ele><time>2026-03-28T08:34:47Z</time></trkpt><trkpt lat="45.42670267359826" lon="10.504106481444603"><ele>139.75</ele><time>2026-03-28T08:34:48Z</time></trkpt><trkpt lat="45.4265877960406" lon="10.504126228659334"><ele>140.0</ele><time>2026-03-28T08:34:49Z</time></trkpt><trkpt lat="45.42648987759425" lon="10.504172552639556"><ele>140.0</ele><time>2026-03-28T08:34:50Z</time></trkpt><trkpt lat="45.42638798064615" lon="10.504268679912064"><ele>140.0</ele><time>2026-03-28T08:34:51Z</time></trkpt><trkpt lat="45.4262488634037" lon="10.504395403737993"><ele>140.0</ele><time>2026-03-28T08:34:52Z</time></trkpt><trkpt lat="45.426099989312135" lon="10.504506825966292"><ele>137.25</ele><time>2026-03-28T08:34:53Z</time></trkpt><trkpt lat="45.425971720953214" lon="10.504627007082656"><ele>134.5</ele><time>2026-03-28T08:34:54Z</time></trkpt><trkpt lat="45.42586348147738" lon="10.504717730915553"><ele>131.75</ele><time>2026-03-28T08:34:55Z</time></trkpt><trkpt lat="45.42576897589252" lon="10.504818861704853"><ele>129.0</ele><time>2026-03-28T08:34:56Z</time></trkpt><trkpt lat="45.42568465347903" lon="10.504883787725857"><ele>129.0</ele><time>2026-03-28T08:34:57Z</time></trkpt><trkpt lat="45.42560809971731" lon="10.504943293267512"><ele>129.0</ele><time>2026-03-28T08:34:58Z</time></trkpt><trkpt lat="45.425574712660676" lon="10.505021945290883"><ele>129.0</ele><time>2026-03-28T08:34:59Z</time></trkpt><trkpt lat="45.42544203852196" lon="10.505000865919977"><ele>129.0</ele><time>2026-03-28T08:35:01Z</time></trkpt><trkpt lat="45.42534264878885" lon="10.504979391950068"><ele>129.0</ele><time>2026-03-28T08:35:02Z</time></trkpt><trkpt lat="45.42522018566175" lon="10.504955525137259"><ele>129.0</ele><time>2026-03-28T08:35:03Z</time></trkpt><trkpt lat="45.42510018939883" lon="10.504936466095183"><ele>129.0</ele><time>2026-03-28T08:35:04Z</time></trkpt><trkpt lat="45.425003333926725" lon="10.504951395912892"><ele>129.0</ele><time>2026-03-28T08:35:04.999Z</time></trkpt><trkpt lat="45.42489641109157" lon="10.504946074414594"><ele>129.0</ele><time>2026-03-28T08:35:05.999Z</time></trkpt><trkpt lat="45.42477712642499" lon="10.504952028489702"><ele>129.0</ele><time>2026-03-28T08:35:06.999Z</time></trkpt><trkpt lat="45.42466421948024" lon="10.504950704244548"><ele>129.0</ele><time>2026-03-28T08:35:07.999Z</time></trkpt><trkpt lat="45.424570931180156" lon="10.50494601923621"><ele>129.0</ele><time>2026-03-28T08:35:08.999Z</time></trkpt><trkpt lat="45.42446741471838" lon="10.504937447331848"><ele>129.0</ele><time>2026-03-28T08:35:09.999Z</time></trkpt><trkpt lat="45.424354501307036" lon="10.504914735386157"><ele>129.0</ele><time>2026-03-28T08:35:10.999Z</time></trkpt><trkpt lat="45.424239939750905" lon="10.50487757060716"><ele>129.0</ele><time>2026-03-28T08:35:11.999Z</time></trkpt><trkpt lat="45.42411862860549" lon="10.50485594687579"><ele>129.0</ele><time>2026-03-28T08:35:12.999Z</time></trkpt><trkpt lat="45.423987857071864" lon="10.50479418873533"><ele>129.0</ele><time>2026-03-28T08:35:13.999Z</time></trkpt><trkpt lat="45.42386151532924" lon="10.504742241456459"><ele>129.0</ele><time>2026-03-28T08:35:14.999Z</time></trkpt><trkpt lat="45.42374096047925" lon="10.504662312963003"><ele>129.0</ele><time>2026-03-28T08:35:15.999Z</time></trkpt><trkpt lat="45.42361343937744" lon="10.504556763334556"><ele>128.33333333333334</ele><time>2026-03-28T08:35:16.999Z</time></trkpt><trkpt lat="45.423470119046584" lon="10.50442613209559"><ele>127.66666666666667</ele><time>2026-03-28T08:35:17.999Z</time></trkpt><trkpt lat="45.423339508651175" lon="10.50429943978552"><ele>127.0</ele><time>2026-03-28T08:35:18.999Z</time></trkpt><trkpt lat="45.42319316408761" lon="10.504173858208024"><ele>127.0</ele><time>2026-03-28T08:35:19.999Z</time></trkpt><trkpt lat="45.42303482324028" lon="10.504101260423134"><ele>127.0</ele><time>2026-03-28T08:35:20.999Z</time></trkpt><trkpt lat="45.42289101982471" lon="10.504016597087125"><ele>127.0</ele><time>2026-03-28T08:35:21.999Z</time></trkpt><trkpt lat="45.42274106331114" lon="10.50390386392496"><ele>127.0</ele><time>2026-03-28T08:35:22.999Z</time></trkpt><trkpt lat="45.42258988468959" lon="10.503817043863888"><ele>127.0</ele><time>2026-03-28T08:35:23.999Z</time></trkpt><trkpt lat="45.42244202729177" lon="10.503741806948899"><ele>127.0</ele><time>2026-03-28T08:35:24.999Z</time></trkpt><trkpt lat="45.422296161653506" lon="10.503683589597253"><ele>126.25</ele><time>2026-03-28T08:35:25.999Z</time></trkpt><trkpt lat="45.42214314451973" lon="10.503622060408084"><ele>125.5</ele><time>2026-03-28T08:35:26.999Z</time></trkpt><trkpt lat="45.421998780818114" lon="10.50356709147422"><ele>124.75</ele><time>2026-03-28T08:35:27.999Z</time></trkpt><trkpt lat="45.4218739590653" lon="10.503521321568135"><ele>124.0</ele><time>2026-03-28T08:35:28.999Z</time></trkpt><trkpt lat="45.42177279746088" lon="10.50347458747766"><ele>124.0</ele><time>2026-03-28T08:35:29.999Z</time></trkpt><trkpt lat="45.4216919383667" lon="10.503410123114811"><ele>124.0</ele><time>2026-03-28T08:35:30.999Z</time></trkpt><trkpt lat="45.42161149368142" lon="10.503315400418268"><ele>124.0</ele><time>2026-03-28T08:35:31.999Z</time></trkpt><trkpt lat="45.42153398005275" lon="10.503221287092764"><ele>124.0</ele><time>2026-03-28T08:35:32.999Z</time></trkpt><trkpt lat="45.42146615329886" lon="10.503138304430916"><ele>124.0</ele><time>2026-03-28T08:35:33.999Z</time></trkpt><trkpt lat="45.42141119731514" lon="10.503075978981245"><ele>124.00000000000001</ele><time>2026-03-28T08:35:34.999Z</time></trkpt><trkpt lat="45.421356543747386" lon="10.503027304253287"><ele>124.0</ele><time>2026-03-28T08:35:35.999Z</time></trkpt><trkpt lat="45.42129436633486" lon="10.503004844849428"><ele>124.0</ele><time>2026-03-28T08:35:36.999Z</time></trkpt><trkpt lat="45.421218383803755" lon="10.503044664859166"><ele>124.0</ele><time>2026-03-28T08:35:37.999Z</time></trkpt><trkpt lat="45.42117748776846" lon="10.503210508093273"><ele>124.00000000000001</ele><time>2026-03-28T08:35:38.999Z</time></trkpt><trkpt lat="45.421144098540076" lon="10.503356366613655"><ele>124.0</ele><time>2026-03-28T08:35:39.999Z</time></trkpt><trkpt lat="45.421118843849484" lon="10.503517949185277"><ele>124.0</ele><time>2026-03-28T08:35:40.999Z</time></trkpt><trkpt lat="45.421087767560415" lon="10.503695405124946"><ele>124.0</ele><time>2026-03-28T08:35:41.999Z</time></trkpt><trkpt lat="45.421025832426196" lon="10.503828834999702"><ele>124.0</ele><time>2026-03-28T08:35:42.999Z</time></trkpt><trkpt lat="45.420978955258285" lon="10.503938905430676"><ele>124.0</ele><time>2026-03-28T08:35:43.999Z</time></trkpt><trkpt lat="45.420926270061805" lon="10.50403510544205"><ele>124.0</ele><time>2026-03-28T08:35:44.999Z</time></trkpt><trkpt lat="45.42087272775353" lon="10.504134585095079"><ele>124.0</ele><time>2026-03-28T08:35:45.999Z</time></trkpt><trkpt lat="45.420816877881165" lon="10.504235012348563"><ele>124.0</ele><time>2026-03-28T08:35:46.999Z</time></trkpt><trkpt lat="45.420773173342205" lon="10.5043362984071"><ele>124.0</ele><time>2026-03-28T08:35:47.999Z</time></trkpt><trkpt lat="45.420741757928425" lon="10.504456547242558"><ele>124.0</ele><time>2026-03-28T08:35:48.999Z</time></trkpt><trkpt lat="45.42072227562389" lon="10.504598253406366"><ele>124.0</ele><time>2026-03-28T08:35:49.999Z</time></trkpt><trkpt lat="45.42070913543221" lon="10.504746162670067"><ele>123.25</ele><time>2026-03-28T08:35:50.999Z</time></trkpt><trkpt lat="45.42069327679874" lon="10.504935057418455"><ele>122.5</ele><time>2026-03-28T08:35:51.999Z</time></trkpt><trkpt lat="45.420672004045294" lon="10.50507946003274"><ele>121.75</ele><time>2026-03-28T08:35:52.998Z</time></trkpt><trkpt lat="45.42064394006303" lon="10.505244408188783"><ele>121.0</ele><time>2026-03-28T08:35:53.998Z</time></trkpt><trkpt lat="45.42061385621397" lon="10.505422550827912"><ele>121.0</ele><time>2026-03-28T08:35:54.998Z</time></trkpt><trkpt lat="45.420588516697876" lon="10.505607364045007"><ele>121.0</ele><time>2026-03-28T08:35:55.998Z</time></trkpt><trkpt lat="45.42056194985729" lon="10.505797290640851"><ele>121.0</ele><time>2026-03-28T08:35:56.998Z</time></trkpt><trkpt lat="45.42053176930441" lon="10.505978530149447"><ele>121.0</ele><time>2026-03-28T08:35:57.998Z</time></trkpt><trkpt lat="45.42050165836632" lon="10.506181538506791"><ele>120.75</ele><time>2026-03-28T08:35:58.998Z</time></trkpt><trkpt lat="45.42048277267296" lon="10.506375967998533"><ele>120.5</ele><time>2026-03-28T08:35:59.998Z</time></trkpt><trkpt lat="45.42047005993917" lon="10.50655685338985"><ele>120.25</ele><time>2026-03-28T08:36:00.998Z</time></trkpt><trkpt lat="45.42045221783376" lon="10.506728018093668"><ele>120.0</ele><time>2026-03-28T08:36:01.998Z</time></trkpt><trkpt lat="45.420433717977005" lon="10.506886220837595"><ele>120.0</ele><time>2026-03-28T08:36:02.998Z</time></trkpt><trkpt lat="45.42042098807539" lon="10.507016644988447"><ele>120.0</ele><time>2026-03-28T08:36:03.998Z</time></trkpt><trkpt lat="45.4204132151279" lon="10.507126876547"><ele>120.0</ele><time>2026-03-28T08:36:04.998Z</time></trkpt><trkpt lat="45.420399351523486" lon="10.50723528720167"><ele>120.0</ele><time>2026-03-28T08:36:05.998Z</time></trkpt><trkpt lat="45.4203944031043" lon="10.50734981295692"><ele>120.0</ele><time>2026-03-28T08:36:06.998Z</time></trkpt><trkpt lat="45.42038421155596" lon="10.507458711523725"><ele>120.0</ele><time>2026-03-28T08:36:07.998Z</time></trkpt><trkpt lat="45.42036615023711" lon="10.507609779101898"><ele>120.0</ele><time>2026-03-28T08:36:09.998Z</time></trkpt><trkpt lat="45.420356563286916" lon="10.507709977827231"><ele>120.0</ele><time>2026-03-28T08:36:11.998Z</time></trkpt><trkpt lat="45.420328923997985" lon="10.507845123435786"><ele>120.0</ele><time>2026-03-28T08:36:14.998Z</time></trkpt><trkpt lat="45.420394708132704" lon="10.507999485440976"><ele>120.0</ele><time>2026-03-28T08:36:15.998Z</time></trkpt><trkpt lat="45.42046428595897" lon="10.508167732665429"><ele>120.0</ele><time>2026-03-28T08:36:16.998Z</time></trkpt><trkpt lat="45.42051774324478" lon="10.508369632242694"><ele>120.0</ele><time>2026-03-28T08:36:17.998Z</time></trkpt><trkpt lat="45.42057220897698" lon="10.5085826637586"><ele>120.0</ele><time>2026-03-28T08:36:18.998Z</time></trkpt><trkpt lat="45.42061855054352" lon="10.508774286674079"><ele>120.0</ele><time>2026-03-28T08:36:19.998Z</time></trkpt><trkpt lat="45.42066507135016" lon="10.508951088070752"><ele>120.0</ele><time>2026-03-28T08:36:20.998Z</time></trkpt><trkpt lat="45.42071151724475" lon="10.509122135214982"><ele>119.5</ele><time>2026-03-28T08:36:21.998Z</time></trkpt><trkpt lat="45.42075432261146" lon="10.509290410793232"><ele>119.0</ele><time>2026-03-28T08:36:22.998Z</time></trkpt><trkpt lat="45.42078801043843" lon="10.50943860210791"><ele>118.5</ele><time>2026-03-28T08:36:23.998Z</time></trkpt><trkpt lat="45.4208359473768" lon="10.509582046193165"><ele>118.0</ele><time>2026-03-28T08:36:24.998Z</time></trkpt><trkpt lat="45.42090644811713" lon="10.509710029001933"><ele>118.0</ele><time>2026-03-28T08:36:25.998Z</time></trkpt><trkpt lat="45.42099116002235" lon="10.509828336227391"><ele>118.00000000000001</ele><time>2026-03-28T08:36:26.998Z</time></trkpt><trkpt lat="45.42107984098923" lon="10.509941256540023"><ele>118.00000000000001</ele><time>2026-03-28T08:36:27.998Z</time></trkpt><trkpt lat="45.42117062144124" lon="10.51003668068723"><ele>118.0</ele><time>2026-03-28T08:36:28.998Z</time></trkpt><trkpt lat="45.421249568697874" lon="10.510121819568965"><ele>118.0</ele><time>2026-03-28T08:36:29.998Z</time></trkpt><trkpt lat="45.42130693900634" lon="10.510207002504611"><ele>118.16666666666667</ele><time>2026-03-28T08:36:30.998Z</time></trkpt><trkpt lat="45.42133158618362" lon="10.510295834160322"><ele>118.33333333333334</ele><time>2026-03-28T08:36:32Z</time></trkpt><trkpt lat="45.42129786058085" lon="10.510430816746313"><ele>118.5</ele><time>2026-03-28T08:36:34Z</time></trkpt><trkpt lat="45.421241131684994" lon="10.510493829810407"><ele>118.66666666666666</ele><time>2026-03-28T08:36:35Z</time></trkpt><trkpt lat="45.421169018434036" lon="10.510530912833294"><ele>118.83333333333333</ele><time>2026-03-28T08:36:36Z</time></trkpt><trkpt lat="45.42107812140013" lon="10.510538886032295"><ele>119.0</ele><time>2026-03-28T08:36:37Z</time></trkpt><trkpt lat="45.42097329482028" lon="10.510562742081348"><ele>119.75</ele><time>2026-03-28T08:36:38Z</time></trkpt><trkpt lat="45.42087054414894" lon="10.510625075832026"><ele>120.5</ele><time>2026-03-28T08:36:39Z</time></trkpt><trkpt lat="45.42077651972441" lon="10.510717180494597"><ele>121.25</ele><time>2026-03-28T08:36:40Z</time></trkpt><trkpt lat="45.42069828862279" lon="10.510850191145467"><ele>122.0</ele><time>2026-03-28T08:36:41Z</time></trkpt><trkpt lat="45.420634645197765" lon="10.511004637182422"><ele>122.0</ele><time>2026-03-28T08:36:42Z</time></trkpt><trkpt lat="45.42060581786497" lon="10.511157782614884"><ele>122.0</ele><time>2026-03-28T08:36:43Z</time></trkpt><trkpt lat="45.420611367684224" lon="10.511320559839122"><ele>122.0</ele><time>2026-03-28T08:36:44Z</time></trkpt><trkpt lat="45.42062960303176" lon="10.511489204396144"><ele>122.0</ele><time>2026-03-28T08:36:45Z</time></trkpt><trkpt lat="45.42067323602423" lon="10.511647850320102"><ele>121.8</ele><time>2026-03-28T08:36:46Z</time></trkpt><trkpt lat="45.4207331240692" lon="10.511802613093016"><ele>121.6</ele><time>2026-03-28T08:36:47Z</time></trkpt><trkpt lat="45.42081084287464" lon="10.511939377065465"><ele>121.39999999999999</ele><time>2026-03-28T08:36:48Z</time></trkpt><trkpt lat="45.42083850016761" lon="10.512087567461089"><ele>121.19999999999999</ele><time>2026-03-28T08:36:49Z</time></trkpt><trkpt lat="45.42085238833033" lon="10.512197022660846"><ele>121.0</ele><time>2026-03-28T08:36:50Z</time></trkpt><trkpt lat="45.4207641284596" lon="10.51227738503134"><ele>121.0</ele><time>2026-03-28T08:36:51Z</time></trkpt><trkpt lat="45.42067096171279" lon="10.512290965300524"><ele>121.0</ele><time>2026-03-28T08:36:53Z</time></trkpt><trkpt lat="45.4205793971349" lon="10.512287040879913"><ele>121.0</ele><time>2026-03-28T08:36:54Z</time></trkpt><trkpt lat="45.420462136237305" lon="10.512295645411223"><ele>121.0</ele><time>2026-03-28T08:36:55Z</time></trkpt><trkpt lat="45.420342651931705" lon="10.512356056656904"><ele>121.0</ele><time>2026-03-28T08:36:56Z</time></trkpt><trkpt lat="45.42021084387057" lon="10.512417380181029"><ele>121.0</ele><time>2026-03-28T08:36:57Z</time></trkpt><trkpt lat="45.420063755847295" lon="10.512484536548532"><ele>121.0</ele><time>2026-03-28T08:36:58Z</time></trkpt><trkpt lat="45.419898672259286" lon="10.512557355435941"><ele>121.0</ele><time>2026-03-28T08:36:59Z</time></trkpt><trkpt lat="45.41972947791071" lon="10.512623941530833"><ele>121.33333333333334</ele><time>2026-03-28T08:37:00Z</time></trkpt><trkpt lat="45.41956438000806" lon="10.512671910638613"><ele>121.66666666666666</ele><time>2026-03-28T08:37:01Z</time></trkpt><trkpt lat="45.419382755033105" lon="10.512704105284786"><ele>122.0</ele><time>2026-03-28T08:37:02Z</time></trkpt><trkpt lat="45.41920693006357" lon="10.512720044300329"><ele>122.0</ele><time>2026-03-28T08:37:03Z</time></trkpt><trkpt lat="45.41901919524115" lon="10.512733320051021"><ele>122.0</ele><time>2026-03-28T08:37:04Z</time></trkpt><trkpt lat="45.41881702162792" lon="10.512745727444775"><ele>122.0</ele><time>2026-03-28T08:37:05Z</time></trkpt><trkpt lat="45.41862454727197" lon="10.512756774249329"><ele>120.33333333333333</ele><time>2026-03-28T08:37:05.999Z</time></trkpt><trkpt lat="45.41843037449006" lon="10.512768569787713"><ele>118.66666666666666</ele><time>2026-03-28T08:37:06.999Z</time></trkpt><trkpt lat="45.41822611058706" lon="10.512781873007153"><ele>117.0</ele><time>2026-03-28T08:37:07.999Z</time></trkpt><trkpt lat="45.418031111181214" lon="10.512795363961423"><ele>116.33333333333334</ele><time>2026-03-28T08:37:08.999Z</time></trkpt><trkpt lat="45.41783264403368" lon="10.512812489844748"><ele>115.66666666666667</ele><time>2026-03-28T08:37:09.999Z</time></trkpt><trkpt lat="45.41763463531062" lon="10.512831725109056"><ele>115.0</ele><time>2026-03-28T08:37:10.999Z</time></trkpt><trkpt lat="45.41742924494359" lon="10.512846459802645"><ele>115.0</ele><time>2026-03-28T08:37:11.999Z</time></trkpt><trkpt lat="45.417226147713095" lon="10.512861029994848"><ele>115.0</ele><time>2026-03-28T08:37:12.999Z</time></trkpt><trkpt lat="45.41702847821792" lon="10.51287521080546"><ele>115.0</ele><time>2026-03-28T08:37:13.999Z</time></trkpt><trkpt lat="45.41682740560114" lon="10.512889635742836"><ele>115.33333333333334</ele><time>2026-03-28T08:37:14.999Z</time></trkpt><trkpt lat="45.41661882697589" lon="10.512904745888589"><ele>115.66666666666666</ele><time>2026-03-28T08:37:15.999Z</time></trkpt><trkpt lat="45.41642852375986" lon="10.512921263122612"><ele>116.0</ele><time>2026-03-28T08:37:16.999Z</time></trkpt><trkpt lat="45.41624179980868" lon="10.512937469721246"><ele>116.0</ele><time>2026-03-28T08:37:17.999Z</time></trkpt><trkpt lat="45.41605718125799" lon="10.51294963301241"><ele>116.0</ele><time>2026-03-28T08:37:18.999Z</time></trkpt><trkpt lat="45.41587443765292" lon="10.512964573122028"><ele>116.0</ele><time>2026-03-28T08:37:19.999Z</time></trkpt><trkpt lat="45.41569804853152" lon="10.51297039558959"><ele>116.0</ele><time>2026-03-28T08:37:20.999Z</time></trkpt><trkpt lat="45.41552018240067" lon="10.512960612007086"><ele>116.0</ele><time>2026-03-28T08:37:21.999Z</time></trkpt><trkpt lat="45.415363775558134" lon="10.512925818175141"><ele>116.0</ele><time>2026-03-28T08:37:22.999Z</time></trkpt><trkpt lat="45.41522011224231" lon="10.512893504561603"><ele>115.8</ele><time>2026-03-28T08:37:23.999Z</time></trkpt><trkpt lat="45.41510331862194" lon="10.512864385940087"><ele>115.6</ele><time>2026-03-28T08:37:24.999Z</time></trkpt><trkpt lat="45.41501612029958" lon="10.512857585086767"><ele>115.4</ele><time>2026-03-28T08:37:25.999Z</time></trkpt><trkpt lat="45.414962170061784" lon="10.512986553823673"><ele>115.2</ele><time>2026-03-28T08:37:29.999Z</time></trkpt><trkpt lat="45.414957899037816" lon="10.513101882428721"><ele>115.0</ele><time>2026-03-28T08:37:32.999Z</time></trkpt><trkpt lat="45.41494491368843" lon="10.513192345865564"><ele>115.2</ele><time>2026-03-28T08:37:34.999Z</time></trkpt><trkpt lat="45.414938094738815" lon="10.513288292507633"><ele>115.4</ele><time>2026-03-28T08:37:35.999Z</time></trkpt><trkpt lat="45.41492981179878" lon="10.513422367883802"><ele>115.6</ele><time>2026-03-28T08:37:36.999Z</time></trkpt><trkpt lat="45.41492167976995" lon="10.513584118959685"><ele>115.8</ele><time>2026-03-28T08:37:37.999Z</time></trkpt><trkpt lat="45.41492521242744" lon="10.51373186857353"><ele>116.0</ele><time>2026-03-28T08:37:38.999Z</time></trkpt><trkpt lat="45.41492359865433" lon="10.513858367352338"><ele>116.0</ele><time>2026-03-28T08:37:39.999Z</time></trkpt><trkpt lat="45.41489207954695" lon="10.513946293740155"><ele>116.0</ele><time>2026-03-28T08:37:40.999Z</time></trkpt><trkpt lat="45.41478870506145" lon="10.513994744760977"><ele>116.0</ele><time>2026-03-28T08:37:42.999Z</time></trkpt><trkpt lat="45.41471049141336" lon="10.513982300229367"><ele>116.0</ele><time>2026-03-28T08:37:43.999Z</time></trkpt><trkpt lat="45.414604112080404" lon="10.513963072379456"><ele>116.0</ele><time>2026-03-28T08:37:44.999Z</time></trkpt><trkpt lat="45.414474521205655" lon="10.513957697448582"><ele>116.0</ele><time>2026-03-28T08:37:45.999Z</time></trkpt><trkpt lat="45.41432590597241" lon="10.513966507630055"><ele>116.0</ele><time>2026-03-28T08:37:46.999Z</time></trkpt><trkpt lat="45.41419434522756" lon="10.514013459920903"><ele>116.0</ele><time>2026-03-28T08:37:47.999Z</time></trkpt><trkpt lat="45.41407762578015" lon="10.514090602264949"><ele>116.0</ele><time>2026-03-28T08:37:48.999Z</time></trkpt><trkpt lat="45.4139565458924" lon="10.514177781926758"><ele>116.0</ele><time>2026-03-28T08:37:49.999Z</time></trkpt><trkpt lat="45.41383139596242" lon="10.514218014362442"><ele>116.0</ele><time>2026-03-28T08:37:50.999Z</time></trkpt><trkpt lat="45.41369941667735" lon="10.514258049366923"><ele>116.0</ele><time>2026-03-28T08:37:51.999Z</time></trkpt><trkpt lat="45.413573959128854" lon="10.514313240447189"><ele>116.0</ele><time>2026-03-28T08:37:52.998Z</time></trkpt><trkpt lat="45.413482327500624" lon="10.51438708126411"><ele>116.0</ele><time>2026-03-28T08:37:53.998Z</time></trkpt><trkpt lat="45.413418412878634" lon="10.51450988890989"><ele>116.0</ele><time>2026-03-28T08:37:54.998Z</time></trkpt><trkpt lat="45.41336528170336" lon="10.514629229726287"><ele>116.0</ele><time>2026-03-28T08:37:55.998Z</time></trkpt><trkpt lat="45.41333134661518" lon="10.514775000375524"><ele>116.0</ele><time>2026-03-28T08:37:56.998Z</time></trkpt><trkpt lat="45.41330790629523" lon="10.51494767418529"><ele>116.0</ele><time>2026-03-28T08:37:57.998Z</time></trkpt><trkpt lat="45.41327299545518" lon="10.51516761108661"><ele>116.0</ele><time>2026-03-28T08:37:58.998Z</time></trkpt><trkpt lat="45.413212721516565" lon="10.515423184391501"><ele>116.0</ele><time>2026-03-28T08:37:59.998Z</time></trkpt><trkpt lat="45.413136254022234" lon="10.515698771869879"><ele>116.0</ele><time>2026-03-28T08:38:00.998Z</time></trkpt><trkpt lat="45.413044912759325" lon="10.515986697256317"><ele>115.33333333333333</ele><time>2026-03-28T08:38:01.998Z</time></trkpt><trkpt lat="45.412946079910704" lon="10.516261277909193"><ele>114.66666666666666</ele><time>2026-03-28T08:38:02.998Z</time></trkpt><trkpt lat="45.412843687633085" lon="10.516542716475062"><ele>114.0</ele><time>2026-03-28T08:38:03.998Z</time></trkpt><trkpt lat="45.412756339433244" lon="10.516784823090159"><ele>114.0</ele><time>2026-03-28T08:38:04.998Z</time></trkpt><trkpt lat="45.41268120666514" lon="10.517030578989164"><ele>114.0</ele><time>2026-03-28T08:38:05.998Z</time></trkpt><trkpt lat="45.4126143337402" lon="10.517244130517668"><ele>114.0</ele><time>2026-03-28T08:38:06.998Z</time></trkpt><trkpt lat="45.41255453925743" lon="10.517415809280843"><ele>114.0</ele><time>2026-03-28T08:38:07.998Z</time></trkpt><trkpt lat="45.41246176615971" lon="10.51753280662509"><ele>114.0</ele><time>2026-03-28T08:38:08.998Z</time></trkpt><trkpt lat="45.41236868678345" lon="10.517652303480395"><ele>114.0</ele><time>2026-03-28T08:38:09.998Z</time></trkpt><trkpt lat="45.41226501382884" lon="10.517773049196167"><ele>114.0</ele><time>2026-03-28T08:38:10.998Z</time></trkpt><trkpt lat="45.412168407636855" lon="10.517884866137397"><ele>115.25</ele><time>2026-03-28T08:38:11.998Z</time></trkpt><trkpt lat="45.412076927370165" lon="10.51799075005642"><ele>116.5</ele><time>2026-03-28T08:38:12.998Z</time></trkpt><trkpt lat="45.411981715494086" lon="10.518103849886032"><ele>117.75</ele><time>2026-03-28T08:38:13.998Z</time></trkpt><trkpt lat="45.41189930702877" lon="10.518243906227616"><ele>119.0</ele><time>2026-03-28T08:38:14.998Z</time></trkpt><trkpt lat="45.41181158158066" lon="10.518391972119185"><ele>119.0</ele><time>2026-03-28T08:38:15.998Z</time></trkpt><trkpt lat="45.411734322489046" lon="10.518558831733777"><ele>119.0</ele><time>2026-03-28T08:38:16.998Z</time></trkpt><trkpt lat="45.41166310680268" lon="10.51872172654829"><ele>119.0</ele><time>2026-03-28T08:38:17.998Z</time></trkpt><trkpt lat="45.41156504755614" lon="10.518852998107121"><ele>119.0</ele><time>2026-03-28T08:38:18.998Z</time></trkpt><trkpt lat="45.41148386661729" lon="10.51898114248623"><ele>119.0</ele><time>2026-03-28T08:38:19.998Z</time></trkpt><trkpt lat="45.41141197643043" lon="10.519102900461618"><ele>119.0</ele><time>2026-03-28T08:38:20.998Z</time></trkpt><trkpt lat="45.41135788178332" lon="10.519214081554859"><ele>119.0</ele><time>2026-03-28T08:38:21.998Z</time></trkpt><trkpt lat="45.41132303008975" lon="10.519314910086136"><ele>119.0</ele><time>2026-03-28T08:38:22.998Z</time></trkpt><trkpt lat="45.41136121416446" lon="10.519423519492982"><ele>119.0</ele><time>2026-03-28T08:38:23.998Z</time></trkpt><trkpt lat="45.41146400884322" lon="10.519541242589211"><ele>118.6</ele><time>2026-03-28T08:38:25.998Z</time></trkpt><trkpt lat="45.41153316208887" lon="10.51965480843712"><ele>118.2</ele><time>2026-03-28T08:38:26.998Z</time></trkpt><trkpt lat="45.41157633186313" lon="10.519782665726048"><ele>117.79999999999998</ele><time>2026-03-28T08:38:27.998Z</time></trkpt><trkpt lat="45.4115893328173" lon="10.5199432006033"><ele>117.39999999999999</ele><time>2026-03-28T08:38:28.998Z</time></trkpt><trkpt lat="45.41157617427594" lon="10.520117617512442"><ele>117.0</ele><time>2026-03-28T08:38:29.998Z</time></trkpt><trkpt lat="45.41156014100594" lon="10.520337353955803"><ele>116.75</ele><time>2026-03-28T08:38:30.998Z</time></trkpt><trkpt lat="45.41154880677329" lon="10.520555108901073"><ele>116.5</ele><time>2026-03-28T08:38:31.998Z</time></trkpt><trkpt lat="45.4115519703071" lon="10.520725170392465"><ele>116.25</ele><time>2026-03-28T08:38:32.998Z</time></trkpt><trkpt lat="45.41156990832335" lon="10.520856027048902"><ele>116.0</ele><time>2026-03-28T08:38:33.998Z</time></trkpt><trkpt lat="45.41161544264159" lon="10.520960817144699"><ele>116.0</ele><time>2026-03-28T08:38:34.998Z</time></trkpt><trkpt lat="45.411689850369484" lon="10.521063561209177"><ele>116.0</ele><time>2026-03-28T08:38:35.998Z</time></trkpt><trkpt lat="45.411780630619006" lon="10.521129814539396"><ele>116.0</ele><time>2026-03-28T08:38:36.998Z</time></trkpt><trkpt lat="45.411903853593515" lon="10.521193897797419"><ele>116.0</ele><time>2026-03-28T08:38:38Z</time></trkpt><trkpt lat="45.41203313516086" lon="10.521261810921024"><ele>116.19999999999999</ele><time>2026-03-28T08:38:39Z</time></trkpt><trkpt lat="45.41211103909213" lon="10.521337818685042"><ele>116.39999999999999</ele><time>2026-03-28T08:38:40Z</time></trkpt><trkpt lat="45.41215530443599" lon="10.5214408398006"><ele>116.6</ele><time>2026-03-28T08:38:41Z</time></trkpt><trkpt lat="45.41217782525069" lon="10.52156654085285"><ele>116.8</ele><time>2026-03-28T08:38:42Z</time></trkpt><trkpt lat="45.412166775605286" lon="10.52170739623767"><ele>117.0</ele><time>2026-03-28T08:38:43Z</time></trkpt><trkpt lat="45.41212696006419" lon="10.5218889850583"><ele>117.0</ele><time>2026-03-28T08:38:44Z</time></trkpt><trkpt lat="45.412078547286384" lon="10.52205129683888"><ele>116.99999999999999</ele><time>2026-03-28T08:38:45Z</time></trkpt><trkpt lat="45.412022376294246" lon="10.522145996941486"><ele>116.99999999999999</ele><time>2026-03-28T08:38:46Z</time></trkpt><trkpt lat="45.411987263855714" lon="10.522233564989204"><ele>117.0</ele><time>2026-03-28T08:38:48Z</time></trkpt><trkpt lat="45.41212795378666" lon="10.522311750559215"><ele>117.0</ele><time>2026-03-28T08:38:49Z</time></trkpt><trkpt lat="45.41220151439838" lon="10.5223538739755"><ele>117.75</ele><time>2026-03-28T08:38:50Z</time></trkpt><trkpt lat="45.41231330379486" lon="10.522419982970138"><ele>118.5</ele><time>2026-03-28T08:38:51Z</time></trkpt><trkpt lat="45.41245540736009" lon="10.522476747726204"><ele>119.25</ele><time>2026-03-28T08:38:52Z</time></trkpt><trkpt lat="45.41260536742998" lon="10.522562218989393"><ele>120.0</ele><time>2026-03-28T08:38:53Z</time></trkpt><trkpt lat="45.41276851590344" lon="10.522649465339503"><ele>120.0</ele><time>2026-03-28T08:38:54Z</time></trkpt><trkpt lat="45.41293767619367" lon="10.522738520277901"><ele>120.0</ele><time>2026-03-28T08:38:55Z</time></trkpt><trkpt lat="45.41309936788622" lon="10.522819320917545"><ele>120.0</ele><time>2026-03-28T08:38:56Z</time></trkpt><trkpt lat="45.4132477044039" lon="10.52289217731719"><ele>119.5</ele><time>2026-03-28T08:38:57Z</time></trkpt><trkpt lat="45.41337731000013" lon="10.522960104772679"><ele>119.0</ele><time>2026-03-28T08:38:58Z</time></trkpt><trkpt lat="45.413501826616525" lon="10.52300359622257"><ele>118.5</ele><time>2026-03-28T08:38:59Z</time></trkpt><trkpt lat="45.41364076058253" lon="10.523041550893415"><ele>118.0</ele><time>2026-03-28T08:39:00Z</time></trkpt><trkpt lat="45.4137852085057" lon="10.523056440670912"><ele>117.4</ele><time>2026-03-28T08:39:01Z</time></trkpt><trkpt lat="45.41390716843353" lon="10.523067801272928"><ele>116.80000000000001</ele><time>2026-03-28T08:39:02Z</time></trkpt><trkpt lat="45.41401568248149" lon="10.523082907653404"><ele>116.2</ele><time>2026-03-28T08:39:03Z</time></trkpt><trkpt lat="45.41410431366683" lon="10.523101445767804"><ele>115.6</ele><time>2026-03-28T08:39:04Z</time></trkpt><trkpt lat="45.414175821456475" lon="10.52314316630731"><ele>115.0</ele><time>2026-03-28T08:39:05Z</time></trkpt><trkpt lat="45.41424540283229" lon="10.52321071181115"><ele>115.0</ele><time>2026-03-28T08:39:07Z</time></trkpt><trkpt lat="45.414231037272046" lon="10.523344901943249"><ele>115.0</ele><time>2026-03-28T08:39:08Z</time></trkpt><trkpt lat="45.41419778295758" lon="10.523490637613154"><ele>115.0</ele><time>2026-03-28T08:39:09Z</time></trkpt><trkpt lat="45.4141463569263" lon="10.523667258317346"><ele>115.0</ele><time>2026-03-28T08:39:10Z</time></trkpt><trkpt lat="45.41409051522606" lon="10.523884878564914"><ele>115.0</ele><time>2026-03-28T08:39:11Z</time></trkpt><trkpt lat="45.414060300299475" lon="10.524051846517281"><ele>115.0</ele><time>2026-03-28T08:39:12Z</time></trkpt><trkpt lat="45.41405206805282" lon="10.524155459902403"><ele>115.0</ele><time>2026-03-28T08:39:13Z</time></trkpt><trkpt lat="45.41410903459888" lon="10.524297819180049"><ele>115.0</ele><time>2026-03-28T08:39:15Z</time></trkpt><trkpt lat="45.41417921702609" lon="10.524371824147837"><ele>115.0</ele><time>2026-03-28T08:39:16Z</time></trkpt><trkpt lat="45.414279428109396" lon="10.524440581079872"><ele>115.0</ele><time>2026-03-28T08:39:16.999Z</time></trkpt><trkpt lat="45.414403386996085" lon="10.524511273791438"><ele>115.0</ele><time>2026-03-28T08:39:17.999Z</time></trkpt><trkpt lat="45.414543944878986" lon="10.524613917646082"><ele>115.0</ele><time>2026-03-28T08:39:18.999Z</time></trkpt><trkpt lat="45.414690934430844" lon="10.524735364924046"><ele>115.33333333333334</ele><time>2026-03-28T08:39:19.999Z</time></trkpt><trkpt lat="45.414852204742104" lon="10.524860788456893"><ele>115.66666666666666</ele><time>2026-03-28T08:39:20.999Z</time></trkpt><trkpt lat="45.41501201044859" lon="10.524999872160368"><ele>116.0</ele><time>2026-03-28T08:39:21.999Z</time></trkpt><trkpt lat="45.41517249953547" lon="10.525151655085482"><ele>116.0</ele><time>2026-03-28T08:39:22.999Z</time></trkpt><trkpt lat="45.41533773951628" lon="10.525314678444898"><ele>116.0</ele><time>2026-03-28T08:39:23.999Z</time></trkpt><trkpt lat="45.41551488837623" lon="10.525486636407527"><ele>116.0</ele><time>2026-03-28T08:39:24.999Z</time></trkpt><trkpt lat="45.41570069775442" lon="10.525668080960427"><ele>115.5</ele><time>2026-03-28T08:39:25.999Z</time></trkpt><trkpt lat="45.41589657511668" lon="10.52585399394361"><ele>115.0</ele><time>2026-03-28T08:39:26.999Z</time></trkpt><trkpt lat="45.41609388829829" lon="10.526032538610783"><ele>115.0</ele><time>2026-03-28T08:39:27.999Z</time></trkpt><trkpt lat="45.41630313539546" lon="10.526211146367025"><ele>115.0</ele><time>2026-03-28T08:39:28.999Z</time></trkpt><trkpt lat="45.416508148633476" lon="10.526376244722522"><ele>114.0</ele><time>2026-03-28T08:39:29.999Z</time></trkpt><trkpt lat="45.41670900855505" lon="10.526532419184383"><ele>113.0</ele><time>2026-03-28T08:39:30.999Z</time></trkpt><trkpt lat="45.416914531802846" lon="10.526678778910588"><ele>113.0</ele><time>2026-03-28T08:39:31.999Z</time></trkpt><trkpt lat="45.41713209322094" lon="10.526830867323227"><ele>113.0</ele><time>2026-03-28T08:39:32.999Z</time></trkpt><trkpt lat="45.41735250768825" lon="10.526971832351979"><ele>113.66666666666666</ele><time>2026-03-28T08:39:33.999Z</time></trkpt><trkpt lat="45.41755104783359" lon="10.527097109790846"><ele>114.33333333333334</ele><time>2026-03-28T08:39:34.999Z</time></trkpt><trkpt lat="45.41772611340087" lon="10.527205090895142"><ele>115.0</ele><time>2026-03-28T08:39:35.999Z</time></trkpt><trkpt lat="45.417870809885514" lon="10.52729353603264"><ele>115.6</ele><time>2026-03-28T08:39:36.999Z</time></trkpt><trkpt lat="45.41798644695465" lon="10.527370985742115"><ele>116.2</ele><time>2026-03-28T08:39:37.999Z</time></trkpt><trkpt lat="45.41808563772613" lon="10.527432134418437"><ele>116.80000000000001</ele><time>2026-03-28T08:39:38.999Z</time></trkpt><trkpt lat="45.41817880389422" lon="10.527489849373215"><ele>117.4</ele><time>2026-03-28T08:39:39.999Z</time></trkpt><trkpt lat="45.418264055908374" lon="10.527545150567496"><ele>118.0</ele><time>2026-03-28T08:39:40.999Z</time></trkpt><trkpt lat="45.41836400723485" lon="10.527609098576663"><ele>118.0</ele><time>2026-03-28T08:39:41.999Z</time></trkpt><trkpt lat="45.41846766236955" lon="10.527671421038397"><ele>118.0</ele><time>2026-03-28T08:39:42.999Z</time></trkpt><trkpt lat="45.41857501455706" lon="10.527736482336303"><ele>118.0</ele><time>2026-03-28T08:39:43.999Z</time></trkpt><trkpt lat="45.418693974238295" lon="10.527809554228435"><ele>118.0</ele><time>2026-03-28T08:39:44.999Z</time></trkpt><trkpt lat="45.41882543914228" lon="10.527895333803245"><ele>118.0</ele><time>2026-03-28T08:39:45.999Z</time></trkpt><trkpt lat="45.41897574700598" lon="10.527983192829936"><ele>118.0</ele><time>2026-03-28T08:39:46.999Z</time></trkpt><trkpt lat="45.41910973801581" lon="10.528082488585289"><ele>118.0</ele><time>2026-03-28T08:39:47.999Z</time></trkpt><trkpt lat="45.419231062146615" lon="10.528195020278895"><ele>118.0</ele><time>2026-03-28T08:39:48.999Z</time></trkpt><trkpt lat="45.41932666375204" lon="10.528338581698058"><ele>118.0</ele><time>2026-03-28T08:39:49.999Z</time></trkpt><trkpt lat="45.4194114663323" lon="10.528455544037138"><ele>118.0</ele><time>2026-03-28T08:39:50.999Z</time></trkpt><trkpt lat="45.41949748198825" lon="10.528535595712611"><ele>118.0</ele><time>2026-03-28T08:39:51.999Z</time></trkpt><trkpt lat="45.41962822891736" lon="10.528613953577294"><ele>118.5</ele><time>2026-03-28T08:39:52.999Z</time></trkpt><trkpt lat="45.4197615355068" lon="10.52869865343592"><ele>119.0</ele><time>2026-03-28T08:39:53.999Z</time></trkpt><trkpt lat="45.419893347837665" lon="10.528803177656009"><ele>119.5</ele><time>2026-03-28T08:39:54.999Z</time></trkpt><trkpt lat="45.420014016967876" lon="10.5289248209586"><ele>120.0</ele><time>2026-03-28T08:39:55.999Z</time></trkpt><trkpt lat="45.420136062523355" lon="10.529079445855047"><ele>120.33333333333334</ele><time>2026-03-28T08:39:56.999Z</time></trkpt><trkpt lat="45.420254873370546" lon="10.529264390124071"><ele>120.66666666666667</ele><time>2026-03-28T08:39:57.999Z</time></trkpt><trkpt lat="45.420358740077404" lon="10.529454183696636"><ele>121.0</ele><time>2026-03-28T08:39:58.999Z</time></trkpt><trkpt lat="45.420457689281555" lon="10.529632645615326"><ele>121.25</ele><time>2026-03-28T08:39:59.999Z</time></trkpt><trkpt lat="45.420542542388866" lon="10.529787153491686"><ele>121.5</ele><time>2026-03-28T08:40:00.999Z</time></trkpt><trkpt lat="45.420627508536995" lon="10.529939197842562"><ele>121.75</ele><time>2026-03-28T08:40:01.999Z</time></trkpt><trkpt lat="45.42071154736388" lon="10.53007099745303"><ele>122.0</ele><time>2026-03-28T08:40:02.999Z</time></trkpt><trkpt lat="45.42078677581399" lon="10.530172935574367"><ele>122.0</ele><time>2026-03-28T08:40:03.999Z</time></trkpt><trkpt lat="45.42086370317436" lon="10.530255953955784"><ele>121.99999999999999</ele><time>2026-03-28T08:40:04.999Z</time></trkpt><trkpt lat="45.42095170103144" lon="10.53033794068532"><ele>121.99999999999999</ele><time>2026-03-28T08:40:05.999Z</time></trkpt><trkpt lat="45.42104878304326" lon="10.530366387440989"><ele>122.0</ele><time>2026-03-28T08:40:06.998Z</time></trkpt><trkpt lat="45.42113923273047" lon="10.53044394634031"><ele>122.0</ele><time>2026-03-28T08:40:07.998Z</time></trkpt><trkpt lat="45.421249083167645" lon="10.530464966939162"><ele>123.5</ele><time>2026-03-28T08:40:08.998Z</time></trkpt><trkpt lat="45.42136749167464" lon="10.53047209349464"><ele>125.0</ele><time>2026-03-28T08:40:09.998Z</time></trkpt><trkpt lat="45.42148621367467" lon="10.53046369322225"><ele>126.5</ele><time>2026-03-28T08:40:10.998Z</time></trkpt><trkpt lat="45.421609438131846" lon="10.53046773697669"><ele>128.0</ele><time>2026-03-28T08:40:11.998Z</time></trkpt><trkpt lat="45.42173228469156" lon="10.530510758508969"><ele>128.0</ele><time>2026-03-28T08:40:12.998Z</time></trkpt><trkpt lat="45.421835993314836" lon="10.530613496772697"><ele>128.0</ele><time>2026-03-28T08:40:13.998Z</time></trkpt><trkpt lat="45.421920976619376" lon="10.530736255224195"><ele>128.0</ele><time>2026-03-28T08:40:14.998Z</time></trkpt><trkpt lat="45.42198794084955" lon="10.530870172503558"><ele>128.0</ele><time>2026-03-28T08:40:15.998Z</time></trkpt><trkpt lat="45.422042164339004" lon="10.53103031095772"><ele>127.99999999999999</ele><time>2026-03-28T08:40:16.998Z</time></trkpt><trkpt lat="45.42207300571448" lon="10.531189957618848"><ele>128.0</ele><time>2026-03-28T08:40:17.998Z</time></trkpt><trkpt lat="45.4220592196192" lon="10.531334710401735"><ele>128.0</ele><time>2026-03-28T08:40:18.998Z</time></trkpt><trkpt lat="45.42206730006926" lon="10.531449338709892"><ele>128.0</ele><time>2026-03-28T08:40:19.998Z</time></trkpt><trkpt lat="45.422063276770295" lon="10.531554760369879"><ele>127.99999999999999</ele><time>2026-03-28T08:40:20.998Z</time></trkpt><trkpt lat="45.422099443184" lon="10.531630492241108"><ele>128.0</ele><time>2026-03-28T08:40:21.998Z</time></trkpt><trkpt lat="45.422055253410456" lon="10.531750999394857"><ele>129.0</ele><time>2026-03-28T08:40:22.998Z</time></trkpt><trkpt lat="45.422034155832655" lon="10.531854508971954"><ele>130.0</ele><time>2026-03-28T08:40:23.998Z</time></trkpt><trkpt lat="45.421997566867326" lon="10.531976205861797"><ele>131.0</ele><time>2026-03-28T08:40:24.998Z</time></trkpt><trkpt lat="45.42194421952008" lon="10.532101021432656"><ele>132.0</ele><time>2026-03-28T08:40:25.998Z</time></trkpt><trkpt lat="45.42188462543705" lon="10.532235019909773"><ele>133.0</ele><time>2026-03-28T08:40:26.998Z</time></trkpt><trkpt lat="45.42181874962439" lon="10.532378365446517"><ele>134.0</ele><time>2026-03-28T08:40:27.998Z</time></trkpt><trkpt lat="45.421735205688464" lon="10.532486631147279"><ele>135.0</ele><time>2026-03-28T08:40:28.998Z</time></trkpt><trkpt lat="45.42167273547657" lon="10.532603183044161"><ele>136.0</ele><time>2026-03-28T08:40:29.998Z</time></trkpt><trkpt lat="45.42156052878928" lon="10.532684951531712"><ele>137.0</ele><time>2026-03-28T08:40:30.998Z</time></trkpt><trkpt lat="45.42144098120941" lon="10.532775939505589"><ele>137.25</ele><time>2026-03-28T08:40:31.998Z</time></trkpt><trkpt lat="45.421313718987385" lon="10.532842093686929"><ele>137.5</ele><time>2026-03-28T08:40:32.998Z</time></trkpt><trkpt lat="45.42117769615531" lon="10.53289726709482"><ele>137.75</ele><time>2026-03-28T08:40:33.998Z</time></trkpt><trkpt lat="45.42103320380892" lon="10.532959208277932"><ele>138.0</ele><time>2026-03-28T08:40:34.998Z</time></trkpt><trkpt lat="45.42087257010004" lon="10.533033923194122"><ele>138.0</ele><time>2026-03-28T08:40:35.998Z</time></trkpt><trkpt lat="45.42071032208566" lon="10.533119086441062"><ele>138.0</ele><time>2026-03-28T08:40:36.998Z</time></trkpt><trkpt lat="45.42056317058429" lon="10.533243067382381"><ele>138.0</ele><time>2026-03-28T08:40:37.998Z</time></trkpt><trkpt lat="45.42040341232149" lon="10.533343571044838"><ele>135.33333333333334</ele><time>2026-03-28T08:40:38.998Z</time></trkpt><trkpt lat="45.42024513262279" lon="10.533452115074699"><ele>132.66666666666669</ele><time>2026-03-28T08:40:39.998Z</time></trkpt><trkpt lat="45.42008547664779" lon="10.533567948997339"><ele>130.0</ele><time>2026-03-28T08:40:40.998Z</time></trkpt><trkpt lat="45.41991806761369" lon="10.533656520481728"><ele>130.66666666666669</ele><time>2026-03-28T08:40:41.998Z</time></trkpt><trkpt lat="45.41975148953639" lon="10.533801824312345"><ele>131.33333333333334</ele><time>2026-03-28T08:40:42.998Z</time></trkpt><trkpt lat="45.41959776370036" lon="10.533939192294111"><ele>132.0</ele><time>2026-03-28T08:40:44Z</time></trkpt><trkpt lat="45.41945163533605" lon="10.534069799376798"><ele>132.0</ele><time>2026-03-28T08:40:45Z</time></trkpt><trkpt lat="45.41929904400306" lon="10.534207619111987"><ele>132.0</ele><time>2026-03-28T08:40:46Z</time></trkpt><trkpt lat="45.419145415184246" lon="10.534347322179773"><ele>132.0</ele><time>2026-03-28T08:40:47Z</time></trkpt><trkpt lat="45.419001186841825" lon="10.534471101729547"><ele>131.0</ele><time>2026-03-28T08:40:48Z</time></trkpt><trkpt lat="45.41884557795478" lon="10.534578266804866"><ele>130.0</ele><time>2026-03-28T08:40:49Z</time></trkpt><trkpt lat="45.41870554451436" lon="10.534653077576246"><ele>129.0</ele><time>2026-03-28T08:40:50Z</time></trkpt><trkpt lat="45.41856642345716" lon="10.534712428255885"><ele>129.0</ele><time>2026-03-28T08:40:51Z</time></trkpt><trkpt lat="45.41841765864811" lon="10.534768666144418"><ele>129.0</ele><time>2026-03-28T08:40:52Z</time></trkpt><trkpt lat="45.418257429224106" lon="10.53482891112586"><ele>129.0</ele><time>2026-03-28T08:40:53Z</time></trkpt><trkpt lat="45.41809692978571" lon="10.534889055065271"><ele>128.25</ele><time>2026-03-28T08:40:54Z</time></trkpt><trkpt lat="45.417955444881315" lon="10.534959453807291"><ele>127.5</ele><time>2026-03-28T08:40:55Z</time></trkpt><trkpt lat="45.41783802577048" lon="10.535032009235875"><ele>126.75</ele><time>2026-03-28T08:40:56Z</time></trkpt><trkpt lat="45.41771864664604" lon="10.535127315782747"><ele>126.0</ele><time>2026-03-28T08:40:57Z</time></trkpt><trkpt lat="45.41759633282169" lon="10.535237722089349"><ele>126.66666666666666</ele><time>2026-03-28T08:40:58Z</time></trkpt><trkpt lat="45.417497306092336" lon="10.535422693686955"><ele>127.33333333333333</ele><time>2026-03-28T08:40:59Z</time></trkpt><trkpt lat="45.4173726373544" lon="10.535561182178572"><ele>128.0</ele><time>2026-03-28T08:41:00Z</time></trkpt><trkpt lat="45.41723143810091" lon="10.535669122938295"><ele>127.33333333333333</ele><time>2026-03-28T08:41:01Z</time></trkpt><trkpt lat="45.41707373084907" lon="10.535741951661926"><ele>126.66666666666666</ele><time>2026-03-28T08:41:02Z</time></trkpt><trkpt lat="45.41689788644225" lon="10.53572291764784"><ele>126.0</ele><time>2026-03-28T08:41:03Z</time></trkpt><trkpt lat="45.41674025332279" lon="10.535762693985122"><ele>126.0</ele><time>2026-03-28T08:41:04Z</time></trkpt><trkpt lat="45.4165784438749" lon="10.535796794318784"><ele>126.0</ele><time>2026-03-28T08:41:05Z</time></trkpt><trkpt lat="45.416427013433754" lon="10.535834169718079"><ele>126.0</ele><time>2026-03-28T08:41:06Z</time></trkpt><trkpt lat="45.41629568279263" lon="10.535895634258141"><ele>126.25</ele><time>2026-03-28T08:41:07Z</time></trkpt><trkpt lat="45.41618360018906" lon="10.5359829614592"><ele>126.5</ele><time>2026-03-28T08:41:08Z</time></trkpt><trkpt lat="45.416074655736566" lon="10.536080926788827"><ele>126.75</ele><time>2026-03-28T08:41:09Z</time></trkpt><trkpt lat="45.415959442160975" lon="10.536200734879635"><ele>127.0</ele><time>2026-03-28T08:41:10Z</time></trkpt><trkpt lat="45.41584321113261" lon="10.536331344469586"><ele>127.0</ele><time>2026-03-28T08:41:11Z</time></trkpt><trkpt lat="45.41573875815699" lon="10.53648978328731"><ele>127.0</ele><time>2026-03-28T08:41:12Z</time></trkpt><trkpt lat="45.41562546197717" lon="10.536649765080943"><ele>127.0</ele><time>2026-03-28T08:41:13Z</time></trkpt><trkpt lat="45.41551947819431" lon="10.536820680234841"><ele>126.66666666666667</ele><time>2026-03-28T08:41:14Z</time></trkpt><trkpt lat="45.41542138499013" lon="10.537013062352127"><ele>126.33333333333334</ele><time>2026-03-28T08:41:15Z</time></trkpt><trkpt lat="45.415333259165116" lon="10.537222091089525"><ele>126.0</ele><time>2026-03-28T08:41:16Z</time></trkpt><trkpt lat="45.41522986583561" lon="10.53743135412674"><ele>126.0</ele><time>2026-03-28T08:41:17Z</time></trkpt><trkpt lat="45.4151367929708" lon="10.537639489631706"><ele>126.0</ele><time>2026-03-28T08:41:18Z</time></trkpt><trkpt lat="45.41502994896628" lon="10.537845479804805"><ele>126.0</ele><time>2026-03-28T08:41:19Z</time></trkpt><trkpt lat="45.41490428788448" lon="10.538023585782513"><ele>125.66666666666666</ele><time>2026-03-28T08:41:20Z</time></trkpt><trkpt lat="45.4147623533176" lon="10.538183163167206"><ele>125.33333333333333</ele><time>2026-03-28T08:41:20.999Z</time></trkpt><trkpt lat="45.41461457112069" lon="10.538339487304775"><ele>125.0</ele><time>2026-03-28T08:41:21.999Z</time></trkpt><trkpt lat="45.414457034200026" lon="10.538494395755952"><ele>125.0</ele><time>2026-03-28T08:41:22.999Z</time></trkpt><trkpt lat="45.41429496395727" lon="10.538650551995541"><ele>125.0</ele><time>2026-03-28T08:41:23.999Z</time></trkpt><trkpt lat="45.414133020469386" lon="10.538804947024929"><ele>125.0</ele><time>2026-03-28T08:41:24.999Z</time></trkpt><trkpt lat="45.41397589189203" lon="10.538956478414587"><ele>125.0</ele><time>2026-03-28T08:41:25.999Z</time></trkpt><trkpt lat="45.413823729270604" lon="10.539102571003925"><ele>125.0</ele><time>2026-03-28T08:41:26.999Z</time></trkpt><trkpt lat="45.41367311624426" lon="10.539243173830114"><ele>125.0</ele><time>2026-03-28T08:41:27.999Z</time></trkpt><trkpt lat="45.41352038332943" lon="10.539365400154189"><ele>125.0</ele><time>2026-03-28T08:41:28.999Z</time></trkpt><trkpt lat="45.413356223727924" lon="10.539491698132279"><ele>125.0</ele><time>2026-03-28T08:41:29.999Z</time></trkpt><trkpt lat="45.41320203399283" lon="10.539602181518886"><ele>125.0</ele><time>2026-03-28T08:41:30.999Z</time></trkpt><trkpt lat="45.413063295699104" lon="10.539701309453884"><ele>125.25</ele><time>2026-03-28T08:41:31.999Z</time></trkpt><trkpt lat="45.41292688683967" lon="10.539812273384873"><ele>125.5</ele><time>2026-03-28T08:41:32.999Z</time></trkpt><trkpt lat="45.412819392825725" lon="10.539947079109902"><ele>125.75</ele><time>2026-03-28T08:41:33.999Z</time></trkpt><trkpt lat="45.41271792137096" lon="10.540077059793015"><ele>126.0</ele><time>2026-03-28T08:41:34.999Z</time></trkpt><trkpt lat="45.41263313848763" lon="10.54023273195432"><ele>127.0</ele><time>2026-03-28T08:41:35.999Z</time></trkpt><trkpt lat="45.41255410160541" lon="10.540419361782307"><ele>128.0</ele><time>2026-03-28T08:41:36.999Z</time></trkpt><trkpt lat="45.41247656632439" lon="10.540622773194796"><ele>129.0</ele><time>2026-03-28T08:41:37.999Z</time></trkpt><trkpt lat="45.41237872341681" lon="10.540824244658504"><ele>129.0</ele><time>2026-03-28T08:41:38.999Z</time></trkpt><trkpt lat="45.41229138054241" lon="10.541035136903227"><ele>129.0</ele><time>2026-03-28T08:41:39.999Z</time></trkpt><trkpt lat="45.41218695096901" lon="10.541247258351788"><ele>129.0</ele><time>2026-03-28T08:41:40.999Z</time></trkpt><trkpt lat="45.41206458937494" lon="10.541442023027097"><ele>128.33333333333334</ele><time>2026-03-28T08:41:41.999Z</time></trkpt><trkpt lat="45.41194842647946" lon="10.541635726969519"><ele>127.66666666666667</ele><time>2026-03-28T08:41:42.999Z</time></trkpt><trkpt lat="45.41182837360554" lon="10.541840311603403"><ele>127.0</ele><time>2026-03-28T08:41:43.999Z</time></trkpt><trkpt lat="45.41172502745087" lon="10.542043932996744"><ele>126.66666666666667</ele><time>2026-03-28T08:41:44.999Z</time></trkpt><trkpt lat="45.411619182575144" lon="10.54225937129535"><ele>126.33333333333334</ele><time>2026-03-28T08:41:45.999Z</time></trkpt><trkpt lat="45.41151815454119" lon="10.542471466710397"><ele>126.0</ele><time>2026-03-28T08:41:46.999Z</time></trkpt><trkpt lat="45.411416335769545" lon="10.54268813561024"><ele>124.0</ele><time>2026-03-28T08:41:47.999Z</time></trkpt><trkpt lat="45.41132039155969" lon="10.542898170461493"><ele>122.0</ele><time>2026-03-28T08:41:48.999Z</time></trkpt><trkpt lat="45.41122576957261" lon="10.543110729710069"><ele>120.0</ele><time>2026-03-28T08:41:49.999Z</time></trkpt><trkpt lat="45.41115109390635" lon="10.543321676230153"><ele>120.0</ele><time>2026-03-28T08:41:50.999Z</time></trkpt><trkpt lat="45.41110255658753" lon="10.543530355614756"><ele>120.0</ele><time>2026-03-28T08:41:51.999Z</time></trkpt><trkpt lat="45.41107127497641" lon="10.543738991847038"><ele>120.0</ele><time>2026-03-28T08:41:52.999Z</time></trkpt><trkpt lat="45.41100231961617" lon="10.543916662115578"><ele>120.0</ele><time>2026-03-28T08:41:53.999Z</time></trkpt><trkpt lat="45.41092214711674" lon="10.544077697289522"><ele>120.66666666666666</ele><time>2026-03-28T08:41:54.999Z</time></trkpt><trkpt lat="45.410809903821395" lon="10.544210602340504"><ele>121.33333333333333</ele><time>2026-03-28T08:41:55.999Z</time></trkpt><trkpt lat="45.41069524233639" lon="10.54435460314587"><ele>122.0</ele><time>2026-03-28T08:41:56.999Z</time></trkpt><trkpt lat="45.41056982150767" lon="10.54451123406236"><ele>121.66666666666666</ele><time>2026-03-28T08:41:57.999Z</time></trkpt><trkpt lat="45.41044844676389" lon="10.544661602183764"><ele>121.33333333333334</ele><time>2026-03-28T08:41:58.999Z</time></trkpt><trkpt lat="45.41032846832784" lon="10.544808127704753"><ele>121.0</ele><time>2026-03-28T08:41:59.999Z</time></trkpt><trkpt lat="45.41020183785305" lon="10.544957397947321"><ele>121.0</ele><time>2026-03-28T08:42:00.999Z</time></trkpt><trkpt lat="45.410076818749104" lon="10.545102619119366"><ele>121.0</ele><time>2026-03-28T08:42:01.999Z</time></trkpt><trkpt lat="45.40994535634497" lon="10.54525213993791"><ele>121.0</ele><time>2026-03-28T08:42:02.999Z</time></trkpt><trkpt lat="45.409818988555905" lon="10.545394797328026"><ele>121.33333333333334</ele><time>2026-03-28T08:42:03.999Z</time></trkpt><trkpt lat="45.409689748607896" lon="10.545538875367509"><ele>121.66666666666666</ele><time>2026-03-28T08:42:04.999Z</time></trkpt><trkpt lat="45.409556865485825" lon="10.545664644366633"><ele>122.0</ele><time>2026-03-28T08:42:05.999Z</time></trkpt><trkpt lat="45.40942579112159" lon="10.545763246733364"><ele>120.0</ele><time>2026-03-28T08:42:06.999Z</time></trkpt><trkpt lat="45.40929798358429" lon="10.545824826904266"><ele>118.0</ele><time>2026-03-28T08:42:07.999Z</time></trkpt><trkpt lat="45.409168561269475" lon="10.545864371030133"><ele>116.0</ele><time>2026-03-28T08:42:08.998Z</time></trkpt><trkpt lat="45.40903796194153" lon="10.54589722483687"><ele>114.0</ele><time>2026-03-28T08:42:09.998Z</time></trkpt><trkpt lat="45.408904007420624" lon="10.545930666171369"><ele>113.33333333333334</ele><time>2026-03-28T08:42:10.998Z</time></trkpt><trkpt lat="45.408758182393264" lon="10.545846347847153"><ele>112.66666666666667</ele><time>2026-03-28T08:42:11.998Z</time></trkpt><trkpt lat="45.408604488355294" lon="10.545864597220316"><ele>112.0</ele><time>2026-03-28T08:42:12.998Z</time></trkpt><trkpt lat="45.408444839024384" lon="10.545836309616252"><ele>112.0</ele><time>2026-03-28T08:42:13.998Z</time></trkpt><trkpt lat="45.4082913522386" lon="10.545819936786822"><ele>112.0</ele><time>2026-03-28T08:42:14.998Z</time></trkpt><trkpt lat="45.40815660816804" lon="10.545814623979034"><ele>112.0</ele><time>2026-03-28T08:42:15.998Z</time></trkpt><trkpt lat="45.408026079671416" lon="10.545822532960813"><ele>112.0</ele><time>2026-03-28T08:42:16.998Z</time></trkpt><trkpt lat="45.40787371125394" lon="10.545835007941408"><ele>112.0</ele><time>2026-03-28T08:42:17.998Z</time></trkpt><trkpt lat="45.40769484742362" lon="10.545872707036153"><ele>112.0</ele><time>2026-03-28T08:42:18.998Z</time></trkpt><trkpt lat="45.40750987941745" lon="10.545912494203021"><ele>112.0</ele><time>2026-03-28T08:42:19.998Z</time></trkpt><trkpt lat="45.4073421044535" lon="10.545957583352838"><ele>112.0</ele><time>2026-03-28T08:42:20.998Z</time></trkpt><trkpt lat="45.40722429374604" lon="10.546014059872816"><ele>112.0</ele><time>2026-03-28T08:42:21.998Z</time></trkpt><trkpt lat="45.40712398726077" lon="10.546087277293333"><ele>112.0</ele><time>2026-03-28T08:42:22.998Z</time></trkpt><trkpt lat="45.407021561257366" lon="10.546190820470297"><ele>112.0</ele><time>2026-03-28T08:42:23.998Z</time></trkpt><trkpt lat="45.406907801304385" lon="10.546326225285233"><ele>113.33333333333334</ele><time>2026-03-28T08:42:24.998Z</time></trkpt><trkpt lat="45.40678711243481" lon="10.546484381568305"><ele>114.66666666666666</ele><time>2026-03-28T08:42:25.998Z</time></trkpt><trkpt lat="45.40665547575675" lon="10.54666186433497"><ele>116.0</ele><time>2026-03-28T08:42:26.998Z</time></trkpt><trkpt lat="45.40651255118456" lon="10.546859456694074"><ele>116.0</ele><time>2026-03-28T08:42:27.998Z</time></trkpt><trkpt lat="45.40637346185465" lon="10.547017765081778"><ele>116.0</ele><time>2026-03-28T08:42:28.998Z</time></trkpt><trkpt lat="45.40624691234095" lon="10.547118527697886"><ele>116.0</ele><time>2026-03-28T08:42:29.998Z</time></trkpt><trkpt lat="45.40611162936599" lon="10.54719811811299"><ele>118.0</ele><time>2026-03-28T08:42:30.998Z</time></trkpt><trkpt lat="45.4059656421134" lon="10.547267903925505"><ele>120.0</ele><time>2026-03-28T08:42:31.998Z</time></trkpt><trkpt lat="45.40579615624361" lon="10.547342445667791"><ele>122.0</ele><time>2026-03-28T08:42:32.998Z</time></trkpt><trkpt lat="45.40564732213996" lon="10.54741034518524"><ele>122.0</ele><time>2026-03-28T08:42:33.998Z</time></trkpt><trkpt lat="45.40553217981503" lon="10.54747412938168"><ele>122.0</ele><time>2026-03-28T08:42:34.998Z</time></trkpt><trkpt lat="45.40541763361407" lon="10.547545616940724"><ele>122.0</ele><time>2026-03-28T08:42:35.998Z</time></trkpt><trkpt lat="45.405287715330665" lon="10.547660586704376"><ele>122.0</ele><time>2026-03-28T08:42:36.998Z</time></trkpt><trkpt lat="45.40514157258635" lon="10.547747493525904"><ele>122.33333333333333</ele><time>2026-03-28T08:42:37.998Z</time></trkpt><trkpt lat="45.40500009890088" lon="10.547856459115826"><ele>122.66666666666666</ele><time>2026-03-28T08:42:38.998Z</time></trkpt><trkpt lat="45.40483744906737" lon="10.54798391395197"><ele>123.0</ele><time>2026-03-28T08:42:39.998Z</time></trkpt><trkpt lat="45.404670878811324" lon="10.548118223500868"><ele>121.33333333333334</ele><time>2026-03-28T08:42:40.998Z</time></trkpt><trkpt lat="45.40450397346811" lon="10.548256906959642"><ele>119.66666666666667</ele><time>2026-03-28T08:42:41.998Z</time></trkpt><trkpt lat="45.40433112295067" lon="10.54840817801277"><ele>118.0</ele><time>2026-03-28T08:42:42.998Z</time></trkpt><trkpt lat="45.40417730203262" lon="10.548553148093797"><ele>118.0</ele><time>2026-03-28T08:42:43.998Z</time></trkpt><trkpt lat="45.40406152041755" lon="10.548668580444355"><ele>118.0</ele><time>2026-03-28T08:42:44.998Z</time></trkpt><trkpt lat="45.403962342406295" lon="10.54877653400155"><ele>118.0</ele><time>2026-03-28T08:42:45.998Z</time></trkpt><trkpt lat="45.40386199729308" lon="10.548902524922706"><ele>118.0</ele><time>2026-03-28T08:42:46.998Z</time></trkpt><trkpt lat="45.4037535607227" lon="10.549061257186308"><ele>117.66666666666667</ele><time>2026-03-28T08:42:47.998Z</time></trkpt><trkpt lat="45.40361798121206" lon="10.549215549185671"><ele>117.33333333333334</ele><time>2026-03-28T08:42:48.998Z</time></trkpt><trkpt lat="45.40347761861464" lon="10.549324329802952"><ele>117.0</ele><time>2026-03-28T08:42:50Z</time></trkpt><trkpt lat="45.403348726044726" lon="10.549398456518176"><ele>117.0</ele><time>2026-03-28T08:42:51Z</time></trkpt><trkpt lat="45.40320467591495" lon="10.549459329070352"><ele>117.0</ele><time>2026-03-28T08:42:52Z</time></trkpt><trkpt lat="45.40307979750554" lon="10.549477818824428"><ele>117.0</ele><time>2026-03-28T08:42:53Z</time></trkpt><trkpt lat="45.40296186914769" lon="10.549461625084273"><ele>117.0</ele><time>2026-03-28T08:42:54Z</time></trkpt><trkpt lat="45.40283934481359" lon="10.54942743734308"><ele>117.19999999999999</ele><time>2026-03-28T08:42:55Z</time></trkpt><trkpt lat="45.40273815651011" lon="10.549410892703875"><ele>117.39999999999999</ele><time>2026-03-28T08:42:56Z</time></trkpt><trkpt lat="45.40263293176359" lon="10.5494248216021"><ele>117.60000000000001</ele><time>2026-03-28T08:42:57Z</time></trkpt><trkpt lat="45.40252863950487" lon="10.549461429522571"><ele>117.80000000000001</ele><time>2026-03-28T08:42:58Z</time></trkpt><trkpt lat="45.4024261221487" lon="10.54952472558984"><ele>118.0</ele><time>2026-03-28T08:42:59Z</time></trkpt><trkpt lat="45.402317529300944" lon="10.549632034243578"><ele>118.0</ele><time>2026-03-28T08:43:00Z</time></trkpt><trkpt lat="45.40221646317099" lon="10.549749908507955"><ele>118.0</ele><time>2026-03-28T08:43:01Z</time></trkpt><trkpt lat="45.402114603125156" lon="10.549903995298905"><ele>118.0</ele><time>2026-03-28T08:43:02Z</time></trkpt><trkpt lat="45.40198825036058" lon="10.55004965915995"><ele>118.0</ele><time>2026-03-28T08:43:03Z</time></trkpt><trkpt lat="45.40185582243241" lon="10.550238388413852"><ele>117.66666666666667</ele><time>2026-03-28T08:43:04Z</time></trkpt><trkpt lat="45.40172994840456" lon="10.55044804545045"><ele>117.33333333333334</ele><time>2026-03-28T08:43:05Z</time></trkpt><trkpt lat="45.401584439037336" lon="10.55063732475451"><ele>117.0</ele><time>2026-03-28T08:43:06Z</time></trkpt><trkpt lat="45.401467937461355" lon="10.550780546401963"><ele>117.0</ele><time>2026-03-28T08:43:07Z</time></trkpt><trkpt lat="45.40136406056571" lon="10.550910948332735"><ele>117.0</ele><time>2026-03-28T08:43:08Z</time></trkpt><trkpt lat="45.40125124497684" lon="10.550991747495033"><ele>117.0</ele><time>2026-03-28T08:43:09Z</time></trkpt><trkpt lat="45.40114556213828" lon="10.551039660407561"><ele>117.0</ele><time>2026-03-28T08:43:10Z</time></trkpt><trkpt lat="45.401027687625316" lon="10.551042464861656"><ele>116.5</ele><time>2026-03-28T08:43:11Z</time></trkpt><trkpt lat="45.400891909178775" lon="10.551059676556958"><ele>116.0</ele><time>2026-03-28T08:43:12Z</time></trkpt><trkpt lat="45.40073294595593" lon="10.551072742479354"><ele>115.5</ele><time>2026-03-28T08:43:13Z</time></trkpt><trkpt lat="45.40058389179716" lon="10.551078835591248"><ele>115.0</ele><time>2026-03-28T08:43:14Z</time></trkpt><trkpt lat="45.40046100845054" lon="10.551095134262775"><ele>115.0</ele><time>2026-03-28T08:43:15Z</time></trkpt><trkpt lat="45.40033907476223" lon="10.55114845088267"><ele>115.0</ele><time>2026-03-28T08:43:16Z</time></trkpt><trkpt lat="45.40022610206125" lon="10.551202481828206"><ele>115.0</ele><time>2026-03-28T08:43:17Z</time></trkpt><trkpt lat="45.40010328151121" lon="10.551295562663459"><ele>115.0</ele><time>2026-03-28T08:43:18Z</time></trkpt><trkpt lat="45.399975394264345" lon="10.551386727204616"><ele>115.0</ele><time>2026-03-28T08:43:19Z</time></trkpt><trkpt lat="45.39986361585785" lon="10.551474527565489"><ele>115.0</ele><time>2026-03-28T08:43:20Z</time></trkpt><trkpt lat="45.39977146153143" lon="10.551511528530646"><ele>115.0</ele><time>2026-03-28T08:43:21Z</time></trkpt><trkpt lat="45.3996622370148" lon="10.551525615328583"><ele>115.0</ele><time>2026-03-28T08:43:22Z</time></trkpt><trkpt lat="45.399550850990884" lon="10.551535857168693"><ele>115.0</ele><time>2026-03-28T08:43:23Z</time></trkpt><trkpt lat="45.399421760843374" lon="10.551543551172015"><ele>115.0</ele><time>2026-03-28T08:43:23.999Z</time></trkpt><trkpt lat="45.39927088018455" lon="10.551548190092863"><ele>115.0</ele><time>2026-03-28T08:43:24.999Z</time></trkpt><trkpt lat="45.39914536638129" lon="10.551544914315564"><ele>115.0</ele><time>2026-03-28T08:43:25.999Z</time></trkpt><trkpt lat="45.399015424495424" lon="10.551548394648137"><ele>115.0</ele><time>2026-03-28T08:43:26.999Z</time></trkpt><trkpt lat="45.398898103380574" lon="10.551564819566032"><ele>117.0</ele><time>2026-03-28T08:43:27.999Z</time></trkpt><trkpt lat="45.3987897167295" lon="10.551598153727689"><ele>119.0</ele><time>2026-03-28T08:43:28.999Z</time></trkpt><trkpt lat="45.39868543155322" lon="10.551658358519186"><ele>121.0</ele><time>2026-03-28T08:43:29.999Z</time></trkpt><trkpt lat="45.398570592617" lon="10.551734878459179"><ele>123.0</ele><time>2026-03-28T08:43:30.999Z</time></trkpt><trkpt lat="45.3984603486724" lon="10.55179221955334"><ele>123.0</ele><time>2026-03-28T08:43:31.999Z</time></trkpt><trkpt lat="45.39835983973788" lon="10.551843151396712"><ele>123.00000000000001</ele><time>2026-03-28T08:43:32.999Z</time></trkpt><trkpt lat="45.398264794196585" lon="10.551868980374739"><ele>123.00000000000001</ele><time>2026-03-28T08:43:33.999Z</time></trkpt><trkpt lat="45.398167079510195" lon="10.551889752382188"><ele>123.0</ele><time>2026-03-28T08:43:34.999Z</time></trkpt><trkpt lat="45.39808340506605" lon="10.551910321762048"><ele>123.0</ele><time>2026-03-28T08:43:35.999Z</time></trkpt><trkpt lat="45.39799251625953" lon="10.55190061475148"><ele>122.83333333333333</ele><time>2026-03-28T08:43:36.999Z</time></trkpt><trkpt lat="45.397906669558616" lon="10.551893309293122"><ele>122.66666666666666</ele><time>2026-03-28T08:43:37.999Z</time></trkpt><trkpt lat="45.39781584629885" lon="10.551880509072367"><ele>122.5</ele><time>2026-03-28T08:43:38.999Z</time></trkpt><trkpt lat="45.39773349529433" lon="10.551857453235602"><ele>122.33333333333333</ele><time>2026-03-28T08:43:39.999Z</time></trkpt><trkpt lat="45.39765517829717" lon="10.551835845709101"><ele>122.16666666666666</ele><time>2026-03-28T08:43:40.999Z</time></trkpt><trkpt lat="45.397570950128504" lon="10.551815084856587"><ele>122.0</ele><time>2026-03-28T08:43:41.999Z</time></trkpt><trkpt lat="45.3974858391505" lon="10.551805372872565"><ele>121.99999999999999</ele><time>2026-03-28T08:43:42.999Z</time></trkpt><trkpt lat="45.397416510551864" lon="10.55180027764676"><ele>122.0</ele><time>2026-03-28T08:43:43.999Z</time></trkpt><trkpt lat="45.39734055470624" lon="10.55178392164893"><ele>122.0</ele><time>2026-03-28T08:43:44.999Z</time></trkpt><trkpt lat="45.39725517785689" lon="10.551757886318386"><ele>122.0</ele><time>2026-03-28T08:43:45.999Z</time></trkpt><trkpt lat="45.39716755269657" lon="10.551742556953187"><ele>121.99999999999999</ele><time>2026-03-28T08:43:46.999Z</time></trkpt><trkpt lat="45.39708324043392" lon="10.551729434891225"><ele>122.0</ele><time>2026-03-28T08:43:47.999Z</time></trkpt><trkpt lat="45.39696653958806" lon="10.55169919317366"><ele>121.75</ele><time>2026-03-28T08:43:49.999Z</time></trkpt><trkpt lat="45.39689196341304" lon="10.551914847306573"><ele>121.5</ele><time>2026-03-28T08:43:52.999Z</time></trkpt><trkpt lat="45.3968856912958" lon="10.552044186676278"><ele>121.25</ele><time>2026-03-28T08:43:53.999Z</time></trkpt><trkpt lat="45.39687000002205" lon="10.552203266032613"><ele>121.0</ele><time>2026-03-28T08:43:54.999Z</time></trkpt><trkpt lat="45.396907872627935" lon="10.552388424319679"><ele>123.25</ele><time>2026-03-28T08:43:55.999Z</time></trkpt><trkpt lat="45.396972223783024" lon="10.552544216751413"><ele>125.5</ele><time>2026-03-28T08:43:56.999Z</time></trkpt><trkpt lat="45.397033679119346" lon="10.55272126499418"><ele>127.75</ele><time>2026-03-28T08:43:57.999Z</time></trkpt><trkpt lat="45.39709416357097" lon="10.552910235287351"><ele>130.0</ele><time>2026-03-28T08:43:58.999Z</time></trkpt><trkpt lat="45.39713438895238" lon="10.55309956918285"><ele>125.0</ele><time>2026-03-28T08:43:59.999Z</time></trkpt><trkpt lat="45.39717829129948" lon="10.553306620495428"><ele>120.0</ele><time>2026-03-28T08:44:00.999Z</time></trkpt><trkpt lat="45.397235809260096" lon="10.553506727137513"><ele>115.0</ele><time>2026-03-28T08:44:01.999Z</time></trkpt><trkpt lat="45.397303517026394" lon="10.553693678133405"><ele>114.5</ele><time>2026-03-28T08:44:02.999Z</time></trkpt><trkpt lat="45.39736353901284" lon="10.553860094940688"><ele>114.0</ele><time>2026-03-28T08:44:03.999Z</time></trkpt><trkpt lat="45.397426075558904" lon="10.554044948961197"><ele>113.5</ele><time>2026-03-28T08:44:04.999Z</time></trkpt><trkpt lat="45.39749589642974" lon="10.554197291361596"><ele>113.0</ele><time>2026-03-28T08:44:05.999Z</time></trkpt><trkpt lat="45.39754025922812" lon="10.55436115113983"><ele>112.25</ele><time>2026-03-28T08:44:06.999Z</time></trkpt><trkpt lat="45.39756538853268" lon="10.554554559165986"><ele>111.5</ele><time>2026-03-28T08:44:07.999Z</time></trkpt><trkpt lat="45.397596403901105" lon="10.554748793610072"><ele>110.75</ele><time>2026-03-28T08:44:08.999Z</time></trkpt><trkpt lat="45.39756308508765" lon="10.554950831113432"><ele>110.0</ele><time>2026-03-28T08:44:09.999Z</time></trkpt><trkpt lat="45.39751644329375" lon="10.55515141668494"><ele>110.0</ele><time>2026-03-28T08:44:10.998Z</time></trkpt><trkpt lat="45.39745876334201" lon="10.555364567313388"><ele>110.0</ele><time>2026-03-28T08:44:11.998Z</time></trkpt><trkpt lat="45.397398043678216" lon="10.555580134873866"><ele>110.0</ele><time>2026-03-28T08:44:12.998Z</time></trkpt><trkpt lat="45.39734088052813" lon="10.555804008768824"><ele>108.66666666666666</ele><time>2026-03-28T08:44:13.998Z</time></trkpt><trkpt lat="45.39729765443069" lon="10.556048908423643"><ele>107.33333333333334</ele><time>2026-03-28T08:44:14.998Z</time></trkpt><trkpt lat="45.397267744794206" lon="10.55628545840235"><ele>106.0</ele><time>2026-03-28T08:44:15.998Z</time></trkpt><trkpt lat="45.39724424788702" lon="10.556512499964269"><ele>106.0</ele><time>2026-03-28T08:44:16.998Z</time></trkpt><trkpt lat="45.39723652218013" lon="10.556740407640001"><ele>106.0</ele><time>2026-03-28T08:44:17.998Z</time></trkpt><trkpt lat="45.39720910409961" lon="10.556947445632876"><ele>106.0</ele><time>2026-03-28T08:44:18.998Z</time></trkpt><trkpt lat="45.39718374310307" lon="10.557118713432262"><ele>106.0</ele><time>2026-03-28T08:44:19.998Z</time></trkpt><trkpt lat="45.39714052355432" lon="10.557258362397137"><ele>106.75</ele><time>2026-03-28T08:44:20.998Z</time></trkpt><trkpt lat="45.39708100867552" lon="10.557383905795135"><ele>107.5</ele><time>2026-03-28T08:44:21.998Z</time></trkpt><trkpt lat="45.396997431104374" lon="10.557508614390446"><ele>108.25</ele><time>2026-03-28T08:44:22.998Z</time></trkpt><trkpt lat="45.396906260904274" lon="10.557656329870227"><ele>109.0</ele><time>2026-03-28T08:44:23.998Z</time></trkpt><trkpt lat="45.396827480088255" lon="10.557838642788177"><ele>107.33333333333334</ele><time>2026-03-28T08:44:24.998Z</time></trkpt><trkpt lat="45.396768284454694" lon="10.558045680163174"><ele>105.66666666666666</ele><time>2026-03-28T08:44:25.998Z</time></trkpt><trkpt lat="45.39672281632561" lon="10.558284974475644"><ele>104.0</ele><time>2026-03-28T08:44:26.998Z</time></trkpt><trkpt lat="45.39670546683736" lon="10.558533457321403"><ele>103.33333333333333</ele><time>2026-03-28T08:44:27.998Z</time></trkpt><trkpt lat="45.396709947754495" lon="10.558794700815614"><ele>102.66666666666666</ele><time>2026-03-28T08:44:28.998Z</time></trkpt><trkpt lat="45.39673660036214" lon="10.559055576270108"><ele>102.0</ele><time>2026-03-28T08:44:29.998Z</time></trkpt><trkpt lat="45.3967568996478" lon="10.559313846064763"><ele>102.66666666666666</ele><time>2026-03-28T08:44:30.998Z</time></trkpt><trkpt lat="45.396779741256864" lon="10.559568526021238"><ele>103.33333333333333</ele><time>2026-03-28T08:44:31.998Z</time></trkpt><trkpt lat="45.396799120905506" lon="10.559823816154822"><ele>104.0</ele><time>2026-03-28T08:44:32.998Z</time></trkpt><trkpt lat="45.396813234635296" lon="10.56008612309092"><ele>104.0</ele><time>2026-03-28T08:44:33.998Z</time></trkpt><trkpt lat="45.396822730601215" lon="10.560333198912712"><ele>104.0</ele><time>2026-03-28T08:44:34.998Z</time></trkpt><trkpt lat="45.39683470565326" lon="10.56057386607339"><ele>104.0</ele><time>2026-03-28T08:44:35.998Z</time></trkpt><trkpt lat="45.396838540504355" lon="10.560781422959334"><ele>104.0</ele><time>2026-03-28T08:44:36.998Z</time></trkpt><trkpt lat="45.39683562525975" lon="10.560995838760979"><ele>104.0</ele><time>2026-03-28T08:44:37.998Z</time></trkpt><trkpt lat="45.396814831766" lon="10.561205420462878"><ele>104.0</ele><time>2026-03-28T08:44:38.998Z</time></trkpt><trkpt lat="45.39675853600449" lon="10.561406847486067"><ele>104.0</ele><time>2026-03-28T08:44:39.998Z</time></trkpt><trkpt lat="45.39672575366125" lon="10.56162841960681"><ele>104.0</ele><time>2026-03-28T08:44:40.998Z</time></trkpt><trkpt lat="45.396674120310614" lon="10.561835958681515"><ele>104.0</ele><time>2026-03-28T08:44:41.998Z</time></trkpt><trkpt lat="45.39662160713017" lon="10.562048506521533"><ele>103.0</ele><time>2026-03-28T08:44:42.998Z</time></trkpt><trkpt lat="45.39656445715507" lon="10.562261500363368"><ele>102.0</ele><time>2026-03-28T08:44:43.998Z</time></trkpt><trkpt lat="45.3965098586755" lon="10.562481438748359"><ele>101.0</ele><time>2026-03-28T08:44:44.998Z</time></trkpt><trkpt lat="45.39643783012215" lon="10.562659870369012"><ele>101.0</ele><time>2026-03-28T08:44:45.998Z</time></trkpt><trkpt lat="45.39637620365199" lon="10.562841673749475"><ele>101.0</ele><time>2026-03-28T08:44:46.998Z</time></trkpt><trkpt lat="45.39631863613512" lon="10.563004731369103"><ele>101.0</ele><time>2026-03-28T08:44:47.998Z</time></trkpt><trkpt lat="45.39627104972521" lon="10.563164470488744"><ele>101.0</ele><time>2026-03-28T08:44:48.998Z</time></trkpt><trkpt lat="45.39622041791825" lon="10.563303931102888"><ele>101.0</ele><time>2026-03-28T08:44:49.998Z</time></trkpt><trkpt lat="45.39618185592309" lon="10.56340618661637"><ele>101.0</ele><time>2026-03-28T08:44:50.998Z</time></trkpt><trkpt lat="45.39612763588738" lon="10.563502031689541"><ele>101.0</ele><time>2026-03-28T08:44:51.998Z</time></trkpt><trkpt lat="45.39607717517625" lon="10.56362474107283"><ele>101.0</ele><time>2026-03-28T08:44:53.998Z</time></trkpt><trkpt lat="45.39615801994818" lon="10.563751498171417"><ele>101.0</ele><time>2026-03-28T08:44:54.998Z</time></trkpt><trkpt lat="45.39623627396504" lon="10.563849877586971"><ele>101.0</ele><time>2026-03-28T08:44:56Z</time></trkpt><trkpt lat="45.396324868879965" lon="10.563962032304543"><ele>101.0</ele><time>2026-03-28T08:44:57Z</time></trkpt><trkpt lat="45.39642396910751" lon="10.564097947126369"><ele>101.0</ele><time>2026-03-28T08:44:58Z</time></trkpt><trkpt lat="45.39653610352586" lon="10.564251742237262"><ele>101.0</ele><time>2026-03-28T08:44:59Z</time></trkpt><trkpt lat="45.39666320748265" lon="10.564428298823826"><ele>101.33333333333333</ele><time>2026-03-28T08:45:00Z</time></trkpt><trkpt lat="45.39678940173401" lon="10.56460611367297"><ele>101.66666666666666</ele><time>2026-03-28T08:45:01Z</time></trkpt><trkpt lat="45.39690867923193" lon="10.564772369965645"><ele>102.0</ele><time>2026-03-28T08:45:02Z</time></trkpt><trkpt lat="45.39702984663678" lon="10.564937302908616"><ele>102.0</ele><time>2026-03-28T08:45:03Z</time></trkpt><trkpt lat="45.39714805757089" lon="10.565093358997649"><ele>102.0</ele><time>2026-03-28T08:45:04Z</time></trkpt><trkpt lat="45.39726127010904" lon="10.565256465243568"><ele>102.0</ele><time>2026-03-28T08:45:05Z</time></trkpt><trkpt lat="45.39734883101624" lon="10.56540651577323"><ele>102.0</ele><time>2026-03-28T08:45:06Z</time></trkpt><trkpt lat="45.39741233252642" lon="10.565563721787777"><ele>102.0</ele><time>2026-03-28T08:45:07Z</time></trkpt><trkpt lat="45.39745647840464" lon="10.565747534787821"><ele>102.0</ele><time>2026-03-28T08:45:08Z</time></trkpt><trkpt lat="45.397484210017275" lon="10.565939408652985"><ele>102.0</ele><time>2026-03-28T08:45:09Z</time></trkpt><trkpt lat="45.3975677047982" lon="10.5661325456321"><ele>102.66666666666666</ele><time>2026-03-28T08:45:10Z</time></trkpt><trkpt lat="45.397686638744645" lon="10.56630701799315"><ele>103.33333333333333</ele><time>2026-03-28T08:45:11Z</time></trkpt><trkpt lat="45.397812276309445" lon="10.566495198948402"><ele>104.0</ele><time>2026-03-28T08:45:12Z</time></trkpt><trkpt lat="45.397949933533376" lon="10.566682972049794"><ele>104.33333333333333</ele><time>2026-03-28T08:45:13Z</time></trkpt><trkpt lat="45.39809371321782" lon="10.566876349083271"><ele>104.66666666666666</ele><time>2026-03-28T08:45:14Z</time></trkpt><trkpt lat="45.39823628634092" lon="10.567066359960254"><ele>105.0</ele><time>2026-03-28T08:45:15Z</time></trkpt><trkpt lat="45.398379538393364" lon="10.56725153414073"><ele>105.0</ele><time>2026-03-28T08:45:16Z</time></trkpt><trkpt lat="45.39852458309173" lon="10.567429648532187"><ele>105.0</ele><time>2026-03-28T08:45:17Z</time></trkpt><trkpt lat="45.398666791356064" lon="10.567596941220518"><ele>105.0</ele><time>2026-03-28T08:45:18Z</time></trkpt><trkpt lat="45.39878881252419" lon="10.56773625507652"><ele>105.5</ele><time>2026-03-28T08:45:19Z</time></trkpt><trkpt lat="45.39888464382475" lon="10.567846363357809"><ele>106.0</ele><time>2026-03-28T08:45:20Z</time></trkpt><trkpt lat="45.398975105764926" lon="10.567961264601363"><ele>106.5</ele><time>2026-03-28T08:45:21Z</time></trkpt><trkpt lat="45.39906951446521" lon="10.568090689180694"><ele>107.0</ele><time>2026-03-28T08:45:22Z</time></trkpt><trkpt lat="45.399172439999454" lon="10.568229732746842"><ele>107.5</ele><time>2026-03-28T08:45:23Z</time></trkpt><trkpt lat="45.399274757991705" lon="10.568365161781681"><ele>108.0</ele><time>2026-03-28T08:45:24Z</time></trkpt><trkpt lat="45.39936745940235" lon="10.568486644872912"><ele>108.5</ele><time>2026-03-28T08:45:25Z</time></trkpt><trkpt lat="45.39945003157406" lon="10.568592087703296"><ele>109.0</ele><time>2026-03-28T08:45:26Z</time></trkpt><trkpt lat="45.39951776879703" lon="10.568682929417909"><ele>110.0</ele><time>2026-03-28T08:45:27Z</time></trkpt><trkpt lat="45.399580511779654" lon="10.568794840545392"><ele>111.0</ele><time>2026-03-28T08:45:29Z</time></trkpt><trkpt lat="45.39963053321516" lon="10.568906917066757"><ele>112.0</ele><time>2026-03-28T08:45:32Z</time></trkpt><trkpt lat="45.399503563946816" lon="10.568996011006172"><ele>113.0</ele><time>2026-03-28T08:45:33Z</time></trkpt><trkpt lat="45.39943623287047" lon="10.569088975276248"><ele>114.0</ele><time>2026-03-28T08:45:34Z</time></trkpt><trkpt lat="45.39935473790077" lon="10.569201495549613"><ele>114.0</ele><time>2026-03-28T08:45:35Z</time></trkpt><trkpt lat="45.39924806671671" lon="10.569348778718409"><ele>114.0</ele><time>2026-03-28T08:45:35.999Z</time></trkpt><trkpt lat="45.39912559834151" lon="10.5695218576038"><ele>114.0</ele><time>2026-03-28T08:45:36.999Z</time></trkpt><trkpt lat="45.398992879762595" lon="10.569710887078994"><ele>115.0</ele><time>2026-03-28T08:45:37.999Z</time></trkpt><trkpt lat="45.39885140894681" lon="10.569908604563613"><ele>116.0</ele><time>2026-03-28T08:45:38.999Z</time></trkpt><trkpt lat="45.39871879690348" lon="10.570116989840976"><ele>117.0</ele><time>2026-03-28T08:45:39.999Z</time></trkpt><trkpt lat="45.398590684611264" lon="10.570290025658414"><ele>117.66666666666666</ele><time>2026-03-28T08:45:40.999Z</time></trkpt><trkpt lat="45.3984449113262" lon="10.570444447584736"><ele>118.33333333333333</ele><time>2026-03-28T08:45:41.999Z</time></trkpt><trkpt lat="45.3983025865427" lon="10.570609161047399"><ele>119.0</ele><time>2026-03-28T08:45:42.999Z</time></trkpt><trkpt lat="45.39815150184455" lon="10.570774390355577"><ele>118.66666666666666</ele><time>2026-03-28T08:45:43.999Z</time></trkpt><trkpt lat="45.39799307176237" lon="10.570941113636787"><ele>118.33333333333334</ele><time>2026-03-28T08:45:44.999Z</time></trkpt><trkpt lat="45.39783726766611" lon="10.571113553139584"><ele>118.0</ele><time>2026-03-28T08:45:45.999Z</time></trkpt><trkpt lat="45.397688168242844" lon="10.57128304997514"><ele>118.0</ele><time>2026-03-28T08:45:46.999Z</time></trkpt><trkpt lat="45.397548083202075" lon="10.571446362207821"><ele>118.0</ele><time>2026-03-28T08:45:47.999Z</time></trkpt><trkpt lat="45.39740693120378" lon="10.571613654557535"><ele>118.0</ele><time>2026-03-28T08:45:48.999Z</time></trkpt><trkpt lat="45.39726515739443" lon="10.571783113416984"><ele>117.66666666666667</ele><time>2026-03-28T08:45:49.999Z</time></trkpt><trkpt lat="45.39712514494691" lon="10.571950466853327"><ele>117.33333333333334</ele><time>2026-03-28T08:45:50.999Z</time></trkpt><trkpt lat="45.39698478483489" lon="10.572117374700726"><ele>117.0</ele><time>2026-03-28T08:45:51.999Z</time></trkpt><trkpt lat="45.396855915640806" lon="10.572269879903088"><ele>117.0</ele><time>2026-03-28T08:45:52.999Z</time></trkpt><trkpt lat="45.39671629418677" lon="10.572435536586218"><ele>117.0</ele><time>2026-03-28T08:45:53.999Z</time></trkpt><trkpt lat="45.39659411274516" lon="10.57262430488213"><ele>117.0</ele><time>2026-03-28T08:45:54.999Z</time></trkpt><trkpt lat="45.39645400882157" lon="10.572736568236973"><ele>116.33333333333334</ele><time>2026-03-28T08:45:55.999Z</time></trkpt><trkpt lat="45.39631450030681" lon="10.572845177036529"><ele>115.66666666666667</ele><time>2026-03-28T08:45:56.999Z</time></trkpt><trkpt lat="45.39617183569811" lon="10.572942073053616"><ele>115.0</ele><time>2026-03-28T08:45:57.999Z</time></trkpt><trkpt lat="45.39601936930309" lon="10.573024160345692"><ele>116.33333333333334</ele><time>2026-03-28T08:45:58.999Z</time></trkpt><trkpt lat="45.3958597703998" lon="10.573109509061393"><ele>117.66666666666666</ele><time>2026-03-28T08:45:59.999Z</time></trkpt><trkpt lat="45.395699360958425" lon="10.573198407412105"><ele>119.0</ele><time>2026-03-28T08:46:00.999Z</time></trkpt><trkpt lat="45.39553098901374" lon="10.573327081455613"><ele>119.0</ele><time>2026-03-28T08:46:01.999Z</time></trkpt><trkpt lat="45.395385295818194" lon="10.57351082747001"><ele>119.0</ele><time>2026-03-28T08:46:02.999Z</time></trkpt><trkpt lat="45.39523047268504" lon="10.573682282105066"><ele>119.0</ele><time>2026-03-28T08:46:03.999Z</time></trkpt><trkpt lat="45.39504461268283" lon="10.57385463997272"><ele>119.0</ele><time>2026-03-28T08:46:04.999Z</time></trkpt><trkpt lat="45.39489575535847" lon="10.574013930562543"><ele>119.0</ele><time>2026-03-28T08:46:05.999Z</time></trkpt><trkpt lat="45.39473299750577" lon="10.574187828060845"><ele>119.0</ele><time>2026-03-28T08:46:06.999Z</time></trkpt><trkpt lat="45.39457373407381" lon="10.574366934393275"><ele>119.0</ele><time>2026-03-28T08:46:07.999Z</time></trkpt><trkpt lat="45.3944186428295" lon="10.574551065535537"><ele>119.0</ele><time>2026-03-28T08:46:08.999Z</time></trkpt><trkpt lat="45.39426616549154" lon="10.574733391423436"><ele>119.0</ele><time>2026-03-28T08:46:09.999Z</time></trkpt><trkpt lat="45.39412000101244" lon="10.574915439764318"><ele>119.0</ele><time>2026-03-28T08:46:10.999Z</time></trkpt><trkpt lat="45.39397617024651" lon="10.575098630722792"><ele>119.0</ele><time>2026-03-28T08:46:11.999Z</time></trkpt><trkpt lat="45.39383267254541" lon="10.57528072515886"><ele>119.0</ele><time>2026-03-28T08:46:12.999Z</time></trkpt><trkpt lat="45.393693852226555" lon="10.575460289424246"><ele>118.66666666666666</ele><time>2026-03-28T08:46:13.999Z</time></trkpt><trkpt lat="45.39356622969026" lon="10.575653180237852"><ele>118.33333333333334</ele><time>2026-03-28T08:46:14.999Z</time></trkpt><trkpt lat="45.39345157841502" lon="10.575852469533807"><ele>118.0</ele><time>2026-03-28T08:46:15.999Z</time></trkpt><trkpt lat="45.39335925925753" lon="10.576083426517917"><ele>118.66666666666667</ele><time>2026-03-28T08:46:16.999Z</time></trkpt><trkpt lat="45.393240136645204" lon="10.576295234108139"><ele>119.33333333333334</ele><time>2026-03-28T08:46:17.999Z</time></trkpt><trkpt lat="45.39313618505818" lon="10.576510757027362"><ele>120.0</ele><time>2026-03-28T08:46:18.999Z</time></trkpt><trkpt lat="45.39303597293745" lon="10.576718122303621"><ele>119.33333333333334</ele><time>2026-03-28T08:46:19.999Z</time></trkpt><trkpt lat="45.392933244939215" lon="10.576928749437432"><ele>118.66666666666667</ele><time>2026-03-28T08:46:20.999Z</time></trkpt><trkpt lat="45.392828910997444" lon="10.577138506955938"><ele>118.0</ele><time>2026-03-28T08:46:21.999Z</time></trkpt><trkpt lat="45.392721555568656" lon="10.577343128505818"><ele>118.0</ele><time>2026-03-28T08:46:22.999Z</time></trkpt><trkpt lat="45.39261395577566" lon="10.577532903521908"><ele>118.0</ele><time>2026-03-28T08:46:23.999Z</time></trkpt><trkpt lat="45.3924934585872" lon="10.577729969677094"><ele>118.0</ele><time>2026-03-28T08:46:24.999Z</time></trkpt><trkpt lat="45.39237287934371" lon="10.577918428309038"><ele>117.66666666666667</ele><time>2026-03-28T08:46:25.998Z</time></trkpt><trkpt lat="45.392254826952495" lon="10.578098215821063"><ele>117.33333333333334</ele><time>2026-03-28T08:46:26.998Z</time></trkpt><trkpt lat="45.39212573295014" lon="10.57828533604419"><ele>117.0</ele><time>2026-03-28T08:46:27.998Z</time></trkpt><trkpt lat="45.39200338534635" lon="10.578467630041642"><ele>117.0</ele><time>2026-03-28T08:46:28.998Z</time></trkpt><trkpt lat="45.391886381562074" lon="10.57863909229177"><ele>117.0</ele><time>2026-03-28T08:46:29.998Z</time></trkpt><trkpt lat="45.39177390670564" lon="10.578793575888277"><ele>117.0</ele><time>2026-03-28T08:46:30.998Z</time></trkpt><trkpt lat="45.391689783141004" lon="10.578905800091693"><ele>117.0</ele><time>2026-03-28T08:46:31.998Z</time></trkpt><trkpt lat="45.39163479411138" lon="10.578969905060042"><ele>117.0</ele><time>2026-03-28T08:46:32.998Z</time></trkpt><trkpt lat="45.39153381101441" lon="10.579082794105425"><ele>116.99999999999999</ele><time>2026-03-28T08:46:34.998Z</time></trkpt><trkpt lat="45.391451650771906" lon="10.579170076393572"><ele>116.99999999999999</ele><time>2026-03-28T08:46:35.998Z</time></trkpt><trkpt lat="45.39136711164285" lon="10.57925620879923"><ele>117.0</ele><time>2026-03-28T08:46:36.998Z</time></trkpt><trkpt lat="45.391292794297186" lon="10.579330672403067"><ele>117.0</ele><time>2026-03-28T08:46:37.998Z</time></trkpt><trkpt lat="45.39123584247476" lon="10.57939320278558"><ele>117.14285714285715</ele><time>2026-03-28T08:46:38.998Z</time></trkpt><trkpt lat="45.39119668014471" lon="10.57946877086936"><ele>117.2857142857143</ele><time>2026-03-28T08:46:39.998Z</time></trkpt><trkpt lat="45.39114723821743" lon="10.579528507824334"><ele>117.42857142857143</ele><time>2026-03-28T08:46:40.998Z</time></trkpt><trkpt lat="45.391104392234894" lon="10.57959972922858"><ele>117.57142857142858</ele><time>2026-03-28T08:46:41.998Z</time></trkpt><trkpt lat="45.39107267891683" lon="10.579687278093468"><ele>117.71428571428572</ele><time>2026-03-28T08:46:42.998Z</time></trkpt><trkpt lat="45.391045976459885" lon="10.579777180979299"><ele>117.85714285714286</ele><time>2026-03-28T08:46:43.998Z</time></trkpt><trkpt lat="45.390999318603036" lon="10.5799172530542"><ele>118.0</ele><time>2026-03-28T08:46:45.998Z</time></trkpt><trkpt lat="45.39096201297115" lon="10.580040496647666"><ele>118.66666666666667</ele><time>2026-03-28T08:46:47.998Z</time></trkpt><trkpt lat="45.39092153249832" lon="10.580135958352397"><ele>119.33333333333334</ele><time>2026-03-28T08:46:49.998Z</time></trkpt><trkpt lat="45.39095398706634" lon="10.580260366176855"><ele>120.0</ele><time>2026-03-28T08:46:51.998Z</time></trkpt><trkpt lat="45.39103534688023" lon="10.580281471778964"><ele>120.66666666666666</ele><time>2026-03-28T08:46:52.998Z</time></trkpt><trkpt lat="45.39109883328791" lon="10.5803506279132"><ele>121.33333333333333</ele><time>2026-03-28T08:46:54.998Z</time></trkpt><trkpt lat="45.39114243583643" lon="10.580422182387483"><ele>122.0</ele><time>2026-03-28T08:46:56.998Z</time></trkpt><trkpt lat="45.39108660910752" lon="10.580585797773887"><ele>122.0</ele><time>2026-03-28T08:46:58.998Z</time></trkpt><trkpt lat="45.39103624703845" lon="10.580705253574463"><ele>121.99999999999999</ele><time>2026-03-28T08:46:59.998Z</time></trkpt><trkpt lat="45.39099404357447" lon="10.580852770702888"><ele>121.99999999999999</ele><time>2026-03-28T08:47:00.998Z</time></trkpt><trkpt lat="45.3909362275538" lon="10.58100312312173"><ele>122.0</ele><time>2026-03-28T08:47:02Z</time></trkpt><trkpt lat="45.39088393346202" lon="10.58114149808921"><ele>122.0</ele><time>2026-03-28T08:47:03Z</time></trkpt><trkpt lat="45.39083536518541" lon="10.581263636432576"><ele>121.19999999999999</ele><time>2026-03-28T08:47:04Z</time></trkpt><trkpt lat="45.39079016271693" lon="10.58137149016617"><ele>120.39999999999999</ele><time>2026-03-28T08:47:05Z</time></trkpt><trkpt lat="45.39073057452398" lon="10.581471524245822"><ele>119.60000000000001</ele><time>2026-03-28T08:47:06Z</time></trkpt><trkpt lat="45.39065399965697" lon="10.581553478248836"><ele>118.80000000000001</ele><time>2026-03-28T08:47:07Z</time></trkpt><trkpt lat="45.39061862241552" lon="10.581681931918942"><ele>118.0</ele><time>2026-03-28T08:47:08Z</time></trkpt><trkpt lat="45.390561064381345" lon="10.581791693134685"><ele>118.0</ele><time>2026-03-28T08:47:09Z</time></trkpt><trkpt lat="45.39051266752623" lon="10.581937776626686"><ele>118.0</ele><time>2026-03-28T08:47:10Z</time></trkpt><trkpt lat="45.39046448599891" lon="10.582084667592618"><ele>118.0</ele><time>2026-03-28T08:47:11Z</time></trkpt><trkpt lat="45.390422137063865" lon="10.582239459268349"><ele>118.0</ele><time>2026-03-28T08:47:12Z</time></trkpt><trkpt lat="45.39036702577284" lon="10.582397995634118"><ele>118.0</ele><time>2026-03-28T08:47:13Z</time></trkpt><trkpt lat="45.390296000927975" lon="10.582562961151693"><ele>118.0</ele><time>2026-03-28T08:47:14Z</time></trkpt><trkpt lat="45.390217695864756" lon="10.582722935470349"><ele>118.0</ele><time>2026-03-28T08:47:15Z</time></trkpt><trkpt lat="45.39013452606445" lon="10.58290168642751"><ele>118.0</ele><time>2026-03-28T08:47:16Z</time></trkpt><trkpt lat="45.390060003027735" lon="10.583054291697735"><ele>118.4</ele><time>2026-03-28T08:47:17Z</time></trkpt><trkpt lat="45.3899960810425" lon="10.583169188139102"><ele>118.80000000000001</ele><time>2026-03-28T08:47:18Z</time></trkpt><trkpt lat="45.38995054328348" lon="10.5832697260535"><ele>119.2</ele><time>2026-03-28T08:47:19Z</time></trkpt><trkpt lat="45.3899098196554" lon="10.583355783896884"><ele>119.6</ele><time>2026-03-28T08:47:20Z</time></trkpt><trkpt lat="45.38982862527916" lon="10.583472804505272"><ele>120.0</ele><time>2026-03-28T08:47:22Z</time></trkpt><trkpt lat="45.38987882238051" lon="10.58361914991265"><ele>119.8</ele><time>2026-03-28T08:47:23Z</time></trkpt><trkpt lat="45.38989824889247" lon="10.583796162042459"><ele>119.6</ele><time>2026-03-28T08:47:25Z</time></trkpt><trkpt lat="45.389973063968945" lon="10.583863523583469"><ele>119.4</ele><time>2026-03-28T08:47:26Z</time></trkpt><trkpt lat="45.39004077899486" lon="10.583917738486969"><ele>119.2</ele><time>2026-03-28T08:47:27Z</time></trkpt><trkpt lat="45.39012485222235" lon="10.583952939766647"><ele>119.0</ele><time>2026-03-28T08:47:28Z</time></trkpt><trkpt lat="45.390219055792286" lon="10.583968113961998"><ele>119.0</ele><time>2026-03-28T08:47:29Z</time></trkpt><trkpt lat="45.39033670920628" lon="10.58396486313008"><ele>119.0</ele><time>2026-03-28T08:47:30Z</time></trkpt><trkpt lat="45.39047853222976" lon="10.583956539787671"><ele>119.0</ele><time>2026-03-28T08:47:31Z</time></trkpt><trkpt lat="45.390631301027675" lon="10.58393107029745"><ele>119.0</ele><time>2026-03-28T08:47:32Z</time></trkpt><trkpt lat="45.39076542164917" lon="10.583917077186042"><ele>119.0</ele><time>2026-03-28T08:47:33Z</time></trkpt><trkpt lat="45.39088267502124" lon="10.583933405658144"><ele>119.0</ele><time>2026-03-28T08:47:34Z</time></trkpt><trkpt lat="45.39098441317742" lon="10.583943187707787"><ele>119.0</ele><time>2026-03-28T08:47:35Z</time></trkpt><trkpt lat="45.39108988496988" lon="10.58397031208243"><ele>119.0</ele><time>2026-03-28T08:47:36Z</time></trkpt><trkpt lat="45.39118122711711" lon="10.584057923980634"><ele>119.0</ele><time>2026-03-28T08:47:37Z</time></trkpt><trkpt lat="45.39127956974479" lon="10.584163822177269"><ele>118.0</ele><time>2026-03-28T08:47:38Z</time></trkpt><trkpt lat="45.39140542721074" lon="10.58427630873898"><ele>117.0</ele><time>2026-03-28T08:47:39Z</time></trkpt><trkpt lat="45.39151750194398" lon="10.584392498445318"><ele>116.0</ele><time>2026-03-28T08:47:40Z</time></trkpt><trkpt lat="45.39159689557308" lon="10.584513248134972"><ele>115.0</ele><time>2026-03-28T08:47:40.999Z</time></trkpt><trkpt lat="45.391662993413014" lon="10.58461865898713"><ele>115.0</ele><time>2026-03-28T08:47:41.999Z</time></trkpt><trkpt lat="45.391712012932" lon="10.584712299909675"><ele>115.0</ele><time>2026-03-28T08:47:42.999Z</time></trkpt><trkpt lat="45.391763138280965" lon="10.584801240829869"><ele>115.0</ele><time>2026-03-28T08:47:43.999Z</time></trkpt><trkpt lat="45.391775021081244" lon="10.58493650620341"><ele>115.0</ele><time>2026-03-28T08:47:44.999Z</time></trkpt><trkpt lat="45.3917392923642" lon="10.585094140710067"><ele>115.0</ele><time>2026-03-28T08:47:45.999Z</time></trkpt><trkpt lat="45.391715898217186" lon="10.585268542012754"><ele>115.0</ele><time>2026-03-28T08:47:46.999Z</time></trkpt><trkpt lat="45.39169040822109" lon="10.585501788175158"><ele>115.0</ele><time>2026-03-28T08:47:47.999Z</time></trkpt><trkpt lat="45.39167264311451" lon="10.585727747373785"><ele>115.0</ele><time>2026-03-28T08:47:48.999Z</time></trkpt><trkpt lat="45.39165261701759" lon="10.585921577238684"><ele>115.0</ele><time>2026-03-28T08:47:49.999Z</time></trkpt><trkpt lat="45.39160517935878" lon="10.586098300464744"><ele>115.0</ele><time>2026-03-28T08:47:50.999Z</time></trkpt><trkpt lat="45.39157252595274" lon="10.586278882717922"><ele>115.0</ele><time>2026-03-28T08:47:51.999Z</time></trkpt><trkpt lat="45.391511686320705" lon="10.586436046796262"><ele>115.0</ele><time>2026-03-28T08:47:52.999Z</time></trkpt><trkpt lat="45.391429816437345" lon="10.58658076204887"><ele>115.0</ele><time>2026-03-28T08:47:53.999Z</time></trkpt><trkpt lat="45.391367163937375" lon="10.586760007467442"><ele>115.0</ele><time>2026-03-28T08:47:54.999Z</time></trkpt><trkpt lat="45.39131670191452" lon="10.586916178126101"><ele>115.0</ele><time>2026-03-28T08:47:55.999Z</time></trkpt><trkpt lat="45.39129727592004" lon="10.587055250221347"><ele>115.0</ele><time>2026-03-28T08:47:56.999Z</time></trkpt><trkpt lat="45.39127328445562" lon="10.587188046166695"><ele>115.00000000000001</ele><time>2026-03-28T08:47:57.999Z</time></trkpt><trkpt lat="45.391278478870376" lon="10.587308598260279"><ele>115.0</ele><time>2026-03-28T08:47:58.999Z</time></trkpt><trkpt lat="45.391322616351815" lon="10.587407283937093"><ele>115.0</ele><time>2026-03-28T08:47:59.999Z</time></trkpt><trkpt lat="45.39136172608148" lon="10.587504640003369"><ele>115.0</ele><time>2026-03-28T08:48:00.999Z</time></trkpt><trkpt lat="45.391421194650455" lon="10.587588340833669"><ele>115.00000000000001</ele><time>2026-03-28T08:48:01.999Z</time></trkpt><trkpt lat="45.39149988107548" lon="10.587665233856912"><ele>115.0</ele><time>2026-03-28T08:48:02.999Z</time></trkpt><trkpt lat="45.39157228355776" lon="10.587783262618432"><ele>115.75</ele><time>2026-03-28T08:48:03.999Z</time></trkpt><trkpt lat="45.391661972322986" lon="10.587886012785024"><ele>116.5</ele><time>2026-03-28T08:48:04.999Z</time></trkpt><trkpt lat="45.39174323956514" lon="10.588007855037416"><ele>117.25</ele><time>2026-03-28T08:48:05.999Z</time></trkpt><trkpt lat="45.39180585963914" lon="10.588159256912336"><ele>118.0</ele><time>2026-03-28T08:48:06.999Z</time></trkpt><trkpt lat="45.391862657542625" lon="10.588327649039844"><ele>118.0</ele><time>2026-03-28T08:48:07.999Z</time></trkpt><trkpt lat="45.39192290777672" lon="10.588500740262294"><ele>118.0</ele><time>2026-03-28T08:48:08.999Z</time></trkpt><trkpt lat="45.39196226048176" lon="10.588709764358992"><ele>118.0</ele><time>2026-03-28T08:48:09.999Z</time></trkpt><trkpt lat="45.39199862069698" lon="10.588949523498203"><ele>118.0</ele><time>2026-03-28T08:48:10.999Z</time></trkpt><trkpt lat="45.392002679965344" lon="10.589210229386978"><ele>118.0</ele><time>2026-03-28T08:48:11.999Z</time></trkpt><trkpt lat="45.39201382672272" lon="10.589444486136697"><ele>118.0</ele><time>2026-03-28T08:48:12.999Z</time></trkpt><trkpt lat="45.39202348286139" lon="10.589656715518744"><ele>117.66666666666667</ele><time>2026-03-28T08:48:13.999Z</time></trkpt><trkpt lat="45.39203383089557" lon="10.589862520756393"><ele>117.33333333333334</ele><time>2026-03-28T08:48:14.999Z</time></trkpt><trkpt lat="45.39202700734727" lon="10.590101904096143"><ele>117.0</ele><time>2026-03-28T08:48:15.999Z</time></trkpt><trkpt lat="45.392032978565354" lon="10.590349634139567"><ele>116.75</ele><time>2026-03-28T08:48:16.999Z</time></trkpt><trkpt lat="45.39204234164228" lon="10.590562241315439"><ele>116.5</ele><time>2026-03-28T08:48:17.999Z</time></trkpt><trkpt lat="45.39205312204125" lon="10.590730706767372"><ele>116.25</ele><time>2026-03-28T08:48:18.999Z</time></trkpt><trkpt lat="45.392075085275174" lon="10.590883647469271"><ele>116.0</ele><time>2026-03-28T08:48:19.999Z</time></trkpt><trkpt lat="45.392119756150024" lon="10.591045416290303"><ele>117.25</ele><time>2026-03-28T08:48:20.999Z</time></trkpt><trkpt lat="45.39218207847258" lon="10.5911893046902"><ele>118.5</ele><time>2026-03-28T08:48:21.999Z</time></trkpt><trkpt lat="45.392269720147105" lon="10.591325576086279"><ele>119.75</ele><time>2026-03-28T08:48:22.999Z</time></trkpt><trkpt lat="45.39238020240801" lon="10.591484239022867"><ele>121.0</ele><time>2026-03-28T08:48:23.999Z</time></trkpt><trkpt lat="45.39248137677269" lon="10.591658051089615"><ele>121.0</ele><time>2026-03-28T08:48:24.999Z</time></trkpt><trkpt lat="45.392529976886784" lon="10.591818974277524"><ele>121.0</ele><time>2026-03-28T08:48:25.999Z</time></trkpt><trkpt lat="45.39257502723586" lon="10.591972807466982"><ele>121.0</ele><time>2026-03-28T08:48:26.999Z</time></trkpt><trkpt lat="45.39261749056994" lon="10.592128416543984"><ele>121.0</ele><time>2026-03-28T08:48:27.999Z</time></trkpt><trkpt lat="45.39259633517544" lon="10.592275572419691"><ele>120.83333333333334</ele><time>2026-03-28T08:48:28.998Z</time></trkpt><trkpt lat="45.39259243104949" lon="10.592416462193682"><ele>120.66666666666667</ele><time>2026-03-28T08:48:29.998Z</time></trkpt><trkpt lat="45.39256384535252" lon="10.59256633385955"><ele>120.5</ele><time>2026-03-28T08:48:30.998Z</time></trkpt><trkpt lat="45.39253707899477" lon="10.592691220154903"><ele>120.33333333333334</ele><time>2026-03-28T08:48:31.998Z</time></trkpt><trkpt lat="45.39253187608864" lon="10.592791086384002"><ele>120.16666666666667</ele><time>2026-03-28T08:48:32.998Z</time></trkpt><trkpt lat="45.3925446385893" lon="10.592888035969995"><ele>120.0</ele><time>2026-03-28T08:48:33.998Z</time></trkpt><trkpt lat="45.3925784938824" lon="10.59297244289913"><ele>119.8</ele><time>2026-03-28T08:48:34.998Z</time></trkpt><trkpt lat="45.39264573368192" lon="10.593055947225054"><ele>119.6</ele><time>2026-03-28T08:48:35.998Z</time></trkpt><trkpt lat="45.392741337237325" lon="10.593133486603602"><ele>119.4</ele><time>2026-03-28T08:48:36.998Z</time></trkpt><trkpt lat="45.39284933310983" lon="10.593167471056432"><ele>119.2</ele><time>2026-03-28T08:48:37.998Z</time></trkpt><trkpt lat="45.39297074696496" lon="10.593206418665513"><ele>119.0</ele><time>2026-03-28T08:48:38.998Z</time></trkpt><trkpt lat="45.39309336900287" lon="10.593247639677495"><ele>118.4</ele><time>2026-03-28T08:48:39.998Z</time></trkpt><trkpt lat="45.393202642303855" lon="10.593321920428899"><ele>117.80000000000001</ele><time>2026-03-28T08:48:40.998Z</time></trkpt><trkpt lat="45.39329406232556" lon="10.593393360079288"><ele>117.19999999999999</ele><time>2026-03-28T08:48:41.998Z</time></trkpt><trkpt lat="45.393379759154136" lon="10.593449877814331"><ele>116.6</ele><time>2026-03-28T08:48:42.998Z</time></trkpt><trkpt lat="45.39345564606474" lon="10.593523043859218"><ele>116.0</ele><time>2026-03-28T08:48:43.998Z</time></trkpt><trkpt lat="45.39355673855229" lon="10.593610708476302"><ele>116.0</ele><time>2026-03-28T08:48:44.998Z</time></trkpt><trkpt lat="45.39367483517358" lon="10.593681137825078"><ele>116.0</ele><time>2026-03-28T08:48:45.998Z</time></trkpt><trkpt lat="45.39377316574566" lon="10.593751332153774"><ele>116.0</ele><time>2026-03-28T08:48:46.998Z</time></trkpt><trkpt lat="45.39384331469307" lon="10.593844388321873"><ele>116.0</ele><time>2026-03-28T08:48:47.998Z</time></trkpt><trkpt lat="45.39390524075044" lon="10.593912864905187"><ele>116.0</ele><time>2026-03-28T08:48:48.998Z</time></trkpt><trkpt lat="45.393938045981535" lon="10.5940271484537"><ele>115.6</ele><time>2026-03-28T08:48:49.998Z</time></trkpt><trkpt lat="45.39392343750775" lon="10.594161997094375"><ele>115.19999999999999</ele><time>2026-03-28T08:48:50.998Z</time></trkpt><trkpt lat="45.3939354753027" lon="10.594298523740433"><ele>114.80000000000001</ele><time>2026-03-28T08:48:51.998Z</time></trkpt><trkpt lat="45.393928212415496" lon="10.594458568840674"><ele>114.4</ele><time>2026-03-28T08:48:52.998Z</time></trkpt><trkpt lat="45.39391858028565" lon="10.594607053080862"><ele>114.0</ele><time>2026-03-28T08:48:53.998Z</time></trkpt><trkpt lat="45.39389570270525" lon="10.594749208778985"><ele>113.75</ele><time>2026-03-28T08:48:54.998Z</time></trkpt><trkpt lat="45.393881693116015" lon="10.594894078723627"><ele>113.5</ele><time>2026-03-28T08:48:55.998Z</time></trkpt><trkpt lat="45.39386519275151" lon="10.595064705469884"><ele>113.25</ele><time>2026-03-28T08:48:56.998Z</time></trkpt><trkpt lat="45.39385842016999" lon="10.595241177133428"><ele>113.0</ele><time>2026-03-28T08:48:57.998Z</time></trkpt><trkpt lat="45.39384629964814" lon="10.59539101679007"><ele>113.49999999999999</ele><time>2026-03-28T08:48:58.998Z</time></trkpt><trkpt lat="45.39383960117228" lon="10.595533758187942"><ele>114.0</ele><time>2026-03-28T08:48:59.998Z</time></trkpt><trkpt lat="45.393854338127525" lon="10.595666387165302"><ele>114.5</ele><time>2026-03-28T08:49:00.998Z</time></trkpt><trkpt lat="45.39388418746123" lon="10.59577218696659"><ele>115.0</ele><time>2026-03-28T08:49:01.998Z</time></trkpt><trkpt lat="45.39393257660589" lon="10.59584387729528"><ele>115.49999999999999</ele><time>2026-03-28T08:49:02.998Z</time></trkpt><trkpt lat="45.394023949006424" lon="10.595888652874784"><ele>116.0</ele><time>2026-03-28T08:49:03.998Z</time></trkpt><trkpt lat="45.39411651063965" lon="10.595966341771268"><ele>116.0</ele><time>2026-03-28T08:49:04.998Z</time></trkpt><trkpt lat="45.394253548525064" lon="10.595994244061028"><ele>116.0</ele><time>2026-03-28T08:49:05.998Z</time></trkpt><trkpt lat="45.394380478476506" lon="10.596046795011777"><ele>116.0</ele><time>2026-03-28T08:49:06.998Z</time></trkpt><trkpt lat="45.394474969461115" lon="10.596093600343231"><ele>116.0</ele><time>2026-03-28T08:49:08Z</time></trkpt><trkpt lat="45.39457581522875" lon="10.596130546049197"><ele>115.0</ele><time>2026-03-28T08:49:09Z</time></trkpt><trkpt lat="45.39470571293657" lon="10.596178399611938"><ele>114.0</ele><time>2026-03-28T08:49:10Z</time></trkpt><trkpt lat="45.394867126631326" lon="10.596225237752831"><ele>113.0</ele><time>2026-03-28T08:49:11Z</time></trkpt><trkpt lat="45.39500904091287" lon="10.59625521676247"><ele>112.0</ele><time>2026-03-28T08:49:12Z</time></trkpt><trkpt lat="45.395136928438966" lon="10.596323436032076"><ele>112.0</ele><time>2026-03-28T08:49:13Z</time></trkpt><trkpt lat="45.395240570654124" lon="10.596376011166745"><ele>111.99999999999999</ele><time>2026-03-28T08:49:14Z</time></trkpt><trkpt lat="45.39531628861375" lon="10.596437329988746"><ele>111.99999999999999</ele><time>2026-03-28T08:49:15Z</time></trkpt><trkpt lat="45.39539327032722" lon="10.596551441069336"><ele>112.0</ele><time>2026-03-28T08:49:16Z</time></trkpt><trkpt lat="45.3954696210496" lon="10.59669088651659"><ele>112.0</ele><time>2026-03-28T08:49:17Z</time></trkpt><trkpt lat="45.39554761508448" lon="10.596832685086031"><ele>111.19999999999999</ele><time>2026-03-28T08:49:18Z</time></trkpt><trkpt lat="45.395620413418534" lon="10.596916385128418"><ele>110.39999999999999</ele><time>2026-03-28T08:49:19Z</time></trkpt><trkpt lat="45.39568009540587" lon="10.597014980533988"><ele>109.60000000000001</ele><time>2026-03-28T08:49:20Z</time></trkpt><trkpt lat="45.395787259761754" lon="10.59705461837841"><ele>108.80000000000001</ele><time>2026-03-28T08:49:21Z</time></trkpt><trkpt lat="45.39590183387857" lon="10.59709591019857"><ele>108.0</ele><time>2026-03-28T08:49:22Z</time></trkpt><trkpt lat="45.3959983727323" lon="10.597149389710628"><ele>108.0</ele><time>2026-03-28T08:49:23Z</time></trkpt><trkpt lat="45.39610920994271" lon="10.597173131570356"><ele>108.0</ele><time>2026-03-28T08:49:24Z</time></trkpt><trkpt lat="45.39622180470168" lon="10.597196755533947"><ele>108.0</ele><time>2026-03-28T08:49:25Z</time></trkpt><trkpt lat="45.39633978288461" lon="10.597241288182504"><ele>108.0</ele><time>2026-03-28T08:49:26Z</time></trkpt><trkpt lat="45.39645017954371" lon="10.597296931594439"><ele>107.0</ele><time>2026-03-28T08:49:27Z</time></trkpt><trkpt lat="45.39656677548518" lon="10.597292064413555"><ele>106.00000000000001</ele><time>2026-03-28T08:49:28Z</time></trkpt><trkpt lat="45.39667091003034" lon="10.597245072589406"><ele>105.0</ele><time>2026-03-28T08:49:29Z</time></trkpt><trkpt lat="45.39677055306101" lon="10.597168858018293"><ele>104.0</ele><time>2026-03-28T08:49:30Z</time></trkpt><trkpt lat="45.39686483014028" lon="10.597112118533456"><ele>103.0</ele><time>2026-03-28T08:49:31Z</time></trkpt><trkpt lat="45.39696559257977" lon="10.597081500146167"><ele>103.0</ele><time>2026-03-28T08:49:32Z</time></trkpt><trkpt lat="45.39707224247276" lon="10.597071450714331"><ele>103.0</ele><time>2026-03-28T08:49:33Z</time></trkpt><trkpt lat="45.39716177106212" lon="10.597076182860478"><ele>103.0</ele><time>2026-03-28T08:49:34Z</time></trkpt><trkpt lat="45.39725930407988" lon="10.59709126266758"><ele>103.0</ele><time>2026-03-28T08:49:36Z</time></trkpt><trkpt lat="45.39726326013745" lon="10.597336871446291"><ele>103.25</ele><time>2026-03-28T08:49:42Z</time></trkpt><trkpt lat="45.39724923189331" lon="10.597508681544843"><ele>103.5</ele><time>2026-03-28T08:49:43Z</time></trkpt><trkpt lat="45.397226423295294" lon="10.597671283490328"><ele>103.75</ele><time>2026-03-28T08:49:43.999Z</time></trkpt><trkpt lat="45.39719570708509" lon="10.597849542457782"><ele>104.0</ele><time>2026-03-28T08:49:44.999Z</time></trkpt><trkpt lat="45.39717591414403" lon="10.598057633478804"><ele>103.66666666666666</ele><time>2026-03-28T08:49:45.999Z</time></trkpt><trkpt lat="45.397126948090566" lon="10.598268851228147"><ele>103.33333333333334</ele><time>2026-03-28T08:49:46.999Z</time></trkpt><trkpt lat="45.397064347895494" lon="10.598488129339199"><ele>103.0</ele><time>2026-03-28T08:49:47.999Z</time></trkpt><trkpt lat="45.39698828203509" lon="10.598709247050417"><ele>102.5</ele><time>2026-03-28T08:49:48.999Z</time></trkpt><trkpt lat="45.396926471358206" lon="10.598915179586156"><ele>102.0</ele><time>2026-03-28T08:49:49.999Z</time></trkpt><trkpt lat="45.39689781145001" lon="10.599106673328066"><ele>101.5</ele><time>2026-03-28T08:49:50.999Z</time></trkpt><trkpt lat="45.39687629279116" lon="10.599244168479816"><ele>101.0</ele><time>2026-03-28T08:49:51.999Z</time></trkpt><trkpt lat="45.396881254535394" lon="10.599340218927992"><ele>101.0</ele><time>2026-03-28T08:49:52.999Z</time></trkpt><trkpt lat="45.39688125453667" lon="10.599438894828907"><ele>101.0</ele><time>2026-03-28T08:49:53.999Z</time></trkpt><trkpt lat="45.39690710875475" lon="10.599523288043702"><ele>101.0</ele><time>2026-03-28T08:49:54.999Z</time></trkpt><trkpt lat="45.396937200533365" lon="10.599619701966065"><ele>101.0</ele><time>2026-03-28T08:49:55.999Z</time></trkpt><trkpt lat="45.39674237091488" lon="10.599810938589963"><ele>101.0</ele><time>2026-03-28T08:49:56.999Z</time></trkpt><trkpt lat="45.39667023163616" lon="10.599979659687712"><ele>101.5</ele><time>2026-03-28T08:49:57.999Z</time></trkpt><trkpt lat="45.39659179572262" lon="10.600133934655988"><ele>102.0</ele><time>2026-03-28T08:49:58.999Z</time></trkpt><trkpt lat="45.396534458725235" lon="10.600283813497283"><ele>102.5</ele><time>2026-03-28T08:49:59.999Z</time></trkpt><trkpt lat="45.39648569698004" lon="10.600447217261994"><ele>103.0</ele><time>2026-03-28T08:50:00.999Z</time></trkpt><trkpt lat="45.39642837817329" lon="10.600642355208894"><ele>102.5</ele><time>2026-03-28T08:50:01.999Z</time></trkpt><trkpt lat="45.39636827057866" lon="10.60083458863569"><ele>102.0</ele><time>2026-03-28T08:50:02.999Z</time></trkpt><trkpt lat="45.39631534759581" lon="10.601007942896686"><ele>101.5</ele><time>2026-03-28T08:50:03.999Z</time></trkpt><trkpt lat="45.39626072329422" lon="10.601171122908319"><ele>101.0</ele><time>2026-03-28T08:50:04.999Z</time></trkpt><trkpt lat="45.396200954624334" lon="10.601358436112355"><ele>101.0</ele><time>2026-03-28T08:50:05.999Z</time></trkpt><trkpt lat="45.3961411799593" lon="10.60156555726531"><ele>101.0</ele><time>2026-03-28T08:50:06.999Z</time></trkpt><trkpt lat="45.396087303530905" lon="10.60178013356936"><ele>101.0</ele><time>2026-03-28T08:50:07.999Z</time></trkpt><trkpt lat="45.39603183355714" lon="10.601997123268578"><ele>101.33333333333333</ele><time>2026-03-28T08:50:08.999Z</time></trkpt><trkpt lat="45.39597324970183" lon="10.60220628726166"><ele>101.66666666666666</ele><time>2026-03-28T08:50:09.999Z</time></trkpt><trkpt lat="45.395901485161325" lon="10.602419979403336"><ele>102.0</ele><time>2026-03-28T08:50:10.999Z</time></trkpt><trkpt lat="45.39582779954961" lon="10.602635430674413"><ele>103.0</ele><time>2026-03-28T08:50:11.999Z</time></trkpt><trkpt lat="45.39575199621866" lon="10.602870803457954"><ele>104.0</ele><time>2026-03-28T08:50:12.999Z</time></trkpt><trkpt lat="45.39567486575748" lon="10.60311681028851"><ele>105.0</ele><time>2026-03-28T08:50:13.999Z</time></trkpt><trkpt lat="45.39560284852879" lon="10.603358429631006"><ele>105.0</ele><time>2026-03-28T08:50:14.999Z</time></trkpt><trkpt lat="45.39553362458376" lon="10.603574607128143"><ele>105.0</ele><time>2026-03-28T08:50:15.999Z</time></trkpt><trkpt lat="45.39546549528352" lon="10.603765842614031"><ele>105.0</ele><time>2026-03-28T08:50:16.999Z</time></trkpt><trkpt lat="45.395409836073746" lon="10.603939383785256"><ele>103.75</ele><time>2026-03-28T08:50:17.999Z</time></trkpt><trkpt lat="45.395353344261935" lon="10.60411056183877"><ele>102.5</ele><time>2026-03-28T08:50:18.999Z</time></trkpt><trkpt lat="45.39528733211652" lon="10.60428721896148"><ele>101.25</ele><time>2026-03-28T08:50:19.999Z</time></trkpt><trkpt lat="45.39523362231199" lon="10.604469778704502"><ele>100.0</ele><time>2026-03-28T08:50:20.999Z</time></trkpt><trkpt lat="45.395181033040096" lon="10.604638949092513"><ele>100.0</ele><time>2026-03-28T08:50:21.999Z</time></trkpt><trkpt lat="45.395143336622795" lon="10.60480009642764"><ele>100.0</ele><time>2026-03-28T08:50:22.999Z</time></trkpt><trkpt lat="45.395115002104255" lon="10.604963747897061"><ele>100.0</ele><time>2026-03-28T08:50:23.999Z</time></trkpt><trkpt lat="45.395082038001625" lon="10.60515067937948"><ele>100.0</ele><time>2026-03-28T08:50:24.999Z</time></trkpt><trkpt lat="45.39504471918919" lon="10.605347899323515"><ele>100.75</ele><time>2026-03-28T08:50:25.999Z</time></trkpt><trkpt lat="45.39501448972565" lon="10.605530554463437"><ele>101.5</ele><time>2026-03-28T08:50:26.999Z</time></trkpt><trkpt lat="45.39499051740497" lon="10.605687899515612"><ele>102.25</ele><time>2026-03-28T08:50:27.999Z</time></trkpt><trkpt lat="45.39496422422362" lon="10.605838131882063"><ele>103.0</ele><time>2026-03-28T08:50:28.999Z</time></trkpt><trkpt lat="45.394919576396276" lon="10.606063857066212"><ele>102.66666666666667</ele><time>2026-03-28T08:50:29.999Z</time></trkpt><trkpt lat="45.39486704184168" lon="10.606323223623734"><ele>102.33333333333334</ele><time>2026-03-28T08:50:30.999Z</time></trkpt><trkpt lat="45.39482463568565" lon="10.606557581471455"><ele>102.0</ele><time>2026-03-28T08:50:31.999Z</time></trkpt><trkpt lat="45.39479776429561" lon="10.606772909804027"><ele>102.66666666666666</ele><time>2026-03-28T08:50:32.998Z</time></trkpt><trkpt lat="45.39477905970757" lon="10.607026728795196"><ele>103.33333333333333</ele><time>2026-03-28T08:50:33.998Z</time></trkpt><trkpt lat="45.394770158150564" lon="10.607329304639169"><ele>104.0</ele><time>2026-03-28T08:50:34.998Z</time></trkpt><trkpt lat="45.39476629518127" lon="10.607651684519674"><ele>104.0</ele><time>2026-03-28T08:50:35.998Z</time></trkpt><trkpt lat="45.394762730900084" lon="10.60797376593613"><ele>104.0</ele><time>2026-03-28T08:50:36.998Z</time></trkpt><trkpt lat="45.394754746753556" lon="10.608259330505277"><ele>104.0</ele><time>2026-03-28T08:50:37.998Z</time></trkpt><trkpt lat="45.394742295648555" lon="10.608509899841707"><ele>104.66666666666666</ele><time>2026-03-28T08:50:38.998Z</time></trkpt><trkpt lat="45.39471353395271" lon="10.608762445521482"><ele>105.33333333333334</ele><time>2026-03-28T08:50:39.998Z</time></trkpt><trkpt lat="45.39467023925616" lon="10.609007200151941"><ele>106.0</ele><time>2026-03-28T08:50:40.998Z</time></trkpt><trkpt lat="45.394604509434586" lon="10.60927037838946"><ele>103.33333333333334</ele><time>2026-03-28T08:50:41.998Z</time></trkpt><trkpt lat="45.39452223014622" lon="10.609516698418142"><ele>100.66666666666666</ele><time>2026-03-28T08:50:42.998Z</time></trkpt><trkpt lat="45.394421129825446" lon="10.60974220109158"><ele>98.0</ele><time>2026-03-28T08:50:43.998Z</time></trkpt><trkpt lat="45.39434511118895" lon="10.609919306015943"><ele>98.0</ele><time>2026-03-28T08:50:44.998Z</time></trkpt><trkpt lat="45.39429317494962" lon="10.610081417869752"><ele>98.0</ele><time>2026-03-28T08:50:45.998Z</time></trkpt><trkpt lat="45.39425968627167" lon="10.610257793723108"><ele>98.0</ele><time>2026-03-28T08:50:46.998Z</time></trkpt><trkpt lat="45.39423876974899" lon="10.610448406402853"><ele>98.0</ele><time>2026-03-28T08:50:47.998Z</time></trkpt><trkpt lat="45.39423459413254" lon="10.610634085574416"><ele>98.4</ele><time>2026-03-28T08:50:48.998Z</time></trkpt><trkpt lat="45.39424418835738" lon="10.610814813969048"><ele>98.80000000000001</ele><time>2026-03-28T08:50:49.998Z</time></trkpt><trkpt lat="45.39424429886927" lon="10.611001213318326"><ele>99.2</ele><time>2026-03-28T08:50:50.998Z</time></trkpt><trkpt lat="45.394257628404546" lon="10.611131775517054"><ele>99.6</ele><time>2026-03-28T08:50:51.998Z</time></trkpt><trkpt lat="45.39427401422332" lon="10.611227084662275"><ele>100.0</ele><time>2026-03-28T08:50:52.998Z</time></trkpt><trkpt lat="45.39429786365242" lon="10.611310191180431"><ele>100.0</ele><time>2026-03-28T08:50:54.998Z</time></trkpt><trkpt lat="45.394438828197515" lon="10.611257811293974"><ele>100.0</ele><time>2026-03-28T08:50:55.998Z</time></trkpt><trkpt lat="45.394516285136866" lon="10.611202716845229"><ele>100.0</ele><time>2026-03-28T08:50:56.998Z</time></trkpt><trkpt lat="45.39461994772382" lon="10.611121117932896"><ele>100.0</ele><time>2026-03-28T08:50:57.998Z</time></trkpt><trkpt lat="45.39474410951383" lon="10.611031404612735"><ele>103.33333333333334</ele><time>2026-03-28T08:50:58.998Z</time></trkpt><trkpt lat="45.394883192204475" lon="10.610972065523887"><ele>106.66666666666666</ele><time>2026-03-28T08:50:59.998Z</time></trkpt><trkpt lat="45.3950278444402" lon="10.610886367963754"><ele>110.0</ele><time>2026-03-28T08:51:00.998Z</time></trkpt><trkpt lat="45.39516498421536" lon="10.610781214006895"><ele>110.0</ele><time>2026-03-28T08:51:01.998Z</time></trkpt><trkpt lat="45.3953044776081" lon="10.610751842266007"><ele>110.0</ele><time>2026-03-28T08:51:02.998Z</time></trkpt><trkpt lat="45.39545808289688" lon="10.610701175787796"><ele>110.0</ele><time>2026-03-28T08:51:03.998Z</time></trkpt><trkpt lat="45.39560534682263" lon="10.61062369292021"><ele>111.0</ele><time>2026-03-28T08:51:04.998Z</time></trkpt><trkpt lat="45.395741647974326" lon="10.610575970462165"><ele>112.0</ele><time>2026-03-28T08:51:05.998Z</time></trkpt><trkpt lat="45.39584157595907" lon="10.610524590548737"><ele>113.0</ele><time>2026-03-28T08:51:06.998Z</time></trkpt><trkpt lat="45.39592346740531" lon="10.610451374895055"><ele>114.0</ele><time>2026-03-28T08:51:07.998Z</time></trkpt><trkpt lat="45.395962160212214" lon="10.610338256277892"><ele>115.0</ele><time>2026-03-28T08:51:08.998Z</time></trkpt><trkpt lat="45.39603425591746" lon="10.610230133875122"><ele>115.25</ele><time>2026-03-28T08:51:09.998Z</time></trkpt><trkpt lat="45.39611364575652" lon="10.610080112978348"><ele>115.5</ele><time>2026-03-28T08:51:10.998Z</time></trkpt><trkpt lat="45.396192593909035" lon="10.609929787404909"><ele>115.75</ele><time>2026-03-28T08:51:11.998Z</time></trkpt><trkpt lat="45.396262118224946" lon="10.609788794488239"><ele>116.0</ele><time>2026-03-28T08:51:12.998Z</time></trkpt><trkpt lat="45.396312587527646" lon="10.609669628618256"><ele>116.6</ele><time>2026-03-28T08:51:14Z</time></trkpt><trkpt lat="45.39635105831177" lon="10.609545691340744"><ele>117.19999999999999</ele><time>2026-03-28T08:51:15Z</time></trkpt><trkpt lat="45.39638507355887" lon="10.609378430863995"><ele>117.80000000000001</ele><time>2026-03-28T08:51:16Z</time></trkpt><trkpt lat="45.396437273756256" lon="10.609234294755002"><ele>118.4</ele><time>2026-03-28T08:51:17Z</time></trkpt><trkpt lat="45.39647294892739" lon="10.609139937486937"><ele>119.0</ele><time>2026-03-28T08:51:18Z</time></trkpt><trkpt lat="45.396527396399996" lon="10.609070584113676"><ele>119.2</ele><time>2026-03-28T08:51:19Z</time></trkpt><trkpt lat="45.396588443139954" lon="10.609042953235177"><ele>119.4</ele><time>2026-03-28T08:51:20Z</time></trkpt><trkpt lat="45.39667499615312" lon="10.6090404365316"><ele>119.6</ele><time>2026-03-28T08:51:21Z</time></trkpt><trkpt lat="45.39676917658852" lon="10.609065602406945"><ele>119.8</ele><time>2026-03-28T08:51:22Z</time></trkpt><trkpt lat="45.39688788280177" lon="10.609095064881076"><ele>120.0</ele><time>2026-03-28T08:51:23Z</time></trkpt><trkpt lat="45.39703773690358" lon="10.609101371634438"><ele>120.66666666666666</ele><time>2026-03-28T08:51:24Z</time></trkpt><trkpt lat="45.39720274953276" lon="10.609106808787903"><ele>121.33333333333333</ele><time>2026-03-28T08:51:25Z</time></trkpt><trkpt lat="45.39737146379596" lon="10.609104655643977"><ele>122.0</ele><time>2026-03-28T08:51:26Z</time></trkpt><trkpt lat="45.39755214781081" lon="10.609092212995009"><ele>122.0</ele><time>2026-03-28T08:51:27Z</time></trkpt><trkpt lat="45.39772561910877" lon="10.60906272714429"><ele>122.0</ele><time>2026-03-28T08:51:28Z</time></trkpt><trkpt lat="45.39787989553109" lon="10.609027017997727"><ele>122.0</ele><time>2026-03-28T08:51:29Z</time></trkpt><trkpt lat="45.39802536746361" lon="10.608967238149337"><ele>122.0</ele><time>2026-03-28T08:51:30Z</time></trkpt><trkpt lat="45.39815320679511" lon="10.608928319414495"><ele>121.99999999999999</ele><time>2026-03-28T08:51:31Z</time></trkpt><trkpt lat="45.39825519238521" lon="10.608909439344915"><ele>121.99999999999999</ele><time>2026-03-28T08:51:32Z</time></trkpt><trkpt lat="45.39833250180779" lon="10.608916575444697"><ele>122.0</ele><time>2026-03-28T08:51:33Z</time></trkpt><trkpt lat="45.39836252686305" lon="10.6091063303201"><ele>122.0</ele><time>2026-03-28T08:51:37Z</time></trkpt><trkpt lat="45.398337184374874" lon="10.609235862076712"><ele>122.0</ele><time>2026-03-28T08:51:38Z</time></trkpt><trkpt lat="45.398309079474316" lon="10.60940173478952"><ele>122.0</ele><time>2026-03-28T08:51:39Z</time></trkpt><trkpt lat="45.398279937821094" lon="10.609601909673813"><ele>122.0</ele><time>2026-03-28T08:51:40Z</time></trkpt><trkpt lat="45.39825390863942" lon="10.609814072607541"><ele>122.0</ele><time>2026-03-28T08:51:41Z</time></trkpt><trkpt lat="45.398225424344105" lon="10.61004606434218"><ele>123.0</ele><time>2026-03-28T08:51:42Z</time></trkpt><trkpt lat="45.3982070987545" lon="10.610310899394442"><ele>124.0</ele><time>2026-03-28T08:51:43Z</time></trkpt><trkpt lat="45.398160514200285" lon="10.610585654180154"><ele>125.0</ele><time>2026-03-28T08:51:44Z</time></trkpt><trkpt lat="45.398109837480796" lon="10.610874816498773"><ele>125.66666666666666</ele><time>2026-03-28T08:51:45Z</time></trkpt><trkpt lat="45.398026062376125" lon="10.611163858656022"><ele>126.33333333333334</ele><time>2026-03-28T08:51:46Z</time></trkpt><trkpt lat="45.397950816420455" lon="10.611453481926628"><ele>127.0</ele><time>2026-03-28T08:51:47Z</time></trkpt><trkpt lat="45.39784889429872" lon="10.611730921945377"><ele>124.0</ele><time>2026-03-28T08:51:48Z</time></trkpt><trkpt lat="45.39775201654353" lon="10.611990277898679"><ele>121.0</ele><time>2026-03-28T08:51:48.999Z</time></trkpt><trkpt lat="45.397669150354496" lon="10.612235757802614"><ele>118.0</ele><time>2026-03-28T08:51:49.999Z</time></trkpt><trkpt lat="45.397594237698215" lon="10.61248860863074"><ele>118.0</ele><time>2026-03-28T08:51:50.999Z</time></trkpt><trkpt lat="45.39754398754813" lon="10.612748318225497"><ele>118.0</ele><time>2026-03-28T08:51:51.999Z</time></trkpt><trkpt lat="45.39752592254841" lon="10.613015428733018"><ele>118.0</ele><time>2026-03-28T08:51:52.999Z</time></trkpt><trkpt lat="45.397536093690135" lon="10.613291075221124"><ele>118.0</ele><time>2026-03-28T08:51:53.999Z</time></trkpt><trkpt lat="45.39755912879196" lon="10.61357287229274"><ele>118.0</ele><time>2026-03-28T08:51:54.999Z</time></trkpt><trkpt lat="45.39755900650554" lon="10.613860399233106"><ele>118.0</ele><time>2026-03-28T08:51:55.999Z</time></trkpt><trkpt lat="45.39756913303577" lon="10.61414670327571"><ele>118.0</ele><time>2026-03-28T08:51:56.999Z</time></trkpt><trkpt lat="45.39759233222655" lon="10.614435023596082"><ele>118.0</ele><time>2026-03-28T08:51:57.999Z</time></trkpt><trkpt lat="45.39759493841162" lon="10.614718618196171"><ele>118.0</ele><time>2026-03-28T08:51:58.999Z</time></trkpt><trkpt lat="45.39759524260903" lon="10.61500904403236"><ele>118.0</ele><time>2026-03-28T08:51:59.999Z</time></trkpt><trkpt lat="45.39759469772522" lon="10.615297131063013"><ele>118.0</ele><time>2026-03-28T08:52:00.999Z</time></trkpt><trkpt lat="45.397571834345506" lon="10.615585412654081"><ele>118.0</ele><time>2026-03-28T08:52:01.999Z</time></trkpt><trkpt lat="45.39755971648377" lon="10.615877337629975"><ele>117.33333333333334</ele><time>2026-03-28T08:52:02.999Z</time></trkpt><trkpt lat="45.397545060428705" lon="10.61615551188774"><ele>116.66666666666666</ele><time>2026-03-28T08:52:03.999Z</time></trkpt><trkpt lat="45.39753074239997" lon="10.61642389332637"><ele>116.0</ele><time>2026-03-28T08:52:04.999Z</time></trkpt><trkpt lat="45.39753060417316" lon="10.616682564409428"><ele>116.0</ele><time>2026-03-28T08:52:05.999Z</time></trkpt><trkpt lat="45.39751637582317" lon="10.616927546264808"><ele>116.0</ele><time>2026-03-28T08:52:06.999Z</time></trkpt><trkpt lat="45.39750438236276" lon="10.617174562155778"><ele>116.0</ele><time>2026-03-28T08:52:07.999Z</time></trkpt><trkpt lat="45.397493438474456" lon="10.61740305645137"><ele>115.33333333333333</ele><time>2026-03-28T08:52:08.999Z</time></trkpt><trkpt lat="45.397479859016315" lon="10.617633988058762"><ele>114.66666666666666</ele><time>2026-03-28T08:52:09.999Z</time></trkpt><trkpt lat="45.39746777321921" lon="10.61784857485032"><ele>114.0</ele><time>2026-03-28T08:52:10.999Z</time></trkpt><trkpt lat="45.397455815307254" lon="10.618058486970954"><ele>113.25</ele><time>2026-03-28T08:52:11.999Z</time></trkpt><trkpt lat="45.397446898270516" lon="10.61825622626388"><ele>112.5</ele><time>2026-03-28T08:52:12.999Z</time></trkpt><trkpt lat="45.39743568465141" lon="10.618442480708676"><ele>111.75</ele><time>2026-03-28T08:52:13.999Z</time></trkpt><trkpt lat="45.397426394920195" lon="10.618622041303164"><ele>111.0</ele><time>2026-03-28T08:52:14.999Z</time></trkpt><trkpt lat="45.397413684505146" lon="10.618798867517961"><ele>109.6</ele><time>2026-03-28T08:52:15.999Z</time></trkpt><trkpt lat="45.397397002953696" lon="10.618960450332338"><ele>108.19999999999999</ele><time>2026-03-28T08:52:16.999Z</time></trkpt><trkpt lat="45.39736267052105" lon="10.619099645541398"><ele>106.80000000000001</ele><time>2026-03-28T08:52:17.999Z</time></trkpt><trkpt lat="45.397331312181365" lon="10.619245872934176"><ele>105.4</ele><time>2026-03-28T08:52:18.999Z</time></trkpt><trkpt lat="45.397297226487524" lon="10.619385419739396"><ele>104.0</ele><time>2026-03-28T08:52:19.999Z</time></trkpt><trkpt lat="45.39725329879709" lon="10.619523216435429"><ele>103.0</ele><time>2026-03-28T08:52:20.999Z</time></trkpt><trkpt lat="45.39719840363919" lon="10.61966605926121"><ele>102.0</ele><time>2026-03-28T08:52:21.999Z</time></trkpt><trkpt lat="45.39713310782203" lon="10.619806292221092"><ele>101.0</ele><time>2026-03-28T08:52:22.999Z</time></trkpt><trkpt lat="45.39705985655533" lon="10.619935400934295"><ele>100.0</ele><time>2026-03-28T08:52:23.999Z</time></trkpt><trkpt lat="45.39698359554259" lon="10.62005256039832"><ele>100.0</ele><time>2026-03-28T08:52:24.999Z</time></trkpt><trkpt lat="45.39689273902702" lon="10.62013918781695"><ele>100.0</ele><time>2026-03-28T08:52:25.999Z</time></trkpt><trkpt lat="45.39681983547714" lon="10.62025163149169"><ele>100.0</ele><time>2026-03-28T08:52:26.999Z</time></trkpt><trkpt lat="45.39673788573632" lon="10.620341818457872"><ele>100.0</ele><time>2026-03-28T08:52:27.999Z</time></trkpt><trkpt lat="45.3966586242454" lon="10.620430751232082"><ele>100.0</ele><time>2026-03-28T08:52:28.999Z</time></trkpt><trkpt lat="45.39658329743138" lon="10.620517109232395"><ele>99.50000000000001</ele><time>2026-03-28T08:52:29.999Z</time></trkpt><trkpt lat="45.39651405624985" lon="10.620601051727935"><ele>99.0</ele><time>2026-03-28T08:52:30.999Z</time></trkpt><trkpt lat="45.39644922002067" lon="10.620675702683723"><ele>98.5</ele><time>2026-03-28T08:52:31.999Z</time></trkpt><trkpt lat="45.396381964006004" lon="10.620751823382996"><ele>98.0</ele><time>2026-03-28T08:52:32.999Z</time></trkpt><trkpt lat="45.396319346983105" lon="10.620816679828408"><ele>97.50000000000001</ele><time>2026-03-28T08:52:33.999Z</time></trkpt><trkpt lat="45.39626626722221" lon="10.620885951795875"><ele>97.0</ele><time>2026-03-28T08:52:34.999Z</time></trkpt><trkpt lat="45.39621104513528" lon="10.620941419811786"><ele>96.19999999999999</ele><time>2026-03-28T08:52:35.999Z</time></trkpt><trkpt lat="45.39611580700685" lon="10.621046416246593"><ele>95.4</ele><time>2026-03-28T08:52:37.999Z</time></trkpt><trkpt lat="45.3960418418137" lon="10.621137322011899"><ele>94.6</ele><time>2026-03-28T08:52:39.998Z</time></trkpt><trkpt lat="45.39599080116769" lon="10.621204176449053"><ele>93.80000000000001</ele><time>2026-03-28T08:52:42.998Z</time></trkpt><trkpt lat="45.395914231058185" lon="10.621265214573592"><ele>93.0</ele><time>2026-03-28T08:52:46.998Z</time></trkpt><trkpt lat="45.395852834765165" lon="10.621333041301604"><ele>93.0</ele><time>2026-03-28T08:52:48.998Z</time></trkpt><trkpt lat="45.395769818115426" lon="10.621401534428955"><ele>93.0</ele><time>2026-03-28T08:52:50.998Z</time></trkpt><trkpt lat="45.39573996501511" lon="10.621227265765432"><ele>93.0</ele><time>2026-03-28T08:52:54.998Z</time></trkpt><trkpt lat="45.395742391817045" lon="10.621079147876545"><ele>93.0</ele><time>2026-03-28T08:52:55.998Z</time></trkpt><trkpt lat="45.395735729756886" lon="10.620893405123796"><ele>93.0</ele><time>2026-03-28T08:52:56.998Z</time></trkpt><trkpt lat="45.39574129746883" lon="10.62067911844672"><ele>93.0</ele><time>2026-03-28T08:52:57.998Z</time></trkpt><trkpt lat="45.395730114566135" lon="10.620450069125587"><ele>93.0</ele><time>2026-03-28T08:52:58.998Z</time></trkpt><trkpt lat="45.395697090211286" lon="10.620214422168585"><ele>93.0</ele><time>2026-03-28T08:52:59.998Z</time></trkpt><trkpt lat="45.39563779975877" lon="10.619984764023021"><ele>93.0</ele><time>2026-03-28T08:53:00.998Z</time></trkpt><trkpt lat="45.39556379658732" lon="10.619768115882652"><ele>93.0</ele><time>2026-03-28T08:53:01.998Z</time></trkpt><trkpt lat="45.39548283143909" lon="10.619547369471587"><ele>93.33333333333333</ele><time>2026-03-28T08:53:02.998Z</time></trkpt><trkpt lat="45.395397689367805" lon="10.619309523998474"><ele>93.66666666666666</ele><time>2026-03-28T08:53:03.998Z</time></trkpt><trkpt lat="45.39531376039149" lon="10.619068833310576"><ele>94.0</ele><time>2026-03-28T08:53:04.998Z</time></trkpt><trkpt lat="45.395223325645794" lon="10.618817488510194"><ele>95.0</ele><time>2026-03-28T08:53:05.998Z</time></trkpt><trkpt lat="45.39513435011903" lon="10.618562530503876"><ele>96.0</ele><time>2026-03-28T08:53:06.998Z</time></trkpt><trkpt lat="45.39504696548254" lon="10.618308794433746"><ele>97.0</ele><time>2026-03-28T08:53:07.998Z</time></trkpt><trkpt lat="45.3949563363448" lon="10.618054991847755"><ele>96.0</ele><time>2026-03-28T08:53:08.998Z</time></trkpt><trkpt lat="45.394862947993" lon="10.617808744714072"><ele>95.0</ele><time>2026-03-28T08:53:09.998Z</time></trkpt><trkpt lat="45.39476504921276" lon="10.61756390061244"><ele>94.0</ele><time>2026-03-28T08:53:10.998Z</time></trkpt><trkpt lat="45.39465750076222" lon="10.61732720650871"><ele>94.0</ele><time>2026-03-28T08:53:11.998Z</time></trkpt><trkpt lat="45.3945421158272" lon="10.617091172072719"><ele>94.0</ele><time>2026-03-28T08:53:12.998Z</time></trkpt><trkpt lat="45.39442296076023" lon="10.616858028967199"><ele>94.0</ele><time>2026-03-28T08:53:13.998Z</time></trkpt><trkpt lat="45.394302265445695" lon="10.616625724416279"><ele>96.0</ele><time>2026-03-28T08:53:14.998Z</time></trkpt><trkpt lat="45.39418559748819" lon="10.61639759369881"><ele>98.0</ele><time>2026-03-28T08:53:15.998Z</time></trkpt><trkpt lat="45.39407289112123" lon="10.61616526576515"><ele>100.0</ele><time>2026-03-28T08:53:16.998Z</time></trkpt><trkpt lat="45.393969798223345" lon="10.61593208414932"><ele>100.66666666666667</ele><time>2026-03-28T08:53:17.998Z</time></trkpt><trkpt lat="45.39387169378525" lon="10.615689359418452"><ele>101.33333333333334</ele><time>2026-03-28T08:53:18.998Z</time></trkpt><trkpt lat="45.39378193804734" lon="10.61543648366498"><ele>102.0</ele><time>2026-03-28T08:53:20Z</time></trkpt><trkpt lat="45.393690716158765" lon="10.615184377981661"><ele>101.0</ele><time>2026-03-28T08:53:21Z</time></trkpt><trkpt lat="45.393597512860495" lon="10.614929519902596"><ele>100.0</ele><time>2026-03-28T08:53:22Z</time></trkpt><trkpt lat="45.39350377037819" lon="10.614677012345693"><ele>99.0</ele><time>2026-03-28T08:53:23Z</time></trkpt><trkpt lat="45.39341045150877" lon="10.614426408766668"><ele>99.0</ele><time>2026-03-28T08:53:24Z</time></trkpt><trkpt lat="45.39331104471728" lon="10.614173320414459"><ele>99.0</ele><time>2026-03-28T08:53:25Z</time></trkpt><trkpt lat="45.39321205274441" lon="10.61391973386131"><ele>99.0</ele><time>2026-03-28T08:53:26Z</time></trkpt><trkpt lat="45.39311236145229" lon="10.61368222103743"><ele>99.0</ele><time>2026-03-28T08:53:27Z</time></trkpt><trkpt lat="45.39303245161941" lon="10.613452527800415"><ele>99.0</ele><time>2026-03-28T08:53:28Z</time></trkpt><trkpt lat="45.392933565838185" lon="10.613253161097628"><ele>99.0</ele><time>2026-03-28T08:53:29Z</time></trkpt><trkpt lat="45.39281817485268" lon="10.613094706943919"><ele>97.5</ele><time>2026-03-28T08:53:30Z</time></trkpt><trkpt lat="45.392721308269394" lon="10.61293876770961"><ele>96.0</ele><time>2026-03-28T08:53:31Z</time></trkpt><trkpt lat="45.392624257626665" lon="10.612790769459178"><ele>94.5</ele><time>2026-03-28T08:53:32Z</time></trkpt><trkpt lat="45.39253446722388" lon="10.612653139143656"><ele>93.0</ele><time>2026-03-28T08:53:33Z</time></trkpt><trkpt lat="45.392448709613916" lon="10.612524270623833"><ele>93.0</ele><time>2026-03-28T08:53:34Z</time></trkpt><trkpt lat="45.39237396575003" lon="10.612409274902445"><ele>93.0</ele><time>2026-03-28T08:53:35Z</time></trkpt><trkpt lat="45.39230707949508" lon="10.612307537883733"><ele>93.0</ele><time>2026-03-28T08:53:36Z</time></trkpt><trkpt lat="45.39224673125472" lon="10.612211107179876"><ele>93.0</ele><time>2026-03-28T08:53:37Z</time></trkpt><trkpt lat="45.39220043615025" lon="10.612115300436383"><ele>93.0</ele><time>2026-03-28T08:53:38Z</time></trkpt><trkpt lat="45.39215596840143" lon="10.612046413696675"><ele>93.0</ele><time>2026-03-28T08:53:39Z</time></trkpt><trkpt lat="45.39198975313515" lon="10.612060310192486"><ele>93.5</ele><time>2026-03-28T08:53:40Z</time></trkpt><trkpt lat="45.39186747529627" lon="10.61209180276198"><ele>94.0</ele><time>2026-03-28T08:53:41Z</time></trkpt><trkpt lat="45.39173582313919" lon="10.612125707278812"><ele>94.5</ele><time>2026-03-28T08:53:42Z</time></trkpt><trkpt lat="45.39157872714192" lon="10.612169210695678"><ele>95.0</ele><time>2026-03-28T08:53:43Z</time></trkpt><trkpt lat="45.391418463494226" lon="10.6122055097844"><ele>95.66666666666667</ele><time>2026-03-28T08:53:44Z</time></trkpt><trkpt lat="45.39125475319703" lon="10.612239405445308"><ele>96.33333333333334</ele><time>2026-03-28T08:53:45Z</time></trkpt><trkpt lat="45.39109564145252" lon="10.612255675675883"><ele>97.0</ele><time>2026-03-28T08:53:46Z</time></trkpt><trkpt lat="45.39094100486526" lon="10.612235904332135"><ele>97.0</ele><time>2026-03-28T08:53:47Z</time></trkpt><trkpt lat="45.39078934654041" lon="10.61218097375952"><ele>97.0</ele><time>2026-03-28T08:53:48Z</time></trkpt><trkpt lat="45.390633395169495" lon="10.612093399498303"><ele>97.0</ele><time>2026-03-28T08:53:49Z</time></trkpt><trkpt lat="45.3904763118145" lon="10.612007710462235"><ele>97.33333333333334</ele><time>2026-03-28T08:53:50Z</time></trkpt><trkpt lat="45.39030937404971" lon="10.611939225682741"><ele>97.66666666666666</ele><time>2026-03-28T08:53:51Z</time></trkpt><trkpt lat="45.3901448441266" lon="10.611846547591274"><ele>98.0</ele><time>2026-03-28T08:53:52Z</time></trkpt><trkpt lat="45.3899783443834" lon="10.611728321297058"><ele>98.0</ele><time>2026-03-28T08:53:53Z</time></trkpt><trkpt lat="45.38980678447167" lon="10.611630945444425"><ele>98.0</ele><time>2026-03-28T08:53:54Z</time></trkpt><trkpt lat="45.389631051591415" lon="10.611537584371778"><ele>98.0</ele><time>2026-03-28T08:53:55Z</time></trkpt><trkpt lat="45.38945245171122" lon="10.611473029095626"><ele>98.33333333333333</ele><time>2026-03-28T08:53:56Z</time></trkpt><trkpt lat="45.38928301000867" lon="10.611371253317559"><ele>98.66666666666666</ele><time>2026-03-28T08:53:56.999Z</time></trkpt><trkpt lat="45.38910240653749" lon="10.61131184139882"><ele>99.0</ele><time>2026-03-28T08:53:57.999Z</time></trkpt><trkpt lat="45.388915615484024" lon="10.611277373444508"><ele>99.0</ele><time>2026-03-28T08:53:58.999Z</time></trkpt><trkpt lat="45.388723120809985" lon="10.6112527227199"><ele>99.0</ele><time>2026-03-28T08:53:59.999Z</time></trkpt><trkpt lat="45.388534618048574" lon="10.611228431231416"><ele>99.0</ele><time>2026-03-28T08:54:00.999Z</time></trkpt><trkpt lat="45.388347442694965" lon="10.611203249014267"><ele>99.0</ele><time>2026-03-28T08:54:01.999Z</time></trkpt><trkpt lat="45.38815668367293" lon="10.61117950988432"><ele>99.0</ele><time>2026-03-28T08:54:02.999Z</time></trkpt><trkpt lat="45.38796202725409" lon="10.61115585655674"><ele>99.0</ele><time>2026-03-28T08:54:03.999Z</time></trkpt><trkpt lat="45.387773599576235" lon="10.611132960109783"><ele>99.0</ele><time>2026-03-28T08:54:04.999Z</time></trkpt><trkpt lat="45.38758517843116" lon="10.61110797101864"><ele>99.0</ele><time>2026-03-28T08:54:05.999Z</time></trkpt><trkpt lat="45.38740012913473" lon="10.611083589596905"><ele>99.0</ele><time>2026-03-28T08:54:06.999Z</time></trkpt><trkpt lat="45.387221819484296" lon="10.611060427105315"><ele>99.33333333333334</ele><time>2026-03-28T08:54:07.999Z</time></trkpt><trkpt lat="45.387033698963926" lon="10.611036017597169"><ele>99.66666666666667</ele><time>2026-03-28T08:54:08.999Z</time></trkpt><trkpt lat="45.38684927522558" lon="10.61101208578023"><ele>100.0</ele><time>2026-03-28T08:54:09.999Z</time></trkpt><trkpt lat="45.38666831868804" lon="10.610987919079827"><ele>100.0</ele><time>2026-03-28T08:54:10.999Z</time></trkpt><trkpt lat="45.386498943407936" lon="10.610961861803858"><ele>100.0</ele><time>2026-03-28T08:54:11.999Z</time></trkpt><trkpt lat="45.386338081672776" lon="10.610962919604207"><ele>100.0</ele><time>2026-03-28T08:54:12.999Z</time></trkpt><trkpt lat="45.386184034286934" lon="10.610943681467575"><ele>100.25</ele><time>2026-03-28T08:54:13.999Z</time></trkpt><trkpt lat="45.386043358429724" lon="10.610905913408763"><ele>100.5</ele><time>2026-03-28T08:54:14.999Z</time></trkpt><trkpt lat="45.3859035636167" lon="10.61093571528452"><ele>100.75</ele><time>2026-03-28T08:54:15.999Z</time></trkpt><trkpt lat="45.38576138263663" lon="10.611007851082809"><ele>101.0</ele><time>2026-03-28T08:54:16.999Z</time></trkpt><trkpt lat="45.3856233572087" lon="10.611125670250878"><ele>101.66666666666666</ele><time>2026-03-28T08:54:17.999Z</time></trkpt><trkpt lat="45.38550772365229" lon="10.611273404768127"><ele>102.33333333333334</ele><time>2026-03-28T08:54:18.999Z</time></trkpt><trkpt lat="45.38536918306722" lon="10.611396554702013"><ele>103.0</ele><time>2026-03-28T08:54:19.999Z</time></trkpt><trkpt lat="45.38524847412919" lon="10.611544460999845"><ele>103.0</ele><time>2026-03-28T08:54:20.999Z</time></trkpt><trkpt lat="45.385103806699355" lon="10.611691926131732"><ele>103.0</ele><time>2026-03-28T08:54:21.999Z</time></trkpt><trkpt lat="45.384942182029434" lon="10.611781687304306"><ele>103.0</ele><time>2026-03-28T08:54:22.999Z</time></trkpt><trkpt lat="45.384778770636274" lon="10.611872052126232"><ele>103.33333333333334</ele><time>2026-03-28T08:54:23.999Z</time></trkpt><trkpt lat="45.38461085509634" lon="10.611955129426551"><ele>103.66666666666666</ele><time>2026-03-28T08:54:24.999Z</time></trkpt><trkpt lat="45.384442081649496" lon="10.612041153644563"><ele>104.0</ele><time>2026-03-28T08:54:25.999Z</time></trkpt><trkpt lat="45.38428378969342" lon="10.612147562910502"><ele>104.33333333333333</ele><time>2026-03-28T08:54:26.999Z</time></trkpt><trkpt lat="45.38412432576988" lon="10.612228683805952"><ele>104.66666666666666</ele><time>2026-03-28T08:54:27.999Z</time></trkpt><trkpt lat="45.383956391484595" lon="10.612315434006122"><ele>105.0</ele><time>2026-03-28T08:54:28.999Z</time></trkpt><trkpt lat="45.3837907217515" lon="10.612377158779587"><ele>104.33333333333334</ele><time>2026-03-28T08:54:29.999Z</time></trkpt><trkpt lat="45.38362787531416" lon="10.612466534848828"><ele>103.66666666666667</ele><time>2026-03-28T08:54:30.999Z</time></trkpt><trkpt lat="45.38347253815597" lon="10.612562299679327"><ele>103.0</ele><time>2026-03-28T08:54:31.999Z</time></trkpt><trkpt lat="45.38332303983967" lon="10.612681870797802"><ele>103.0</ele><time>2026-03-28T08:54:32.999Z</time></trkpt><trkpt lat="45.383181640002825" lon="10.612814452443335"><ele>103.0</ele><time>2026-03-28T08:54:33.999Z</time></trkpt><trkpt lat="45.38305005009185" lon="10.612945369867855"><ele>103.0</ele><time>2026-03-28T08:54:34.999Z</time></trkpt><trkpt lat="45.38292115843113" lon="10.613084438961197"><ele>103.0</ele><time>2026-03-28T08:54:35.999Z</time></trkpt><trkpt lat="45.38279677256889" lon="10.613236859515707"><ele>103.0</ele><time>2026-03-28T08:54:36.999Z</time></trkpt><trkpt lat="45.382681407224375" lon="10.613416298750368"><ele>103.0</ele><time>2026-03-28T08:54:37.999Z</time></trkpt><trkpt lat="45.38256197751494" lon="10.6135813841405"><ele>102.66666666666667</ele><time>2026-03-28T08:54:38.999Z</time></trkpt><trkpt lat="45.38243223260978" lon="10.61372172686086"><ele>102.33333333333334</ele><time>2026-03-28T08:54:39.999Z</time></trkpt><trkpt lat="45.382313797349845" lon="10.613883077297361"><ele>102.0</ele><time>2026-03-28T08:54:40.999Z</time></trkpt><trkpt lat="45.38219374784614" lon="10.614046626829303"><ele>102.19999999999999</ele><time>2026-03-28T08:54:41.999Z</time></trkpt><trkpt lat="45.382096108369744" lon="10.61417964628161"><ele>102.4</ele><time>2026-03-28T08:54:42.999Z</time></trkpt><trkpt lat="45.3820268068856" lon="10.614274060553786"><ele>102.6</ele><time>2026-03-28T08:54:43.999Z</time></trkpt><trkpt lat="45.3819736207491" lon="10.614346518749757"><ele>102.80000000000001</ele><time>2026-03-28T08:54:44.999Z</time></trkpt><trkpt lat="45.38189822744133" lon="10.614448577391448"><ele>103.0</ele><time>2026-03-28T08:54:46.999Z</time></trkpt><trkpt lat="45.381838244023285" lon="10.614539503183465"><ele>103.0</ele><time>2026-03-28T08:54:48.998Z</time></trkpt><trkpt lat="45.38177542226707" lon="10.614645813986426"><ele>103.0</ele><time>2026-03-28T08:54:49.998Z</time></trkpt><trkpt lat="45.38197550178749" lon="10.615178145527578"><ele>103.33333333333334</ele><time>2026-03-28T08:54:50.998Z</time></trkpt><trkpt lat="45.38196361161254" lon="10.6154255563525"><ele>103.66666666666666</ele><time>2026-03-28T08:54:51.998Z</time></trkpt><trkpt lat="45.38195926613243" lon="10.615679608757238"><ele>104.0</ele><time>2026-03-28T08:54:52.998Z</time></trkpt><trkpt lat="45.3819539637768" lon="10.615930523136996"><ele>103.66666666666666</ele><time>2026-03-28T08:54:53.998Z</time></trkpt><trkpt lat="45.381946606422346" lon="10.616180728443279"><ele>103.33333333333334</ele><time>2026-03-28T08:54:54.998Z</time></trkpt><trkpt lat="45.38194670338394" lon="10.616404347316111"><ele>103.0</ele><time>2026-03-28T08:54:55.998Z</time></trkpt><trkpt lat="45.38194032302251" lon="10.616595647514394"><ele>103.0</ele><time>2026-03-28T08:54:56.998Z</time></trkpt><trkpt lat="45.38193187453339" lon="10.61677688635304"><ele>103.0</ele><time>2026-03-28T08:54:57.998Z</time></trkpt><trkpt lat="45.3819236410735" lon="10.61699006997833"><ele>103.0</ele><time>2026-03-28T08:54:58.998Z</time></trkpt><trkpt lat="45.381913051230754" lon="10.617202820118669"><ele>103.0</ele><time>2026-03-28T08:54:59.998Z</time></trkpt><trkpt lat="45.38191175431855" lon="10.617408627664538"><ele>102.75</ele><time>2026-03-28T08:55:00.998Z</time></trkpt><trkpt lat="45.38191787143847" lon="10.617607904381343"><ele>102.5</ele><time>2026-03-28T08:55:01.998Z</time></trkpt><trkpt lat="45.38192284588618" lon="10.61778850589082"><ele>102.25</ele><time>2026-03-28T08:55:02.998Z</time></trkpt><trkpt lat="45.3819379180868" lon="10.617953419104857"><ele>102.0</ele><time>2026-03-28T08:55:03.998Z</time></trkpt><trkpt lat="45.381978772180645" lon="10.618120862742467"><ele>102.0</ele><time>2026-03-28T08:55:04.998Z</time></trkpt><trkpt lat="45.38201378925666" lon="10.618327674718449"><ele>102.0</ele><time>2026-03-28T08:55:05.998Z</time></trkpt><trkpt lat="45.382032050677914" lon="10.618526049007958"><ele>102.0</ele><time>2026-03-28T08:55:06.998Z</time></trkpt><trkpt lat="45.38204977420697" lon="10.618733797812693"><ele>102.0</ele><time>2026-03-28T08:55:07.998Z</time></trkpt><trkpt lat="45.38209310223476" lon="10.61891952379404"><ele>102.39999999999999</ele><time>2026-03-28T08:55:08.998Z</time></trkpt><trkpt lat="45.38213206092932" lon="10.619064600759497"><ele>102.8</ele><time>2026-03-28T08:55:09.998Z</time></trkpt><trkpt lat="45.38214837789928" lon="10.619237681953715"><ele>103.2</ele><time>2026-03-28T08:55:10.998Z</time></trkpt><trkpt lat="45.382152362187064" lon="10.619367913008245"><ele>103.6</ele><time>2026-03-28T08:55:11.998Z</time></trkpt><trkpt lat="45.3821233400405" lon="10.619508996501635"><ele>104.0</ele><time>2026-03-28T08:55:12.998Z</time></trkpt><trkpt lat="45.38206674769303" lon="10.619701079356028"><ele>104.0</ele><time>2026-03-28T08:55:13.998Z</time></trkpt><trkpt lat="45.38200964446516" lon="10.619894552893504"><ele>104.0</ele><time>2026-03-28T08:55:14.998Z</time></trkpt><trkpt lat="45.381942985610785" lon="10.620094642276381"><ele>104.0</ele><time>2026-03-28T08:55:15.998Z</time></trkpt><trkpt lat="45.38189235493493" lon="10.620261897730758"><ele>104.0</ele><time>2026-03-28T08:55:16.998Z</time></trkpt><trkpt lat="45.38183782824435" lon="10.620401146779463"><ele>103.25</ele><time>2026-03-28T08:55:17.998Z</time></trkpt><trkpt lat="45.38179085615536" lon="10.620537489518755"><ele>102.5</ele><time>2026-03-28T08:55:18.998Z</time></trkpt><trkpt lat="45.38176396214601" lon="10.620670794385838"><ele>101.75</ele><time>2026-03-28T08:55:19.998Z</time></trkpt><trkpt lat="45.38173438784569" lon="10.620892261823837"><ele>101.0</ele><time>2026-03-28T08:55:20.998Z</time></trkpt><trkpt lat="45.38174829261629" lon="10.621111319708877"><ele>100.66666666666666</ele><time>2026-03-28T08:55:21.998Z</time></trkpt><trkpt lat="45.38174743220458" lon="10.621351885923259"><ele>100.33333333333334</ele><time>2026-03-28T08:55:22.998Z</time></trkpt><trkpt lat="45.381753713479426" lon="10.621568554467594"><ele>100.0</ele><time>2026-03-28T08:55:23.998Z</time></trkpt><trkpt lat="45.38175841233916" lon="10.621791868038217"><ele>100.0</ele><time>2026-03-28T08:55:24.998Z</time></trkpt><trkpt lat="45.381744096424825" lon="10.622007802722068"><ele>100.0</ele><time>2026-03-28T08:55:26Z</time></trkpt><trkpt lat="45.38172910676469" lon="10.622209587940526"><ele>100.0</ele><time>2026-03-28T08:55:27Z</time></trkpt><trkpt lat="45.38172456759389" lon="10.622396255144402"><ele>100.0</ele><time>2026-03-28T08:55:28Z</time></trkpt><trkpt lat="45.38171127759628" lon="10.622636515948457"><ele>100.0</ele><time>2026-03-28T08:55:29Z</time></trkpt><trkpt lat="45.38168410354152" lon="10.622861089023353"><ele>100.0</ele><time>2026-03-28T08:55:30Z</time></trkpt><trkpt lat="45.38166383438499" lon="10.623060802425465"><ele>100.0</ele><time>2026-03-28T08:55:31Z</time></trkpt><trkpt lat="45.38165263957532" lon="10.62321954662799"><ele>100.0</ele><time>2026-03-28T08:55:32Z</time></trkpt><trkpt lat="45.381673789074924" lon="10.623387744489012"><ele>100.0</ele><time>2026-03-28T08:55:33Z</time></trkpt><trkpt lat="45.38169432198131" lon="10.623616254598206"><ele>100.0</ele><time>2026-03-28T08:55:34Z</time></trkpt><trkpt lat="45.38166194142054" lon="10.623855921156244"><ele>100.0</ele><time>2026-03-28T08:55:35Z</time></trkpt><trkpt lat="45.381637112176705" lon="10.624128848867688"><ele>100.33333333333334</ele><time>2026-03-28T08:55:36Z</time></trkpt><trkpt lat="45.38162855980319" lon="10.62440912614482"><ele>100.66666666666666</ele><time>2026-03-28T08:55:37Z</time></trkpt><trkpt lat="45.38162327424416" lon="10.624700104355213"><ele>101.0</ele><time>2026-03-28T08:55:38Z</time></trkpt><trkpt lat="45.381616636937174" lon="10.624986100707895"><ele>100.66666666666666</ele><time>2026-03-28T08:55:39Z</time></trkpt><trkpt lat="45.38160179727611" lon="10.625255316301205"><ele>100.33333333333334</ele><time>2026-03-28T08:55:40Z</time></trkpt><trkpt lat="45.381564475903836" lon="10.625503357148034"><ele>100.0</ele><time>2026-03-28T08:55:41Z</time></trkpt><trkpt lat="45.38151559585964" lon="10.625788867699375"><ele>100.0</ele><time>2026-03-28T08:55:42Z</time></trkpt><trkpt lat="45.38147685375433" lon="10.626121096520118"><ele>100.0</ele><time>2026-03-28T08:55:43Z</time></trkpt><trkpt lat="45.38140935267022" lon="10.626433112689138"><ele>100.33333333333334</ele><time>2026-03-28T08:55:44Z</time></trkpt><trkpt lat="45.38136804355257" lon="10.62671006215876"><ele>100.66666666666666</ele><time>2026-03-28T08:55:45Z</time></trkpt><trkpt lat="45.381324654663" lon="10.62701067182025"><ele>101.0</ele><time>2026-03-28T08:55:46Z</time></trkpt><trkpt lat="45.38129883025826" lon="10.62728756075593"><ele>100.8</ele><time>2026-03-28T08:55:47Z</time></trkpt><trkpt lat="45.38127189887479" lon="10.627437900551904"><ele>100.6</ele><time>2026-03-28T08:55:48Z</time></trkpt><trkpt lat="45.38124706438086" lon="10.6275695037305"><ele>100.4</ele><time>2026-03-28T08:55:49Z</time></trkpt><trkpt lat="45.381186479760856" lon="10.627754429996388"><ele>100.2</ele><time>2026-03-28T08:55:50Z</time></trkpt><trkpt lat="45.38115027660623" lon="10.627848561314394"><ele>100.0</ele><time>2026-03-28T08:55:51Z</time></trkpt><trkpt lat="45.381084127055566" lon="10.6278557236764"><ele>100.0</ele><time>2026-03-28T08:55:53Z</time></trkpt><trkpt lat="45.38089583207505" lon="10.627935250946345"><ele>100.0</ele><time>2026-03-28T08:55:55Z</time></trkpt><trkpt lat="45.3807226355519" lon="10.627992308396035"><ele>100.0</ele><time>2026-03-28T08:55:56Z</time></trkpt><trkpt lat="45.38054477335676" lon="10.628079074937068"><ele>102.66666666666667</ele><time>2026-03-28T08:55:57Z</time></trkpt><trkpt lat="45.38037929403271" lon="10.628187823053768"><ele>105.33333333333334</ele><time>2026-03-28T08:55:58Z</time></trkpt><trkpt lat="45.38025584880874" lon="10.628273068259492"><ele>108.0</ele><time>2026-03-28T08:55:59Z</time></trkpt><trkpt lat="45.38012866388838" lon="10.628377351299568"><ele>108.0</ele><time>2026-03-28T08:56:00Z</time></trkpt><trkpt lat="45.380016887071186" lon="10.628464856288797"><ele>108.00000000000001</ele><time>2026-03-28T08:56:01Z</time></trkpt><trkpt lat="45.37993545545017" lon="10.62851353466819"><ele>108.00000000000001</ele><time>2026-03-28T08:56:02Z</time></trkpt><trkpt lat="45.37984602012707" lon="10.628537509061077"><ele>108.0</ele><time>2026-03-28T08:56:03Z</time></trkpt><trkpt lat="45.37974072798666" lon="10.62849565519022"><ele>108.0</ele><time>2026-03-28T08:56:04Z</time></trkpt><trkpt lat="45.379588163559234" lon="10.62844173604019"><ele>108.5</ele><time>2026-03-28T08:56:04.999Z</time></trkpt><trkpt lat="45.37942365085765" lon="10.628375094833556"><ele>109.0</ele><time>2026-03-28T08:56:05.999Z</time></trkpt><trkpt lat="45.379328462442615" lon="10.628332553989571"><ele>109.5</ele><time>2026-03-28T08:56:06.999Z</time></trkpt><trkpt lat="45.37926488143572" lon="10.628304138259262"><ele>110.0</ele><time>2026-03-28T08:56:07.999Z</time></trkpt><trkpt lat="45.379148835688525" lon="10.628345971111449"><ele>110.0</ele><time>2026-03-28T08:56:08.999Z</time></trkpt><trkpt lat="45.37902119629413" lon="10.628380610563758"><ele>110.0</ele><time>2026-03-28T08:56:09.999Z</time></trkpt><trkpt lat="45.378879285814676" lon="10.62843522873289"><ele>110.0</ele><time>2026-03-28T08:56:10.999Z</time></trkpt><trkpt lat="45.37873789805711" lon="10.628501771822215"><ele>110.0</ele><time>2026-03-28T08:56:11.999Z</time></trkpt><trkpt lat="45.37862643350588" lon="10.628577422794057"><ele>108.75</ele><time>2026-03-28T08:56:12.999Z</time></trkpt><trkpt lat="45.37850247993524" lon="10.62864975410853"><ele>107.5</ele><time>2026-03-28T08:56:13.999Z</time></trkpt><trkpt lat="45.378376159374824" lon="10.628757760106367"><ele>106.25</ele><time>2026-03-28T08:56:14.999Z</time></trkpt><trkpt lat="45.37823044358879" lon="10.628868801935141"><ele>105.0</ele><time>2026-03-28T08:56:15.999Z</time></trkpt><trkpt lat="45.37809403884634" lon="10.629006799089183"><ele>109.0</ele><time>2026-03-28T08:56:16.999Z</time></trkpt><trkpt lat="45.37792399532701" lon="10.62917471966111"><ele>113.0</ele><time>2026-03-28T08:56:17.999Z</time></trkpt><trkpt lat="45.377810788492" lon="10.629300100483658"><ele>117.0</ele><time>2026-03-28T08:56:18.999Z</time></trkpt><trkpt lat="45.377706704429514" lon="10.629426719812066"><ele>114.25</ele><time>2026-03-28T08:56:19.999Z</time></trkpt><trkpt lat="45.37762137700234" lon="10.629559207141499"><ele>111.5</ele><time>2026-03-28T08:56:20.999Z</time></trkpt><trkpt lat="45.37753182927732" lon="10.629714982908043"><ele>108.75</ele><time>2026-03-28T08:56:21.999Z</time></trkpt><trkpt lat="45.377458440182316" lon="10.629853993342806"><ele>106.0</ele><time>2026-03-28T08:56:22.999Z</time></trkpt><trkpt lat="45.37737063623449" lon="10.629995824125224"><ele>106.0</ele><time>2026-03-28T08:56:23.999Z</time></trkpt><trkpt lat="45.37728889554283" lon="10.630119831587551"><ele>106.0</ele><time>2026-03-28T08:56:24.999Z</time></trkpt><trkpt lat="45.37719663151983" lon="10.63019101156519"><ele>106.0</ele><time>2026-03-28T08:56:25.999Z</time></trkpt><trkpt lat="45.3771133676579" lon="10.630250281103768"><ele>106.0</ele><time>2026-03-28T08:56:26.999Z</time></trkpt><trkpt lat="45.377031176181234" lon="10.630254403180198"><ele>106.0</ele><time>2026-03-28T08:56:27.999Z</time></trkpt><trkpt lat="45.37691092560235" lon="10.630276098209638"><ele>107.19999999999999</ele><time>2026-03-28T08:56:28.999Z</time></trkpt><trkpt lat="45.37677982766969" lon="10.630319261082697"><ele>108.39999999999999</ele><time>2026-03-28T08:56:29.999Z</time></trkpt><trkpt lat="45.37667753261232" lon="10.630359949035993"><ele>109.6</ele><time>2026-03-28T08:56:30.999Z</time></trkpt><trkpt lat="45.376611797400464" lon="10.630450301546066"><ele>110.8</ele><time>2026-03-28T08:56:31.999Z</time></trkpt><trkpt lat="45.37654165120719" lon="10.630541577226069"><ele>112.0</ele><time>2026-03-28T08:56:32.999Z</time></trkpt><trkpt lat="45.37647168950069" lon="10.630667646614647"><ele>112.0</ele><time>2026-03-28T08:56:33.999Z</time></trkpt><trkpt lat="45.37640122621825" lon="10.630841090389113"><ele>112.0</ele><time>2026-03-28T08:56:34.999Z</time></trkpt><trkpt lat="45.37632849145046" lon="10.6310303850385"><ele>112.0</ele><time>2026-03-28T08:56:35.999Z</time></trkpt><trkpt lat="45.37625158246895" lon="10.631272722276387"><ele>114.66666666666667</ele><time>2026-03-28T08:56:36.999Z</time></trkpt><trkpt lat="45.37618665261133" lon="10.631534615682666"><ele>117.33333333333334</ele><time>2026-03-28T08:56:37.999Z</time></trkpt><trkpt lat="45.37613941114788" lon="10.631791546868525"><ele>120.0</ele><time>2026-03-28T08:56:38.999Z</time></trkpt><trkpt lat="45.37607743980699" lon="10.632028536498376"><ele>120.0</ele><time>2026-03-28T08:56:39.999Z</time></trkpt><trkpt lat="45.376026917863996" lon="10.632239776438313"><ele>120.0</ele><time>2026-03-28T08:56:40.999Z</time></trkpt><trkpt lat="45.37599343121639" lon="10.632443439929888"><ele>120.0</ele><time>2026-03-28T08:56:41.999Z</time></trkpt><trkpt lat="45.37596929194418" lon="10.632636405216322"><ele>120.0</ele><time>2026-03-28T08:56:42.999Z</time></trkpt><trkpt lat="45.37594572419992" lon="10.63283330138482"><ele>117.75</ele><time>2026-03-28T08:56:43.999Z</time></trkpt><trkpt lat="45.37592952714232" lon="10.633024128145001"><ele>115.5</ele><time>2026-03-28T08:56:44.999Z</time></trkpt><trkpt lat="45.37591297563671" lon="10.633194200433685"><ele>113.25</ele><time>2026-03-28T08:56:45.999Z</time></trkpt><trkpt lat="45.37588373433417" lon="10.633339381545376"><ele>111.0</ele><time>2026-03-28T08:56:46.999Z</time></trkpt><trkpt lat="45.37586623784631" lon="10.63347136088311"><ele>111.0</ele><time>2026-03-28T08:56:47.999Z</time></trkpt><trkpt lat="45.37584880243463" lon="10.63357228080307"><ele>111.0</ele><time>2026-03-28T08:56:48.999Z</time></trkpt><trkpt lat="45.375844038140045" lon="10.633683428651183"><ele>111.0</ele><time>2026-03-28T08:56:50.999Z</time></trkpt><trkpt lat="45.375850869677" lon="10.633803892763508"><ele>111.0</ele><time>2026-03-28T08:56:52.999Z</time></trkpt><trkpt lat="45.37588569253707" lon="10.633886095478513"><ele>111.0</ele><time>2026-03-28T08:56:53.999Z</time></trkpt><trkpt lat="45.37593969118415" lon="10.633967037573205"><ele>111.0</ele><time>2026-03-28T08:56:54.999Z</time></trkpt><trkpt lat="45.37598934598715" lon="10.634049644619703"><ele>110.4</ele><time>2026-03-28T08:56:55.998Z</time></trkpt><trkpt lat="45.376052285383864" lon="10.6341294216279"><ele>109.8</ele><time>2026-03-28T08:56:56.998Z</time></trkpt><trkpt lat="45.37614365156274" lon="10.634228492248178"><ele>109.20000000000002</ele><time>2026-03-28T08:56:57.998Z</time></trkpt><trkpt lat="45.376233429288426" lon="10.634331826388042"><ele>108.60000000000001</ele><time>2026-03-28T08:56:58.998Z</time></trkpt><trkpt lat="45.37630960978331" lon="10.634438878238702"><ele>108.0</ele><time>2026-03-28T08:56:59.998Z</time></trkpt><trkpt lat="45.37636778114156" lon="10.634527105073813"><ele>107.60000000000001</ele><time>2026-03-28T08:57:00.998Z</time></trkpt><trkpt lat="45.37639600956462" lon="10.634639340466814"><ele>107.20000000000002</ele><time>2026-03-28T08:57:01.998Z</time></trkpt><trkpt lat="45.37643672568506" lon="10.634775674785276"><ele>106.8</ele><time>2026-03-28T08:57:02.998Z</time></trkpt><trkpt lat="45.37649507878298" lon="10.634926972266932"><ele>106.4</ele><time>2026-03-28T08:57:03.998Z</time></trkpt><trkpt lat="45.376529135738274" lon="10.6350971368433"><ele>106.0</ele><time>2026-03-28T08:57:04.998Z</time></trkpt><trkpt lat="45.37655889359989" lon="10.635214888142489"><ele>107.6</ele><time>2026-03-28T08:57:05.998Z</time></trkpt><trkpt lat="45.37656935484376" lon="10.635314912722242"><ele>109.19999999999999</ele><time>2026-03-28T08:57:06.998Z</time></trkpt><trkpt lat="45.376522641772596" lon="10.635495098964103"><ele>110.80000000000001</ele><time>2026-03-28T08:57:08.998Z</time></trkpt><trkpt lat="45.37648391895052" lon="10.635595883113334"><ele>112.4</ele><time>2026-03-28T08:57:09.998Z</time></trkpt><trkpt lat="45.376449547153555" lon="10.635702774983203"><ele>114.0</ele><time>2026-03-28T08:57:10.998Z</time></trkpt><trkpt lat="45.37642684269113" lon="10.635828886893654"><ele>114.4</ele><time>2026-03-28T08:57:12.998Z</time></trkpt><trkpt lat="45.37633246275036" lon="10.635800090084357"><ele>114.80000000000001</ele><time>2026-03-28T08:57:15.998Z</time></trkpt><trkpt lat="45.37626360381593" lon="10.635722859483264"><ele>115.19999999999999</ele><time>2026-03-28T08:57:16.998Z</time></trkpt><trkpt lat="45.37617513202024" lon="10.635654911287476"><ele>115.6</ele><time>2026-03-28T08:57:17.998Z</time></trkpt><trkpt lat="45.37608611635197" lon="10.635573634876843"><ele>116.0</ele><time>2026-03-28T08:57:18.998Z</time></trkpt><trkpt lat="45.3759781045768" lon="10.635491104021261"><ele>116.0</ele><time>2026-03-28T08:57:19.998Z</time></trkpt><trkpt lat="45.3758764112949" lon="10.635412921130284"><ele>116.0</ele><time>2026-03-28T08:57:20.998Z</time></trkpt><trkpt lat="45.37577664943622" lon="10.635351372941997"><ele>116.0</ele><time>2026-03-28T08:57:21.998Z</time></trkpt><trkpt lat="45.37567561110072" lon="10.63531698648285"><ele>116.0</ele><time>2026-03-28T08:57:22.998Z</time></trkpt><trkpt lat="45.375572120190995" lon="10.635314991536951"><ele>116.0</ele><time>2026-03-28T08:57:23.998Z</time></trkpt><trkpt lat="45.37548174233161" lon="10.635329572431898"><ele>115.19999999999999</ele><time>2026-03-28T08:57:24.998Z</time></trkpt><trkpt lat="45.37538376980597" lon="10.635367490080846"><ele>114.39999999999999</ele><time>2026-03-28T08:57:25.998Z</time></trkpt><trkpt lat="45.37530564446655" lon="10.63543085101053"><ele>113.6</ele><time>2026-03-28T08:57:26.998Z</time></trkpt><trkpt lat="45.37522777201588" lon="10.635532727308604"><ele>112.8</ele><time>2026-03-28T08:57:27.998Z</time></trkpt><trkpt lat="45.375173926179016" lon="10.635619054740992"><ele>112.0</ele><time>2026-03-28T08:57:28.998Z</time></trkpt><trkpt lat="45.3751089246024" lon="10.635689434076017"><ele>112.0</ele><time>2026-03-28T08:57:29.998Z</time></trkpt><trkpt lat="45.375036345064885" lon="10.63578020616004"><ele>111.99999999999999</ele><time>2026-03-28T08:57:30.998Z</time></trkpt><trkpt lat="45.37496189934926" lon="10.635873312564659"><ele>111.99999999999999</ele><time>2026-03-28T08:57:32Z</time></trkpt><trkpt lat="45.374907140378454" lon="10.635962688894624"><ele>112.0</ele><time>2026-03-28T08:57:33Z</time></trkpt><trkpt lat="45.37482200636381" lon="10.63604690595912"><ele>112.0</ele><time>2026-03-28T08:57:34Z</time></trkpt><trkpt lat="45.37475534506926" lon="10.63613118223358"><ele>111.33333333333334</ele><time>2026-03-28T08:57:35Z</time></trkpt><trkpt lat="45.37467910831306" lon="10.636205418597877"><ele>110.66666666666667</ele><time>2026-03-28T08:57:36Z</time></trkpt><trkpt lat="45.37460217744788" lon="10.636277779793195"><ele>110.0</ele><time>2026-03-28T08:57:37Z</time></trkpt><trkpt lat="45.37453353586971" lon="10.636340054629308"><ele>109.33333333333334</ele><time>2026-03-28T08:57:38Z</time></trkpt><trkpt lat="45.374482204135965" lon="10.636396264975877"><ele>108.66666666666667</ele><time>2026-03-28T08:57:39Z</time></trkpt><trkpt lat="45.37439570943795" lon="10.636483551444078"><ele>108.0</ele><time>2026-03-28T08:57:41Z</time></trkpt><trkpt lat="45.374448034253724" lon="10.636727046215602"><ele>108.0</ele><time>2026-03-28T08:57:43Z</time></trkpt><trkpt lat="45.374503286836436" lon="10.636837494648434"><ele>108.00000000000001</ele><time>2026-03-28T08:57:44Z</time></trkpt><trkpt lat="45.37454939892826" lon="10.636967497251868"><ele>108.00000000000001</ele><time>2026-03-28T08:57:45Z</time></trkpt><trkpt lat="45.37458543954838" lon="10.637117089075302"><ele>108.0</ele><time>2026-03-28T08:57:46Z</time></trkpt><trkpt lat="45.374607795101994" lon="10.637263993784444"><ele>108.0</ele><time>2026-03-28T08:57:47Z</time></trkpt><trkpt lat="45.374591237342074" lon="10.637429455203396"><ele>108.4</ele><time>2026-03-28T08:57:48Z</time></trkpt><trkpt lat="45.37458568415003" lon="10.637589388349554"><ele>108.80000000000001</ele><time>2026-03-28T08:57:49Z</time></trkpt><trkpt lat="45.37458285450181" lon="10.637747979806402"><ele>109.2</ele><time>2026-03-28T08:57:50Z</time></trkpt><trkpt lat="45.37459557118738" lon="10.637890404592769"><ele>109.6</ele><time>2026-03-28T08:57:51Z</time></trkpt><trkpt lat="45.37462314936787" lon="10.638041702300356"><ele>110.0</ele><time>2026-03-28T08:57:52Z</time></trkpt><trkpt lat="45.37465384259161" lon="10.638189486852216"><ele>111.75</ele><time>2026-03-28T08:57:53Z</time></trkpt><trkpt lat="45.374688985622186" lon="10.638346253480202"><ele>113.5</ele><time>2026-03-28T08:57:54Z</time></trkpt><trkpt lat="45.374724765843894" lon="10.638507442135401"><ele>115.25</ele><time>2026-03-28T08:57:55Z</time></trkpt><trkpt lat="45.374754709098" lon="10.638674604853625"><ele>117.0</ele><time>2026-03-28T08:57:56Z</time></trkpt><trkpt lat="45.37477563012367" lon="10.638848554693432"><ele>117.25</ele><time>2026-03-28T08:57:57Z</time></trkpt><trkpt lat="45.37479255081443" lon="10.63902557115862"><ele>117.5</ele><time>2026-03-28T08:57:58Z</time></trkpt><trkpt lat="45.37479386399748" lon="10.639185275612848"><ele>117.75</ele><time>2026-03-28T08:57:59Z</time></trkpt><trkpt lat="45.374810505143365" lon="10.639349508465884"><ele>118.0</ele><time>2026-03-28T08:58:00Z</time></trkpt><trkpt lat="45.37482042495278" lon="10.639507129802546"><ele>118.0</ele><time>2026-03-28T08:58:01Z</time></trkpt><trkpt lat="45.3748497686078" lon="10.639663337662224"><ele>118.0</ele><time>2026-03-28T08:58:02Z</time></trkpt><trkpt lat="45.374893967119355" lon="10.63982254526485"><ele>118.0</ele><time>2026-03-28T08:58:03Z</time></trkpt><trkpt lat="45.374946696092266" lon="10.639980349980554"><ele>118.0</ele><time>2026-03-28T08:58:04Z</time></trkpt><trkpt lat="45.37501292325168" lon="10.640127329493597"><ele>118.0</ele><time>2026-03-28T08:58:05Z</time></trkpt><trkpt lat="45.3750882818189" lon="10.640270165861327"><ele>118.00000000000001</ele><time>2026-03-28T08:58:05.999Z</time></trkpt><trkpt lat="45.37516214656174" lon="10.640398200594516"><ele>118.00000000000001</ele><time>2026-03-28T08:58:06.999Z</time></trkpt><trkpt lat="45.37522280022994" lon="10.640515492196595"><ele>118.0</ele><time>2026-03-28T08:58:07.999Z</time></trkpt><trkpt lat="45.3752686401047" lon="10.640635705813834"><ele>118.0</ele><time>2026-03-28T08:58:08.999Z</time></trkpt><trkpt lat="45.375298036366786" lon="10.640755584263397"><ele>116.75</ele><time>2026-03-28T08:58:09.999Z</time></trkpt><trkpt lat="45.375372708108245" lon="10.640825562092532"><ele>115.5</ele><time>2026-03-28T08:58:10.999Z</time></trkpt><trkpt lat="45.37540467847774" lon="10.640923220943476"><ele>114.25</ele><time>2026-03-28T08:58:11.999Z</time></trkpt><trkpt lat="45.37519719195567" lon="10.641073562361454"><ele>113.0</ele><time>2026-03-28T08:58:12.999Z</time></trkpt><trkpt lat="45.37513285836463" lon="10.641152313516406"><ele>112.25</ele><time>2026-03-28T08:58:13.999Z</time></trkpt><trkpt lat="45.3750157971722" lon="10.641141149911551"><ele>111.5</ele><time>2026-03-28T08:58:14.999Z</time></trkpt><trkpt lat="45.374886586141834" lon="10.641170804404549"><ele>110.75</ele><time>2026-03-28T08:58:15.999Z</time></trkpt><trkpt lat="45.374749274681704" lon="10.641187500528641"><ele>110.0</ele><time>2026-03-28T08:58:16.999Z</time></trkpt><trkpt lat="45.37460042076211" lon="10.641187573087539"><ele>109.66666666666666</ele><time>2026-03-28T08:58:17.999Z</time></trkpt><trkpt lat="45.37444198880576" lon="10.641184053202698"><ele>109.33333333333334</ele><time>2026-03-28T08:58:18.999Z</time></trkpt><trkpt lat="45.37427294357717" lon="10.641180297532152"><ele>109.0</ele><time>2026-03-28T08:58:19.999Z</time></trkpt><trkpt lat="45.374093602412266" lon="10.641200970666096"><ele>109.0</ele><time>2026-03-28T08:58:20.999Z</time></trkpt><trkpt lat="45.37391780265481" lon="10.641213157144714"><ele>109.0</ele><time>2026-03-28T08:58:21.999Z</time></trkpt><trkpt lat="45.37375383240006" lon="10.64130790259126"><ele>109.0</ele><time>2026-03-28T08:58:22.999Z</time></trkpt><trkpt lat="45.37361095659471" lon="10.641405722003359"><ele>108.0</ele><time>2026-03-28T08:58:23.999Z</time></trkpt><trkpt lat="45.37347099989865" lon="10.641537319903714"><ele>107.0</ele><time>2026-03-28T08:58:24.999Z</time></trkpt><trkpt lat="45.37330383786089" lon="10.641668123761812"><ele>106.0</ele><time>2026-03-28T08:58:25.999Z</time></trkpt><trkpt lat="45.37314565247806" lon="10.641816578145878"><ele>106.0</ele><time>2026-03-28T08:58:26.999Z</time></trkpt><trkpt lat="45.372993719117034" lon="10.641956006229856"><ele>106.0</ele><time>2026-03-28T08:58:27.999Z</time></trkpt><trkpt lat="45.37285680013967" lon="10.642078171818875"><ele>106.0</ele><time>2026-03-28T08:58:28.999Z</time></trkpt><trkpt lat="45.37272884294295" lon="10.642173314275794"><ele>106.0</ele><time>2026-03-28T08:58:29.999Z</time></trkpt><trkpt lat="45.37260381168566" lon="10.642227245612698"><ele>106.0</ele><time>2026-03-28T08:58:30.999Z</time></trkpt><trkpt lat="45.3724775759763" lon="10.642258397853738"><ele>106.0</ele><time>2026-03-28T08:58:31.999Z</time></trkpt><trkpt lat="45.37234045274325" lon="10.642287694492076"><ele>106.0</ele><time>2026-03-28T08:58:32.999Z</time></trkpt><trkpt lat="45.37219614651848" lon="10.642315291515319"><ele>106.75</ele><time>2026-03-28T08:58:33.999Z</time></trkpt><trkpt lat="45.37205832108023" lon="10.642341254842794"><ele>107.5</ele><time>2026-03-28T08:58:34.999Z</time></trkpt><trkpt lat="45.371955373731396" lon="10.642359441126258"><ele>108.25</ele><time>2026-03-28T08:58:35.999Z</time></trkpt><trkpt lat="45.37185140128681" lon="10.642377808498974"><ele>109.0</ele><time>2026-03-28T08:58:36.999Z</time></trkpt><trkpt lat="45.37173817482664" lon="10.642397810648834"><ele>109.0</ele><time>2026-03-28T08:58:37.999Z</time></trkpt><trkpt lat="45.371615594772" lon="10.642419465172372"><ele>109.0</ele><time>2026-03-28T08:58:38.999Z</time></trkpt><trkpt lat="45.3714887248339" lon="10.64244314223381"><ele>109.0</ele><time>2026-03-28T08:58:39.999Z</time></trkpt><trkpt lat="45.371367826568225" lon="10.642467845509188"><ele>109.0</ele><time>2026-03-28T08:58:40.999Z</time></trkpt><trkpt lat="45.37125038437396" lon="10.642504804552097"><ele>108.75</ele><time>2026-03-28T08:58:41.999Z</time></trkpt><trkpt lat="45.37112976270809" lon="10.64257598007707"><ele>108.5</ele><time>2026-03-28T08:58:42.999Z</time></trkpt><trkpt lat="45.371007911809265" lon="10.642695646496472"><ele>108.25</ele><time>2026-03-28T08:58:43.999Z</time></trkpt><trkpt lat="45.37089889482203" lon="10.642854910955116"><ele>108.0</ele><time>2026-03-28T08:58:44.999Z</time></trkpt><trkpt lat="45.37079662238833" lon="10.643021077908276"><ele>108.0</ele><time>2026-03-28T08:58:45.999Z</time></trkpt><trkpt lat="45.37070681315699" lon="10.643196457597911"><ele>108.0</ele><time>2026-03-28T08:58:46.999Z</time></trkpt><trkpt lat="45.37059994751369" lon="10.64333349323176"><ele>108.0</ele><time>2026-03-28T08:58:47.999Z</time></trkpt><trkpt lat="45.37047769258549" lon="10.643448105653265"><ele>108.0</ele><time>2026-03-28T08:58:48.999Z</time></trkpt><trkpt lat="45.37035308030729" lon="10.643527407693034"><ele>108.25</ele><time>2026-03-28T08:58:49.999Z</time></trkpt><trkpt lat="45.37022630256014" lon="10.643582133858509"><ele>108.5</ele><time>2026-03-28T08:58:50.999Z</time></trkpt><trkpt lat="45.37008855578632" lon="10.64363444783724"><ele>108.75</ele><time>2026-03-28T08:58:51.999Z</time></trkpt><trkpt lat="45.36993853231301" lon="10.643690691844105"><ele>109.0</ele><time>2026-03-28T08:58:52.999Z</time></trkpt><trkpt lat="45.369782633394955" lon="10.643748845713322"><ele>109.66666666666667</ele><time>2026-03-28T08:58:53.999Z</time></trkpt><trkpt lat="45.36962515866126" lon="10.643806828142079"><ele>110.33333333333334</ele><time>2026-03-28T08:58:54.998Z</time></trkpt><trkpt lat="45.36946590334932" lon="10.643879924994206"><ele>111.0</ele><time>2026-03-28T08:58:55.998Z</time></trkpt><trkpt lat="45.36931481803935" lon="10.643965404537598"><ele>111.0</ele><time>2026-03-28T08:58:56.998Z</time></trkpt><trkpt lat="45.36916363676052" lon="10.644056084205618"><ele>111.0</ele><time>2026-03-28T08:58:57.998Z</time></trkpt><trkpt lat="45.369017486110565" lon="10.644141880284566"><ele>111.0</ele><time>2026-03-28T08:58:58.998Z</time></trkpt><trkpt lat="45.36887863734123" lon="10.644182987457167"><ele>110.66666666666666</ele><time>2026-03-28T08:58:59.998Z</time></trkpt><trkpt lat="45.36871960462048" lon="10.644226229339061"><ele>110.33333333333333</ele><time>2026-03-28T08:59:00.998Z</time></trkpt><trkpt lat="45.368546640102124" lon="10.644258155937841"><ele>110.0</ele><time>2026-03-28T08:59:01.998Z</time></trkpt><trkpt lat="45.36835772005167" lon="10.644265663613224"><ele>110.0</ele><time>2026-03-28T08:59:02.998Z</time></trkpt><trkpt lat="45.36816964771507" lon="10.644284506183203"><ele>110.0</ele><time>2026-03-28T08:59:03.998Z</time></trkpt><trkpt lat="45.36797914903915" lon="10.644300529952911"><ele>110.0</ele><time>2026-03-28T08:59:04.998Z</time></trkpt><trkpt lat="45.36780020813078" lon="10.64427378578316"><ele>110.0</ele><time>2026-03-28T08:59:05.998Z</time></trkpt><trkpt lat="45.36763822894866" lon="10.64419822024164"><ele>110.0</ele><time>2026-03-28T08:59:06.998Z</time></trkpt><trkpt lat="45.367465907591814" lon="10.644136467666256"><ele>110.0</ele><time>2026-03-28T08:59:07.998Z</time></trkpt><trkpt lat="45.367312338007245" lon="10.64399501594187"><ele>109.66666666666666</ele><time>2026-03-28T08:59:08.998Z</time></trkpt><trkpt lat="45.36716420919152" lon="10.64384067705719"><ele>109.33333333333334</ele><time>2026-03-28T08:59:09.998Z</time></trkpt><trkpt lat="45.367019190378734" lon="10.643680159540875"><ele>109.0</ele><time>2026-03-28T08:59:10.998Z</time></trkpt><trkpt lat="45.36687733147509" lon="10.643524631509962"><ele>108.33333333333334</ele><time>2026-03-28T08:59:11.998Z</time></trkpt><trkpt lat="45.366737008591386" lon="10.643384428543927"><ele>107.66666666666666</ele><time>2026-03-28T08:59:12.998Z</time></trkpt><trkpt lat="45.36658785557277" lon="10.643293399842367"><ele>107.0</ele><time>2026-03-28T08:59:13.998Z</time></trkpt><trkpt lat="45.36644531197814" lon="10.643210868589245"><ele>106.75</ele><time>2026-03-28T08:59:14.998Z</time></trkpt><trkpt lat="45.366298905599365" lon="10.643161111795655"><ele>106.5</ele><time>2026-03-28T08:59:15.998Z</time></trkpt><trkpt lat="45.366146056751745" lon="10.643151015208408"><ele>106.25</ele><time>2026-03-28T08:59:16.998Z</time></trkpt><trkpt lat="45.36600620359547" lon="10.643183757480434"><ele>106.0</ele><time>2026-03-28T08:59:17.998Z</time></trkpt><trkpt lat="45.36587959862994" lon="10.643260205696464"><ele>106.0</ele><time>2026-03-28T08:59:18.998Z</time></trkpt><trkpt lat="45.365755374259564" lon="10.643382264521339"><ele>106.0</ele><time>2026-03-28T08:59:19.998Z</time></trkpt><trkpt lat="45.365634033327055" lon="10.643521913825207"><ele>106.0</ele><time>2026-03-28T08:59:20.998Z</time></trkpt><trkpt lat="45.365499404910686" lon="10.64365098847247"><ele>106.25</ele><time>2026-03-28T08:59:21.998Z</time></trkpt><trkpt lat="45.36536039722418" lon="10.643754074772238"><ele>106.5</ele><time>2026-03-28T08:59:22.998Z</time></trkpt><trkpt lat="45.365224173881195" lon="10.64383957700003"><ele>106.75</ele><time>2026-03-28T08:59:23.998Z</time></trkpt><trkpt lat="45.36508445750793" lon="10.643879847549258"><ele>107.0</ele><time>2026-03-28T08:59:24.998Z</time></trkpt><trkpt lat="45.3649466817635" lon="10.643902083202859"><ele>107.0</ele><time>2026-03-28T08:59:25.998Z</time></trkpt><trkpt lat="45.364807059681475" lon="10.643896994428388"><ele>107.0</ele><time>2026-03-28T08:59:26.998Z</time></trkpt><trkpt lat="45.36466122654695" lon="10.643864230454238"><ele>107.0</ele><time>2026-03-28T08:59:27.998Z</time></trkpt><trkpt lat="45.364518600560785" lon="10.643820042987997"><ele>107.0</ele><time>2026-03-28T08:59:28.998Z</time></trkpt><trkpt lat="45.364376456769996" lon="10.643769386719553"><ele>107.25</ele><time>2026-03-28T08:59:29.998Z</time></trkpt><trkpt lat="45.3642401195292" lon="10.64371387335738"><ele>107.5</ele><time>2026-03-28T08:59:30.998Z</time></trkpt><trkpt lat="45.3641079554643" lon="10.643676053439844"><ele>107.75</ele><time>2026-03-28T08:59:31.998Z</time></trkpt><trkpt lat="45.363989670828374" lon="10.643643850482658"><ele>108.0</ele><time>2026-03-28T08:59:32.998Z</time></trkpt><trkpt lat="45.363847525909435" lon="10.643641645031535"><ele>109.66666666666666</ele><time>2026-03-28T08:59:33.998Z</time></trkpt><trkpt lat="45.36371893833972" lon="10.643730266981287"><ele>111.33333333333333</ele><time>2026-03-28T08:59:34.998Z</time></trkpt><trkpt lat="45.3635814927446" lon="10.643825213050064"><ele>113.0</ele><time>2026-03-28T08:59:35.998Z</time></trkpt><trkpt lat="45.363435553025994" lon="10.64390869202741"><ele>113.0</ele><time>2026-03-28T08:59:36.998Z</time></trkpt><trkpt lat="45.363286402065754" lon="10.644007087625267"><ele>113.0</ele><time>2026-03-28T08:59:38Z</time></trkpt><trkpt lat="45.363147952446155" lon="10.64412366998655"><ele>113.0</ele><time>2026-03-28T08:59:39Z</time></trkpt><trkpt lat="45.36299627444343" lon="10.644215187133998"><ele>114.33333333333333</ele><time>2026-03-28T08:59:40Z</time></trkpt><trkpt lat="45.362840462190505" lon="10.644285848210252"><ele>115.66666666666666</ele><time>2026-03-28T08:59:41Z</time></trkpt><trkpt lat="45.362694959482106" lon="10.644379391389235"><ele>117.0</ele><time>2026-03-28T08:59:42Z</time></trkpt><trkpt lat="45.3625320426452" lon="10.64441339744662"><ele>117.0</ele><time>2026-03-28T08:59:43Z</time></trkpt><trkpt lat="45.36237202231091" lon="10.644406156253497"><ele>117.0</ele><time>2026-03-28T08:59:44Z</time></trkpt><trkpt lat="45.362214773031795" lon="10.644397772317658"><ele>117.0</ele><time>2026-03-28T08:59:45Z</time></trkpt><trkpt lat="45.36206471250197" lon="10.64440130866098"><ele>118.25</ele><time>2026-03-28T08:59:46Z</time></trkpt><trkpt lat="45.361920229062505" lon="10.644404090147868"><ele>119.5</ele><time>2026-03-28T08:59:47Z</time></trkpt><trkpt lat="45.3617841267676" lon="10.644471254069934"><ele>120.75</ele><time>2026-03-28T08:59:48Z</time></trkpt><trkpt lat="45.361666324305354" lon="10.644608310161594"><ele>122.0</ele><time>2026-03-28T08:59:49Z</time></trkpt><trkpt lat="45.36156055286599" lon="10.644749990903208"><ele>123.5</ele><time>2026-03-28T08:59:50Z</time></trkpt><trkpt lat="45.36145014917801" lon="10.644875168688557"><ele>125.0</ele><time>2026-03-28T08:59:51Z</time></trkpt><trkpt lat="45.36134343816164" lon="10.64495738061499"><ele>126.5</ele><time>2026-03-28T08:59:52Z</time></trkpt><trkpt lat="45.36123653840989" lon="10.64499466887337"><ele>128.0</ele><time>2026-03-28T08:59:53Z</time></trkpt><trkpt lat="45.361119489111005" lon="10.64501659025047"><ele>128.0</ele><time>2026-03-28T08:59:54Z</time></trkpt><trkpt lat="45.36099128345419" lon="10.645002876030134"><ele>128.0</ele><time>2026-03-28T08:59:55Z</time></trkpt><trkpt lat="45.36086047423885" lon="10.644948500726207"><ele>128.0</ele><time>2026-03-28T08:59:56Z</time></trkpt><trkpt lat="45.36071631682849" lon="10.644874945970917"><ele>128.0</ele><time>2026-03-28T08:59:57Z</time></trkpt><trkpt lat="45.36055710168356" lon="10.644795263604824"><ele>125.66666666666666</ele><time>2026-03-28T08:59:58Z</time></trkpt><trkpt lat="45.36038862602141" lon="10.644717540453884"><ele>123.33333333333334</ele><time>2026-03-28T08:59:59Z</time></trkpt><trkpt lat="45.360210279708966" lon="10.644661601874535"><ele>121.0</ele><time>2026-03-28T09:00:00Z</time></trkpt><trkpt lat="45.360021525139686" lon="10.644607991389076"><ele>121.0</ele><time>2026-03-28T09:00:01Z</time></trkpt><trkpt lat="45.35982996783491" lon="10.64455447706085"><ele>121.0</ele><time>2026-03-28T09:00:02Z</time></trkpt><trkpt lat="45.35964130641317" lon="10.64450448725537"><ele>121.0</ele><time>2026-03-28T09:00:03Z</time></trkpt><trkpt lat="45.35945411683306" lon="10.64445437929305"><ele>122.0</ele><time>2026-03-28T09:00:04Z</time></trkpt><trkpt lat="45.359271041967425" lon="10.644405372768846"><ele>123.0</ele><time>2026-03-28T09:00:05Z</time></trkpt><trkpt lat="45.35908953577458" lon="10.644356786160365"><ele>124.0</ele><time>2026-03-28T09:00:06Z</time></trkpt><trkpt lat="45.35890097907946" lon="10.644306760023408"><ele>123.66666666666667</ele><time>2026-03-28T09:00:07Z</time></trkpt><trkpt lat="45.35871248691603" lon="10.644258366483449"><ele>123.33333333333334</ele><time>2026-03-28T09:00:08Z</time></trkpt><trkpt lat="45.35854242023891" lon="10.644221709387837"><ele>123.0</ele><time>2026-03-28T09:00:09Z</time></trkpt><trkpt lat="45.35840404908424" lon="10.644202647121164"><ele>123.0</ele><time>2026-03-28T09:00:10Z</time></trkpt><trkpt lat="45.35827895884757" lon="10.644185616248318"><ele>123.0</ele><time>2026-03-28T09:00:11Z</time></trkpt><trkpt lat="45.35815036473274" lon="10.644187947227458"><ele>123.0</ele><time>2026-03-28T09:00:12Z</time></trkpt><trkpt lat="45.3580374470743" lon="10.644142415676715"><ele>123.0</ele><time>2026-03-28T09:00:13Z</time></trkpt><trkpt lat="45.35794641697383" lon="10.64409847759535"><ele>122.4</ele><time>2026-03-28T09:00:14Z</time></trkpt><trkpt lat="45.35787683949545" lon="10.644060438941997"><ele>121.80000000000001</ele><time>2026-03-28T09:00:15Z</time></trkpt><trkpt lat="45.35778722937376" lon="10.644044911476232"><ele>121.2</ele><time>2026-03-28T09:00:17Z</time></trkpt><trkpt lat="45.35769350532811" lon="10.644026509953177"><ele>120.6</ele><time>2026-03-28T09:00:18.999Z</time></trkpt><trkpt lat="45.357595785569195" lon="10.644176237592468"><ele>120.0</ele><time>2026-03-28T09:00:19.999Z</time></trkpt><trkpt lat="45.35748184773168" lon="10.644204284907662"><ele>120.0</ele><time>2026-03-28T09:00:20.999Z</time></trkpt><trkpt lat="45.35735106925954" lon="10.644178509302742"><ele>120.0</ele><time>2026-03-28T09:00:21.999Z</time></trkpt><trkpt lat="45.357204939578736" lon="10.644159804473754"><ele>120.0</ele><time>2026-03-28T09:00:22.999Z</time></trkpt><trkpt lat="45.35705207409983" lon="10.644151245431106"><ele>120.0</ele><time>2026-03-28T09:00:23.999Z</time></trkpt><trkpt lat="45.35688919349283" lon="10.644145688619906"><ele>120.0</ele><time>2026-03-28T09:00:24.999Z</time></trkpt><trkpt lat="45.356720523604714" lon="10.64414491026353"><ele>120.0</ele><time>2026-03-28T09:00:25.999Z</time></trkpt><trkpt lat="45.3565453163086" lon="10.644134384952112"><ele>120.0</ele><time>2026-03-28T09:00:26.999Z</time></trkpt><trkpt lat="45.356365041958185" lon="10.644110290660159"><ele>120.0</ele><time>2026-03-28T09:00:27.999Z</time></trkpt><trkpt lat="45.35618682219115" lon="10.644045558161302"><ele>120.0</ele><time>2026-03-28T09:00:28.999Z</time></trkpt><trkpt lat="45.35601211640865" lon="10.643960870127989"><ele>120.0</ele><time>2026-03-28T09:00:29.999Z</time></trkpt><trkpt lat="45.35584321802729" lon="10.643869091783541"><ele>120.0</ele><time>2026-03-28T09:00:30.999Z</time></trkpt><trkpt lat="45.35567071369944" lon="10.643772397244382"><ele>120.0</ele><time>2026-03-28T09:00:31.999Z</time></trkpt><trkpt lat="45.35550123931249" lon="10.643675554905393"><ele>120.0</ele><time>2026-03-28T09:00:32.999Z</time></trkpt><trkpt lat="45.35533281959469" lon="10.64357589300624"><ele>119.5</ele><time>2026-03-28T09:00:33.999Z</time></trkpt><trkpt lat="45.355191727992455" lon="10.64348403235585"><ele>119.0</ele><time>2026-03-28T09:00:34.999Z</time></trkpt><trkpt lat="45.355056438054156" lon="10.643449789686077"><ele>118.5</ele><time>2026-03-28T09:00:35.999Z</time></trkpt><trkpt lat="45.35493013192793" lon="10.643433792095705"><ele>118.0</ele><time>2026-03-28T09:00:36.999Z</time></trkpt><trkpt lat="45.35478800071227" lon="10.64344876439458"><ele>116.66666666666667</ele><time>2026-03-28T09:00:37.999Z</time></trkpt><trkpt lat="45.354648405002585" lon="10.643565725048573"><ele>115.33333333333334</ele><time>2026-03-28T09:00:38.999Z</time></trkpt><trkpt lat="45.35448208529548" lon="10.643664132412173"><ele>114.0</ele><time>2026-03-28T09:00:39.999Z</time></trkpt><trkpt lat="45.354323012093104" lon="10.643776524804286"><ele>113.0</ele><time>2026-03-28T09:00:40.999Z</time></trkpt><trkpt lat="45.35417111608658" lon="10.64389001204838"><ele>112.0</ele><time>2026-03-28T09:00:41.999Z</time></trkpt><trkpt lat="45.35398663169746" lon="10.644009909184417"><ele>111.0</ele><time>2026-03-28T09:00:42.999Z</time></trkpt><trkpt lat="45.35380327879222" lon="10.644134483933696"><ele>110.66666666666666</ele><time>2026-03-28T09:00:43.999Z</time></trkpt><trkpt lat="45.35362845404526" lon="10.64428584975624"><ele>110.33333333333333</ele><time>2026-03-28T09:00:44.999Z</time></trkpt><trkpt lat="45.35345186039557" lon="10.644419862692978"><ele>110.0</ele><time>2026-03-28T09:00:45.999Z</time></trkpt><trkpt lat="45.353287479122805" lon="10.644552278439463"><ele>110.0</ele><time>2026-03-28T09:00:46.999Z</time></trkpt><trkpt lat="45.353123965695225" lon="10.644688379047162"><ele>110.0</ele><time>2026-03-28T09:00:47.999Z</time></trkpt><trkpt lat="45.352971512067164" lon="10.644827248387685"><ele>110.0</ele><time>2026-03-28T09:00:48.999Z</time></trkpt><trkpt lat="45.35281069773733" lon="10.64494909032892"><ele>110.0</ele><time>2026-03-28T09:00:49.999Z</time></trkpt><trkpt lat="45.35266867105111" lon="10.645080079601955"><ele>110.0</ele><time>2026-03-28T09:00:50.999Z</time></trkpt><trkpt lat="45.352526941976265" lon="10.645212172143435"><ele>110.0</ele><time>2026-03-28T09:00:51.999Z</time></trkpt><trkpt lat="45.352411190355745" lon="10.645348081516747"><ele>109.75</ele><time>2026-03-28T09:00:52.999Z</time></trkpt><trkpt lat="45.352285735593064" lon="10.645460659644842"><ele>109.5</ele><time>2026-03-28T09:00:53.999Z</time></trkpt><trkpt lat="45.3521575128302" lon="10.645571110321226"><ele>109.25</ele><time>2026-03-28T09:00:54.999Z</time></trkpt><trkpt lat="45.35202631041307" lon="10.645659520379049"><ele>109.0</ele><time>2026-03-28T09:00:55.999Z</time></trkpt><trkpt lat="45.35191682191127" lon="10.645743916608188"><ele>109.0</ele><time>2026-03-28T09:00:56.999Z</time></trkpt><trkpt lat="45.35182629223361" lon="10.645832552658604"><ele>109.0</ele><time>2026-03-28T09:00:57.999Z</time></trkpt><trkpt lat="45.3517397587118" lon="10.6458809951386"><ele>109.0</ele><time>2026-03-28T09:00:58.999Z</time></trkpt><trkpt lat="45.35167300989757" lon="10.645888820976076"><ele>109.0</ele><time>2026-03-28T09:00:59.999Z</time></trkpt><trkpt lat="45.35163047310491" lon="10.645676769288293"><ele>109.0</ele><time>2026-03-28T09:01:02.999Z</time></trkpt><trkpt lat="45.351650772948744" lon="10.645546777881478"><ele>109.0</ele><time>2026-03-28T09:01:03.999Z</time></trkpt><trkpt lat="45.35167674636418" lon="10.645388242712427"><ele>109.0</ele><time>2026-03-28T09:01:04.999Z</time></trkpt><trkpt lat="45.351729327226735" lon="10.645208330579399"><ele>109.0</ele><time>2026-03-28T09:01:05.999Z</time></trkpt><trkpt lat="45.35180237729198" lon="10.645023018888166"><ele>109.0</ele><time>2026-03-28T09:01:06.999Z</time></trkpt><trkpt lat="45.35191030363685" lon="10.644871512391815"><ele>109.2</ele><time>2026-03-28T09:01:07.999Z</time></trkpt><trkpt lat="45.351993458168565" lon="10.644712804735699"><ele>109.4</ele><time>2026-03-28T09:01:08.999Z</time></trkpt><trkpt lat="45.352077190275374" lon="10.644586250921947"><ele>109.6</ele><time>2026-03-28T09:01:09.998Z</time></trkpt><trkpt lat="45.352145966006404" lon="10.644472463294127"><ele>109.8</ele><time>2026-03-28T09:01:10.998Z</time></trkpt><trkpt lat="45.35219835990731" lon="10.644394417469003"><ele>110.0</ele><time>2026-03-28T09:01:11.998Z</time></trkpt><trkpt lat="45.35225489305714" lon="10.644316640221135"><ele>110.25</ele><time>2026-03-28T09:01:13.998Z</time></trkpt><trkpt lat="45.352068507417975" lon="10.644189084580677"><ele>110.5</ele><time>2026-03-28T09:01:18.998Z</time></trkpt><trkpt lat="45.35199359559036" lon="10.644157341432438"><ele>110.75</ele><time>2026-03-28T09:01:19.998Z</time></trkpt><trkpt lat="45.35190718147731" lon="10.644104450493014"><ele>111.0</ele><time>2026-03-28T09:01:20.998Z</time></trkpt><trkpt lat="45.35180604559452" lon="10.64403544059084"><ele>111.0</ele><time>2026-03-28T09:01:21.998Z</time></trkpt><trkpt lat="45.3516932106241" lon="10.643952145905562"><ele>111.0</ele><time>2026-03-28T09:01:22.998Z</time></trkpt><trkpt lat="45.35157414020611" lon="10.643845856772051"><ele>111.0</ele><time>2026-03-28T09:01:23.998Z</time></trkpt><trkpt lat="45.35145306200505" lon="10.643733257073178"><ele>111.0</ele><time>2026-03-28T09:01:24.998Z</time></trkpt><trkpt lat="45.35131422083664" lon="10.64362454612224"><ele>110.0</ele><time>2026-03-28T09:01:25.998Z</time></trkpt><trkpt lat="45.35115247778282" lon="10.643528465665629"><ele>109.0</ele><time>2026-03-28T09:01:26.998Z</time></trkpt><trkpt lat="45.35099843679115" lon="10.643441436789002"><ele>108.0</ele><time>2026-03-28T09:01:27.998Z</time></trkpt><trkpt lat="45.35086840998254" lon="10.643367542818151"><ele>108.0</ele><time>2026-03-28T09:01:28.998Z</time></trkpt><trkpt lat="45.350755013735906" lon="10.643296119955508"><ele>108.0</ele><time>2026-03-28T09:01:29.998Z</time></trkpt><trkpt lat="45.35063833132423" lon="10.643221990299454"><ele>108.0</ele><time>2026-03-28T09:01:30.998Z</time></trkpt><trkpt lat="45.35052061445995" lon="10.643170397265516"><ele>108.0</ele><time>2026-03-28T09:01:31.998Z</time></trkpt><trkpt lat="45.35039139308146" lon="10.643118739484358"><ele>107.75</ele><time>2026-03-28T09:01:32.998Z</time></trkpt><trkpt lat="45.35026274938776" lon="10.643051134894307"><ele>107.5</ele><time>2026-03-28T09:01:33.998Z</time></trkpt><trkpt lat="45.35013272016512" lon="10.642992422706016"><ele>107.25</ele><time>2026-03-28T09:01:34.998Z</time></trkpt><trkpt lat="45.3500192514747" lon="10.642941851840515"><ele>107.0</ele><time>2026-03-28T09:01:35.998Z</time></trkpt><trkpt lat="45.349918440836475" lon="10.64288888271304"><ele>107.0</ele><time>2026-03-28T09:01:36.998Z</time></trkpt><trkpt lat="45.3498288042172" lon="10.642840773300106"><ele>106.99999999999999</ele><time>2026-03-28T09:01:37.998Z</time></trkpt><trkpt lat="45.349731109617146" lon="10.642794948448238"><ele>106.99999999999999</ele><time>2026-03-28T09:01:38.998Z</time></trkpt><trkpt lat="45.34964034938066" lon="10.642754893537813"><ele>107.0</ele><time>2026-03-28T09:01:39.998Z</time></trkpt><trkpt lat="45.34953088902687" lon="10.642723173478682"><ele>107.0</ele><time>2026-03-28T09:01:41.998Z</time></trkpt><trkpt lat="45.349414153082705" lon="10.642689448794211"><ele>106.33333333333333</ele><time>2026-03-28T09:01:42.998Z</time></trkpt><trkpt lat="45.3492744616129" lon="10.642650042328494"><ele>105.66666666666666</ele><time>2026-03-28T09:01:44Z</time></trkpt><trkpt lat="45.34912495832056" lon="10.642604276645434"><ele>105.0</ele><time>2026-03-28T09:01:45Z</time></trkpt><trkpt lat="45.34897284524276" lon="10.64256100977843"><ele>106.0</ele><time>2026-03-28T09:01:46Z</time></trkpt><trkpt lat="45.348854365227666" lon="10.642528367510868"><ele>107.0</ele><time>2026-03-28T09:01:47Z</time></trkpt><trkpt lat="45.34876861208153" lon="10.642500280866512"><ele>108.0</ele><time>2026-03-28T09:01:48Z</time></trkpt><trkpt lat="45.34869845912728" lon="10.642392324510341"><ele>109.0</ele><time>2026-03-28T09:01:50Z</time></trkpt><trkpt lat="45.34869397441197" lon="10.642193443640428"><ele>109.00000000000001</ele><time>2026-03-28T09:01:52Z</time></trkpt><trkpt lat="45.34870500743328" lon="10.642045567856817"><ele>109.0</ele><time>2026-03-28T09:01:53Z</time></trkpt><trkpt lat="45.34872161871551" lon="10.641906979184856"><ele>109.0</ele><time>2026-03-28T09:01:54Z</time></trkpt><trkpt lat="45.34872473160062" lon="10.641809578966726"><ele>109.0</ele><time>2026-03-28T09:01:55Z</time></trkpt><trkpt lat="45.348651578800265" lon="10.641733066980125"><ele>109.00000000000001</ele><time>2026-03-28T09:01:57Z</time></trkpt><trkpt lat="45.34858056340087" lon="10.641724216965262"><ele>109.0</ele><time>2026-03-28T09:01:58Z</time></trkpt><trkpt lat="45.3485050975757" lon="10.64174900093947"><ele>109.0</ele><time>2026-03-28T09:01:59Z</time></trkpt><trkpt lat="45.34840366487952" lon="10.641778698201499"><ele>109.0</ele><time>2026-03-28T09:02:00Z</time></trkpt><trkpt lat="45.34827349313674" lon="10.641811673179246"><ele>109.0</ele><time>2026-03-28T09:02:01Z</time></trkpt><trkpt lat="45.34817796136442" lon="10.641836028612689"><ele>109.0</ele><time>2026-03-28T09:02:02Z</time></trkpt><trkpt lat="45.348085338780926" lon="10.64185421013419"><ele>109.0</ele><time>2026-03-28T09:02:03Z</time></trkpt><trkpt lat="45.34798844984816" lon="10.641875345342623"><ele>109.00000000000001</ele><time>2026-03-28T09:02:04Z</time></trkpt><trkpt lat="45.34790326437797" lon="10.641887049478921"><ele>109.0</ele><time>2026-03-28T09:02:05Z</time></trkpt><trkpt lat="45.3478367399754" lon="10.64188919733694"><ele>109.0</ele><time>2026-03-28T09:02:06Z</time></trkpt><trkpt lat="45.34775696835654" lon="10.641896667966478"><ele>109.0</ele><time>2026-03-28T09:02:08Z</time></trkpt><trkpt lat="45.347693208837924" lon="10.64190276593945"><ele>109.00000000000001</ele><time>2026-03-28T09:02:51.999Z</time></trkpt><trkpt lat="45.34762676467074" lon="10.64192695246736"><ele>109.0</ele><time>2026-03-28T09:02:52.999Z</time></trkpt><trkpt lat="45.34751080480856" lon="10.641951908899173"><ele>108.66666666666667</ele><time>2026-03-28T09:02:54.999Z</time></trkpt><trkpt lat="45.34744604100543" lon="10.641967498040867"><ele>108.33333333333334</ele><time>2026-03-28T09:02:55.999Z</time></trkpt><trkpt lat="45.34737496381059" lon="10.641985441110345"><ele>108.0</ele><time>2026-03-28T09:02:56.999Z</time></trkpt><trkpt lat="45.347290138099936" lon="10.642002688045126"><ele>107.66666666666666</ele><time>2026-03-28T09:02:57.999Z</time></trkpt><trkpt lat="45.34720169533247" lon="10.642020413527662"><ele>107.33333333333333</ele><time>2026-03-28T09:02:58.999Z</time></trkpt><trkpt lat="45.34711650724972" lon="10.642037762823266"><ele>107.0</ele><time>2026-03-28T09:02:59.999Z</time></trkpt><trkpt lat="45.347049347103685" lon="10.642055325983137"><ele>106.39999999999999</ele><time>2026-03-28T09:03:00.999Z</time></trkpt><trkpt lat="45.34692379346153" lon="10.642088485160006"><ele>105.79999999999998</ele><time>2026-03-28T09:03:02.999Z</time></trkpt><trkpt lat="45.346815874276146" lon="10.64209589252625"><ele>105.2</ele><time>2026-03-28T09:03:03.999Z</time></trkpt><trkpt lat="45.346734431676666" lon="10.642151062627171"><ele>104.6</ele><time>2026-03-28T09:03:05.999Z</time></trkpt><trkpt lat="45.3466656884519" lon="10.642076907884833"><ele>104.0</ele><time>2026-03-28T09:03:07.999Z</time></trkpt><trkpt lat="45.34662688048395" lon="10.641956231423917"><ele>105.2</ele><time>2026-03-28T09:03:09.999Z</time></trkpt><trkpt lat="45.34660505215951" lon="10.641852274822208"><ele>106.4</ele><time>2026-03-28T09:03:10.998Z</time></trkpt><trkpt lat="45.346571216388185" lon="10.641745847751494"><ele>107.6</ele><time>2026-03-28T09:03:11.998Z</time></trkpt><trkpt lat="45.34652772262149" lon="10.641625974569784"><ele>108.8</ele><time>2026-03-28T09:03:12.998Z</time></trkpt><trkpt lat="45.34647802331555" lon="10.64149831375826"><ele>110.0</ele><time>2026-03-28T09:03:13.998Z</time></trkpt><trkpt lat="45.34642891841176" lon="10.641358507642861"><ele>109.99999999999999</ele><time>2026-03-28T09:03:14.998Z</time></trkpt><trkpt lat="45.34638446125694" lon="10.641222438764105"><ele>110.0</ele><time>2026-03-28T09:03:15.998Z</time></trkpt><trkpt lat="45.34634956073385" lon="10.641112497703629"><ele>110.0</ele><time>2026-03-28T09:03:16.998Z</time></trkpt><trkpt lat="45.34632659572031" lon="10.641011808453973"><ele>110.0</ele><time>2026-03-28T09:03:17.998Z</time></trkpt><trkpt lat="45.34632822302731" lon="10.64090400867084"><ele>109.99999999999999</ele><time>2026-03-28T09:03:18.998Z</time></trkpt><trkpt lat="45.346352333846504" lon="10.640768676303223"><ele>110.0</ele><time>2026-03-28T09:03:19.998Z</time></trkpt><trkpt lat="45.34638959038189" lon="10.640593796923165"><ele>110.25</ele><time>2026-03-28T09:03:20.998Z</time></trkpt><trkpt lat="45.34641536166043" lon="10.640407371537755"><ele>110.5</ele><time>2026-03-28T09:03:21.998Z</time></trkpt><trkpt lat="45.34640974004586" lon="10.64020923108306"><ele>110.75</ele><time>2026-03-28T09:03:22.998Z</time></trkpt><trkpt lat="45.34637382489988" lon="10.640007289857374"><ele>111.0</ele><time>2026-03-28T09:03:23.998Z</time></trkpt><trkpt lat="45.34631346145436" lon="10.63976591096987"><ele>114.66666666666666</ele><time>2026-03-28T09:03:24.998Z</time></trkpt><trkpt lat="45.346260703449154" lon="10.639525198751839"><ele>118.33333333333333</ele><time>2026-03-28T09:03:25.998Z</time></trkpt><trkpt lat="45.34623828105978" lon="10.639303233011441"><ele>122.0</ele><time>2026-03-28T09:03:26.998Z</time></trkpt><trkpt lat="45.34622125302112" lon="10.639129167269202"><ele>121.99999999999999</ele><time>2026-03-28T09:03:27.998Z</time></trkpt><trkpt lat="45.346216792625576" lon="10.638979216972109"><ele>122.0</ele><time>2026-03-28T09:03:28.998Z</time></trkpt><trkpt lat="45.34620927823777" lon="10.63884512854928"><ele>122.0</ele><time>2026-03-28T09:03:29.998Z</time></trkpt><trkpt lat="45.34619335600373" lon="10.638756360067315"><ele>122.0</ele><time>2026-03-28T09:03:30.998Z</time></trkpt><trkpt lat="45.34616703049822" lon="10.638670259127053"><ele>121.99999999999999</ele><time>2026-03-28T09:03:31.998Z</time></trkpt><trkpt lat="45.346103377882976" lon="10.638541478139018"><ele>122.0</ele><time>2026-03-28T09:03:33.998Z</time></trkpt><trkpt lat="45.34604344566313" lon="10.638448859189777"><ele>122.0</ele><time>2026-03-28T09:03:36.998Z</time></trkpt><trkpt lat="45.34600314371627" lon="10.638351772562041"><ele>121.99999999999999</ele><time>2026-03-28T09:03:38.998Z</time></trkpt><trkpt lat="45.345947101324995" lon="10.638190281706292"><ele>121.99999999999999</ele><time>2026-03-28T09:03:40.998Z</time></trkpt><trkpt lat="45.345912025929955" lon="10.638089801296381"><ele>122.0</ele><time>2026-03-28T09:03:41.998Z</time></trkpt><trkpt lat="45.34587987425381" lon="10.637974727086274"><ele>122.0</ele><time>2026-03-28T09:03:42.998Z</time></trkpt><trkpt lat="45.34584474798112" lon="10.637870308578329"><ele>122.0</ele><time>2026-03-28T09:03:43.998Z</time></trkpt><trkpt lat="45.345818445598255" lon="10.63777357647156"><ele>121.99999999999999</ele><time>2026-03-28T09:03:44.998Z</time></trkpt><trkpt lat="45.34573351050421" lon="10.637648247627538"><ele>121.99999999999999</ele><time>2026-03-28T09:03:46.998Z</time></trkpt><trkpt lat="45.34565734352934" lon="10.63756468405577"><ele>122.0</ele><time>2026-03-28T09:03:47.998Z</time></trkpt><trkpt lat="45.34557350264923" lon="10.637451269939984"><ele>122.0</ele><time>2026-03-28T09:03:48.998Z</time></trkpt><trkpt lat="45.34546891480631" lon="10.637366156682143"><ele>122.0</ele><time>2026-03-28T09:03:50Z</time></trkpt><trkpt lat="45.34535289783806" lon="10.637295618809002"><ele>122.0</ele><time>2026-03-28T09:03:51Z</time></trkpt><trkpt lat="45.345234465429606" lon="10.6372250302128"><ele>122.0</ele><time>2026-03-28T09:03:52Z</time></trkpt><trkpt lat="45.34512200814094" lon="10.637139272849938"><ele>122.0</ele><time>2026-03-28T09:03:53Z</time></trkpt><trkpt lat="45.34501705850461" lon="10.637032327141924"><ele>122.25</ele><time>2026-03-28T09:03:54Z</time></trkpt><trkpt lat="45.344922013801124" lon="10.636904994256813"><ele>122.5</ele><time>2026-03-28T09:03:55Z</time></trkpt><trkpt lat="45.34483363282058" lon="10.636779280600274"><ele>122.75</ele><time>2026-03-28T09:03:56Z</time></trkpt><trkpt lat="45.34476193964491" lon="10.636652468697598"><ele>123.0</ele><time>2026-03-28T09:03:57Z</time></trkpt><trkpt lat="45.34470510243664" lon="10.636513706819562"><ele>124.0</ele><time>2026-03-28T09:03:58Z</time></trkpt><trkpt lat="45.34466289252214" lon="10.636365304844828"><ele>125.0</ele><time>2026-03-28T09:03:59Z</time></trkpt><trkpt lat="45.3446196824171" lon="10.636205307372625"><ele>126.0</ele><time>2026-03-28T09:04:00Z</time></trkpt><trkpt lat="45.344558825822446" lon="10.636071759021108"><ele>127.0</ele><time>2026-03-28T09:04:01Z</time></trkpt><trkpt lat="45.34450646235948" lon="10.635934514915101"><ele>127.0</ele><time>2026-03-28T09:04:02Z</time></trkpt><trkpt lat="45.34444585836832" lon="10.635788415699936"><ele>127.0</ele><time>2026-03-28T09:04:03Z</time></trkpt><trkpt lat="45.344332903128276" lon="10.635665521662274"><ele>127.0</ele><time>2026-03-28T09:04:04Z</time></trkpt><trkpt lat="45.344222609997786" lon="10.635533280989454"><ele>127.0</ele><time>2026-03-28T09:04:05Z</time></trkpt><trkpt lat="45.344111294768304" lon="10.635395537033391"><ele>127.0</ele><time>2026-03-28T09:04:06Z</time></trkpt><trkpt lat="45.34400735555296" lon="10.635239059038724"><ele>127.0</ele><time>2026-03-28T09:04:07Z</time></trkpt><trkpt lat="45.343896990795585" lon="10.635096723887319"><ele>127.0</ele><time>2026-03-28T09:04:08Z</time></trkpt><trkpt lat="45.34380063255701" lon="10.634955058187519"><ele>127.0</ele><time>2026-03-28T09:04:09Z</time></trkpt><trkpt lat="45.343749783500044" lon="10.634800120639436"><ele>125.0</ele><time>2026-03-28T09:04:10Z</time></trkpt><trkpt lat="45.34371480107852" lon="10.634641026839411"><ele>123.0</ele><time>2026-03-28T09:04:11Z</time></trkpt><trkpt lat="45.343689918033164" lon="10.634459321950242"><ele>121.0</ele><time>2026-03-28T09:04:12Z</time></trkpt><trkpt lat="45.343668918065305" lon="10.634267684738044"><ele>119.0</ele><time>2026-03-28T09:04:13Z</time></trkpt><trkpt lat="45.343646732971855" lon="10.634059990949535"><ele>119.0</ele><time>2026-03-28T09:04:14Z</time></trkpt><trkpt lat="45.34361727324901" lon="10.633878787957576"><ele>119.0</ele><time>2026-03-28T09:04:15Z</time></trkpt><trkpt lat="45.3436337081267" lon="10.633738430568048"><ele>119.0</ele><time>2026-03-28T09:04:16Z</time></trkpt><trkpt lat="45.34367279042763" lon="10.633588598840628"><ele>119.0</ele><time>2026-03-28T09:04:17Z</time></trkpt><trkpt lat="45.343740470529205" lon="10.633453337186795"><ele>121.25</ele><time>2026-03-28T09:04:18Z</time></trkpt><trkpt lat="45.343812615043845" lon="10.63331984554725"><ele>123.5</ele><time>2026-03-28T09:04:19Z</time></trkpt><trkpt lat="45.343882148705504" lon="10.63317595101574"><ele>125.75</ele><time>2026-03-28T09:04:20Z</time></trkpt><trkpt lat="45.34391740849647" lon="10.633020572682616"><ele>128.0</ele><time>2026-03-28T09:04:21Z</time></trkpt><trkpt lat="45.3439232535018" lon="10.632847767514205"><ele>128.25</ele><time>2026-03-28T09:04:22Z</time></trkpt><trkpt lat="45.34391977994546" lon="10.632664251042188"><ele>128.5</ele><time>2026-03-28T09:04:23Z</time></trkpt><trkpt lat="45.343918615222094" lon="10.632471074029034"><ele>128.75</ele><time>2026-03-28T09:04:24Z</time></trkpt><trkpt lat="45.343933530725934" lon="10.632277288816917"><ele>129.0</ele><time>2026-03-28T09:04:25Z</time></trkpt><trkpt lat="45.343958644899956" lon="10.632074336401068"><ele>130.0</ele><time>2026-03-28T09:04:25.999Z</time></trkpt><trkpt lat="45.3439873259448" lon="10.631867559515452"><ele>131.0</ele><time>2026-03-28T09:04:26.999Z</time></trkpt><trkpt lat="45.344015362720015" lon="10.631670413058002"><ele>132.0</ele><time>2026-03-28T09:04:27.999Z</time></trkpt><trkpt lat="45.34403493506372" lon="10.631481014123949"><ele>133.0</ele><time>2026-03-28T09:04:28.999Z</time></trkpt><trkpt lat="45.344047574643255" lon="10.631308213587522"><ele>133.0</ele><time>2026-03-28T09:04:29.999Z</time></trkpt><trkpt lat="45.344057845112296" lon="10.631152501868161"><ele>133.0</ele><time>2026-03-28T09:04:30.999Z</time></trkpt><trkpt lat="45.34408446739016" lon="10.630988969540612"><ele>133.0</ele><time>2026-03-28T09:04:31.999Z</time></trkpt><trkpt lat="45.344133638485175" lon="10.630821598917752"><ele>133.0</ele><time>2026-03-28T09:04:32.999Z</time></trkpt><trkpt lat="45.34419236298025" lon="10.630649940377264"><ele>133.25</ele><time>2026-03-28T09:04:33.999Z</time></trkpt><trkpt lat="45.344256333604676" lon="10.630490624601299"><ele>133.5</ele><time>2026-03-28T09:04:34.999Z</time></trkpt><trkpt lat="45.34432887910738" lon="10.6303459385829"><ele>133.75</ele><time>2026-03-28T09:04:35.999Z</time></trkpt><trkpt lat="45.344397709985245" lon="10.63020645376246"><ele>134.0</ele><time>2026-03-28T09:04:36.999Z</time></trkpt><trkpt lat="45.34445786812395" lon="10.630068565436337"><ele>134.0</ele><time>2026-03-28T09:04:37.999Z</time></trkpt><trkpt lat="45.34450434897035" lon="10.629939510352727"><ele>134.0</ele><time>2026-03-28T09:04:38.999Z</time></trkpt><trkpt lat="45.344532870045484" lon="10.629829333040291"><ele>134.0</ele><time>2026-03-28T09:04:39.999Z</time></trkpt><trkpt lat="45.34455917408349" lon="10.62974416448983"><ele>134.0</ele><time>2026-03-28T09:04:40.999Z</time></trkpt><trkpt lat="45.34458575699354" lon="10.62963832141413"><ele>134.0</ele><time>2026-03-28T09:04:41.999Z</time></trkpt><trkpt lat="45.34463171659596" lon="10.6295440353233"><ele>134.0</ele><time>2026-03-28T09:04:42.999Z</time></trkpt><trkpt lat="45.344663901416844" lon="10.629456791098775"><ele>134.0</ele><time>2026-03-28T09:04:43.999Z</time></trkpt><trkpt lat="45.344709766634324" lon="10.629351494151397"><ele>134.0</ele><time>2026-03-28T09:04:45.999Z</time></trkpt><trkpt lat="45.34457410528088" lon="10.629341201401854"><ele>134.0</ele><time>2026-03-28T09:04:47.999Z</time></trkpt><trkpt lat="45.34445006186785" lon="10.629447912077255"><ele>134.0</ele><time>2026-03-28T09:04:49.999Z</time></trkpt><trkpt lat="45.344327913155645" lon="10.62955827126586"><ele>134.0</ele><time>2026-03-28T09:04:50.999Z</time></trkpt><trkpt lat="45.34419897899654" lon="10.629639398892094"><ele>134.0</ele><time>2026-03-28T09:04:51.999Z</time></trkpt><trkpt lat="45.34407458545692" lon="10.629752176841361"><ele>134.0</ele><time>2026-03-28T09:04:52.999Z</time></trkpt><trkpt lat="45.343956612964504" lon="10.629904071391483"><ele>134.0</ele><time>2026-03-28T09:04:53.999Z</time></trkpt><trkpt lat="45.34383154117194" lon="10.630061231379738"><ele>133.66666666666666</ele><time>2026-03-28T09:04:54.999Z</time></trkpt><trkpt lat="45.343680640094746" lon="10.63018837398572"><ele>133.33333333333334</ele><time>2026-03-28T09:04:55.999Z</time></trkpt><trkpt lat="45.34353132071718" lon="10.630319215624198"><ele>133.0</ele><time>2026-03-28T09:04:56.999Z</time></trkpt><trkpt lat="45.34338395958331" lon="10.630475710363019"><ele>133.0</ele><time>2026-03-28T09:04:57.999Z</time></trkpt><trkpt lat="45.34323244761945" lon="10.630606234163347"><ele>133.0</ele><time>2026-03-28T09:04:58.999Z</time></trkpt><trkpt lat="45.34306349083423" lon="10.630733352411042"><ele>133.0</ele><time>2026-03-28T09:04:59.999Z</time></trkpt><trkpt lat="45.34290121675921" lon="10.63087778824407"><ele>132.66666666666669</ele><time>2026-03-28T09:05:00.999Z</time></trkpt><trkpt lat="45.342742340457356" lon="10.6310167797548"><ele>132.33333333333334</ele><time>2026-03-28T09:05:01.999Z</time></trkpt><trkpt lat="45.342598579555066" lon="10.631163972987581"><ele>132.0</ele><time>2026-03-28T09:05:02.999Z</time></trkpt><trkpt lat="45.34245570037426" lon="10.631284408867916"><ele>132.0</ele><time>2026-03-28T09:05:03.999Z</time></trkpt><trkpt lat="45.34232222781611" lon="10.63140164079052"><ele>132.0</ele><time>2026-03-28T09:05:04.999Z</time></trkpt><trkpt lat="45.34221029909282" lon="10.631516896109348"><ele>132.0</ele><time>2026-03-28T09:05:05.999Z</time></trkpt><trkpt lat="45.34212080974103" lon="10.63165444360793"><ele>132.0</ele><time>2026-03-28T09:05:06.999Z</time></trkpt><trkpt lat="45.34205429148026" lon="10.631819327877688"><ele>130.0</ele><time>2026-03-28T09:05:07.999Z</time></trkpt><trkpt lat="45.341989268195206" lon="10.631996029967137"><ele>128.0</ele><time>2026-03-28T09:05:08.999Z</time></trkpt><trkpt lat="45.341902261185574" lon="10.632198007068673"><ele>126.0</ele><time>2026-03-28T09:05:09.999Z</time></trkpt><trkpt lat="45.34182169508213" lon="10.632399640882575"><ele>126.0</ele><time>2026-03-28T09:05:10.999Z</time></trkpt><trkpt lat="45.34172338076919" lon="10.632596598932567"><ele>126.0</ele><time>2026-03-28T09:05:11.999Z</time></trkpt><trkpt lat="45.34159608808308" lon="10.632765754936631"><ele>126.0</ele><time>2026-03-28T09:05:12.999Z</time></trkpt><trkpt lat="45.34147740067264" lon="10.63293723783015"><ele>125.5</ele><time>2026-03-28T09:05:13.999Z</time></trkpt><trkpt lat="45.34136348730576" lon="10.63309094040951"><ele>125.0</ele><time>2026-03-28T09:05:14.999Z</time></trkpt><trkpt lat="45.34127390889759" lon="10.63318116590947"><ele>124.5</ele><time>2026-03-28T09:05:15.999Z</time></trkpt><trkpt lat="45.341187978243276" lon="10.63323440939754"><ele>124.0</ele><time>2026-03-28T09:05:16.998Z</time></trkpt><trkpt lat="45.34110133440671" lon="10.63328897787916"><ele>124.0</ele><time>2026-03-28T09:05:17.998Z</time></trkpt><trkpt lat="45.34100254224313" lon="10.633351198603092"><ele>124.0</ele><time>2026-03-28T09:05:18.998Z</time></trkpt><trkpt lat="45.34089268482966" lon="10.633413163317517"><ele>124.0</ele><time>2026-03-28T09:05:19.998Z</time></trkpt><trkpt lat="45.34076137734597" lon="10.633475209612879"><ele>124.0</ele><time>2026-03-28T09:05:20.998Z</time></trkpt><trkpt lat="45.34063387844217" lon="10.633574879966796"><ele>123.66666666666667</ele><time>2026-03-28T09:05:21.998Z</time></trkpt><trkpt lat="45.34048650335236" lon="10.63365890685773"><ele>123.33333333333334</ele><time>2026-03-28T09:05:22.998Z</time></trkpt><trkpt lat="45.34031430842249" lon="10.633738063748932"><ele>123.0</ele><time>2026-03-28T09:05:23.998Z</time></trkpt><trkpt lat="45.340126055822836" lon="10.633811749494875"><ele>123.0</ele><time>2026-03-28T09:05:24.998Z</time></trkpt><trkpt lat="45.33990744525487" lon="10.633859842457984"><ele>123.0</ele><time>2026-03-28T09:05:25.998Z</time></trkpt><trkpt lat="45.33973813396757" lon="10.6340213148531"><ele>123.0</ele><time>2026-03-28T09:05:26.998Z</time></trkpt><trkpt lat="45.33958927878379" lon="10.634148155841357"><ele>122.0</ele><time>2026-03-28T09:05:27.998Z</time></trkpt><trkpt lat="45.33945659650967" lon="10.634251134620184"><ele>121.0</ele><time>2026-03-28T09:05:28.998Z</time></trkpt><trkpt lat="45.3392779743019" lon="10.634163573652499"><ele>120.0</ele><time>2026-03-28T09:05:29.998Z</time></trkpt><trkpt lat="45.33919341219395" lon="10.63420042195995"><ele>119.0</ele><time>2026-03-28T09:05:30.998Z</time></trkpt><trkpt lat="45.33907394741427" lon="10.63416532008894"><ele>118.99999999999999</ele><time>2026-03-28T09:05:32.998Z</time></trkpt><trkpt lat="45.33904150074001" lon="10.634079537833435"><ele>119.0</ele><time>2026-03-28T09:05:33.998Z</time></trkpt><trkpt lat="45.33901709575291" lon="10.633981854303038"><ele>119.0</ele><time>2026-03-28T09:05:34.998Z</time></trkpt><trkpt lat="45.338914067888126" lon="10.633940294797974"><ele>119.0</ele><time>2026-03-28T09:05:36.998Z</time></trkpt><trkpt lat="45.33884971965173" lon="10.633990294627496"><ele>118.99999999999999</ele><time>2026-03-28T09:05:37.998Z</time></trkpt><trkpt lat="45.338759460336576" lon="10.634082670153283"><ele>119.0</ele><time>2026-03-28T09:05:38.998Z</time></trkpt><trkpt lat="45.33864717146015" lon="10.634188459711337"><ele>119.33333333333333</ele><time>2026-03-28T09:05:39.998Z</time></trkpt><trkpt lat="45.338516120545286" lon="10.634306362795575"><ele>119.66666666666666</ele><time>2026-03-28T09:05:40.998Z</time></trkpt><trkpt lat="45.33837294704548" lon="10.63442322059471"><ele>120.0</ele><time>2026-03-28T09:05:41.998Z</time></trkpt><trkpt lat="45.33823106599201" lon="10.634553234388768"><ele>120.0</ele><time>2026-03-28T09:05:42.998Z</time></trkpt><trkpt lat="45.33808441738658" lon="10.634691562834401"><ele>120.0</ele><time>2026-03-28T09:05:43.998Z</time></trkpt><trkpt lat="45.337941792870545" lon="10.63483952913324"><ele>120.0</ele><time>2026-03-28T09:05:44.998Z</time></trkpt><trkpt lat="45.33780613520155" lon="10.63496952009011"><ele>119.2</ele><time>2026-03-28T09:05:45.998Z</time></trkpt><trkpt lat="45.337697163324094" lon="10.635071487552493"><ele>118.4</ele><time>2026-03-28T09:05:46.998Z</time></trkpt><trkpt lat="45.337610178027326" lon="10.635155148774771"><ele>117.6</ele><time>2026-03-28T09:05:47.998Z</time></trkpt><trkpt lat="45.33754585091318" lon="10.635236626132954"><ele>116.8</ele><time>2026-03-28T09:05:48.998Z</time></trkpt><trkpt lat="45.337497478246114" lon="10.635313835669548"><ele>116.0</ele><time>2026-03-28T09:05:49.998Z</time></trkpt><trkpt lat="45.33737926511197" lon="10.63530560469775"><ele>115.19999999999999</ele><time>2026-03-28T09:05:51.998Z</time></trkpt><trkpt lat="45.33732046979606" lon="10.635239205529773"><ele>114.39999999999999</ele><time>2026-03-28T09:05:52.998Z</time></trkpt><trkpt lat="45.33725103742485" lon="10.635147702735779"><ele>113.6</ele><time>2026-03-28T09:05:53.998Z</time></trkpt><trkpt lat="45.3371647166679" lon="10.635032750385237"><ele>112.8</ele><time>2026-03-28T09:05:54.998Z</time></trkpt><trkpt lat="45.33705302771079" lon="10.634927495667972"><ele>112.0</ele><time>2026-03-28T09:05:56Z</time></trkpt><trkpt lat="45.336917832983744" lon="10.634823240023268"><ele>110.6</ele><time>2026-03-28T09:05:57Z</time></trkpt><trkpt lat="45.33681107294479" lon="10.634753953528824"><ele>109.19999999999999</ele><time>2026-03-28T09:05:58Z</time></trkpt><trkpt lat="45.3367238631147" lon="10.634676292421108"><ele>107.8</ele><time>2026-03-28T09:05:59Z</time></trkpt><trkpt lat="45.33665502964951" lon="10.634581542460538"><ele>106.4</ele><time>2026-03-28T09:06:00Z</time></trkpt><trkpt lat="45.3366048124457" lon="10.63447573680268"><ele>105.0</ele><time>2026-03-28T09:06:01Z</time></trkpt><trkpt lat="45.336569081706465" lon="10.634381715116854"><ele>105.0</ele><time>2026-03-28T09:06:02Z</time></trkpt><trkpt lat="45.33646454971492" lon="10.634352298321495"><ele>105.0</ele><time>2026-03-28T09:06:04Z</time></trkpt><trkpt lat="45.33637676591335" lon="10.634376604409699"><ele>105.0</ele><time>2026-03-28T09:06:05Z</time></trkpt><trkpt lat="45.33627750361503" lon="10.634422339368493"><ele>105.0</ele><time>2026-03-28T09:06:06Z</time></trkpt><trkpt lat="45.33614514668334" lon="10.634479462683625"><ele>105.0</ele><time>2026-03-28T09:06:07Z</time></trkpt><trkpt lat="45.33602812796931" lon="10.634546706862054"><ele>104.25</ele><time>2026-03-28T09:06:08Z</time></trkpt><trkpt lat="45.335947849808676" lon="10.634626777852759"><ele>103.5</ele><time>2026-03-28T09:06:09Z</time></trkpt><trkpt lat="45.335900610304684" lon="10.634740810918723"><ele>102.75</ele><time>2026-03-28T09:06:10Z</time></trkpt><trkpt lat="45.33582457946167" lon="10.634906519529363"><ele>102.0</ele><time>2026-03-28T09:06:11Z</time></trkpt><trkpt lat="45.33573871781845" lon="10.635086548812506"><ele>102.0</ele><time>2026-03-28T09:06:12Z</time></trkpt><trkpt lat="45.33564414892092" lon="10.635284252629798"><ele>102.0</ele><time>2026-03-28T09:06:13Z</time></trkpt><trkpt lat="45.335555881378994" lon="10.63550145985761"><ele>102.0</ele><time>2026-03-28T09:06:14Z</time></trkpt><trkpt lat="45.335480479228345" lon="10.635690367456256"><ele>100.75</ele><time>2026-03-28T09:06:15Z</time></trkpt><trkpt lat="45.33540141967028" lon="10.635865692940552"><ele>99.5</ele><time>2026-03-28T09:06:16Z</time></trkpt><trkpt lat="45.33532299441049" lon="10.63598336069406"><ele>98.25</ele><time>2026-03-28T09:06:17Z</time></trkpt><trkpt lat="45.33523759898934" lon="10.636092701389124"><ele>97.0</ele><time>2026-03-28T09:06:18Z</time></trkpt><trkpt lat="45.33512759043392" lon="10.636184479049737"><ele>97.0</ele><time>2026-03-28T09:06:19Z</time></trkpt><trkpt lat="45.33501311102001" lon="10.636280247118009"><ele>97.0</ele><time>2026-03-28T09:06:20Z</time></trkpt><trkpt lat="45.33491527934838" lon="10.6363756660846"><ele>97.0</ele><time>2026-03-28T09:06:21Z</time></trkpt><trkpt lat="45.33480823150979" lon="10.636480197857905"><ele>97.0</ele><time>2026-03-28T09:06:22Z</time></trkpt><trkpt lat="45.33470088003889" lon="10.636582640972902"><ele>97.0</ele><time>2026-03-28T09:06:23Z</time></trkpt><trkpt lat="45.33460874621151" lon="10.636683030584077"><ele>97.0</ele><time>2026-03-28T09:06:24Z</time></trkpt><trkpt lat="45.334536796406304" lon="10.636786874674401"><ele>97.0</ele><time>2026-03-28T09:06:25Z</time></trkpt><trkpt lat="45.3344830400815" lon="10.636902055633998"><ele>97.0</ele><time>2026-03-28T09:06:26Z</time></trkpt><trkpt lat="45.33440912264024" lon="10.63705429286269"><ele>97.0</ele><time>2026-03-28T09:06:27Z</time></trkpt><trkpt lat="45.33433936642848" lon="10.637194449234924"><ele>96.0</ele><time>2026-03-28T09:06:28Z</time></trkpt><trkpt lat="45.3342790560577" lon="10.63729801912485"><ele>95.0</ele><time>2026-03-28T09:06:29Z</time></trkpt><trkpt lat="45.334212666919576" lon="10.637390969406223"><ele>94.0</ele><time>2026-03-28T09:06:30Z</time></trkpt><trkpt lat="45.33415338795611" lon="10.637463582449142"><ele>93.0</ele><time>2026-03-28T09:06:31Z</time></trkpt><trkpt lat="45.33407038686126" lon="10.6375154562485"><ele>92.0</ele><time>2026-03-28T09:06:31.999Z</time></trkpt><trkpt lat="45.333953797805144" lon="10.63757707784729"><ele>94.0</ele><time>2026-03-28T09:06:32.999Z</time></trkpt><trkpt lat="45.33380938813087" lon="10.637652762024908"><ele>96.0</ele><time>2026-03-28T09:06:33.999Z</time></trkpt><trkpt lat="45.33365065287948" lon="10.637731650782943"><ele>98.0</ele><time>2026-03-28T09:06:34.999Z</time></trkpt><trkpt lat="45.33348010408282" lon="10.637794269819118"><ele>95.75</ele><time>2026-03-28T09:06:35.999Z</time></trkpt><trkpt lat="45.33333476584987" lon="10.63785507312061"><ele>93.5</ele><time>2026-03-28T09:06:36.999Z</time></trkpt><trkpt lat="45.33321667440702" lon="10.637912537903066"><ele>91.25</ele><time>2026-03-28T09:06:37.999Z</time></trkpt><trkpt lat="45.33313194126949" lon="10.637979319466377"><ele>89.0</ele><time>2026-03-28T09:06:38.999Z</time></trkpt><trkpt lat="45.333064789174955" lon="10.638034126698223"><ele>91.0</ele><time>2026-03-28T09:06:39.999Z</time></trkpt><trkpt lat="45.33301301467561" lon="10.638109712344818"><ele>93.0</ele><time>2026-03-28T09:06:40.999Z</time></trkpt><trkpt lat="45.332940492648135" lon="10.638241234390447"><ele>95.0</ele><time>2026-03-28T09:06:41.999Z</time></trkpt><trkpt lat="45.33277090209998" lon="10.63827676985522"><ele>97.0</ele><time>2026-03-28T09:06:42.999Z</time></trkpt><trkpt lat="45.332699460463886" lon="10.638404345092422"><ele>97.0</ele><time>2026-03-28T09:06:43.999Z</time></trkpt><trkpt lat="45.33264416694002" lon="10.638498864644392"><ele>97.0</ele><time>2026-03-28T09:06:44.999Z</time></trkpt><trkpt lat="45.33258415073383" lon="10.638592576582283"><ele>97.0</ele><time>2026-03-28T09:06:45.999Z</time></trkpt><trkpt lat="45.332507590004916" lon="10.638672104383497"><ele>97.0</ele><time>2026-03-28T09:06:46.999Z</time></trkpt><trkpt lat="45.33239472670029" lon="10.638735442753823"><ele>97.0</ele><time>2026-03-28T09:06:47.999Z</time></trkpt><trkpt lat="45.33226262905445" lon="10.638818283758637"><ele>93.75</ele><time>2026-03-28T09:06:48.999Z</time></trkpt><trkpt lat="45.33212838133677" lon="10.63889455277704"><ele>90.5</ele><time>2026-03-28T09:06:49.999Z</time></trkpt><trkpt lat="45.332027723409375" lon="10.638974246356995"><ele>87.25</ele><time>2026-03-28T09:06:50.999Z</time></trkpt><trkpt lat="45.33196178089958" lon="10.639132386933877"><ele>84.0</ele><time>2026-03-28T09:06:51.999Z</time></trkpt><trkpt lat="45.33187738686451" lon="10.639293308826426"><ele>84.0</ele><time>2026-03-28T09:06:52.999Z</time></trkpt><trkpt lat="45.331764510431256" lon="10.639384712517165"><ele>84.0</ele><time>2026-03-28T09:06:53.999Z</time></trkpt><trkpt lat="45.33166752523342" lon="10.639466013125189"><ele>84.0</ele><time>2026-03-28T09:06:54.999Z</time></trkpt><trkpt lat="45.33159450912567" lon="10.639545379259218"><ele>84.0</ele><time>2026-03-28T09:06:55.999Z</time></trkpt><trkpt lat="45.331585033425085" lon="10.639681740036755"><ele>84.0</ele><time>2026-03-28T09:06:56.999Z</time></trkpt><trkpt lat="45.33157322304723" lon="10.639808465376287"><ele>84.0</ele><time>2026-03-28T09:06:57.999Z</time></trkpt><trkpt lat="45.33155043223878" lon="10.639922809712093"><ele>84.0</ele><time>2026-03-28T09:06:59.999Z</time></trkpt><trkpt lat="45.331401591854984" lon="10.639854804171181"><ele>84.0</ele><time>2026-03-28T09:07:02.999Z</time></trkpt><trkpt lat="45.331336083265896" lon="10.639851256779481"><ele>84.0</ele><time>2026-03-28T09:07:03.999Z</time></trkpt><trkpt lat="45.33125792809228" lon="10.639847024550301"><ele>84.0</ele><time>2026-03-28T09:07:04.999Z</time></trkpt><trkpt lat="45.33117279596709" lon="10.63984241447132"><ele>84.75</ele><time>2026-03-28T09:07:05.999Z</time></trkpt><trkpt lat="45.33107889562042" lon="10.6398419961259"><ele>85.5</ele><time>2026-03-28T09:07:06.999Z</time></trkpt><trkpt lat="45.33096829581962" lon="10.639839383313253"><ele>86.25</ele><time>2026-03-28T09:07:07.999Z</time></trkpt><trkpt lat="45.330844065527884" lon="10.639836448495041"><ele>87.0</ele><time>2026-03-28T09:07:08.999Z</time></trkpt><trkpt lat="45.33071066341682" lon="10.639828671528912"><ele>87.0</ele><time>2026-03-28T09:07:09.999Z</time></trkpt><trkpt lat="45.330578047705096" lon="10.639811604187285"><ele>87.0</ele><time>2026-03-28T09:07:10.999Z</time></trkpt><trkpt lat="45.33043972314383" lon="10.639760074159275"><ele>87.0</ele><time>2026-03-28T09:07:11.999Z</time></trkpt><trkpt lat="45.33029112166232" lon="10.63970622987121"><ele>87.0</ele><time>2026-03-28T09:07:12.999Z</time></trkpt><trkpt lat="45.330144945537334" lon="10.639654909640385"><ele>87.0</ele><time>2026-03-28T09:07:13.999Z</time></trkpt><trkpt lat="45.330011445382624" lon="10.639610144549778"><ele>87.0</ele><time>2026-03-28T09:07:14.999Z</time></trkpt><trkpt lat="45.32990499762958" lon="10.639580563010417"><ele>87.0</ele><time>2026-03-28T09:07:15.999Z</time></trkpt><trkpt lat="45.32981069617649" lon="10.639598643411723"><ele>87.0</ele><time>2026-03-28T09:07:16.999Z</time></trkpt><trkpt lat="45.32973727803623" lon="10.63962207754305"><ele>87.0</ele><time>2026-03-28T09:07:17.999Z</time></trkpt><trkpt lat="45.3296656672348" lon="10.639656323199338"><ele>86.0</ele><time>2026-03-28T09:07:18.999Z</time></trkpt><trkpt lat="45.329582667544145" lon="10.639754446802883"><ele>85.0</ele><time>2026-03-28T09:07:19.999Z</time></trkpt><trkpt lat="45.32951453218123" lon="10.639849963906844"><ele>84.0</ele><time>2026-03-28T09:07:20.999Z</time></trkpt><trkpt lat="45.3294555631473" lon="10.639917925564838"><ele>83.0</ele><time>2026-03-28T09:07:21.999Z</time></trkpt><trkpt lat="45.32939902136165" lon="10.639974120033152"><ele>82.0</ele><time>2026-03-28T09:07:23.998Z</time></trkpt><trkpt lat="45.32942150856482" lon="10.640146663358504"><ele>82.0</ele><time>2026-03-28T09:07:25.998Z</time></trkpt><trkpt lat="45.32943660672455" lon="10.6402650095039"><ele>82.0</ele><time>2026-03-28T09:07:26.998Z</time></trkpt><trkpt lat="45.32946571052761" lon="10.640402370506552"><ele>82.0</ele><time>2026-03-28T09:07:27.998Z</time></trkpt><trkpt lat="45.3295024021424" lon="10.640562371356388"><ele>82.0</ele><time>2026-03-28T09:07:28.998Z</time></trkpt><trkpt lat="45.329527388296704" lon="10.640736155803292"><ele>82.0</ele><time>2026-03-28T09:07:29.998Z</time></trkpt><trkpt lat="45.32956774598241" lon="10.640915780948133"><ele>82.25</ele><time>2026-03-28T09:07:30.998Z</time></trkpt><trkpt lat="45.3295988698618" lon="10.641096411570492"><ele>82.5</ele><time>2026-03-28T09:07:31.998Z</time></trkpt><trkpt lat="45.32960144019462" lon="10.6412509143056"><ele>82.75</ele><time>2026-03-28T09:07:32.998Z</time></trkpt><trkpt lat="45.32957425099495" lon="10.641393970097464"><ele>83.0</ele><time>2026-03-28T09:07:33.998Z</time></trkpt><trkpt lat="45.32949424869577" lon="10.641510868526083"><ele>83.0</ele><time>2026-03-28T09:07:34.998Z</time></trkpt><trkpt lat="45.32942242076317" lon="10.641642922449442"><ele>83.0</ele><time>2026-03-28T09:07:35.998Z</time></trkpt><trkpt lat="45.32934799286377" lon="10.64177445079913"><ele>83.0</ele><time>2026-03-28T09:07:36.998Z</time></trkpt><trkpt lat="45.32927493059946" lon="10.641916166903236"><ele>83.0</ele><time>2026-03-28T09:07:37.998Z</time></trkpt><trkpt lat="45.32921289514255" lon="10.642075476751687"><ele>82.75</ele><time>2026-03-28T09:07:38.998Z</time></trkpt><trkpt lat="45.32917160746832" lon="10.642248816445681"><ele>82.5</ele><time>2026-03-28T09:07:39.998Z</time></trkpt><trkpt lat="45.32913984643672" lon="10.642434012626465"><ele>82.25</ele><time>2026-03-28T09:07:40.998Z</time></trkpt><trkpt lat="45.32912958191092" lon="10.642625229982963"><ele>82.0</ele><time>2026-03-28T09:07:41.998Z</time></trkpt><trkpt lat="45.32910996081789" lon="10.64282428439453"><ele>82.66666666666666</ele><time>2026-03-28T09:07:42.998Z</time></trkpt><trkpt lat="45.32909177875471" lon="10.643027084777211"><ele>83.33333333333333</ele><time>2026-03-28T09:07:43.998Z</time></trkpt><trkpt lat="45.329077494386546" lon="10.643243773760931"><ele>84.0</ele><time>2026-03-28T09:07:44.998Z</time></trkpt><trkpt lat="45.329064845188746" lon="10.643474098759016"><ele>83.66666666666667</ele><time>2026-03-28T09:07:45.998Z</time></trkpt><trkpt lat="45.32905478826726" lon="10.643713155421205"><ele>83.33333333333334</ele><time>2026-03-28T09:07:46.998Z</time></trkpt><trkpt lat="45.3290444160278" lon="10.64396201634312"><ele>83.0</ele><time>2026-03-28T09:07:47.998Z</time></trkpt><trkpt lat="45.32903581117342" lon="10.644205392892731"><ele>83.0</ele><time>2026-03-28T09:07:48.998Z</time></trkpt><trkpt lat="45.32901205014891" lon="10.644454597681833"><ele>83.0</ele><time>2026-03-28T09:07:49.998Z</time></trkpt><trkpt lat="45.32900323268641" lon="10.644673518129014"><ele>83.0</ele><time>2026-03-28T09:07:50.998Z</time></trkpt><trkpt lat="45.32900966927411" lon="10.644872773408869"><ele>83.5</ele><time>2026-03-28T09:07:51.998Z</time></trkpt><trkpt lat="45.32899873592716" lon="10.645054862965456"><ele>84.0</ele><time>2026-03-28T09:07:52.998Z</time></trkpt><trkpt lat="45.3289927149162" lon="10.645231059875028"><ele>84.5</ele><time>2026-03-28T09:07:53.998Z</time></trkpt><trkpt lat="45.32898706472827" lon="10.645409857388696"><ele>85.0</ele><time>2026-03-28T09:07:54.998Z</time></trkpt><trkpt lat="45.32897717767001" lon="10.64558429511384"><ele>85.33333333333333</ele><time>2026-03-28T09:07:55.998Z</time></trkpt><trkpt lat="45.32896465161282" lon="10.645750884086638"><ele>85.66666666666666</ele><time>2026-03-28T09:07:56.998Z</time></trkpt><trkpt lat="45.32894810676059" lon="10.645890447883568"><ele>86.0</ele><time>2026-03-28T09:07:57.998Z</time></trkpt><trkpt lat="45.328912622180354" lon="10.645996146334383"><ele>86.33333333333333</ele><time>2026-03-28T09:07:58.998Z</time></trkpt><trkpt lat="45.328908393847215" lon="10.646086404065633"><ele>86.66666666666667</ele><time>2026-03-28T09:07:59.998Z</time></trkpt><trkpt lat="45.32887231309437" lon="10.646197461978932"><ele>87.0</ele><time>2026-03-28T09:08:02Z</time></trkpt><trkpt lat="45.328824690189045" lon="10.646266829160808"><ele>87.75</ele><time>2026-03-28T09:08:03Z</time></trkpt><trkpt lat="45.32877119398322" lon="10.646390704877424"><ele>88.5</ele><time>2026-03-28T09:08:04Z</time></trkpt><trkpt lat="45.32871810611248" lon="10.646548705390344"><ele>89.25</ele><time>2026-03-28T09:08:05Z</time></trkpt><trkpt lat="45.328662421373494" lon="10.646713385702865"><ele>90.0</ele><time>2026-03-28T09:08:06Z</time></trkpt><trkpt lat="45.328598345407094" lon="10.646895328530903"><ele>89.66666666666667</ele><time>2026-03-28T09:08:07Z</time></trkpt><trkpt lat="45.32852206398229" lon="10.647085457039989"><ele>89.33333333333334</ele><time>2026-03-28T09:08:08Z</time></trkpt><trkpt lat="45.32840429146732" lon="10.64722495049136"><ele>89.0</ele><time>2026-03-28T09:08:09Z</time></trkpt><trkpt lat="45.32827385366278" lon="10.647379952661126"><ele>89.0</ele><time>2026-03-28T09:08:10Z</time></trkpt><trkpt lat="45.32814583836171" lon="10.647544738654306"><ele>89.0</ele><time>2026-03-28T09:08:11Z</time></trkpt><trkpt lat="45.328027913534925" lon="10.647728369772842"><ele>89.0</ele><time>2026-03-28T09:08:12Z</time></trkpt><trkpt lat="45.327934099649475" lon="10.647934501655437"><ele>94.0</ele><time>2026-03-28T09:08:13Z</time></trkpt><trkpt lat="45.32781703733021" lon="10.648119860770377"><ele>99.0</ele><time>2026-03-28T09:08:14Z</time></trkpt><trkpt lat="45.327713124296004" lon="10.648322345859471"><ele>104.0</ele><time>2026-03-28T09:08:15Z</time></trkpt><trkpt lat="45.327619463986245" lon="10.648554639422569"><ele>102.66666666666666</ele><time>2026-03-28T09:08:16Z</time></trkpt><trkpt lat="45.327518934411465" lon="10.648770356846446"><ele>101.33333333333334</ele><time>2026-03-28T09:08:17Z</time></trkpt><trkpt lat="45.32742111149772" lon="10.648999039114816"><ele>100.0</ele><time>2026-03-28T09:08:18Z</time></trkpt><trkpt lat="45.32732573807081" lon="10.649222080629032"><ele>100.0</ele><time>2026-03-28T09:08:19Z</time></trkpt><trkpt lat="45.327229781523606" lon="10.649449519040065"><ele>100.0</ele><time>2026-03-28T09:08:20Z</time></trkpt><trkpt lat="45.32713467919419" lon="10.649681793007032"><ele>100.0</ele><time>2026-03-28T09:08:21Z</time></trkpt><trkpt lat="45.327041362537955" lon="10.649919237140963"><ele>101.33333333333334</ele><time>2026-03-28T09:08:22Z</time></trkpt><trkpt lat="45.32692825412288" lon="10.65014328321669"><ele>102.66666666666666</ele><time>2026-03-28T09:08:23Z</time></trkpt><trkpt lat="45.32685080717644" lon="10.65037520233766"><ele>104.0</ele><time>2026-03-28T09:08:24Z</time></trkpt><trkpt lat="45.32676282761195" lon="10.650583105975633"><ele>104.0</ele><time>2026-03-28T09:08:25Z</time></trkpt><trkpt lat="45.32667408451195" lon="10.650778201793631"><ele>104.0</ele><time>2026-03-28T09:08:26Z</time></trkpt><trkpt lat="45.32656825093149" lon="10.650931722357413"><ele>104.0</ele><time>2026-03-28T09:08:27Z</time></trkpt><trkpt lat="45.32646180801158" lon="10.651082985762246"><ele>108.66666666666666</ele><time>2026-03-28T09:08:28Z</time></trkpt><trkpt lat="45.326341289101585" lon="10.651213627193371"><ele>113.33333333333334</ele><time>2026-03-28T09:08:29Z</time></trkpt><trkpt lat="45.3262043194249" lon="10.651339311200195"><ele>118.0</ele><time>2026-03-28T09:08:30Z</time></trkpt><trkpt lat="45.32607245898795" lon="10.6514886728696"><ele>118.0</ele><time>2026-03-28T09:08:31Z</time></trkpt><trkpt lat="45.32594300938032" lon="10.651645439380093"><ele>118.0</ele><time>2026-03-28T09:08:32Z</time></trkpt><trkpt lat="45.325806112229024" lon="10.651814032299095"><ele>118.0</ele><time>2026-03-28T09:08:33Z</time></trkpt><trkpt lat="45.32568119556892" lon="10.65197078600833"><ele>119.75</ele><time>2026-03-28T09:08:34Z</time></trkpt><trkpt lat="45.325568192071096" lon="10.652116249921836"><ele>121.5</ele><time>2026-03-28T09:08:35Z</time></trkpt><trkpt lat="45.32546553579597" lon="10.652255845597242"><ele>123.25</ele><time>2026-03-28T09:08:36Z</time></trkpt><trkpt lat="45.32538176613428" lon="10.652429516218989"><ele>125.0</ele><time>2026-03-28T09:08:37Z</time></trkpt><trkpt lat="45.32530150558252" lon="10.652609239859135"><ele>124.25</ele><time>2026-03-28T09:08:37.999Z</time></trkpt><trkpt lat="45.32524387551751" lon="10.652793105711464"><ele>123.5</ele><time>2026-03-28T09:08:38.999Z</time></trkpt><trkpt lat="45.325165392012345" lon="10.652966767821797"><ele>122.75</ele><time>2026-03-28T09:08:39.999Z</time></trkpt><trkpt lat="45.32509150310329" lon="10.653141280438646"><ele>122.0</ele><time>2026-03-28T09:08:40.999Z</time></trkpt><trkpt lat="45.32501464317494" lon="10.653292809390994"><ele>122.0</ele><time>2026-03-28T09:08:41.999Z</time></trkpt><trkpt lat="45.324950965225" lon="10.653432676188016"><ele>121.99999999999999</ele><time>2026-03-28T09:08:42.999Z</time></trkpt><trkpt lat="45.32485522140679" lon="10.653527444971644"><ele>121.99999999999999</ele><time>2026-03-28T09:08:43.999Z</time></trkpt><trkpt lat="45.32477429983594" lon="10.6536307032642"><ele>122.0</ele><time>2026-03-28T09:08:44.999Z</time></trkpt><trkpt lat="45.324700716177425" lon="10.653721116694724"><ele>122.0</ele><time>2026-03-28T09:08:45.999Z</time></trkpt><trkpt lat="45.32463359050245" lon="10.65380758079528"><ele>122.25</ele><time>2026-03-28T09:08:46.999Z</time></trkpt><trkpt lat="45.32456498977393" lon="10.653914705382407"><ele>122.5</ele><time>2026-03-28T09:08:48.999Z</time></trkpt><trkpt lat="45.32469461033016" lon="10.65402016542864"><ele>122.75</ele><time>2026-03-28T09:08:52.999Z</time></trkpt><trkpt lat="45.3248005649262" lon="10.654011680735623"><ele>123.0</ele><time>2026-03-28T09:08:53.999Z</time></trkpt><trkpt lat="45.324905755558255" lon="10.654067377014561"><ele>123.0</ele><time>2026-03-28T09:08:54.999Z</time></trkpt><trkpt lat="45.32499987583996" lon="10.654159945082256"><ele>123.0</ele><time>2026-03-28T09:08:55.999Z</time></trkpt><trkpt lat="45.32510421904441" lon="10.654281223274056"><ele>123.0</ele><time>2026-03-28T09:08:56.999Z</time></trkpt><trkpt lat="45.32521079115413" lon="10.654398977715529"><ele>123.0</ele><time>2026-03-28T09:08:57.999Z</time></trkpt><trkpt lat="45.325290879209035" lon="10.654515821446608"><ele>123.25</ele><time>2026-03-28T09:08:58.999Z</time></trkpt><trkpt lat="45.32534537970329" lon="10.654667354145532"><ele>123.5</ele><time>2026-03-28T09:08:59.999Z</time></trkpt><trkpt lat="45.325391733488765" lon="10.654816954920255"><ele>123.75</ele><time>2026-03-28T09:09:00.999Z</time></trkpt><trkpt lat="45.32541024025633" lon="10.654992748967041"><ele>124.0</ele><time>2026-03-28T09:09:01.999Z</time></trkpt><trkpt lat="45.32536881547788" lon="10.655171932971529"><ele>123.0</ele><time>2026-03-28T09:09:02.999Z</time></trkpt><trkpt lat="45.32532958042772" lon="10.655357098927123"><ele>122.0</ele><time>2026-03-28T09:09:03.999Z</time></trkpt><trkpt lat="45.32528135732759" lon="10.655549058760018"><ele>121.0</ele><time>2026-03-28T09:09:04.999Z</time></trkpt><trkpt lat="45.325233141619364" lon="10.655750520379089"><ele>120.0</ele><time>2026-03-28T09:09:05.999Z</time></trkpt><trkpt lat="45.325196049118375" lon="10.655969212245946"><ele>117.25</ele><time>2026-03-28T09:09:06.999Z</time></trkpt><trkpt lat="45.3251467569546" lon="10.656182012639787"><ele>114.5</ele><time>2026-03-28T09:09:07.999Z</time></trkpt><trkpt lat="45.32508737128167" lon="10.656371439441454"><ele>111.75</ele><time>2026-03-28T09:09:08.999Z</time></trkpt><trkpt lat="45.32506071821961" lon="10.656566877134704"><ele>109.0</ele><time>2026-03-28T09:09:09.999Z</time></trkpt><trkpt lat="45.32504102700764" lon="10.656747551835194"><ele>109.0</ele><time>2026-03-28T09:09:10.999Z</time></trkpt><trkpt lat="45.32505642080293" lon="10.656927321489897"><ele>109.0</ele><time>2026-03-28T09:09:11.999Z</time></trkpt><trkpt lat="45.32509673839515" lon="10.657099296151733"><ele>109.0</ele><time>2026-03-28T09:09:12.999Z</time></trkpt><trkpt lat="45.32513541259759" lon="10.657270978926183"><ele>109.0</ele><time>2026-03-28T09:09:13.999Z</time></trkpt><trkpt lat="45.32516558878461" lon="10.657447098557165"><ele>108.25</ele><time>2026-03-28T09:09:14.999Z</time></trkpt><trkpt lat="45.32519713449773" lon="10.657634804777393"><ele>107.5</ele><time>2026-03-28T09:09:15.999Z</time></trkpt><trkpt lat="45.32523009769983" lon="10.657819492030086"><ele>106.75</ele><time>2026-03-28T09:09:16.999Z</time></trkpt><trkpt lat="45.32525808343805" lon="10.657985631388973"><ele>106.0</ele><time>2026-03-28T09:09:17.999Z</time></trkpt><trkpt lat="45.325281619897794" lon="10.658132089271625"><ele>106.00000000000001</ele><time>2026-03-28T09:09:18.999Z</time></trkpt><trkpt lat="45.3253016408828" lon="10.658261549498059"><ele>106.0</ele><time>2026-03-28T09:09:19.999Z</time></trkpt><trkpt lat="45.32531441359656" lon="10.658358628159249"><ele>106.0</ele><time>2026-03-28T09:09:20.999Z</time></trkpt><trkpt lat="45.325335861309306" lon="10.658460330008227"><ele>106.0</ele><time>2026-03-28T09:09:22.999Z</time></trkpt><trkpt lat="45.32535391932366" lon="10.658548508781694"><ele>106.00000000000001</ele><time>2026-03-28T09:09:26.999Z</time></trkpt><trkpt lat="45.325497506480716" lon="10.65850045995124"><ele>106.0</ele><time>2026-03-28T09:09:27.999Z</time></trkpt><trkpt lat="45.32559644573133" lon="10.658454028418234"><ele>105.25</ele><time>2026-03-28T09:09:28.999Z</time></trkpt><trkpt lat="45.3257019296965" lon="10.65841140223656"><ele>104.5</ele><time>2026-03-28T09:09:29.999Z</time></trkpt><trkpt lat="45.32581834183336" lon="10.658376651092535"><ele>103.75</ele><time>2026-03-28T09:09:30.998Z</time></trkpt><trkpt lat="45.32594702885326" lon="10.658339472523808"><ele>103.0</ele><time>2026-03-28T09:09:31.998Z</time></trkpt><trkpt lat="45.326079347401574" lon="10.65830196748393"><ele>103.0</ele><time>2026-03-28T09:09:32.998Z</time></trkpt><trkpt lat="45.3262126677971" lon="10.658258657023218"><ele>103.0</ele><time>2026-03-28T09:09:33.998Z</time></trkpt><trkpt lat="45.32633701879368" lon="10.658225933281836"><ele>103.0</ele><time>2026-03-28T09:09:34.998Z</time></trkpt><trkpt lat="45.32644736919873" lon="10.658194652706877"><ele>103.0</ele><time>2026-03-28T09:09:35.998Z</time></trkpt><trkpt lat="45.326544882986" lon="10.658175217932715"><ele>102.66666666666667</ele><time>2026-03-28T09:09:36.998Z</time></trkpt><trkpt lat="45.32662273497544" lon="10.658170436329055"><ele>102.33333333333334</ele><time>2026-03-28T09:09:37.998Z</time></trkpt><trkpt lat="45.32670081084912" lon="10.6581814156063"><ele>102.0</ele><time>2026-03-28T09:09:38.998Z</time></trkpt><trkpt lat="45.32678597520734" lon="10.658187247050645"><ele>101.66666666666666</ele><time>2026-03-28T09:09:39.998Z</time></trkpt><trkpt lat="45.32686164719884" lon="10.658157458773239"><ele>101.33333333333333</ele><time>2026-03-28T09:09:40.998Z</time></trkpt><trkpt lat="45.32692861044063" lon="10.658119336543418"><ele>101.0</ele><time>2026-03-28T09:09:41.998Z</time></trkpt><trkpt lat="45.327012621632655" lon="10.658094452888365"><ele>101.0</ele><time>2026-03-28T09:09:42.998Z</time></trkpt><trkpt lat="45.32709058537259" lon="10.658119645981278"><ele>101.0</ele><time>2026-03-28T09:09:43.998Z</time></trkpt><trkpt lat="45.327165956495946" lon="10.658107209560082"><ele>101.0</ele><time>2026-03-28T09:09:44.998Z</time></trkpt><trkpt lat="45.327256167954445" lon="10.658144286360496"><ele>101.0</ele><time>2026-03-28T09:09:46.998Z</time></trkpt><trkpt lat="45.327180551290986" lon="10.658117235360516"><ele>101.0</ele><time>2026-03-28T09:09:51.998Z</time></trkpt><trkpt lat="45.32706420382095" lon="10.658064378834021"><ele>101.0</ele><time>2026-03-28T09:09:52.998Z</time></trkpt><trkpt lat="45.326961369614246" lon="10.65806426076504"><ele>101.0</ele><time>2026-03-28T09:09:53.998Z</time></trkpt><trkpt lat="45.326891398138834" lon="10.658064221494083"><ele>101.0</ele><time>2026-03-28T09:09:54.998Z</time></trkpt><trkpt lat="45.326807850626146" lon="10.658032550767185"><ele>101.0</ele><time>2026-03-28T09:09:56.998Z</time></trkpt><trkpt lat="45.32669342318235" lon="10.657999073838894"><ele>101.0</ele><time>2026-03-28T09:09:58.998Z</time></trkpt><trkpt lat="45.326662827420336" lon="10.65818185577101"><ele>101.0</ele><time>2026-03-28T09:10:00.998Z</time></trkpt><trkpt lat="45.32670043582457" lon="10.658299847805463"><ele>101.0</ele><time>2026-03-28T09:10:01.998Z</time></trkpt><trkpt lat="45.3267642184327" lon="10.65842969992181"><ele>101.0</ele><time>2026-03-28T09:10:02.998Z</time></trkpt><trkpt lat="45.32678290621834" lon="10.658584503708832"><ele>101.0</ele><time>2026-03-28T09:10:03.998Z</time></trkpt><trkpt lat="45.326789132916524" lon="10.6587691409877"><ele>101.0</ele><time>2026-03-28T09:10:04.998Z</time></trkpt><trkpt lat="45.3267921261653" lon="10.658968048645848"><ele>100.0</ele><time>2026-03-28T09:10:05.998Z</time></trkpt><trkpt lat="45.32677021907554" lon="10.659169765754232"><ele>99.0</ele><time>2026-03-28T09:10:06.998Z</time></trkpt><trkpt lat="45.32673861286012" lon="10.659348898958516"><ele>98.0</ele><time>2026-03-28T09:10:08Z</time></trkpt><trkpt lat="45.32671104907004" lon="10.65949903334078"><ele>97.0</ele><time>2026-03-28T09:10:09Z</time></trkpt><trkpt lat="45.326681400284784" lon="10.659623773092656"><ele>96.6</ele><time>2026-03-28T09:10:10Z</time></trkpt><trkpt lat="45.32664595564781" lon="10.65972784696737"><ele>96.19999999999999</ele><time>2026-03-28T09:10:11Z</time></trkpt><trkpt lat="45.32661237132027" lon="10.659810545531327"><ele>95.8</ele><time>2026-03-28T09:10:12Z</time></trkpt><trkpt lat="45.326596912471224" lon="10.659899731646655"><ele>95.4</ele><time>2026-03-28T09:10:13Z</time></trkpt><trkpt lat="45.326670882837256" lon="10.660088524846632"><ele>95.0</ele><time>2026-03-28T09:10:15Z</time></trkpt><trkpt lat="45.3267098615271" lon="10.66023360915551"><ele>94.25</ele><time>2026-03-28T09:10:16Z</time></trkpt><trkpt lat="45.32673524989884" lon="10.660408462351493"><ele>93.5</ele><time>2026-03-28T09:10:17Z</time></trkpt><trkpt lat="45.3267619196708" lon="10.660607035830633"><ele>92.75</ele><time>2026-03-28T09:10:18Z</time></trkpt><trkpt lat="45.326795884555985" lon="10.660817952863388"><ele>92.0</ele><time>2026-03-28T09:10:19Z</time></trkpt><trkpt lat="45.32682601691872" lon="10.661041119499668"><ele>91.0</ele><time>2026-03-28T09:10:20Z</time></trkpt><trkpt lat="45.32684825153412" lon="10.661276067229839"><ele>90.0</ele><time>2026-03-28T09:10:21Z</time></trkpt><trkpt lat="45.3268534926357" lon="10.661498427484508"><ele>89.0</ele><time>2026-03-28T09:10:22Z</time></trkpt><trkpt lat="45.32684589256699" lon="10.661702731513394"><ele>89.0</ele><time>2026-03-28T09:10:23Z</time></trkpt><trkpt lat="45.32683606428283" lon="10.661905632057028"><ele>89.0</ele><time>2026-03-28T09:10:24Z</time></trkpt><trkpt lat="45.326823667356685" lon="10.662082195293499"><ele>89.0</ele><time>2026-03-28T09:10:25Z</time></trkpt><trkpt lat="45.32679192534066" lon="10.662236056205382"><ele>89.0</ele><time>2026-03-28T09:10:26Z</time></trkpt><trkpt lat="45.32678245189474" lon="10.662379494665762"><ele>89.0</ele><time>2026-03-28T09:10:27Z</time></trkpt><trkpt lat="45.326754672596095" lon="10.662504723260831"><ele>89.0</ele><time>2026-03-28T09:10:28Z</time></trkpt><trkpt lat="45.32671992839544" lon="10.662615349468451"><ele>89.0</ele><time>2026-03-28T09:10:29Z</time></trkpt><trkpt lat="45.32667196743422" lon="10.662696127115705"><ele>89.0</ele><time>2026-03-28T09:10:30Z</time></trkpt><trkpt lat="45.326701906720515" lon="10.662793329856363"><ele>89.0</ele><time>2026-03-28T09:10:31Z</time></trkpt><trkpt lat="45.32680991842652" lon="10.66285553199401"><ele>89.0</ele><time>2026-03-28T09:10:32Z</time></trkpt><trkpt lat="45.326905859401904" lon="10.662931257088072"><ele>89.0</ele><time>2026-03-28T09:10:33Z</time></trkpt><trkpt lat="45.32701913824158" lon="10.66301377080592"><ele>89.0</ele><time>2026-03-28T09:10:34Z</time></trkpt><trkpt lat="45.327136378627905" lon="10.663109061833863"><ele>89.0</ele><time>2026-03-28T09:10:35Z</time></trkpt><trkpt lat="45.32726448067562" lon="10.663208158738199"><ele>89.0</ele><time>2026-03-28T09:10:36Z</time></trkpt><trkpt lat="45.32740217620617" lon="10.663309553397163"><ele>89.0</ele><time>2026-03-28T09:10:37Z</time></trkpt><trkpt lat="45.32754272422667" lon="10.663423534894315"><ele>89.0</ele><time>2026-03-28T09:10:38Z</time></trkpt><trkpt lat="45.32768955175153" lon="10.663553141842527"><ele>89.0</ele><time>2026-03-28T09:10:39Z</time></trkpt><trkpt lat="45.327833195201876" lon="10.663686437148387"><ele>88.33333333333334</ele><time>2026-03-28T09:10:40Z</time></trkpt><trkpt lat="45.32798139258626" lon="10.66381302523756"><ele>87.66666666666667</ele><time>2026-03-28T09:10:41Z</time></trkpt><trkpt lat="45.32813779917512" lon="10.663931867316709"><ele>87.0</ele><time>2026-03-28T09:10:42Z</time></trkpt><trkpt lat="45.32829985314644" lon="10.664039833807026"><ele>86.66666666666667</ele><time>2026-03-28T09:10:43Z</time></trkpt><trkpt lat="45.328463277781914" lon="10.664135154402004"><ele>86.33333333333334</ele><time>2026-03-28T09:10:44Z</time></trkpt><trkpt lat="45.328629507489374" lon="10.664226902658553"><ele>86.0</ele><time>2026-03-28T09:10:45Z</time></trkpt><trkpt lat="45.32879454605392" lon="10.664311879803297"><ele>87.0</ele><time>2026-03-28T09:10:46Z</time></trkpt><trkpt lat="45.32895985443191" lon="10.664400159237472"><ele>88.0</ele><time>2026-03-28T09:10:46.999Z</time></trkpt><trkpt lat="45.329125531854814" lon="10.66449014417466"><ele>89.0</ele><time>2026-03-28T09:10:47.999Z</time></trkpt><trkpt lat="45.32927602689678" lon="10.664590747397703"><ele>89.33333333333334</ele><time>2026-03-28T09:10:48.999Z</time></trkpt><trkpt lat="45.32941008064365" lon="10.664718890501634"><ele>89.66666666666667</ele><time>2026-03-28T09:10:49.999Z</time></trkpt><trkpt lat="45.32952747458399" lon="10.664890146386757"><ele>90.0</ele><time>2026-03-28T09:10:50.999Z</time></trkpt><trkpt lat="45.32963862581031" lon="10.665087530938582"><ele>90.33333333333333</ele><time>2026-03-28T09:10:51.999Z</time></trkpt><trkpt lat="45.32974654176428" lon="10.665284040144266"><ele>90.66666666666666</ele><time>2026-03-28T09:10:52.999Z</time></trkpt><trkpt lat="45.32986440722484" lon="10.665486293617418"><ele>91.0</ele><time>2026-03-28T09:10:53.999Z</time></trkpt><trkpt lat="45.32998205110786" lon="10.66568429528428"><ele>91.0</ele><time>2026-03-28T09:10:54.999Z</time></trkpt><trkpt lat="45.33009699156649" lon="10.665903245570414"><ele>91.0</ele><time>2026-03-28T09:10:55.999Z</time></trkpt><trkpt lat="45.330200486065266" lon="10.666130071968523"><ele>91.0</ele><time>2026-03-28T09:10:56.999Z</time></trkpt><trkpt lat="45.33029967681717" lon="10.666368704449631"><ele>91.0</ele><time>2026-03-28T09:10:57.999Z</time></trkpt><trkpt lat="45.33039061285951" lon="10.66662211296566"><ele>91.0</ele><time>2026-03-28T09:10:58.999Z</time></trkpt><trkpt lat="45.330479129587985" lon="10.666878438976928"><ele>91.0</ele><time>2026-03-28T09:10:59.999Z</time></trkpt><trkpt lat="45.33056678634845" lon="10.66713185764401"><ele>91.0</ele><time>2026-03-28T09:11:00.999Z</time></trkpt><trkpt lat="45.33065796811913" lon="10.667386741580305"><ele>91.0</ele><time>2026-03-28T09:11:01.999Z</time></trkpt><trkpt lat="45.33074705945351" lon="10.66764158769167"><ele>91.0</ele><time>2026-03-28T09:11:02.999Z</time></trkpt><trkpt lat="45.3308365315897" lon="10.667892297271576"><ele>91.33333333333333</ele><time>2026-03-28T09:11:03.999Z</time></trkpt><trkpt lat="45.330916063399464" lon="10.668123824840992"><ele>91.66666666666667</ele><time>2026-03-28T09:11:04.999Z</time></trkpt><trkpt lat="45.330988748597434" lon="10.668344484446695"><ele>92.0</ele><time>2026-03-28T09:11:05.999Z</time></trkpt><trkpt lat="45.33106472759561" lon="10.66854049937356"><ele>92.25</ele><time>2026-03-28T09:11:06.999Z</time></trkpt><trkpt lat="45.33114853217133" lon="10.668723683482273"><ele>92.5</ele><time>2026-03-28T09:11:07.999Z</time></trkpt><trkpt lat="45.33123750693988" lon="10.668886352310027"><ele>92.75</ele><time>2026-03-28T09:11:08.999Z</time></trkpt><trkpt lat="45.331335800129196" lon="10.669037162449339"><ele>93.0</ele><time>2026-03-28T09:11:09.999Z</time></trkpt><trkpt lat="45.331449458622195" lon="10.669180904882776"><ele>92.0</ele><time>2026-03-28T09:11:10.999Z</time></trkpt><trkpt lat="45.3315848061888" lon="10.669308348062081"><ele>91.0</ele><time>2026-03-28T09:11:11.999Z</time></trkpt><trkpt lat="45.331727907116125" lon="10.669410625755793"><ele>90.0</ele><time>2026-03-28T09:11:12.999Z</time></trkpt><trkpt lat="45.33188159156051" lon="10.669499475965356"><ele>89.66666666666667</ele><time>2026-03-28T09:11:13.999Z</time></trkpt><trkpt lat="45.33203377268574" lon="10.669584869204346"><ele>89.33333333333334</ele><time>2026-03-28T09:11:14.999Z</time></trkpt><trkpt lat="45.332185528269264" lon="10.669666763901072"><ele>89.0</ele><time>2026-03-28T09:11:15.999Z</time></trkpt><trkpt lat="45.33233502655844" lon="10.66974315708478"><ele>88.33333333333334</ele><time>2026-03-28T09:11:16.999Z</time></trkpt><trkpt lat="45.33248751136203" lon="10.669825403364483"><ele>87.66666666666667</ele><time>2026-03-28T09:11:17.999Z</time></trkpt><trkpt lat="45.33263456139625" lon="10.66990290360208"><ele>87.0</ele><time>2026-03-28T09:11:18.999Z</time></trkpt><trkpt lat="45.332774249895984" lon="10.669966770933758"><ele>87.0</ele><time>2026-03-28T09:11:19.999Z</time></trkpt><trkpt lat="45.33289835713595" lon="10.670015557983165"><ele>87.0</ele><time>2026-03-28T09:11:20.999Z</time></trkpt><trkpt lat="45.33301522525899" lon="10.670069673495586"><ele>87.0</ele><time>2026-03-28T09:11:21.999Z</time></trkpt><trkpt lat="45.333121012018786" lon="10.670135631157187"><ele>87.0</ele><time>2026-03-28T09:11:22.999Z</time></trkpt><trkpt lat="45.333220479979445" lon="10.670205437775726"><ele>87.0</ele><time>2026-03-28T09:11:23.999Z</time></trkpt><trkpt lat="45.333315434285" lon="10.670271716789802"><ele>87.0</ele><time>2026-03-28T09:11:24.999Z</time></trkpt><trkpt lat="45.3334037769358" lon="10.670340690791145"><ele>87.0</ele><time>2026-03-28T09:11:25.999Z</time></trkpt><trkpt lat="45.33348973137155" lon="10.670415709997485"><ele>87.0</ele><time>2026-03-28T09:11:26.999Z</time></trkpt><trkpt lat="45.33358373312436" lon="10.670504091017309"><ele>87.0</ele><time>2026-03-28T09:11:27.999Z</time></trkpt><trkpt lat="45.33368234670816" lon="10.67060514089088"><ele>86.6</ele><time>2026-03-28T09:11:28.999Z</time></trkpt><trkpt lat="45.33377312513674" lon="10.670705409536957"><ele>86.19999999999999</ele><time>2026-03-28T09:11:29.999Z</time></trkpt><trkpt lat="45.33385815558821" lon="10.670792382757362"><ele>85.8</ele><time>2026-03-28T09:11:30.999Z</time></trkpt><trkpt lat="45.3339294796698" lon="10.670870388472819"><ele>85.4</ele><time>2026-03-28T09:11:31.999Z</time></trkpt><trkpt lat="45.33397852383736" lon="10.670991993531871"><ele>85.0</ele><time>2026-03-28T09:11:33.999Z</time></trkpt><trkpt lat="45.333895781494945" lon="10.671118697786284"><ele>84.66666666666666</ele><time>2026-03-28T09:11:36.999Z</time></trkpt><trkpt lat="45.333853132903016" lon="10.671210571165355"><ele>84.33333333333333</ele><time>2026-03-28T09:11:37.999Z</time></trkpt><trkpt lat="45.333819916700705" lon="10.671293517179066"><ele>84.0</ele><time>2026-03-28T09:11:38.999Z</time></trkpt><trkpt lat="45.33378102169373" lon="10.671385017395234"><ele>83.66666666666667</ele><time>2026-03-28T09:11:39.999Z</time></trkpt><trkpt lat="45.33372926407567" lon="10.671498228854604"><ele>83.33333333333334</ele><time>2026-03-28T09:11:40.998Z</time></trkpt><trkpt lat="45.33366944891518" lon="10.671626038654797"><ele>83.0</ele><time>2026-03-28T09:11:41.998Z</time></trkpt><trkpt lat="45.33360656034549" lon="10.671746844669777"><ele>83.0</ele><time>2026-03-28T09:11:42.998Z</time></trkpt><trkpt lat="45.33353809254666" lon="10.671880937122015"><ele>83.0</ele><time>2026-03-28T09:11:43.998Z</time></trkpt><trkpt lat="45.33345972247308" lon="10.672025750136646"><ele>83.0</ele><time>2026-03-28T09:11:44.998Z</time></trkpt><trkpt lat="45.33338279043914" lon="10.672152094071004"><ele>83.0</ele><time>2026-03-28T09:11:45.998Z</time></trkpt><trkpt lat="45.333323372032964" lon="10.672254212993003"><ele>82.4</ele><time>2026-03-28T09:11:46.998Z</time></trkpt><trkpt lat="45.33327077710899" lon="10.672366298466065"><ele>81.80000000000001</ele><time>2026-03-28T09:11:47.998Z</time></trkpt><trkpt lat="45.33324047086613" lon="10.672484326791748"><ele>81.2</ele><time>2026-03-28T09:11:48.998Z</time></trkpt><trkpt lat="45.333234395022345" lon="10.672601635992507"><ele>80.6</ele><time>2026-03-28T09:11:49.998Z</time></trkpt><trkpt lat="45.333243394889884" lon="10.672742717907527"><ele>80.0</ele><time>2026-03-28T09:11:50.998Z</time></trkpt><trkpt lat="45.33325671776005" lon="10.672866081832273"><ele>80.0</ele><time>2026-03-28T09:11:51.998Z</time></trkpt><trkpt lat="45.333262977885916" lon="10.672969679046245"><ele>80.0</ele><time>2026-03-28T09:11:52.998Z</time></trkpt><trkpt lat="45.333255766283365" lon="10.673119555517665"><ele>80.0</ele><time>2026-03-28T09:11:54.998Z</time></trkpt><trkpt lat="45.3333152368862" lon="10.673236058164886"><ele>80.0</ele><time>2026-03-28T09:11:56.998Z</time></trkpt><trkpt lat="45.33336810686068" lon="10.6733543575136"><ele>80.0</ele><time>2026-03-28T09:11:57.998Z</time></trkpt><trkpt lat="45.33342577141848" lon="10.673528290337671"><ele>80.4</ele><time>2026-03-28T09:11:58.998Z</time></trkpt><trkpt lat="45.33347515316701" lon="10.673694941155738"><ele>80.8</ele><time>2026-03-28T09:11:59.998Z</time></trkpt><trkpt lat="45.33351360879315" lon="10.673817654889483"><ele>81.19999999999999</ele><time>2026-03-28T09:12:00.998Z</time></trkpt><trkpt lat="45.33354020445713" lon="10.673906349010712"><ele>81.6</ele><time>2026-03-28T09:12:01.998Z</time></trkpt><trkpt lat="45.33353726037289" lon="10.674048685989105"><ele>82.0</ele><time>2026-03-28T09:12:03.998Z</time></trkpt><trkpt lat="45.33349633899833" lon="10.674146443608038"><ele>82.0</ele><time>2026-03-28T09:12:04.998Z</time></trkpt><trkpt lat="45.33342709234797" lon="10.674268796661208"><ele>82.0</ele><time>2026-03-28T09:12:05.998Z</time></trkpt><trkpt lat="45.333378593352975" lon="10.674407029850283"><ele>82.0</ele><time>2026-03-28T09:12:06.998Z</time></trkpt><trkpt lat="45.33336129659556" lon="10.674554625196462"><ele>82.0</ele><time>2026-03-28T09:12:07.998Z</time></trkpt><trkpt lat="45.33337390495493" lon="10.674700064971647"><ele>82.0</ele><time>2026-03-28T09:12:08.998Z</time></trkpt><trkpt lat="45.33341609641251" lon="10.674847791529492"><ele>82.0</ele><time>2026-03-28T09:12:09.998Z</time></trkpt><trkpt lat="45.3334871514936" lon="10.67500365550041"><ele>82.0</ele><time>2026-03-28T09:12:10.998Z</time></trkpt><trkpt lat="45.33356028222598" lon="10.675170921878163"><ele>82.0</ele><time>2026-03-28T09:12:11.998Z</time></trkpt><trkpt lat="45.333612634579985" lon="10.67530885535005"><ele>82.0</ele><time>2026-03-28T09:12:12.998Z</time></trkpt><trkpt lat="45.3336659202844" lon="10.675410362516757"><ele>82.0</ele><time>2026-03-28T09:12:14Z</time></trkpt><trkpt lat="45.333715068346166" lon="10.675484971185652"><ele>82.0</ele><time>2026-03-28T09:12:15Z</time></trkpt><trkpt lat="45.333771677626" lon="10.675539325022195"><ele>82.0</ele><time>2026-03-28T09:12:16Z</time></trkpt><trkpt lat="45.33384911494227" lon="10.675565054802334"><ele>82.0</ele><time>2026-03-28T09:12:17Z</time></trkpt><trkpt lat="45.33390019446356" lon="10.675673228796963"><ele>82.0</ele><time>2026-03-28T09:12:19Z</time></trkpt><trkpt lat="45.333889908335635" lon="10.675761909547123"><ele>82.0</ele><time>2026-03-28T09:12:20Z</time></trkpt><trkpt lat="45.33389098771785" lon="10.675884910330671"><ele>82.0</ele><time>2026-03-28T09:12:21Z</time></trkpt><trkpt lat="45.333878281120874" lon="10.676029325672522"><ele>82.0</ele><time>2026-03-28T09:12:22Z</time></trkpt><trkpt lat="45.333878063199904" lon="10.676167900685694"><ele>82.0</ele><time>2026-03-28T09:12:23Z</time></trkpt><trkpt lat="45.333864553279824" lon="10.676318422966672"><ele>82.0</ele><time>2026-03-28T09:12:24Z</time></trkpt><trkpt lat="45.333859432518786" lon="10.676484227578829"><ele>82.0</ele><time>2026-03-28T09:12:25Z</time></trkpt><trkpt lat="45.33385260603128" lon="10.676705261713831"><ele>83.33333333333333</ele><time>2026-03-28T09:12:26Z</time></trkpt><trkpt lat="45.33394518269242" lon="10.676924623490459"><ele>84.66666666666667</ele><time>2026-03-28T09:12:27Z</time></trkpt><trkpt lat="45.3339778921493" lon="10.67711985746747"><ele>86.0</ele><time>2026-03-28T09:12:28Z</time></trkpt><trkpt lat="45.33401681076357" lon="10.677306701900264"><ele>86.5</ele><time>2026-03-28T09:12:29Z</time></trkpt><trkpt lat="45.33406830154048" lon="10.677504539822573"><ele>87.0</ele><time>2026-03-28T09:12:30Z</time></trkpt><trkpt lat="45.33412993952948" lon="10.677685703472704"><ele>87.5</ele><time>2026-03-28T09:12:31Z</time></trkpt><trkpt lat="45.33419289364514" lon="10.67784965093726"><ele>88.0</ele><time>2026-03-28T09:12:32Z</time></trkpt><trkpt lat="45.334241641111" lon="10.678000150721065"><ele>88.4</ele><time>2026-03-28T09:12:33Z</time></trkpt><trkpt lat="45.3342763698007" lon="10.67814806925146"><ele>88.80000000000001</ele><time>2026-03-28T09:12:34Z</time></trkpt><trkpt lat="45.334310215321075" lon="10.678264965929971"><ele>89.2</ele><time>2026-03-28T09:12:35Z</time></trkpt><trkpt lat="45.33436010013635" lon="10.678379025727658"><ele>89.6</ele><time>2026-03-28T09:12:36Z</time></trkpt><trkpt lat="45.33441617094739" lon="10.678484716367732"><ele>90.0</ele><time>2026-03-28T09:12:37Z</time></trkpt><trkpt lat="45.33449921295523" lon="10.678587096983975"><ele>89.66666666666667</ele><time>2026-03-28T09:12:38Z</time></trkpt><trkpt lat="45.334582447064484" lon="10.678657105023818"><ele>89.33333333333333</ele><time>2026-03-28T09:12:39Z</time></trkpt><trkpt lat="45.33464814712133" lon="10.678697073015266"><ele>89.0</ele><time>2026-03-28T09:12:40Z</time></trkpt><trkpt lat="45.33471416609491" lon="10.678708956072187"><ele>88.66666666666666</ele><time>2026-03-28T09:12:41Z</time></trkpt><trkpt lat="45.334774271042605" lon="10.678681474587417"><ele>88.33333333333333</ele><time>2026-03-28T09:12:42Z</time></trkpt><trkpt lat="45.334851813660315" lon="10.678628561308717"><ele>88.0</ele><time>2026-03-28T09:12:43Z</time></trkpt><trkpt lat="45.33494764647333" lon="10.678559659311727"><ele>89.0</ele><time>2026-03-28T09:12:44Z</time></trkpt><trkpt lat="45.335056331635215" lon="10.678469781422669"><ele>90.0</ele><time>2026-03-28T09:12:45Z</time></trkpt><trkpt lat="45.33515053811603" lon="10.678390084842672"><ele>91.0</ele><time>2026-03-28T09:12:46Z</time></trkpt><trkpt lat="45.33523162348978" lon="10.67834562030192"><ele>92.0</ele><time>2026-03-28T09:12:47Z</time></trkpt><trkpt lat="45.33529669985483" lon="10.678338719404609"><ele>93.0</ele><time>2026-03-28T09:12:48Z</time></trkpt><trkpt lat="45.33536679436358" lon="10.678382966551228"><ele>93.0</ele><time>2026-03-28T09:12:49Z</time></trkpt><trkpt lat="45.33544261156886" lon="10.67845724314506"><ele>93.0</ele><time>2026-03-28T09:12:50Z</time></trkpt><trkpt lat="45.33550712611029" lon="10.678574816456294"><ele>93.0</ele><time>2026-03-28T09:12:51Z</time></trkpt><trkpt lat="45.335593696878256" lon="10.678738719456495"><ele>93.0</ele><time>2026-03-28T09:12:51.999Z</time></trkpt><trkpt lat="45.33569817135761" lon="10.678913162992586"><ele>90.33333333333333</ele><time>2026-03-28T09:12:52.999Z</time></trkpt><trkpt lat="45.33579685287961" lon="10.679076351254475"><ele>87.66666666666666</ele><time>2026-03-28T09:12:53.999Z</time></trkpt><trkpt lat="45.33588672318931" lon="10.679220598366184"><ele>85.0</ele><time>2026-03-28T09:12:54.999Z</time></trkpt><trkpt lat="45.33600502079908" lon="10.679390836159603"><ele>85.0</ele><time>2026-03-28T09:12:55.999Z</time></trkpt><trkpt lat="45.33612673090222" lon="10.67957143780487"><ele>85.0</ele><time>2026-03-28T09:12:56.999Z</time></trkpt><trkpt lat="45.33624825946151" lon="10.679760120287035"><ele>85.0</ele><time>2026-03-28T09:12:57.999Z</time></trkpt><trkpt lat="45.33635827807867" lon="10.679936616689846"><ele>85.0</ele><time>2026-03-28T09:12:58.999Z</time></trkpt><trkpt lat="45.336452737509745" lon="10.680072724307863"><ele>85.0</ele><time>2026-03-28T09:12:59.999Z</time></trkpt><trkpt lat="45.33652584367047" lon="10.680188234391963"><ele>85.0</ele><time>2026-03-28T09:13:00.999Z</time></trkpt><trkpt lat="45.336598284707534" lon="10.68030303414717"><ele>85.0</ele><time>2026-03-28T09:13:01.999Z</time></trkpt><trkpt lat="45.33664774870994" lon="10.680389102087503"><ele>85.0</ele><time>2026-03-28T09:13:02.999Z</time></trkpt><trkpt lat="45.336692260890906" lon="10.680457970522852"><ele>85.0</ele><time>2026-03-28T09:13:03.999Z</time></trkpt><trkpt lat="45.336759339265214" lon="10.680486614238045"><ele>85.0</ele><time>2026-03-28T09:13:05.999Z</time></trkpt><trkpt lat="45.33685595998553" lon="10.680366263784057"><ele>85.0</ele><time>2026-03-28T09:13:07.999Z</time></trkpt><trkpt lat="45.33692270141492" lon="10.68025105078122"><ele>85.0</ele><time>2026-03-28T09:13:08.999Z</time></trkpt><trkpt lat="45.33701002438228" lon="10.680125420812931"><ele>85.0</ele><time>2026-03-28T09:13:09.999Z</time></trkpt><trkpt lat="45.33712611692621" lon="10.68000896355866"><ele>86.0</ele><time>2026-03-28T09:13:10.999Z</time></trkpt><trkpt lat="45.33722212820374" lon="10.679851976196584"><ele>87.0</ele><time>2026-03-28T09:13:11.999Z</time></trkpt><trkpt lat="45.33733203110128" lon="10.679708032345843"><ele>88.0</ele><time>2026-03-28T09:13:12.999Z</time></trkpt><trkpt lat="45.33744302121918" lon="10.679555428249511"><ele>88.0</ele><time>2026-03-28T09:13:13.999Z</time></trkpt><trkpt lat="45.33755794106948" lon="10.67940515365355"><ele>88.0</ele><time>2026-03-28T09:13:14.999Z</time></trkpt><trkpt lat="45.337679210531505" lon="10.679271152718194"><ele>88.0</ele><time>2026-03-28T09:13:15.999Z</time></trkpt><trkpt lat="45.337808228854854" lon="10.679144548541315"><ele>88.0</ele><time>2026-03-28T09:13:16.999Z</time></trkpt><trkpt lat="45.33793563109332" lon="10.67902627838184"><ele>88.0</ele><time>2026-03-28T09:13:17.999Z</time></trkpt><trkpt lat="45.338071416094294" lon="10.678896998873356"><ele>88.0</ele><time>2026-03-28T09:13:18.999Z</time></trkpt><trkpt lat="45.33820544779346" lon="10.678773942507545"><ele>88.0</ele><time>2026-03-28T09:13:19.999Z</time></trkpt><trkpt lat="45.33833712972377" lon="10.678654021219964"><ele>88.0</ele><time>2026-03-28T09:13:20.999Z</time></trkpt><trkpt lat="45.33847367969655" lon="10.678531110057044"><ele>88.0</ele><time>2026-03-28T09:13:21.999Z</time></trkpt><trkpt lat="45.338577183349415" lon="10.678450523638814"><ele>88.0</ele><time>2026-03-28T09:13:22.999Z</time></trkpt><trkpt lat="45.33851588705022" lon="10.678556532427475"><ele>88.0</ele><time>2026-03-28T09:13:30.999Z</time></trkpt><trkpt lat="45.338582040667475" lon="10.678736874906013"><ele>88.0</ele><time>2026-03-28T09:13:31.999Z</time></trkpt><trkpt lat="45.33864868370361" lon="10.678842806120777"><ele>88.0</ele><time>2026-03-28T09:13:32.999Z</time></trkpt><trkpt lat="45.338722305793695" lon="10.67898516234455"><ele>88.0</ele><time>2026-03-28T09:13:33.999Z</time></trkpt><trkpt lat="45.338803916981334" lon="10.679167577147101"><ele>88.66666666666666</ele><time>2026-03-28T09:13:34.999Z</time></trkpt><trkpt lat="45.338891565972986" lon="10.679369211770814"><ele>89.33333333333333</ele><time>2026-03-28T09:13:35.999Z</time></trkpt><trkpt lat="45.33898142504292" lon="10.679567570668247"><ele>90.0</ele><time>2026-03-28T09:13:36.999Z</time></trkpt><trkpt lat="45.33906716426639" lon="10.679753497243674"><ele>90.0</ele><time>2026-03-28T09:13:37.999Z</time></trkpt><trkpt lat="45.33914665801908" lon="10.679948373728848"><ele>90.0</ele><time>2026-03-28T09:13:38.999Z</time></trkpt><trkpt lat="45.33922145512148" lon="10.680156801743566"><ele>90.0</ele><time>2026-03-28T09:13:39.999Z</time></trkpt><trkpt lat="45.339305492259896" lon="10.680378409037173"><ele>90.0</ele><time>2026-03-28T09:13:40.999Z</time></trkpt><trkpt lat="45.33937796004151" lon="10.680576682685643"><ele>90.0</ele><time>2026-03-28T09:13:41.999Z</time></trkpt><trkpt lat="45.33947130900854" lon="10.680777202000462"><ele>90.0</ele><time>2026-03-28T09:13:42.999Z</time></trkpt><trkpt lat="45.33955696618119" lon="10.680977136399623"><ele>90.33333333333333</ele><time>2026-03-28T09:13:43.999Z</time></trkpt><trkpt lat="45.339644493121256" lon="10.681185835544053"><ele>90.66666666666666</ele><time>2026-03-28T09:13:44.998Z</time></trkpt><trkpt lat="45.339734206825966" lon="10.6813980551994"><ele>91.0</ele><time>2026-03-28T09:13:45.998Z</time></trkpt><trkpt lat="45.33982057401537" lon="10.68158887238857"><ele>91.0</ele><time>2026-03-28T09:13:46.998Z</time></trkpt><trkpt lat="45.339897364539354" lon="10.68176728114484"><ele>91.0</ele><time>2026-03-28T09:13:47.998Z</time></trkpt><trkpt lat="45.33994353235293" lon="10.681914541367732"><ele>91.0</ele><time>2026-03-28T09:13:48.998Z</time></trkpt><trkpt lat="45.33997160776008" lon="10.682036335559067"><ele>91.0</ele><time>2026-03-28T09:13:49.998Z</time></trkpt><trkpt lat="45.33998532814034" lon="10.682165158257222"><ele>91.0</ele><time>2026-03-28T09:13:50.998Z</time></trkpt><trkpt lat="45.33998085603452" lon="10.682339503862401"><ele>91.0</ele><time>2026-03-28T09:13:51.998Z</time></trkpt><trkpt lat="45.33997516930764" lon="10.682524158619444"><ele>91.0</ele><time>2026-03-28T09:13:52.998Z</time></trkpt><trkpt lat="45.33998808265328" lon="10.682695167872748"><ele>91.0</ele><time>2026-03-28T09:13:53.998Z</time></trkpt><trkpt lat="45.34002062785316" lon="10.682856942295494"><ele>91.0</ele><time>2026-03-28T09:13:54.998Z</time></trkpt><trkpt lat="45.340077646596804" lon="10.683038622766649"><ele>91.33333333333333</ele><time>2026-03-28T09:13:55.998Z</time></trkpt><trkpt lat="45.340154384078325" lon="10.683240525746566"><ele>91.66666666666667</ele><time>2026-03-28T09:13:56.998Z</time></trkpt><trkpt lat="45.34023052333705" lon="10.683474275469377"><ele>92.0</ele><time>2026-03-28T09:13:57.998Z</time></trkpt><trkpt lat="45.34030358630391" lon="10.6837116669003"><ele>91.5</ele><time>2026-03-28T09:13:58.998Z</time></trkpt><trkpt lat="45.340372297223766" lon="10.68393644327997"><ele>91.0</ele><time>2026-03-28T09:13:59.998Z</time></trkpt><trkpt lat="45.340428167352236" lon="10.684116372397364"><ele>90.5</ele><time>2026-03-28T09:14:00.998Z</time></trkpt><trkpt lat="45.34047494735808" lon="10.684283382230081"><ele>90.0</ele><time>2026-03-28T09:14:01.998Z</time></trkpt><trkpt lat="45.34051612521005" lon="10.684488651804207"><ele>90.0</ele><time>2026-03-28T09:14:02.998Z</time></trkpt><trkpt lat="45.340547987622166" lon="10.684723992082361"><ele>90.0</ele><time>2026-03-28T09:14:03.998Z</time></trkpt><trkpt lat="45.34057283763706" lon="10.684968138727632"><ele>90.0</ele><time>2026-03-28T09:14:04.998Z</time></trkpt><trkpt lat="45.34060782485233" lon="10.685219799482914"><ele>90.33333333333333</ele><time>2026-03-28T09:14:05.998Z</time></trkpt><trkpt lat="45.34064908082253" lon="10.685454260714154"><ele>90.66666666666666</ele><time>2026-03-28T09:14:06.998Z</time></trkpt><trkpt lat="45.34068642797827" lon="10.685649321921948"><ele>91.0</ele><time>2026-03-28T09:14:07.998Z</time></trkpt><trkpt lat="45.3407260107049" lon="10.685853863328864"><ele>91.0</ele><time>2026-03-28T09:14:08.998Z</time></trkpt><trkpt lat="45.340764886086134" lon="10.68602600659982"><ele>91.0</ele><time>2026-03-28T09:14:09.998Z</time></trkpt><trkpt lat="45.340797799999926" lon="10.686177501335639"><ele>91.0</ele><time>2026-03-28T09:14:10.998Z</time></trkpt><trkpt lat="45.34083343331294" lon="10.68634574627195"><ele>91.0</ele><time>2026-03-28T09:14:11.998Z</time></trkpt><trkpt lat="45.34087469055512" lon="10.686526584976734"><ele>91.0</ele><time>2026-03-28T09:14:12.998Z</time></trkpt><trkpt lat="45.340914718635695" lon="10.68671209028907"><ele>91.0</ele><time>2026-03-28T09:14:13.998Z</time></trkpt><trkpt lat="45.34094036522691" lon="10.686901921649918"><ele>91.0</ele><time>2026-03-28T09:14:14.998Z</time></trkpt><trkpt lat="45.34094681151888" lon="10.687092460776658"><ele>91.0</ele><time>2026-03-28T09:14:15.998Z</time></trkpt><trkpt lat="45.34095218345279" lon="10.687253687406704"><ele>91.0</ele><time>2026-03-28T09:14:16.998Z</time></trkpt><trkpt lat="45.340968259612836" lon="10.68741773539037"><ele>91.0</ele><time>2026-03-28T09:14:17.998Z</time></trkpt><trkpt lat="45.34099745909708" lon="10.687592582841338"><ele>91.0</ele><time>2026-03-28T09:14:18.998Z</time></trkpt><trkpt lat="45.34103128843552" lon="10.687781145149073"><ele>91.0</ele><time>2026-03-28T09:14:20Z</time></trkpt><trkpt lat="45.3410725255745" lon="10.687973584966532"><ele>91.0</ele><time>2026-03-28T09:14:21Z</time></trkpt><trkpt lat="45.341114724090566" lon="10.68817974244135"><ele>91.0</ele><time>2026-03-28T09:14:22Z</time></trkpt><trkpt lat="45.341162343596196" lon="10.688402903651532"><ele>91.0</ele><time>2026-03-28T09:14:23Z</time></trkpt><trkpt lat="45.3412163490874" lon="10.688642274888245"><ele>91.33333333333333</ele><time>2026-03-28T09:14:24Z</time></trkpt><trkpt lat="45.34127399517656" lon="10.688877287194687"><ele>91.66666666666667</ele><time>2026-03-28T09:14:25Z</time></trkpt><trkpt lat="45.34133838798871" lon="10.689123217220272"><ele>92.0</ele><time>2026-03-28T09:14:26Z</time></trkpt><trkpt lat="45.34140372745849" lon="10.689370574522803"><ele>91.66666666666667</ele><time>2026-03-28T09:14:27Z</time></trkpt><trkpt lat="45.3414723367924" lon="10.689596219848992"><ele>91.33333333333333</ele><time>2026-03-28T09:14:28Z</time></trkpt><trkpt lat="45.341523199998015" lon="10.689801004480644"><ele>91.0</ele><time>2026-03-28T09:14:29Z</time></trkpt><trkpt lat="45.34158332716898" lon="10.68997538154175"><ele>91.0</ele><time>2026-03-28T09:14:30Z</time></trkpt><trkpt lat="45.34165770758056" lon="10.690163523414915"><ele>91.0</ele><time>2026-03-28T09:14:31Z</time></trkpt><trkpt lat="45.34172549872476" lon="10.690343446108882"><ele>91.0</ele><time>2026-03-28T09:14:32Z</time></trkpt><trkpt lat="45.34178034292033" lon="10.690530252430756"><ele>91.0</ele><time>2026-03-28T09:14:33Z</time></trkpt><trkpt lat="45.341840404535176" lon="10.690712843658993"><ele>91.25</ele><time>2026-03-28T09:14:34Z</time></trkpt><trkpt lat="45.3419047257159" lon="10.690891922115831"><ele>91.5</ele><time>2026-03-28T09:14:35Z</time></trkpt><trkpt lat="45.341964344657555" lon="10.691092486841605"><ele>91.75</ele><time>2026-03-28T09:14:36Z</time></trkpt><trkpt lat="45.34196597424634" lon="10.691311165179382"><ele>92.0</ele><time>2026-03-28T09:14:37Z</time></trkpt><trkpt lat="45.34197021514446" lon="10.69154263497049"><ele>92.33333333333334</ele><time>2026-03-28T09:14:38Z</time></trkpt><trkpt lat="45.34197135165282" lon="10.691796566770806"><ele>92.66666666666667</ele><time>2026-03-28T09:14:39Z</time></trkpt><trkpt lat="45.34198878149768" lon="10.692041458557956"><ele>93.0</ele><time>2026-03-28T09:14:40Z</time></trkpt><trkpt lat="45.34199078881535" lon="10.692277504674196"><ele>93.33333333333333</ele><time>2026-03-28T09:14:41Z</time></trkpt><trkpt lat="45.34202142619359" lon="10.692500159217085"><ele>93.66666666666666</ele><time>2026-03-28T09:14:42Z</time></trkpt><trkpt lat="45.34205292563856" lon="10.692709501462069"><ele>94.0</ele><time>2026-03-28T09:14:43Z</time></trkpt><trkpt lat="45.34209833816645" lon="10.69292044345975"><ele>94.33333333333333</ele><time>2026-03-28T09:14:44Z</time></trkpt><trkpt lat="45.342165211632285" lon="10.69315239981866"><ele>94.66666666666667</ele><time>2026-03-28T09:14:45Z</time></trkpt><trkpt lat="45.3422572327764" lon="10.693416624953123"><ele>95.0</ele><time>2026-03-28T09:14:46Z</time></trkpt><trkpt lat="45.34232571784046" lon="10.693710064809853"><ele>96.25</ele><time>2026-03-28T09:14:47Z</time></trkpt><trkpt lat="45.3423933592916" lon="10.693946088665907"><ele>97.5</ele><time>2026-03-28T09:14:48Z</time></trkpt><trkpt lat="45.3424598058176" lon="10.694115323285104"><ele>98.75</ele><time>2026-03-28T09:14:49Z</time></trkpt><trkpt lat="45.342510640306" lon="10.694275665188188"><ele>100.0</ele><time>2026-03-28T09:14:50Z</time></trkpt><trkpt lat="45.34255906815444" lon="10.694453140127145"><ele>100.0</ele><time>2026-03-28T09:14:51Z</time></trkpt><trkpt lat="45.3426061164183" lon="10.694665522950167"><ele>100.0</ele><time>2026-03-28T09:14:52Z</time></trkpt><trkpt lat="45.34264644591114" lon="10.694906969771369"><ele>100.0</ele><time>2026-03-28T09:14:53Z</time></trkpt><trkpt lat="45.34268658707928" lon="10.695149789258826"><ele>99.66666666666667</ele><time>2026-03-28T09:14:54Z</time></trkpt><trkpt lat="45.3427282508134" lon="10.695394000765045"><ele>99.33333333333334</ele><time>2026-03-28T09:14:55Z</time></trkpt><trkpt lat="45.342764189831776" lon="10.695639683899254"><ele>99.0</ele><time>2026-03-28T09:14:56Z</time></trkpt><trkpt lat="45.342776930296644" lon="10.695887387936914"><ele>99.0</ele><time>2026-03-28T09:14:57Z</time></trkpt><trkpt lat="45.3428150670235" lon="10.69607832319074"><ele>99.0</ele><time>2026-03-28T09:14:58Z</time></trkpt><trkpt lat="45.34282694447726" lon="10.69623297582475"><ele>99.0</ele><time>2026-03-28T09:14:59Z</time></trkpt><trkpt lat="45.34285059506917" lon="10.69636858082121"><ele>99.0</ele><time>2026-03-28T09:15:00Z</time></trkpt><trkpt lat="45.34287594479784" lon="10.696496565491747"><ele>99.0</ele><time>2026-03-28T09:15:01Z</time></trkpt><trkpt lat="45.342912074175196" lon="10.696635281491272"><ele>98.75</ele><time>2026-03-28T09:15:01.999Z</time></trkpt><trkpt lat="45.3429600934133" lon="10.696797214443402"><ele>98.5</ele><time>2026-03-28T09:15:02.999Z</time></trkpt><trkpt lat="45.343013468499315" lon="10.696982519449545"><ele>98.25</ele><time>2026-03-28T09:15:03.999Z</time></trkpt><trkpt lat="45.34307846497421" lon="10.697185392830358"><ele>98.0</ele><time>2026-03-28T09:15:04.999Z</time></trkpt><trkpt lat="45.34315491282691" lon="10.697397178490933"><ele>98.33333333333333</ele><time>2026-03-28T09:15:05.999Z</time></trkpt><trkpt lat="45.343229499322184" lon="10.697620102929857"><ele>98.66666666666666</ele><time>2026-03-28T09:15:06.999Z</time></trkpt><trkpt lat="45.34330376217678" lon="10.697837963521923"><ele>99.0</ele><time>2026-03-28T09:15:07.999Z</time></trkpt><trkpt lat="45.34336771898595" lon="10.698047458762447"><ele>99.0</ele><time>2026-03-28T09:15:08.999Z</time></trkpt><trkpt lat="45.34342410561237" lon="10.698231484473261"><ele>99.0</ele><time>2026-03-28T09:15:09.999Z</time></trkpt><trkpt lat="45.34349566921749" lon="10.698396364319075"><ele>99.0</ele><time>2026-03-28T09:15:10.999Z</time></trkpt><trkpt lat="45.34359040767384" lon="10.698557400469484"><ele>99.0</ele><time>2026-03-28T09:15:11.999Z</time></trkpt><trkpt lat="45.343705679373436" lon="10.698731447620723"><ele>99.0</ele><time>2026-03-28T09:15:12.999Z</time></trkpt><trkpt lat="45.34382281659823" lon="10.69893308568893"><ele>99.0</ele><time>2026-03-28T09:15:13.999Z</time></trkpt><trkpt lat="45.343937821533935" lon="10.699161100560595"><ele>99.0</ele><time>2026-03-28T09:15:14.999Z</time></trkpt><trkpt lat="45.344048795986055" lon="10.699418644845816"><ele>98.0</ele><time>2026-03-28T09:15:15.999Z</time></trkpt><trkpt lat="45.34415384695642" lon="10.699680238577553"><ele>97.0</ele><time>2026-03-28T09:15:16.999Z</time></trkpt><trkpt lat="45.34425588095464" lon="10.699945199653193"><ele>96.0</ele><time>2026-03-28T09:15:17.999Z</time></trkpt><trkpt lat="45.3443596034202" lon="10.700209514219809"><ele>96.0</ele><time>2026-03-28T09:15:18.999Z</time></trkpt><trkpt lat="45.34445603037051" lon="10.700458754689324"><ele>96.0</ele><time>2026-03-28T09:15:19.999Z</time></trkpt><trkpt lat="45.34454445209482" lon="10.700669803947985"><ele>96.0</ele><time>2026-03-28T09:15:20.999Z</time></trkpt><trkpt lat="45.34461630054455" lon="10.700843550077366"><ele>96.0</ele><time>2026-03-28T09:15:21.999Z</time></trkpt><trkpt lat="45.344676104088286" lon="10.700994941025366"><ele>96.0</ele><time>2026-03-28T09:15:22.999Z</time></trkpt><trkpt lat="45.344729610162794" lon="10.701131448399465"><ele>96.0</ele><time>2026-03-28T09:15:23.999Z</time></trkpt><trkpt lat="45.34477417971651" lon="10.701241805155119"><ele>96.0</ele><time>2026-03-28T09:15:24.999Z</time></trkpt><trkpt lat="45.344808990204996" lon="10.701330670412956"><ele>96.0</ele><time>2026-03-28T09:15:25.999Z</time></trkpt><trkpt lat="45.34485607969229" lon="10.701441614942576"><ele>96.0</ele><time>2026-03-28T09:15:27.999Z</time></trkpt><trkpt lat="45.34500284642673" lon="10.701300037677406"><ele>96.0</ele><time>2026-03-28T09:15:31.999Z</time></trkpt><trkpt lat="45.345057533586335" lon="10.701152446733103"><ele>96.0</ele><time>2026-03-28T09:15:32.999Z</time></trkpt><trkpt lat="45.345120530477374" lon="10.700989099592038"><ele>96.0</ele><time>2026-03-28T09:15:33.999Z</time></trkpt><trkpt lat="45.34519527481536" lon="10.700815735379829"><ele>96.33333333333334</ele><time>2026-03-28T09:15:34.999Z</time></trkpt><trkpt lat="45.34527692608287" lon="10.70062265649483"><ele>96.66666666666667</ele><time>2026-03-28T09:15:35.999Z</time></trkpt><trkpt lat="45.34536722618403" lon="10.700423007845353"><ele>97.0</ele><time>2026-03-28T09:15:36.999Z</time></trkpt><trkpt lat="45.345465718630734" lon="10.700212111786465"><ele>101.0</ele><time>2026-03-28T09:15:37.999Z</time></trkpt><trkpt lat="45.34557961478835" lon="10.700005195869247"><ele>105.0</ele><time>2026-03-28T09:15:38.999Z</time></trkpt><trkpt lat="45.34569501939098" lon="10.699817228892918"><ele>109.0</ele><time>2026-03-28T09:15:39.999Z</time></trkpt><trkpt lat="45.34580717971721" lon="10.699634899234036"><ele>109.0</ele><time>2026-03-28T09:15:40.999Z</time></trkpt><trkpt lat="45.345916088897674" lon="10.699453752509482"><ele>109.0</ele><time>2026-03-28T09:15:41.999Z</time></trkpt><trkpt lat="45.346012104469644" lon="10.69928079902976"><ele>109.0</ele><time>2026-03-28T09:15:42.999Z</time></trkpt><trkpt lat="45.3460865860448" lon="10.699119338508249"><ele>109.5</ele><time>2026-03-28T09:15:43.999Z</time></trkpt><trkpt lat="45.34616160282601" lon="10.698940893745629"><ele>110.0</ele><time>2026-03-28T09:15:44.999Z</time></trkpt><trkpt lat="45.34622479151945" lon="10.698753807873981"><ele>110.5</ele><time>2026-03-28T09:15:45.999Z</time></trkpt><trkpt lat="45.34627362835358" lon="10.698545370467258"><ele>111.0</ele><time>2026-03-28T09:15:46.999Z</time></trkpt><trkpt lat="45.34632778605266" lon="10.698325139518618"><ele>108.66666666666666</ele><time>2026-03-28T09:15:47.999Z</time></trkpt><trkpt lat="45.3464151640075" lon="10.69810981841444"><ele>106.33333333333333</ele><time>2026-03-28T09:15:48.999Z</time></trkpt><trkpt lat="45.346507383326234" lon="10.69788455137725"><ele>104.0</ele><time>2026-03-28T09:15:49.999Z</time></trkpt><trkpt lat="45.34660972282233" lon="10.69768314616665"><ele>103.0</ele><time>2026-03-28T09:15:50.999Z</time></trkpt><trkpt lat="45.34671492100102" lon="10.697493465820632"><ele>102.0</ele><time>2026-03-28T09:15:51.999Z</time></trkpt><trkpt lat="45.346801937180274" lon="10.6973103812646"><ele>101.0</ele><time>2026-03-28T09:15:52.999Z</time></trkpt><trkpt lat="45.34690487174773" lon="10.697147393441849"><ele>101.0</ele><time>2026-03-28T09:15:53.999Z</time></trkpt><trkpt lat="45.347011512022746" lon="10.69698669266999"><ele>101.0</ele><time>2026-03-28T09:15:54.999Z</time></trkpt><trkpt lat="45.347130358885664" lon="10.696836686925524"><ele>101.0</ele><time>2026-03-28T09:15:55.999Z</time></trkpt><trkpt lat="45.347270831447716" lon="10.696743824761892"><ele>100.33333333333333</ele><time>2026-03-28T09:15:56.998Z</time></trkpt><trkpt lat="45.34742140790858" lon="10.696655766336757"><ele>99.66666666666666</ele><time>2026-03-28T09:15:57.998Z</time></trkpt><trkpt lat="45.34757155414425" lon="10.69657022733249"><ele>99.0</ele><time>2026-03-28T09:15:58.998Z</time></trkpt><trkpt lat="45.34770813073378" lon="10.696477739094417"><ele>99.0</ele><time>2026-03-28T09:15:59.998Z</time></trkpt><trkpt lat="45.34783919565108" lon="10.696411254273583"><ele>99.0</ele><time>2026-03-28T09:16:00.998Z</time></trkpt><trkpt lat="45.34794233133635" lon="10.69631599030203"><ele>99.0</ele><time>2026-03-28T09:16:01.998Z</time></trkpt><trkpt lat="45.34803904290846" lon="10.696231313306885"><ele>99.0</ele><time>2026-03-28T09:16:02.998Z</time></trkpt><trkpt lat="45.348137665911935" lon="10.696165909537374"><ele>98.5</ele><time>2026-03-28T09:16:03.998Z</time></trkpt><trkpt lat="45.348245754243905" lon="10.696133311139594"><ele>98.0</ele><time>2026-03-28T09:16:04.998Z</time></trkpt><trkpt lat="45.348363694930896" lon="10.696126198702594"><ele>97.5</ele><time>2026-03-28T09:16:05.998Z</time></trkpt><trkpt lat="45.34848414228271" lon="10.696131380635354"><ele>97.0</ele><time>2026-03-28T09:16:06.998Z</time></trkpt><trkpt lat="45.34861056368617" lon="10.696147399107119"><ele>97.0</ele><time>2026-03-28T09:16:07.998Z</time></trkpt><trkpt lat="45.348755024410394" lon="10.696159014124111"><ele>97.0</ele><time>2026-03-28T09:16:08.998Z</time></trkpt><trkpt lat="45.34890380855626" lon="10.696161007617144"><ele>97.0</ele><time>2026-03-28T09:16:09.998Z</time></trkpt><trkpt lat="45.34904569878476" lon="10.696154424239621"><ele>97.0</ele><time>2026-03-28T09:16:10.998Z</time></trkpt><trkpt lat="45.349171428092994" lon="10.696148197833468"><ele>96.19999999999999</ele><time>2026-03-28T09:16:11.998Z</time></trkpt><trkpt lat="45.34928214136176" lon="10.696169356936789"><ele>95.4</ele><time>2026-03-28T09:16:12.998Z</time></trkpt><trkpt lat="45.3493753191101" lon="10.696222585496137"><ele>94.6</ele><time>2026-03-28T09:16:13.998Z</time></trkpt><trkpt lat="45.349443667553224" lon="10.696306740578747"><ele>93.80000000000001</ele><time>2026-03-28T09:16:14.998Z</time></trkpt><trkpt lat="45.349494595186734" lon="10.696430416525702"><ele>93.0</ele><time>2026-03-28T09:16:15.998Z</time></trkpt><trkpt lat="45.34947573536792" lon="10.696583633137216"><ele>93.0</ele><time>2026-03-28T09:16:16.998Z</time></trkpt><trkpt lat="45.34947278375837" lon="10.69672595993774"><ele>93.0</ele><time>2026-03-28T09:16:17.998Z</time></trkpt><trkpt lat="45.34947448296167" lon="10.696944914426423"><ele>93.0</ele><time>2026-03-28T09:16:18.998Z</time></trkpt><trkpt lat="45.34947722785963" lon="10.697164707152142"><ele>93.0</ele><time>2026-03-28T09:16:19.998Z</time></trkpt><trkpt lat="45.34949004248613" lon="10.697395495354373"><ele>93.66666666666667</ele><time>2026-03-28T09:16:20.998Z</time></trkpt><trkpt lat="45.34951174928992" lon="10.697632068016683"><ele>94.33333333333334</ele><time>2026-03-28T09:16:21.998Z</time></trkpt><trkpt lat="45.34953513187663" lon="10.697870250588508"><ele>95.0</ele><time>2026-03-28T09:16:22.998Z</time></trkpt><trkpt lat="45.349557023889965" lon="10.698098289589005"><ele>95.25</ele><time>2026-03-28T09:16:23.998Z</time></trkpt><trkpt lat="45.3495748967523" lon="10.698308422645605"><ele>95.5</ele><time>2026-03-28T09:16:24.998Z</time></trkpt><trkpt lat="45.34958666894385" lon="10.69850616803725"><ele>95.75</ele><time>2026-03-28T09:16:26Z</time></trkpt><trkpt lat="45.34959406329363" lon="10.6987018010241"><ele>96.0</ele><time>2026-03-28T09:16:27Z</time></trkpt><trkpt lat="45.349601054127696" lon="10.698906527830738"><ele>96.33333333333334</ele><time>2026-03-28T09:16:28Z</time></trkpt><trkpt lat="45.34960852988328" lon="10.699125455542259"><ele>96.66666666666667</ele><time>2026-03-28T09:16:29Z</time></trkpt><trkpt lat="45.349616413357616" lon="10.699355979163743"><ele>97.0</ele><time>2026-03-28T09:16:30Z</time></trkpt><trkpt lat="45.34962010592906" lon="10.699593873045142"><ele>97.0</ele><time>2026-03-28T09:16:31Z</time></trkpt><trkpt lat="45.349632564856094" lon="10.699836070931113"><ele>97.0</ele><time>2026-03-28T09:16:32Z</time></trkpt><trkpt lat="45.349605551804906" lon="10.70008406787486"><ele>97.0</ele><time>2026-03-28T09:16:33Z</time></trkpt><trkpt lat="45.34957026412831" lon="10.700327717220404"><ele>96.0</ele><time>2026-03-28T09:16:34Z</time></trkpt><trkpt lat="45.34956510046651" lon="10.700565025299042"><ele>95.0</ele><time>2026-03-28T09:16:35Z</time></trkpt><trkpt lat="45.34951780707307" lon="10.70076754566973"><ele>94.0</ele><time>2026-03-28T09:16:36Z</time></trkpt><trkpt lat="45.349494244968746" lon="10.700968236429327"><ele>93.75</ele><time>2026-03-28T09:16:37Z</time></trkpt><trkpt lat="45.34946996797457" lon="10.701155831034201"><ele>93.5</ele><time>2026-03-28T09:16:38Z</time></trkpt><trkpt lat="45.34944614798933" lon="10.701343361286181"><ele>93.25</ele><time>2026-03-28T09:16:39Z</time></trkpt><trkpt lat="45.349428918150025" lon="10.70152138856622"><ele>93.0</ele><time>2026-03-28T09:16:40Z</time></trkpt><trkpt lat="45.34943060903635" lon="10.70170047522411"><ele>93.0</ele><time>2026-03-28T09:16:41Z</time></trkpt><trkpt lat="45.349448068321514" lon="10.701891210659051"><ele>93.0</ele><time>2026-03-28T09:16:42Z</time></trkpt><trkpt lat="45.34946412520545" lon="10.702092046875181"><ele>93.0</ele><time>2026-03-28T09:16:43Z</time></trkpt><trkpt lat="45.34947425933799" lon="10.702307212736187"><ele>93.0</ele><time>2026-03-28T09:16:44Z</time></trkpt><trkpt lat="45.34948548184818" lon="10.702545486868459"><ele>91.0</ele><time>2026-03-28T09:16:45Z</time></trkpt><trkpt lat="45.34949818666976" lon="10.702788306532872"><ele>89.0</ele><time>2026-03-28T09:16:46Z</time></trkpt><trkpt lat="45.34951323577981" lon="10.703032645195277"><ele>87.0</ele><time>2026-03-28T09:16:47Z</time></trkpt><trkpt lat="45.34953836772373" lon="10.703260831865482"><ele>87.0</ele><time>2026-03-28T09:16:48Z</time></trkpt><trkpt lat="45.34954899872413" lon="10.703501240177753"><ele>87.0</ele><time>2026-03-28T09:16:49Z</time></trkpt><trkpt lat="45.3495595134245" lon="10.703741312093538"><ele>87.0</ele><time>2026-03-28T09:16:50Z</time></trkpt><trkpt lat="45.349563602550184" lon="10.703990855586646"><ele>86.0</ele><time>2026-03-28T09:16:51Z</time></trkpt><trkpt lat="45.349532093888946" lon="10.704231987644354"><ele>85.0</ele><time>2026-03-28T09:16:52Z</time></trkpt><trkpt lat="45.3494936850795" lon="10.704459759042528"><ele>84.0</ele><time>2026-03-28T09:16:53Z</time></trkpt><trkpt lat="45.349476705349986" lon="10.70466431524761"><ele>84.0</ele><time>2026-03-28T09:16:54Z</time></trkpt><trkpt lat="45.34945883647498" lon="10.704854262938989"><ele>84.0</ele><time>2026-03-28T09:16:55Z</time></trkpt><trkpt lat="45.349462677499794" lon="10.705056385420804"><ele>84.0</ele><time>2026-03-28T09:16:56Z</time></trkpt><trkpt lat="45.34949329811272" lon="10.705261538012108"><ele>84.0</ele><time>2026-03-28T09:16:57Z</time></trkpt><trkpt lat="45.34954955278153" lon="10.705451853382181"><ele>84.66666666666667</ele><time>2026-03-28T09:16:58Z</time></trkpt><trkpt lat="45.349627073753204" lon="10.705624948262377"><ele>85.33333333333334</ele><time>2026-03-28T09:16:59Z</time></trkpt><trkpt lat="45.34973008546735" lon="10.705800229271922"><ele>86.0</ele><time>2026-03-28T09:17:00Z</time></trkpt><trkpt lat="45.3498327236731" lon="10.705989264708032"><ele>79.33333333333334</ele><time>2026-03-28T09:17:01Z</time></trkpt><trkpt lat="45.34994822606255" lon="10.706204930475854"><ele>72.66666666666667</ele><time>2026-03-28T09:17:01.999Z</time></trkpt><trkpt lat="45.35006378421616" lon="10.706406878564081"><ele>66.0</ele><time>2026-03-28T09:17:02.999Z</time></trkpt><trkpt lat="45.350173739404156" lon="10.706624821904766"><ele>66.0</ele><time>2026-03-28T09:17:03.999Z</time></trkpt><trkpt lat="45.350277673600466" lon="10.706856357407233"><ele>66.0</ele><time>2026-03-28T09:17:04.999Z</time></trkpt><trkpt lat="45.35037829898496" lon="10.707099269525568"><ele>66.0</ele><time>2026-03-28T09:17:05.999Z</time></trkpt><trkpt lat="45.35047568216637" lon="10.70734665507704"><ele>67.33333333333333</ele><time>2026-03-28T09:17:06.999Z</time></trkpt><trkpt lat="45.35057843340549" lon="10.70759575968899"><ele>68.66666666666666</ele><time>2026-03-28T09:17:07.999Z</time></trkpt><trkpt lat="45.350677802376595" lon="10.707841942319469"><ele>70.0</ele><time>2026-03-28T09:17:08.999Z</time></trkpt><trkpt lat="45.35077767592872" lon="10.708079060602788"><ele>70.33333333333333</ele><time>2026-03-28T09:17:09.999Z</time></trkpt><trkpt lat="45.3508695531748" lon="10.708300413343421"><ele>70.66666666666667</ele><time>2026-03-28T09:17:10.999Z</time></trkpt><trkpt lat="45.350951816526006" lon="10.708507033504159"><ele>71.0</ele><time>2026-03-28T09:17:11.999Z</time></trkpt><trkpt lat="45.351022765326036" lon="10.708698037548212"><ele>70.33333333333334</ele><time>2026-03-28T09:17:12.999Z</time></trkpt><trkpt lat="45.35107116853544" lon="10.708889492091652"><ele>69.66666666666667</ele><time>2026-03-28T09:17:13.999Z</time></trkpt><trkpt lat="45.3511455390813" lon="10.709122500671098"><ele>69.0</ele><time>2026-03-28T09:17:14.999Z</time></trkpt><trkpt lat="45.35122740908068" lon="10.709391303633453"><ele>68.66666666666667</ele><time>2026-03-28T09:17:15.999Z</time></trkpt><trkpt lat="45.35128622960203" lon="10.709591471586013"><ele>68.33333333333334</ele><time>2026-03-28T09:17:16.999Z</time></trkpt><trkpt lat="45.3513667372419" lon="10.709815537183957"><ele>68.0</ele><time>2026-03-28T09:17:17.999Z</time></trkpt><trkpt lat="45.351435528318746" lon="10.71005062329666"><ele>67.33333333333334</ele><time>2026-03-28T09:17:18.999Z</time></trkpt><trkpt lat="45.3515165971262" lon="10.710282295559214"><ele>66.66666666666667</ele><time>2026-03-28T09:17:19.999Z</time></trkpt><trkpt lat="45.351598735081254" lon="10.710521129230232"><ele>66.0</ele><time>2026-03-28T09:17:20.999Z</time></trkpt><trkpt lat="45.35172225940066" lon="10.710751557052307"><ele>66.0</ele><time>2026-03-28T09:17:21.999Z</time></trkpt><trkpt lat="45.35183120161209" lon="10.710969497451927"><ele>66.0</ele><time>2026-03-28T09:17:22.999Z</time></trkpt><trkpt lat="45.35193562896845" lon="10.71118942824598"><ele>66.0</ele><time>2026-03-28T09:17:23.999Z</time></trkpt><trkpt lat="45.352067415499135" lon="10.711376256659488"><ele>66.33333333333333</ele><time>2026-03-28T09:17:24.999Z</time></trkpt><trkpt lat="45.35219606991666" lon="10.711569596018872"><ele>66.66666666666666</ele><time>2026-03-28T09:17:25.999Z</time></trkpt><trkpt lat="45.35232077895301" lon="10.711766739256781"><ele>67.0</ele><time>2026-03-28T09:17:26.999Z</time></trkpt><trkpt lat="45.35243815534311" lon="10.711962969498774"><ele>67.0</ele><time>2026-03-28T09:17:27.999Z</time></trkpt><trkpt lat="45.3525322742465" lon="10.712120770323459"><ele>67.0</ele><time>2026-03-28T09:17:28.999Z</time></trkpt><trkpt lat="45.35260966330014" lon="10.712259419648923"><ele>67.0</ele><time>2026-03-28T09:17:29.999Z</time></trkpt><trkpt lat="45.352660153716485" lon="10.712446833411091"><ele>67.0</ele><time>2026-03-28T09:17:30.999Z</time></trkpt><trkpt lat="45.352779889813604" lon="10.712612736366838"><ele>65.33333333333333</ele><time>2026-03-28T09:17:31.999Z</time></trkpt><trkpt lat="45.352889879160564" lon="10.712808353331788"><ele>63.66666666666667</ele><time>2026-03-28T09:17:32.999Z</time></trkpt><trkpt lat="45.35300516519492" lon="10.713008696288565"><ele>62.0</ele><time>2026-03-28T09:17:33.999Z</time></trkpt><trkpt lat="45.353124085233645" lon="10.713207505286546"><ele>64.0</ele><time>2026-03-28T09:17:34.999Z</time></trkpt><trkpt lat="45.35323869174065" lon="10.713414291075265"><ele>66.0</ele><time>2026-03-28T09:17:35.999Z</time></trkpt><trkpt lat="45.353347881571345" lon="10.713611185669654"><ele>68.0</ele><time>2026-03-28T09:17:36.999Z</time></trkpt><trkpt lat="45.35345216285319" lon="10.713803235425102"><ele>68.0</ele><time>2026-03-28T09:17:37.999Z</time></trkpt><trkpt lat="45.353552140524606" lon="10.713982184340317"><ele>68.0</ele><time>2026-03-28T09:17:38.999Z</time></trkpt><trkpt lat="45.35364146698564" lon="10.714184027724986"><ele>68.0</ele><time>2026-03-28T09:17:39.999Z</time></trkpt><trkpt lat="45.35367560168714" lon="10.714411398820683"><ele>67.33333333333334</ele><time>2026-03-28T09:17:40.999Z</time></trkpt><trkpt lat="45.35371032170652" lon="10.714657141980293"><ele>66.66666666666667</ele><time>2026-03-28T09:17:41.999Z</time></trkpt><trkpt lat="45.35373913035452" lon="10.714911161218522"><ele>66.0</ele><time>2026-03-28T09:17:42.999Z</time></trkpt><trkpt lat="45.353780120955214" lon="10.715182229804048"><ele>65.0</ele><time>2026-03-28T09:17:43.999Z</time></trkpt><trkpt lat="45.35379999677955" lon="10.715455985455598"><ele>64.0</ele><time>2026-03-28T09:17:44.999Z</time></trkpt><trkpt lat="45.353781222770465" lon="10.715730058391632"><ele>63.0</ele><time>2026-03-28T09:17:45.999Z</time></trkpt><trkpt lat="45.35376334392656" lon="10.716007137556229"><ele>62.66666666666667</ele><time>2026-03-28T09:17:46.999Z</time></trkpt><trkpt lat="45.35374526837267" lon="10.716273074106638"><ele>62.333333333333336</ele><time>2026-03-28T09:17:47.999Z</time></trkpt><trkpt lat="45.3537391925127" lon="10.716547628860788"><ele>62.0</ele><time>2026-03-28T09:17:48.999Z</time></trkpt><trkpt lat="45.3537610558361" lon="10.716803226768858"><ele>61.333333333333336</ele><time>2026-03-28T09:17:49.999Z</time></trkpt><trkpt lat="45.35380113092561" lon="10.717063933510186"><ele>60.66666666666667</ele><time>2026-03-28T09:17:50.999Z</time></trkpt><trkpt lat="45.35386239651166" lon="10.717317333293144"><ele>60.0</ele><time>2026-03-28T09:17:51.999Z</time></trkpt><trkpt lat="45.3539509478116" lon="10.717567940923646"><ele>61.0</ele><time>2026-03-28T09:17:52.999Z</time></trkpt><trkpt lat="45.35406134251563" lon="10.717793533843942"><ele>62.0</ele><time>2026-03-28T09:17:53.999Z</time></trkpt><trkpt lat="45.3541869098973" lon="10.718007262093769"><ele>63.0</ele><time>2026-03-28T09:17:54.999Z</time></trkpt><trkpt lat="45.354312419505845" lon="10.718218415475468"><ele>63.0</ele><time>2026-03-28T09:17:55.999Z</time></trkpt><trkpt lat="45.35442907651743" lon="10.718435783491794"><ele>63.0</ele><time>2026-03-28T09:17:56.999Z</time></trkpt><trkpt lat="45.354546137332555" lon="10.718652921084004"><ele>63.0</ele><time>2026-03-28T09:17:57.998Z</time></trkpt><trkpt lat="45.35466441327806" lon="10.718877424330028"><ele>63.33333333333333</ele><time>2026-03-28T09:17:58.998Z</time></trkpt><trkpt lat="45.3547735117446" lon="10.719083969493449"><ele>63.666666666666664</ele><time>2026-03-28T09:17:59.998Z</time></trkpt><trkpt lat="45.35488456840268" lon="10.719296065012813"><ele>64.0</ele><time>2026-03-28T09:18:00.998Z</time></trkpt><trkpt lat="45.35499349659864" lon="10.719499070310457"><ele>64.0</ele><time>2026-03-28T09:18:01.998Z</time></trkpt><trkpt lat="45.355096253302825" lon="10.719704071682303"><ele>64.0</ele><time>2026-03-28T09:18:02.998Z</time></trkpt><trkpt lat="45.35520787656485" lon="10.71990736780692"><ele>64.0</ele><time>2026-03-28T09:18:03.998Z</time></trkpt><trkpt lat="45.35531823130044" lon="10.720105062875039"><ele>63.25</ele><time>2026-03-28T09:18:04.998Z</time></trkpt><trkpt lat="45.35541258982339" lon="10.720281478098117"><ele>62.5</ele><time>2026-03-28T09:18:05.998Z</time></trkpt><trkpt lat="45.35550710671134" lon="10.72044999113847"><ele>61.75</ele><time>2026-03-28T09:18:06.998Z</time></trkpt><trkpt lat="45.355576816610366" lon="10.720595261575786"><ele>61.0</ele><time>2026-03-28T09:18:07.998Z</time></trkpt><trkpt lat="45.35565474343799" lon="10.720719700021357"><ele>61.49999999999999</ele><time>2026-03-28T09:18:08.998Z</time></trkpt><trkpt lat="45.35571549142239" lon="10.72084405860593"><ele>62.0</ele><time>2026-03-28T09:18:09.998Z</time></trkpt><trkpt lat="45.35577302471677" lon="10.720953801012106"><ele>62.5</ele><time>2026-03-28T09:18:10.998Z</time></trkpt><trkpt lat="45.3558288486405" lon="10.721052443382398"><ele>63.0</ele><time>2026-03-28T09:18:11.998Z</time></trkpt><trkpt lat="45.355881498788015" lon="10.721121462037756"><ele>63.49999999999999</ele><time>2026-03-28T09:18:12.998Z</time></trkpt><trkpt lat="45.35593346163708" lon="10.721192855478543"><ele>64.0</ele><time>2026-03-28T09:18:13.998Z</time></trkpt><trkpt lat="45.35602668186311" lon="10.721289221284696"><ele>64.0</ele><time>2026-03-28T09:18:15.998Z</time></trkpt><trkpt lat="45.35608034025476" lon="10.721352296238566"><ele>64.0</ele><time>2026-03-28T09:18:17.998Z</time></trkpt><trkpt lat="45.35612678152501" lon="10.721426614971328"><ele>64.0</ele><time>2026-03-28T09:18:19.998Z</time></trkpt><trkpt lat="45.35608941538446" lon="10.721580891541615"><ele>64.0</ele><time>2026-03-28T09:18:24.998Z</time></trkpt><trkpt lat="45.35604104807304" lon="10.72171619558847"><ele>64.0</ele><time>2026-03-28T09:18:25.998Z</time></trkpt><trkpt lat="45.35598313533768" lon="10.721875473014494"><ele>62.33333333333333</ele><time>2026-03-28T09:18:26.998Z</time></trkpt><trkpt lat="45.35592082006562" lon="10.722092341772129"><ele>60.66666666666667</ele><time>2026-03-28T09:18:27.998Z</time></trkpt><trkpt lat="45.35583129845445" lon="10.722301808010949"><ele>59.0</ele><time>2026-03-28T09:18:28.998Z</time></trkpt><trkpt lat="45.35575197092942" lon="10.722525548307535"><ele>59.333333333333336</ele><time>2026-03-28T09:18:29.998Z</time></trkpt><trkpt lat="45.35566983785828" lon="10.722756191862022"><ele>59.66666666666667</ele><time>2026-03-28T09:18:30.998Z</time></trkpt><trkpt lat="45.35559430339553" lon="10.72296651701851"><ele>60.0</ele><time>2026-03-28T09:18:32Z</time></trkpt><trkpt lat="45.35551899998091" lon="10.723174298880627"><ele>60.0</ele><time>2026-03-28T09:18:33Z</time></trkpt><trkpt lat="45.35544484502144" lon="10.723382085725357"><ele>60.0</ele><time>2026-03-28T09:18:34Z</time></trkpt><trkpt lat="45.35537017594425" lon="10.723591313133726"><ele>60.0</ele><time>2026-03-28T09:18:35Z</time></trkpt><trkpt lat="45.355296863003296" lon="10.723796740589728"><ele>60.0</ele><time>2026-03-28T09:18:36Z</time></trkpt><trkpt lat="45.355222393990374" lon="10.724005526875596"><ele>60.0</ele><time>2026-03-28T09:18:37Z</time></trkpt><trkpt lat="45.35514622502175" lon="10.724220087317779"><ele>60.0</ele><time>2026-03-28T09:18:38Z</time></trkpt><trkpt lat="45.35506928397004" lon="10.724436823239381"><ele>60.0</ele><time>2026-03-28T09:18:39Z</time></trkpt><trkpt lat="45.35499148541988" lon="10.7246554446502"><ele>60.0</ele><time>2026-03-28T09:18:40Z</time></trkpt><trkpt lat="45.35491387079637" lon="10.724873305528737"><ele>60.0</ele><time>2026-03-28T09:18:41Z</time></trkpt><trkpt lat="45.35483565865878" lon="10.72509254384406"><ele>59.0</ele><time>2026-03-28T09:18:42Z</time></trkpt><trkpt lat="45.354755629904986" lon="10.725317346275258"><ele>58.0</ele><time>2026-03-28T09:18:43Z</time></trkpt><trkpt lat="45.35467303399845" lon="10.725552851438625"><ele>57.0</ele><time>2026-03-28T09:18:44Z</time></trkpt><trkpt lat="45.35459378273782" lon="10.725777285522762"><ele>57.0</ele><time>2026-03-28T09:18:45Z</time></trkpt><trkpt lat="45.354514025084036" lon="10.726003153772362"><ele>57.0</ele><time>2026-03-28T09:18:46Z</time></trkpt><trkpt lat="45.354447670626016" lon="10.726242152998848"><ele>57.0</ele><time>2026-03-28T09:18:47Z</time></trkpt><trkpt lat="45.35435272152632" lon="10.726456620979441"><ele>57.66666666666667</ele><time>2026-03-28T09:18:48Z</time></trkpt><trkpt lat="45.35426932003663" lon="10.726687914370975"><ele>58.333333333333336</ele><time>2026-03-28T09:18:49Z</time></trkpt><trkpt lat="45.35418915364862" lon="10.726908166662039"><ele>59.0</ele><time>2026-03-28T09:18:50Z</time></trkpt><trkpt lat="45.354107484518" lon="10.727132547424945"><ele>59.333333333333336</ele><time>2026-03-28T09:18:51Z</time></trkpt><trkpt lat="45.35402602130644" lon="10.72735636277118"><ele>59.66666666666667</ele><time>2026-03-28T09:18:52Z</time></trkpt><trkpt lat="45.353952254269885" lon="10.727559033312936"><ele>60.0</ele><time>2026-03-28T09:18:53Z</time></trkpt><trkpt lat="45.353886924467034" lon="10.727738523151848"><ele>63.2</ele><time>2026-03-28T09:18:54Z</time></trkpt><trkpt lat="45.35382678754233" lon="10.727903818459387"><ele>66.4</ele><time>2026-03-28T09:18:55Z</time></trkpt><trkpt lat="45.3537766753873" lon="10.728052649325988"><ele>69.6</ele><time>2026-03-28T09:18:56Z</time></trkpt><trkpt lat="45.35374639706823" lon="10.728190615181774"><ele>72.8</ele><time>2026-03-28T09:18:57Z</time></trkpt><trkpt lat="45.35369990249257" lon="10.728293591819327"><ele>76.0</ele><time>2026-03-28T09:18:58Z</time></trkpt><trkpt lat="45.35364698818174" lon="10.72836853539272"><ele>76.0</ele><time>2026-03-28T09:18:59Z</time></trkpt><trkpt lat="45.3536354409569" lon="10.728502963469182"><ele>76.0</ele><time>2026-03-28T09:19:01Z</time></trkpt><trkpt lat="45.35377963592992" lon="10.728620985078514"><ele>76.0</ele><time>2026-03-28T09:19:03Z</time></trkpt><trkpt lat="45.35387994358678" lon="10.728692262463381"><ele>76.0</ele><time>2026-03-28T09:19:04Z</time></trkpt><trkpt lat="45.35398693894645" lon="10.72874152084501"><ele>77.5</ele><time>2026-03-28T09:19:05Z</time></trkpt><trkpt lat="45.35410383436646" lon="10.728781944592448"><ele>79.0</ele><time>2026-03-28T09:19:06Z</time></trkpt><trkpt lat="45.3542231549836" lon="10.728831405822577"><ele>80.5</ele><time>2026-03-28T09:19:07Z</time></trkpt><trkpt lat="45.35435704263255" lon="10.728897424412219"><ele>82.0</ele><time>2026-03-28T09:19:08Z</time></trkpt><trkpt lat="45.354470692637605" lon="10.728954938766346"><ele>82.0</ele><time>2026-03-28T09:19:08.999Z</time></trkpt><trkpt lat="45.354569399728824" lon="10.72900434567994"><ele>82.0</ele><time>2026-03-28T09:19:09.999Z</time></trkpt><trkpt lat="45.35466802366154" lon="10.729051755345731"><ele>82.0</ele><time>2026-03-28T09:19:10.999Z</time></trkpt><trkpt lat="45.35476674219077" lon="10.729093613104864"><ele>82.0</ele><time>2026-03-28T09:19:11.999Z</time></trkpt><trkpt lat="45.35486438341485" lon="10.729136934428277"><ele>82.0</ele><time>2026-03-28T09:19:12.999Z</time></trkpt><trkpt lat="45.35496577209" lon="10.729167343934364"><ele>81.5</ele><time>2026-03-28T09:19:13.999Z</time></trkpt><trkpt lat="45.35508873548635" lon="10.729202682677405"><ele>81.0</ele><time>2026-03-28T09:19:14.999Z</time></trkpt><trkpt lat="45.35523620500836" lon="10.729250804522966"><ele>80.5</ele><time>2026-03-28T09:19:15.999Z</time></trkpt><trkpt lat="45.355401798234894" lon="10.729287019775484"><ele>80.0</ele><time>2026-03-28T09:19:16.999Z</time></trkpt><trkpt lat="45.35558392585735" lon="10.729343782281292"><ele>79.66666666666667</ele><time>2026-03-28T09:19:17.999Z</time></trkpt><trkpt lat="45.35577398816536" lon="10.729391161127772"><ele>79.33333333333333</ele><time>2026-03-28T09:19:18.999Z</time></trkpt><trkpt lat="45.355952133041555" lon="10.72940783240744"><ele>79.0</ele><time>2026-03-28T09:19:19.999Z</time></trkpt><trkpt lat="45.35611517580991" lon="10.729427124770877"><ele>80.0</ele><time>2026-03-28T09:19:20.999Z</time></trkpt><trkpt lat="45.35626407383909" lon="10.729402835061348"><ele>81.0</ele><time>2026-03-28T09:19:21.999Z</time></trkpt><trkpt lat="45.35639144851122" lon="10.729359505532106"><ele>82.0</ele><time>2026-03-28T09:19:22.999Z</time></trkpt><trkpt lat="45.356482243970575" lon="10.729320276289759"><ele>83.0</ele><time>2026-03-28T09:19:23.999Z</time></trkpt><trkpt lat="45.35656536308451" lon="10.729309061778318"><ele>83.0</ele><time>2026-03-28T09:19:24.999Z</time></trkpt><trkpt lat="45.35663936313888" lon="10.729371039370836"><ele>83.0</ele><time>2026-03-28T09:19:26.999Z</time></trkpt><trkpt lat="45.35659441047926" lon="10.729496409795097"><ele>83.0</ele><time>2026-03-28T09:19:28.999Z</time></trkpt><trkpt lat="45.35648897599676" lon="10.729479336835817"><ele>83.0</ele><time>2026-03-28T09:19:29.999Z</time></trkpt><trkpt lat="45.3563815636032" lon="10.72953282011411"><ele>83.0</ele><time>2026-03-28T09:19:30.999Z</time></trkpt><trkpt lat="45.35626486695414" lon="10.729620225427531"><ele>86.5</ele><time>2026-03-28T09:19:31.999Z</time></trkpt><trkpt lat="45.35613517641374" lon="10.729689122239568"><ele>90.0</ele><time>2026-03-28T09:19:32.999Z</time></trkpt><trkpt lat="45.3559912581465" lon="10.72976032212436"><ele>93.5</ele><time>2026-03-28T09:19:33.999Z</time></trkpt><trkpt lat="45.35586407151112" lon="10.729846767853294"><ele>97.0</ele><time>2026-03-28T09:19:34.999Z</time></trkpt><trkpt lat="45.35576926749598" lon="10.72995850977958"><ele>97.0</ele><time>2026-03-28T09:19:35.999Z</time></trkpt><trkpt lat="45.355701996341104" lon="10.730081853548027"><ele>97.0</ele><time>2026-03-28T09:19:36.999Z</time></trkpt><trkpt lat="45.35567460404807" lon="10.730206247630859"><ele>97.0</ele><time>2026-03-28T09:19:37.999Z</time></trkpt><trkpt lat="45.355681557943164" lon="10.73035347115818"><ele>97.0</ele><time>2026-03-28T09:19:38.999Z</time></trkpt><trkpt lat="45.355713300433464" lon="10.730508344319727"><ele>97.0</ele><time>2026-03-28T09:19:39.999Z</time></trkpt><trkpt lat="45.35576344798891" lon="10.730670763620918"><ele>98.0</ele><time>2026-03-28T09:19:40.999Z</time></trkpt><trkpt lat="45.355794683320084" lon="10.730831509755703"><ele>99.0</ele><time>2026-03-28T09:19:41.999Z</time></trkpt><trkpt lat="45.35582516416561" lon="10.730978949490261"><ele>100.0</ele><time>2026-03-28T09:19:42.999Z</time></trkpt><trkpt lat="45.355844900430604" lon="10.731123206474052"><ele>101.0</ele><time>2026-03-28T09:19:43.999Z</time></trkpt><trkpt lat="45.35586793253106" lon="10.731238183010134"><ele>102.0</ele><time>2026-03-28T09:19:44.999Z</time></trkpt><trkpt lat="45.3558859387293" lon="10.731332131757638"><ele>102.0</ele><time>2026-03-28T09:19:45.999Z</time></trkpt><trkpt lat="45.355919552662755" lon="10.731490880416743"><ele>102.0</ele><time>2026-03-28T09:19:47.999Z</time></trkpt><trkpt lat="45.355917198139714" lon="10.731617950790683"><ele>102.0</ele><time>2026-03-28T09:19:49.999Z</time></trkpt><trkpt lat="45.35585919644748" lon="10.731788696988703"><ele>102.0</ele><time>2026-03-28T09:19:51.999Z</time></trkpt><trkpt lat="45.35582092538965" lon="10.731900749042474"><ele>102.0</ele><time>2026-03-28T09:19:52.999Z</time></trkpt><trkpt lat="45.35577319310979" lon="10.732020739383739"><ele>100.6</ele><time>2026-03-28T09:19:53.999Z</time></trkpt><trkpt lat="45.35571610853801" lon="10.732147485268426"><ele>99.19999999999999</ele><time>2026-03-28T09:19:54.999Z</time></trkpt><trkpt lat="45.35565720827118" lon="10.732270974026905"><ele>97.8</ele><time>2026-03-28T09:19:55.999Z</time></trkpt><trkpt lat="45.35559812816036" lon="10.732393281847434"><ele>96.4</ele><time>2026-03-28T09:19:56.999Z</time></trkpt><trkpt lat="45.35554769682798" lon="10.732497684858103"><ele>95.0</ele><time>2026-03-28T09:19:57.999Z</time></trkpt><trkpt lat="45.35550283433841" lon="10.732588385364494"><ele>95.0</ele><time>2026-03-28T09:19:58.999Z</time></trkpt><trkpt lat="45.355456783641365" lon="10.732673256813403"><ele>95.0</ele><time>2026-03-28T09:19:59.999Z</time></trkpt><trkpt lat="45.35540952679129" lon="10.732756724114317"><ele>95.0</ele><time>2026-03-28T09:20:00.999Z</time></trkpt><trkpt lat="45.355384747002674" lon="10.732854281359407"><ele>95.0</ele><time>2026-03-28T09:20:01.999Z</time></trkpt><trkpt lat="45.35531557915044" lon="10.733018721007625"><ele>95.0</ele><time>2026-03-28T09:20:03.999Z</time></trkpt><trkpt lat="45.35526419855533" lon="10.733099004725588"><ele>95.0</ele><time>2026-03-28T09:20:04.999Z</time></trkpt><trkpt lat="45.35523936063957" lon="10.733201629418893"><ele>94.85714285714286</ele><time>2026-03-28T09:20:05.999Z</time></trkpt><trkpt lat="45.355208795971855" lon="10.733286915815704"><ele>94.71428571428572</ele><time>2026-03-28T09:20:06.999Z</time></trkpt><trkpt lat="45.35517306229597" lon="10.73337800017525"><ele>94.57142857142857</ele><time>2026-03-28T09:20:08.999Z</time></trkpt><trkpt lat="45.355131508387586" lon="10.73344787182948"><ele>94.42857142857143</ele><time>2026-03-28T09:20:10.998Z</time></trkpt><trkpt lat="45.35510507689287" lon="10.733539123269237"><ele>94.28571428571428</ele><time>2026-03-28T09:20:13.998Z</time></trkpt><trkpt lat="45.35507435351889" lon="10.733639321035218"><ele>94.14285714285714</ele><time>2026-03-28T09:20:17.998Z</time></trkpt><trkpt lat="45.355044624155354" lon="10.733727152129726"><ele>94.0</ele><time>2026-03-28T09:20:21.998Z</time></trkpt><trkpt lat="45.35500532812402" lon="10.733830414723103"><ele>93.80000000000001</ele><time>2026-03-28T09:20:24.998Z</time></trkpt><trkpt lat="45.35496507668456" lon="10.73392853599231"><ele>93.60000000000001</ele><time>2026-03-28T09:20:26.998Z</time></trkpt><trkpt lat="45.354911576258736" lon="10.734052573722701"><ele>93.4</ele><time>2026-03-28T09:20:28.998Z</time></trkpt><trkpt lat="45.354861546590854" lon="10.73415454350004"><ele>93.2</ele><time>2026-03-28T09:20:30.998Z</time></trkpt><trkpt lat="45.354815928950835" lon="10.73423593598524"><ele>93.0</ele><time>2026-03-28T09:20:33.998Z</time></trkpt><trkpt lat="45.3550123705233" lon="10.734371331715403"><ele>93.0</ele><time>2026-03-28T09:20:36.998Z</time></trkpt><trkpt lat="45.35508400751465" lon="10.73435803129928"><ele>93.0</ele><time>2026-03-28T09:20:38Z</time></trkpt><trkpt lat="45.35516118886483" lon="10.734378145993183"><ele>93.0</ele><time>2026-03-28T09:20:39Z</time></trkpt><trkpt lat="45.355241108802396" lon="10.734412387257853"><ele>93.0</ele><time>2026-03-28T09:20:40Z</time></trkpt><trkpt lat="45.35531590156479" lon="10.734440100020521"><ele>93.0</ele><time>2026-03-28T09:20:41Z</time></trkpt><trkpt lat="45.3553860023694" lon="10.734467967798416"><ele>93.0</ele><time>2026-03-28T09:20:42Z</time></trkpt><trkpt lat="45.35545200616274" lon="10.734501390413516"><ele>93.2</ele><time>2026-03-28T09:20:43Z</time></trkpt><trkpt lat="45.355525437516576" lon="10.734522869427922"><ele>93.4</ele><time>2026-03-28T09:20:44Z</time></trkpt><trkpt lat="45.35560989928842" lon="10.734552006505647"><ele>93.60000000000001</ele><time>2026-03-28T09:20:45Z</time></trkpt><trkpt lat="45.355705665746775" lon="10.7345981146292"><ele>93.80000000000001</ele><time>2026-03-28T09:20:46Z</time></trkpt><trkpt lat="45.35580668577318" lon="10.734647473504594"><ele>94.0</ele><time>2026-03-28T09:20:47Z</time></trkpt><trkpt lat="45.35589785012191" lon="10.734719962860973"><ele>94.0</ele><time>2026-03-28T09:20:48Z</time></trkpt><trkpt lat="45.35599001538656" lon="10.734762551151919"><ele>94.0</ele><time>2026-03-28T09:20:49Z</time></trkpt><trkpt lat="45.35607516079232" lon="10.734812287713018"><ele>94.0</ele><time>2026-03-28T09:20:50Z</time></trkpt><trkpt lat="45.35617838330222" lon="10.73486141668227"><ele>94.0</ele><time>2026-03-28T09:20:51Z</time></trkpt><trkpt lat="45.35629249688674" lon="10.73489519149424"><ele>94.0</ele><time>2026-03-28T09:20:52Z</time></trkpt><trkpt lat="45.356407733720545" lon="10.734938868992819"><ele>93.75</ele><time>2026-03-28T09:20:53Z</time></trkpt><trkpt lat="45.35651935701425" lon="10.734974768929893"><ele>93.5</ele><time>2026-03-28T09:20:54Z</time></trkpt><trkpt lat="45.356634642973255" lon="10.735007295449458"><ele>93.25</ele><time>2026-03-28T09:20:55Z</time></trkpt><trkpt lat="45.35675573858611" lon="10.73502000015239"><ele>93.0</ele><time>2026-03-28T09:20:56Z</time></trkpt><trkpt lat="45.35687127138678" lon="10.735043473869847"><ele>93.0</ele><time>2026-03-28T09:20:57Z</time></trkpt><trkpt lat="45.35699497256995" lon="10.73504181972939"><ele>93.0</ele><time>2026-03-28T09:20:58Z</time></trkpt><trkpt lat="45.357092346324144" lon="10.735046854531483"><ele>93.0</ele><time>2026-03-28T09:20:59Z</time></trkpt><trkpt lat="45.3571914436984" lon="10.735028179666793"><ele>93.0</ele><time>2026-03-28T09:21:00Z</time></trkpt><trkpt lat="45.35728528797654" lon="10.735012664575915"><ele>93.0</ele><time>2026-03-28T09:21:01Z</time></trkpt><trkpt lat="45.35735928801085" lon="10.734995419937508"><ele>93.0</ele><time>2026-03-28T09:21:02Z</time></trkpt><trkpt lat="45.35742835920279" lon="10.734975498516745"><ele>93.0</ele><time>2026-03-28T09:21:03Z</time></trkpt><trkpt lat="45.35750426002287" lon="10.734968362699572"><ele>93.0</ele><time>2026-03-28T09:21:04Z</time></trkpt><trkpt lat="45.35758065814844" lon="10.73495521067457"><ele>93.0</ele><time>2026-03-28T09:21:05Z</time></trkpt><trkpt lat="45.35771149919849" lon="10.734925622904855"><ele>93.0</ele><time>2026-03-28T09:21:07Z</time></trkpt><trkpt lat="45.357779492101436" lon="10.734923626836624"><ele>93.0</ele><time>2026-03-28T09:21:08Z</time></trkpt><trkpt lat="45.35784918084822" lon="10.734923317279346"><ele>93.0</ele><time>2026-03-28T09:21:09Z</time></trkpt><trkpt lat="45.35792003381819" lon="10.73490485926578"><ele>93.0</ele><time>2026-03-28T09:21:10.999Z</time></trkpt><trkpt lat="45.35800954574936" lon="10.734901706013165"><ele>93.0</ele><time>2026-03-28T09:21:18.999Z</time></trkpt><trkpt lat="45.35808674229587" lon="10.734895184168964"><ele>93.0</ele><time>2026-03-28T09:21:19.999Z</time></trkpt><trkpt lat="45.35818248941986" lon="10.734890802674574"><ele>93.0</ele><time>2026-03-28T09:21:20.999Z</time></trkpt><trkpt lat="45.35829941630969" lon="10.734895221474162"><ele>94.0</ele><time>2026-03-28T09:21:21.999Z</time></trkpt><trkpt lat="45.35843153924156" lon="10.734907511484433"><ele>95.0</ele><time>2026-03-28T09:21:22.999Z</time></trkpt><trkpt lat="45.35858586331634" lon="10.734919780922688"><ele>96.0</ele><time>2026-03-28T09:21:23.999Z</time></trkpt><trkpt lat="45.358770311339846" lon="10.734943180034893"><ele>96.33333333333334</ele><time>2026-03-28T09:21:24.999Z</time></trkpt><trkpt lat="45.35894353532147" lon="10.73496020449953"><ele>96.66666666666667</ele><time>2026-03-28T09:21:25.999Z</time></trkpt><trkpt lat="45.35909685415649" lon="10.734987068736999"><ele>97.0</ele><time>2026-03-28T09:21:26.999Z</time></trkpt><trkpt lat="45.35925714375095" lon="10.735014355436842"><ele>97.0</ele><time>2026-03-28T09:21:27.999Z</time></trkpt><trkpt lat="45.359412030401366" lon="10.735036060657173"><ele>97.0</ele><time>2026-03-28T09:21:28.999Z</time></trkpt><trkpt lat="45.35957080022941" lon="10.7350588374882"><ele>97.0</ele><time>2026-03-28T09:21:29.999Z</time></trkpt><trkpt lat="45.359725671707984" lon="10.735081628931718"><ele>96.75</ele><time>2026-03-28T09:21:30.999Z</time></trkpt><trkpt lat="45.359878205664515" lon="10.73511140950376"><ele>96.5</ele><time>2026-03-28T09:21:31.999Z</time></trkpt><trkpt lat="45.360023814511514" lon="10.735129071430581"><ele>96.25</ele><time>2026-03-28T09:21:32.999Z</time></trkpt><trkpt lat="45.36016299206461" lon="10.735143701754629"><ele>96.0</ele><time>2026-03-28T09:21:33.999Z</time></trkpt><trkpt lat="45.360298847660715" lon="10.735165559089928"><ele>96.0</ele><time>2026-03-28T09:21:34.999Z</time></trkpt><trkpt lat="45.36041264648665" lon="10.735185684872102"><ele>96.0</ele><time>2026-03-28T09:21:35.999Z</time></trkpt><trkpt lat="45.36050843518265" lon="10.735203975137436"><ele>96.0</ele><time>2026-03-28T09:21:36.999Z</time></trkpt><trkpt lat="45.36059102665179" lon="10.735217162439808"><ele>96.0</ele><time>2026-03-28T09:21:37.999Z</time></trkpt><trkpt lat="45.36066278952837" lon="10.735265899698797"><ele>96.0</ele><time>2026-03-28T09:21:39.999Z</time></trkpt><trkpt lat="45.360618137117065" lon="10.735361974218897"><ele>96.0</ele><time>2026-03-28T09:21:41.999Z</time></trkpt><trkpt lat="45.36048620549911" lon="10.735406661450819"><ele>96.0</ele><time>2026-03-28T09:21:43.999Z</time></trkpt><trkpt lat="45.36041191770971" lon="10.735127388772266"><ele>96.0</ele><time>2026-03-28T09:21:44.999Z</time></trkpt><trkpt lat="45.360338186354696" lon="10.73511637788268"><ele>96.0</ele><time>2026-03-28T09:21:45.999Z</time></trkpt><trkpt lat="45.36027445117046" lon="10.735106899035717"><ele>96.0</ele><time>2026-03-28T09:21:49.999Z</time></trkpt><trkpt lat="45.36013225639215" lon="10.735077648004431"><ele>96.0</ele><time>2026-03-28T09:21:51.999Z</time></trkpt><trkpt lat="45.360026320224684" lon="10.735084260600491"><ele>96.0</ele><time>2026-03-28T09:21:52.999Z</time></trkpt><trkpt lat="45.359950748569965" lon="10.735059362234432"><ele>96.0</ele><time>2026-03-28T09:21:53.999Z</time></trkpt><trkpt lat="45.35991150934983" lon="10.735229480837187"><ele>95.5</ele><time>2026-03-28T09:21:55.999Z</time></trkpt><trkpt lat="45.359911797907834" lon="10.73536983591507"><ele>95.0</ele><time>2026-03-28T09:21:56.999Z</time></trkpt><trkpt lat="45.35991001171108" lon="10.735563828950156"><ele>94.5</ele><time>2026-03-28T09:21:57.999Z</time></trkpt><trkpt lat="45.35989751710529" lon="10.735813239623015"><ele>94.0</ele><time>2026-03-28T09:21:58.999Z</time></trkpt><trkpt lat="45.35987557033242" lon="10.736100234251584"><ele>94.0</ele><time>2026-03-28T09:21:59.999Z</time></trkpt><trkpt lat="45.35985155254199" lon="10.736420666371071"><ele>94.0</ele><time>2026-03-28T09:22:00.999Z</time></trkpt><trkpt lat="45.359824365192566" lon="10.736719146844765"><ele>94.0</ele><time>2026-03-28T09:22:01.999Z</time></trkpt><trkpt lat="45.35979948234774" lon="10.736974452551385"><ele>94.0</ele><time>2026-03-28T09:22:02.999Z</time></trkpt><trkpt lat="45.35978141548768" lon="10.737204395770938"><ele>94.0</ele><time>2026-03-28T09:22:03.999Z</time></trkpt><trkpt lat="45.359764742849514" lon="10.737416161347074"><ele>94.0</ele><time>2026-03-28T09:22:04.999Z</time></trkpt><trkpt lat="45.35974592270703" lon="10.737615836149342"><ele>93.75</ele><time>2026-03-28T09:22:05.999Z</time></trkpt><trkpt lat="45.35972971994522" lon="10.737795458642312"><ele>93.5</ele><time>2026-03-28T09:22:06.999Z</time></trkpt><trkpt lat="45.35971415030009" lon="10.737958325269958"><ele>93.25</ele><time>2026-03-28T09:22:07.999Z</time></trkpt><trkpt lat="45.359696397361354" lon="10.738117437611384"><ele>93.0</ele><time>2026-03-28T09:22:08.999Z</time></trkpt><trkpt lat="45.35969369137971" lon="10.738289374841035"><ele>93.0</ele><time>2026-03-28T09:22:09.999Z</time></trkpt><trkpt lat="45.359725988901786" lon="10.73848508698358"><ele>93.0</ele><time>2026-03-28T09:22:10.999Z</time></trkpt><trkpt lat="45.35978899389091" lon="10.738705971026599"><ele>93.0</ele><time>2026-03-28T09:22:11.999Z</time></trkpt><trkpt lat="45.35983452333759" lon="10.738897694103551"><ele>93.0</ele><time>2026-03-28T09:22:12.998Z</time></trkpt><trkpt lat="45.35985002360384" lon="10.739035306367471"><ele>93.0</ele><time>2026-03-28T09:22:13.998Z</time></trkpt><trkpt lat="45.359857914551036" lon="10.73913943148309"><ele>93.0</ele><time>2026-03-28T09:22:14.998Z</time></trkpt><trkpt lat="45.359859835615396" lon="10.73923056128623"><ele>93.0</ele><time>2026-03-28T09:22:15.998Z</time></trkpt><trkpt lat="45.35997366732508" lon="10.739268043409936"><ele>93.0</ele><time>2026-03-28T09:22:16.998Z</time></trkpt><trkpt lat="45.36009047194387" lon="10.739318039941658"><ele>93.33333333333333</ele><time>2026-03-28T09:22:17.998Z</time></trkpt><trkpt lat="45.36023896501131" lon="10.73938636324819"><ele>93.66666666666666</ele><time>2026-03-28T09:22:18.998Z</time></trkpt><trkpt lat="45.36039993953193" lon="10.739490013076075"><ele>94.0</ele><time>2026-03-28T09:22:19.998Z</time></trkpt><trkpt lat="45.36056284916571" lon="10.739604362074475"><ele>94.5</ele><time>2026-03-28T09:22:20.998Z</time></trkpt><trkpt lat="45.360714696935275" lon="10.739696139468997"><ele>95.0</ele><time>2026-03-28T09:22:21.998Z</time></trkpt><trkpt lat="45.360828010987056" lon="10.739753396984002"><ele>95.5</ele><time>2026-03-28T09:22:22.998Z</time></trkpt><trkpt lat="45.360901938265634" lon="10.739749759696826"><ele>96.0</ele><time>2026-03-28T09:22:23.998Z</time></trkpt><trkpt lat="45.36093405336013" lon="10.73989943221763"><ele>96.0</ele><time>2026-03-28T09:22:24.998Z</time></trkpt><trkpt lat="45.360963612970195" lon="10.739988637700005"><ele>96.0</ele><time>2026-03-28T09:22:25.998Z</time></trkpt><trkpt lat="45.36099958087621" lon="10.7400991740967"><ele>96.0</ele><time>2026-03-28T09:22:26.998Z</time></trkpt><trkpt lat="45.36103005171083" lon="10.74018880028949"><ele>96.0</ele><time>2026-03-28T09:22:27.998Z</time></trkpt><trkpt lat="45.36108447018328" lon="10.740317045780644"><ele>96.0</ele><time>2026-03-28T09:22:29.998Z</time></trkpt><trkpt lat="45.36115038815307" lon="10.740455347078301"><ele>96.0</ele><time>2026-03-28T09:22:31.998Z</time></trkpt><trkpt lat="45.3612079065149" lon="10.74059205761542"><ele>96.0</ele><time>2026-03-28T09:22:33.998Z</time></trkpt><trkpt lat="45.36124152013241" lon="10.740679221650767"><ele>96.0</ele><time>2026-03-28T09:22:34.998Z</time></trkpt><trkpt lat="45.3612787477294" lon="10.740772841047363"><ele>96.0</ele><time>2026-03-28T09:22:35.998Z</time></trkpt><trkpt lat="45.36132035807504" lon="10.740873211382509"><ele>96.0</ele><time>2026-03-28T09:22:36.998Z</time></trkpt><trkpt lat="45.36136561566268" lon="10.740975851164807"><ele>96.0</ele><time>2026-03-28T09:22:37.998Z</time></trkpt><trkpt lat="45.36141063973276" lon="10.741094151185209"><ele>96.0</ele><time>2026-03-28T09:22:38.998Z</time></trkpt><trkpt lat="45.36146126176903" lon="10.741239362992584"><ele>95.0</ele><time>2026-03-28T09:22:39.998Z</time></trkpt><trkpt lat="45.361517653199314" lon="10.741400912555568"><ele>94.0</ele><time>2026-03-28T09:22:40.998Z</time></trkpt><trkpt lat="45.3615721250328" lon="10.741586465674896"><ele>93.0</ele><time>2026-03-28T09:22:41.998Z</time></trkpt><trkpt lat="45.36162651014813" lon="10.74178396953541"><ele>92.0</ele><time>2026-03-28T09:22:42.998Z</time></trkpt><trkpt lat="45.361681990429034" lon="10.74199273586111"><ele>92.0</ele><time>2026-03-28T09:22:44Z</time></trkpt><trkpt lat="45.36174285060684" lon="10.742214240727343"><ele>92.0</ele><time>2026-03-28T09:22:45Z</time></trkpt><trkpt lat="45.361813852915716" lon="10.742446664336702"><ele>92.0</ele><time>2026-03-28T09:22:46Z</time></trkpt><trkpt lat="45.36188391857069" lon="10.742684729879286"><ele>92.0</ele><time>2026-03-28T09:22:47Z</time></trkpt><trkpt lat="45.3619557368356" lon="10.742935472005925"><ele>92.0</ele><time>2026-03-28T09:22:48Z</time></trkpt><trkpt lat="45.362025831496055" lon="10.743182354391793"><ele>92.0</ele><time>2026-03-28T09:22:49Z</time></trkpt><trkpt lat="45.36209980998773" lon="10.743433788869318"><ele>91.66666666666667</ele><time>2026-03-28T09:22:50Z</time></trkpt><trkpt lat="45.362177481816346" lon="10.743688513906443"><ele>91.33333333333333</ele><time>2026-03-28T09:22:51Z</time></trkpt><trkpt lat="45.362262467322125" lon="10.743949206191337"><ele>91.0</ele><time>2026-03-28T09:22:52Z</time></trkpt><trkpt lat="45.36234802801055" lon="10.74421594851312"><ele>91.66666666666666</ele><time>2026-03-28T09:22:53Z</time></trkpt><trkpt lat="45.36243689607625" lon="10.744489707069164"><ele>92.33333333333333</ele><time>2026-03-28T09:22:54Z</time></trkpt><trkpt lat="45.36252934760257" lon="10.74476926237762"><ele>93.0</ele><time>2026-03-28T09:22:55Z</time></trkpt><trkpt lat="45.362600459408654" lon="10.745055594192241"><ele>93.0</ele><time>2026-03-28T09:22:56Z</time></trkpt><trkpt lat="45.36269362153744" lon="10.745331455325065"><ele>93.0</ele><time>2026-03-28T09:22:57Z</time></trkpt><trkpt lat="45.36275884476738" lon="10.745611600375018"><ele>93.0</ele><time>2026-03-28T09:22:58Z</time></trkpt><trkpt lat="45.36285138409587" lon="10.745874373752557"><ele>92.66666666666667</ele><time>2026-03-28T09:22:59Z</time></trkpt><trkpt lat="45.36292986718459" lon="10.746134893164509"><ele>92.33333333333334</ele><time>2026-03-28T09:23:00Z</time></trkpt><trkpt lat="45.363010413649334" lon="10.746389238580141"><ele>92.0</ele><time>2026-03-28T09:23:01Z</time></trkpt><trkpt lat="45.36310330189317" lon="10.746630351390822"><ele>92.0</ele><time>2026-03-28T09:23:02Z</time></trkpt><trkpt lat="45.36320803082339" lon="10.746863204690747"><ele>92.0</ele><time>2026-03-28T09:23:03Z</time></trkpt><trkpt lat="45.36331735112499" lon="10.747092140148661"><ele>92.0</ele><time>2026-03-28T09:23:04Z</time></trkpt><trkpt lat="45.36343620400792" lon="10.747309380994768"><ele>92.0</ele><time>2026-03-28T09:23:05Z</time></trkpt><trkpt lat="45.36356281413375" lon="10.747516034199515"><ele>92.0</ele><time>2026-03-28T09:23:06Z</time></trkpt><trkpt lat="45.36368833790816" lon="10.747722123020152"><ele>92.0</ele><time>2026-03-28T09:23:07Z</time></trkpt><trkpt lat="45.363804693757984" lon="10.747942635586334"><ele>92.33333333333334</ele><time>2026-03-28T09:23:08Z</time></trkpt><trkpt lat="45.36391130268266" lon="10.748176462321634"><ele>92.66666666666667</ele><time>2026-03-28T09:23:09Z</time></trkpt><trkpt lat="45.36401187355344" lon="10.748419590505986"><ele>93.0</ele><time>2026-03-28T09:23:10Z</time></trkpt><trkpt lat="45.36411149303657" lon="10.74866576886264"><ele>93.0</ele><time>2026-03-28T09:23:11Z</time></trkpt><trkpt lat="45.3642119381073" lon="10.748907610956566"><ele>93.0</ele><time>2026-03-28T09:23:12Z</time></trkpt><trkpt lat="45.364317402860706" lon="10.749157139657017"><ele>93.0</ele><time>2026-03-28T09:23:13Z</time></trkpt><trkpt lat="45.36442034098729" lon="10.749404783200971"><ele>93.0</ele><time>2026-03-28T09:23:14Z</time></trkpt><trkpt lat="45.364524262686615" lon="10.74965714944654"><ele>93.0</ele><time>2026-03-28T09:23:15Z</time></trkpt><trkpt lat="45.36462787516273" lon="10.749905570249553"><ele>93.0</ele><time>2026-03-28T09:23:16Z</time></trkpt><trkpt lat="45.364730940560804" lon="10.75016266916722"><ele>94.0</ele><time>2026-03-28T09:23:17Z</time></trkpt><trkpt lat="45.36483587412001" lon="10.750411261527363"><ele>95.0</ele><time>2026-03-28T09:23:18Z</time></trkpt><trkpt lat="45.364955029579626" lon="10.750660537576467"><ele>96.0</ele><time>2026-03-28T09:23:19Z</time></trkpt><trkpt lat="45.36507642944969" lon="10.750902584535853"><ele>95.33333333333333</ele><time>2026-03-28T09:23:20Z</time></trkpt><trkpt lat="45.365196081398665" lon="10.751146474411826"><ele>94.66666666666666</ele><time>2026-03-28T09:23:21Z</time></trkpt><trkpt lat="45.365317317377006" lon="10.751387529068763"><ele>94.0</ele><time>2026-03-28T09:23:22Z</time></trkpt><trkpt lat="45.36543547678519" lon="10.751627366829284"><ele>94.0</ele><time>2026-03-28T09:23:22.999Z</time></trkpt><trkpt lat="45.36555915027519" lon="10.751860097025453"><ele>94.0</ele><time>2026-03-28T09:23:23.999Z</time></trkpt><trkpt lat="45.365684189019426" lon="10.752090160665793"><ele>94.0</ele><time>2026-03-28T09:23:24.999Z</time></trkpt><trkpt lat="45.36580528921389" lon="10.752331317367235"><ele>94.0</ele><time>2026-03-28T09:23:25.999Z</time></trkpt><trkpt lat="45.36591841522199" lon="10.752576729615448"><ele>94.0</ele><time>2026-03-28T09:23:26.999Z</time></trkpt><trkpt lat="45.36602345058315" lon="10.752833188211225"><ele>94.0</ele><time>2026-03-28T09:23:27.999Z</time></trkpt><trkpt lat="45.36612721992019" lon="10.753090621126233"><ele>94.0</ele><time>2026-03-28T09:23:28.999Z</time></trkpt><trkpt lat="45.36623292074316" lon="10.753350407545115"><ele>94.0</ele><time>2026-03-28T09:23:29.999Z</time></trkpt><trkpt lat="45.36632833683485" lon="10.753620224737636"><ele>94.0</ele><time>2026-03-28T09:23:30.999Z</time></trkpt><trkpt lat="45.36642808261942" lon="10.753881200028038"><ele>93.66666666666666</ele><time>2026-03-28T09:23:31.999Z</time></trkpt><trkpt lat="45.366514511633866" lon="10.754146295637451"><ele>93.33333333333333</ele><time>2026-03-28T09:23:32.999Z</time></trkpt><trkpt lat="45.366596006476904" lon="10.754396802245603"><ele>93.0</ele><time>2026-03-28T09:23:33.999Z</time></trkpt><trkpt lat="45.36668672910877" lon="10.754629865124198"><ele>93.33333333333333</ele><time>2026-03-28T09:23:34.999Z</time></trkpt><trkpt lat="45.36678256615811" lon="10.754842103340419"><ele>93.66666666666666</ele><time>2026-03-28T09:23:35.999Z</time></trkpt><trkpt lat="45.36687559464107" lon="10.755039975199796"><ele>94.0</ele><time>2026-03-28T09:23:36.999Z</time></trkpt><trkpt lat="45.366962941416" lon="10.755227180645303"><ele>94.0</ele><time>2026-03-28T09:23:37.999Z</time></trkpt><trkpt lat="45.367044849430016" lon="10.755377356246166"><ele>94.0</ele><time>2026-03-28T09:23:38.999Z</time></trkpt><trkpt lat="45.367128470388266" lon="10.755519718268946"><ele>94.0</ele><time>2026-03-28T09:23:39.999Z</time></trkpt><trkpt lat="45.36718696146489" lon="10.7556807955778"><ele>94.0</ele><time>2026-03-28T09:23:40.999Z</time></trkpt><trkpt lat="45.36726564144973" lon="10.755843327320957"><ele>93.75</ele><time>2026-03-28T09:23:41.999Z</time></trkpt><trkpt lat="45.36736022019351" lon="10.75600400082558"><ele>93.5</ele><time>2026-03-28T09:23:42.999Z</time></trkpt><trkpt lat="45.36743034481739" lon="10.756184500998136"><ele>93.25</ele><time>2026-03-28T09:23:43.999Z</time></trkpt><trkpt lat="45.36750196894471" lon="10.756354017359108"><ele>93.0</ele><time>2026-03-28T09:23:44.999Z</time></trkpt><trkpt lat="45.367580236044844" lon="10.756524763243785"><ele>93.5</ele><time>2026-03-28T09:23:45.999Z</time></trkpt><trkpt lat="45.36766704079836" lon="10.756682718481741"><ele>94.0</ele><time>2026-03-28T09:23:46.999Z</time></trkpt><trkpt lat="45.36774290594252" lon="10.756827512460806"><ele>94.5</ele><time>2026-03-28T09:23:47.999Z</time></trkpt><trkpt lat="45.36779938474764" lon="10.756976719121269"><ele>95.0</ele><time>2026-03-28T09:23:48.999Z</time></trkpt><trkpt lat="45.36783274137354" lon="10.757137113154373"><ele>95.25</ele><time>2026-03-28T09:23:49.999Z</time></trkpt><trkpt lat="45.36785163047938" lon="10.757315441216118"><ele>95.5</ele><time>2026-03-28T09:23:50.999Z</time></trkpt><trkpt lat="45.367865967230856" lon="10.757503955779647"><ele>95.75</ele><time>2026-03-28T09:23:51.999Z</time></trkpt><trkpt lat="45.36788984839835" lon="10.757697649091487"><ele>96.0</ele><time>2026-03-28T09:23:52.999Z</time></trkpt><trkpt lat="45.36791335382134" lon="10.757901016951875"><ele>96.33333333333334</ele><time>2026-03-28T09:23:53.999Z</time></trkpt><trkpt lat="45.3679440382454" lon="10.75810418231086"><ele>96.66666666666667</ele><time>2026-03-28T09:23:54.999Z</time></trkpt><trkpt lat="45.367982069857085" lon="10.758310678943513"><ele>97.0</ele><time>2026-03-28T09:23:55.999Z</time></trkpt><trkpt lat="45.36802294842362" lon="10.758524085894559"><ele>98.0</ele><time>2026-03-28T09:23:56.999Z</time></trkpt><trkpt lat="45.368067092560615" lon="10.758740276300196"><ele>99.0</ele><time>2026-03-28T09:23:57.999Z</time></trkpt><trkpt lat="45.36809590068039" lon="10.758956667288667"><ele>100.0</ele><time>2026-03-28T09:23:58.999Z</time></trkpt><trkpt lat="45.36813113756369" lon="10.759189796689386"><ele>99.0</ele><time>2026-03-28T09:23:59.999Z</time></trkpt><trkpt lat="45.36815997770233" lon="10.759401233329255"><ele>98.0</ele><time>2026-03-28T09:24:00.999Z</time></trkpt><trkpt lat="45.36818671751921" lon="10.759621689780165"><ele>97.0</ele><time>2026-03-28T09:24:01.999Z</time></trkpt><trkpt lat="45.36822726227056" lon="10.759850438447733"><ele>97.0</ele><time>2026-03-28T09:24:02.999Z</time></trkpt><trkpt lat="45.368264184780344" lon="10.760076134011001"><ele>97.0</ele><time>2026-03-28T09:24:03.999Z</time></trkpt><trkpt lat="45.36829814561599" lon="10.760303428880324"><ele>97.0</ele><time>2026-03-28T09:24:04.999Z</time></trkpt><trkpt lat="45.36834385599596" lon="10.760517873772613"><ele>97.0</ele><time>2026-03-28T09:24:05.999Z</time></trkpt><trkpt lat="45.36838930768627" lon="10.760726918115255"><ele>97.0</ele><time>2026-03-28T09:24:06.999Z</time></trkpt><trkpt lat="45.368447309041755" lon="10.76092060425172"><ele>97.0</ele><time>2026-03-28T09:24:07.999Z</time></trkpt><trkpt lat="45.36849765558479" lon="10.761094135715142"><ele>97.0</ele><time>2026-03-28T09:24:08.999Z</time></trkpt><trkpt lat="45.368558206625096" lon="10.761281784228018"><ele>97.0</ele><time>2026-03-28T09:24:09.999Z</time></trkpt><trkpt lat="45.368635718372495" lon="10.761485332400817"><ele>97.0</ele><time>2026-03-28T09:24:10.999Z</time></trkpt><trkpt lat="45.368705299247225" lon="10.761700639291092"><ele>97.0</ele><time>2026-03-28T09:24:11.999Z</time></trkpt><trkpt lat="45.3687729288118" lon="10.761905722689335"><ele>97.0</ele><time>2026-03-28T09:24:12.999Z</time></trkpt><trkpt lat="45.368838876341115" lon="10.762096907586342"><ele>97.0</ele><time>2026-03-28T09:24:13.999Z</time></trkpt><trkpt lat="45.368899909735795" lon="10.762295843553042"><ele>97.0</ele><time>2026-03-28T09:24:14.999Z</time></trkpt><trkpt lat="45.368960870159555" lon="10.762497410943046"><ele>96.66666666666667</ele><time>2026-03-28T09:24:15.999Z</time></trkpt><trkpt lat="45.36901808034263" lon="10.762701186115798"><ele>96.33333333333334</ele><time>2026-03-28T09:24:16.999Z</time></trkpt><trkpt lat="45.36907490407093" lon="10.762897313820377"><ele>96.0</ele><time>2026-03-28T09:24:17.999Z</time></trkpt><trkpt lat="45.36912791314783" lon="10.763098802887999"><ele>96.0</ele><time>2026-03-28T09:24:18.999Z</time></trkpt><trkpt lat="45.369184175856255" lon="10.763304895753267"><ele>96.0</ele><time>2026-03-28T09:24:19.999Z</time></trkpt><trkpt lat="45.36923138746771" lon="10.763506055092698"><ele>96.0</ele><time>2026-03-28T09:24:20.999Z</time></trkpt><trkpt lat="45.369270820848264" lon="10.763712909940887"><ele>96.33333333333334</ele><time>2026-03-28T09:24:21.999Z</time></trkpt><trkpt lat="45.36925639200195" lon="10.763926611101201"><ele>96.66666666666667</ele><time>2026-03-28T09:24:22.999Z</time></trkpt><trkpt lat="45.36922947367049" lon="10.76414461986556"><ele>97.0</ele><time>2026-03-28T09:24:23.999Z</time></trkpt><trkpt lat="45.36921548541038" lon="10.764363026751203"><ele>97.0</ele><time>2026-03-28T09:24:24.999Z</time></trkpt><trkpt lat="45.36920192790019" lon="10.764602115613453"><ele>97.0</ele><time>2026-03-28T09:24:25.999Z</time></trkpt><trkpt lat="45.369218264041216" lon="10.764823962958591"><ele>97.0</ele><time>2026-03-28T09:24:26.999Z</time></trkpt><trkpt lat="45.36921269756092" lon="10.765037562128766"><ele>97.0</ele><time>2026-03-28T09:24:27.999Z</time></trkpt><trkpt lat="45.369209662240586" lon="10.765221577483235"><ele>97.0</ele><time>2026-03-28T09:24:28.999Z</time></trkpt><trkpt lat="45.3692776118346" lon="10.765365603671581"><ele>97.0</ele><time>2026-03-28T09:24:29.998Z</time></trkpt><trkpt lat="45.36930380495273" lon="10.765472406238459"><ele>97.0</ele><time>2026-03-28T09:24:30.998Z</time></trkpt><trkpt lat="45.369317251679426" lon="10.76556096523966"><ele>97.0</ele><time>2026-03-28T09:24:31.998Z</time></trkpt><trkpt lat="45.369341990966575" lon="10.765656685266254"><ele>97.00000000000001</ele><time>2026-03-28T09:24:32.998Z</time></trkpt><trkpt lat="45.36935779987782" lon="10.765754739355657"><ele>97.0</ele><time>2026-03-28T09:24:34.998Z</time></trkpt><trkpt lat="45.36931741491275" lon="10.765585557433218"><ele>97.0</ele><time>2026-03-28T09:24:38.998Z</time></trkpt><trkpt lat="45.36930503342963" lon="10.76548708408687"><ele>97.0</ele><time>2026-03-28T09:24:39.998Z</time></trkpt><trkpt lat="45.369278499785224" lon="10.765386970030814"><ele>97.00000000000001</ele><time>2026-03-28T09:24:40.998Z</time></trkpt><trkpt lat="45.3692214135198" lon="10.765297130349666"><ele>97.0</ele><time>2026-03-28T09:24:42.998Z</time></trkpt><trkpt lat="45.36915872824101" lon="10.765387635979206"><ele>97.0</ele><time>2026-03-28T09:24:44.998Z</time></trkpt><trkpt lat="45.369133389901265" lon="10.765479890639643"><ele>97.0</ele><time>2026-03-28T09:24:45.998Z</time></trkpt><trkpt lat="45.36907676925388" lon="10.765592240988932"><ele>97.0</ele><time>2026-03-28T09:24:46.998Z</time></trkpt><trkpt lat="45.369016685096966" lon="10.765742242363228"><ele>97.0</ele><time>2026-03-28T09:24:47.998Z</time></trkpt><trkpt lat="45.36894793956079" lon="10.765921048650524"><ele>97.0</ele><time>2026-03-28T09:24:49Z</time></trkpt><trkpt lat="45.36887612252852" lon="10.766113543844941"><ele>95.66666666666667</ele><time>2026-03-28T09:24:50Z</time></trkpt><trkpt lat="45.368799828495746" lon="10.766329180176625"><ele>94.33333333333334</ele><time>2026-03-28T09:24:51Z</time></trkpt><trkpt lat="45.36873908441807" lon="10.766565705249219"><ele>93.0</ele><time>2026-03-28T09:24:52Z</time></trkpt><trkpt lat="45.36865281099557" lon="10.766792115990812"><ele>93.0</ele><time>2026-03-28T09:24:53Z</time></trkpt><trkpt lat="45.368581728773115" lon="10.767036125915784"><ele>93.0</ele><time>2026-03-28T09:24:54Z</time></trkpt><trkpt lat="45.36851858520675" lon="10.767282129033472"><ele>93.0</ele><time>2026-03-28T09:24:55Z</time></trkpt><trkpt lat="45.36846098816523" lon="10.767544680677439"><ele>93.0</ele><time>2026-03-28T09:24:56Z</time></trkpt><trkpt lat="45.36840980042438" lon="10.767802691991793"><ele>93.0</ele><time>2026-03-28T09:24:57Z</time></trkpt><trkpt lat="45.36836691264066" lon="10.76806433610375"><ele>93.0</ele><time>2026-03-28T09:24:58Z</time></trkpt><trkpt lat="45.36835343702822" lon="10.76832349524933"><ele>93.33333333333333</ele><time>2026-03-28T09:24:59Z</time></trkpt><trkpt lat="45.368319140129955" lon="10.768602772992027"><ele>93.66666666666666</ele><time>2026-03-28T09:25:00Z</time></trkpt><trkpt lat="45.36829551904847" lon="10.768854582717418"><ele>94.0</ele><time>2026-03-28T09:25:01Z</time></trkpt><trkpt lat="45.368273109982965" lon="10.769104916874104"><ele>94.0</ele><time>2026-03-28T09:25:02Z</time></trkpt><trkpt lat="45.368254837713756" lon="10.76933360797997"><ele>94.0</ele><time>2026-03-28T09:25:03Z</time></trkpt><trkpt lat="45.368243987863686" lon="10.769577029916837"><ele>94.0</ele><time>2026-03-28T09:25:04Z</time></trkpt><trkpt lat="45.368253854999644" lon="10.769835722554632"><ele>94.33333333333333</ele><time>2026-03-28T09:25:05Z</time></trkpt><trkpt lat="45.368265521978806" lon="10.770084333894387"><ele>94.66666666666667</ele><time>2026-03-28T09:25:06Z</time></trkpt><trkpt lat="45.368266633999454" lon="10.770336992935377"><ele>95.0</ele><time>2026-03-28T09:25:07Z</time></trkpt><trkpt lat="45.36824376321829" lon="10.77058932554562"><ele>95.0</ele><time>2026-03-28T09:25:08Z</time></trkpt><trkpt lat="45.36820576080037" lon="10.770846838027092"><ele>95.0</ele><time>2026-03-28T09:25:09Z</time></trkpt><trkpt lat="45.36816901179394" lon="10.771086285422546"><ele>95.0</ele><time>2026-03-28T09:25:10Z</time></trkpt><trkpt lat="45.368130399320826" lon="10.77131117733666"><ele>95.66666666666667</ele><time>2026-03-28T09:25:11Z</time></trkpt><trkpt lat="45.36807235272394" lon="10.771530770746008"><ele>96.33333333333334</ele><time>2026-03-28T09:25:12Z</time></trkpt><trkpt lat="45.36799030874961" lon="10.771764377576288"><ele>97.0</ele><time>2026-03-28T09:25:13Z</time></trkpt><trkpt lat="45.36792511871985" lon="10.772000653398404"><ele>95.33333333333334</ele><time>2026-03-28T09:25:14Z</time></trkpt><trkpt lat="45.36787164546052" lon="10.77224152398609"><ele>93.66666666666667</ele><time>2026-03-28T09:25:15Z</time></trkpt><trkpt lat="45.3678269045501" lon="10.772483861416703"><ele>92.0</ele><time>2026-03-28T09:25:16Z</time></trkpt><trkpt lat="45.36779161929462" lon="10.772735940415798"><ele>91.66666666666667</ele><time>2026-03-28T09:25:17Z</time></trkpt><trkpt lat="45.36776192418211" lon="10.772977786070403"><ele>91.33333333333333</ele><time>2026-03-28T09:25:18Z</time></trkpt><trkpt lat="45.36773160435384" lon="10.773216890318347"><ele>91.0</ele><time>2026-03-28T09:25:19Z</time></trkpt><trkpt lat="45.36770196716451" lon="10.773444860659513"><ele>92.0</ele><time>2026-03-28T09:25:20Z</time></trkpt><trkpt lat="45.36767322300202" lon="10.77367967212498"><ele>93.0</ele><time>2026-03-28T09:25:21Z</time></trkpt><trkpt lat="45.367648256817915" lon="10.773893628166494"><ele>94.0</ele><time>2026-03-28T09:25:22Z</time></trkpt><trkpt lat="45.36762357055181" lon="10.77411339481916"><ele>94.0</ele><time>2026-03-28T09:25:23Z</time></trkpt><trkpt lat="45.36759811512093" lon="10.774346115809662"><ele>94.0</ele><time>2026-03-28T09:25:24Z</time></trkpt><trkpt lat="45.367574541633154" lon="10.774579391969958"><ele>94.0</ele><time>2026-03-28T09:25:25Z</time></trkpt><trkpt lat="45.367554341086155" lon="10.774803595622105"><ele>94.0</ele><time>2026-03-28T09:25:26Z</time></trkpt><trkpt lat="45.367534631934184" lon="10.775026747408301"><ele>94.0</ele><time>2026-03-28T09:25:27Z</time></trkpt><trkpt lat="45.367515086063484" lon="10.775244482557095"><ele>94.0</ele><time>2026-03-28T09:25:28Z</time></trkpt><trkpt lat="45.36749418721051" lon="10.775465261915743"><ele>94.0</ele><time>2026-03-28T09:25:29Z</time></trkpt><trkpt lat="45.36747360341926" lon="10.775682712893452"><ele>94.0</ele><time>2026-03-28T09:25:30Z</time></trkpt><trkpt lat="45.36745390353824" lon="10.77589082664869"><ele>94.0</ele><time>2026-03-28T09:25:31Z</time></trkpt><trkpt lat="45.36743610442117" lon="10.776086095782826"><ele>94.0</ele><time>2026-03-28T09:25:32Z</time></trkpt><trkpt lat="45.3674192790532" lon="10.776269754474246"><ele>94.25</ele><time>2026-03-28T09:25:33Z</time></trkpt><trkpt lat="45.36740426971863" lon="10.776451708034037"><ele>94.5</ele><time>2026-03-28T09:25:33.999Z</time></trkpt><trkpt lat="45.3673944630699" lon="10.776670704494556"><ele>94.75</ele><time>2026-03-28T09:25:34.999Z</time></trkpt><trkpt lat="45.36740494497572" lon="10.776903635671468"><ele>95.0</ele><time>2026-03-28T09:25:35.999Z</time></trkpt><trkpt lat="45.36740673783558" lon="10.777141884245363"><ele>94.33333333333334</ele><time>2026-03-28T09:25:36.999Z</time></trkpt><trkpt lat="45.367419812839614" lon="10.77737333539497"><ele>93.66666666666667</ele><time>2026-03-28T09:25:37.999Z</time></trkpt><trkpt lat="45.36744432040179" lon="10.777612412071045"><ele>93.0</ele><time>2026-03-28T09:25:38.999Z</time></trkpt><trkpt lat="45.36747493826923" lon="10.77783356230575"><ele>92.25</ele><time>2026-03-28T09:25:39.999Z</time></trkpt><trkpt lat="45.367500913898546" lon="10.778040427697933"><ele>91.5</ele><time>2026-03-28T09:25:40.999Z</time></trkpt><trkpt lat="45.367516252010994" lon="10.778231856254239"><ele>90.75</ele><time>2026-03-28T09:25:41.999Z</time></trkpt><trkpt lat="45.367483101326634" lon="10.778430927288955"><ele>90.0</ele><time>2026-03-28T09:25:42.999Z</time></trkpt><trkpt lat="45.36743527002297" lon="10.778618997895636"><ele>89.33333333333333</ele><time>2026-03-28T09:25:43.999Z</time></trkpt><trkpt lat="45.367388486538076" lon="10.778820080457775"><ele>88.66666666666666</ele><time>2026-03-28T09:25:44.999Z</time></trkpt><trkpt lat="45.367336755604796" lon="10.779034533377022"><ele>88.0</ele><time>2026-03-28T09:25:45.999Z</time></trkpt><trkpt lat="45.36728816756503" lon="10.779227653595404"><ele>87.83333333333333</ele><time>2026-03-28T09:25:46.999Z</time></trkpt><trkpt lat="45.36724559829988" lon="10.77938362429036"><ele>87.66666666666666</ele><time>2026-03-28T09:25:47.999Z</time></trkpt><trkpt lat="45.367226452820915" lon="10.779506118081713"><ele>87.5</ele><time>2026-03-28T09:25:48.999Z</time></trkpt><trkpt lat="45.36724391967971" lon="10.779636811629183"><ele>87.33333333333333</ele><time>2026-03-28T09:25:50.999Z</time></trkpt><trkpt lat="45.36730702838278" lon="10.779667349430424"><ele>87.16666666666667</ele><time>2026-03-28T09:25:51.999Z</time></trkpt><trkpt lat="45.367372909877695" lon="10.779689067039527"><ele>87.0</ele><time>2026-03-28T09:25:52.999Z</time></trkpt><trkpt lat="45.367460578588805" lon="10.779693644532927"><ele>87.0</ele><time>2026-03-28T09:25:53.999Z</time></trkpt><trkpt lat="45.367582198450066" lon="10.779702451788982"><ele>87.0</ele><time>2026-03-28T09:25:54.999Z</time></trkpt><trkpt lat="45.36771044440446" lon="10.779750622738428"><ele>87.0</ele><time>2026-03-28T09:25:55.999Z</time></trkpt><trkpt lat="45.3678572654001" lon="10.779810766309371"><ele>87.0</ele><time>2026-03-28T09:25:56.999Z</time></trkpt><trkpt lat="45.3680137909565" lon="10.7798903770668"><ele>88.33333333333333</ele><time>2026-03-28T09:25:57.999Z</time></trkpt><trkpt lat="45.368183345476545" lon="10.779956662260082"><ele>89.66666666666666</ele><time>2026-03-28T09:25:58.999Z</time></trkpt><trkpt lat="45.368358601347104" lon="10.7800125864568"><ele>91.0</ele><time>2026-03-28T09:25:59.999Z</time></trkpt><trkpt lat="45.368553089194606" lon="10.780106906057567"><ele>91.0</ele><time>2026-03-28T09:26:00.999Z</time></trkpt><trkpt lat="45.368761633799956" lon="10.780179632563355"><ele>91.0</ele><time>2026-03-28T09:26:01.999Z</time></trkpt><trkpt lat="45.368983620345446" lon="10.780263231755388"><ele>91.0</ele><time>2026-03-28T09:26:02.999Z</time></trkpt><trkpt lat="45.36919066092437" lon="10.780347900161814"><ele>91.33333333333333</ele><time>2026-03-28T09:26:03.999Z</time></trkpt><trkpt lat="45.36936465625938" lon="10.78041831944175"><ele>91.66666666666667</ele><time>2026-03-28T09:26:04.999Z</time></trkpt><trkpt lat="45.36953006489272" lon="10.780494354305825"><ele>92.0</ele><time>2026-03-28T09:26:05.999Z</time></trkpt><trkpt lat="45.369694358680086" lon="10.78057185676155"><ele>93.0</ele><time>2026-03-28T09:26:06.999Z</time></trkpt><trkpt lat="45.369840271512984" lon="10.780657338481394"><ele>94.0</ele><time>2026-03-28T09:26:07.999Z</time></trkpt><trkpt lat="45.36996979914594" lon="10.780753826317103"><ele>95.0</ele><time>2026-03-28T09:26:08.999Z</time></trkpt><trkpt lat="45.37006998219696" lon="10.78085924152692"><ele>96.0</ele><time>2026-03-28T09:26:09.999Z</time></trkpt><trkpt lat="45.37015118228298" lon="10.780984738121777"><ele>95.19999999999999</ele><time>2026-03-28T09:26:10.999Z</time></trkpt><trkpt lat="45.370209882246584" lon="10.781113235987174"><ele>94.39999999999999</ele><time>2026-03-28T09:26:11.999Z</time></trkpt><trkpt lat="45.37026981641755" lon="10.781229902601426"><ele>93.6</ele><time>2026-03-28T09:26:12.999Z</time></trkpt><trkpt lat="45.370348050429016" lon="10.781322010419984"><ele>92.8</ele><time>2026-03-28T09:26:13.999Z</time></trkpt><trkpt lat="45.37045741393648" lon="10.781352872077758"><ele>92.0</ele><time>2026-03-28T09:26:14.999Z</time></trkpt><trkpt lat="45.37059012447238" lon="10.781393731520282"><ele>91.5</ele><time>2026-03-28T09:26:15.999Z</time></trkpt><trkpt lat="45.370735837175786" lon="10.781413171329257"><ele>91.0</ele><time>2026-03-28T09:26:16.999Z</time></trkpt><trkpt lat="45.370860062082656" lon="10.781484033236676"><ele>90.5</ele><time>2026-03-28T09:26:17.999Z</time></trkpt><trkpt lat="45.37097086115342" lon="10.78155218237867"><ele>90.0</ele><time>2026-03-28T09:26:18.999Z</time></trkpt><trkpt lat="45.371079929908426" lon="10.781633480361068"><ele>90.0</ele><time>2026-03-28T09:26:19.999Z</time></trkpt><trkpt lat="45.37117514282912" lon="10.781752686784156"><ele>90.0</ele><time>2026-03-28T09:26:20.999Z</time></trkpt><trkpt lat="45.3712730049378" lon="10.78184092326007"><ele>90.0</ele><time>2026-03-28T09:26:21.999Z</time></trkpt><trkpt lat="45.37134590556194" lon="10.781943786739914"><ele>90.0</ele><time>2026-03-28T09:26:22.999Z</time></trkpt><trkpt lat="45.3714321002645" lon="10.782042537101866"><ele>89.25</ele><time>2026-03-28T09:26:23.999Z</time></trkpt><trkpt lat="45.37154022074433" lon="10.782141760441226"><ele>88.5</ele><time>2026-03-28T09:26:24.999Z</time></trkpt><trkpt lat="45.371654424762234" lon="10.78221461295484"><ele>87.75</ele><time>2026-03-28T09:26:25.999Z</time></trkpt><trkpt lat="45.371761454124936" lon="10.782301840397208"><ele>87.0</ele><time>2026-03-28T09:26:26.999Z</time></trkpt><trkpt lat="45.37186101747485" lon="10.782388242338076"><ele>87.0</ele><time>2026-03-28T09:26:27.999Z</time></trkpt><trkpt lat="45.37196219995877" lon="10.78246070139569"><ele>87.0</ele><time>2026-03-28T09:26:28.999Z</time></trkpt><trkpt lat="45.37204629093118" lon="10.782573776757264"><ele>87.0</ele><time>2026-03-28T09:26:29.999Z</time></trkpt><trkpt lat="45.372145101823115" lon="10.782679311604218"><ele>87.0</ele><time>2026-03-28T09:26:30.999Z</time></trkpt><trkpt lat="45.37224632515666" lon="10.782800849345207"><ele>85.25</ele><time>2026-03-28T09:26:31.999Z</time></trkpt><trkpt lat="45.37234832526154" lon="10.782927863903828"><ele>83.5</ele><time>2026-03-28T09:26:32.999Z</time></trkpt><trkpt lat="45.372460099132184" lon="10.783060972240797"><ele>81.75</ele><time>2026-03-28T09:26:33.999Z</time></trkpt><trkpt lat="45.37255951375517" lon="10.783193378762016"><ele>80.0</ele><time>2026-03-28T09:26:34.999Z</time></trkpt><trkpt lat="45.37266433284243" lon="10.78331305583714"><ele>80.0</ele><time>2026-03-28T09:26:35.999Z</time></trkpt><trkpt lat="45.37278080762993" lon="10.783432400766934"><ele>80.0</ele><time>2026-03-28T09:26:36.999Z</time></trkpt><trkpt lat="45.37289985664997" lon="10.783536417754366"><ele>80.0</ele><time>2026-03-28T09:26:37.999Z</time></trkpt><trkpt lat="45.373017633433044" lon="10.78362266187173"><ele>80.0</ele><time>2026-03-28T09:26:38.999Z</time></trkpt><trkpt lat="45.37313434413626" lon="10.783696512359874"><ele>77.5</ele><time>2026-03-28T09:26:39.999Z</time></trkpt><trkpt lat="45.373264951230254" lon="10.783738989849645"><ele>75.0</ele><time>2026-03-28T09:26:40.998Z</time></trkpt><trkpt lat="45.373416874559545" lon="10.783762681104886"><ele>72.5</ele><time>2026-03-28T09:26:41.998Z</time></trkpt><trkpt lat="45.37357379903416" lon="10.783758066202466"><ele>70.0</ele><time>2026-03-28T09:26:42.998Z</time></trkpt><trkpt lat="45.37372756518139" lon="10.78375707985523"><ele>70.0</ele><time>2026-03-28T09:26:43.998Z</time></trkpt><trkpt lat="45.37387080644149" lon="10.78376670168135"><ele>70.0</ele><time>2026-03-28T09:26:44.998Z</time></trkpt><trkpt lat="45.37400235586579" lon="10.783782288525027"><ele>70.0</ele><time>2026-03-28T09:26:45.998Z</time></trkpt><trkpt lat="45.37411555529399" lon="10.783800262920808"><ele>70.0</ele><time>2026-03-28T09:26:46.998Z</time></trkpt><trkpt lat="45.37421436898442" lon="10.78382049319462"><ele>70.0</ele><time>2026-03-28T09:26:47.998Z</time></trkpt><trkpt lat="45.374302480344795" lon="10.783834722007457"><ele>70.0</ele><time>2026-03-28T09:26:48.998Z</time></trkpt><trkpt lat="45.37436881833769" lon="10.783835766287641"><ele>70.0</ele><time>2026-03-28T09:26:49.998Z</time></trkpt><trkpt lat="45.3744757401416" lon="10.783838327315964"><ele>70.0</ele><time>2026-03-28T09:26:51.998Z</time></trkpt><trkpt lat="45.37457702243009" lon="10.7837228279843"><ele>70.0</ele><time>2026-03-28T09:26:53.998Z</time></trkpt><trkpt lat="45.374649215421286" lon="10.783599875421906"><ele>70.25</ele><time>2026-03-28T09:26:55Z</time></trkpt><trkpt lat="45.37474148223007" lon="10.783454540283003"><ele>70.5</ele><time>2026-03-28T09:26:56Z</time></trkpt><trkpt lat="45.37485103722466" lon="10.78331003526802"><ele>70.75</ele><time>2026-03-28T09:26:57Z</time></trkpt><trkpt lat="45.37498206385415" lon="10.783173937257832"><ele>71.0</ele><time>2026-03-28T09:26:58Z</time></trkpt><trkpt lat="45.37513524054191" lon="10.78307588182787"><ele>71.0</ele><time>2026-03-28T09:26:59Z</time></trkpt><trkpt lat="45.375307150460166" lon="10.783024424769605"><ele>71.0</ele><time>2026-03-28T09:27:00Z</time></trkpt><trkpt lat="45.375479801413675" lon="10.7829932619962"><ele>71.0</ele><time>2026-03-28T09:27:01Z</time></trkpt><trkpt lat="45.375632292606724" lon="10.782949676825355"><ele>70.5</ele><time>2026-03-28T09:27:02Z</time></trkpt><trkpt lat="45.375772434539186" lon="10.78289655143964"><ele>70.0</ele><time>2026-03-28T09:27:03Z</time></trkpt><trkpt lat="45.37590768554508" lon="10.782823591037557"><ele>69.5</ele><time>2026-03-28T09:27:04Z</time></trkpt><trkpt lat="45.37603822081894" lon="10.78271673496655"><ele>69.0</ele><time>2026-03-28T09:27:05Z</time></trkpt><trkpt lat="45.37615808302255" lon="10.78258689791212"><ele>69.33333333333333</ele><time>2026-03-28T09:27:06Z</time></trkpt><trkpt lat="45.37626124439157" lon="10.782421591887907"><ele>69.66666666666666</ele><time>2026-03-28T09:27:07Z</time></trkpt><trkpt lat="45.376356265033955" lon="10.782233077431542"><ele>70.0</ele><time>2026-03-28T09:27:08Z</time></trkpt><trkpt lat="45.37644685138233" lon="10.782036732305318"><ele>71.33333333333333</ele><time>2026-03-28T09:27:09Z</time></trkpt><trkpt lat="45.37653942713707" lon="10.78183433940186"><ele>72.66666666666667</ele><time>2026-03-28T09:27:10Z</time></trkpt><trkpt lat="45.37663073204634" lon="10.781633629052198"><ele>74.0</ele><time>2026-03-28T09:27:11Z</time></trkpt><trkpt lat="45.37671689844573" lon="10.781426644535482"><ele>74.0</ele><time>2026-03-28T09:27:12Z</time></trkpt><trkpt lat="45.376785518846376" lon="10.781206110449682"><ele>74.0</ele><time>2026-03-28T09:27:13Z</time></trkpt><trkpt lat="45.37685350333321" lon="10.780970688089425"><ele>74.0</ele><time>2026-03-28T09:27:14Z</time></trkpt><trkpt lat="45.376905491633416" lon="10.780726496138376"><ele>74.66666666666667</ele><time>2026-03-28T09:27:15Z</time></trkpt><trkpt lat="45.376964762729536" lon="10.780479683975123"><ele>75.33333333333333</ele><time>2026-03-28T09:27:16Z</time></trkpt><trkpt lat="45.376990231596814" lon="10.780226298046252"><ele>76.0</ele><time>2026-03-28T09:27:17Z</time></trkpt><trkpt lat="45.37702822986394" lon="10.77997371699125"><ele>76.33333333333333</ele><time>2026-03-28T09:27:18Z</time></trkpt><trkpt lat="45.37707437851877" lon="10.779724574728373"><ele>76.66666666666667</ele><time>2026-03-28T09:27:19Z</time></trkpt><trkpt lat="45.377126411923186" lon="10.779478934412127"><ele>77.0</ele><time>2026-03-28T09:27:20Z</time></trkpt><trkpt lat="45.37718722049951" lon="10.77923680877887"><ele>77.0</ele><time>2026-03-28T09:27:21Z</time></trkpt><trkpt lat="45.377251264662725" lon="10.779002729065274"><ele>77.0</ele><time>2026-03-28T09:27:22Z</time></trkpt><trkpt lat="45.37733582553762" lon="10.778765557803851"><ele>77.0</ele><time>2026-03-28T09:27:23Z</time></trkpt><trkpt lat="45.37740823329068" lon="10.778529568112843"><ele>77.66666666666667</ele><time>2026-03-28T09:27:24Z</time></trkpt><trkpt lat="45.37746377771785" lon="10.778297277825127"><ele>78.33333333333333</ele><time>2026-03-28T09:27:25Z</time></trkpt><trkpt lat="45.377535871209474" lon="10.778091328677833"><ele>79.0</ele><time>2026-03-28T09:27:26Z</time></trkpt><trkpt lat="45.37762396952034" lon="10.777891591126329"><ele>79.0</ele><time>2026-03-28T09:27:27Z</time></trkpt><trkpt lat="45.37770854506642" lon="10.777714943270064"><ele>79.0</ele><time>2026-03-28T09:27:28Z</time></trkpt><trkpt lat="45.37778770778739" lon="10.777551649967705"><ele>79.0</ele><time>2026-03-28T09:27:29Z</time></trkpt><trkpt lat="45.37785973747886" lon="10.777406939955997"><ele>79.0</ele><time>2026-03-28T09:27:30Z</time></trkpt><trkpt lat="45.377924330171645" lon="10.777281281168635"><ele>78.2</ele><time>2026-03-28T09:27:31Z</time></trkpt><trkpt lat="45.37800055505405" lon="10.777188716512574"><ele>77.4</ele><time>2026-03-28T09:27:32Z</time></trkpt><trkpt lat="45.378088977231634" lon="10.777145363605241"><ele>76.6</ele><time>2026-03-28T09:27:33Z</time></trkpt><trkpt lat="45.37819546189606" lon="10.777147724459885"><ele>75.8</ele><time>2026-03-28T09:27:34Z</time></trkpt><trkpt lat="45.37831515227758" lon="10.777202559675937"><ele>75.0</ele><time>2026-03-28T09:27:35Z</time></trkpt><trkpt lat="45.378423011529094" lon="10.777292155952658"><ele>75.0</ele><time>2026-03-28T09:27:36Z</time></trkpt><trkpt lat="45.37852571604853" lon="10.777379445219909"><ele>75.0</ele><time>2026-03-28T09:27:36.999Z</time></trkpt><trkpt lat="45.37862551255813" lon="10.777430901295824"><ele>75.0</ele><time>2026-03-28T09:27:37.999Z</time></trkpt><trkpt lat="45.378738978133505" lon="10.777437881723765"><ele>75.0</ele><time>2026-03-28T09:27:38.999Z</time></trkpt><trkpt lat="45.37886577666764" lon="10.777394932768743"><ele>74.33333333333333</ele><time>2026-03-28T09:27:39.999Z</time></trkpt><trkpt lat="45.37899594326406" lon="10.777309938870726"><ele>73.66666666666666</ele><time>2026-03-28T09:27:40.999Z</time></trkpt><trkpt lat="45.37912759080926" lon="10.777207333040241"><ele>73.0</ele><time>2026-03-28T09:27:41.999Z</time></trkpt><trkpt lat="45.37927444402361" lon="10.77710656585943"><ele>73.0</ele><time>2026-03-28T09:27:42.999Z</time></trkpt><trkpt lat="45.37943140207847" lon="10.777011186139013"><ele>73.0</ele><time>2026-03-28T09:27:43.999Z</time></trkpt><trkpt lat="45.379591532820186" lon="10.776905221980385"><ele>73.0</ele><time>2026-03-28T09:27:44.999Z</time></trkpt><trkpt lat="45.37975703674692" lon="10.776776665473793"><ele>74.33333333333333</ele><time>2026-03-28T09:27:45.999Z</time></trkpt><trkpt lat="45.37992467162483" lon="10.776630410263637"><ele>75.66666666666667</ele><time>2026-03-28T09:27:46.999Z</time></trkpt><trkpt lat="45.38010009245603" lon="10.776493059836312"><ele>77.0</ele><time>2026-03-28T09:27:47.999Z</time></trkpt><trkpt lat="45.38028375481208" lon="10.776370260418476"><ele>77.0</ele><time>2026-03-28T09:27:48.999Z</time></trkpt><trkpt lat="45.38047252326721" lon="10.776274099153502"><ele>77.0</ele><time>2026-03-28T09:27:49.999Z</time></trkpt><trkpt lat="45.38065286101144" lon="10.776195660319502"><ele>77.0</ele><time>2026-03-28T09:27:50.999Z</time></trkpt><trkpt lat="45.38083382474973" lon="10.77611509023131"><ele>76.66666666666667</ele><time>2026-03-28T09:27:51.999Z</time></trkpt><trkpt lat="45.38100467839881" lon="10.776036350433873"><ele>76.33333333333333</ele><time>2026-03-28T09:27:52.999Z</time></trkpt><trkpt lat="45.38117708106076" lon="10.775947652207131"><ele>76.0</ele><time>2026-03-28T09:27:53.999Z</time></trkpt><trkpt lat="45.381348973731896" lon="10.7758534785209"><ele>77.0</ele><time>2026-03-28T09:27:54.999Z</time></trkpt><trkpt lat="45.38150920022964" lon="10.775750634581868"><ele>78.0</ele><time>2026-03-28T09:27:55.999Z</time></trkpt><trkpt lat="45.38164933116304" lon="10.77565710529288"><ele>79.0</ele><time>2026-03-28T09:27:56.999Z</time></trkpt><trkpt lat="45.38177245272451" lon="10.775576148550527"><ele>79.0</ele><time>2026-03-28T09:27:57.999Z</time></trkpt><trkpt lat="45.38186624113291" lon="10.775499404519097"><ele>79.0</ele><time>2026-03-28T09:27:58.999Z</time></trkpt><trkpt lat="45.3819421168406" lon="10.775415559210828"><ele>79.0</ele><time>2026-03-28T09:27:59.999Z</time></trkpt><trkpt lat="45.38198384473043" lon="10.775313778374503"><ele>79.0</ele><time>2026-03-28T09:28:00.999Z</time></trkpt><trkpt lat="45.38197634985239" lon="10.775186975311128"><ele>79.0</ele><time>2026-03-28T09:28:01.999Z</time></trkpt><trkpt lat="45.38193476407157" lon="10.775029468242248"><ele>80.5</ele><time>2026-03-28T09:28:02.999Z</time></trkpt><trkpt lat="45.381867020475184" lon="10.7748726962041"><ele>82.0</ele><time>2026-03-28T09:28:03.999Z</time></trkpt><trkpt lat="45.381799495999324" lon="10.774699662880439"><ele>83.5</ele><time>2026-03-28T09:28:04.999Z</time></trkpt><trkpt lat="45.381739387982016" lon="10.774509251728448"><ele>85.0</ele><time>2026-03-28T09:28:05.999Z</time></trkpt><trkpt lat="45.38169410625017" lon="10.77430663519179"><ele>87.5</ele><time>2026-03-28T09:28:06.999Z</time></trkpt><trkpt lat="45.381676963329134" lon="10.774098775479759"><ele>90.0</ele><time>2026-03-28T09:28:07.999Z</time></trkpt><trkpt lat="45.381690226326626" lon="10.773889320546527"><ele>92.5</ele><time>2026-03-28T09:28:08.999Z</time></trkpt><trkpt lat="45.38170032823141" lon="10.773670867613431"><ele>95.0</ele><time>2026-03-28T09:28:09.999Z</time></trkpt><trkpt lat="45.38168869477632" lon="10.773459495250645"><ele>96.0</ele><time>2026-03-28T09:28:10.999Z</time></trkpt><trkpt lat="45.38168568333042" lon="10.773260402856208"><ele>97.0</ele><time>2026-03-28T09:28:11.999Z</time></trkpt><trkpt lat="45.38169867647562" lon="10.77309343692663"><ele>98.0</ele><time>2026-03-28T09:28:12.999Z</time></trkpt><trkpt lat="45.38170428301533" lon="10.77291203865747"><ele>99.0</ele><time>2026-03-28T09:28:13.999Z</time></trkpt><trkpt lat="45.38176937016491" lon="10.77273604770877"><ele>99.33333333333334</ele><time>2026-03-28T09:28:14.999Z</time></trkpt><trkpt lat="45.38182022415315" lon="10.772549277489148"><ele>99.66666666666667</ele><time>2026-03-28T09:28:15.999Z</time></trkpt><trkpt lat="45.38188034059197" lon="10.772353982036577"><ele>100.0</ele><time>2026-03-28T09:28:16.999Z</time></trkpt><trkpt lat="45.38194377223691" lon="10.772126466067792"><ele>100.0</ele><time>2026-03-28T09:28:17.999Z</time></trkpt><trkpt lat="45.38200957868257" lon="10.771921737747547"><ele>100.0</ele><time>2026-03-28T09:28:18.999Z</time></trkpt><trkpt lat="45.38208652783989" lon="10.771701798996025"><ele>100.0</ele><time>2026-03-28T09:28:19.999Z</time></trkpt><trkpt lat="45.382164350797595" lon="10.771495104061026"><ele>102.25</ele><time>2026-03-28T09:28:20.999Z</time></trkpt><trkpt lat="45.38225192605849" lon="10.77130657732955"><ele>104.5</ele><time>2026-03-28T09:28:21.999Z</time></trkpt><trkpt lat="45.382344734214854" lon="10.771151423367304"><ele>106.75</ele><time>2026-03-28T09:28:22.999Z</time></trkpt><trkpt lat="45.38243077913614" lon="10.771015455819109"><ele>109.0</ele><time>2026-03-28T09:28:23.999Z</time></trkpt><trkpt lat="45.3825166256579" lon="10.770892915273114"><ele>109.2</ele><time>2026-03-28T09:28:24.999Z</time></trkpt><trkpt lat="45.382603341903895" lon="10.77077659778096"><ele>109.4</ele><time>2026-03-28T09:28:25.999Z</time></trkpt><trkpt lat="45.3826761218663" lon="10.770661348390496"><ele>109.6</ele><time>2026-03-28T09:28:26.999Z</time></trkpt><trkpt lat="45.38272960812245" lon="10.77056661152913"><ele>109.8</ele><time>2026-03-28T09:28:27.999Z</time></trkpt><trkpt lat="45.382758495220905" lon="10.770486473574714"><ele>110.0</ele><time>2026-03-28T09:28:29.999Z</time></trkpt><trkpt lat="45.38288550143543" lon="10.770704531220742"><ele>110.0</ele><time>2026-03-28T09:28:32.999Z</time></trkpt><trkpt lat="45.382944488438255" lon="10.770818480186673"><ele>110.0</ele><time>2026-03-28T09:28:33.999Z</time></trkpt><trkpt lat="45.383013408186706" lon="10.77094961271376"><ele>110.0</ele><time>2026-03-28T09:28:34.999Z</time></trkpt><trkpt lat="45.38309162688793" lon="10.771107392610016"><ele>110.0</ele><time>2026-03-28T09:28:35.999Z</time></trkpt><trkpt lat="45.38318027396141" lon="10.771262758660646"><ele>111.0</ele><time>2026-03-28T09:28:36.999Z</time></trkpt><trkpt lat="45.383282357255126" lon="10.771428896375161"><ele>112.0</ele><time>2026-03-28T09:28:37.999Z</time></trkpt><trkpt lat="45.383397023068774" lon="10.771598406668648"><ele>113.0</ele><time>2026-03-28T09:28:38.999Z</time></trkpt><trkpt lat="45.38353216100948" lon="10.771763922809207"><ele>112.0</ele><time>2026-03-28T09:28:39.999Z</time></trkpt><trkpt lat="45.383677904386936" lon="10.77192714096621"><ele>111.0</ele><time>2026-03-28T09:28:40.999Z</time></trkpt><trkpt lat="45.383828236770164" lon="10.772098631499544"><ele>110.0</ele><time>2026-03-28T09:28:41.999Z</time></trkpt><trkpt lat="45.38397087132665" lon="10.772252154055968"><ele>110.25</ele><time>2026-03-28T09:28:42.999Z</time></trkpt><trkpt lat="45.3841023810689" lon="10.772375910755862"><ele>110.5</ele><time>2026-03-28T09:28:43.999Z</time></trkpt><trkpt lat="45.384222624450146" lon="10.772487721056075"><ele>110.75</ele><time>2026-03-28T09:28:44.998Z</time></trkpt><trkpt lat="45.38432003131178" lon="10.772625539387816"><ele>111.0</ele><time>2026-03-28T09:28:45.998Z</time></trkpt><trkpt lat="45.38443171177082" lon="10.77273443642218"><ele>111.0</ele><time>2026-03-28T09:28:46.998Z</time></trkpt><trkpt lat="45.38453750511018" lon="10.772858737234113"><ele>111.0</ele><time>2026-03-28T09:28:47.998Z</time></trkpt><trkpt lat="45.384632403950576" lon="10.772956482522929"><ele>111.0</ele><time>2026-03-28T09:28:48.998Z</time></trkpt><trkpt lat="45.3847184469297" lon="10.773069291760269"><ele>111.0</ele><time>2026-03-28T09:28:49.998Z</time></trkpt><trkpt lat="45.38480607231685" lon="10.77316536150604"><ele>112.5</ele><time>2026-03-28T09:28:50.998Z</time></trkpt><trkpt lat="45.38489613855869" lon="10.773264107330776"><ele>114.0</ele><time>2026-03-28T09:28:51.998Z</time></trkpt><trkpt lat="45.38507934300374" lon="10.773174217422353"><ele>115.5</ele><time>2026-03-28T09:28:52.998Z</time></trkpt><trkpt lat="45.38519960648917" lon="10.773200697800695"><ele>117.0</ele><time>2026-03-28T09:28:53.998Z</time></trkpt><trkpt lat="45.38533833140445" lon="10.773212016359317"><ele>117.0</ele><time>2026-03-28T09:28:54.998Z</time></trkpt><trkpt lat="45.38545794027699" lon="10.773234855424256"><ele>117.0</ele><time>2026-03-28T09:28:55.998Z</time></trkpt><trkpt lat="45.3855647192156" lon="10.77330433575205"><ele>117.0</ele><time>2026-03-28T09:28:56.998Z</time></trkpt><trkpt lat="45.38566109812289" lon="10.773418978546607"><ele>117.0</ele><time>2026-03-28T09:28:57.998Z</time></trkpt><trkpt lat="45.38574077747998" lon="10.77354921346041"><ele>117.5</ele><time>2026-03-28T09:28:58.998Z</time></trkpt><trkpt lat="45.38583207613909" lon="10.77366376705389"><ele>118.0</ele><time>2026-03-28T09:28:59.998Z</time></trkpt><trkpt lat="45.38593528590401" lon="10.773759549599678"><ele>118.5</ele><time>2026-03-28T09:29:01Z</time></trkpt><trkpt lat="45.38605720093371" lon="10.77383823920088"><ele>119.0</ele><time>2026-03-28T09:29:02Z</time></trkpt><trkpt lat="45.386188541033064" lon="10.773930575261572"><ele>119.0</ele><time>2026-03-28T09:29:03Z</time></trkpt><trkpt lat="45.38630202032183" lon="10.774048244557575"><ele>119.0</ele><time>2026-03-28T09:29:04Z</time></trkpt><trkpt lat="45.38641485778978" lon="10.774183364473355"><ele>119.0</ele><time>2026-03-28T09:29:05Z</time></trkpt><trkpt lat="45.38652751435204" lon="10.774320552020725"><ele>119.0</ele><time>2026-03-28T09:29:06Z</time></trkpt><trkpt lat="45.38663176117671" lon="10.77444119767692"><ele>119.5</ele><time>2026-03-28T09:29:07Z</time></trkpt><trkpt lat="45.38674370223555" lon="10.77454966947795"><ele>120.0</ele><time>2026-03-28T09:29:08Z</time></trkpt><trkpt lat="45.386860326298375" lon="10.774662833964626"><ele>120.5</ele><time>2026-03-28T09:29:09Z</time></trkpt><trkpt lat="45.38694898554184" lon="10.774787657380998"><ele>121.0</ele><time>2026-03-28T09:29:10Z</time></trkpt><trkpt lat="45.38703880734323" lon="10.774950339086493"><ele>121.0</ele><time>2026-03-28T09:29:11Z</time></trkpt><trkpt lat="45.387127167053926" lon="10.775106063161099"><ele>121.0</ele><time>2026-03-28T09:29:12Z</time></trkpt><trkpt lat="45.387221796495695" lon="10.775249707943118"><ele>121.0</ele><time>2026-03-28T09:29:13Z</time></trkpt><trkpt lat="45.38733165935177" lon="10.775386364276075"><ele>121.0</ele><time>2026-03-28T09:29:14Z</time></trkpt><trkpt lat="45.38744812151273" lon="10.775525445499133"><ele>121.33333333333334</ele><time>2026-03-28T09:29:15Z</time></trkpt><trkpt lat="45.38756792019623" lon="10.775632605104173"><ele>121.66666666666666</ele><time>2026-03-28T09:29:16Z</time></trkpt><trkpt lat="45.38771311174972" lon="10.775724478651322"><ele>122.0</ele><time>2026-03-28T09:29:17Z</time></trkpt><trkpt lat="45.38785624636928" lon="10.775807964090887"><ele>122.0</ele><time>2026-03-28T09:29:18Z</time></trkpt><trkpt lat="45.38797314594412" lon="10.775940921516899"><ele>122.0</ele><time>2026-03-28T09:29:19Z</time></trkpt><trkpt lat="45.38807076646493" lon="10.776106074806128"><ele>122.0</ele><time>2026-03-28T09:29:20Z</time></trkpt><trkpt lat="45.38815866296228" lon="10.776259477240584"><ele>122.0</ele><time>2026-03-28T09:29:21Z</time></trkpt><trkpt lat="45.38825181736156" lon="10.776416343993509"><ele>121.5</ele><time>2026-03-28T09:29:22Z</time></trkpt><trkpt lat="45.3883325212798" lon="10.776576075547794"><ele>121.0</ele><time>2026-03-28T09:29:23Z</time></trkpt><trkpt lat="45.38841438175332" lon="10.77674581504639"><ele>120.5</ele><time>2026-03-28T09:29:24Z</time></trkpt><trkpt lat="45.38849233242644" lon="10.776926600559754"><ele>120.0</ele><time>2026-03-28T09:29:25Z</time></trkpt><trkpt lat="45.388552802150784" lon="10.777074873473016"><ele>117.2</ele><time>2026-03-28T09:29:26Z</time></trkpt><trkpt lat="45.38861697422894" lon="10.777203993359556"><ele>114.4</ele><time>2026-03-28T09:29:27Z</time></trkpt><trkpt lat="45.388672569387346" lon="10.777335501989892"><ele>111.6</ele><time>2026-03-28T09:29:28Z</time></trkpt><trkpt lat="45.38871933803062" lon="10.777479848116762"><ele>108.8</ele><time>2026-03-28T09:29:29Z</time></trkpt><trkpt lat="45.38874757330305" lon="10.777632225730384"><ele>106.0</ele><time>2026-03-28T09:29:30Z</time></trkpt><trkpt lat="45.3887724901652" lon="10.777785998355975"><ele>107.0</ele><time>2026-03-28T09:29:31Z</time></trkpt><trkpt lat="45.388810671356886" lon="10.777937859444378"><ele>108.0</ele><time>2026-03-28T09:29:32Z</time></trkpt><trkpt lat="45.38884565959733" lon="10.778039775028327"><ele>109.0</ele><time>2026-03-28T09:29:33Z</time></trkpt><trkpt lat="45.38894800731255" lon="10.778146828474522"><ele>110.0</ele><time>2026-03-28T09:29:35Z</time></trkpt><trkpt lat="45.38901769320816" lon="10.778165072636515"><ele>111.0</ele><time>2026-03-28T09:29:36Z</time></trkpt><trkpt lat="45.38909660590804" lon="10.778190163356612"><ele>111.0</ele><time>2026-03-28T09:29:37Z</time></trkpt><trkpt lat="45.38918618582996" lon="10.77823851992875"><ele>111.0</ele><time>2026-03-28T09:29:38Z</time></trkpt><trkpt lat="45.3892875580975" lon="10.778307409855941"><ele>111.0</ele><time>2026-03-28T09:29:39Z</time></trkpt><trkpt lat="45.38939068978891" lon="10.778375995520245"><ele>111.0</ele><time>2026-03-28T09:29:39.999Z</time></trkpt><trkpt lat="45.389499101392325" lon="10.77843582949615"><ele>111.0</ele><time>2026-03-28T09:29:40.999Z</time></trkpt><trkpt lat="45.389610404169424" lon="10.778509381562053"><ele>110.5</ele><time>2026-03-28T09:29:41.999Z</time></trkpt><trkpt lat="45.38972637055592" lon="10.778590834638957"><ele>110.0</ele><time>2026-03-28T09:29:42.999Z</time></trkpt><trkpt lat="45.38985127125101" lon="10.778669919958936"><ele>109.5</ele><time>2026-03-28T09:29:43.999Z</time></trkpt><trkpt lat="45.3899690602072" lon="10.77874918017649"><ele>109.0</ele><time>2026-03-28T09:29:44.999Z</time></trkpt><trkpt lat="45.3900845577099" lon="10.778833515050408"><ele>109.00000000000001</ele><time>2026-03-28T09:29:45.999Z</time></trkpt><trkpt lat="45.39018788033189" lon="10.778908851015803"><ele>109.0</ele><time>2026-03-28T09:29:46.999Z</time></trkpt><trkpt lat="45.39028219168694" lon="10.77897019380775"><ele>109.0</ele><time>2026-03-28T09:29:47.999Z</time></trkpt><trkpt lat="45.390352607429314" lon="10.778999065910714"><ele>109.0</ele><time>2026-03-28T09:29:48.999Z</time></trkpt><trkpt lat="45.390418759807694" lon="10.778932670320325"><ele>109.00000000000001</ele><time>2026-03-28T09:29:50.999Z</time></trkpt><trkpt lat="45.390433923419984" lon="10.778838303479093"><ele>109.0</ele><time>2026-03-28T09:29:51.999Z</time></trkpt><trkpt lat="45.39043827541751" lon="10.778721623161054"><ele>109.00000000000001</ele><time>2026-03-28T09:29:52.999Z</time></trkpt><trkpt lat="45.39045064252073" lon="10.778604432712465"><ele>109.0</ele><time>2026-03-28T09:29:53.999Z</time></trkpt><trkpt lat="45.39046985226463" lon="10.778495413701911"><ele>109.0</ele><time>2026-03-28T09:29:54.999Z</time></trkpt><trkpt lat="45.3905208110516" lon="10.778422552783303"><ele>109.0</ele><time>2026-03-28T09:29:55.999Z</time></trkpt><trkpt lat="45.3905417646733" lon="10.778324064170029"><ele>109.00000000000001</ele><time>2026-03-28T09:29:56.999Z</time></trkpt><trkpt lat="45.39056087656734" lon="10.778225578189375"><ele>109.0</ele><time>2026-03-28T09:29:57.999Z</time></trkpt><trkpt lat="45.39058181772" lon="10.778120423270355"><ele>110.00000000000001</ele><time>2026-03-28T09:29:58.999Z</time></trkpt><trkpt lat="45.39060854625576" lon="10.778021809648129"><ele>111.0</ele><time>2026-03-28T09:29:59.999Z</time></trkpt><trkpt lat="45.390659713900234" lon="10.777944023271399"><ele>112.0</ele><time>2026-03-28T09:30:00.999Z</time></trkpt><trkpt lat="45.3907338016113" lon="10.777899426148716"><ele>113.0</ele><time>2026-03-28T09:30:01.999Z</time></trkpt><trkpt lat="45.39079928278624" lon="10.777829971332041"><ele>114.00000000000001</ele><time>2026-03-28T09:30:02.999Z</time></trkpt><trkpt lat="45.39084937621352" lon="10.777743012746114"><ele>115.0</ele><time>2026-03-28T09:30:03.999Z</time></trkpt><trkpt lat="45.39091445306047" lon="10.777672091420204"><ele>115.50000000000001</ele><time>2026-03-28T09:30:04.999Z</time></trkpt><trkpt lat="45.39095955611384" lon="10.777571723963215"><ele>116.0</ele><time>2026-03-28T09:30:05.999Z</time></trkpt><trkpt lat="45.39097832598663" lon="10.777467531131736"><ele>116.5</ele><time>2026-03-28T09:30:06.999Z</time></trkpt><trkpt lat="45.39101277818978" lon="10.777392100140595"><ele>117.0</ele><time>2026-03-28T09:30:07.999Z</time></trkpt><trkpt lat="45.39101336719232" lon="10.777268851558063"><ele>117.50000000000001</ele><time>2026-03-28T09:30:08.999Z</time></trkpt><trkpt lat="45.39100831414917" lon="10.777130840847088"><ele>118.0</ele><time>2026-03-28T09:30:09.999Z</time></trkpt><trkpt lat="45.39097575544543" lon="10.777018102989933"><ele>118.0</ele><time>2026-03-28T09:30:10.999Z</time></trkpt><trkpt lat="45.390965524352964" lon="10.776880951954587"><ele>118.00000000000001</ele><time>2026-03-28T09:30:12.999Z</time></trkpt><trkpt lat="45.390917673912234" lon="10.776714928790208"><ele>118.00000000000001</ele><time>2026-03-28T09:30:14.999Z</time></trkpt><trkpt lat="45.39088075956953" lon="10.77661524522583"><ele>118.0</ele><time>2026-03-28T09:30:15.999Z</time></trkpt><trkpt lat="45.39081809971402" lon="10.776501684179143"><ele>118.0</ele><time>2026-03-28T09:30:16.999Z</time></trkpt><trkpt lat="45.39076187009285" lon="10.776433636232044"><ele>117.33333333333334</ele><time>2026-03-28T09:30:17.999Z</time></trkpt><trkpt lat="45.390708621924404" lon="10.776336239486152"><ele>116.66666666666667</ele><time>2026-03-28T09:30:18.999Z</time></trkpt><trkpt lat="45.390666209681775" lon="10.776244624353138"><ele>116.0</ele><time>2026-03-28T09:30:19.999Z</time></trkpt><trkpt lat="45.39060265110803" lon="10.776150899276457"><ele>115.33333333333334</ele><time>2026-03-28T09:30:20.999Z</time></trkpt><trkpt lat="45.390554024265" lon="10.776066018268216"><ele>114.66666666666667</ele><time>2026-03-28T09:30:21.999Z</time></trkpt><trkpt lat="45.390571227455794" lon="10.775962131535195"><ele>114.0</ele><time>2026-03-28T09:30:22.999Z</time></trkpt><trkpt lat="45.390609953816195" lon="10.775777052674776"><ele>112.5</ele><time>2026-03-28T09:30:24.999Z</time></trkpt><trkpt lat="45.39062368678155" lon="10.775682170420106"><ele>111.0</ele><time>2026-03-28T09:30:25.999Z</time></trkpt><trkpt lat="45.390629791730056" lon="10.775533973681618"><ele>109.5</ele><time>2026-03-28T09:30:26.999Z</time></trkpt><trkpt lat="45.39062751486529" lon="10.775393186020102"><ele>108.0</ele><time>2026-03-28T09:30:27.999Z</time></trkpt><trkpt lat="45.39061124779611" lon="10.775266133399636"><ele>106.5</ele><time>2026-03-28T09:30:28.999Z</time></trkpt><trkpt lat="45.39062411651804" lon="10.775147854297098"><ele>105.0</ele><time>2026-03-28T09:30:29.999Z</time></trkpt><trkpt lat="45.39061895354002" lon="10.775015700612975"><ele>104.83333333333333</ele><time>2026-03-28T09:30:30.999Z</time></trkpt><trkpt lat="45.3905966976741" lon="10.77488189816892"><ele>104.66666666666666</ele><time>2026-03-28T09:30:31.999Z</time></trkpt><trkpt lat="45.39059871020152" lon="10.774756839176217"><ele>104.5</ele><time>2026-03-28T09:30:32.999Z</time></trkpt><trkpt lat="45.390583359902685" lon="10.774628969422507"><ele>104.33333333333333</ele><time>2026-03-28T09:30:33.999Z</time></trkpt><trkpt lat="45.390561434512705" lon="10.774531620335267"><ele>104.16666666666666</ele><time>2026-03-28T09:30:34.999Z</time></trkpt><trkpt lat="45.390536336062546" lon="10.77441382770773"><ele>104.0</ele><time>2026-03-28T09:30:37.999Z</time></trkpt><trkpt lat="45.39049209938617" lon="10.77423004846542"><ele>104.66666666666666</ele><time>2026-03-28T09:30:39.999Z</time></trkpt><trkpt lat="45.39046611298151" lon="10.774125444600795"><ele>105.33333333333333</ele><time>2026-03-28T09:30:40.999Z</time></trkpt><trkpt lat="45.39043922719857" lon="10.774022993080393"><ele>106.0</ele><time>2026-03-28T09:30:41.999Z</time></trkpt><trkpt lat="45.390412275740005" lon="10.773928046004958"><ele>106.66666666666666</ele><time>2026-03-28T09:30:42.999Z</time></trkpt><trkpt lat="45.39037657793934" lon="10.773788333937192"><ele>107.33333333333333</ele><time>2026-03-28T09:30:44.999Z</time></trkpt><trkpt lat="45.39036909658294" lon="10.773686019969833"><ele>108.0</ele><time>2026-03-28T09:30:46.999Z</time></trkpt><trkpt lat="45.390412994718005" lon="10.773595159614258"><ele>106.60000000000001</ele><time>2026-03-28T09:30:49.999Z</time></trkpt><trkpt lat="45.39054212820925" lon="10.773550650743742"><ele>105.20000000000002</ele><time>2026-03-28T09:30:51.998Z</time></trkpt><trkpt lat="45.39062364930665" lon="10.773519872801018"><ele>103.8</ele><time>2026-03-28T09:30:52.998Z</time></trkpt><trkpt lat="45.39070054955894" lon="10.773480039094837"><ele>102.4</ele><time>2026-03-28T09:30:53.998Z</time></trkpt><trkpt lat="45.39078722743554" lon="10.773419126037648"><ele>101.0</ele><time>2026-03-28T09:30:54.998Z</time></trkpt><trkpt lat="45.39088682918552" lon="10.7733752033017"><ele>100.25</ele><time>2026-03-28T09:30:55.998Z</time></trkpt><trkpt lat="45.3909872613812" lon="10.77329005972689"><ele>99.5</ele><time>2026-03-28T09:30:56.998Z</time></trkpt><trkpt lat="45.39109767375933" lon="10.773225951890575"><ele>98.75</ele><time>2026-03-28T09:30:57.998Z</time></trkpt><trkpt lat="45.39120084985191" lon="10.77313592162954"><ele>98.0</ele><time>2026-03-28T09:30:58.998Z</time></trkpt><trkpt lat="45.39130024042415" lon="10.77303701388938"><ele>96.25</ele><time>2026-03-28T09:30:59.998Z</time></trkpt><trkpt lat="45.39139690302414" lon="10.77291053606313"><ele>94.5</ele><time>2026-03-28T09:31:00.998Z</time></trkpt><trkpt lat="45.39147187043371" lon="10.772773512473135"><ele>92.75</ele><time>2026-03-28T09:31:01.998Z</time></trkpt><trkpt lat="45.3915543845103" lon="10.772656204894517"><ele>91.0</ele><time>2026-03-28T09:31:02.998Z</time></trkpt><trkpt lat="45.39165424260235" lon="10.772579889677708"><ele>90.19999999999999</ele><time>2026-03-28T09:31:03.998Z</time></trkpt><trkpt lat="45.391747837395265" lon="10.77249975365961"><ele>89.39999999999999</ele><time>2026-03-28T09:31:04.998Z</time></trkpt><trkpt lat="45.39182347452198" lon="10.772430453265727"><ele>88.6</ele><time>2026-03-28T09:31:05.998Z</time></trkpt><trkpt lat="45.39191394159993" lon="10.772352653714353"><ele>87.8</ele><time>2026-03-28T09:31:06.999Z</time></trkpt><trkpt lat="45.392007505817915" lon="10.77227481459435"><ele>87.0</ele><time>2026-03-28T09:31:07.999Z</time></trkpt><trkpt lat="45.39206982596098" lon="10.772109629432295"><ele>87.0</ele><time>2026-03-28T09:31:08.999Z</time></trkpt><trkpt lat="45.392150695630406" lon="10.77195636871439"><ele>87.0</ele><time>2026-03-28T09:31:09.999Z</time></trkpt><trkpt lat="45.392240758008676" lon="10.77184231542453"><ele>87.0</ele><time>2026-03-28T09:31:10.999Z</time></trkpt><trkpt lat="45.392334914224264" lon="10.771759907059218"><ele>87.0</ele><time>2026-03-28T09:31:11.999Z</time></trkpt><trkpt lat="45.39243325162692" lon="10.771682322896094"><ele>86.8</ele><time>2026-03-28T09:31:12.999Z</time></trkpt><trkpt lat="45.39251783957305" lon="10.771596208002332"><ele>86.6</ele><time>2026-03-28T09:31:13.999Z</time></trkpt><trkpt lat="45.3925734626489" lon="10.771489127061303"><ele>86.39999999999999</ele><time>2026-03-28T09:31:14.999Z</time></trkpt><trkpt lat="45.39261880719625" lon="10.771400087784547"><ele>86.19999999999999</ele><time>2026-03-28T09:31:15.999Z</time></trkpt><trkpt lat="45.3926005521052" lon="10.771243600584304"><ele>86.0</ele><time>2026-03-28T09:31:16.999Z</time></trkpt><trkpt lat="45.39257165839749" lon="10.771076410985659"><ele>85.75</ele><time>2026-03-28T09:31:17.999Z</time></trkpt><trkpt lat="45.3925309581153" lon="10.770907715080666"><ele>85.5</ele><time>2026-03-28T09:31:18.999Z</time></trkpt><trkpt lat="45.392513183317" lon="10.770712842458645"><ele>85.25</ele><time>2026-03-28T09:31:19.999Z</time></trkpt><trkpt lat="45.39248270358917" lon="10.770548895039981"><ele>85.0</ele><time>2026-03-28T09:31:20.999Z</time></trkpt><trkpt lat="45.39246955564262" lon="10.770423174208602"><ele>85.0</ele><time>2026-03-28T09:31:21.999Z</time></trkpt><trkpt lat="45.3924988549387" lon="10.770299412991692"><ele>85.0</ele><time>2026-03-28T09:31:23.999Z</time></trkpt><trkpt lat="45.39263999289435" lon="10.770304899026073"><ele>85.0</ele><time>2026-03-28T09:31:25.999Z</time></trkpt><trkpt lat="45.392760847037614" lon="10.770289825854945"><ele>85.0</ele><time>2026-03-28T09:31:26.999Z</time></trkpt><trkpt lat="45.392904289099775" lon="10.770302792534636"><ele>85.66666666666666</ele><time>2026-03-28T09:31:27.999Z</time></trkpt><trkpt lat="45.39305860446879" lon="10.770290163623793"><ele>86.33333333333333</ele><time>2026-03-28T09:31:28.999Z</time></trkpt><trkpt lat="45.3932319418117" lon="10.770273183934496"><ele>87.0</ele><time>2026-03-28T09:31:29.999Z</time></trkpt><trkpt lat="45.39339942927031" lon="10.770308470056515"><ele>87.0</ele><time>2026-03-28T09:31:30.999Z</time></trkpt><trkpt lat="45.39355131936403" lon="10.770330198046643"><ele>87.0</ele><time>2026-03-28T09:31:31.999Z</time></trkpt><trkpt lat="45.39368108884038" lon="10.770339570058551"><ele>87.0</ele><time>2026-03-28T09:31:32.999Z</time></trkpt><trkpt lat="45.39378976341187" lon="10.770395863158205"><ele>87.0</ele><time>2026-03-28T09:31:33.999Z</time></trkpt><trkpt lat="45.39391816761873" lon="10.77044892531332"><ele>88.6</ele><time>2026-03-28T09:31:34.999Z</time></trkpt><trkpt lat="45.39401825186117" lon="10.770498318279866"><ele>90.19999999999999</ele><time>2026-03-28T09:31:35.999Z</time></trkpt><trkpt lat="45.39410429007261" lon="10.770550188715683"><ele>91.8</ele><time>2026-03-28T09:31:36.999Z</time></trkpt><trkpt lat="45.39418757972577" lon="10.770603639212467"><ele>93.4</ele><time>2026-03-28T09:31:37.999Z</time></trkpt><trkpt lat="45.39429762368663" lon="10.770685978169958"><ele>95.0</ele><time>2026-03-28T09:31:38.999Z</time></trkpt><trkpt lat="45.39440328635029" lon="10.770784070725247"><ele>95.0</ele><time>2026-03-28T09:31:39.999Z</time></trkpt><trkpt lat="45.394522822915306" lon="10.770914328848649"><ele>95.0</ele><time>2026-03-28T09:31:40.999Z</time></trkpt><trkpt lat="45.39464943853893" lon="10.771070471148345"><ele>95.0</ele><time>2026-03-28T09:31:41.999Z</time></trkpt><trkpt lat="45.39476961002057" lon="10.771231672159553"><ele>96.66666666666667</ele><time>2026-03-28T09:31:42.999Z</time></trkpt><trkpt lat="45.39488727521773" lon="10.771408756316628"><ele>98.33333333333334</ele><time>2026-03-28T09:31:43.999Z</time></trkpt><trkpt lat="45.39500829096531" lon="10.771597898900934"><ele>100.0</ele><time>2026-03-28T09:31:44.999Z</time></trkpt><trkpt lat="45.39513865489517" lon="10.771793585459164"><ele>97.66666666666667</ele><time>2026-03-28T09:31:45.999Z</time></trkpt><trkpt lat="45.39524933299739" lon="10.771983068393697"><ele>95.33333333333334</ele><time>2026-03-28T09:31:46.999Z</time></trkpt><trkpt lat="45.39533944491234" lon="10.772178879016161"><ele>93.0</ele><time>2026-03-28T09:31:47.999Z</time></trkpt><trkpt lat="45.395423572931385" lon="10.772383598216717"><ele>93.0</ele><time>2026-03-28T09:31:48.999Z</time></trkpt><trkpt lat="45.39550219562167" lon="10.772582040577422"><ele>93.0</ele><time>2026-03-28T09:31:49.999Z</time></trkpt><trkpt lat="45.39557843924997" lon="10.77277989462233"><ele>93.0</ele><time>2026-03-28T09:31:50.999Z</time></trkpt><trkpt lat="45.3956507449166" lon="10.77298613069223"><ele>96.0</ele><time>2026-03-28T09:31:51.999Z</time></trkpt><trkpt lat="45.39571518608621" lon="10.773192935528382"><ele>99.0</ele><time>2026-03-28T09:31:52.999Z</time></trkpt><trkpt lat="45.395766902454156" lon="10.773391498734863"><ele>102.0</ele><time>2026-03-28T09:31:53.999Z</time></trkpt><trkpt lat="45.39580484936774" lon="10.773584304194406"><ele>105.0</ele><time>2026-03-28T09:31:54.999Z</time></trkpt><trkpt lat="45.39583460156567" lon="10.773744149656126"><ele>105.0</ele><time>2026-03-28T09:31:55.999Z</time></trkpt><trkpt lat="45.39586542845476" lon="10.773909757781581"><ele>105.0</ele><time>2026-03-28T09:31:56.999Z</time></trkpt><trkpt lat="45.395897915716056" lon="10.77406121655839"><ele>105.0</ele><time>2026-03-28T09:31:57.999Z</time></trkpt><trkpt lat="45.39594727242803" lon="10.774189220148566"><ele>105.0</ele><time>2026-03-28T09:31:58.999Z</time></trkpt><trkpt lat="45.39601284445568" lon="10.774285724017108"><ele>105.0</ele><time>2026-03-28T09:31:59.999Z</time></trkpt><trkpt lat="45.39610180343032" lon="10.774351639522138"><ele>104.4</ele><time>2026-03-28T09:32:00.999Z</time></trkpt><trkpt lat="45.39620857576071" lon="10.774367563111735"><ele>103.8</ele><time>2026-03-28T09:32:01.999Z</time></trkpt><trkpt lat="45.39630896704958" lon="10.774381597487995"><ele>103.19999999999999</ele><time>2026-03-28T09:32:02.999Z</time></trkpt><trkpt lat="45.39640870282741" lon="10.774403081225717"><ele>102.6</ele><time>2026-03-28T09:32:03.999Z</time></trkpt><trkpt lat="45.396512085608066" lon="10.77442038253809"><ele>102.0</ele><time>2026-03-28T09:32:04.999Z</time></trkpt><trkpt lat="45.39661699730379" lon="10.774451684188394"><ele>103.8</ele><time>2026-03-28T09:32:05.999Z</time></trkpt><trkpt lat="45.39673234723994" lon="10.774443049950095"><ele>105.6</ele><time>2026-03-28T09:32:06.999Z</time></trkpt><trkpt lat="45.39683606778227" lon="10.77444893037383"><ele>107.39999999999999</ele><time>2026-03-28T09:32:07.999Z</time></trkpt><trkpt lat="45.39691421528989" lon="10.774471253849951"><ele>109.19999999999999</ele><time>2026-03-28T09:32:08.999Z</time></trkpt><trkpt lat="45.39691419733312" lon="10.774620216937656"><ele>111.0</ele><time>2026-03-28T09:32:11.999Z</time></trkpt><trkpt lat="45.39689371413333" lon="10.774714308804"><ele>111.0</ele><time>2026-03-28T09:32:12.999Z</time></trkpt><trkpt lat="45.39686684402717" lon="10.774844938516724"><ele>111.0</ele><time>2026-03-28T09:32:13.999Z</time></trkpt><trkpt lat="45.3968478693289" lon="10.774949101960027"><ele>111.0</ele><time>2026-03-28T09:32:14.999Z</time></trkpt><trkpt lat="45.39682871380062" lon="10.775059096580675"><ele>111.0</ele><time>2026-03-28T09:32:15.999Z</time></trkpt><trkpt lat="45.39680838652243" lon="10.775175819623122"><ele>111.0</ele><time>2026-03-28T09:32:16.999Z</time></trkpt><trkpt lat="45.39678646065585" lon="10.775304479485046"><ele>111.0</ele><time>2026-03-28T09:32:17.999Z</time></trkpt><trkpt lat="45.3967792158948" lon="10.775462275571865"><ele>111.4</ele><time>2026-03-28T09:32:18.999Z</time></trkpt><trkpt lat="45.396763133151914" lon="10.775626303143131"><ele>111.8</ele><time>2026-03-28T09:32:19.999Z</time></trkpt><trkpt lat="45.396738640510165" lon="10.775795368148911"><ele>112.20000000000002</ele><time>2026-03-28T09:32:20.999Z</time></trkpt><trkpt lat="45.396718444616454" lon="10.775930076547983"><ele>112.60000000000001</ele><time>2026-03-28T09:32:21.999Z</time></trkpt><trkpt lat="45.396703326987385" lon="10.776045819091621"><ele>113.0</ele><time>2026-03-28T09:32:22.999Z</time></trkpt><trkpt lat="45.3966838649265" lon="10.776178078434498"><ele>113.0</ele><time>2026-03-28T09:32:24.999Z</time></trkpt><trkpt lat="45.396807149710256" lon="10.77638089100799"><ele>113.0</ele><time>2026-03-28T09:32:26.999Z</time></trkpt><trkpt lat="45.39692304274562" lon="10.776402818928434"><ele>113.0</ele><time>2026-03-28T09:32:27.999Z</time></trkpt><trkpt lat="45.39703111813544" lon="10.776419419552834"><ele>113.0</ele><time>2026-03-28T09:32:28.999Z</time></trkpt><trkpt lat="45.39717079350855" lon="10.776432525634078"><ele>114.25</ele><time>2026-03-28T09:32:29.999Z</time></trkpt><trkpt lat="45.397317552813874" lon="10.77643252562918"><ele>115.5</ele><time>2026-03-28T09:32:30.999Z</time></trkpt><trkpt lat="45.39744375865158" lon="10.776432525627303"><ele>116.75</ele><time>2026-03-28T09:32:31.999Z</time></trkpt><trkpt lat="45.39755123738381" lon="10.776423136536092"><ele>118.0</ele><time>2026-03-28T09:32:32.999Z</time></trkpt><trkpt lat="45.397633802061016" lon="10.776426120708667"><ele>118.0</ele><time>2026-03-28T09:32:33.999Z</time></trkpt><trkpt lat="45.3977270720051" lon="10.776407573892694"><ele>118.00000000000001</ele><time>2026-03-28T09:32:34.999Z</time></trkpt><trkpt lat="45.397834411538994" lon="10.77639725959641"><ele>118.00000000000001</ele><time>2026-03-28T09:32:35.999Z</time></trkpt><trkpt lat="45.397916602916716" lon="10.776394658307849"><ele>118.0</ele><time>2026-03-28T09:32:36.999Z</time></trkpt><trkpt lat="45.39801239482534" lon="10.776497290629518"><ele>118.0</ele><time>2026-03-28T09:32:38.999Z</time></trkpt><trkpt lat="45.398026557788334" lon="10.776612796803565"><ele>118.60000000000001</ele><time>2026-03-28T09:32:39.999Z</time></trkpt><trkpt lat="45.39802689566011" lon="10.776734596462388"><ele>119.20000000000002</ele><time>2026-03-28T09:32:40.999Z</time></trkpt><trkpt lat="45.398031786905484" lon="10.776826642756353"><ele>119.8</ele><time>2026-03-28T09:32:41.999Z</time></trkpt><trkpt lat="45.39809979476122" lon="10.776950266897476"><ele>120.4</ele><time>2026-03-28T09:32:43.999Z</time></trkpt><trkpt lat="45.39824097283661" lon="10.77694128804761"><ele>121.0</ele><time>2026-03-28T09:32:45.999Z</time></trkpt><trkpt lat="45.398333544838366" lon="10.776951429705996"><ele>121.33333333333334</ele><time>2026-03-28T09:32:46.999Z</time></trkpt><trkpt lat="45.398430601154686" lon="10.77697032755013"><ele>121.66666666666667</ele><time>2026-03-28T09:32:47.999Z</time></trkpt><trkpt lat="45.39853227988906" lon="10.776997257684746"><ele>122.0</ele><time>2026-03-28T09:32:48.999Z</time></trkpt><trkpt lat="45.39861688621887" lon="10.777034329610489"><ele>122.33333333333334</ele><time>2026-03-28T09:32:49.999Z</time></trkpt><trkpt lat="45.39868242005974" lon="10.777089268477932"><ele>122.66666666666667</ele><time>2026-03-28T09:32:50.999Z</time></trkpt><trkpt lat="45.398728302185106" lon="10.777183821482307"><ele>123.0</ele><time>2026-03-28T09:32:51.999Z</time></trkpt><trkpt lat="45.39878490921044" lon="10.777325512698495"><ele>123.0</ele><time>2026-03-28T09:32:52.999Z</time></trkpt><trkpt lat="45.398831476820405" lon="10.777496890245551"><ele>123.0</ele><time>2026-03-28T09:32:53.999Z</time></trkpt><trkpt lat="45.39891607111722" lon="10.777649179172775"><ele>123.0</ele><time>2026-03-28T09:32:54.999Z</time></trkpt><trkpt lat="45.399033909446665" lon="10.777778412782181"><ele>123.0</ele><time>2026-03-28T09:32:55.998Z</time></trkpt><trkpt lat="45.3991284541742" lon="10.777885617413538"><ele>123.0</ele><time>2026-03-28T09:32:56.998Z</time></trkpt><trkpt lat="45.39915690205425" lon="10.778037556829428"><ele>123.00000000000001</ele><time>2026-03-28T09:32:58.998Z</time></trkpt><trkpt lat="45.39916372343831" lon="10.778146174157023"><ele>123.00000000000001</ele><time>2026-03-28T09:32:59.998Z</time></trkpt><trkpt lat="45.39917108956774" lon="10.778305738290548"><ele>123.0</ele><time>2026-03-28T09:33:00.998Z</time></trkpt><trkpt lat="45.39918622915917" lon="10.778490260332395"><ele>123.0</ele><time>2026-03-28T09:33:01.998Z</time></trkpt><trkpt lat="45.39921244315672" lon="10.778694165501076"><ele>122.75</ele><time>2026-03-28T09:33:02.998Z</time></trkpt><trkpt lat="45.399236793795446" lon="10.778894192813803"><ele>122.5</ele><time>2026-03-28T09:33:03.998Z</time></trkpt><trkpt lat="45.39925861039084" lon="10.779091117703741"><ele>122.25</ele><time>2026-03-28T09:33:04.998Z</time></trkpt><trkpt lat="45.39928238778353" lon="10.779271122372998"><ele>122.0</ele><time>2026-03-28T09:33:05.998Z</time></trkpt><trkpt lat="45.39930039768327" lon="10.779434194008982"><ele>121.83333333333333</ele><time>2026-03-28T09:33:06.998Z</time></trkpt><trkpt lat="45.39931328092928" lon="10.779569794307086"><ele>121.66666666666666</ele><time>2026-03-28T09:33:07.998Z</time></trkpt><trkpt lat="45.399318720336495" lon="10.779685534664464"><ele>121.5</ele><time>2026-03-28T09:33:08.998Z</time></trkpt><trkpt lat="45.39932256086728" lon="10.779792650750382"><ele>121.33333333333334</ele><time>2026-03-28T09:33:09.998Z</time></trkpt><trkpt lat="45.39934629081906" lon="10.779908760854939"><ele>121.16666666666667</ele><time>2026-03-28T09:33:11.998Z</time></trkpt><trkpt lat="45.399431914538035" lon="10.77994478811779"><ele>121.0</ele><time>2026-03-28T09:33:13.999Z</time></trkpt><trkpt lat="45.399495781790776" lon="10.779936306514953"><ele>121.0</ele><time>2026-03-28T09:33:14.999Z</time></trkpt><trkpt lat="45.39957749209754" lon="10.77990805613871"><ele>121.0</ele><time>2026-03-28T09:33:15.999Z</time></trkpt><trkpt lat="45.399673515366125" lon="10.779886671404338"><ele>121.0</ele><time>2026-03-28T09:33:16.999Z</time></trkpt><trkpt lat="45.39978736908202" lon="10.779875336967175"><ele>121.0</ele><time>2026-03-28T09:33:17.999Z</time></trkpt><trkpt lat="45.39990736030229" lon="10.779876084446908"><ele>121.0</ele><time>2026-03-28T09:33:18.999Z</time></trkpt><trkpt lat="45.40003482282233" lon="10.779869855805789"><ele>121.0</ele><time>2026-03-28T09:33:19.999Z</time></trkpt><trkpt lat="45.40016954035071" lon="10.77986657366075"><ele>121.0</ele><time>2026-03-28T09:33:20.999Z</time></trkpt><trkpt lat="45.40030038840213" lon="10.779866269611519"><ele>121.0</ele><time>2026-03-28T09:33:21.999Z</time></trkpt><trkpt lat="45.40042064443306" lon="10.779865584316838"><ele>121.0</ele><time>2026-03-28T09:33:22.999Z</time></trkpt><trkpt lat="45.40052295836944" lon="10.779887306153416"><ele>121.0</ele><time>2026-03-28T09:33:23.999Z</time></trkpt><trkpt lat="45.40061842986582" lon="10.779947416183727"><ele>121.0</ele><time>2026-03-28T09:33:24.999Z</time></trkpt><trkpt lat="45.40071665491559" lon="10.780035781626273"><ele>121.0</ele><time>2026-03-28T09:33:25.999Z</time></trkpt><trkpt lat="45.400831666389124" lon="10.780136326426007"><ele>121.0</ele><time>2026-03-28T09:33:26.999Z</time></trkpt><trkpt lat="45.400944209030534" lon="10.780230063117735"><ele>121.0</ele><time>2026-03-28T09:33:27.999Z</time></trkpt><trkpt lat="45.40105548377736" lon="10.780320396479276"><ele>121.0</ele><time>2026-03-28T09:33:28.999Z</time></trkpt><trkpt lat="45.401169788491266" lon="10.780414442229233"><ele>121.0</ele><time>2026-03-28T09:33:29.999Z</time></trkpt><trkpt lat="45.40127204740868" lon="10.780478835841512"><ele>121.0</ele><time>2026-03-28T09:33:30.999Z</time></trkpt><trkpt lat="45.40138124925387" lon="10.780531344899924"><ele>121.00000000000001</ele><time>2026-03-28T09:33:31.999Z</time></trkpt><trkpt lat="45.401477944474024" lon="10.78057832397676"><ele>121.0</ele><time>2026-03-28T09:33:32.999Z</time></trkpt><trkpt lat="45.4015559621584" lon="10.78062275891901"><ele>121.0</ele><time>2026-03-28T09:33:33.999Z</time></trkpt><trkpt lat="45.40159964699489" lon="10.780695879317786"><ele>121.0</ele><time>2026-03-28T09:33:34.999Z</time></trkpt><trkpt lat="45.4016225457592" lon="10.780802171484133"><ele>121.00000000000001</ele><time>2026-03-28T09:33:35.999Z</time></trkpt><trkpt lat="45.401647358388516" lon="10.78094638403916"><ele>121.0</ele><time>2026-03-28T09:33:36.999Z</time></trkpt><trkpt lat="45.40168626910894" lon="10.781089053890808"><ele>121.0</ele><time>2026-03-28T09:33:37.999Z</time></trkpt><trkpt lat="45.401744690537534" lon="10.781222650654637"><ele>121.0</ele><time>2026-03-28T09:33:38.999Z</time></trkpt><trkpt lat="45.40181319895781" lon="10.781344548009923"><ele>121.0</ele><time>2026-03-28T09:33:39.999Z</time></trkpt><trkpt lat="45.40189620536712" lon="10.781461205733615"><ele>121.0</ele><time>2026-03-28T09:33:40.999Z</time></trkpt><trkpt lat="45.401984220216455" lon="10.781572617544384"><ele>121.0</ele><time>2026-03-28T09:33:41.999Z</time></trkpt><trkpt lat="45.402083061042006" lon="10.781672271999001"><ele>121.0</ele><time>2026-03-28T09:33:42.999Z</time></trkpt><trkpt lat="45.402205037440325" lon="10.781757151806298"><ele>121.0</ele><time>2026-03-28T09:33:43.999Z</time></trkpt><trkpt lat="45.40233623630248" lon="10.781845534289927"><ele>121.0</ele><time>2026-03-28T09:33:44.999Z</time></trkpt><trkpt lat="45.40245157008568" lon="10.78196057795703"><ele>120.66666666666667</ele><time>2026-03-28T09:33:45.999Z</time></trkpt><trkpt lat="45.4025420713537" lon="10.782141065668037"><ele>120.33333333333334</ele><time>2026-03-28T09:33:46.999Z</time></trkpt><trkpt lat="45.40266375630691" lon="10.782298587265107"><ele>120.0</ele><time>2026-03-28T09:33:47.999Z</time></trkpt><trkpt lat="45.40276499774005" lon="10.782478798122227"><ele>120.0</ele><time>2026-03-28T09:33:48.999Z</time></trkpt><trkpt lat="45.40286563625286" lon="10.782652688833624"><ele>120.0</ele><time>2026-03-28T09:33:49.999Z</time></trkpt><trkpt lat="45.40296325071611" lon="10.782820685181457"><ele>120.0</ele><time>2026-03-28T09:33:50.999Z</time></trkpt><trkpt lat="45.40304698504407" lon="10.782937746157392"><ele>120.0</ele><time>2026-03-28T09:33:51.999Z</time></trkpt><trkpt lat="45.403131805070544" lon="10.783006348337974"><ele>120.0</ele><time>2026-03-28T09:33:52.999Z</time></trkpt><trkpt lat="45.40320372712854" lon="10.783081221816847"><ele>120.0</ele><time>2026-03-28T09:33:53.999Z</time></trkpt><trkpt lat="45.403200004924585" lon="10.783177560923072"><ele>120.0</ele><time>2026-03-28T09:33:54.999Z</time></trkpt><trkpt lat="45.40327231176612" lon="10.783319609604604"><ele>120.0</ele><time>2026-03-28T09:33:56.999Z</time></trkpt><trkpt lat="45.4033463002881" lon="10.783405879994424"><ele>120.0</ele><time>2026-03-28T09:33:58.999Z</time></trkpt><trkpt lat="45.40343323776655" lon="10.783542679289695"><ele>120.0</ele><time>2026-03-28T09:34:00.999Z</time></trkpt><trkpt lat="45.40350186698378" lon="10.783643770041412"><ele>120.0</ele><time>2026-03-28T09:34:01.999Z</time></trkpt><trkpt lat="45.40358502753879" lon="10.783764773793955"><ele>120.0</ele><time>2026-03-28T09:34:02.999Z</time></trkpt><trkpt lat="45.403672639330445" lon="10.783900377714094"><ele>120.0</ele><time>2026-03-28T09:34:03.999Z</time></trkpt><trkpt lat="45.4037702207881" lon="10.78404581590143"><ele>120.0</ele><time>2026-03-28T09:34:04.999Z</time></trkpt><trkpt lat="45.4038644047031" lon="10.784202339537824"><ele>120.0</ele><time>2026-03-28T09:34:05.999Z</time></trkpt><trkpt lat="45.403952627442614" lon="10.784344798655415"><ele>120.0</ele><time>2026-03-28T09:34:06.999Z</time></trkpt><trkpt lat="45.40401279901353" lon="10.784488112807589"><ele>120.0</ele><time>2026-03-28T09:34:07.999Z</time></trkpt><trkpt lat="45.404045380306954" lon="10.784677195071138"><ele>120.75</ele><time>2026-03-28T09:34:08.999Z</time></trkpt><trkpt lat="45.40407152600015" lon="10.784861056003567"><ele>121.5</ele><time>2026-03-28T09:34:09.999Z</time></trkpt><trkpt lat="45.404070501355456" lon="10.785062746102655"><ele>122.25</ele><time>2026-03-28T09:34:10.999Z</time></trkpt><trkpt lat="45.40409494910745" lon="10.785296741356923"><ele>123.0</ele><time>2026-03-28T09:34:11.999Z</time></trkpt><trkpt lat="45.4041059773887" lon="10.785511717965335"><ele>123.25</ele><time>2026-03-28T09:34:12.999Z</time></trkpt><trkpt lat="45.404131717328255" lon="10.78572048111371"><ele>123.5</ele><time>2026-03-28T09:34:13.999Z</time></trkpt><trkpt lat="45.40417417061546" lon="10.785920763264585"><ele>123.75</ele><time>2026-03-28T09:34:14.999Z</time></trkpt><trkpt lat="45.40422834704544" lon="10.78611696112003"><ele>124.0</ele><time>2026-03-28T09:34:15.999Z</time></trkpt><trkpt lat="45.40427082341018" lon="10.786297883418076"><ele>124.00000000000001</ele><time>2026-03-28T09:34:16.999Z</time></trkpt><trkpt lat="45.40430755823295" lon="10.786431971792078"><ele>124.0</ele><time>2026-03-28T09:34:17.999Z</time></trkpt><trkpt lat="45.40431083612019" lon="10.786554696048595"><ele>124.0</ele><time>2026-03-28T09:34:18.999Z</time></trkpt><trkpt lat="45.404245076728" lon="10.786637535568628"><ele>124.0</ele><time>2026-03-28T09:34:19.999Z</time></trkpt><trkpt lat="45.404251898816206" lon="10.786744958178616"><ele>124.00000000000001</ele><time>2026-03-28T09:34:20.999Z</time></trkpt><trkpt lat="45.40422195601544" lon="10.786861703193587"><ele>124.0</ele><time>2026-03-28T09:34:21.999Z</time></trkpt><trkpt lat="45.40423031101207" lon="10.787028017245618"><ele>122.75</ele><time>2026-03-28T09:34:22.999Z</time></trkpt><trkpt lat="45.40425162141986" lon="10.787232129984782"><ele>121.5</ele><time>2026-03-28T09:34:23.999Z</time></trkpt><trkpt lat="45.404279877945214" lon="10.787433844246138"><ele>120.25</ele><time>2026-03-28T09:34:24.999Z</time></trkpt><trkpt lat="45.40432326071755" lon="10.787597606255002"><ele>119.0</ele><time>2026-03-28T09:34:25.999Z</time></trkpt><trkpt lat="45.40437093443697" lon="10.787744073172068"><ele>118.0</ele><time>2026-03-28T09:34:26.999Z</time></trkpt><trkpt lat="45.40443160541585" lon="10.787871178580376"><ele>117.0</ele><time>2026-03-28T09:34:27.999Z</time></trkpt><trkpt lat="45.40450545241403" lon="10.788009083081718"><ele>116.0</ele><time>2026-03-28T09:34:28.999Z</time></trkpt><trkpt lat="45.40458517329653" lon="10.788130899713408"><ele>115.0</ele><time>2026-03-28T09:34:29.999Z</time></trkpt><trkpt lat="45.40467902746184" lon="10.78825008324382"><ele>115.0</ele><time>2026-03-28T09:34:30.999Z</time></trkpt><trkpt lat="45.404780142677566" lon="10.788356893962174"><ele>115.0</ele><time>2026-03-28T09:34:31.999Z</time></trkpt><trkpt lat="45.404829397122015" lon="10.788490310091769"><ele>115.0</ele><time>2026-03-28T09:34:32.999Z</time></trkpt><trkpt lat="45.40484057544952" lon="10.788607321175993"><ele>115.0</ele><time>2026-03-28T09:34:33.999Z</time></trkpt><trkpt lat="45.404865358706296" lon="10.78878079789974"><ele>115.0</ele><time>2026-03-28T09:34:34.999Z</time></trkpt><trkpt lat="45.40486382759458" lon="10.788997867232448"><ele>114.0</ele><time>2026-03-28T09:34:35.999Z</time></trkpt><trkpt lat="45.40487646167977" lon="10.789211130198716"><ele>113.0</ele><time>2026-03-28T09:34:36.999Z</time></trkpt><trkpt lat="45.404889406117185" lon="10.789412025867279"><ele>112.0</ele><time>2026-03-28T09:34:37.999Z</time></trkpt><trkpt lat="45.40487865459883" lon="10.789612557758153"><ele>111.0</ele><time>2026-03-28T09:34:38.999Z</time></trkpt><trkpt lat="45.40490484924925" lon="10.789800904889374"><ele>111.0</ele><time>2026-03-28T09:34:39.999Z</time></trkpt><trkpt lat="45.40489487306457" lon="10.78998589214837"><ele>111.0</ele><time>2026-03-28T09:34:40.999Z</time></trkpt><trkpt lat="45.40489126296539" lon="10.790180837298534"><ele>111.0</ele><time>2026-03-28T09:34:41.999Z</time></trkpt><trkpt lat="45.40490973988041" lon="10.790375771287483"><ele>111.0</ele><time>2026-03-28T09:34:42.999Z</time></trkpt><trkpt lat="45.40491056307529" lon="10.790576910655345"><ele>110.75</ele><time>2026-03-28T09:34:43.999Z</time></trkpt><trkpt lat="45.40491077329933" lon="10.790779495432762"><ele>110.5</ele><time>2026-03-28T09:34:44.999Z</time></trkpt><trkpt lat="45.404908121086926" lon="10.790970793563192"><ele>110.25</ele><time>2026-03-28T09:34:45.999Z</time></trkpt><trkpt lat="45.40490565848821" lon="10.791138460632796"><ele>110.0</ele><time>2026-03-28T09:34:46.999Z</time></trkpt><trkpt lat="45.40490893729859" lon="10.791289791770936"><ele>110.5</ele><time>2026-03-28T09:34:47.999Z</time></trkpt><trkpt lat="45.404916729876724" lon="10.79141323863237"><ele>111.0</ele><time>2026-03-28T09:34:48.999Z</time></trkpt><trkpt lat="45.40489805455462" lon="10.791543459937778"><ele>111.5</ele><time>2026-03-28T09:34:50.999Z</time></trkpt><trkpt lat="45.405135106332104" lon="10.791509950147216"><ele>112.0</ele><time>2026-03-28T09:34:52.999Z</time></trkpt><trkpt lat="45.40525107751652" lon="10.791502152294788"><ele>112.0</ele><time>2026-03-28T09:34:53.999Z</time></trkpt><trkpt lat="45.40539184172718" lon="10.791493273857807"><ele>112.0</ele><time>2026-03-28T09:34:54.999Z</time></trkpt><trkpt lat="45.40554729291555" lon="10.791502424312121"><ele>112.0</ele><time>2026-03-28T09:34:55.999Z</time></trkpt><trkpt lat="45.40570617909907" lon="10.791480359527878"><ele>112.33333333333334</ele><time>2026-03-28T09:34:56.999Z</time></trkpt><trkpt lat="45.40587721351236" lon="10.791468526030535"><ele>112.66666666666666</ele><time>2026-03-28T09:34:57.999Z</time></trkpt><trkpt lat="45.40606050679956" lon="10.791442929350813"><ele>113.0</ele><time>2026-03-28T09:34:58.999Z</time></trkpt><trkpt lat="45.40624023144201" lon="10.791430229271283"><ele>112.66666666666666</ele><time>2026-03-28T09:34:59.999Z</time></trkpt><trkpt lat="45.406431757650196" lon="10.791419662541127"><ele>112.33333333333334</ele><time>2026-03-28T09:35:00.999Z</time></trkpt><trkpt lat="45.40662576408468" lon="10.791405504946772"><ele>112.0</ele><time>2026-03-28T09:35:01.999Z</time></trkpt><trkpt lat="45.40681914170193" lon="10.791391513441889"><ele>112.0</ele><time>2026-03-28T09:35:02.999Z</time></trkpt><trkpt lat="45.40700570880779" lon="10.791376857934706"><ele>112.0</ele><time>2026-03-28T09:35:03.999Z</time></trkpt><trkpt lat="45.40717954902363" lon="10.79136520792126"><ele>112.0</ele><time>2026-03-28T09:35:04.999Z</time></trkpt><trkpt lat="45.407360531234644" lon="10.791357233083446"><ele>112.0</ele><time>2026-03-28T09:35:05.999Z</time></trkpt><trkpt lat="45.40753479660896" lon="10.791349806299154"><ele>112.0</ele><time>2026-03-28T09:35:06.999Z</time></trkpt><trkpt lat="45.407709725294616" lon="10.791341189651558"><ele>112.0</ele><time>2026-03-28T09:35:07.999Z</time></trkpt><trkpt lat="45.407877853377784" lon="10.791329542294646"><ele>112.25</ele><time>2026-03-28T09:35:08.999Z</time></trkpt><trkpt lat="45.408025314583334" lon="10.791319987692134"><ele>112.5</ele><time>2026-03-28T09:35:09.999Z</time></trkpt><trkpt lat="45.40815666542349" lon="10.791313826574317"><ele>112.75</ele><time>2026-03-28T09:35:10.999Z</time></trkpt><trkpt lat="45.408308903842375" lon="10.791302717859288"><ele>113.0</ele><time>2026-03-28T09:35:11.999Z</time></trkpt><trkpt lat="45.40847286507211" lon="10.791301740698895"><ele>113.0</ele><time>2026-03-28T09:35:12.999Z</time></trkpt><trkpt lat="45.408630906330814" lon="10.7912938889706"><ele>113.0</ele><time>2026-03-28T09:35:13.999Z</time></trkpt><trkpt lat="45.408778105624386" lon="10.791281860806524"><ele>113.0</ele><time>2026-03-28T09:35:14.999Z</time></trkpt><trkpt lat="45.40891374539945" lon="10.79127296972085"><ele>113.0</ele><time>2026-03-28T09:35:15.999Z</time></trkpt><trkpt lat="45.40903084309858" lon="10.791262327272484"><ele>113.0</ele><time>2026-03-28T09:35:16.999Z</time></trkpt><trkpt lat="45.40913014028422" lon="10.791252576021858"><ele>113.00000000000001</ele><time>2026-03-28T09:35:17.999Z</time></trkpt><trkpt lat="45.409206032246864" lon="10.791246824859183"><ele>113.00000000000001</ele><time>2026-03-28T09:35:19Z</time></trkpt><trkpt lat="45.40927694270989" lon="10.791244317089069"><ele>113.0</ele><time>2026-03-28T09:35:21Z</time></trkpt><trkpt lat="45.4093420812584" lon="10.791232871714872"><ele>113.0</ele><time>2026-03-28T09:35:26Z</time></trkpt><trkpt lat="45.40931502867782" lon="10.790957490375"><ele>113.2</ele><time>2026-03-28T09:35:27Z</time></trkpt><trkpt lat="45.40929933799846" lon="10.790813897560568"><ele>113.4</ele><time>2026-03-28T09:35:28Z</time></trkpt><trkpt lat="45.4092936538139" lon="10.790643557644076"><ele>113.60000000000001</ele><time>2026-03-28T09:35:29Z</time></trkpt><trkpt lat="45.40928440867062" lon="10.790478289939566"><ele>113.80000000000001</ele><time>2026-03-28T09:35:30Z</time></trkpt><trkpt lat="45.409291346001645" lon="10.79036515511652"><ele>114.0</ele><time>2026-03-28T09:35:31Z</time></trkpt><trkpt lat="45.40934252416275" lon="10.790250807958712"><ele>114.25</ele><time>2026-03-28T09:35:33Z</time></trkpt><trkpt lat="45.40949022388107" lon="10.790169028515004"><ele>114.5</ele><time>2026-03-28T09:35:35Z</time></trkpt><trkpt lat="45.409579143160805" lon="10.790094042097241"><ele>114.75</ele><time>2026-03-28T09:35:36Z</time></trkpt><trkpt lat="45.40968604712252" lon="10.789990946799243"><ele>115.0</ele><time>2026-03-28T09:35:37Z</time></trkpt><trkpt lat="45.40981142267647" lon="10.789866467189157"><ele>115.33333333333334</ele><time>2026-03-28T09:35:38Z</time></trkpt><trkpt lat="45.40996360098379" lon="10.789721903871849"><ele>115.66666666666666</ele><time>2026-03-28T09:35:39Z</time></trkpt><trkpt lat="45.41013565940859" lon="10.789566344545246"><ele>116.0</ele><time>2026-03-28T09:35:40Z</time></trkpt><trkpt lat="45.410315734049256" lon="10.789404247872673"><ele>116.33333333333333</ele><time>2026-03-28T09:35:41Z</time></trkpt><trkpt lat="45.41049448615492" lon="10.78924165789125"><ele>116.66666666666666</ele><time>2026-03-28T09:35:42Z</time></trkpt><trkpt lat="45.41066844905945" lon="10.789081641161403"><ele>117.0</ele><time>2026-03-28T09:35:43Z</time></trkpt><trkpt lat="45.41084879428015" lon="10.788921081825539"><ele>117.0</ele><time>2026-03-28T09:35:44Z</time></trkpt><trkpt lat="45.411026865594714" lon="10.788757606107673"><ele>117.0</ele><time>2026-03-28T09:35:45Z</time></trkpt><trkpt lat="45.41119926654361" lon="10.78858492208876"><ele>117.0</ele><time>2026-03-28T09:35:46Z</time></trkpt><trkpt lat="45.41134346991687" lon="10.788420644591028"><ele>117.33333333333334</ele><time>2026-03-28T09:35:47Z</time></trkpt><trkpt lat="45.411474499071716" lon="10.78825154542844"><ele>117.66666666666667</ele><time>2026-03-28T09:35:48Z</time></trkpt><trkpt lat="45.41160661438306" lon="10.788101477899186"><ele>118.0</ele><time>2026-03-28T09:35:49Z</time></trkpt><trkpt lat="45.41172633008557" lon="10.787976587974262"><ele>118.0</ele><time>2026-03-28T09:35:50Z</time></trkpt><trkpt lat="45.411837673226565" lon="10.787868572143383"><ele>118.0</ele><time>2026-03-28T09:35:51Z</time></trkpt><trkpt lat="45.411942313065126" lon="10.787772343061555"><ele>118.0</ele><time>2026-03-28T09:35:52Z</time></trkpt><trkpt lat="45.41203130683434" lon="10.787681346612121"><ele>118.0</ele><time>2026-03-28T09:35:53Z</time></trkpt><trkpt lat="45.41210346984989" lon="10.787584781181527"><ele>118.0</ele><time>2026-03-28T09:35:54Z</time></trkpt><trkpt lat="45.412160748979225" lon="10.787464474555264"><ele>118.00000000000001</ele><time>2026-03-28T09:35:55Z</time></trkpt><trkpt lat="45.41219111339236" lon="10.787328012154406"><ele>118.00000000000001</ele><time>2026-03-28T09:35:56Z</time></trkpt><trkpt lat="45.412210458745285" lon="10.78717106046404"><ele>118.0</ele><time>2026-03-28T09:35:57Z</time></trkpt><trkpt lat="45.41222739332127" lon="10.787014129509885"><ele>118.0</ele><time>2026-03-28T09:35:58Z</time></trkpt><trkpt lat="45.412273208022064" lon="10.786857309968932"><ele>117.5</ele><time>2026-03-28T09:35:59Z</time></trkpt><trkpt lat="45.41234732692436" lon="10.786707076364777"><ele>117.0</ele><time>2026-03-28T09:36:00Z</time></trkpt><trkpt lat="45.41245172363457" lon="10.786561863038639"><ele>116.5</ele><time>2026-03-28T09:36:01Z</time></trkpt><trkpt lat="45.412574353744375" lon="10.786419140494061"><ele>116.0</ele><time>2026-03-28T09:36:02Z</time></trkpt><trkpt lat="45.41270353870464" lon="10.786253514635888"><ele>116.0</ele><time>2026-03-28T09:36:03Z</time></trkpt><trkpt lat="45.4128329189376" lon="10.786074640150867"><ele>116.0</ele><time>2026-03-28T09:36:04Z</time></trkpt><trkpt lat="45.41296726494387" lon="10.785890027069648"><ele>116.0</ele><time>2026-03-28T09:36:05Z</time></trkpt><trkpt lat="45.41310629765098" lon="10.785707014586972"><ele>117.0</ele><time>2026-03-28T09:36:06Z</time></trkpt><trkpt lat="45.413230893015566" lon="10.785510021664843"><ele>118.0</ele><time>2026-03-28T09:36:07Z</time></trkpt><trkpt lat="45.41333793449749" lon="10.785310378072502"><ele>119.0</ele><time>2026-03-28T09:36:08Z</time></trkpt><trkpt lat="45.41343057535657" lon="10.785157890507282"><ele>119.75</ele><time>2026-03-28T09:36:09Z</time></trkpt><trkpt lat="45.41351224863589" lon="10.785022075030263"><ele>120.5</ele><time>2026-03-28T09:36:10Z</time></trkpt><trkpt lat="45.413586541491185" lon="10.784888607243392"><ele>121.25</ele><time>2026-03-28T09:36:11Z</time></trkpt><trkpt lat="45.41365232127782" lon="10.784773858741364"><ele>122.0</ele><time>2026-03-28T09:36:12Z</time></trkpt><trkpt lat="45.4137189864838" lon="10.784651929524061"><ele>122.0</ele><time>2026-03-28T09:36:13Z</time></trkpt><trkpt lat="45.41378913613641" lon="10.784525727964866"><ele>121.99999999999999</ele><time>2026-03-28T09:36:14Z</time></trkpt><trkpt lat="45.41385588735807" lon="10.784406516503953"><ele>121.99999999999999</ele><time>2026-03-28T09:36:15Z</time></trkpt><trkpt lat="45.41391121371389" lon="10.784302048190513"><ele>122.0</ele><time>2026-03-28T09:36:16Z</time></trkpt><trkpt lat="45.41396468600427" lon="10.784222321675841"><ele>122.0</ele><time>2026-03-28T09:36:17Z</time></trkpt><trkpt lat="45.41406223304184" lon="10.784194230365047"><ele>122.0</ele><time>2026-03-28T09:36:19Z</time></trkpt><trkpt lat="45.41413579292255" lon="10.784233650105199"><ele>122.0</ele><time>2026-03-28T09:36:20Z</time></trkpt><trkpt lat="45.41423566183423" lon="10.784298274022062"><ele>122.0</ele><time>2026-03-28T09:36:21Z</time></trkpt><trkpt lat="45.414349107242" lon="10.784381198793952"><ele>122.0</ele><time>2026-03-28T09:36:22Z</time></trkpt><trkpt lat="45.414471241953635" lon="10.784471436842585"><ele>122.0</ele><time>2026-03-28T09:36:23Z</time></trkpt><trkpt lat="45.4146175095877" lon="10.784556816137174"><ele>122.0</ele><time>2026-03-28T09:36:24Z</time></trkpt><trkpt lat="45.41480722291608" lon="10.784676631840783"><ele>122.0</ele><time>2026-03-28T09:36:24.999Z</time></trkpt><trkpt lat="45.41502363086744" lon="10.784834779752138"><ele>122.0</ele><time>2026-03-28T09:36:25.999Z</time></trkpt><trkpt lat="45.41526356047855" lon="10.784991046748557"><ele>122.0</ele><time>2026-03-28T09:36:26.999Z</time></trkpt><trkpt lat="45.415523690722196" lon="10.785159848257447"><ele>121.5</ele><time>2026-03-28T09:36:27.999Z</time></trkpt><trkpt lat="45.41578018321448" lon="10.785325341860228"><ele>121.0</ele><time>2026-03-28T09:36:28.999Z</time></trkpt><trkpt lat="45.41603119754656" lon="10.785489579319824"><ele>121.0</ele><time>2026-03-28T09:36:29.999Z</time></trkpt><trkpt lat="45.41628184157597" lon="10.785667162744753"><ele>121.0</ele><time>2026-03-28T09:36:30.999Z</time></trkpt><trkpt lat="45.41651935956602" lon="10.785818905212876"><ele>121.0</ele><time>2026-03-28T09:36:31.999Z</time></trkpt><trkpt lat="45.416729652007014" lon="10.78595891347279"><ele>121.0</ele><time>2026-03-28T09:36:32.999Z</time></trkpt><trkpt lat="45.41694354883295" lon="10.786116635731922"><ele>121.0</ele><time>2026-03-28T09:36:33.999Z</time></trkpt><trkpt lat="45.41712378065633" lon="10.786229716915237"><ele>121.0</ele><time>2026-03-28T09:36:34.999Z</time></trkpt><trkpt lat="45.41729857704704" lon="10.786339294951244"><ele>121.0</ele><time>2026-03-28T09:36:35.999Z</time></trkpt><trkpt lat="45.41744681943716" lon="10.786421419167235"><ele>122.33333333333334</ele><time>2026-03-28T09:36:36.999Z</time></trkpt><trkpt lat="45.41760428234894" lon="10.786510715095897"><ele>123.66666666666666</ele><time>2026-03-28T09:36:37.999Z</time></trkpt><trkpt lat="45.417741157290614" lon="10.786611976055386"><ele>125.0</ele><time>2026-03-28T09:36:38.999Z</time></trkpt><trkpt lat="45.41789638163503" lon="10.786710874271812"><ele>125.0</ele><time>2026-03-28T09:36:39.999Z</time></trkpt><trkpt lat="45.418054848611455" lon="10.786816155781104"><ele>125.0</ele><time>2026-03-28T09:36:40.999Z</time></trkpt><trkpt lat="45.41821053634219" lon="10.786923312626822"><ele>125.0</ele><time>2026-03-28T09:36:41.999Z</time></trkpt><trkpt lat="45.41835037210913" lon="10.78701751475113"><ele>125.0</ele><time>2026-03-28T09:36:42.999Z</time></trkpt><trkpt lat="45.41847187308291" lon="10.787110049334299"><ele>125.0</ele><time>2026-03-28T09:36:43.999Z</time></trkpt><trkpt lat="45.41858129523796" lon="10.787193806967435"><ele>125.0</ele><time>2026-03-28T09:36:44.999Z</time></trkpt><trkpt lat="45.418690101237104" lon="10.787277822364345"><ele>125.0</ele><time>2026-03-28T09:36:45.999Z</time></trkpt><trkpt lat="45.41879926261177" lon="10.787330756915223"><ele>124.66666666666666</ele><time>2026-03-28T09:36:46.999Z</time></trkpt><trkpt lat="45.418894550827304" lon="10.787370920116524"><ele>124.33333333333333</ele><time>2026-03-28T09:36:47.999Z</time></trkpt><trkpt lat="45.418976160844146" lon="10.787402413037812"><ele>124.0</ele><time>2026-03-28T09:36:48.999Z</time></trkpt><trkpt lat="45.41905102089185" lon="10.787423749206752"><ele>123.66666666666666</ele><time>2026-03-28T09:36:49.999Z</time></trkpt><trkpt lat="45.41912804058708" lon="10.787461170757949"><ele>123.33333333333333</ele><time>2026-03-28T09:36:50.999Z</time></trkpt><trkpt lat="45.419204953553475" lon="10.78742291773195"><ele>123.0</ele><time>2026-03-28T09:36:51.999Z</time></trkpt><trkpt lat="45.4192650878643" lon="10.787323259488545"><ele>123.0</ele><time>2026-03-28T09:36:52.999Z</time></trkpt><trkpt lat="45.419260381251966" lon="10.787166593035213"><ele>123.0</ele><time>2026-03-28T09:36:53.999Z</time></trkpt><trkpt lat="45.41927335468013" lon="10.787059709766405"><ele>123.0</ele><time>2026-03-28T09:36:54.999Z</time></trkpt><trkpt lat="45.41930724470494" lon="10.786973961020868"><ele>123.0</ele><time>2026-03-28T09:36:55.999Z</time></trkpt><trkpt lat="45.419393303962934" lon="10.786948972116019"><ele>123.0</ele><time>2026-03-28T09:36:57.999Z</time></trkpt><trkpt lat="45.41944723347963" lon="10.787001868121175"><ele>123.0</ele><time>2026-03-28T09:36:58.999Z</time></trkpt><trkpt lat="45.419513557311056" lon="10.787034507209583"><ele>123.0</ele><time>2026-03-28T09:36:59.999Z</time></trkpt><trkpt lat="45.419577774467506" lon="10.787074420120689"><ele>123.0</ele><time>2026-03-28T09:37:00.999Z</time></trkpt><trkpt lat="45.41964568513261" lon="10.787127880616891"><ele>123.0</ele><time>2026-03-28T09:37:01.999Z</time></trkpt><trkpt lat="45.419717133361786" lon="10.787161619605776"><ele>123.0</ele><time>2026-03-28T09:37:02.999Z</time></trkpt><trkpt lat="45.41978553048841" lon="10.787205799894295"><ele>123.0</ele><time>2026-03-28T09:37:03.999Z</time></trkpt><trkpt lat="45.419858190581714" lon="10.787239314888357"><ele>123.0</ele><time>2026-03-28T09:37:04.999Z</time></trkpt><trkpt lat="45.41993919583349" lon="10.78727642329329"><ele>123.2</ele><time>2026-03-28T09:37:05.999Z</time></trkpt><trkpt lat="45.42002321696897" lon="10.787338468235658"><ele>123.4</ele><time>2026-03-28T09:37:06.999Z</time></trkpt><trkpt lat="45.42011147271159" lon="10.787431067333577"><ele>123.60000000000001</ele><time>2026-03-28T09:37:07.999Z</time></trkpt><trkpt lat="45.42019437244619" lon="10.787531547701096"><ele>123.80000000000001</ele><time>2026-03-28T09:37:08.999Z</time></trkpt><trkpt lat="45.42026966239147" lon="10.787650955557497"><ele>124.0</ele><time>2026-03-28T09:37:09.999Z</time></trkpt><trkpt lat="45.420355535187255" lon="10.787794559170832"><ele>124.0</ele><time>2026-03-28T09:37:10.999Z</time></trkpt><trkpt lat="45.42044210599973" lon="10.787922084957922"><ele>124.0</ele><time>2026-03-28T09:37:11.999Z</time></trkpt><trkpt lat="45.420523270961624" lon="10.788047254698995"><ele>124.0</ele><time>2026-03-28T09:37:12.999Z</time></trkpt><trkpt lat="45.420620661740536" lon="10.788154308525401"><ele>124.0</ele><time>2026-03-28T09:37:13.999Z</time></trkpt><trkpt lat="45.42071383731974" lon="10.788253425917892"><ele>125.25</ele><time>2026-03-28T09:37:14.999Z</time></trkpt><trkpt lat="45.42081396898579" lon="10.788349092395828"><ele>126.5</ele><time>2026-03-28T09:37:15.999Z</time></trkpt><trkpt lat="45.4209117612225" lon="10.78844375726065"><ele>127.75</ele><time>2026-03-28T09:37:16.999Z</time></trkpt><trkpt lat="45.42100875905408" lon="10.788552782939819"><ele>129.0</ele><time>2026-03-28T09:37:17.999Z</time></trkpt><trkpt lat="45.42110132411863" lon="10.788658902466135"><ele>129.0</ele><time>2026-03-28T09:37:18.999Z</time></trkpt><trkpt lat="45.42118817591818" lon="10.788771674098625"><ele>129.0</ele><time>2026-03-28T09:37:19.999Z</time></trkpt><trkpt lat="45.421284782600885" lon="10.788881247460491"><ele>129.0</ele><time>2026-03-28T09:37:20.999Z</time></trkpt><trkpt lat="45.421379133075476" lon="10.788993934783996"><ele>129.0</ele><time>2026-03-28T09:37:21.999Z</time></trkpt><trkpt lat="45.42147066905969" lon="10.789123912459367"><ele>129.25</ele><time>2026-03-28T09:37:22.999Z</time></trkpt><trkpt lat="45.421556901212156" lon="10.789262510146077"><ele>129.5</ele><time>2026-03-28T09:37:23.999Z</time></trkpt><trkpt lat="45.421634653331154" lon="10.789409970595539"><ele>129.75</ele><time>2026-03-28T09:37:25Z</time></trkpt><trkpt lat="45.4217129653517" lon="10.789559045784916"><ele>130.0</ele><time>2026-03-28T09:37:26Z</time></trkpt><trkpt lat="45.42177608756995" lon="10.78971711642759"><ele>130.2</ele><time>2026-03-28T09:37:27Z</time></trkpt><trkpt lat="45.42182762031826" lon="10.789868042123237"><ele>130.4</ele><time>2026-03-28T09:37:28Z</time></trkpt><trkpt lat="45.421882773535444" lon="10.79000518011408"><ele>130.6</ele><time>2026-03-28T09:37:29Z</time></trkpt><trkpt lat="45.42192883511367" lon="10.790128917902711"><ele>130.8</ele><time>2026-03-28T09:37:30Z</time></trkpt><trkpt lat="45.42197227147991" lon="10.790265178002059"><ele>131.0</ele><time>2026-03-28T09:37:31Z</time></trkpt><trkpt lat="45.422021393051736" lon="10.790384254744984"><ele>131.0</ele><time>2026-03-28T09:37:32Z</time></trkpt><trkpt lat="45.42206945754125" lon="10.790494088915205"><ele>131.0</ele><time>2026-03-28T09:37:33Z</time></trkpt><trkpt lat="45.422121914946345" lon="10.790552065700854"><ele>131.0</ele><time>2026-03-28T09:37:34Z</time></trkpt><trkpt lat="45.42222170780657" lon="10.79054793170189"><ele>131.0</ele><time>2026-03-28T09:37:36Z</time></trkpt><trkpt lat="45.42231247462853" lon="10.790451523049404"><ele>131.0</ele><time>2026-03-28T09:37:37Z</time></trkpt><trkpt lat="45.42239131050362" lon="10.79040399971287"><ele>131.0</ele><time>2026-03-28T09:37:38Z</time></trkpt><trkpt lat="45.42249018677667" lon="10.790384013145939"><ele>131.0</ele><time>2026-03-28T09:37:39Z</time></trkpt><trkpt lat="45.42260006775959" lon="10.790378751347365"><ele>131.0</ele><time>2026-03-28T09:37:40Z</time></trkpt><trkpt lat="45.42271406641255" lon="10.790362133768518"><ele>131.0</ele><time>2026-03-28T09:37:41Z</time></trkpt><trkpt lat="45.42284008794957" lon="10.790340121358316"><ele>131.0</ele><time>2026-03-28T09:37:42Z</time></trkpt><trkpt lat="45.42296570100254" lon="10.790304913891536"><ele>131.0</ele><time>2026-03-28T09:37:43Z</time></trkpt><trkpt lat="45.42308691452984" lon="10.790276391761843"><ele>131.0</ele><time>2026-03-28T09:37:44Z</time></trkpt><trkpt lat="45.423205690055674" lon="10.790250468862295"><ele>131.0</ele><time>2026-03-28T09:37:45Z</time></trkpt><trkpt lat="45.423331667367094" lon="10.790215162791062"><ele>130.75</ele><time>2026-03-28T09:37:46Z</time></trkpt><trkpt lat="45.42346401899582" lon="10.790179077575196"><ele>130.5</ele><time>2026-03-28T09:37:47Z</time></trkpt><trkpt lat="45.42358858413297" lon="10.790146530933411"><ele>130.25</ele><time>2026-03-28T09:37:48Z</time></trkpt><trkpt lat="45.423700786492894" lon="10.790109378881358"><ele>130.0</ele><time>2026-03-28T09:37:49Z</time></trkpt><trkpt lat="45.42378901193886" lon="10.790060174318155"><ele>130.2</ele><time>2026-03-28T09:37:50Z</time></trkpt><trkpt lat="45.42385900124952" lon="10.790019501859103"><ele>130.4</ele><time>2026-03-28T09:37:51Z</time></trkpt><trkpt lat="45.42395210097073" lon="10.789969206718013"><ele>130.6</ele><time>2026-03-28T09:37:53Z</time></trkpt><trkpt lat="45.42403531595281" lon="10.789948980614769"><ele>130.8</ele><time>2026-03-28T09:37:57Z</time></trkpt><trkpt lat="45.42402742196889" lon="10.790198076339275"><ele>131.0</ele><time>2026-03-28T09:37:59Z</time></trkpt><trkpt lat="45.42403815740613" lon="10.790316901171588"><ele>131.0</ele><time>2026-03-28T09:38:00Z</time></trkpt><trkpt lat="45.424049474689575" lon="10.790442166066764"><ele>131.0</ele><time>2026-03-28T09:38:01Z</time></trkpt><trkpt lat="45.42406222601945" lon="10.790583303795367"><ele>131.0</ele><time>2026-03-28T09:38:02Z</time></trkpt><trkpt lat="45.42409208821442" lon="10.790740520068114"><ele>131.0</ele><time>2026-03-28T09:38:03Z</time></trkpt><trkpt lat="45.424105006116655" lon="10.790925224220388"><ele>131.0</ele><time>2026-03-28T09:38:04Z</time></trkpt><trkpt lat="45.424112196858474" lon="10.791122972539634"><ele>131.0</ele><time>2026-03-28T09:38:05Z</time></trkpt><trkpt lat="45.42412056604546" lon="10.791330720641882"><ele>131.0</ele><time>2026-03-28T09:38:06Z</time></trkpt><trkpt lat="45.42411769591587" lon="10.79153029538841"><ele>131.0</ele><time>2026-03-28T09:38:07Z</time></trkpt><trkpt lat="45.424110448029154" lon="10.791708345461162"><ele>131.0</ele><time>2026-03-28T09:38:08Z</time></trkpt><trkpt lat="45.42410627412068" lon="10.791869362893355"><ele>130.6</ele><time>2026-03-28T09:38:09Z</time></trkpt><trkpt lat="45.42410657751466" lon="10.792003367716676"><ele>130.2</ele><time>2026-03-28T09:38:10Z</time></trkpt><trkpt lat="45.424114238188984" lon="10.792093004013088"><ele>129.8</ele><time>2026-03-28T09:38:11Z</time></trkpt><trkpt lat="45.42416723218858" lon="10.792230862975542"><ele>129.4</ele><time>2026-03-28T09:38:13Z</time></trkpt><trkpt lat="45.424290169584665" lon="10.792207924725727"><ele>129.0</ele><time>2026-03-28T09:38:14Z</time></trkpt><trkpt lat="45.42439861779786" lon="10.792226852854082"><ele>129.0</ele><time>2026-03-28T09:38:15Z</time></trkpt><trkpt lat="45.42451743320488" lon="10.792270649607357"><ele>129.0</ele><time>2026-03-28T09:38:16Z</time></trkpt><trkpt lat="45.4246351467812" lon="10.792321250491888"><ele>129.0</ele><time>2026-03-28T09:38:17Z</time></trkpt><trkpt lat="45.424743604113665" lon="10.79235808660992"><ele>129.0</ele><time>2026-03-28T09:38:18Z</time></trkpt><trkpt lat="45.42484344121231" lon="10.792392424095834"><ele>128.33333333333334</ele><time>2026-03-28T09:38:19Z</time></trkpt><trkpt lat="45.42493507426199" lon="10.792424546979769"><ele>127.66666666666666</ele><time>2026-03-28T09:38:20Z</time></trkpt><trkpt lat="45.42501635594677" lon="10.792454556304902"><ele>127.0</ele><time>2026-03-28T09:38:21Z</time></trkpt><trkpt lat="45.42508556782693" lon="10.792481087586541"><ele>126.33333333333333</ele><time>2026-03-28T09:38:22Z</time></trkpt><trkpt lat="45.42514680258959" lon="10.792506299441431"><ele>125.66666666666666</ele><time>2026-03-28T09:38:23Z</time></trkpt><trkpt lat="45.42521488556825" lon="10.792542489236984"><ele>125.0</ele><time>2026-03-28T09:38:26Z</time></trkpt><trkpt lat="45.42528203342807" lon="10.792560008336476"><ele>125.0</ele><time>2026-03-28T09:38:30Z</time></trkpt><trkpt lat="45.425345509364405" lon="10.792560958453294"><ele>125.0</ele><time>2026-03-28T09:38:31Z</time></trkpt><trkpt lat="45.425446015406536" lon="10.792518468568527"><ele>125.0</ele><time>2026-03-28T09:38:32Z</time></trkpt><trkpt lat="45.42556749565721" lon="10.792464581562193"><ele>125.0</ele><time>2026-03-28T09:38:33Z</time></trkpt><trkpt lat="45.425707988577685" lon="10.792411990230317"><ele>125.0</ele><time>2026-03-28T09:38:34Z</time></trkpt><trkpt lat="45.42585703472371" lon="10.792352972010336"><ele>125.33333333333333</ele><time>2026-03-28T09:38:35Z</time></trkpt><trkpt lat="45.426017466216024" lon="10.792293555833005"><ele>125.66666666666666</ele><time>2026-03-28T09:38:36Z</time></trkpt><trkpt lat="45.42618573705391" lon="10.792237769145046"><ele>126.0</ele><time>2026-03-28T09:38:37Z</time></trkpt><trkpt lat="45.426365483530844" lon="10.792181855810796"><ele>125.33333333333334</ele><time>2026-03-28T09:38:38Z</time></trkpt><trkpt lat="45.42655038413894" lon="10.792129369463343"><ele>124.66666666666667</ele><time>2026-03-28T09:38:39Z</time></trkpt><trkpt lat="45.4267418539846" lon="10.792068346237716"><ele>124.0</ele><time>2026-03-28T09:38:40Z</time></trkpt><trkpt lat="45.42693243033291" lon="10.792011804135274"><ele>124.0</ele><time>2026-03-28T09:38:41Z</time></trkpt><trkpt lat="45.42713282742896" lon="10.79195111736671"><ele>124.0</ele><time>2026-03-28T09:38:42Z</time></trkpt><trkpt lat="45.427327236011614" lon="10.791889354187692"><ele>124.0</ele><time>2026-03-28T09:38:43Z</time></trkpt><trkpt lat="45.42752788469568" lon="10.79182799168216"><ele>124.0</ele><time>2026-03-28T09:38:44Z</time></trkpt><trkpt lat="45.42772259527647" lon="10.791772718336382"><ele>124.0</ele><time>2026-03-28T09:38:45Z</time></trkpt><trkpt lat="45.4279151154944" lon="10.79170951423779"><ele>124.0</ele><time>2026-03-28T09:38:46Z</time></trkpt><trkpt lat="45.42810796050775" lon="10.791647452363561"><ele>124.33333333333334</ele><time>2026-03-28T09:38:47Z</time></trkpt><trkpt lat="45.42829564111386" lon="10.791586197511343"><ele>124.66666666666666</ele><time>2026-03-28T09:38:48Z</time></trkpt><trkpt lat="45.42848108719353" lon="10.791524407227975"><ele>125.0</ele><time>2026-03-28T09:38:49Z</time></trkpt><trkpt lat="45.428662364242264" lon="10.791472210805278"><ele>125.0</ele><time>2026-03-28T09:38:50Z</time></trkpt><trkpt lat="45.42884700624077" lon="10.791407090779005"><ele>125.0</ele><time>2026-03-28T09:38:51Z</time></trkpt><trkpt lat="45.429021989436826" lon="10.791353988889762"><ele>125.0</ele><time>2026-03-28T09:38:52Z</time></trkpt><trkpt lat="45.429185317659545" lon="10.791297938021703"><ele>125.0</ele><time>2026-03-28T09:38:53Z</time></trkpt><trkpt lat="45.42931981004151" lon="10.791237347780138"><ele>125.0</ele><time>2026-03-28T09:38:54Z</time></trkpt><trkpt lat="45.42945017064045" lon="10.7912151815683"><ele>125.0</ele><time>2026-03-28T09:38:54.999Z</time></trkpt><trkpt lat="45.42956068328127" lon="10.791192999025839"><ele>125.0</ele><time>2026-03-28T09:38:55.999Z</time></trkpt><trkpt lat="45.429648766344144" lon="10.791152575353857"><ele>125.2</ele><time>2026-03-28T09:38:56.999Z</time></trkpt><trkpt lat="45.429720348387185" lon="10.791135258345596"><ele>125.4</ele><time>2026-03-28T09:38:57.999Z</time></trkpt><trkpt lat="45.429816618427026" lon="10.791098995773018"><ele>125.6</ele><time>2026-03-28T09:38:59.999Z</time></trkpt><trkpt lat="45.4298917872189" lon="10.79121172347552"><ele>125.8</ele><time>2026-03-28T09:39:00.999Z</time></trkpt><trkpt lat="45.42993695451833" lon="10.791283812089643"><ele>126.0</ele><time>2026-03-28T09:39:01.999Z</time></trkpt><trkpt lat="45.42998598746781" lon="10.791410223080605"><ele>126.0</ele><time>2026-03-28T09:39:02.999Z</time></trkpt><trkpt lat="45.43005671345254" lon="10.791520862074501"><ele>126.0</ele><time>2026-03-28T09:39:03.999Z</time></trkpt><trkpt lat="45.43010715381329" lon="10.791616394991891"><ele>126.0</ele><time>2026-03-28T09:39:04.999Z</time></trkpt><trkpt lat="45.43025181902369" lon="10.791606484008646"><ele>126.0</ele><time>2026-03-28T09:39:05.999Z</time></trkpt><trkpt lat="45.43038002835079" lon="10.791572231167317"><ele>126.33333333333334</ele><time>2026-03-28T09:39:06.999Z</time></trkpt><trkpt lat="45.43051820051336" lon="10.791519741900357"><ele>126.66666666666667</ele><time>2026-03-28T09:39:07.999Z</time></trkpt><trkpt lat="45.4306681616149" lon="10.791492696716052"><ele>127.0</ele><time>2026-03-28T09:39:08.999Z</time></trkpt><trkpt lat="45.430835817951454" lon="10.791473019414155"><ele>127.0</ele><time>2026-03-28T09:39:09.999Z</time></trkpt><trkpt lat="45.431001300278716" lon="10.791440459413616"><ele>127.0</ele><time>2026-03-28T09:39:10.999Z</time></trkpt><trkpt lat="45.43116170730214" lon="10.791417998248614"><ele>127.0</ele><time>2026-03-28T09:39:11.999Z</time></trkpt><trkpt lat="45.431316521597196" lon="10.791404648806978"><ele>126.5</ele><time>2026-03-28T09:39:12.999Z</time></trkpt><trkpt lat="45.43146945605489" lon="10.791434498717964"><ele>126.0</ele><time>2026-03-28T09:39:13.999Z</time></trkpt><trkpt lat="45.43160708382291" lon="10.791452864902034"><ele>125.5</ele><time>2026-03-28T09:39:14.999Z</time></trkpt><trkpt lat="45.4317432559461" lon="10.79153228101219"><ele>125.0</ele><time>2026-03-28T09:39:15.999Z</time></trkpt><trkpt lat="45.431882323243265" lon="10.791636474064491"><ele>125.0</ele><time>2026-03-28T09:39:16.999Z</time></trkpt><trkpt lat="45.4320321880304" lon="10.791743980057904"><ele>125.0</ele><time>2026-03-28T09:39:17.999Z</time></trkpt><trkpt lat="45.43218541728053" lon="10.79185193684623"><ele>125.0</ele><time>2026-03-28T09:39:18.999Z</time></trkpt><trkpt lat="45.43233501059365" lon="10.791959239455318"><ele>125.66666666666666</ele><time>2026-03-28T09:39:19.999Z</time></trkpt><trkpt lat="45.43248860558651" lon="10.792076552447957"><ele>126.33333333333334</ele><time>2026-03-28T09:39:20.999Z</time></trkpt><trkpt lat="45.43264809605604" lon="10.792190351077275"><ele>127.0</ele><time>2026-03-28T09:39:21.999Z</time></trkpt><trkpt lat="45.4328144019583" lon="10.792286138581177"><ele>127.0</ele><time>2026-03-28T09:39:22.999Z</time></trkpt><trkpt lat="45.43296568613816" lon="10.79233962858175"><ele>127.0</ele><time>2026-03-28T09:39:23.999Z</time></trkpt><trkpt lat="45.43311994597682" lon="10.792352684469623"><ele>127.0</ele><time>2026-03-28T09:39:24.999Z</time></trkpt><trkpt lat="45.43329183092982" lon="10.792362395969672"><ele>128.33333333333334</ele><time>2026-03-28T09:39:25.999Z</time></trkpt><trkpt lat="45.43346826113548" lon="10.792376043036574"><ele>129.66666666666666</ele><time>2026-03-28T09:39:26.999Z</time></trkpt><trkpt lat="45.43364168541939" lon="10.792387684597053"><ele>131.0</ele><time>2026-03-28T09:39:27.999Z</time></trkpt><trkpt lat="45.43381835938356" lon="10.792392725576827"><ele>131.0</ele><time>2026-03-28T09:39:28.999Z</time></trkpt><trkpt lat="45.433995020997834" lon="10.792397074311868"><ele>131.0</ele><time>2026-03-28T09:39:29.999Z</time></trkpt><trkpt lat="45.4341929761049" lon="10.792389849347709"><ele>131.0</ele><time>2026-03-28T09:39:31Z</time></trkpt><trkpt lat="45.434398166718665" lon="10.79237100263563"><ele>131.0</ele><time>2026-03-28T09:39:32Z</time></trkpt><trkpt lat="45.434607339545835" lon="10.79234501783139"><ele>131.0</ele><time>2026-03-28T09:39:33Z</time></trkpt><trkpt lat="45.43480868546407" lon="10.792300413951969"><ele>131.0</ele><time>2026-03-28T09:39:34Z</time></trkpt><trkpt lat="45.4350014831974" lon="10.792273666694603"><ele>131.0</ele><time>2026-03-28T09:39:35Z</time></trkpt><trkpt lat="45.43517574535989" lon="10.79225605188314"><ele>131.0</ele><time>2026-03-28T09:39:36Z</time></trkpt><trkpt lat="45.435356269200646" lon="10.792227552928894"><ele>131.0</ele><time>2026-03-28T09:39:37Z</time></trkpt><trkpt lat="45.43553801790168" lon="10.79220578434442"><ele>132.0</ele><time>2026-03-28T09:39:38Z</time></trkpt><trkpt lat="45.43570973191024" lon="10.792189427303658"><ele>133.0</ele><time>2026-03-28T09:39:39Z</time></trkpt><trkpt lat="45.43587602424446" lon="10.792162178549425"><ele>134.0</ele><time>2026-03-28T09:39:40Z</time></trkpt><trkpt lat="45.43604269656224" lon="10.792131706570949"><ele>134.0</ele><time>2026-03-28T09:39:41Z</time></trkpt><trkpt lat="45.436209123725305" lon="10.79211320964288"><ele>134.0</ele><time>2026-03-28T09:39:42Z</time></trkpt><trkpt lat="45.43637268955049" lon="10.7920906922373"><ele>134.0</ele><time>2026-03-28T09:39:43Z</time></trkpt><trkpt lat="45.436534004148626" lon="10.792075463193639"><ele>134.0</ele><time>2026-03-28T09:39:44Z</time></trkpt><trkpt lat="45.43666035526505" lon="10.792062536982614"><ele>134.0</ele><time>2026-03-28T09:39:45Z</time></trkpt><trkpt lat="45.43675176605037" lon="10.792044052319515"><ele>134.0</ele><time>2026-03-28T09:39:46Z</time></trkpt><trkpt lat="45.43684852714302" lon="10.792038805851526"><ele>134.0</ele><time>2026-03-28T09:39:48Z</time></trkpt><trkpt lat="45.43690389738209" lon="10.791993314569979"><ele>134.0</ele><time>2026-03-28T09:39:57Z</time></trkpt><trkpt lat="45.43692700758392" lon="10.791647290751435"><ele>134.0</ele><time>2026-03-28T09:39:58Z</time></trkpt><trkpt lat="45.43697459701758" lon="10.791541146001176"><ele>134.0</ele><time>2026-03-28T09:39:59Z</time></trkpt><trkpt lat="45.4370155752645" lon="10.791422318182189"><ele>134.0</ele><time>2026-03-28T09:40:00Z</time></trkpt><trkpt lat="45.43703370865547" lon="10.79131085448272"><ele>134.0</ele><time>2026-03-28T09:40:01Z</time></trkpt><trkpt lat="45.43701373174201" lon="10.791190360159579"><ele>134.0</ele><time>2026-03-28T09:40:02Z</time></trkpt><trkpt lat="45.43695797423665" lon="10.791053669536891"><ele>134.0</ele><time>2026-03-28T09:40:03Z</time></trkpt><trkpt lat="45.43688361564958" lon="10.790889792868935"><ele>134.0</ele><time>2026-03-28T09:40:04Z</time></trkpt><trkpt lat="45.43678902741931" lon="10.790745870032326"><ele>134.0</ele><time>2026-03-28T09:40:05Z</time></trkpt><trkpt lat="45.43670401252798" lon="10.79062913058215"><ele>134.0</ele><time>2026-03-28T09:40:06Z</time></trkpt><trkpt lat="45.43664537688907" lon="10.790568499512391"><ele>134.0</ele><time>2026-03-28T09:40:07Z</time></trkpt><trkpt lat="45.43661902645345" lon="10.790461192340324"><ele>134.0</ele><time>2026-03-28T09:40:09Z</time></trkpt><trkpt lat="45.436687945470496" lon="10.790327576309542"><ele>134.0</ele><time>2026-03-28T09:40:11Z</time></trkpt><trkpt lat="45.43675068149206" lon="10.790260027564655"><ele>134.0</ele><time>2026-03-28T09:40:12Z</time></trkpt><trkpt lat="45.43684310777331" lon="10.790152093044197"><ele>134.0</ele><time>2026-03-28T09:40:13Z</time></trkpt><trkpt lat="45.436932834987175" lon="10.790004520887834"><ele>133.4</ele><time>2026-03-28T09:40:14Z</time></trkpt><trkpt lat="45.43702476703608" lon="10.78985973152745"><ele>132.8</ele><time>2026-03-28T09:40:15Z</time></trkpt><trkpt lat="45.437098816307106" lon="10.789748805753216"><ele>132.2</ele><time>2026-03-28T09:40:16Z</time></trkpt><trkpt lat="45.437157862226606" lon="10.789656296216704"><ele>131.6</ele><time>2026-03-28T09:40:17Z</time></trkpt><trkpt lat="45.43720879054683" lon="10.789578638587688"><ele>131.0</ele><time>2026-03-28T09:40:18Z</time></trkpt><trkpt lat="45.43726276011372" lon="10.789430494425776"><ele>130.6</ele><time>2026-03-28T09:40:20Z</time></trkpt><trkpt lat="45.43721805863858" lon="10.789304343934607"><ele>130.2</ele><time>2026-03-28T09:40:22Z</time></trkpt><trkpt lat="45.43715764514506" lon="10.789277965571653"><ele>129.8</ele><time>2026-03-28T09:40:23Z</time></trkpt><trkpt lat="45.4370542229269" lon="10.789238451250439"><ele>129.4</ele><time>2026-03-28T09:40:24Z</time></trkpt><trkpt lat="45.43694598981589" lon="10.789188659158798"><ele>129.0</ele><time>2026-03-28T09:40:25Z</time></trkpt><trkpt lat="45.436884818945266" lon="10.789080474730408"><ele>129.0</ele><time>2026-03-28T09:40:27Z</time></trkpt><trkpt lat="45.4369263768097" lon="10.788937883383342"><ele>129.0</ele><time>2026-03-28T09:40:29Z</time></trkpt><trkpt lat="45.436969705531006" lon="10.788852529317813"><ele>129.0</ele><time>2026-03-28T09:40:30Z</time></trkpt><trkpt lat="45.43702843205892" lon="10.788773882368679"><ele>129.0</ele><time>2026-03-28T09:40:31Z</time></trkpt><trkpt lat="45.43706370739691" lon="10.788698676907993"><ele>129.0</ele><time>2026-03-28T09:40:32Z</time></trkpt><trkpt lat="45.43706580228474" lon="10.788592367574969"><ele>129.0</ele><time>2026-03-28T09:40:33Z</time></trkpt><trkpt lat="45.437047443775036" lon="10.788464508939716"><ele>128.66666666666666</ele><time>2026-03-28T09:40:34Z</time></trkpt><trkpt lat="45.43702436880501" lon="10.788315744223883"><ele>128.33333333333334</ele><time>2026-03-28T09:40:35Z</time></trkpt><trkpt lat="45.437005016395226" lon="10.788181001069875"><ele>128.0</ele><time>2026-03-28T09:40:36Z</time></trkpt><trkpt lat="45.436999690193296" lon="10.788080441087773"><ele>127.66666666666667</ele><time>2026-03-28T09:40:37Z</time></trkpt><trkpt lat="45.43698325239497" lon="10.78799107396353"><ele>127.33333333333334</ele><time>2026-03-28T09:40:38Z</time></trkpt><trkpt lat="45.436963118478786" lon="10.78789006379071"><ele>127.0</ele><time>2026-03-28T09:40:39Z</time></trkpt><trkpt lat="45.43694326550617" lon="10.787781756742788"><ele>127.19999999999999</ele><time>2026-03-28T09:40:40Z</time></trkpt><trkpt lat="45.43694421186227" lon="10.787660330379946"><ele>127.39999999999999</ele><time>2026-03-28T09:40:41Z</time></trkpt><trkpt lat="45.4369396537582" lon="10.787564300720875"><ele>127.60000000000001</ele><time>2026-03-28T09:40:42Z</time></trkpt><trkpt lat="45.436949393412384" lon="10.787424072550687"><ele>127.80000000000001</ele><time>2026-03-28T09:40:43Z</time></trkpt><trkpt lat="45.43697880960194" lon="10.787275465193177"><ele>128.0</ele><time>2026-03-28T09:40:44Z</time></trkpt><trkpt lat="45.43701673030297" lon="10.787152348206703"><ele>127.99999999999999</ele><time>2026-03-28T09:40:45Z</time></trkpt><trkpt lat="45.43705920488303" lon="10.787039491696758"><ele>128.0</ele><time>2026-03-28T09:40:46Z</time></trkpt><trkpt lat="45.437077395546" lon="10.786943633201627"><ele>128.0</ele><time>2026-03-28T09:40:47Z</time></trkpt><trkpt lat="45.43710392106924" lon="10.786833521461393"><ele>128.0</ele><time>2026-03-28T09:40:47.999Z</time></trkpt><trkpt lat="45.43714718070279" lon="10.786740373761205"><ele>127.99999999999999</ele><time>2026-03-28T09:40:48.999Z</time></trkpt><trkpt lat="45.43718618140079" lon="10.786618356870822"><ele>128.0</ele><time>2026-03-28T09:40:49.999Z</time></trkpt><trkpt lat="45.437213827936404" lon="10.78647478230342"><ele>127.80000000000001</ele><time>2026-03-28T09:40:50.999Z</time></trkpt><trkpt lat="45.43724997648939" lon="10.786340605866478"><ele>127.60000000000001</ele><time>2026-03-28T09:40:51.999Z</time></trkpt><trkpt lat="45.43727577429004" lon="10.786204806721551"><ele>127.39999999999999</ele><time>2026-03-28T09:40:52.999Z</time></trkpt><trkpt lat="45.43729581626597" lon="10.786059475568095"><ele>127.19999999999999</ele><time>2026-03-28T09:40:53.999Z</time></trkpt><trkpt lat="45.4373298236546" lon="10.785913061910328"><ele>127.0</ele><time>2026-03-28T09:40:54.999Z</time></trkpt><trkpt lat="45.43736329736689" lon="10.785785518042003"><ele>128.2</ele><time>2026-03-28T09:40:55.999Z</time></trkpt><trkpt lat="45.43740316316462" lon="10.785651811991288"><ele>129.39999999999998</ele><time>2026-03-28T09:40:56.999Z</time></trkpt><trkpt lat="45.43744086687521" lon="10.785512690389789"><ele>130.60000000000002</ele><time>2026-03-28T09:40:57.999Z</time></trkpt><trkpt lat="45.437462691163496" lon="10.785396966946427"><ele>131.8</ele><time>2026-03-28T09:40:58.999Z</time></trkpt><trkpt lat="45.4374961200121" lon="10.785270931428125"><ele>133.0</ele><time>2026-03-28T09:40:59.999Z</time></trkpt><trkpt lat="45.43751761160518" lon="10.785159387275767"><ele>133.66666666666669</ele><time>2026-03-28T09:41:00.999Z</time></trkpt><trkpt lat="45.43753985326019" lon="10.785070276708495"><ele>134.33333333333334</ele><time>2026-03-28T09:41:01.999Z</time></trkpt><trkpt lat="45.43754912736772" lon="10.784969772721437"><ele>135.0</ele><time>2026-03-28T09:41:02.999Z</time></trkpt><trkpt lat="45.43757328766791" lon="10.784846687097343"><ele>135.66666666666666</ele><time>2026-03-28T09:41:03.999Z</time></trkpt><trkpt lat="45.4375874833386" lon="10.78471386440641"><ele>136.33333333333331</ele><time>2026-03-28T09:41:04.999Z</time></trkpt><trkpt lat="45.437612678037425" lon="10.784602629732463"><ele>137.0</ele><time>2026-03-28T09:41:05.999Z</time></trkpt><trkpt lat="45.43763009644339" lon="10.784459024853168"><ele>136.5</ele><time>2026-03-28T09:41:06.999Z</time></trkpt><trkpt lat="45.43764727414296" lon="10.784288535756854"><ele>136.0</ele><time>2026-03-28T09:41:07.999Z</time></trkpt><trkpt lat="45.43765668836533" lon="10.784099213190068"><ele>135.5</ele><time>2026-03-28T09:41:08.999Z</time></trkpt><trkpt lat="45.43765175733176" lon="10.783910345506209"><ele>135.0</ele><time>2026-03-28T09:41:09.999Z</time></trkpt><trkpt lat="45.437675335038215" lon="10.78372964435002"><ele>135.0</ele><time>2026-03-28T09:41:10.999Z</time></trkpt><trkpt lat="45.437667929131365" lon="10.783604233306761"><ele>135.0</ele><time>2026-03-28T09:41:11.999Z</time></trkpt><trkpt lat="45.43767476139757" lon="10.783514253252022"><ele>135.0</ele><time>2026-03-28T09:41:12.999Z</time></trkpt><trkpt lat="45.43769179738367" lon="10.783350382481535"><ele>135.0</ele><time>2026-03-28T09:41:13.999Z</time></trkpt><trkpt lat="45.43773059594656" lon="10.783149265437043"><ele>135.0</ele><time>2026-03-28T09:41:14.999Z</time></trkpt><trkpt lat="45.43774449819545" lon="10.782940773085858"><ele>133.75</ele><time>2026-03-28T09:41:15.999Z</time></trkpt><trkpt lat="45.43777517270297" lon="10.782739554624275"><ele>132.5</ele><time>2026-03-28T09:41:16.999Z</time></trkpt><trkpt lat="45.43778380830716" lon="10.782556921051597"><ele>131.25</ele><time>2026-03-28T09:41:17.999Z</time></trkpt><trkpt lat="45.43778456571653" lon="10.782430572369407"><ele>130.0</ele><time>2026-03-28T09:41:18.999Z</time></trkpt><trkpt lat="45.43783535621555" lon="10.782305847846668"><ele>127.33333333333334</ele><time>2026-03-28T09:41:20.999Z</time></trkpt><trkpt lat="45.438021010233186" lon="10.782297525956038"><ele>124.66666666666666</ele><time>2026-03-28T09:41:22.999Z</time></trkpt><trkpt lat="45.43815800105607" lon="10.782334548316813"><ele>122.0</ele><time>2026-03-28T09:41:23.999Z</time></trkpt><trkpt lat="45.43831165628786" lon="10.782373046552118"><ele>122.0</ele><time>2026-03-28T09:41:24.999Z</time></trkpt><trkpt lat="45.438487867044714" lon="10.782390835625973"><ele>122.0</ele><time>2026-03-28T09:41:25.999Z</time></trkpt><trkpt lat="45.43867041538616" lon="10.782396085108449"><ele>122.0</ele><time>2026-03-28T09:41:26.999Z</time></trkpt><trkpt lat="45.4388526623152" lon="10.78240683159518"><ele>122.33333333333333</ele><time>2026-03-28T09:41:27.999Z</time></trkpt><trkpt lat="45.43902706449261" lon="10.78242421639944"><ele>122.66666666666666</ele><time>2026-03-28T09:41:28.999Z</time></trkpt><trkpt lat="45.43918146365255" lon="10.78244915015031"><ele>123.0</ele><time>2026-03-28T09:41:29.999Z</time></trkpt><trkpt lat="45.4393242356259" lon="10.782466440229962"><ele>123.0</ele><time>2026-03-28T09:41:30.999Z</time></trkpt><trkpt lat="45.439444424752516" lon="10.782475114095103"><ele>123.00000000000001</ele><time>2026-03-28T09:41:31.999Z</time></trkpt><trkpt lat="45.439553245046724" lon="10.782481304314544"><ele>123.00000000000001</ele><time>2026-03-28T09:41:32.999Z</time></trkpt><trkpt lat="45.43964226445567" lon="10.782492620115116"><ele>123.0</ele><time>2026-03-28T09:41:33.999Z</time></trkpt><trkpt lat="45.43971074386001" lon="10.782499697444942"><ele>123.0</ele><time>2026-03-28T09:41:34.999Z</time></trkpt><trkpt lat="45.43979244547343" lon="10.78249494957737"><ele>123.25</ele><time>2026-03-28T09:41:37Z</time></trkpt><trkpt lat="45.43985534458514" lon="10.782330822854062"><ele>123.5</ele><time>2026-03-28T09:41:49Z</time></trkpt><trkpt lat="45.439848353368575" lon="10.782175803339976"><ele>123.75</ele><time>2026-03-28T09:41:50Z</time></trkpt><trkpt lat="45.43985396460738" lon="10.781994504569438"><ele>124.0</ele><time>2026-03-28T09:41:51Z</time></trkpt><trkpt lat="45.439874013761546" lon="10.781767629983136"><ele>123.5</ele><time>2026-03-28T09:41:52Z</time></trkpt><trkpt lat="45.43988907637625" lon="10.781544634131881"><ele>123.0</ele><time>2026-03-28T09:41:53Z</time></trkpt><trkpt lat="45.43990506729066" lon="10.781343645736628"><ele>122.5</ele><time>2026-03-28T09:41:54Z</time></trkpt><trkpt lat="45.43992258192677" lon="10.78116230049134"><ele>122.0</ele><time>2026-03-28T09:41:55Z</time></trkpt><trkpt lat="45.43994412268127" lon="10.78101929198476"><ele>121.8</ele><time>2026-03-28T09:41:56Z</time></trkpt><trkpt lat="45.43997750136514" lon="10.78091889142116"><ele>121.6</ele><time>2026-03-28T09:41:57Z</time></trkpt><trkpt lat="45.440107418770694" lon="10.780831068151745"><ele>121.39999999999999</ele><time>2026-03-28T09:41:59Z</time></trkpt><trkpt lat="45.4402130429288" lon="10.780848287704956"><ele>121.19999999999999</ele><time>2026-03-28T09:42:00Z</time></trkpt><trkpt lat="45.44032495248006" lon="10.780899219636334"><ele>121.0</ele><time>2026-03-28T09:42:01Z</time></trkpt><trkpt lat="45.44044232837792" lon="10.780961710030093"><ele>120.75</ele><time>2026-03-28T09:42:02Z</time></trkpt><trkpt lat="45.44057025008932" lon="10.78102707223498"><ele>120.5</ele><time>2026-03-28T09:42:03Z</time></trkpt><trkpt lat="45.44070289783072" lon="10.781090002373404"><ele>120.25</ele><time>2026-03-28T09:42:04Z</time></trkpt><trkpt lat="45.44082547542665" lon="10.78117236776022"><ele>120.0</ele><time>2026-03-28T09:42:05Z</time></trkpt><trkpt lat="45.44093804660607" lon="10.781270331387084"><ele>120.0</ele><time>2026-03-28T09:42:06Z</time></trkpt><trkpt lat="45.441043520072334" lon="10.78136363686025"><ele>120.0</ele><time>2026-03-28T09:42:07Z</time></trkpt><trkpt lat="45.441143036241286" lon="10.781448704620695"><ele>120.0</ele><time>2026-03-28T09:42:08Z</time></trkpt><trkpt lat="45.44124340664566" lon="10.781534275820508"><ele>120.0</ele><time>2026-03-28T09:42:09Z</time></trkpt><trkpt lat="45.44134710894007" lon="10.781608328334118"><ele>120.0</ele><time>2026-03-28T09:42:10Z</time></trkpt><trkpt lat="45.44145094630076" lon="10.781680519440387"><ele>120.0</ele><time>2026-03-28T09:42:11Z</time></trkpt><trkpt lat="45.4415482465782" lon="10.78175007804191"><ele>120.0</ele><time>2026-03-28T09:42:12Z</time></trkpt><trkpt lat="45.441641670122664" lon="10.781826802782252"><ele>120.0</ele><time>2026-03-28T09:42:13Z</time></trkpt><trkpt lat="45.44173320874961" lon="10.78189272571818"><ele>120.0</ele><time>2026-03-28T09:42:14Z</time></trkpt><trkpt lat="45.441822829932505" lon="10.781945281088477"><ele>119.8</ele><time>2026-03-28T09:42:15Z</time></trkpt><trkpt lat="45.44191265493308" lon="10.781980032262553"><ele>119.6</ele><time>2026-03-28T09:42:16Z</time></trkpt><trkpt lat="45.44199024254195" lon="10.78200829673483"><ele>119.4</ele><time>2026-03-28T09:42:17Z</time></trkpt><trkpt lat="45.44205430100508" lon="10.782024748416164"><ele>119.2</ele><time>2026-03-28T09:42:18Z</time></trkpt><trkpt lat="45.44216932079654" lon="10.782046685633128"><ele>119.0</ele><time>2026-03-28T09:42:20Z</time></trkpt><trkpt lat="45.442266202223294" lon="10.78205934212838"><ele>118.80000000000001</ele><time>2026-03-28T09:42:22Z</time></trkpt><trkpt lat="45.442348218381234" lon="10.782071590098933"><ele>118.60000000000001</ele><time>2026-03-28T09:42:24Z</time></trkpt><trkpt lat="45.442441423415616" lon="10.782104015423222"><ele>118.4</ele><time>2026-03-28T09:42:26Z</time></trkpt><trkpt lat="45.44255730315971" lon="10.78214988944352"><ele>118.2</ele><time>2026-03-28T09:42:28Z</time></trkpt><trkpt lat="45.44267451155837" lon="10.782181740212154"><ele>118.0</ele><time>2026-03-28T09:42:30Z</time></trkpt><trkpt lat="45.44279160374105" lon="10.782220553996023"><ele>118.0</ele><time>2026-03-28T09:42:32Z</time></trkpt><trkpt lat="45.442905105536724" lon="10.782261914504819"><ele>118.0</ele><time>2026-03-28T09:42:34Z</time></trkpt><trkpt lat="45.44299165782848" lon="10.782282268141246"><ele>118.0</ele><time>2026-03-28T09:42:35Z</time></trkpt><trkpt lat="45.443119801597824" lon="10.782313509615616"><ele>118.0</ele><time>2026-03-28T09:42:36Z</time></trkpt><trkpt lat="45.44327039795613" lon="10.782346548634225"><ele>118.33333333333334</ele><time>2026-03-28T09:42:37Z</time></trkpt><trkpt lat="45.443451784824234" lon="10.782376604686435"><ele>118.66666666666666</ele><time>2026-03-28T09:42:38Z</time></trkpt><trkpt lat="45.443661218609506" lon="10.78240682321504"><ele>119.0</ele><time>2026-03-28T09:42:39Z</time></trkpt><trkpt lat="45.44388615009295" lon="10.78244885736805"><ele>120.0</ele><time>2026-03-28T09:42:40Z</time></trkpt><trkpt lat="45.444112798572796" lon="10.782495789317101"><ele>121.0</ele><time>2026-03-28T09:42:41Z</time></trkpt><trkpt lat="45.44434231028058" lon="10.782542595860361"><ele>121.0</ele><time>2026-03-28T09:42:42Z</time></trkpt><trkpt lat="45.44455891810712" lon="10.78258988950645"><ele>121.0</ele><time>2026-03-28T09:42:43Z</time></trkpt><trkpt lat="45.444770029098144" lon="10.782630530960553"><ele>121.0</ele><time>2026-03-28T09:42:44Z</time></trkpt><trkpt lat="45.44497058281863" lon="10.782668603447041"><ele>121.0</ele><time>2026-03-28T09:42:45Z</time></trkpt><trkpt lat="45.44515783925457" lon="10.782704970923469"><ele>121.0</ele><time>2026-03-28T09:42:46Z</time></trkpt><trkpt lat="45.44532501932717" lon="10.782712923248116"><ele>121.0</ele><time>2026-03-28T09:42:47Z</time></trkpt><trkpt lat="45.4454817534885" lon="10.78267125770728"><ele>120.33333333333334</ele><time>2026-03-28T09:42:48Z</time></trkpt><trkpt lat="45.44564543071523" lon="10.782585296658498"><ele>119.66666666666666</ele><time>2026-03-28T09:42:48.999Z</time></trkpt><trkpt lat="45.44580351990587" lon="10.78247894854323"><ele>119.0</ele><time>2026-03-28T09:42:49.999Z</time></trkpt><trkpt lat="45.445980653675406" lon="10.782402791251464"><ele>119.0</ele><time>2026-03-28T09:42:50.999Z</time></trkpt><trkpt lat="45.44614400624192" lon="10.782294220932757"><ele>119.0</ele><time>2026-03-28T09:42:51.999Z</time></trkpt><trkpt lat="45.446315856124144" lon="10.782218153548062"><ele>119.0</ele><time>2026-03-28T09:42:52.999Z</time></trkpt><trkpt lat="45.4464786735562" lon="10.78214985491203"><ele>118.66666666666666</ele><time>2026-03-28T09:42:53.999Z</time></trkpt><trkpt lat="45.44662750358861" lon="10.782073971645286"><ele>118.33333333333334</ele><time>2026-03-28T09:42:54.999Z</time></trkpt><trkpt lat="45.44677222076984" lon="10.781967576014921"><ele>118.0</ele><time>2026-03-28T09:42:55.999Z</time></trkpt><trkpt lat="45.446904962733385" lon="10.781824319061796"><ele>118.0</ele><time>2026-03-28T09:42:56.999Z</time></trkpt><trkpt lat="45.44702775342934" lon="10.78163994812981"><ele>118.0</ele><time>2026-03-28T09:42:57.999Z</time></trkpt><trkpt lat="45.44715867925532" lon="10.781445749387261"><ele>118.0</ele><time>2026-03-28T09:42:58.999Z</time></trkpt><trkpt lat="45.447288166088796" lon="10.7812474681086"><ele>116.33333333333334</ele><time>2026-03-28T09:42:59.999Z</time></trkpt><trkpt lat="45.447420584634116" lon="10.781074745971877"><ele>114.66666666666666</ele><time>2026-03-28T09:43:00.999Z</time></trkpt><trkpt lat="45.44755247418227" lon="10.780950607221707"><ele>113.0</ele><time>2026-03-28T09:43:01.999Z</time></trkpt><trkpt lat="45.447704907611055" lon="10.780890633246528"><ele>113.0</ele><time>2026-03-28T09:43:02.999Z</time></trkpt><trkpt lat="45.44786235826211" lon="10.780811420752899"><ele>113.0</ele><time>2026-03-28T09:43:03.999Z</time></trkpt><trkpt lat="45.4480312102376" lon="10.780747284444056"><ele>113.0</ele><time>2026-03-28T09:43:04.999Z</time></trkpt><trkpt lat="45.44821048585821" lon="10.780668982008985"><ele>114.0</ele><time>2026-03-28T09:43:05.999Z</time></trkpt><trkpt lat="45.44838086532845" lon="10.780580845047275"><ele>115.0</ele><time>2026-03-28T09:43:06.999Z</time></trkpt><trkpt lat="45.448542434778346" lon="10.780492416321906"><ele>116.0</ele><time>2026-03-28T09:43:07.999Z</time></trkpt><trkpt lat="45.448674756774096" lon="10.780403320291502"><ele>116.0</ele><time>2026-03-28T09:43:08.999Z</time></trkpt><trkpt lat="45.448783616303" lon="10.780299936460938"><ele>116.0</ele><time>2026-03-28T09:43:09.999Z</time></trkpt><trkpt lat="45.448873107509336" lon="10.780183951488473"><ele>116.0</ele><time>2026-03-28T09:43:10.999Z</time></trkpt><trkpt lat="45.448943754103695" lon="10.780056712215075"><ele>116.0</ele><time>2026-03-28T09:43:11.999Z</time></trkpt><trkpt lat="45.448996292013405" lon="10.779942364519059"><ele>116.19999999999999</ele><time>2026-03-28T09:43:12.999Z</time></trkpt><trkpt lat="45.44905427800191" lon="10.779863146822642"><ele>116.39999999999999</ele><time>2026-03-28T09:43:13.999Z</time></trkpt><trkpt lat="45.44909703506822" lon="10.77979168871323"><ele>116.6</ele><time>2026-03-28T09:43:15.999Z</time></trkpt><trkpt lat="45.44896307282327" lon="10.779604983664093"><ele>116.8</ele><time>2026-03-28T09:43:16.999Z</time></trkpt><trkpt lat="45.44887053955056" lon="10.77951986538597"><ele>117.0</ele><time>2026-03-28T09:43:17.999Z</time></trkpt><trkpt lat="45.44874861960278" lon="10.779376636003002"><ele>117.0</ele><time>2026-03-28T09:43:18.999Z</time></trkpt><trkpt lat="45.44860539369794" lon="10.779206202635068"><ele>117.0</ele><time>2026-03-28T09:43:19.999Z</time></trkpt><trkpt lat="45.44845142353879" lon="10.779012017135319"><ele>117.0</ele><time>2026-03-28T09:43:20.999Z</time></trkpt><trkpt lat="45.44828103176351" lon="10.77879300368745"><ele>117.0</ele><time>2026-03-28T09:43:21.999Z</time></trkpt><trkpt lat="45.44809285401173" lon="10.77854752792362"><ele>117.0</ele><time>2026-03-28T09:43:22.999Z</time></trkpt><trkpt lat="45.447897890860446" lon="10.778294686310057"><ele>115.5</ele><time>2026-03-28T09:43:23.999Z</time></trkpt><trkpt lat="45.44769184068028" lon="10.778034378766845"><ele>114.0</ele><time>2026-03-28T09:43:24.999Z</time></trkpt><trkpt lat="45.447491807651566" lon="10.777774607531375"><ele>115.0</ele><time>2026-03-28T09:43:25.999Z</time></trkpt><trkpt lat="45.44730611414743" lon="10.7775289898865"><ele>116.0</ele><time>2026-03-28T09:43:26.999Z</time></trkpt><trkpt lat="45.44711825845066" lon="10.777280322092432"><ele>116.0</ele><time>2026-03-28T09:43:27.999Z</time></trkpt><trkpt lat="45.446932291207695" lon="10.777035770124543"><ele>116.0</ele><time>2026-03-28T09:43:28.999Z</time></trkpt><trkpt lat="45.44674819947195" lon="10.776795527229206"><ele>116.0</ele><time>2026-03-28T09:43:29.999Z</time></trkpt><trkpt lat="45.44659307588674" lon="10.776571704194216"><ele>116.0</ele><time>2026-03-28T09:43:30.999Z</time></trkpt><trkpt lat="45.44645376330982" lon="10.776336337411367"><ele>116.0</ele><time>2026-03-28T09:43:31.999Z</time></trkpt><trkpt lat="45.44633491404781" lon="10.776112952812147"><ele>114.66666666666666</ele><time>2026-03-28T09:43:32.999Z</time></trkpt><trkpt lat="45.44623650337495" lon="10.775883611961453"><ele>113.33333333333334</ele><time>2026-03-28T09:43:33.999Z</time></trkpt><trkpt lat="45.44616271557433" lon="10.7756410056222"><ele>112.0</ele><time>2026-03-28T09:43:34.999Z</time></trkpt><trkpt lat="45.44609353584316" lon="10.775364950375518"><ele>112.66666666666667</ele><time>2026-03-28T09:43:35.999Z</time></trkpt><trkpt lat="45.44600931849538" lon="10.775098714737473"><ele>113.33333333333334</ele><time>2026-03-28T09:43:36.999Z</time></trkpt><trkpt lat="45.4459068762543" lon="10.774849236824414"><ele>114.0</ele><time>2026-03-28T09:43:37.999Z</time></trkpt><trkpt lat="45.44584404093162" lon="10.774581714581418"><ele>113.66666666666666</ele><time>2026-03-28T09:43:38.999Z</time></trkpt><trkpt lat="45.445783592794236" lon="10.774314608190119"><ele>113.33333333333333</ele><time>2026-03-28T09:43:39.999Z</time></trkpt><trkpt lat="45.44572823336467" lon="10.77405119585262"><ele>113.0</ele><time>2026-03-28T09:43:40.999Z</time></trkpt><trkpt lat="45.44567786587136" lon="10.77380170784709"><ele>113.0</ele><time>2026-03-28T09:43:41.999Z</time></trkpt><trkpt lat="45.44561586723317" lon="10.773560045286164"><ele>113.0</ele><time>2026-03-28T09:43:43Z</time></trkpt><trkpt lat="45.445529902721866" lon="10.773325718760923"><ele>113.0</ele><time>2026-03-28T09:43:44Z</time></trkpt><trkpt lat="45.445446206575134" lon="10.773072353786876"><ele>112.66666666666666</ele><time>2026-03-28T09:43:45Z</time></trkpt><trkpt lat="45.445359902867175" lon="10.77283790540707"><ele>112.33333333333334</ele><time>2026-03-28T09:43:46Z</time></trkpt><trkpt lat="45.44525457346453" lon="10.772614440171695"><ele>112.0</ele><time>2026-03-28T09:43:47Z</time></trkpt><trkpt lat="45.44514274733236" lon="10.772423317451485"><ele>112.0</ele><time>2026-03-28T09:43:48Z</time></trkpt><trkpt lat="45.44505207337107" lon="10.77225444153316"><ele>112.0</ele><time>2026-03-28T09:43:49Z</time></trkpt><trkpt lat="45.44500067881407" lon="10.77209771852499"><ele>112.0</ele><time>2026-03-28T09:43:50Z</time></trkpt><trkpt lat="45.445004912345475" lon="10.771954048378127"><ele>112.0</ele><time>2026-03-28T09:43:51Z</time></trkpt><trkpt lat="45.44499573086606" lon="10.771774353175262"><ele>112.0</ele><time>2026-03-28T09:43:52Z</time></trkpt><trkpt lat="45.44498340594387" lon="10.771536158814506"><ele>112.0</ele><time>2026-03-28T09:43:53Z</time></trkpt><trkpt lat="45.44496637252248" lon="10.771264611866568"><ele>112.0</ele><time>2026-03-28T09:43:54Z</time></trkpt><trkpt lat="45.444949033523585" lon="10.770988193386998"><ele>114.0</ele><time>2026-03-28T09:43:55Z</time></trkpt><trkpt lat="45.44492549784041" lon="10.770707804917684"><ele>116.0</ele><time>2026-03-28T09:43:56Z</time></trkpt><trkpt lat="45.44489543049082" lon="10.770430771911702"><ele>118.0</ele><time>2026-03-28T09:43:57Z</time></trkpt><trkpt lat="45.44486079855533" lon="10.770165652597392"><ele>119.0</ele><time>2026-03-28T09:43:58Z</time></trkpt><trkpt lat="45.444793959585105" lon="10.769972292062988"><ele>120.0</ele><time>2026-03-28T09:43:59Z</time></trkpt><trkpt lat="45.44472467834329" lon="10.769796805358597"><ele>121.0</ele><time>2026-03-28T09:44:00Z</time></trkpt><trkpt lat="45.444660473389504" lon="10.769643060193694"><ele>122.0</ele><time>2026-03-28T09:44:01Z</time></trkpt><trkpt lat="45.44460120869351" lon="10.769510401162847"><ele>121.75</ele><time>2026-03-28T09:44:02Z</time></trkpt><trkpt lat="45.44453856843114" lon="10.769347377094425"><ele>121.5</ele><time>2026-03-28T09:44:03Z</time></trkpt><trkpt lat="45.4444653466757" lon="10.769166569011224"><ele>121.25</ele><time>2026-03-28T09:44:04Z</time></trkpt><trkpt lat="45.444395568143065" lon="10.769002205554562"><ele>121.0</ele><time>2026-03-28T09:44:05Z</time></trkpt><trkpt lat="45.44429682541573" lon="10.768843817324804"><ele>121.0</ele><time>2026-03-28T09:44:06Z</time></trkpt><trkpt lat="45.4442178509735" lon="10.76872274799977"><ele>121.0</ele><time>2026-03-28T09:44:07Z</time></trkpt><trkpt lat="45.4441288056058" lon="10.76862013685869"><ele>121.0</ele><time>2026-03-28T09:44:08Z</time></trkpt><trkpt lat="45.44404508348365" lon="10.768537498228921"><ele>121.0</ele><time>2026-03-28T09:44:09Z</time></trkpt><trkpt lat="45.44396426512433" lon="10.76846660092974"><ele>121.0</ele><time>2026-03-28T09:44:10Z</time></trkpt><trkpt lat="45.44389460166045" lon="10.76839869994458"><ele>120.16666666666667</ele><time>2026-03-28T09:44:11Z</time></trkpt><trkpt lat="45.44384409552996" lon="10.76832654266196"><ele>119.33333333333334</ele><time>2026-03-28T09:44:12Z</time></trkpt><trkpt lat="45.44384749202069" lon="10.768217788199278"><ele>118.5</ele><time>2026-03-28T09:44:14Z</time></trkpt><trkpt lat="45.443930086034044" lon="10.768136535133147"><ele>117.66666666666666</ele><time>2026-03-28T09:44:16Z</time></trkpt><trkpt lat="45.444005059082606" lon="10.768102630738628"><ele>116.83333333333333</ele><time>2026-03-28T09:44:17Z</time></trkpt><trkpt lat="45.44410756070814" lon="10.768099849651076"><ele>116.0</ele><time>2026-03-28T09:44:18Z</time></trkpt><trkpt lat="45.44423545146471" lon="10.7681137094709"><ele>116.0</ele><time>2026-03-28T09:44:19Z</time></trkpt><trkpt lat="45.44438145796743" lon="10.768112998330935"><ele>116.0</ele><time>2026-03-28T09:44:20Z</time></trkpt><trkpt lat="45.444532045011336" lon="10.768096661474567"><ele>116.0</ele><time>2026-03-28T09:44:21Z</time></trkpt><trkpt lat="45.44470055721191" lon="10.76807469268773"><ele>116.0</ele><time>2026-03-28T09:44:22Z</time></trkpt><trkpt lat="45.444880430747844" lon="10.76806340672932"><ele>116.0</ele><time>2026-03-28T09:44:23Z</time></trkpt><trkpt lat="45.44506668138071" lon="10.768043277773856"><ele>116.0</ele><time>2026-03-28T09:44:24Z</time></trkpt><trkpt lat="45.445258057500304" lon="10.76802108179296"><ele>116.0</ele><time>2026-03-28T09:44:25Z</time></trkpt><trkpt lat="45.445454255419094" lon="10.768000643455368"><ele>116.0</ele><time>2026-03-28T09:44:26Z</time></trkpt><trkpt lat="45.44565393806157" lon="10.767987765296645"><ele>116.0</ele><time>2026-03-28T09:44:27Z</time></trkpt><trkpt lat="45.445855633958" lon="10.767990769463193"><ele>115.33333333333333</ele><time>2026-03-28T09:44:28Z</time></trkpt><trkpt lat="45.44606397272329" lon="10.7680223845175"><ele>114.66666666666666</ele><time>2026-03-28T09:44:29Z</time></trkpt><trkpt lat="45.446273263358094" lon="10.76807259381883"><ele>114.0</ele><time>2026-03-28T09:44:30Z</time></trkpt><trkpt lat="45.44648138041838" lon="10.768151139978482"><ele>113.33333333333334</ele><time>2026-03-28T09:44:31Z</time></trkpt><trkpt lat="45.44668426936896" lon="10.7682469514303"><ele>112.66666666666667</ele><time>2026-03-28T09:44:32Z</time></trkpt><trkpt lat="45.44688802092911" lon="10.768353478823578"><ele>112.0</ele><time>2026-03-28T09:44:33Z</time></trkpt><trkpt lat="45.44708665785294" lon="10.768469661651876"><ele>113.0</ele><time>2026-03-28T09:44:34Z</time></trkpt><trkpt lat="45.447290759233" lon="10.768590683072928"><ele>114.0</ele><time>2026-03-28T09:44:35Z</time></trkpt><trkpt lat="45.44748954427166" lon="10.768718100731867"><ele>115.0</ele><time>2026-03-28T09:44:36Z</time></trkpt><trkpt lat="45.44768478458669" lon="10.768853546837727"><ele>115.0</ele><time>2026-03-28T09:44:37Z</time></trkpt><trkpt lat="45.447876224408326" lon="10.76898791251776"><ele>115.0</ele><time>2026-03-28T09:44:38Z</time></trkpt><trkpt lat="45.44806361002083" lon="10.769120469491115"><ele>115.0</ele><time>2026-03-28T09:44:39Z</time></trkpt><trkpt lat="45.448249997621836" lon="10.76925719658856"><ele>114.33333333333334</ele><time>2026-03-28T09:44:40Z</time></trkpt><trkpt lat="45.448424862185895" lon="10.769411760283345"><ele>113.66666666666666</ele><time>2026-03-28T09:44:41Z</time></trkpt><trkpt lat="45.448591961785525" lon="10.76958170270478"><ele>113.0</ele><time>2026-03-28T09:44:42Z</time></trkpt><trkpt lat="45.4487488169528" lon="10.769771262765936"><ele>113.66666666666666</ele><time>2026-03-28T09:44:43Z</time></trkpt><trkpt lat="45.44889235085523" lon="10.769960969983966"><ele>114.33333333333334</ele><time>2026-03-28T09:44:44Z</time></trkpt><trkpt lat="45.44901434486763" lon="10.770135692597343"><ele>115.0</ele><time>2026-03-28T09:44:45Z</time></trkpt><trkpt lat="45.44910167632384" lon="10.77027977686675"><ele>115.0</ele><time>2026-03-28T09:44:46Z</time></trkpt><trkpt lat="45.44916831801355" lon="10.770401624926132"><ele>115.0</ele><time>2026-03-28T09:44:47Z</time></trkpt><trkpt lat="45.449213235011705" lon="10.770476062413186"><ele>115.0</ele><time>2026-03-28T09:44:48Z</time></trkpt><trkpt lat="45.449312424900405" lon="10.770396285164082"><ele>115.0</ele><time>2026-03-28T09:44:52Z</time></trkpt><trkpt lat="45.44939242055491" lon="10.770376391957772"><ele>115.0</ele><time>2026-03-28T09:44:53Z</time></trkpt><trkpt lat="45.449486384320885" lon="10.770404113961597"><ele>115.0</ele><time>2026-03-28T09:44:54Z</time></trkpt><trkpt lat="45.449608097383596" lon="10.770402206353175"><ele>115.0</ele><time>2026-03-28T09:44:55Z</time></trkpt><trkpt lat="45.44974099288583" lon="10.77042516981163"><ele>115.0</ele><time>2026-03-28T09:44:56Z</time></trkpt><trkpt lat="45.44988595450673" lon="10.770442421349097"><ele>115.0</ele><time>2026-03-28T09:44:56.999Z</time></trkpt><trkpt lat="45.45004687486811" lon="10.770457716887707"><ele>115.0</ele><time>2026-03-28T09:44:57.999Z</time></trkpt><trkpt lat="45.450216917785006" lon="10.770489464538228"><ele>115.0</ele><time>2026-03-28T09:44:58.999Z</time></trkpt><trkpt lat="45.450392574109465" lon="10.770514021349124"><ele>115.0</ele><time>2026-03-28T09:44:59.999Z</time></trkpt><trkpt lat="45.45056957170271" lon="10.770565881645746"><ele>115.33333333333334</ele><time>2026-03-28T09:45:00.999Z</time></trkpt><trkpt lat="45.45075354093901" lon="10.770562847172764"><ele>115.66666666666666</ele><time>2026-03-28T09:45:01.999Z</time></trkpt><trkpt lat="45.450932848649764" lon="10.770586071817494"><ele>116.0</ele><time>2026-03-28T09:45:02.999Z</time></trkpt><trkpt lat="45.451116727816554" lon="10.77062986490732"><ele>116.33333333333333</ele><time>2026-03-28T09:45:03.999Z</time></trkpt><trkpt lat="45.45130344028605" lon="10.770665317098393"><ele>116.66666666666666</ele><time>2026-03-28T09:45:04.999Z</time></trkpt><trkpt lat="45.451497754209356" lon="10.770700200462581"><ele>117.0</ele><time>2026-03-28T09:45:05.999Z</time></trkpt><trkpt lat="45.45168172433332" lon="10.770730994910918"><ele>117.0</ele><time>2026-03-28T09:45:06.999Z</time></trkpt><trkpt lat="45.45187407613787" lon="10.77076847251258"><ele>117.0</ele><time>2026-03-28T09:45:07.999Z</time></trkpt><trkpt lat="45.452053091566846" lon="10.770799749567578"><ele>117.0</ele><time>2026-03-28T09:45:08.999Z</time></trkpt><trkpt lat="45.45224133180343" lon="10.770834768668127"><ele>117.66666666666666</ele><time>2026-03-28T09:45:09.999Z</time></trkpt><trkpt lat="45.45242274406416" lon="10.770865073382343"><ele>118.33333333333333</ele><time>2026-03-28T09:45:10.999Z</time></trkpt><trkpt lat="45.4526083734706" lon="10.77089512465364"><ele>119.0</ele><time>2026-03-28T09:45:11.999Z</time></trkpt><trkpt lat="45.45278360873471" lon="10.770922420110747"><ele>118.66666666666666</ele><time>2026-03-28T09:45:12.999Z</time></trkpt><trkpt lat="45.452970466571465" lon="10.770948271755941"><ele>118.33333333333334</ele><time>2026-03-28T09:45:13.999Z</time></trkpt><trkpt lat="45.45314930568014" lon="10.77098351975463"><ele>118.0</ele><time>2026-03-28T09:45:14.999Z</time></trkpt><trkpt lat="45.45333413803908" lon="10.77102807158659"><ele>118.0</ele><time>2026-03-28T09:45:15.999Z</time></trkpt><trkpt lat="45.45351351725172" lon="10.771067642001208"><ele>118.0</ele><time>2026-03-28T09:45:16.999Z</time></trkpt><trkpt lat="45.45368678744353" lon="10.771090639180843"><ele>118.0</ele><time>2026-03-28T09:45:17.999Z</time></trkpt><trkpt lat="45.45385775189293" lon="10.771113133570884"><ele>117.66666666666667</ele><time>2026-03-28T09:45:18.999Z</time></trkpt><trkpt lat="45.45403255071195" lon="10.771136548543303"><ele>117.33333333333334</ele><time>2026-03-28T09:45:19.999Z</time></trkpt><trkpt lat="45.45419331887663" lon="10.771172818089166"><ele>117.0</ele><time>2026-03-28T09:45:20.999Z</time></trkpt><trkpt lat="45.45434756825742" lon="10.771198289696288"><ele>117.0</ele><time>2026-03-28T09:45:21.999Z</time></trkpt><trkpt lat="45.45448073741225" lon="10.771214662692854"><ele>117.0</ele><time>2026-03-28T09:45:22.999Z</time></trkpt><trkpt lat="45.45459937896629" lon="10.771234874566328"><ele>117.0</ele><time>2026-03-28T09:45:23.999Z</time></trkpt><trkpt lat="45.45470855547956" lon="10.771253433357105"><ele>117.0</ele><time>2026-03-28T09:45:24.999Z</time></trkpt><trkpt lat="45.45480665117805" lon="10.771262468098636"><ele>117.6</ele><time>2026-03-28T09:45:25.999Z</time></trkpt><trkpt lat="45.454895223870565" lon="10.771266913861977"><ele>118.19999999999999</ele><time>2026-03-28T09:45:26.999Z</time></trkpt><trkpt lat="45.45496026730951" lon="10.771267455758712"><ele>118.8</ele><time>2026-03-28T09:45:27.999Z</time></trkpt><trkpt lat="45.45500609335974" lon="10.771476134071799"><ele>119.4</ele><time>2026-03-28T09:45:31.999Z</time></trkpt><trkpt lat="45.45500681193314" lon="10.771594170252774"><ele>120.0</ele><time>2026-03-28T09:45:32.999Z</time></trkpt><trkpt lat="45.45500093089736" lon="10.771697482726047"><ele>120.0</ele><time>2026-03-28T09:45:34.999Z</time></trkpt><trkpt lat="45.45514616815129" lon="10.77172437590767"><ele>120.0</ele><time>2026-03-28T09:45:35.999Z</time></trkpt><trkpt lat="45.455251572356566" lon="10.77173975896284"><ele>120.0</ele><time>2026-03-28T09:45:36.999Z</time></trkpt><trkpt lat="45.455368006322296" lon="10.771745901457257"><ele>120.0</ele><time>2026-03-28T09:45:37.999Z</time></trkpt><trkpt lat="45.45548915416125" lon="10.77178848565097"><ele>120.0</ele><time>2026-03-28T09:45:38.999Z</time></trkpt><trkpt lat="45.45563123135276" lon="10.771803748808923"><ele>120.0</ele><time>2026-03-28T09:45:39.999Z</time></trkpt><trkpt lat="45.45578249053488" lon="10.771840496599468"><ele>120.0</ele><time>2026-03-28T09:45:40.999Z</time></trkpt><trkpt lat="45.455939191136615" lon="10.771876087452371"><ele>120.33333333333334</ele><time>2026-03-28T09:45:41.999Z</time></trkpt><trkpt lat="45.456098554073584" lon="10.771912860906824"><ele>120.66666666666667</ele><time>2026-03-28T09:45:42.999Z</time></trkpt><trkpt lat="45.45625972275153" lon="10.771947169256018"><ele>121.0</ele><time>2026-03-28T09:45:43.999Z</time></trkpt><trkpt lat="45.45643052912325" lon="10.77201795232619"><ele>121.0</ele><time>2026-03-28T09:45:44.999Z</time></trkpt><trkpt lat="45.45661449853019" lon="10.772035768057956"><ele>121.0</ele><time>2026-03-28T09:45:45.999Z</time></trkpt><trkpt lat="45.45679808303174" lon="10.77205564751177"><ele>121.0</ele><time>2026-03-28T09:45:46.999Z</time></trkpt><trkpt lat="45.45698987063945" lon="10.772067878672257"><ele>121.0</ele><time>2026-03-28T09:45:47.999Z</time></trkpt><trkpt lat="45.45716601096514" lon="10.7720962572845"><ele>121.0</ele><time>2026-03-28T09:45:49Z</time></trkpt><trkpt lat="45.45731283792378" lon="10.77207789093999"><ele>121.0</ele><time>2026-03-28T09:45:50Z</time></trkpt><trkpt lat="45.45744282687246" lon="10.772084721489785"><ele>121.0</ele><time>2026-03-28T09:45:51Z</time></trkpt><trkpt lat="45.45755858228343" lon="10.772080724033685"><ele>121.0</ele><time>2026-03-28T09:45:52Z</time></trkpt><trkpt lat="45.45766011223935" lon="10.772075782277673"><ele>121.0</ele><time>2026-03-28T09:45:53Z</time></trkpt><trkpt lat="45.45775819624933" lon="10.772073950258047"><ele>121.0</ele><time>2026-03-28T09:45:54Z</time></trkpt><trkpt lat="45.45784868238673" lon="10.772089938030078"><ele>121.0</ele><time>2026-03-28T09:45:55Z</time></trkpt><trkpt lat="45.45792495772343" lon="10.772083287491212"><ele>121.00000000000001</ele><time>2026-03-28T09:45:56Z</time></trkpt><trkpt lat="45.45799472634691" lon="10.772081027303681"><ele>121.0</ele><time>2026-03-28T09:45:57Z</time></trkpt><trkpt lat="45.45805906521711" lon="10.772081492667926"><ele>121.0</ele><time>2026-03-28T09:45:58Z</time></trkpt><trkpt lat="45.45819118270836" lon="10.772066475378805"><ele>121.0</ele><time>2026-03-28T09:46:00Z</time></trkpt><trkpt lat="45.458270174276855" lon="10.772076306214442"><ele>121.00000000000001</ele><time>2026-03-28T09:46:01Z</time></trkpt><trkpt lat="45.458352116594604" lon="10.772072205430682"><ele>121.0</ele><time>2026-03-28T09:46:02Z</time></trkpt><trkpt lat="45.458460342386175" lon="10.772068371779902"><ele>121.0</ele><time>2026-03-28T09:46:03Z</time></trkpt><trkpt lat="45.45857940820589" lon="10.77205089188433"><ele>121.0</ele><time>2026-03-28T09:46:04Z</time></trkpt><trkpt lat="45.4587010870193" lon="10.772031627461637"><ele>121.0</ele><time>2026-03-28T09:46:05Z</time></trkpt><trkpt lat="45.45883331515678" lon="10.772006203824457"><ele>121.0</ele><time>2026-03-28T09:46:06Z</time></trkpt><trkpt lat="45.458969655558604" lon="10.77197836559033"><ele>121.0</ele><time>2026-03-28T09:46:07Z</time></trkpt><trkpt lat="45.45911115228322" lon="10.771964088450853"><ele>121.0</ele><time>2026-03-28T09:46:08Z</time></trkpt><trkpt lat="45.459250858889376" lon="10.771933315544544"><ele>121.0</ele><time>2026-03-28T09:46:09Z</time></trkpt><trkpt lat="45.459394859863885" lon="10.771915844059148"><ele>121.0</ele><time>2026-03-28T09:46:10Z</time></trkpt><trkpt lat="45.459538515113884" lon="10.771913011215647"><ele>121.25</ele><time>2026-03-28T09:46:11Z</time></trkpt><trkpt lat="45.45968749971209" lon="10.771928807421235"><ele>121.5</ele><time>2026-03-28T09:46:12Z</time></trkpt><trkpt lat="45.459836165273565" lon="10.771941153794353"><ele>121.75</ele><time>2026-03-28T09:46:13Z</time></trkpt><trkpt lat="45.459977963937455" lon="10.771943425303192"><ele>122.0</ele><time>2026-03-28T09:46:14Z</time></trkpt><trkpt lat="45.46012297928528" lon="10.77194515731541"><ele>122.0</ele><time>2026-03-28T09:46:15Z</time></trkpt><trkpt lat="45.46026731722811" lon="10.771945230792111"><ele>122.0</ele><time>2026-03-28T09:46:16Z</time></trkpt><trkpt lat="45.460407750462004" lon="10.771951484916901"><ele>122.0</ele><time>2026-03-28T09:46:17Z</time></trkpt><trkpt lat="45.460552730849884" lon="10.771956618756217"><ele>122.0</ele><time>2026-03-28T09:46:18Z</time></trkpt><trkpt lat="45.46069433559703" lon="10.771953992702427"><ele>122.19999999999999</ele><time>2026-03-28T09:46:19Z</time></trkpt><trkpt lat="45.46081773895705" lon="10.771971392817468"><ele>122.39999999999999</ele><time>2026-03-28T09:46:20Z</time></trkpt><trkpt lat="45.46093199360516" lon="10.771966700867784"><ele>122.60000000000001</ele><time>2026-03-28T09:46:21Z</time></trkpt><trkpt lat="45.46103670965389" lon="10.771974646229525"><ele>122.80000000000001</ele><time>2026-03-28T09:46:22Z</time></trkpt><trkpt lat="45.461117727638744" lon="10.771984669400165"><ele>123.0</ele><time>2026-03-28T09:46:23Z</time></trkpt><trkpt lat="45.46120400803302" lon="10.772002221761642"><ele>123.0</ele><time>2026-03-28T09:46:25Z</time></trkpt><trkpt lat="45.461227637632575" lon="10.772086230830963"><ele>123.0</ele><time>2026-03-28T09:46:28Z</time></trkpt><trkpt lat="45.46124127222702" lon="10.772199931910286"><ele>123.0</ele><time>2026-03-28T09:46:29Z</time></trkpt><trkpt lat="45.4612379680499" lon="10.772331509129037"><ele>123.0</ele><time>2026-03-28T09:46:30Z</time></trkpt><trkpt lat="45.461242120673276" lon="10.772456273611844"><ele>123.0</ele><time>2026-03-28T09:46:31Z</time></trkpt><trkpt lat="45.46126012813379" lon="10.772543276897965"><ele>123.0</ele><time>2026-03-28T09:46:32Z</time></trkpt><trkpt lat="45.461371460685726" lon="10.772592394094296"><ele>123.5</ele><time>2026-03-28T09:46:34Z</time></trkpt><trkpt lat="45.46145793736373" lon="10.772584341595216"><ele>124.0</ele><time>2026-03-28T09:46:35Z</time></trkpt><trkpt lat="45.46155704239118" lon="10.7725766591354"><ele>124.5</ele><time>2026-03-28T09:46:36Z</time></trkpt><trkpt lat="45.46168736828832" lon="10.772581083818595"><ele>125.0</ele><time>2026-03-28T09:46:37Z</time></trkpt><trkpt lat="45.461827522218" lon="10.772582858385547"><ele>125.0</ele><time>2026-03-28T09:46:38Z</time></trkpt><trkpt lat="45.461973363355455" lon="10.772571391171677"><ele>125.0</ele><time>2026-03-28T09:46:39Z</time></trkpt><trkpt lat="45.46212537944475" lon="10.772538523164183"><ele>125.0</ele><time>2026-03-28T09:46:40Z</time></trkpt><trkpt lat="45.462291952495576" lon="10.772495718302565"><ele>125.66666666666666</ele><time>2026-03-28T09:46:41Z</time></trkpt><trkpt lat="45.462453355574795" lon="10.77244989752184"><ele>126.33333333333334</ele><time>2026-03-28T09:46:42Z</time></trkpt><trkpt lat="45.462609576826075" lon="10.77240826577467"><ele>127.0</ele><time>2026-03-28T09:46:43Z</time></trkpt><trkpt lat="45.46275056561412" lon="10.77237521015671"><ele>127.0</ele><time>2026-03-28T09:46:44Z</time></trkpt><trkpt lat="45.46287716718877" lon="10.772348276786184"><ele>127.0</ele><time>2026-03-28T09:46:45Z</time></trkpt><trkpt lat="45.462998749211394" lon="10.772351683211452"><ele>127.0</ele><time>2026-03-28T09:46:46Z</time></trkpt><trkpt lat="45.46312860002952" lon="10.772379832232694"><ele>127.0</ele><time>2026-03-28T09:46:47Z</time></trkpt><trkpt lat="45.46326422858834" lon="10.772418529630444"><ele>128.0</ele><time>2026-03-28T09:46:48Z</time></trkpt><trkpt lat="45.463402548814095" lon="10.772446378850749"><ele>129.0</ele><time>2026-03-28T09:46:49Z</time></trkpt><trkpt lat="45.463527168355206" lon="10.772469528712328"><ele>130.0</ele><time>2026-03-28T09:46:50Z</time></trkpt><trkpt lat="45.4636390885912" lon="10.772499314853171"><ele>131.0</ele><time>2026-03-28T09:46:51Z</time></trkpt><trkpt lat="45.463735350036764" lon="10.772551960035656"><ele>131.75</ele><time>2026-03-28T09:46:52Z</time></trkpt><trkpt lat="45.46383799401458" lon="10.772621091098586"><ele>132.5</ele><time>2026-03-28T09:46:53Z</time></trkpt><trkpt lat="45.46394812095989" lon="10.772696216494198"><ele>133.25</ele><time>2026-03-28T09:46:54Z</time></trkpt><trkpt lat="45.4640641098014" lon="10.772780005202934"><ele>134.0</ele><time>2026-03-28T09:46:55Z</time></trkpt><trkpt lat="45.46415167824331" lon="10.772868111708362"><ele>134.5</ele><time>2026-03-28T09:46:56Z</time></trkpt><trkpt lat="45.464220369467746" lon="10.772957793650114"><ele>135.0</ele><time>2026-03-28T09:46:57Z</time></trkpt><trkpt lat="45.46426543846928" lon="10.773037668972394"><ele>135.5</ele><time>2026-03-28T09:46:57.999Z</time></trkpt><trkpt lat="45.46429250315844" lon="10.773121905464164"><ele>136.0</ele><time>2026-03-28T09:46:58.999Z</time></trkpt><trkpt lat="45.46424452207189" lon="10.773281191303088"><ele>136.5</ele><time>2026-03-28T09:47:00.999Z</time></trkpt><trkpt lat="45.46419527983864" lon="10.773390950123606"><ele>137.0</ele><time>2026-03-28T09:47:01.999Z</time></trkpt><trkpt lat="45.46414924132885" lon="10.773513853774793"><ele>138.0</ele><time>2026-03-28T09:47:02.999Z</time></trkpt><trkpt lat="45.46408259299228" lon="10.773643634356254"><ele>139.0</ele><time>2026-03-28T09:47:03.999Z</time></trkpt><trkpt lat="45.46402273584901" lon="10.773787154758308"><ele>140.0</ele><time>2026-03-28T09:47:04.999Z</time></trkpt><trkpt lat="45.463955507189404" lon="10.773949773555891"><ele>141.0</ele><time>2026-03-28T09:47:05.999Z</time></trkpt><trkpt lat="45.463883470858654" lon="10.774098423267242"><ele>141.0</ele><time>2026-03-28T09:47:06.999Z</time></trkpt><trkpt lat="45.46382412203593" lon="10.774233170101624"><ele>141.0</ele><time>2026-03-28T09:47:07.999Z</time></trkpt><trkpt lat="45.46379377635025" lon="10.774344018281928"><ele>141.0</ele><time>2026-03-28T09:47:08.999Z</time></trkpt><trkpt lat="45.46377804183017" lon="10.774472265397444"><ele>141.0</ele><time>2026-03-28T09:47:10.999Z</time></trkpt><trkpt lat="45.46388471120365" lon="10.774565088853018"><ele>141.0</ele><time>2026-03-28T09:47:11.999Z</time></trkpt><trkpt lat="45.463968699087765" lon="10.774626917741982"><ele>141.25</ele><time>2026-03-28T09:47:12.999Z</time></trkpt><trkpt lat="45.46407332671726" lon="10.774723278825252"><ele>141.5</ele><time>2026-03-28T09:47:13.999Z</time></trkpt><trkpt lat="45.46418709688243" lon="10.774851285874893"><ele>141.75</ele><time>2026-03-28T09:47:14.999Z</time></trkpt><trkpt lat="45.464313945532155" lon="10.774998152032595"><ele>142.0</ele><time>2026-03-28T09:47:15.999Z</time></trkpt><trkpt lat="45.464441944325735" lon="10.7751387141515"><ele>143.0</ele><time>2026-03-28T09:47:16.999Z</time></trkpt><trkpt lat="45.464553693485655" lon="10.775260912235204"><ele>144.0</ele><time>2026-03-28T09:47:17.999Z</time></trkpt><trkpt lat="45.46465584397021" lon="10.77536819543368"><ele>145.0</ele><time>2026-03-28T09:47:18.999Z</time></trkpt><trkpt lat="45.4647657865906" lon="10.775478783231437"><ele>146.0</ele><time>2026-03-28T09:47:19.999Z</time></trkpt><trkpt lat="45.46488821931233" lon="10.77558463420639"><ele>146.75</ele><time>2026-03-28T09:47:20.999Z</time></trkpt><trkpt lat="45.46501102809884" lon="10.775659465687168"><ele>147.5</ele><time>2026-03-28T09:47:21.999Z</time></trkpt><trkpt lat="45.46514962739274" lon="10.775743492906576"><ele>148.25</ele><time>2026-03-28T09:47:22.999Z</time></trkpt><trkpt lat="45.46526917550185" lon="10.775856609478362"><ele>149.0</ele><time>2026-03-28T09:47:23.999Z</time></trkpt><trkpt lat="45.46538051667869" lon="10.775969207621698"><ele>149.5</ele><time>2026-03-28T09:47:24.999Z</time></trkpt><trkpt lat="45.46549071274762" lon="10.776056977543922"><ele>150.0</ele><time>2026-03-28T09:47:25.999Z</time></trkpt><trkpt lat="45.465590860138064" lon="10.77613646614164"><ele>150.5</ele><time>2026-03-28T09:47:26.999Z</time></trkpt><trkpt lat="45.46569836519901" lon="10.776201737253677"><ele>151.0</ele><time>2026-03-28T09:47:27.999Z</time></trkpt><trkpt lat="45.465806339541935" lon="10.7762696232621"><ele>151.0</ele><time>2026-03-28T09:47:28.999Z</time></trkpt><trkpt lat="45.46590512917459" lon="10.776312885232064"><ele>151.0</ele><time>2026-03-28T09:47:29.999Z</time></trkpt><trkpt lat="45.46599927327559" lon="10.776330721292672"><ele>151.0</ele><time>2026-03-28T09:47:30.999Z</time></trkpt><trkpt lat="45.46611689475484" lon="10.776351009650474"><ele>151.0</ele><time>2026-03-28T09:47:31.999Z</time></trkpt><trkpt lat="45.46623690177088" lon="10.776411512609023"><ele>151.0</ele><time>2026-03-28T09:47:32.999Z</time></trkpt><trkpt lat="45.466350176978295" lon="10.776474728784407"><ele>151.75</ele><time>2026-03-28T09:47:33.999Z</time></trkpt><trkpt lat="45.466471095628165" lon="10.776545202441143"><ele>152.5</ele><time>2026-03-28T09:47:34.999Z</time></trkpt><trkpt lat="45.46659379382001" lon="10.776610028549563"><ele>153.25</ele><time>2026-03-28T09:47:35.999Z</time></trkpt><trkpt lat="45.46672526995729" lon="10.776684076175322"><ele>154.0</ele><time>2026-03-28T09:47:36.999Z</time></trkpt><trkpt lat="45.46686801072459" lon="10.776760594140006"><ele>154.0</ele><time>2026-03-28T09:47:37.999Z</time></trkpt><trkpt lat="45.46701420290241" lon="10.776845339268595"><ele>154.0</ele><time>2026-03-28T09:47:38.999Z</time></trkpt><trkpt lat="45.46715956919825" lon="10.776917041358555"><ele>154.0</ele><time>2026-03-28T09:47:39.999Z</time></trkpt><trkpt lat="45.467298112565246" lon="10.776985353301118"><ele>155.0</ele><time>2026-03-28T09:47:40.999Z</time></trkpt><trkpt lat="45.467432665958945" lon="10.777050083495919"><ele>156.0</ele><time>2026-03-28T09:47:41.999Z</time></trkpt><trkpt lat="45.467546905304864" lon="10.777111119402829"><ele>157.0</ele><time>2026-03-28T09:47:42.999Z</time></trkpt><trkpt lat="45.46764516169307" lon="10.777167021952296"><ele>158.0</ele><time>2026-03-28T09:47:43.999Z</time></trkpt><trkpt lat="45.46772852229399" lon="10.777220034775965"><ele>158.0</ele><time>2026-03-28T09:47:44.999Z</time></trkpt><trkpt lat="45.467813218685855" lon="10.777283835489593"><ele>158.0</ele><time>2026-03-28T09:47:45.999Z</time></trkpt><trkpt lat="45.46791441587129" lon="10.777358571257688"><ele>158.0</ele><time>2026-03-28T09:47:46.999Z</time></trkpt><trkpt lat="45.468031451897815" lon="10.77741598907893"><ele>158.0</ele><time>2026-03-28T09:47:47.999Z</time></trkpt><trkpt lat="45.46816068203013" lon="10.777490586147438"><ele>157.5</ele><time>2026-03-28T09:47:48.999Z</time></trkpt><trkpt lat="45.468291656534376" lon="10.777557076630684"><ele>157.0</ele><time>2026-03-28T09:47:49.999Z</time></trkpt><trkpt lat="45.46842315662296" lon="10.7776247556088"><ele>156.5</ele><time>2026-03-28T09:47:50.999Z</time></trkpt><trkpt lat="45.468546309763944" lon="10.777703050776127"><ele>156.0</ele><time>2026-03-28T09:47:51.999Z</time></trkpt><trkpt lat="45.4686731842099" lon="10.777779794418711"><ele>155.6</ele><time>2026-03-28T09:47:52.999Z</time></trkpt><trkpt lat="45.4687857639022" lon="10.777841546647382"><ele>155.2</ele><time>2026-03-28T09:47:53.999Z</time></trkpt><trkpt lat="45.46888784987935" lon="10.777903519819922"><ele>154.8</ele><time>2026-03-28T09:47:55Z</time></trkpt><trkpt lat="45.4689797504447" lon="10.777955133929254"><ele>154.4</ele><time>2026-03-28T09:47:56Z</time></trkpt><trkpt lat="45.46906918201811" lon="10.778000731760791"><ele>154.0</ele><time>2026-03-28T09:47:57Z</time></trkpt><trkpt lat="45.469138787574245" lon="10.778035308378104"><ele>154.0</ele><time>2026-03-28T09:47:58Z</time></trkpt><trkpt lat="45.46919927025042" lon="10.778085954311946"><ele>154.0</ele><time>2026-03-28T09:47:59Z</time></trkpt><trkpt lat="45.469209139173" lon="10.778230059466978"><ele>154.0</ele><time>2026-03-28T09:48:01Z</time></trkpt><trkpt lat="45.4691292163681" lon="10.778307028146447"><ele>154.0</ele><time>2026-03-28T09:48:02Z</time></trkpt><trkpt lat="45.46910771635829" lon="10.778399443753216"><ele>154.0</ele><time>2026-03-28T09:48:03Z</time></trkpt><trkpt lat="45.46905047984341" lon="10.778501643543192"><ele>154.0</ele><time>2026-03-28T09:48:04Z</time></trkpt><trkpt lat="45.46898939521692" lon="10.778615324198682"><ele>154.0</ele><time>2026-03-28T09:48:05Z</time></trkpt><trkpt lat="45.46889278145795" lon="10.778720620385812"><ele>154.0</ele><time>2026-03-28T09:48:06Z</time></trkpt><trkpt lat="45.468796163924694" lon="10.778856908647372"><ele>154.0</ele><time>2026-03-28T09:48:07Z</time></trkpt><trkpt lat="45.468696853127014" lon="10.779022175942403"><ele>154.0</ele><time>2026-03-28T09:48:08Z</time></trkpt><trkpt lat="45.468583867877825" lon="10.77915872843038"><ele>153.5</ele><time>2026-03-28T09:48:09Z</time></trkpt><trkpt lat="45.46848277731526" lon="10.7793046321837"><ele>153.0</ele><time>2026-03-28T09:48:10Z</time></trkpt><trkpt lat="45.468381470727735" lon="10.779450867169336"><ele>152.5</ele><time>2026-03-28T09:48:11Z</time></trkpt><trkpt lat="45.4682856740797" lon="10.779578328180696"><ele>152.0</ele><time>2026-03-28T09:48:12Z</time></trkpt><trkpt lat="45.468185379847725" lon="10.779683418958996"><ele>152.0</ele><time>2026-03-28T09:48:13Z</time></trkpt><trkpt lat="45.468078482459134" lon="10.779776585831117"><ele>152.0</ele><time>2026-03-28T09:48:14Z</time></trkpt><trkpt lat="45.46796397138225" lon="10.779846239707616"><ele>152.0</ele><time>2026-03-28T09:48:15Z</time></trkpt><trkpt lat="45.467840859201864" lon="10.779929353099314"><ele>152.0</ele><time>2026-03-28T09:48:16Z</time></trkpt><trkpt lat="45.46773371797482" lon="10.780021160987054"><ele>152.25</ele><time>2026-03-28T09:48:17Z</time></trkpt><trkpt lat="45.46764885939808" lon="10.780174401724413"><ele>152.5</ele><time>2026-03-28T09:48:18Z</time></trkpt><trkpt lat="45.46755475078661" lon="10.780329707240432"><ele>152.75</ele><time>2026-03-28T09:48:19Z</time></trkpt><trkpt lat="45.46745747959262" lon="10.780513803450901"><ele>153.0</ele><time>2026-03-28T09:48:20Z</time></trkpt><trkpt lat="45.46734819370763" lon="10.780715200382916"><ele>153.33333333333334</ele><time>2026-03-28T09:48:21Z</time></trkpt><trkpt lat="45.467250684708254" lon="10.780899388714943"><ele>153.66666666666669</ele><time>2026-03-28T09:48:22Z</time></trkpt><trkpt lat="45.46715432262465" lon="10.781090327216283"><ele>154.0</ele><time>2026-03-28T09:48:23Z</time></trkpt><trkpt lat="45.46706800937195" lon="10.781265141162693"><ele>154.0</ele><time>2026-03-28T09:48:24Z</time></trkpt><trkpt lat="45.46698572864815" lon="10.781439711560433"><ele>154.0</ele><time>2026-03-28T09:48:25Z</time></trkpt><trkpt lat="45.46691736858184" lon="10.781630318917516"><ele>154.0</ele><time>2026-03-28T09:48:26Z</time></trkpt><trkpt lat="45.466856944541476" lon="10.781838252395337"><ele>154.0</ele><time>2026-03-28T09:48:27Z</time></trkpt><trkpt lat="45.46682161706937" lon="10.78203274026221"><ele>154.0</ele><time>2026-03-28T09:48:28Z</time></trkpt><trkpt lat="45.46679270469951" lon="10.782208780266684"><ele>154.0</ele><time>2026-03-28T09:48:29Z</time></trkpt><trkpt lat="45.46677420649867" lon="10.782364075215206"><ele>154.0</ele><time>2026-03-28T09:48:30Z</time></trkpt><trkpt lat="45.4667605117652" lon="10.782519743662919"><ele>153.75</ele><time>2026-03-28T09:48:31Z</time></trkpt><trkpt lat="45.466737377758335" lon="10.782683371465101"><ele>153.5</ele><time>2026-03-28T09:48:32Z</time></trkpt><trkpt lat="45.46670971383515" lon="10.782849775760257"><ele>153.25</ele><time>2026-03-28T09:48:33Z</time></trkpt><trkpt lat="45.46668766283554" lon="10.783018689841631"><ele>153.0</ele><time>2026-03-28T09:48:34Z</time></trkpt><trkpt lat="45.466653014402745" lon="10.783185312690563"><ele>153.0</ele><time>2026-03-28T09:48:35Z</time></trkpt><trkpt lat="45.466612314960464" lon="10.783363014206612"><ele>153.0</ele><time>2026-03-28T09:48:36Z</time></trkpt><trkpt lat="45.46656976858817" lon="10.78353723314926"><ele>153.0</ele><time>2026-03-28T09:48:37Z</time></trkpt><trkpt lat="45.466543188810974" lon="10.783715833432836"><ele>153.0</ele><time>2026-03-28T09:48:38Z</time></trkpt><trkpt lat="45.46653733989139" lon="10.783891389020392"><ele>152.8</ele><time>2026-03-28T09:48:39Z</time></trkpt><trkpt lat="45.46653911692218" lon="10.784058282347576"><ele>152.60000000000002</ele><time>2026-03-28T09:48:40Z</time></trkpt><trkpt lat="45.46654094345492" lon="10.784211233693652"><ele>152.39999999999998</ele><time>2026-03-28T09:48:41Z</time></trkpt><trkpt lat="45.46653727461088" lon="10.784343409265908"><ele>152.2</ele><time>2026-03-28T09:48:42Z</time></trkpt><trkpt lat="45.466524727758674" lon="10.7844635526441"><ele>152.0</ele><time>2026-03-28T09:48:43Z</time></trkpt><trkpt lat="45.46647273546383" lon="10.784573668066303"><ele>152.6</ele><time>2026-03-28T09:48:45Z</time></trkpt><trkpt lat="45.466592615177085" lon="10.78463383269511"><ele>153.2</ele><time>2026-03-28T09:48:47Z</time></trkpt><trkpt lat="45.46666786351266" lon="10.784603095569947"><ele>153.8</ele><time>2026-03-28T09:48:48Z</time></trkpt><trkpt lat="45.46675685347562" lon="10.784567677020544"><ele>154.4</ele><time>2026-03-28T09:48:49Z</time></trkpt><trkpt lat="45.466844772274506" lon="10.784577448184933"><ele>155.0</ele><time>2026-03-28T09:48:50Z</time></trkpt><trkpt lat="45.46693562679617" lon="10.784631435414456"><ele>155.0</ele><time>2026-03-28T09:48:51Z</time></trkpt><trkpt lat="45.467035134059834" lon="10.784666357088293"><ele>155.0</ele><time>2026-03-28T09:48:52Z</time></trkpt><trkpt lat="45.46711006883828" lon="10.784699331707094"><ele>155.0</ele><time>2026-03-28T09:48:53Z</time></trkpt><trkpt lat="45.46719432260766" lon="10.784688238746744"><ele>155.0</ele><time>2026-03-28T09:48:54Z</time></trkpt><trkpt lat="45.467268708313135" lon="10.784626370845212"><ele>155.0</ele><time>2026-03-28T09:48:55Z</time></trkpt><trkpt lat="45.46736124097906" lon="10.78452647137199"><ele>155.0</ele><time>2026-03-28T09:48:56Z</time></trkpt><trkpt lat="45.46746795843196" lon="10.784436215325977"><ele>155.0</ele><time>2026-03-28T09:48:57Z</time></trkpt><trkpt lat="45.46759911827469" lon="10.784405441650447"><ele>155.0</ele><time>2026-03-28T09:48:58Z</time></trkpt><trkpt lat="45.46773670514201" lon="10.784394793912659"><ele>155.0</ele><time>2026-03-28T09:48:59Z</time></trkpt><trkpt lat="45.467887984876924" lon="10.784373620871667"><ele>154.5</ele><time>2026-03-28T09:49:00Z</time></trkpt><trkpt lat="45.468035766795396" lon="10.78437589556146"><ele>154.0</ele><time>2026-03-28T09:49:01Z</time></trkpt><trkpt lat="45.46817772952395" lon="10.784356165067951"><ele>153.5</ele><time>2026-03-28T09:49:02Z</time></trkpt><trkpt lat="45.468316335684634" lon="10.784310995121482"><ele>153.0</ele><time>2026-03-28T09:49:03Z</time></trkpt><trkpt lat="45.46843523137042" lon="10.78424897891907"><ele>153.0</ele><time>2026-03-28T09:49:04Z</time></trkpt><trkpt lat="45.468526224093544" lon="10.784157821630815"><ele>153.0</ele><time>2026-03-28T09:49:05Z</time></trkpt><trkpt lat="45.46862937056517" lon="10.784062311642913"><ele>153.0</ele><time>2026-03-28T09:49:06Z</time></trkpt><trkpt lat="45.46875362792456" lon="10.784000741862267"><ele>153.0</ele><time>2026-03-28T09:49:07Z</time></trkpt><trkpt lat="45.46890782783049" lon="10.783966609193723"><ele>151.66666666666666</ele><time>2026-03-28T09:49:08Z</time></trkpt><trkpt lat="45.469059009446056" lon="10.783922599736584"><ele>150.33333333333331</ele><time>2026-03-28T09:49:09Z</time></trkpt><trkpt lat="45.46921099684335" lon="10.783858860344386"><ele>149.0</ele><time>2026-03-28T09:49:10Z</time></trkpt><trkpt lat="45.46937164195366" lon="10.78380025812465"><ele>149.0</ele><time>2026-03-28T09:49:10.999Z</time></trkpt><trkpt lat="45.469535377678106" lon="10.783771363778976"><ele>149.0</ele><time>2026-03-28T09:49:11.999Z</time></trkpt><trkpt lat="45.46970777971613" lon="10.783761592752102"><ele>149.0</ele><time>2026-03-28T09:49:12.999Z</time></trkpt><trkpt lat="45.469880145935846" lon="10.783765562426314"><ele>148.0</ele><time>2026-03-28T09:49:13.999Z</time></trkpt><trkpt lat="45.47004762518354" lon="10.783789606960346"><ele>147.0</ele><time>2026-03-28T09:49:14.999Z</time></trkpt><trkpt lat="45.47022302361398" lon="10.783832305789058"><ele>146.0</ele><time>2026-03-28T09:49:15.999Z</time></trkpt><trkpt lat="45.4703926420522" lon="10.78386626610843"><ele>145.0</ele><time>2026-03-28T09:49:16.999Z</time></trkpt><trkpt lat="45.47056182189717" lon="10.783887971827765"><ele>144.0</ele><time>2026-03-28T09:49:17.999Z</time></trkpt><trkpt lat="45.470722646112584" lon="10.783891944017546"><ele>143.0</ele><time>2026-03-28T09:49:18.999Z</time></trkpt><trkpt lat="45.47088914543605" lon="10.783853760882248"><ele>143.0</ele><time>2026-03-28T09:49:19.999Z</time></trkpt><trkpt lat="45.471063920872616" lon="10.783808758995946"><ele>143.0</ele><time>2026-03-28T09:49:20.999Z</time></trkpt><trkpt lat="45.47122886291799" lon="10.783761635485092"><ele>143.0</ele><time>2026-03-28T09:49:21.999Z</time></trkpt><trkpt lat="45.47139916026347" lon="10.783705722049483"><ele>142.0</ele><time>2026-03-28T09:49:22.999Z</time></trkpt><trkpt lat="45.47157049116386" lon="10.783656807235813"><ele>141.0</ele><time>2026-03-28T09:49:23.999Z</time></trkpt><trkpt lat="45.47174019771381" lon="10.783610108770716"><ele>140.0</ele><time>2026-03-28T09:49:24.999Z</time></trkpt><trkpt lat="45.47190922052469" lon="10.783566152692652"><ele>140.0</ele><time>2026-03-28T09:49:25.999Z</time></trkpt><trkpt lat="45.47206277300546" lon="10.78353017716968"><ele>140.0</ele><time>2026-03-28T09:49:26.999Z</time></trkpt><trkpt lat="45.47219915632269" lon="10.783490194228003"><ele>140.0</ele><time>2026-03-28T09:49:27.999Z</time></trkpt><trkpt lat="45.47235638729667" lon="10.783454268363133"><ele>139.66666666666666</ele><time>2026-03-28T09:49:28.999Z</time></trkpt><trkpt lat="45.47252549453881" lon="10.783428739733457"><ele>139.33333333333334</ele><time>2026-03-28T09:49:29.999Z</time></trkpt><trkpt lat="45.472685321420485" lon="10.783405513424151"><ele>139.0</ele><time>2026-03-28T09:49:30.999Z</time></trkpt><trkpt lat="45.472818119335344" lon="10.783388722147885"><ele>139.0</ele><time>2026-03-28T09:49:31.999Z</time></trkpt><trkpt lat="45.47296094046682" lon="10.783381240952904"><ele>139.0</ele><time>2026-03-28T09:49:32.999Z</time></trkpt><trkpt lat="45.47308319918707" lon="10.783380179180078"><ele>139.0</ele><time>2026-03-28T09:49:33.999Z</time></trkpt><trkpt lat="45.47319142912253" lon="10.783388542814162"><ele>139.0</ele><time>2026-03-28T09:49:34.999Z</time></trkpt><trkpt lat="45.47326950027664" lon="10.78338011939823"><ele>139.0</ele><time>2026-03-28T09:49:35.999Z</time></trkpt><trkpt lat="45.4733693616238" lon="10.783384340132566"><ele>139.0</ele><time>2026-03-28T09:49:37.999Z</time></trkpt><trkpt lat="45.47348431308183" lon="10.783376753806317"><ele>139.0</ele><time>2026-03-28T09:49:39.999Z</time></trkpt><trkpt lat="45.47357774820013" lon="10.783436005183848"><ele>139.0</ele><time>2026-03-28T09:49:40.999Z</time></trkpt><trkpt lat="45.473676541773514" lon="10.783453491042597"><ele>139.0</ele><time>2026-03-28T09:49:41.999Z</time></trkpt><trkpt lat="45.473786096111475" lon="10.783444995185135"><ele>139.75</ele><time>2026-03-28T09:49:42.999Z</time></trkpt><trkpt lat="45.473901882439215" lon="10.783388984565441"><ele>140.5</ele><time>2026-03-28T09:49:43.999Z</time></trkpt><trkpt lat="45.47402498703406" lon="10.78331529866261"><ele>141.25</ele><time>2026-03-28T09:49:44.999Z</time></trkpt><trkpt lat="45.474166542763754" lon="10.783254750084827"><ele>142.0</ele><time>2026-03-28T09:49:45.999Z</time></trkpt><trkpt lat="45.47431136110437" lon="10.78319378669666"><ele>142.0</ele><time>2026-03-28T09:49:46.999Z</time></trkpt><trkpt lat="45.47447494248837" lon="10.783130589075206"><ele>142.0</ele><time>2026-03-28T09:49:47.999Z</time></trkpt><trkpt lat="45.474620613158784" lon="10.783099000972364"><ele>142.0</ele><time>2026-03-28T09:49:48.999Z</time></trkpt><trkpt lat="45.47474728713996" lon="10.783017792243058"><ele>141.33333333333334</ele><time>2026-03-28T09:49:49.999Z</time></trkpt><trkpt lat="45.474882543417394" lon="10.782935822456658"><ele>140.66666666666666</ele><time>2026-03-28T09:49:50.999Z</time></trkpt><trkpt lat="45.4750135411791" lon="10.782829405829775"><ele>140.0</ele><time>2026-03-28T09:49:51.999Z</time></trkpt><trkpt lat="45.475152736486486" lon="10.782730635833166"><ele>140.25</ele><time>2026-03-28T09:49:52.999Z</time></trkpt><trkpt lat="45.47527623779415" lon="10.782617744776527"><ele>140.5</ele><time>2026-03-28T09:49:53.999Z</time></trkpt><trkpt lat="45.47539062130321" lon="10.782513188123309"><ele>140.75</ele><time>2026-03-28T09:49:54.999Z</time></trkpt><trkpt lat="45.47548563579055" lon="10.78240184943384"><ele>141.0</ele><time>2026-03-28T09:49:55.999Z</time></trkpt><trkpt lat="45.47559679966842" lon="10.782323288668906"><ele>140.5</ele><time>2026-03-28T09:49:56.999Z</time></trkpt><trkpt lat="45.47568577818949" lon="10.782231737879922"><ele>140.0</ele><time>2026-03-28T09:49:57.999Z</time></trkpt><trkpt lat="45.47576040127934" lon="10.782150770869283"><ele>139.5</ele><time>2026-03-28T09:49:58.999Z</time></trkpt><trkpt lat="45.47582491075914" lon="10.78207355954468"><ele>139.0</ele><time>2026-03-28T09:49:59.999Z</time></trkpt><trkpt lat="45.475882338981535" lon="10.782001343345394"><ele>138.5</ele><time>2026-03-28T09:50:01Z</time></trkpt><trkpt lat="45.4759341391785" lon="10.78192859238984"><ele>138.0</ele><time>2026-03-28T09:50:02Z</time></trkpt><trkpt lat="45.47597820470433" lon="10.781834014405858"><ele>137.66666666666666</ele><time>2026-03-28T09:50:03Z</time></trkpt><trkpt lat="45.47602428580141" lon="10.781744053672046"><ele>137.33333333333334</ele><time>2026-03-28T09:50:04Z</time></trkpt><trkpt lat="45.47607303410099" lon="10.78165997042106"><ele>137.0</ele><time>2026-03-28T09:50:05Z</time></trkpt><trkpt lat="45.47611958255231" lon="10.781578086034886"><ele>136.66666666666669</ele><time>2026-03-28T09:50:06Z</time></trkpt><trkpt lat="45.476189939116324" lon="10.781512802484851"><ele>136.33333333333334</ele><time>2026-03-28T09:50:07Z</time></trkpt><trkpt lat="45.47626504034536" lon="10.781443448264714"><ele>136.0</ele><time>2026-03-28T09:50:08Z</time></trkpt><trkpt lat="45.476345068294776" lon="10.78134844871058"><ele>135.5</ele><time>2026-03-28T09:50:09Z</time></trkpt><trkpt lat="45.476451638271186" lon="10.781268282301095"><ele>135.0</ele><time>2026-03-28T09:50:10Z</time></trkpt><trkpt lat="45.47656233420466" lon="10.781179549373565"><ele>134.5</ele><time>2026-03-28T09:50:11Z</time></trkpt><trkpt lat="45.47667249366603" lon="10.781099981874839"><ele>134.0</ele><time>2026-03-28T09:50:12Z</time></trkpt><trkpt lat="45.47676194689379" lon="10.781040650034345"><ele>134.0</ele><time>2026-03-28T09:50:13Z</time></trkpt><trkpt lat="45.47684623929891" lon="10.781028384577498"><ele>134.0</ele><time>2026-03-28T09:50:15Z</time></trkpt><trkpt lat="45.47685055214113" lon="10.780804858543062"><ele>134.0</ele><time>2026-03-28T09:50:17Z</time></trkpt><trkpt lat="45.476859545140016" lon="10.780642407825743"><ele>134.0</ele><time>2026-03-28T09:50:18Z</time></trkpt><trkpt lat="45.476857574728726" lon="10.780461361524083"><ele>134.5</ele><time>2026-03-28T09:50:19Z</time></trkpt><trkpt lat="45.476854098909776" lon="10.780263894049511"><ele>135.0</ele><time>2026-03-28T09:50:20Z</time></trkpt><trkpt lat="45.47685080623733" lon="10.780057278176868"><ele>135.5</ele><time>2026-03-28T09:50:21Z</time></trkpt><trkpt lat="45.476849187804085" lon="10.779831679893746"><ele>136.0</ele><time>2026-03-28T09:50:22Z</time></trkpt><trkpt lat="45.47684755662004" lon="10.779608320145956"><ele>136.66666666666669</ele><time>2026-03-28T09:50:23Z</time></trkpt><trkpt lat="45.47684583027392" lon="10.779377761154084"><ele>137.33333333333334</ele><time>2026-03-28T09:50:24Z</time></trkpt><trkpt lat="45.4768440742525" lon="10.779143238757984"><ele>138.0</ele><time>2026-03-28T09:50:25Z</time></trkpt><trkpt lat="45.47684135482378" lon="10.778890810785517"><ele>138.33333333333334</ele><time>2026-03-28T09:50:26Z</time></trkpt><trkpt lat="45.47683824678163" lon="10.778632999233592"><ele>138.66666666666669</ele><time>2026-03-28T09:50:27Z</time></trkpt><trkpt lat="45.47683525634748" lon="10.77838494363634"><ele>139.0</ele><time>2026-03-28T09:50:28Z</time></trkpt><trkpt lat="45.47683263282593" lon="10.778167324112228"><ele>138.25</ele><time>2026-03-28T09:50:29Z</time></trkpt><trkpt lat="45.476830258642224" lon="10.777970386154884"><ele>137.5</ele><time>2026-03-28T09:50:30Z</time></trkpt><trkpt lat="45.47682793395366" lon="10.777777554034978"><ele>136.75</ele><time>2026-03-28T09:50:31Z</time></trkpt><trkpt lat="45.47682579870397" lon="10.777600435535994"><ele>136.0</ele><time>2026-03-28T09:50:32Z</time></trkpt><trkpt lat="45.47682350432922" lon="10.777447201303557"><ele>135.83333333333334</ele><time>2026-03-28T09:50:33Z</time></trkpt><trkpt lat="45.47682274708318" lon="10.777312916449457"><ele>135.66666666666669</ele><time>2026-03-28T09:50:34Z</time></trkpt><trkpt lat="45.47683283431498" lon="10.77721445992143"><ele>135.5</ele><time>2026-03-28T09:50:35Z</time></trkpt><trkpt lat="45.47685558883064" lon="10.777112949550203"><ele>135.33333333333334</ele><time>2026-03-28T09:50:36Z</time></trkpt><trkpt lat="45.476943364713826" lon="10.777066709636653"><ele>135.16666666666666</ele><time>2026-03-28T09:50:37Z</time></trkpt><trkpt lat="45.47704335170876" lon="10.7770374773264"><ele>135.0</ele><time>2026-03-28T09:50:38Z</time></trkpt><trkpt lat="45.47717064132128" lon="10.776984280540713"><ele>134.75</ele><time>2026-03-28T09:50:39Z</time></trkpt><trkpt lat="45.47728922370891" lon="10.776915862994521"><ele>134.5</ele><time>2026-03-28T09:50:40Z</time></trkpt><trkpt lat="45.47740540134615" lon="10.776890298273944"><ele>134.25</ele><time>2026-03-28T09:50:41Z</time></trkpt><trkpt lat="45.4775172927893" lon="10.7768429228393"><ele>134.0</ele><time>2026-03-28T09:50:42Z</time></trkpt><trkpt lat="45.47763481950618" lon="10.77678859074037"><ele>133.83333333333331</ele><time>2026-03-28T09:50:43Z</time></trkpt><trkpt lat="45.47771829639782" lon="10.77674493979307"><ele>133.66666666666666</ele><time>2026-03-28T09:50:44Z</time></trkpt><trkpt lat="45.47783066800083" lon="10.776735634903327"><ele>133.5</ele><time>2026-03-28T09:50:55Z</time></trkpt><trkpt lat="45.47789904306268" lon="10.776745497475826"><ele>133.33333333333334</ele><time>2026-03-28T09:50:56Z</time></trkpt><trkpt lat="45.4779833924045" lon="10.776740247880468"><ele>133.16666666666669</ele><time>2026-03-28T09:50:57Z</time></trkpt><trkpt lat="45.47807504864336" lon="10.77675448203366"><ele>133.0</ele><time>2026-03-28T09:50:58Z</time></trkpt><trkpt lat="45.47816002399613" lon="10.776773619601379"><ele>134.6</ele><time>2026-03-28T09:50:59Z</time></trkpt><trkpt lat="45.478245358187706" lon="10.776787824194605"><ele>136.20000000000002</ele><time>2026-03-28T09:51:00Z</time></trkpt><trkpt lat="45.4783293950988" lon="10.776750945392404"><ele>137.8</ele><time>2026-03-28T09:51:01Z</time></trkpt><trkpt lat="45.4784262705112" lon="10.776744615852403"><ele>139.4</ele><time>2026-03-28T09:51:02Z</time></trkpt><trkpt lat="45.47852459446394" lon="10.776705113984155"><ele>141.0</ele><time>2026-03-28T09:51:03Z</time></trkpt><trkpt lat="45.4785944033759" lon="10.776647860552478"><ele>141.0</ele><time>2026-03-28T09:51:04Z</time></trkpt><trkpt lat="45.478647168065834" lon="10.776570427408357"><ele>141.0</ele><time>2026-03-28T09:51:05Z</time></trkpt><trkpt lat="45.478705298861264" lon="10.776480393343684"><ele>141.0</ele><time>2026-03-28T09:51:06Z</time></trkpt><trkpt lat="45.47872959216641" lon="10.776384185570086"><ele>141.0</ele><time>2026-03-28T09:51:07Z</time></trkpt><trkpt lat="45.47872791920539" lon="10.7762654792933"><ele>141.0</ele><time>2026-03-28T09:51:08Z</time></trkpt><trkpt lat="45.47871549589175" lon="10.776131109704652"><ele>141.0</ele><time>2026-03-28T09:51:09Z</time></trkpt><trkpt lat="45.47872090876685" lon="10.776010876049272"><ele>140.0</ele><time>2026-03-28T09:51:10Z</time></trkpt><trkpt lat="45.4787753095298" lon="10.775922817169738"><ele>139.0</ele><time>2026-03-28T09:51:12Z</time></trkpt><trkpt lat="45.478842735207664" lon="10.775895880098819"><ele>138.0</ele><time>2026-03-28T09:51:13Z</time></trkpt><trkpt lat="45.47894384834843" lon="10.775971163293532"><ele>137.0</ele><time>2026-03-28T09:51:14Z</time></trkpt><trkpt lat="45.479090058263075" lon="10.775984849702992"><ele>136.0</ele><time>2026-03-28T09:51:15Z</time></trkpt><trkpt lat="45.479227174947994" lon="10.775976642842723"><ele>136.0</ele><time>2026-03-28T09:51:16Z</time></trkpt><trkpt lat="45.479343922030196" lon="10.775989416585473"><ele>136.0</ele><time>2026-03-28T09:51:17Z</time></trkpt><trkpt lat="45.47942027412935" lon="10.775998885951498"><ele>136.0</ele><time>2026-03-28T09:51:18Z</time></trkpt><trkpt lat="45.479500948856504" lon="10.77592880619507"><ele>136.0</ele><time>2026-03-28T09:51:19.999Z</time></trkpt><trkpt lat="45.47950846360707" lon="10.77582108820533"><ele>136.0</ele><time>2026-03-28T09:51:20.999Z</time></trkpt><trkpt lat="45.4795300008532" lon="10.775680045530327"><ele>136.0</ele><time>2026-03-28T09:51:21.999Z</time></trkpt><trkpt lat="45.47955413283262" lon="10.775521205893243"><ele>136.0</ele><time>2026-03-28T09:51:22.999Z</time></trkpt><trkpt lat="45.479584003389505" lon="10.775335894525092"><ele>136.0</ele><time>2026-03-28T09:51:23.999Z</time></trkpt><trkpt lat="45.479628738958816" lon="10.775165824168333"><ele>136.0</ele><time>2026-03-28T09:51:24.999Z</time></trkpt><trkpt lat="45.47969911030849" lon="10.774975936785706"><ele>135.0</ele><time>2026-03-28T09:51:25.999Z</time></trkpt><trkpt lat="45.479774150125486" lon="10.774771008276321"><ele>134.0</ele><time>2026-03-28T09:51:26.999Z</time></trkpt><trkpt lat="45.47985228760509" lon="10.774545493063783"><ele>133.0</ele><time>2026-03-28T09:51:27.999Z</time></trkpt><trkpt lat="45.47992592486765" lon="10.77432463331513"><ele>133.0</ele><time>2026-03-28T09:51:28.999Z</time></trkpt><trkpt lat="45.47998935248394" lon="10.774134394144177"><ele>133.0</ele><time>2026-03-28T09:51:29.999Z</time></trkpt><trkpt lat="45.48004435209291" lon="10.773970346119581"><ele>133.0</ele><time>2026-03-28T09:51:30.999Z</time></trkpt><trkpt lat="45.48009240921089" lon="10.773831634527065"><ele>133.0</ele><time>2026-03-28T09:51:31.999Z</time></trkpt><trkpt lat="45.480124254198586" lon="10.773693370198401"><ele>133.0</ele><time>2026-03-28T09:51:32.999Z</time></trkpt><trkpt lat="45.48018154384746" lon="10.773588849317473"><ele>133.0</ele><time>2026-03-28T09:51:33.999Z</time></trkpt><trkpt lat="45.48024867220836" lon="10.773531906348198"><ele>133.0</ele><time>2026-03-28T09:51:34.999Z</time></trkpt><trkpt lat="45.48033482575358" lon="10.773527692113229"><ele>133.0</ele><time>2026-03-28T09:51:35.999Z</time></trkpt><trkpt lat="45.48041557867972" lon="10.77355774244032"><ele>133.0</ele><time>2026-03-28T09:51:36.999Z</time></trkpt><trkpt lat="45.48051685483719" lon="10.773591863775186"><ele>133.0</ele><time>2026-03-28T09:51:37.999Z</time></trkpt><trkpt lat="45.48061617105397" lon="10.773610530376061"><ele>133.0</ele><time>2026-03-28T09:51:38.999Z</time></trkpt><trkpt lat="45.480686943222196" lon="10.773592122463857"><ele>133.0</ele><time>2026-03-28T09:51:39.999Z</time></trkpt><trkpt lat="45.48078956476496" lon="10.773477877190006"><ele>133.0</ele><time>2026-03-28T09:51:41.999Z</time></trkpt><trkpt lat="45.480791342721275" lon="10.773315381330928"><ele>133.0</ele><time>2026-03-28T09:51:42.999Z</time></trkpt><trkpt lat="45.48082184675624" lon="10.77313627788182"><ele>133.0</ele><time>2026-03-28T09:51:43.999Z</time></trkpt><trkpt lat="45.480844582328345" lon="10.772947261390204"><ele>133.0</ele><time>2026-03-28T09:51:44.999Z</time></trkpt><trkpt lat="45.48086621368589" lon="10.77279323804657"><ele>133.0</ele><time>2026-03-28T09:51:45.999Z</time></trkpt><trkpt lat="45.48090260124253" lon="10.772664485281327"><ele>133.0</ele><time>2026-03-28T09:51:46.999Z</time></trkpt><trkpt lat="45.48097211019492" lon="10.772558108305441"><ele>133.0</ele><time>2026-03-28T09:51:47.999Z</time></trkpt><trkpt lat="45.48107688673028" lon="10.772427260450616"><ele>133.0</ele><time>2026-03-28T09:51:48.999Z</time></trkpt><trkpt lat="45.481194788057735" lon="10.772271747585354"><ele>133.5</ele><time>2026-03-28T09:51:49.999Z</time></trkpt><trkpt lat="45.48131277333471" lon="10.77211612401753"><ele>134.0</ele><time>2026-03-28T09:51:50.999Z</time></trkpt><trkpt lat="45.481408879372765" lon="10.771989359293741"><ele>134.5</ele><time>2026-03-28T09:51:51.999Z</time></trkpt><trkpt lat="45.4814928304566" lon="10.77187834194503"><ele>135.0</ele><time>2026-03-28T09:51:52.999Z</time></trkpt><trkpt lat="45.481567060539994" lon="10.771780802980693"><ele>135.0</ele><time>2026-03-28T09:51:53.999Z</time></trkpt><trkpt lat="45.48162266644243" lon="10.771680308633979"><ele>135.0</ele><time>2026-03-28T09:51:54.999Z</time></trkpt><trkpt lat="45.48170091799373" lon="10.771599312500157"><ele>135.0</ele><time>2026-03-28T09:51:55.999Z</time></trkpt><trkpt lat="45.48179414822851" lon="10.771504696259584"><ele>135.0</ele><time>2026-03-28T09:51:56.999Z</time></trkpt><trkpt lat="45.48187994369925" lon="10.771390539169797"><ele>135.0</ele><time>2026-03-28T09:51:57.999Z</time></trkpt><trkpt lat="45.48196246778092" lon="10.771274270391176"><ele>135.0</ele><time>2026-03-28T09:51:58.999Z</time></trkpt><trkpt lat="45.4820476759718" lon="10.771150767577899"><ele>135.0</ele><time>2026-03-28T09:51:59.999Z</time></trkpt><trkpt lat="45.48213337388007" lon="10.771027203758411"><ele>135.0</ele><time>2026-03-28T09:52:00.999Z</time></trkpt><trkpt lat="45.482210252418746" lon="10.770896960113715"><ele>135.0</ele><time>2026-03-28T09:52:01.999Z</time></trkpt><trkpt lat="45.48228698303636" lon="10.770788176814893"><ele>135.0</ele><time>2026-03-28T09:52:02.999Z</time></trkpt><trkpt lat="45.482374682481655" lon="10.770686510489586"><ele>135.0</ele><time>2026-03-28T09:52:03.999Z</time></trkpt><trkpt lat="45.48245310229095" lon="10.770574800201386"><ele>135.0</ele><time>2026-03-28T09:52:04.999Z</time></trkpt><trkpt lat="45.482510098329584" lon="10.770496705128036"><ele>135.0</ele><time>2026-03-28T09:52:05.999Z</time></trkpt><trkpt lat="45.48255171546968" lon="10.770408947206784"><ele>135.0</ele><time>2026-03-28T09:52:07Z</time></trkpt><trkpt lat="45.482658243297365" lon="10.77035091659924"><ele>135.0</ele><time>2026-03-28T09:52:09Z</time></trkpt><trkpt lat="45.482725074517255" lon="10.77036503377696"><ele>135.0</ele><time>2026-03-28T09:52:10Z</time></trkpt><trkpt lat="45.48279435762627" lon="10.770410255696705"><ele>135.0</ele><time>2026-03-28T09:52:11Z</time></trkpt><trkpt lat="45.48287972379502" lon="10.770453285204535"><ele>135.0</ele><time>2026-03-28T09:52:12Z</time></trkpt><trkpt lat="45.482954269507964" lon="10.770485664377496"><ele>135.0</ele><time>2026-03-28T09:52:13Z</time></trkpt><trkpt lat="45.48304877027772" lon="10.770524755002377"><ele>135.0</ele><time>2026-03-28T09:52:14Z</time></trkpt><trkpt lat="45.483139971422105" lon="10.770564974563259"><ele>135.4</ele><time>2026-03-28T09:52:15Z</time></trkpt><trkpt lat="45.48323489300005" lon="10.770598987566137"><ele>135.8</ele><time>2026-03-28T09:52:16Z</time></trkpt><trkpt lat="45.483334247712996" lon="10.770621581559201"><ele>136.2</ele><time>2026-03-28T09:52:17Z</time></trkpt><trkpt lat="45.483435980214296" lon="10.770642768900755"><ele>136.6</ele><time>2026-03-28T09:52:18Z</time></trkpt><trkpt lat="45.48352341291592" lon="10.770652127698737"><ele>137.0</ele><time>2026-03-28T09:52:19Z</time></trkpt><trkpt lat="45.48362416130404" lon="10.770649601393144"><ele>137.0</ele><time>2026-03-28T09:52:20Z</time></trkpt><trkpt lat="45.483729165013074" lon="10.77064680003498"><ele>137.0</ele><time>2026-03-28T09:52:21Z</time></trkpt><trkpt lat="45.48383185771733" lon="10.770658176692184"><ele>137.0</ele><time>2026-03-28T09:52:22Z</time></trkpt><trkpt lat="45.48393378612551" lon="10.770681733084862"><ele>137.0</ele><time>2026-03-28T09:52:23Z</time></trkpt><trkpt lat="45.48403286365433" lon="10.770716933150842"><ele>137.0</ele><time>2026-03-28T09:52:24Z</time></trkpt><trkpt lat="45.4841334787142" lon="10.770764306858638"><ele>137.25</ele><time>2026-03-28T09:52:25Z</time></trkpt><trkpt lat="45.48423784877038" lon="10.770815604305724"><ele>137.5</ele><time>2026-03-28T09:52:26Z</time></trkpt><trkpt lat="45.48433718035284" lon="10.77087989675633"><ele>137.75</ele><time>2026-03-28T09:52:27Z</time></trkpt><trkpt lat="45.48443790223287" lon="10.770959759740746"><ele>138.0</ele><time>2026-03-28T09:52:28Z</time></trkpt><trkpt lat="45.48453846220458" lon="10.771068030912376"><ele>137.20000000000002</ele><time>2026-03-28T09:52:29Z</time></trkpt><trkpt lat="45.48462508283828" lon="10.771165192761066"><ele>136.4</ele><time>2026-03-28T09:52:30Z</time></trkpt><trkpt lat="45.48470562412616" lon="10.771241334930902"><ele>135.60000000000002</ele><time>2026-03-28T09:52:31Z</time></trkpt><trkpt lat="45.48479059202119" lon="10.771321767526022"><ele>134.8</ele><time>2026-03-28T09:52:32Z</time></trkpt><trkpt lat="45.484898820613154" lon="10.771417233163444"><ele>134.0</ele><time>2026-03-28T09:52:33Z</time></trkpt><trkpt lat="45.48504109926597" lon="10.771473574256687"><ele>134.0</ele><time>2026-03-28T09:52:34Z</time></trkpt><trkpt lat="45.48516967593507" lon="10.771410629009655"><ele>134.0</ele><time>2026-03-28T09:52:35Z</time></trkpt><trkpt lat="45.485396509202275" lon="10.771894180655842"><ele>134.25</ele><time>2026-03-28T09:52:37Z</time></trkpt><trkpt lat="45.48552474601866" lon="10.772029464076903"><ele>134.5</ele><time>2026-03-28T09:52:38Z</time></trkpt><trkpt lat="45.48563260425417" lon="10.77216013913433"><ele>134.75</ele><time>2026-03-28T09:52:39Z</time></trkpt><trkpt lat="45.4857532747595" lon="10.772280940387168"><ele>135.0</ele><time>2026-03-28T09:52:40Z</time></trkpt><trkpt lat="45.48587829020982" lon="10.77240500403476"><ele>135.0</ele><time>2026-03-28T09:52:41Z</time></trkpt><trkpt lat="45.48600118866885" lon="10.772512585572702"><ele>135.0</ele><time>2026-03-28T09:52:42Z</time></trkpt><trkpt lat="45.48609911561672" lon="10.772607059003057"><ele>135.0</ele><time>2026-03-28T09:52:43Z</time></trkpt><trkpt lat="45.48616277981688" lon="10.772671545128777"><ele>135.0</ele><time>2026-03-28T09:52:44Z</time></trkpt><trkpt lat="45.48623424315319" lon="10.772744188619864"><ele>135.0</ele><time>2026-03-28T09:52:46Z</time></trkpt><trkpt lat="45.48629581546891" lon="10.772723600194174"><ele>135.2</ele><time>2026-03-28T09:52:49Z</time></trkpt><trkpt lat="45.48636388870327" lon="10.772707126649534"><ele>135.4</ele><time>2026-03-28T09:52:50Z</time></trkpt><trkpt lat="45.48645028480878" lon="10.772628496615956"><ele>135.6</ele><time>2026-03-28T09:52:51Z</time></trkpt><trkpt lat="45.48653700266278" lon="10.772515919906766"><ele>135.8</ele><time>2026-03-28T09:52:52Z</time></trkpt><trkpt lat="45.48662986333256" lon="10.772395522905567"><ele>136.0</ele><time>2026-03-28T09:52:53Z</time></trkpt><trkpt lat="45.48674196808996" lon="10.772260971836754"><ele>136.0</ele><time>2026-03-28T09:52:54Z</time></trkpt><trkpt lat="45.486864030507775" lon="10.772114126836987"><ele>136.0</ele><time>2026-03-28T09:52:55Z</time></trkpt><trkpt lat="45.48697885673008" lon="10.771957548203046"><ele>136.0</ele><time>2026-03-28T09:52:56Z</time></trkpt><trkpt lat="45.48709773212554" lon="10.771784599588676"><ele>136.0</ele><time>2026-03-28T09:52:57Z</time></trkpt><trkpt lat="45.487197712999084" lon="10.77160402820152"><ele>136.0</ele><time>2026-03-28T09:52:58Z</time></trkpt><trkpt lat="45.487302417860406" lon="10.771433135828085"><ele>136.0</ele><time>2026-03-28T09:52:59Z</time></trkpt><trkpt lat="45.48739044028397" lon="10.771269984449878"><ele>136.0</ele><time>2026-03-28T09:53:00Z</time></trkpt><trkpt lat="45.487473570931876" lon="10.771114546344007"><ele>136.0</ele><time>2026-03-28T09:53:01Z</time></trkpt><trkpt lat="45.487550263278735" lon="10.770971115399195"><ele>136.0</ele><time>2026-03-28T09:53:02Z</time></trkpt><trkpt lat="45.48760456039723" lon="10.770834497733594"><ele>136.0</ele><time>2026-03-28T09:53:03Z</time></trkpt><trkpt lat="45.487673083139484" lon="10.770721204581632"><ele>135.8</ele><time>2026-03-28T09:53:04Z</time></trkpt><trkpt lat="45.487733087632805" lon="10.770629854032679"><ele>135.6</ele><time>2026-03-28T09:53:05Z</time></trkpt><trkpt lat="45.487780434035315" lon="10.7705509404678"><ele>135.4</ele><time>2026-03-28T09:53:06Z</time></trkpt><trkpt lat="45.48786325758497" lon="10.770487505780219"><ele>135.2</ele><time>2026-03-28T09:53:08Z</time></trkpt><trkpt lat="45.48800215486206" lon="10.770581047710648"><ele>135.0</ele><time>2026-03-28T09:53:10Z</time></trkpt><trkpt lat="45.48809223167605" lon="10.770656024640603"><ele>135.0</ele><time>2026-03-28T09:53:11Z</time></trkpt><trkpt lat="45.48816371589946" lon="10.770746959347491"><ele>135.0</ele><time>2026-03-28T09:53:12Z</time></trkpt><trkpt lat="45.48822721242487" lon="10.770810773345193"><ele>135.0</ele><time>2026-03-28T09:53:13Z</time></trkpt><trkpt lat="45.4882757692492" lon="10.770874613431364"><ele>135.0</ele><time>2026-03-28T09:53:14Z</time></trkpt><trkpt lat="45.488346424941305" lon="10.770958533864473"><ele>135.0</ele><time>2026-03-28T09:53:16Z</time></trkpt><trkpt lat="45.488414365766324" lon="10.771048548236317"><ele>135.0</ele><time>2026-03-28T09:53:19Z</time></trkpt><trkpt lat="45.4884725537431" lon="10.771109272808284"><ele>135.2</ele><time>2026-03-28T09:53:21Z</time></trkpt><trkpt lat="45.488442894532994" lon="10.771269970429419"><ele>135.4</ele><time>2026-03-28T09:53:22Z</time></trkpt><trkpt lat="45.48840161296969" lon="10.771380980011257"><ele>135.6</ele><time>2026-03-28T09:53:23Z</time></trkpt><trkpt lat="45.48836675708717" lon="10.771468219490545"><ele>135.8</ele><time>2026-03-28T09:53:24Z</time></trkpt><trkpt lat="45.48841367437256" lon="10.771602274310217"><ele>136.0</ele><time>2026-03-28T09:53:26Z</time></trkpt><trkpt lat="45.488513272903695" lon="10.771574420679007"><ele>136.0</ele><time>2026-03-28T09:53:28Z</time></trkpt><trkpt lat="45.48856490748446" lon="10.771495951526095"><ele>136.0</ele><time>2026-03-28T09:53:28.999Z</time></trkpt><trkpt lat="45.48861100759803" lon="10.77138982798476"><ele>136.0</ele><time>2026-03-28T09:53:29.999Z</time></trkpt><trkpt lat="45.48867936259417" lon="10.77126721801048"><ele>136.0</ele><time>2026-03-28T09:53:30.999Z</time></trkpt><trkpt lat="45.488771075797295" lon="10.771142076802269"><ele>136.0</ele><time>2026-03-28T09:53:31.999Z</time></trkpt><trkpt lat="45.48887961771283" lon="10.771013704183776"><ele>136.5</ele><time>2026-03-28T09:53:32.999Z</time></trkpt><trkpt lat="45.48900607539768" lon="10.77090807454364"><ele>137.0</ele><time>2026-03-28T09:53:33.999Z</time></trkpt><trkpt lat="45.48913416898005" lon="10.770835468137482"><ele>137.5</ele><time>2026-03-28T09:53:34.999Z</time></trkpt><trkpt lat="45.48925020143163" lon="10.77078523105992"><ele>138.0</ele><time>2026-03-28T09:53:35.999Z</time></trkpt><trkpt lat="45.489358546936984" lon="10.77073371573126"><ele>138.0</ele><time>2026-03-28T09:53:36.999Z</time></trkpt><trkpt lat="45.4894810908803" lon="10.770715618907527"><ele>138.0</ele><time>2026-03-28T09:53:37.999Z</time></trkpt><trkpt lat="45.489607757593575" lon="10.770656646495192"><ele>138.0</ele><time>2026-03-28T09:53:38.999Z</time></trkpt><trkpt lat="45.48975188540042" lon="10.770624593453453"><ele>138.0</ele><time>2026-03-28T09:53:39.999Z</time></trkpt><trkpt lat="45.48991630958587" lon="10.77058474645791"><ele>138.0</ele><time>2026-03-28T09:53:40.999Z</time></trkpt><trkpt lat="45.490094519878184" lon="10.770535459583582"><ele>138.0</ele><time>2026-03-28T09:53:41.999Z</time></trkpt><trkpt lat="45.490286861016735" lon="10.770486005087166"><ele>138.0</ele><time>2026-03-28T09:53:42.999Z</time></trkpt><trkpt lat="45.49048181697398" lon="10.770439202351284"><ele>138.0</ele><time>2026-03-28T09:53:43.999Z</time></trkpt><trkpt lat="45.4906875931708" lon="10.770389418726502"><ele>138.0</ele><time>2026-03-28T09:53:44.999Z</time></trkpt><trkpt lat="45.4908952343749" lon="10.7703346045106"><ele>138.0</ele><time>2026-03-28T09:53:45.999Z</time></trkpt><trkpt lat="45.491107450571626" lon="10.770270747166975"><ele>139.0</ele><time>2026-03-28T09:53:46.999Z</time></trkpt><trkpt lat="45.49130706392126" lon="10.77020395270291"><ele>140.0</ele><time>2026-03-28T09:53:47.999Z</time></trkpt><trkpt lat="45.49148832686374" lon="10.770127581854823"><ele>141.0</ele><time>2026-03-28T09:53:48.999Z</time></trkpt><trkpt lat="45.49164073445585" lon="10.770059359366718"><ele>139.5</ele><time>2026-03-28T09:53:49.999Z</time></trkpt><trkpt lat="45.491778129104524" lon="10.769996713824447"><ele>138.0</ele><time>2026-03-28T09:53:50.999Z</time></trkpt><trkpt lat="45.49191353810689" lon="10.769929464242722"><ele>136.5</ele><time>2026-03-28T09:53:51.999Z</time></trkpt><trkpt lat="45.49204657725466" lon="10.769854241053977"><ele>135.0</ele><time>2026-03-28T09:53:52.999Z</time></trkpt><trkpt lat="45.49216870062902" lon="10.7697736972063"><ele>134.6</ele><time>2026-03-28T09:53:53.999Z</time></trkpt><trkpt lat="45.492277744291485" lon="10.769691740146614"><ele>134.2</ele><time>2026-03-28T09:53:54.999Z</time></trkpt><trkpt lat="45.49236380464251" lon="10.769610206465282"><ele>133.8</ele><time>2026-03-28T09:53:55.999Z</time></trkpt><trkpt lat="45.49243206620777" lon="10.769549241036128"><ele>133.4</ele><time>2026-03-28T09:53:56.999Z</time></trkpt><trkpt lat="45.49252607628278" lon="10.769513229561651"><ele>133.0</ele><time>2026-03-28T09:53:58.999Z</time></trkpt><trkpt lat="45.49259121893803" lon="10.769697080586974"><ele>133.0</ele><time>2026-03-28T09:54:00.999Z</time></trkpt><trkpt lat="45.49265518086212" lon="10.769840191134598"><ele>133.0</ele><time>2026-03-28T09:54:01.999Z</time></trkpt><trkpt lat="45.49272665428403" lon="10.769999638031608"><ele>133.0</ele><time>2026-03-28T09:54:02.999Z</time></trkpt><trkpt lat="45.492796478082276" lon="10.770171622119872"><ele>133.0</ele><time>2026-03-28T09:54:03.999Z</time></trkpt><trkpt lat="45.49288351269063" lon="10.770336230394106"><ele>133.0</ele><time>2026-03-28T09:54:04.999Z</time></trkpt><trkpt lat="45.49295810485304" lon="10.770515104054036"><ele>133.0</ele><time>2026-03-28T09:54:05.999Z</time></trkpt><trkpt lat="45.49303891271413" lon="10.77070656576375"><ele>133.0</ele><time>2026-03-28T09:54:06.999Z</time></trkpt><trkpt lat="45.493134514883735" lon="10.770878561572797"><ele>133.0</ele><time>2026-03-28T09:54:07.999Z</time></trkpt><trkpt lat="45.4932225269809" lon="10.770995936673685"><ele>133.0</ele><time>2026-03-28T09:54:08.999Z</time></trkpt><trkpt lat="45.49328808633588" lon="10.771113614827112"><ele>133.0</ele><time>2026-03-28T09:54:09.999Z</time></trkpt><trkpt lat="45.4933583067471" lon="10.77117699526683"><ele>133.0</ele><time>2026-03-28T09:54:10.999Z</time></trkpt><trkpt lat="45.49342582026873" lon="10.771197172952357"><ele>133.0</ele><time>2026-03-28T09:54:11.999Z</time></trkpt><trkpt lat="45.493532596374244" lon="10.771165110585796"><ele>134.33333333333334</ele><time>2026-03-28T09:54:13Z</time></trkpt><trkpt lat="45.493688533018144" lon="10.771171801990862"><ele>135.66666666666666</ele><time>2026-03-28T09:54:14Z</time></trkpt><trkpt lat="45.49384541871459" lon="10.771172763038482"><ele>137.0</ele><time>2026-03-28T09:54:15Z</time></trkpt><trkpt lat="45.49400286697788" lon="10.771186703835781"><ele>137.0</ele><time>2026-03-28T09:54:16Z</time></trkpt><trkpt lat="45.49412533135112" lon="10.771199938289245"><ele>137.0</ele><time>2026-03-28T09:54:17Z</time></trkpt><trkpt lat="45.494224085385525" lon="10.77122102960108"><ele>137.0</ele><time>2026-03-28T09:54:18Z</time></trkpt><trkpt lat="45.49429940358768" lon="10.77125558862366"><ele>137.0</ele><time>2026-03-28T09:54:19Z</time></trkpt><trkpt lat="45.49433926114934" lon="10.771419718872982"><ele>137.0</ele><time>2026-03-28T09:54:21Z</time></trkpt><trkpt lat="45.49433146875903" lon="10.771547121142472"><ele>137.0</ele><time>2026-03-28T09:54:22Z</time></trkpt><trkpt lat="45.49433656655198" lon="10.771745425269442"><ele>137.0</ele><time>2026-03-28T09:54:23Z</time></trkpt><trkpt lat="45.49434270723132" lon="10.771984297676108"><ele>137.0</ele><time>2026-03-28T09:54:24Z</time></trkpt><trkpt lat="45.4943658206567" lon="10.772222321601902"><ele>137.0</ele><time>2026-03-28T09:54:25Z</time></trkpt><trkpt lat="45.49436908787327" lon="10.7724983577795"><ele>137.0</ele><time>2026-03-28T09:54:26Z</time></trkpt><trkpt lat="45.49439113790186" lon="10.772771747821658"><ele>137.0</ele><time>2026-03-28T09:54:27Z</time></trkpt><trkpt lat="45.494425007880494" lon="10.773044205042869"><ele>137.33333333333331</ele><time>2026-03-28T09:54:28Z</time></trkpt><trkpt lat="45.49444446598347" lon="10.773285863356636"><ele>137.66666666666666</ele><time>2026-03-28T09:54:29Z</time></trkpt><trkpt lat="45.49445514728264" lon="10.773488906286286"><ele>138.0</ele><time>2026-03-28T09:54:30Z</time></trkpt><trkpt lat="45.494482583581174" lon="10.773713613353333"><ele>139.33333333333334</ele><time>2026-03-28T09:54:31Z</time></trkpt><trkpt lat="45.49451304468732" lon="10.773962835689828"><ele>140.66666666666669</ele><time>2026-03-28T09:54:32Z</time></trkpt><trkpt lat="45.494547782206155" lon="10.774202457355752"><ele>142.0</ele><time>2026-03-28T09:54:33Z</time></trkpt><trkpt lat="45.49457725747029" lon="10.774407087955643"><ele>142.0</ele><time>2026-03-28T09:54:34Z</time></trkpt><trkpt lat="45.494603764583935" lon="10.774602167691084"><ele>142.0</ele><time>2026-03-28T09:54:35Z</time></trkpt><trkpt lat="45.49459215491901" lon="10.774807338589262"><ele>142.0</ele><time>2026-03-28T09:54:36Z</time></trkpt><trkpt lat="45.49455142827569" lon="10.774966559364518"><ele>142.0</ele><time>2026-03-28T09:54:37Z</time></trkpt><trkpt lat="45.494526125243354" lon="10.775160849740821"><ele>144.0</ele><time>2026-03-28T09:54:38Z</time></trkpt><trkpt lat="45.49464510130899" lon="10.775410444672996"><ele>146.0</ele><time>2026-03-28T09:54:39Z</time></trkpt><trkpt lat="45.49464795210841" lon="10.77563051451402"><ele>148.0</ele><time>2026-03-28T09:54:40Z</time></trkpt><trkpt lat="45.49467149623166" lon="10.775831304897348"><ele>148.4</ele><time>2026-03-28T09:54:41Z</time></trkpt><trkpt lat="45.4946952770323" lon="10.77603560596944"><ele>148.8</ele><time>2026-03-28T09:54:42Z</time></trkpt><trkpt lat="45.494688164469025" lon="10.776183339793322"><ele>149.2</ele><time>2026-03-28T09:54:43Z</time></trkpt><trkpt lat="45.4946847790422" lon="10.776299543937588"><ele>149.6</ele><time>2026-03-28T09:54:44Z</time></trkpt><trkpt lat="45.49469765164564" lon="10.776388912111422"><ele>150.0</ele><time>2026-03-28T09:54:45Z</time></trkpt><trkpt lat="45.49473609520994" lon="10.776461660477052"><ele>150.0</ele><time>2026-03-28T09:54:46Z</time></trkpt><trkpt lat="45.494825408483635" lon="10.776543368357977"><ele>150.0</ele><time>2026-03-28T09:54:47Z</time></trkpt><trkpt lat="45.494943382486234" lon="10.776632467501717"><ele>150.0</ele><time>2026-03-28T09:54:48Z</time></trkpt><trkpt lat="45.49505953888834" lon="10.776747333626151"><ele>150.0</ele><time>2026-03-28T09:54:49Z</time></trkpt><trkpt lat="45.49519487855543" lon="10.776876544587335"><ele>149.33333333333334</ele><time>2026-03-28T09:54:50Z</time></trkpt><trkpt lat="45.495348746271354" lon="10.777027265538145"><ele>148.66666666666669</ele><time>2026-03-28T09:54:51Z</time></trkpt><trkpt lat="45.4954841094475" lon="10.777177297777657"><ele>148.0</ele><time>2026-03-28T09:54:52Z</time></trkpt><trkpt lat="45.49558607920428" lon="10.77731824494336"><ele>147.6</ele><time>2026-03-28T09:54:53Z</time></trkpt><trkpt lat="45.495661484924454" lon="10.777440182426842"><ele>147.20000000000002</ele><time>2026-03-28T09:54:54Z</time></trkpt><trkpt lat="45.495723694091545" lon="10.777568824503039"><ele>146.8</ele><time>2026-03-28T09:54:55Z</time></trkpt><trkpt lat="45.495762263559044" lon="10.777690742831295"><ele>146.4</ele><time>2026-03-28T09:54:56Z</time></trkpt><trkpt lat="45.495802278962074" lon="10.777773646716481"><ele>146.0</ele><time>2026-03-28T09:54:57Z</time></trkpt><trkpt lat="45.49585461072252" lon="10.777830061529114"><ele>145.0</ele><time>2026-03-28T09:54:58Z</time></trkpt><trkpt lat="45.49595309558918" lon="10.777873521918501"><ele>144.0</ele><time>2026-03-28T09:55:00Z</time></trkpt><trkpt lat="45.49607077297074" lon="10.777815587639221"><ele>143.0</ele><time>2026-03-28T09:55:02Z</time></trkpt><trkpt lat="45.49613497248206" lon="10.777789680590905"><ele>142.0</ele><time>2026-03-28T09:55:03Z</time></trkpt><trkpt lat="45.496201739396426" lon="10.777770880067216"><ele>141.0</ele><time>2026-03-28T09:55:04Z</time></trkpt><trkpt lat="45.496266229145725" lon="10.777768850020626"><ele>140.0</ele><time>2026-03-28T09:55:05Z</time></trkpt><trkpt lat="45.49635957358187" lon="10.777745135904839"><ele>139.83333333333331</ele><time>2026-03-28T09:55:07Z</time></trkpt><trkpt lat="45.49645957165302" lon="10.777721084352816"><ele>139.66666666666666</ele><time>2026-03-28T09:55:09Z</time></trkpt><trkpt lat="45.4965283644634" lon="10.777710905515903"><ele>139.5</ele><time>2026-03-28T09:55:11Z</time></trkpt><trkpt lat="45.49657797988538" lon="10.777606530518863"><ele>139.33333333333334</ele><time>2026-03-28T09:55:16Z</time></trkpt><trkpt lat="45.49661385966729" lon="10.777513558229039"><ele>139.16666666666669</ele><time>2026-03-28T09:55:18Z</time></trkpt><trkpt lat="45.49666087616261" lon="10.777408884932068"><ele>139.0</ele><time>2026-03-28T09:55:22Z</time></trkpt><trkpt lat="45.4967280184236" lon="10.77723613282561"><ele>139.71428571428572</ele><time>2026-03-28T09:55:24Z</time></trkpt><trkpt lat="45.49675920062888" lon="10.777145625886286"><ele>140.42857142857144</ele><time>2026-03-28T09:55:25Z</time></trkpt><trkpt lat="45.49672882335829" lon="10.7770492102819"><ele>141.14285714285717</ele><time>2026-03-28T09:55:26.999Z</time></trkpt><trkpt lat="45.49670192536299" lon="10.77713754214626"><ele>141.85714285714286</ele><time>2026-03-28T09:55:30.999Z</time></trkpt><trkpt lat="45.49674280442201" lon="10.777218945115193"><ele>142.57142857142858</ele><time>2026-03-28T09:55:32.999Z</time></trkpt><trkpt lat="45.49670671257494" lon="10.77731672591056"><ele>143.2857142857143</ele><time>2026-03-28T09:55:34.999Z</time></trkpt><trkpt lat="45.49665213105008" lon="10.777414676133114"><ele>144.0</ele><time>2026-03-28T09:55:35.999Z</time></trkpt><trkpt lat="45.49660883722684" lon="10.777516109303871"><ele>144.0</ele><time>2026-03-28T09:55:37.999Z</time></trkpt><trkpt lat="45.496583657836176" lon="10.777606287775866"><ele>144.0</ele><time>2026-03-28T09:55:46.999Z</time></trkpt><trkpt lat="45.49653682709671" lon="10.777697524075823"><ele>144.0</ele><time>2026-03-28T09:55:48.999Z</time></trkpt><trkpt lat="45.49644710148616" lon="10.777749982868626"><ele>144.0</ele><time>2026-03-28T09:55:50.999Z</time></trkpt><trkpt lat="45.49636806138194" lon="10.777750810637388"><ele>144.0</ele><time>2026-03-28T09:55:51.999Z</time></trkpt><trkpt lat="45.496280065950195" lon="10.777767900025339"><ele>144.0</ele><time>2026-03-28T09:55:52.999Z</time></trkpt><trkpt lat="45.4961675188026" lon="10.777803583185511"><ele>143.2</ele><time>2026-03-28T09:55:53.999Z</time></trkpt><trkpt lat="45.49605399730006" lon="10.777832708088258"><ele>142.4</ele><time>2026-03-28T09:55:54.999Z</time></trkpt><trkpt lat="45.4959702397167" lon="10.777862062039391"><ele>141.6</ele><time>2026-03-28T09:55:55.999Z</time></trkpt><trkpt lat="45.49586561760607" lon="10.777871989592516"><ele>140.8</ele><time>2026-03-28T09:55:57.999Z</time></trkpt><trkpt lat="45.495802258520044" lon="10.777857307984831"><ele>140.0</ele><time>2026-03-28T09:55:59.999Z</time></trkpt><trkpt lat="45.49586210795268" lon="10.777967906432698"><ele>140.0</ele><time>2026-03-28T09:56:02.999Z</time></trkpt><trkpt lat="45.49594048911697" lon="10.777980880795935"><ele>140.0</ele><time>2026-03-28T09:56:03.999Z</time></trkpt><trkpt lat="45.49606195535507" lon="10.777929705855646"><ele>140.0</ele><time>2026-03-28T09:56:04.999Z</time></trkpt><trkpt lat="45.496165224307845" lon="10.777873716883798"><ele>140.0</ele><time>2026-03-28T09:56:05.999Z</time></trkpt><trkpt lat="45.49625169747929" lon="10.777851105260796"><ele>140.0</ele><time>2026-03-28T09:56:06.999Z</time></trkpt><trkpt lat="45.496358043687955" lon="10.777853253004224"><ele>139.83333333333331</ele><time>2026-03-28T09:56:07.999Z</time></trkpt><trkpt lat="45.496452239794365" lon="10.77784537638269"><ele>139.66666666666666</ele><time>2026-03-28T09:56:08.999Z</time></trkpt><trkpt lat="45.49653847981855" lon="10.777838998618066"><ele>139.5</ele><time>2026-03-28T09:56:09.999Z</time></trkpt><trkpt lat="45.49662695071651" lon="10.777832903208191"><ele>139.33333333333334</ele><time>2026-03-28T09:56:10.999Z</time></trkpt><trkpt lat="45.49670043512431" lon="10.777816811016349"><ele>139.16666666666669</ele><time>2026-03-28T09:56:11.999Z</time></trkpt><trkpt lat="45.49678232580287" lon="10.777834477753792"><ele>139.0</ele><time>2026-03-28T09:56:12.999Z</time></trkpt><trkpt lat="45.4968511812829" lon="10.777886334605718"><ele>139.0</ele><time>2026-03-28T09:56:13.999Z</time></trkpt><trkpt lat="45.49690675955086" lon="10.777965793027146"><ele>139.0</ele><time>2026-03-28T09:56:14.999Z</time></trkpt><trkpt lat="45.49696390557583" lon="10.778031822729652"><ele>139.0</ele><time>2026-03-28T09:56:15.999Z</time></trkpt><trkpt lat="45.49701797293159" lon="10.778106066380731"><ele>139.0</ele><time>2026-03-28T09:56:16.999Z</time></trkpt><trkpt lat="45.497074623018214" lon="10.778174373286866"><ele>139.0</ele><time>2026-03-28T09:56:17.999Z</time></trkpt><trkpt lat="45.49713430491025" lon="10.778208768757946"><ele>139.0</ele><time>2026-03-28T09:56:19Z</time></trkpt><trkpt lat="45.49720495741982" lon="10.778212547545452"><ele>139.0</ele><time>2026-03-28T09:56:21Z</time></trkpt><trkpt lat="45.49722282610824" lon="10.778322842852557"><ele>139.2</ele><time>2026-03-28T09:56:23Z</time></trkpt><trkpt lat="45.49721691035267" lon="10.778438592499242"><ele>139.4</ele><time>2026-03-28T09:56:24Z</time></trkpt><trkpt lat="45.49716928664267" lon="10.778597484862372"><ele>139.6</ele><time>2026-03-28T09:56:25Z</time></trkpt><trkpt lat="45.4971273329091" lon="10.77875093010826"><ele>139.8</ele><time>2026-03-28T09:56:26Z</time></trkpt><trkpt lat="45.497094498157395" lon="10.77892625083417"><ele>140.0</ele><time>2026-03-28T09:56:27Z</time></trkpt><trkpt lat="45.497055527815974" lon="10.779112636070835"><ele>139.33333333333331</ele><time>2026-03-28T09:56:28Z</time></trkpt><trkpt lat="45.49701089838627" lon="10.779305743129335"><ele>138.66666666666666</ele><time>2026-03-28T09:56:29Z</time></trkpt><trkpt lat="45.496984535864414" lon="10.779521976141462"><ele>138.0</ele><time>2026-03-28T09:56:30Z</time></trkpt><trkpt lat="45.49697346020722" lon="10.779750496891248"><ele>137.0</ele><time>2026-03-28T09:56:31Z</time></trkpt><trkpt lat="45.496979003958295" lon="10.779981150541424"><ele>136.0</ele><time>2026-03-28T09:56:32Z</time></trkpt><trkpt lat="45.49696851558082" lon="10.780200340844564"><ele>135.0</ele><time>2026-03-28T09:56:33Z</time></trkpt><trkpt lat="45.49696818166662" lon="10.78039203828296"><ele>135.0</ele><time>2026-03-28T09:56:34Z</time></trkpt><trkpt lat="45.496967125085135" lon="10.780563366445307"><ele>135.0</ele><time>2026-03-28T09:56:35Z</time></trkpt><trkpt lat="45.49695693677255" lon="10.78069472685076"><ele>135.0</ele><time>2026-03-28T09:56:36Z</time></trkpt><trkpt lat="45.49692319590019" lon="10.780829798001383"><ele>135.0</ele><time>2026-03-28T09:56:37Z</time></trkpt><trkpt lat="45.496846976397144" lon="10.780940157452386"><ele>135.0</ele><time>2026-03-28T09:56:38Z</time></trkpt><trkpt lat="45.49682611402528" lon="10.7810378304865"><ele>135.4</ele><time>2026-03-28T09:56:39Z</time></trkpt><trkpt lat="45.49685656038659" lon="10.78114580273366"><ele>135.8</ele><time>2026-03-28T09:56:41Z</time></trkpt><trkpt lat="45.49694053944515" lon="10.781164233022372"><ele>136.2</ele><time>2026-03-28T09:56:42Z</time></trkpt><trkpt lat="45.49703363558097" lon="10.78117180794794"><ele>136.6</ele><time>2026-03-28T09:56:43Z</time></trkpt><trkpt lat="45.49714481914746" lon="10.781161150628865"><ele>137.0</ele><time>2026-03-28T09:56:44Z</time></trkpt><trkpt lat="45.49726733965692" lon="10.78115795107874"><ele>138.0</ele><time>2026-03-28T09:56:45Z</time></trkpt><trkpt lat="45.49740295501699" lon="10.781164639810449"><ele>139.0</ele><time>2026-03-28T09:56:46Z</time></trkpt><trkpt lat="45.49752055392204" lon="10.781168924947172"><ele>140.0</ele><time>2026-03-28T09:56:47Z</time></trkpt><trkpt lat="45.4976404227967" lon="10.781179122814425"><ele>141.0</ele><time>2026-03-28T09:56:48Z</time></trkpt><trkpt lat="45.497737131010545" lon="10.781195322740261"><ele>141.0</ele><time>2026-03-28T09:56:49Z</time></trkpt><trkpt lat="45.49781507879947" lon="10.781208636689378"><ele>141.0</ele><time>2026-03-28T09:56:50Z</time></trkpt><trkpt lat="45.497920819408634" lon="10.781257090003473"><ele>141.0</ele><time>2026-03-28T09:56:52Z</time></trkpt><trkpt lat="45.49793610335628" lon="10.781404783130876"><ele>141.0</ele><time>2026-03-28T09:56:53Z</time></trkpt><trkpt lat="45.49791986306032" lon="10.781538864496094"><ele>141.0</ele><time>2026-03-28T09:56:54Z</time></trkpt><trkpt lat="45.497939927439916" lon="10.781725757810667"><ele>144.25</ele><time>2026-03-28T09:56:55Z</time></trkpt><trkpt lat="45.49793703963715" lon="10.781888068075157"><ele>147.5</ele><time>2026-03-28T09:56:56Z</time></trkpt><trkpt lat="45.49795114593562" lon="10.782089665703472"><ele>150.75</ele><time>2026-03-28T09:56:57Z</time></trkpt><trkpt lat="45.4979662755026" lon="10.782299903885889"><ele>154.0</ele><time>2026-03-28T09:56:58Z</time></trkpt><trkpt lat="45.49798447894792" lon="10.782521953704677"><ele>154.0</ele><time>2026-03-28T09:56:59Z</time></trkpt><trkpt lat="45.49800659055145" lon="10.78271615767863"><ele>154.0</ele><time>2026-03-28T09:57:00Z</time></trkpt><trkpt lat="45.49802899834702" lon="10.782884159130901"><ele>154.0</ele><time>2026-03-28T09:57:01Z</time></trkpt><trkpt lat="45.49805232648136" lon="10.783040904412552"><ele>154.0</ele><time>2026-03-28T09:57:02Z</time></trkpt><trkpt lat="45.498059698706555" lon="10.7831795066416"><ele>154.0</ele><time>2026-03-28T09:57:03Z</time></trkpt><trkpt lat="45.49808923790098" lon="10.783311837018225"><ele>154.0</ele><time>2026-03-28T09:57:04Z</time></trkpt><trkpt lat="45.49814102209596" lon="10.783399586802997"><ele>154.0</ele><time>2026-03-28T09:57:05Z</time></trkpt><trkpt lat="45.49819142117675" lon="10.783545233009065"><ele>154.0</ele><time>2026-03-28T09:57:12Z</time></trkpt><trkpt lat="45.49821481802402" lon="10.783660388498832"><ele>154.0</ele><time>2026-03-28T09:57:13Z</time></trkpt><trkpt lat="45.49820865899855" lon="10.783807137840203"><ele>154.4</ele><time>2026-03-28T09:57:14Z</time></trkpt><trkpt lat="45.49819137121801" lon="10.783924741879321"><ele>154.8</ele><time>2026-03-28T09:57:15Z</time></trkpt><trkpt lat="45.49818355940172" lon="10.784044941560426"><ele>155.2</ele><time>2026-03-28T09:57:17Z</time></trkpt><trkpt lat="45.49819152944732" lon="10.78413702955716"><ele>155.6</ele><time>2026-03-28T09:57:20Z</time></trkpt><trkpt lat="45.49833135635593" lon="10.784130947352821"><ele>156.0</ele><time>2026-03-28T09:57:21Z</time></trkpt><trkpt lat="45.49844012127462" lon="10.784136890155011"><ele>156.0</ele><time>2026-03-28T09:57:22Z</time></trkpt><trkpt lat="45.4985468939508" lon="10.78413424843725"><ele>156.0</ele><time>2026-03-28T09:57:23Z</time></trkpt><trkpt lat="45.4986625384687" lon="10.784121978674078"><ele>156.0</ele><time>2026-03-28T09:57:24Z</time></trkpt><trkpt lat="45.4987826639458" lon="10.784127138517144"><ele>156.0</ele><time>2026-03-28T09:57:25Z</time></trkpt><trkpt lat="45.4989142514654" lon="10.784131639822302"><ele>156.25</ele><time>2026-03-28T09:57:26Z</time></trkpt><trkpt lat="45.49905662693256" lon="10.784136803587769"><ele>156.5</ele><time>2026-03-28T09:57:27Z</time></trkpt><trkpt lat="45.49918306433162" lon="10.784139461277265"><ele>156.75</ele><time>2026-03-28T09:57:28Z</time></trkpt><trkpt lat="45.49930444788832" lon="10.784124618991662"><ele>157.0</ele><time>2026-03-28T09:57:29Z</time></trkpt><trkpt lat="45.49942106785794" lon="10.78411752999503"><ele>157.0</ele><time>2026-03-28T09:57:30Z</time></trkpt><trkpt lat="45.49952629684767" lon="10.784114814815602"><ele>157.0</ele><time>2026-03-28T09:57:31Z</time></trkpt><trkpt lat="45.49962524854186" lon="10.784089894072267"><ele>157.0</ele><time>2026-03-28T09:57:32Z</time></trkpt><trkpt lat="45.499728346119305" lon="10.784048674961898"><ele>157.0</ele><time>2026-03-28T09:57:33Z</time></trkpt><trkpt lat="45.49981243179861" lon="10.783904133773484"><ele>157.0</ele><time>2026-03-28T09:57:34Z</time></trkpt><trkpt lat="45.49991750737906" lon="10.783803816350702"><ele>157.25</ele><time>2026-03-28T09:57:35Z</time></trkpt><trkpt lat="45.50002394491716" lon="10.783715104258217"><ele>157.5</ele><time>2026-03-28T09:57:36Z</time></trkpt><trkpt lat="45.50013586165592" lon="10.783638076057635"><ele>157.75</ele><time>2026-03-28T09:57:37Z</time></trkpt><trkpt lat="45.5002336005877" lon="10.783567201310962"><ele>158.0</ele><time>2026-03-28T09:57:37.999Z</time></trkpt><trkpt lat="45.500304659893104" lon="10.783446216689246"><ele>158.0</ele><time>2026-03-28T09:57:38.999Z</time></trkpt><trkpt lat="45.500376422437505" lon="10.783286838021848"><ele>158.0</ele><time>2026-03-28T09:57:39.999Z</time></trkpt><trkpt lat="45.50046133853037" lon="10.7831080509963"><ele>158.0</ele><time>2026-03-28T09:57:40.999Z</time></trkpt><trkpt lat="45.50054107047445" lon="10.7829528735006"><ele>158.0</ele><time>2026-03-28T09:57:41.999Z</time></trkpt><trkpt lat="45.50061504033694" lon="10.782844251865013"><ele>158.4</ele><time>2026-03-28T09:57:42.999Z</time></trkpt><trkpt lat="45.50068162812776" lon="10.78281124403224"><ele>158.8</ele><time>2026-03-28T09:57:43.999Z</time></trkpt><trkpt lat="45.500760401415185" lon="10.782789709673304"><ele>159.2</ele><time>2026-03-28T09:57:44.999Z</time></trkpt><trkpt lat="45.50086132474994" lon="10.7827720552846"><ele>159.6</ele><time>2026-03-28T09:57:45.999Z</time></trkpt><trkpt lat="45.50099719211138" lon="10.782756936307688"><ele>160.0</ele><time>2026-03-28T09:57:46.999Z</time></trkpt><trkpt lat="45.5011316257899" lon="10.782746940560662"><ele>160.25</ele><time>2026-03-28T09:57:47.999Z</time></trkpt><trkpt lat="45.50128072728015" lon="10.782720788241116"><ele>160.5</ele><time>2026-03-28T09:57:48.999Z</time></trkpt><trkpt lat="45.50140430249414" lon="10.782686059250226"><ele>160.75</ele><time>2026-03-28T09:57:49.999Z</time></trkpt><trkpt lat="45.50152229195675" lon="10.782659668197853"><ele>161.0</ele><time>2026-03-28T09:57:50.999Z</time></trkpt><trkpt lat="45.501625666439395" lon="10.78267211563194"><ele>161.0</ele><time>2026-03-28T09:57:51.999Z</time></trkpt><trkpt lat="45.50174204379186" lon="10.782697522759124"><ele>161.0</ele><time>2026-03-28T09:57:52.999Z</time></trkpt><trkpt lat="45.50187251895404" lon="10.782736564943068"><ele>161.0</ele><time>2026-03-28T09:57:53.999Z</time></trkpt><trkpt lat="45.502003437409286" lon="10.782808036257675"><ele>161.0</ele><time>2026-03-28T09:57:54.999Z</time></trkpt><trkpt lat="45.50211076982524" lon="10.782883014918744"><ele>159.75</ele><time>2026-03-28T09:57:55.999Z</time></trkpt><trkpt lat="45.50222183634238" lon="10.78294546509757"><ele>158.5</ele><time>2026-03-28T09:57:56.999Z</time></trkpt><trkpt lat="45.50233842723453" lon="10.782979282696452"><ele>157.25</ele><time>2026-03-28T09:57:57.999Z</time></trkpt><trkpt lat="45.502467955567724" lon="10.782981648040186"><ele>156.0</ele><time>2026-03-28T09:57:58.999Z</time></trkpt><trkpt lat="45.502601674193755" lon="10.782956715764872"><ele>156.0</ele><time>2026-03-28T09:57:59.999Z</time></trkpt><trkpt lat="45.5027310733176" lon="10.782937068161008"><ele>156.0</ele><time>2026-03-28T09:58:00.999Z</time></trkpt><trkpt lat="45.502840413678044" lon="10.782934615354563"><ele>156.0</ele><time>2026-03-28T09:58:01.999Z</time></trkpt><trkpt lat="45.5029289619103" lon="10.783000111152337"><ele>156.0</ele><time>2026-03-28T09:58:02.999Z</time></trkpt><trkpt lat="45.50302532887107" lon="10.783032561290433"><ele>156.0</ele><time>2026-03-28T09:58:03.999Z</time></trkpt><trkpt lat="45.503156578190485" lon="10.783017359532307"><ele>155.25</ele><time>2026-03-28T09:58:04.999Z</time></trkpt><trkpt lat="45.503276425564046" lon="10.783012080831"><ele>154.5</ele><time>2026-03-28T09:58:05.999Z</time></trkpt><trkpt lat="45.50339440773008" lon="10.783083973456556"><ele>153.75</ele><time>2026-03-28T09:58:06.999Z</time></trkpt><trkpt lat="45.50351313289921" lon="10.783099271013338"><ele>153.0</ele><time>2026-03-28T09:58:07.999Z</time></trkpt><trkpt lat="45.50362918297982" lon="10.78310808609509"><ele>153.75</ele><time>2026-03-28T09:58:08.999Z</time></trkpt><trkpt lat="45.50375126499564" lon="10.783081425509097"><ele>154.5</ele><time>2026-03-28T09:58:09.999Z</time></trkpt><trkpt lat="45.50387448402341" lon="10.78303340501937"><ele>155.25</ele><time>2026-03-28T09:58:10.999Z</time></trkpt><trkpt lat="45.50401606433713" lon="10.783035589700829"><ele>156.0</ele><time>2026-03-28T09:58:11.999Z</time></trkpt><trkpt lat="45.5041739785462" lon="10.782994370755299"><ele>156.0</ele><time>2026-03-28T09:58:12.999Z</time></trkpt><trkpt lat="45.50432641672503" lon="10.7829761827065"><ele>156.0</ele><time>2026-03-28T09:58:13.999Z</time></trkpt><trkpt lat="45.50444135270683" lon="10.782962798013092"><ele>156.0</ele><time>2026-03-28T09:58:14.999Z</time></trkpt><trkpt lat="45.50452863948208" lon="10.783003006260197"><ele>156.0</ele><time>2026-03-28T09:58:15.999Z</time></trkpt><trkpt lat="45.5045870772974" lon="10.783072047142426"><ele>156.0</ele><time>2026-03-28T09:58:16.999Z</time></trkpt><trkpt lat="45.50468296760751" lon="10.783151653741637"><ele>155.2</ele><time>2026-03-28T09:58:17.999Z</time></trkpt><trkpt lat="45.50475944412913" lon="10.783172227833656"><ele>154.39999999999998</ele><time>2026-03-28T09:58:18.999Z</time></trkpt><trkpt lat="45.50486760600825" lon="10.783195290370486"><ele>153.6</ele><time>2026-03-28T09:58:19.999Z</time></trkpt><trkpt lat="45.504964195299" lon="10.783170585973732"><ele>152.79999999999998</ele><time>2026-03-28T09:58:20.999Z</time></trkpt><trkpt lat="45.505068468317425" lon="10.783150859187163"><ele>152.0</ele><time>2026-03-28T09:58:21.999Z</time></trkpt><trkpt lat="45.50513972770307" lon="10.783163458800425"><ele>152.0</ele><time>2026-03-28T09:58:22.999Z</time></trkpt><trkpt lat="45.5052055278347" lon="10.783276745581079"><ele>152.0</ele><time>2026-03-28T09:58:25Z</time></trkpt><trkpt lat="45.5051817700554" lon="10.78343595140538"><ele>152.0</ele><time>2026-03-28T09:58:26Z</time></trkpt><trkpt lat="45.505196793550965" lon="10.783641741522537"><ele>152.0</ele><time>2026-03-28T09:58:27Z</time></trkpt><trkpt lat="45.50522200104751" lon="10.783852683801477"><ele>151.79999999999998</ele><time>2026-03-28T09:58:28Z</time></trkpt><trkpt lat="45.50521481207962" lon="10.784043726133232"><ele>151.6</ele><time>2026-03-28T09:58:29Z</time></trkpt><trkpt lat="45.50521065497967" lon="10.784184739872634"><ele>151.39999999999998</ele><time>2026-03-28T09:58:30Z</time></trkpt><trkpt lat="45.50521310808886" lon="10.78430877649534"><ele>151.2</ele><time>2026-03-28T09:58:31Z</time></trkpt><trkpt lat="45.505226148064914" lon="10.784465976228693"><ele>151.0</ele><time>2026-03-28T09:58:32Z</time></trkpt><trkpt lat="45.505312544476354" lon="10.784662944958797"><ele>150.66666666666669</ele><time>2026-03-28T09:58:33Z</time></trkpt><trkpt lat="45.505341773417165" lon="10.784909679344501"><ele>150.33333333333334</ele><time>2026-03-28T09:58:34Z</time></trkpt><trkpt lat="45.50536882558677" lon="10.785172317699626"><ele>150.0</ele><time>2026-03-28T09:58:35Z</time></trkpt><trkpt lat="45.50540306089542" lon="10.785472553240638"><ele>149.66666666666666</ele><time>2026-03-28T09:58:36Z</time></trkpt><trkpt lat="45.50544420001119" lon="10.785775180255618"><ele>149.33333333333331</ele><time>2026-03-28T09:58:37Z</time></trkpt><trkpt lat="45.50548550935784" lon="10.786097437725042"><ele>149.0</ele><time>2026-03-28T09:58:38Z</time></trkpt><trkpt lat="45.50551400919139" lon="10.786383982685132"><ele>148.66666666666666</ele><time>2026-03-28T09:58:39Z</time></trkpt><trkpt lat="45.505547555262595" lon="10.78670821866157"><ele>148.33333333333334</ele><time>2026-03-28T09:58:40Z</time></trkpt><trkpt lat="45.505593131128634" lon="10.787011190256004"><ele>148.0</ele><time>2026-03-28T09:58:41Z</time></trkpt><trkpt lat="45.505635273635974" lon="10.787299199854173"><ele>147.33333333333334</ele><time>2026-03-28T09:58:42Z</time></trkpt><trkpt lat="45.5056663062773" lon="10.787557140049115"><ele>146.66666666666666</ele><time>2026-03-28T09:58:43Z</time></trkpt><trkpt lat="45.50569386800347" lon="10.787792270500844"><ele>146.0</ele><time>2026-03-28T09:58:44Z</time></trkpt><trkpt lat="45.50571343377181" lon="10.788028152370048"><ele>146.0</ele><time>2026-03-28T09:58:45Z</time></trkpt><trkpt lat="45.505738606837724" lon="10.788234575687545"><ele>146.0</ele><time>2026-03-28T09:58:46Z</time></trkpt><trkpt lat="45.50577600593871" lon="10.788430050334487"><ele>146.0</ele><time>2026-03-28T09:58:47Z</time></trkpt><trkpt lat="45.50587155939688" lon="10.788568439012609"><ele>146.0</ele><time>2026-03-28T09:58:48Z</time></trkpt><trkpt lat="45.50592214746989" lon="10.78877660372834"><ele>145.66666666666666</ele><time>2026-03-28T09:58:49Z</time></trkpt><trkpt lat="45.50598374752332" lon="10.789001676620112"><ele>145.33333333333334</ele><time>2026-03-28T09:58:50Z</time></trkpt><trkpt lat="45.50603840331302" lon="10.789240072425198"><ele>145.0</ele><time>2026-03-28T09:58:51Z</time></trkpt><trkpt lat="45.50609759285345" lon="10.789490687569723"><ele>146.0</ele><time>2026-03-28T09:58:52Z</time></trkpt><trkpt lat="45.50614874142461" lon="10.789744120393468"><ele>147.0</ele><time>2026-03-28T09:58:53Z</time></trkpt><trkpt lat="45.506195644534216" lon="10.789964513494049"><ele>148.0</ele><time>2026-03-28T09:58:54Z</time></trkpt><trkpt lat="45.50622572763089" lon="10.790171508342809"><ele>148.0</ele><time>2026-03-28T09:58:55Z</time></trkpt><trkpt lat="45.50625840329164" lon="10.790406261092423"><ele>148.0</ele><time>2026-03-28T09:58:56Z</time></trkpt><trkpt lat="45.50626860507296" lon="10.790615949488304"><ele>148.0</ele><time>2026-03-28T09:58:57Z</time></trkpt><trkpt lat="45.50628901327356" lon="10.790842890814549"><ele>148.25</ele><time>2026-03-28T09:58:58Z</time></trkpt><trkpt lat="45.506321209049766" lon="10.791060648400059"><ele>148.5</ele><time>2026-03-28T09:58:59Z</time></trkpt><trkpt lat="45.50633246547214" lon="10.7912566286835"><ele>148.75</ele><time>2026-03-28T09:59:00Z</time></trkpt><trkpt lat="45.506345293102015" lon="10.791429095566068"><ele>149.0</ele><time>2026-03-28T09:59:01Z</time></trkpt><trkpt lat="45.506355544456916" lon="10.79159550980251"><ele>149.0</ele><time>2026-03-28T09:59:02Z</time></trkpt><trkpt lat="45.50636190639815" lon="10.79174974421091"><ele>149.0</ele><time>2026-03-28T09:59:03Z</time></trkpt><trkpt lat="45.50637717197069" lon="10.79190366364794"><ele>149.0</ele><time>2026-03-28T09:59:04Z</time></trkpt><trkpt lat="45.506413605742395" lon="10.792062390009006"><ele>149.0</ele><time>2026-03-28T09:59:05Z</time></trkpt><trkpt lat="45.506462633951735" lon="10.792247507310075"><ele>149.0</ele><time>2026-03-28T09:59:06Z</time></trkpt><trkpt lat="45.50650455694326" lon="10.792419636992841"><ele>149.0</ele><time>2026-03-28T09:59:07Z</time></trkpt><trkpt lat="45.50654444417796" lon="10.792601181071232"><ele>149.0</ele><time>2026-03-28T09:59:08Z</time></trkpt><trkpt lat="45.50658441430499" lon="10.792756309372793"><ele>149.0</ele><time>2026-03-28T09:59:09Z</time></trkpt><trkpt lat="45.506613583088445" lon="10.7928879328038"><ele>149.2</ele><time>2026-03-28T09:59:10Z</time></trkpt><trkpt lat="45.50663101742047" lon="10.793009218706043"><ele>149.4</ele><time>2026-03-28T09:59:11Z</time></trkpt><trkpt lat="45.50663486387208" lon="10.793121099457098"><ele>149.6</ele><time>2026-03-28T09:59:12Z</time></trkpt><trkpt lat="45.50664061552385" lon="10.793289588813272"><ele>149.8</ele><time>2026-03-28T09:59:13Z</time></trkpt><trkpt lat="45.50663116763493" lon="10.793458870182022"><ele>150.0</ele><time>2026-03-28T09:59:14Z</time></trkpt><trkpt lat="45.50662392820613" lon="10.793640376325705"><ele>150.25</ele><time>2026-03-28T09:59:15Z</time></trkpt><trkpt lat="45.50661916734774" lon="10.793822437796994"><ele>150.5</ele><time>2026-03-28T09:59:16Z</time></trkpt><trkpt lat="45.50660789093683" lon="10.794006523843265"><ele>150.75</ele><time>2026-03-28T09:59:17Z</time></trkpt><trkpt lat="45.50657502350726" lon="10.794185925030346"><ele>151.0</ele><time>2026-03-28T09:59:18Z</time></trkpt><trkpt lat="45.506562205526016" lon="10.794355516431459"><ele>151.0</ele><time>2026-03-28T09:59:19Z</time></trkpt><trkpt lat="45.50656695141866" lon="10.794505248540133"><ele>151.0</ele><time>2026-03-28T09:59:20Z</time></trkpt><trkpt lat="45.506555216976196" lon="10.794661080322507"><ele>151.0</ele><time>2026-03-28T09:59:21Z</time></trkpt><trkpt lat="45.50653997893428" lon="10.794793733992526"><ele>151.0</ele><time>2026-03-28T09:59:22Z</time></trkpt><trkpt lat="45.50653249316054" lon="10.794925406033942"><ele>151.0</ele><time>2026-03-28T09:59:23Z</time></trkpt><trkpt lat="45.50653045925821" lon="10.79502379573177"><ele>151.0</ele><time>2026-03-28T09:59:24Z</time></trkpt><trkpt lat="45.50654297878632" lon="10.795142579222647"><ele>151.0</ele><time>2026-03-28T09:59:26Z</time></trkpt><trkpt lat="45.50661612776621" lon="10.795281550656632"><ele>151.0</ele><time>2026-03-28T09:59:29Z</time></trkpt><trkpt lat="45.50665271429669" lon="10.795362884788519"><ele>151.0</ele><time>2026-03-28T09:59:30Z</time></trkpt><trkpt lat="45.50669690251501" lon="10.795442340674755"><ele>151.0</ele><time>2026-03-28T09:59:31Z</time></trkpt><trkpt lat="45.506758876217205" lon="10.795492141945449"><ele>151.0</ele><time>2026-03-28T09:59:32Z</time></trkpt><trkpt lat="45.506830958348026" lon="10.795498128417623"><ele>151.0</ele><time>2026-03-28T09:59:33Z</time></trkpt><trkpt lat="45.50689565894814" lon="10.795448774259286"><ele>151.0</ele><time>2026-03-28T09:59:34Z</time></trkpt><trkpt lat="45.50693512695584" lon="10.795367582825676"><ele>151.0</ele><time>2026-03-28T09:59:35Z</time></trkpt><trkpt lat="45.50694887677061" lon="10.795264122841745"><ele>151.0</ele><time>2026-03-28T09:59:36Z</time></trkpt><trkpt lat="45.50693963209382" lon="10.795147461764861"><ele>151.0</ele><time>2026-03-28T09:59:37Z</time></trkpt><trkpt lat="45.5069166714757" lon="10.795037863365202"><ele>151.0</ele><time>2026-03-28T09:59:38Z</time></trkpt><trkpt lat="45.50687690738874" lon="10.794950354077894"><ele>151.0</ele><time>2026-03-28T09:59:39Z</time></trkpt><trkpt lat="45.506943990080366" lon="10.79479442785772"><ele>151.0</ele><time>2026-03-28T09:59:40Z</time></trkpt><trkpt lat="45.50700819293942" lon="10.79467896617396"><ele>151.0</ele><time>2026-03-28T09:59:41Z</time></trkpt><trkpt lat="45.50710273747012" lon="10.794586659032555"><ele>151.0</ele><time>2026-03-28T09:59:42Z</time></trkpt><trkpt lat="45.50719938397748" lon="10.794488853043518"><ele>151.0</ele><time>2026-03-28T09:59:43Z</time></trkpt><trkpt lat="45.50729695518933" lon="10.794379259682271"><ele>151.0</ele><time>2026-03-28T09:59:44Z</time></trkpt><trkpt lat="45.50738906703751" lon="10.79427485409498"><ele>151.0</ele><time>2026-03-28T09:59:45Z</time></trkpt><trkpt lat="45.50747999598576" lon="10.79416774947474"><ele>151.0</ele><time>2026-03-28T09:59:46Z</time></trkpt><trkpt lat="45.50757487043434" lon="10.794059113913061"><ele>151.0</ele><time>2026-03-28T09:59:47Z</time></trkpt><trkpt lat="45.507668354036795" lon="10.793951989408777"><ele>151.0</ele><time>2026-03-28T09:59:48Z</time></trkpt><trkpt lat="45.50775813067852" lon="10.793852881169892"><ele>151.0</ele><time>2026-03-28T09:59:49Z</time></trkpt><trkpt lat="45.507837400705306" lon="10.793762103744728"><ele>151.0</ele><time>2026-03-28T09:59:50Z</time></trkpt><trkpt lat="45.50791151127587" lon="10.793678431172026"><ele>151.0</ele><time>2026-03-28T09:59:51Z</time></trkpt><trkpt lat="45.507985544245166" lon="10.793595995858267"><ele>151.0</ele><time>2026-03-28T09:59:52Z</time></trkpt><trkpt lat="45.508056096530375" lon="10.793514181160345"><ele>151.0</ele><time>2026-03-28T09:59:53Z</time></trkpt><trkpt lat="45.50813222222768" lon="10.793429400432103"><ele>151.0</ele><time>2026-03-28T09:59:54Z</time></trkpt><trkpt lat="45.50820481927371" lon="10.793330900978079"><ele>151.0</ele><time>2026-03-28T09:59:55Z</time></trkpt><trkpt lat="45.50828435430542" lon="10.793238857232499"><ele>151.0</ele><time>2026-03-28T09:59:56Z</time></trkpt><trkpt lat="45.50836821981116" lon="10.793146024278826"><ele>151.0</ele><time>2026-03-28T09:59:57Z</time></trkpt><trkpt lat="45.5084508859181" lon="10.793051505943566"><ele>151.0</ele><time>2026-03-28T09:59:58Z</time></trkpt><trkpt lat="45.50853716541674" lon="10.792961204482815"><ele>151.0</ele><time>2026-03-28T09:59:59Z</time></trkpt><trkpt lat="45.508623472095366" lon="10.792863285595521"><ele>151.0</ele><time>2026-03-28T10:00:00Z</time></trkpt><trkpt lat="45.50871497811444" lon="10.792763580855851"><ele>151.0</ele><time>2026-03-28T10:00:01Z</time></trkpt><trkpt lat="45.50880593892385" lon="10.792663947084584"><ele>151.25</ele><time>2026-03-28T10:00:02Z</time></trkpt><trkpt lat="45.50889597300653" lon="10.792562262028845"><ele>151.5</ele><time>2026-03-28T10:00:03Z</time></trkpt><trkpt lat="45.50899328974617" lon="10.792452219230071"><ele>151.75</ele><time>2026-03-28T10:00:04Z</time></trkpt><trkpt lat="45.50908526582889" lon="10.792342929124763"><ele>152.0</ele><time>2026-03-28T10:00:04.999Z</time></trkpt><trkpt lat="45.50917456650922" lon="10.792229297183242"><ele>152.0</ele><time>2026-03-28T10:00:05.999Z</time></trkpt><trkpt lat="45.509246031778765" lon="10.792104591559193"><ele>152.0</ele><time>2026-03-28T10:00:06.999Z</time></trkpt><trkpt lat="45.5093122405503" lon="10.79196399492031"><ele>152.0</ele><time>2026-03-28T10:00:07.999Z</time></trkpt><trkpt lat="45.50937167335627" lon="10.791811669207044"><ele>152.0</ele><time>2026-03-28T10:00:08.999Z</time></trkpt><trkpt lat="45.509421170309665" lon="10.791655429879714"><ele>151.75</ele><time>2026-03-28T10:00:09.999Z</time></trkpt><trkpt lat="45.509462812431934" lon="10.791504324983745"><ele>151.5</ele><time>2026-03-28T10:00:10.999Z</time></trkpt><trkpt lat="45.509506155377984" lon="10.791344846498989"><ele>151.25</ele><time>2026-03-28T10:00:11.999Z</time></trkpt><trkpt lat="45.50954840280722" lon="10.791179989282645"><ele>151.0</ele><time>2026-03-28T10:00:12.999Z</time></trkpt><trkpt lat="45.50958042619688" lon="10.791005192088804"><ele>151.5</ele><time>2026-03-28T10:00:13.999Z</time></trkpt><trkpt lat="45.509604588475845" lon="10.79081857992861"><ele>152.0</ele><time>2026-03-28T10:00:14.999Z</time></trkpt><trkpt lat="45.50961377662542" lon="10.790622692135116"><ele>152.5</ele><time>2026-03-28T10:00:15.999Z</time></trkpt><trkpt lat="45.50961581504651" lon="10.790421173158634"><ele>153.0</ele><time>2026-03-28T10:00:16.999Z</time></trkpt><trkpt lat="45.50961247699256" lon="10.790220721409614"><ele>153.25</ele><time>2026-03-28T10:00:17.999Z</time></trkpt><trkpt lat="45.50960817818945" lon="10.790018745707368"><ele>153.5</ele><time>2026-03-28T10:00:18.999Z</time></trkpt><trkpt lat="45.50960419627329" lon="10.789815052095966"><ele>153.75</ele><time>2026-03-28T10:00:19.999Z</time></trkpt><trkpt lat="45.50960193576153" lon="10.789608909074015"><ele>154.0</ele><time>2026-03-28T10:00:20.999Z</time></trkpt><trkpt lat="45.50960792242281" lon="10.789396186792775"><ele>153.33333333333334</ele><time>2026-03-28T10:00:21.999Z</time></trkpt><trkpt lat="45.50962438495446" lon="10.789178735076236"><ele>152.66666666666666</ele><time>2026-03-28T10:00:22.999Z</time></trkpt><trkpt lat="45.50965005086864" lon="10.788954339335502"><ele>152.0</ele><time>2026-03-28T10:00:23.999Z</time></trkpt><trkpt lat="45.509682661319744" lon="10.788723643204404"><ele>151.66666666666666</ele><time>2026-03-28T10:00:24.999Z</time></trkpt><trkpt lat="45.50971485819523" lon="10.78848697096174"><ele>151.33333333333334</ele><time>2026-03-28T10:00:25.999Z</time></trkpt><trkpt lat="45.50975854894038" lon="10.788273306572432"><ele>151.0</ele><time>2026-03-28T10:00:26.999Z</time></trkpt><trkpt lat="45.509777051124765" lon="10.788038227600483"><ele>151.0</ele><time>2026-03-28T10:00:27.999Z</time></trkpt><trkpt lat="45.50976651033285" lon="10.787806891842767"><ele>151.0</ele><time>2026-03-28T10:00:28.999Z</time></trkpt><trkpt lat="45.50974354688706" lon="10.787573599688388"><ele>151.0</ele><time>2026-03-28T10:00:29.999Z</time></trkpt><trkpt lat="45.50971215153659" lon="10.787342860954965"><ele>151.33333333333334</ele><time>2026-03-28T10:00:31Z</time></trkpt><trkpt lat="45.50967550688284" lon="10.787100791589856"><ele>151.66666666666666</ele><time>2026-03-28T10:00:32Z</time></trkpt><trkpt lat="45.50963402061719" lon="10.78687571050064"><ele>152.0</ele><time>2026-03-28T10:00:33Z</time></trkpt><trkpt lat="45.509585313706665" lon="10.78667681925099"><ele>152.0</ele><time>2026-03-28T10:00:34Z</time></trkpt><trkpt lat="45.509535866468966" lon="10.786503756920684"><ele>152.0</ele><time>2026-03-28T10:00:35Z</time></trkpt><trkpt lat="45.50945154717084" lon="10.786344673700405"><ele>152.0</ele><time>2026-03-28T10:00:36Z</time></trkpt><trkpt lat="45.50940081943988" lon="10.78616559771759"><ele>152.0</ele><time>2026-03-28T10:00:37Z</time></trkpt><trkpt lat="45.50935738694418" lon="10.785999057687237"><ele>152.0</ele><time>2026-03-28T10:00:38Z</time></trkpt><trkpt lat="45.50931167372869" lon="10.785811268344862"><ele>152.0</ele><time>2026-03-28T10:00:39Z</time></trkpt><trkpt lat="45.509286578477145" lon="10.785615833428324"><ele>152.0</ele><time>2026-03-28T10:00:40Z</time></trkpt><trkpt lat="45.509239152966664" lon="10.78543129177837"><ele>152.0</ele><time>2026-03-28T10:00:41Z</time></trkpt><trkpt lat="45.50921785020873" lon="10.785227016521878"><ele>152.66666666666666</ele><time>2026-03-28T10:00:42Z</time></trkpt><trkpt lat="45.50920648044578" lon="10.78502100108383"><ele>153.33333333333334</ele><time>2026-03-28T10:00:43Z</time></trkpt><trkpt lat="45.50922329702981" lon="10.784777990776176"><ele>154.0</ele><time>2026-03-28T10:00:44Z</time></trkpt><trkpt lat="45.509235565086165" lon="10.784515299617455"><ele>154.0</ele><time>2026-03-28T10:00:45Z</time></trkpt><trkpt lat="45.50924945706948" lon="10.784251201290523"><ele>154.0</ele><time>2026-03-28T10:00:46Z</time></trkpt><trkpt lat="45.509263545110485" lon="10.783981100749342"><ele>154.0</ele><time>2026-03-28T10:00:47Z</time></trkpt><trkpt lat="45.50927723395991" lon="10.78370856508717"><ele>153.33333333333334</ele><time>2026-03-28T10:00:48Z</time></trkpt><trkpt lat="45.50929079470936" lon="10.783436565129032"><ele>152.66666666666666</ele><time>2026-03-28T10:00:49Z</time></trkpt><trkpt lat="45.509303288160886" lon="10.783185972857403"><ele>152.0</ele><time>2026-03-28T10:00:50Z</time></trkpt><trkpt lat="45.50930088923193" lon="10.782974860011992"><ele>152.0</ele><time>2026-03-28T10:00:51Z</time></trkpt><trkpt lat="45.509310953904375" lon="10.782803131253264"><ele>152.0</ele><time>2026-03-28T10:00:52Z</time></trkpt><trkpt lat="45.50932607565739" lon="10.782685630209203"><ele>152.0</ele><time>2026-03-28T10:00:53Z</time></trkpt><trkpt lat="45.50936399442299" lon="10.782593340049331"><ele>152.0</ele><time>2026-03-28T10:00:55Z</time></trkpt><trkpt lat="45.50935777482569" lon="10.782703657000587"><ele>152.0</ele><time>2026-03-28T10:01:03Z</time></trkpt><trkpt lat="45.50936960911208" lon="10.782829806233373"><ele>152.0</ele><time>2026-03-28T10:01:04Z</time></trkpt><trkpt lat="45.50937834117954" lon="10.782941657248116"><ele>152.0</ele><time>2026-03-28T10:01:05Z</time></trkpt><trkpt lat="45.50938841156696" lon="10.783047985688508"><ele>152.0</ele><time>2026-03-28T10:01:06Z</time></trkpt><trkpt lat="45.5094047818825" lon="10.783204812618132"><ele>152.0</ele><time>2026-03-28T10:01:07Z</time></trkpt><trkpt lat="45.50942577722716" lon="10.783400338389812"><ele>152.0</ele><time>2026-03-28T10:01:08Z</time></trkpt><trkpt lat="45.50945452236365" lon="10.78360707976078"><ele>152.25</ele><time>2026-03-28T10:01:09Z</time></trkpt><trkpt lat="45.509500706417946" lon="10.78380142714752"><ele>152.5</ele><time>2026-03-28T10:01:10Z</time></trkpt><trkpt lat="45.509548822806295" lon="10.784041508267848"><ele>152.75</ele><time>2026-03-28T10:01:11Z</time></trkpt><trkpt lat="45.50965194170142" lon="10.78409831130149"><ele>153.0</ele><time>2026-03-28T10:01:12Z</time></trkpt><trkpt lat="45.509203634618174" lon="10.784716674171934"><ele>153.33333333333334</ele><time>2026-03-28T10:01:13Z</time></trkpt><trkpt lat="45.509182289494596" lon="10.784965749439934"><ele>153.66666666666669</ele><time>2026-03-28T10:01:14Z</time></trkpt><trkpt lat="45.50918737067363" lon="10.785194836689364"><ele>154.0</ele><time>2026-03-28T10:01:15Z</time></trkpt><trkpt lat="45.509213676946004" lon="10.785429496634988"><ele>153.33333333333334</ele><time>2026-03-28T10:01:16Z</time></trkpt><trkpt lat="45.509250971269616" lon="10.785655245710933"><ele>152.66666666666666</ele><time>2026-03-28T10:01:17Z</time></trkpt><trkpt lat="45.5093012231376" lon="10.785869536667269"><ele>152.0</ele><time>2026-03-28T10:01:18Z</time></trkpt><trkpt lat="45.50935764029298" lon="10.78605886349157"><ele>152.0</ele><time>2026-03-28T10:01:19Z</time></trkpt><trkpt lat="45.50941282643557" lon="10.786230163236228"><ele>152.0</ele><time>2026-03-28T10:01:20Z</time></trkpt><trkpt lat="45.50945944013473" lon="10.786351480225205"><ele>152.0</ele><time>2026-03-28T10:01:21Z</time></trkpt><trkpt lat="45.50949615988974" lon="10.786442013927449"><ele>152.0</ele><time>2026-03-28T10:01:22Z</time></trkpt><trkpt lat="45.509568763825406" lon="10.78653490097795"><ele>152.0</ele><time>2026-03-28T10:01:24Z</time></trkpt><trkpt lat="45.50960269974128" lon="10.786399298711384"><ele>152.0</ele><time>2026-03-28T10:01:27Z</time></trkpt><trkpt lat="45.50958797431004" lon="10.786291070949185"><ele>152.0</ele><time>2026-03-28T10:01:28Z</time></trkpt><trkpt lat="45.50957100465532" lon="10.786200591528742"><ele>152.0</ele><time>2026-03-28T10:01:29Z</time></trkpt><trkpt lat="45.50955224137042" lon="10.786092113327634"><ele>152.0</ele><time>2026-03-28T10:01:30Z</time></trkpt><trkpt lat="45.509540522332685" lon="10.785961718162744"><ele>152.0</ele><time>2026-03-28T10:01:31Z</time></trkpt><trkpt lat="45.509510733943515" lon="10.785788312050236"><ele>152.0</ele><time>2026-03-28T10:01:32Z</time></trkpt><trkpt lat="45.50952015823514" lon="10.785615920579223"><ele>152.0</ele><time>2026-03-28T10:01:33Z</time></trkpt><trkpt lat="45.50951451688793" lon="10.785424512441713"><ele>152.0</ele><time>2026-03-28T10:01:34Z</time></trkpt><trkpt lat="45.50949589508147" lon="10.785258218943936"><ele>152.0</ele><time>2026-03-28T10:01:35Z</time></trkpt><trkpt lat="45.50949919457561" lon="10.785129607164182"><ele>152.0</ele><time>2026-03-28T10:01:36Z</time></trkpt><trkpt lat="45.50951053500708" lon="10.785016692879488"><ele>152.0</ele><time>2026-03-28T10:01:37Z</time></trkpt><trkpt lat="45.509547477739794" lon="10.78494278237493"><ele>152.2</ele><time>2026-03-28T10:01:38Z</time></trkpt><trkpt lat="45.509638706197336" lon="10.78487313287296"><ele>152.39999999999998</ele><time>2026-03-28T10:01:40Z</time></trkpt><trkpt lat="45.50971158853145" lon="10.784878234635679"><ele>152.60000000000002</ele><time>2026-03-28T10:01:41Z</time></trkpt><trkpt lat="45.50982495151025" lon="10.784872924092044"><ele>152.8</ele><time>2026-03-28T10:01:42Z</time></trkpt><trkpt lat="45.50994405231531" lon="10.78486333809843"><ele>153.0</ele><time>2026-03-28T10:01:43Z</time></trkpt><trkpt lat="45.51007731717206" lon="10.784870005656924"><ele>153.0</ele><time>2026-03-28T10:01:44Z</time></trkpt><trkpt lat="45.510219819592706" lon="10.784889685978714"><ele>153.0</ele><time>2026-03-28T10:01:45Z</time></trkpt><trkpt lat="45.51037948374904" lon="10.78491611831656"><ele>153.0</ele><time>2026-03-28T10:01:46Z</time></trkpt><trkpt lat="45.51053444281059" lon="10.784938514023244"><ele>153.66666666666666</ele><time>2026-03-28T10:01:47Z</time></trkpt><trkpt lat="45.51069867533221" lon="10.784955224012029"><ele>154.33333333333331</ele><time>2026-03-28T10:01:48Z</time></trkpt><trkpt lat="45.51085535719269" lon="10.784964139381986"><ele>155.0</ele><time>2026-03-28T10:01:49Z</time></trkpt><trkpt lat="45.51101947495248" lon="10.784976473683692"><ele>155.0</ele><time>2026-03-28T10:01:50Z</time></trkpt><trkpt lat="45.51117088710131" lon="10.784988184459243"><ele>155.0</ele><time>2026-03-28T10:01:51Z</time></trkpt><trkpt lat="45.51132123907694" lon="10.785001005403032"><ele>155.0</ele><time>2026-03-28T10:01:52Z</time></trkpt><trkpt lat="45.511454575494184" lon="10.785000390202407"><ele>155.0</ele><time>2026-03-28T10:01:53Z</time></trkpt><trkpt lat="45.511591263076205" lon="10.785003120083408"><ele>155.0</ele><time>2026-03-28T10:01:54Z</time></trkpt><trkpt lat="45.51173495242776" lon="10.785010691613962"><ele>155.0</ele><time>2026-03-28T10:01:55Z</time></trkpt><trkpt lat="45.51188481850087" lon="10.785023669824971"><ele>155.0</ele><time>2026-03-28T10:01:56Z</time></trkpt><trkpt lat="45.512000749822604" lon="10.785017846070014"><ele>155.0</ele><time>2026-03-28T10:01:57Z</time></trkpt><trkpt lat="45.512075372729115" lon="10.784999058520144"><ele>155.33333333333331</ele><time>2026-03-28T10:01:58Z</time></trkpt><trkpt lat="45.512003338199754" lon="10.784942438987565"><ele>155.66666666666666</ele><time>2026-03-28T10:02:09Z</time></trkpt><trkpt lat="45.512006044992496" lon="10.784815194961798"><ele>156.0</ele><time>2026-03-28T10:02:11Z</time></trkpt><trkpt lat="45.5120060449888" lon="10.784714081435256"><ele>156.33333333333334</ele><time>2026-03-28T10:02:12Z</time></trkpt><trkpt lat="45.51200560831513" lon="10.784598535069229"><ele>156.66666666666669</ele><time>2026-03-28T10:02:13Z</time></trkpt><trkpt lat="45.51200318078193" lon="10.784479769694661"><ele>157.0</ele><time>2026-03-28T10:02:14Z</time></trkpt><trkpt lat="45.51200040485297" lon="10.784377062030261"><ele>156.0</ele><time>2026-03-28T10:02:15Z</time></trkpt><trkpt lat="45.512049215605586" lon="10.784059565226169"><ele>155.0</ele><time>2026-03-28T10:02:19Z</time></trkpt><trkpt lat="45.51236465592091" lon="10.78441274019681"><ele>155.0</ele><time>2026-03-28T10:02:20Z</time></trkpt><trkpt lat="45.51249651010978" lon="10.784407484198224"><ele>155.0</ele><time>2026-03-28T10:02:21Z</time></trkpt><trkpt lat="45.51263562910687" lon="10.784408798644584"><ele>155.0</ele><time>2026-03-28T10:02:22Z</time></trkpt><trkpt lat="45.512782720399315" lon="10.784407158147896"><ele>155.0</ele><time>2026-03-28T10:02:23Z</time></trkpt><trkpt lat="45.51293945043895" lon="10.784401908620397"><ele>156.0</ele><time>2026-03-28T10:02:24Z</time></trkpt><trkpt lat="45.51309343056591" lon="10.784402765089341"><ele>157.0</ele><time>2026-03-28T10:02:25Z</time></trkpt><trkpt lat="45.51324143366179" lon="10.78438548484157"><ele>158.0</ele><time>2026-03-28T10:02:26Z</time></trkpt><trkpt lat="45.5134031569045" lon="10.78436703353598"><ele>158.0</ele><time>2026-03-28T10:02:27Z</time></trkpt><trkpt lat="45.513554378335414" lon="10.784335079348102"><ele>158.0</ele><time>2026-03-28T10:02:27.999Z</time></trkpt><trkpt lat="45.51370635667764" lon="10.784311510351843"><ele>158.0</ele><time>2026-03-28T10:02:28.999Z</time></trkpt><trkpt lat="45.513873509829295" lon="10.78428964688264"><ele>159.33333333333331</ele><time>2026-03-28T10:02:29.999Z</time></trkpt><trkpt lat="45.514046003318015" lon="10.784267596072906"><ele>160.66666666666666</ele><time>2026-03-28T10:02:30.999Z</time></trkpt><trkpt lat="45.514219711568096" lon="10.784237305644593"><ele>162.0</ele><time>2026-03-28T10:02:31.999Z</time></trkpt><trkpt lat="45.51442433709099" lon="10.78419692666259"><ele>163.0</ele><time>2026-03-28T10:02:32.999Z</time></trkpt><trkpt lat="45.51460027126908" lon="10.784163484275217"><ele>164.0</ele><time>2026-03-28T10:02:33.999Z</time></trkpt><trkpt lat="45.51475701700033" lon="10.784131689440605"><ele>165.0</ele><time>2026-03-28T10:02:34.999Z</time></trkpt><trkpt lat="45.51490167878056" lon="10.784098259795398"><ele>165.0</ele><time>2026-03-28T10:02:36Z</time></trkpt><trkpt lat="45.51504942019028" lon="10.78426611008641"><ele>165.0</ele><time>2026-03-28T10:02:37Z</time></trkpt><trkpt lat="45.515159405112485" lon="10.784239229498052"><ele>165.0</ele><time>2026-03-28T10:02:38Z</time></trkpt><trkpt lat="45.515259074075196" lon="10.784214547515303"><ele>165.0</ele><time>2026-03-28T10:02:39Z</time></trkpt><trkpt lat="45.51534832406853" lon="10.784191975760617"><ele>165.2</ele><time>2026-03-28T10:02:40Z</time></trkpt><trkpt lat="45.51541432385387" lon="10.784174946571255"><ele>165.4</ele><time>2026-03-28T10:02:41Z</time></trkpt><trkpt lat="45.51551585310994" lon="10.784148750064553"><ele>165.60000000000002</ele><time>2026-03-28T10:02:42Z</time></trkpt><trkpt lat="45.51563943542718" lon="10.784116863529505"><ele>165.8</ele><time>2026-03-28T10:02:43Z</time></trkpt><trkpt lat="45.51574630819153" lon="10.78408928836264"><ele>166.0</ele><time>2026-03-28T10:02:44Z</time></trkpt><trkpt lat="45.515852397912866" lon="10.784061915097391"><ele>166.0</ele><time>2026-03-28T10:02:45Z</time></trkpt><trkpt lat="45.51598139862063" lon="10.78402863048526"><ele>166.0</ele><time>2026-03-28T10:02:46Z</time></trkpt><trkpt lat="45.51612918697003" lon="10.78399049831693"><ele>166.0</ele><time>2026-03-28T10:02:47Z</time></trkpt><trkpt lat="45.51625524355506" lon="10.783957973250335"><ele>166.0</ele><time>2026-03-28T10:02:48Z</time></trkpt><trkpt lat="45.51637492586982" lon="10.783927092962696"><ele>166.5</ele><time>2026-03-28T10:02:49Z</time></trkpt><trkpt lat="45.516520682182836" lon="10.783889485099857"><ele>167.0</ele><time>2026-03-28T10:02:50Z</time></trkpt><trkpt lat="45.516669971693254" lon="10.783850965537477"><ele>167.5</ele><time>2026-03-28T10:02:51Z</time></trkpt><trkpt lat="45.51677683428169" lon="10.783823393024145"><ele>168.0</ele><time>2026-03-28T10:02:52Z</time></trkpt><trkpt lat="45.516845265716924" lon="10.783805736347167"><ele>168.0</ele><time>2026-03-28T10:02:53Z</time></trkpt><trkpt lat="45.516917973146704" lon="10.78378697643512"><ele>168.0</ele><time>2026-03-28T10:02:55Z</time></trkpt><trkpt lat="45.51713139105844" lon="10.78373191056882"><ele>168.0</ele><time>2026-03-28T10:03:06Z</time></trkpt><trkpt lat="45.51726026760417" lon="10.783698658026708"><ele>168.0</ele><time>2026-03-28T10:03:07Z</time></trkpt><trkpt lat="45.5174118323795" lon="10.783660160164054"><ele>167.66666666666666</ele><time>2026-03-28T10:03:08Z</time></trkpt><trkpt lat="45.51760029353154" lon="10.783612466338328"><ele>167.33333333333331</ele><time>2026-03-28T10:03:09Z</time></trkpt><trkpt lat="45.51779887396976" lon="10.783562211668619"><ele>167.0</ele><time>2026-03-28T10:03:10Z</time></trkpt><trkpt lat="45.5180143337038" lon="10.783507685365134"><ele>168.33333333333331</ele><time>2026-03-28T10:03:11Z</time></trkpt><trkpt lat="45.51820997424572" lon="10.783458174668183"><ele>169.66666666666666</ele><time>2026-03-28T10:03:12Z</time></trkpt><trkpt lat="45.51839366547327" lon="10.783411687916308"><ele>171.0</ele><time>2026-03-28T10:03:13Z</time></trkpt><trkpt lat="45.51858020117197" lon="10.783364481326997"><ele>170.0</ele><time>2026-03-28T10:03:14Z</time></trkpt><trkpt lat="45.5187670213034" lon="10.783317202849252"><ele>169.0</ele><time>2026-03-28T10:03:15Z</time></trkpt><trkpt lat="45.51895315434375" lon="10.783270098190455"><ele>168.0</ele><time>2026-03-28T10:03:16Z</time></trkpt><trkpt lat="45.51913718716406" lon="10.783223525078828"><ele>168.0</ele><time>2026-03-28T10:03:17Z</time></trkpt><trkpt lat="45.51931568074875" lon="10.783178353707006"><ele>168.0</ele><time>2026-03-28T10:03:18Z</time></trkpt><trkpt lat="45.519503820558505" lon="10.783130741260797"><ele>168.0</ele><time>2026-03-28T10:03:19Z</time></trkpt><trkpt lat="45.519694727781626" lon="10.783082428401546"><ele>167.66666666666666</ele><time>2026-03-28T10:03:20Z</time></trkpt><trkpt lat="45.5198910437085" lon="10.78303273883094"><ele>167.33333333333331</ele><time>2026-03-28T10:03:21Z</time></trkpt><trkpt lat="45.52009516053559" lon="10.782980924716616"><ele>167.0</ele><time>2026-03-28T10:03:22Z</time></trkpt><trkpt lat="45.52031166577037" lon="10.782924961690279"><ele>166.66666666666666</ele><time>2026-03-28T10:03:23Z</time></trkpt><trkpt lat="45.52052021238008" lon="10.782871055838068"><ele>166.33333333333334</ele><time>2026-03-28T10:03:24Z</time></trkpt><trkpt lat="45.520702373708154" lon="10.782823970141372"><ele>166.0</ele><time>2026-03-28T10:03:25Z</time></trkpt><trkpt lat="45.52087412975189" lon="10.782780032718527"><ele>166.0</ele><time>2026-03-28T10:03:26Z</time></trkpt><trkpt lat="45.52106352814323" lon="10.782732019340639"><ele>166.0</ele><time>2026-03-28T10:03:27Z</time></trkpt><trkpt lat="45.52125816439581" lon="10.782682678162018"><ele>166.0</ele><time>2026-03-28T10:03:28Z</time></trkpt><trkpt lat="45.52145608217423" lon="10.782632505081613"><ele>166.66666666666669</ele><time>2026-03-28T10:03:29Z</time></trkpt><trkpt lat="45.52166175291173" lon="10.782580366550919"><ele>167.33333333333334</ele><time>2026-03-28T10:03:30Z</time></trkpt><trkpt lat="45.52187305458006" lon="10.782526467717949"><ele>168.0</ele><time>2026-03-28T10:03:31Z</time></trkpt><trkpt lat="45.52207267534164" lon="10.782476164007955"><ele>168.0</ele><time>2026-03-28T10:03:32Z</time></trkpt><trkpt lat="45.522258472504404" lon="10.782429343717878"><ele>168.0</ele><time>2026-03-28T10:03:33Z</time></trkpt><trkpt lat="45.52245747386684" lon="10.78237919603641"><ele>168.0</ele><time>2026-03-28T10:03:34Z</time></trkpt><trkpt lat="45.52265830342167" lon="10.782328587590888"><ele>168.0</ele><time>2026-03-28T10:03:35Z</time></trkpt><trkpt lat="45.522849576035966" lon="10.782280387589521"><ele>168.0</ele><time>2026-03-28T10:03:36Z</time></trkpt><trkpt lat="45.523027217836756" lon="10.782235622343556"><ele>168.0</ele><time>2026-03-28T10:03:37Z</time></trkpt><trkpt lat="45.52319937926421" lon="10.78219148790476"><ele>167.0</ele><time>2026-03-28T10:03:38Z</time></trkpt><trkpt lat="45.523363188705716" lon="10.782149402485441"><ele>166.0</ele><time>2026-03-28T10:03:39Z</time></trkpt><trkpt lat="45.5234942384553" lon="10.78211573353703"><ele>165.0</ele><time>2026-03-28T10:03:40Z</time></trkpt><trkpt lat="45.5236100589996" lon="10.782085977297934"><ele>164.0</ele><time>2026-03-28T10:03:41Z</time></trkpt><trkpt lat="45.52374092004044" lon="10.782052356916912"><ele>164.0</ele><time>2026-03-28T10:03:42Z</time></trkpt><trkpt lat="45.52387991777405" lon="10.782016645959855"><ele>164.0</ele><time>2026-03-28T10:03:43Z</time></trkpt><trkpt lat="45.52399820588276" lon="10.78198625574213"><ele>164.0</ele><time>2026-03-28T10:03:44Z</time></trkpt><trkpt lat="45.52410518679273" lon="10.781958770475864"><ele>164.0</ele><time>2026-03-28T10:03:45Z</time></trkpt><trkpt lat="45.5241960359291" lon="10.781935429791176"><ele>164.0</ele><time>2026-03-28T10:03:46Z</time></trkpt><trkpt lat="45.5242769565864" lon="10.78191463995959"><ele>164.0</ele><time>2026-03-28T10:03:47Z</time></trkpt><trkpt lat="45.52439051267817" lon="10.781885566044924"><ele>164.0</ele><time>2026-03-28T10:03:49Z</time></trkpt><trkpt lat="45.52445868592351" lon="10.781868295660571"><ele>164.0</ele><time>2026-03-28T10:03:50Z</time></trkpt><trkpt lat="45.52453993606799" lon="10.78183633101482"><ele>164.0</ele><time>2026-03-28T10:03:51Z</time></trkpt><trkpt lat="45.524610786461146" lon="10.78179997294624"><ele>164.0</ele><time>2026-03-28T10:03:52Z</time></trkpt><trkpt lat="45.52457767572883" lon="10.781057654486023"><ele>164.25</ele><time>2026-03-28T10:03:53Z</time></trkpt><trkpt lat="45.5245920161225" lon="10.78085508256911"><ele>164.5</ele><time>2026-03-28T10:03:54Z</time></trkpt><trkpt lat="45.524580665847544" lon="10.780642614595425"><ele>164.75</ele><time>2026-03-28T10:03:55Z</time></trkpt><trkpt lat="45.524548545302956" lon="10.780425346314635"><ele>165.0</ele><time>2026-03-28T10:03:56Z</time></trkpt><trkpt lat="45.52453206363698" lon="10.780215109925875"><ele>165.25</ele><time>2026-03-28T10:03:57Z</time></trkpt><trkpt lat="45.52453354240761" lon="10.780006300790044"><ele>165.5</ele><time>2026-03-28T10:03:58Z</time></trkpt><trkpt lat="45.52454872402746" lon="10.779812258047528"><ele>165.75</ele><time>2026-03-28T10:03:59Z</time></trkpt><trkpt lat="45.524587344945786" lon="10.779635270358629"><ele>166.0</ele><time>2026-03-28T10:04:00Z</time></trkpt><trkpt lat="45.52460045608894" lon="10.779435894233542"><ele>164.5</ele><time>2026-03-28T10:04:01Z</time></trkpt><trkpt lat="45.52460639206085" lon="10.779237989388266"><ele>163.0</ele><time>2026-03-28T10:04:02Z</time></trkpt><trkpt lat="45.524599758390394" lon="10.77904542552626"><ele>161.5</ele><time>2026-03-28T10:04:03Z</time></trkpt><trkpt lat="45.52458322076917" lon="10.778841758622805"><ele>160.0</ele><time>2026-03-28T10:04:04Z</time></trkpt><trkpt lat="45.524562919667005" lon="10.778631759929368"><ele>160.75</ele><time>2026-03-28T10:04:05Z</time></trkpt><trkpt lat="45.52454290118899" lon="10.77841351084374"><ele>161.5</ele><time>2026-03-28T10:04:06Z</time></trkpt><trkpt lat="45.52452527237444" lon="10.778205416597551"><ele>162.25</ele><time>2026-03-28T10:04:07Z</time></trkpt><trkpt lat="45.524510340249755" lon="10.778046980058475"><ele>163.0</ele><time>2026-03-28T10:04:08Z</time></trkpt><trkpt lat="45.52449704038593" lon="10.777915982376252"><ele>163.0</ele><time>2026-03-28T10:04:09Z</time></trkpt><trkpt lat="45.524485059794024" lon="10.77780621396146"><ele>163.0</ele><time>2026-03-28T10:04:10Z</time></trkpt><trkpt lat="45.52447457574517" lon="10.777713750620919"><ele>163.0</ele><time>2026-03-28T10:04:11Z</time></trkpt><trkpt lat="45.52446055248278" lon="10.777587915305183"><ele>163.0</ele><time>2026-03-28T10:04:12Z</time></trkpt><trkpt lat="45.52444586212262" lon="10.777406389890745"><ele>163.0</ele><time>2026-03-28T10:04:13Z</time></trkpt><trkpt lat="45.52443099065649" lon="10.777200778398605"><ele>161.66666666666669</ele><time>2026-03-28T10:04:14Z</time></trkpt><trkpt lat="45.524416028271375" lon="10.776978632180116"><ele>160.33333333333334</ele><time>2026-03-28T10:04:15Z</time></trkpt><trkpt lat="45.52440022856602" lon="10.776750223416432"><ele>159.0</ele><time>2026-03-28T10:04:16Z</time></trkpt><trkpt lat="45.52438272804522" lon="10.776542085369336"><ele>159.0</ele><time>2026-03-28T10:04:17Z</time></trkpt><trkpt lat="45.52436742133886" lon="10.776370551475404"><ele>159.0</ele><time>2026-03-28T10:04:18Z</time></trkpt><trkpt lat="45.524349125221676" lon="10.77623510929722"><ele>159.0</ele><time>2026-03-28T10:04:19Z</time></trkpt><trkpt lat="45.52436750284875" lon="10.776137590711583"><ele>159.0</ele><time>2026-03-28T10:04:20Z</time></trkpt><trkpt lat="45.52441339215294" lon="10.776066595112972"><ele>159.0</ele><time>2026-03-28T10:04:21Z</time></trkpt><trkpt lat="45.524492535779295" lon="10.77602441810996"><ele>159.0</ele><time>2026-03-28T10:04:22Z</time></trkpt><trkpt lat="45.52454529650466" lon="10.7759686332296"><ele>158.75</ele><time>2026-03-28T10:04:23Z</time></trkpt><trkpt lat="45.52469462981377" lon="10.77594242771745"><ele>158.5</ele><time>2026-03-28T10:04:25Z</time></trkpt><trkpt lat="45.52481087067549" lon="10.775921959479804"><ele>158.25</ele><time>2026-03-28T10:04:26Z</time></trkpt><trkpt lat="45.52493334257044" lon="10.775905262421675"><ele>158.0</ele><time>2026-03-28T10:04:27Z</time></trkpt><trkpt lat="45.52504548637814" lon="10.77590169682432"><ele>158.0</ele><time>2026-03-28T10:04:28Z</time></trkpt><trkpt lat="45.525151216357315" lon="10.775904035230436"><ele>158.0</ele><time>2026-03-28T10:04:29Z</time></trkpt><trkpt lat="45.52523986003179" lon="10.775909051705769"><ele>158.0</ele><time>2026-03-28T10:04:30Z</time></trkpt><trkpt lat="45.52533145126982" lon="10.775891802248578"><ele>158.0</ele><time>2026-03-28T10:04:31Z</time></trkpt><trkpt lat="45.52544749126542" lon="10.775873825108825"><ele>158.0</ele><time>2026-03-28T10:04:32Z</time></trkpt><trkpt lat="45.52557299874651" lon="10.775849096082954"><ele>158.0</ele><time>2026-03-28T10:04:33Z</time></trkpt><trkpt lat="45.5257139652943" lon="10.775821483122018"><ele>158.0</ele><time>2026-03-28T10:04:34Z</time></trkpt><trkpt lat="45.52586021505873" lon="10.775786928594327"><ele>158.0</ele><time>2026-03-28T10:04:35Z</time></trkpt><trkpt lat="45.526004464327045" lon="10.775747104174537"><ele>158.0</ele><time>2026-03-28T10:04:36Z</time></trkpt><trkpt lat="45.526144801992864" lon="10.775686974047584"><ele>158.0</ele><time>2026-03-28T10:04:37Z</time></trkpt><trkpt lat="45.526270363430456" lon="10.775629723741904"><ele>158.0</ele><time>2026-03-28T10:04:38Z</time></trkpt><trkpt lat="45.52639452511906" lon="10.775559163692462"><ele>158.0</ele><time>2026-03-28T10:04:39Z</time></trkpt><trkpt lat="45.52651771222576" lon="10.775498577992389"><ele>158.0</ele><time>2026-03-28T10:04:40Z</time></trkpt><trkpt lat="45.526643244560084" lon="10.77546145520348"><ele>158.0</ele><time>2026-03-28T10:04:41Z</time></trkpt><trkpt lat="45.52677400333108" lon="10.77545816821707"><ele>158.0</ele><time>2026-03-28T10:04:42Z</time></trkpt><trkpt lat="45.526909733915346" lon="10.775495413079302"><ele>158.0</ele><time>2026-03-28T10:04:43Z</time></trkpt><trkpt lat="45.52703716437807" lon="10.775598715840085"><ele>158.0</ele><time>2026-03-28T10:04:44Z</time></trkpt><trkpt lat="45.52720530563602" lon="10.775666428830641"><ele>157.33333333333331</ele><time>2026-03-28T10:04:45Z</time></trkpt><trkpt lat="45.52738711515465" lon="10.77575558021258"><ele>156.66666666666666</ele><time>2026-03-28T10:04:46Z</time></trkpt><trkpt lat="45.52755521327492" lon="10.775825704134686"><ele>156.0</ele><time>2026-03-28T10:04:47Z</time></trkpt><trkpt lat="45.52771297392537" lon="10.775907241331597"><ele>156.0</ele><time>2026-03-28T10:04:48Z</time></trkpt><trkpt lat="45.527860470898" lon="10.77597407065136"><ele>156.0</ele><time>2026-03-28T10:04:49Z</time></trkpt><trkpt lat="45.52802009306948" lon="10.776015966320937"><ele>156.0</ele><time>2026-03-28T10:04:50Z</time></trkpt><trkpt lat="45.528175618640965" lon="10.776022204263745"><ele>156.33333333333334</ele><time>2026-03-28T10:04:51Z</time></trkpt><trkpt lat="45.52832605016566" lon="10.776014955784902"><ele>156.66666666666669</ele><time>2026-03-28T10:04:52Z</time></trkpt><trkpt lat="45.52849058668458" lon="10.776017266004876"><ele>157.0</ele><time>2026-03-28T10:04:53Z</time></trkpt><trkpt lat="45.52863658318618" lon="10.776023962906057"><ele>157.75</ele><time>2026-03-28T10:04:54Z</time></trkpt><trkpt lat="45.5287692465273" lon="10.776014002445589"><ele>158.5</ele><time>2026-03-28T10:04:55Z</time></trkpt><trkpt lat="45.52890770857304" lon="10.77597118028101"><ele>159.25</ele><time>2026-03-28T10:04:56Z</time></trkpt><trkpt lat="45.52905018882074" lon="10.775894303392064"><ele>160.0</ele><time>2026-03-28T10:04:57Z</time></trkpt><trkpt lat="45.529188332496176" lon="10.775797669094475"><ele>160.0</ele><time>2026-03-28T10:04:58Z</time></trkpt><trkpt lat="45.52933145807393" lon="10.7756586173676"><ele>160.0</ele><time>2026-03-28T10:04:59Z</time></trkpt><trkpt lat="45.52947078936747" lon="10.775505499516445"><ele>160.0</ele><time>2026-03-28T10:05:00Z</time></trkpt><trkpt lat="45.52958431680968" lon="10.775391941774538"><ele>160.2</ele><time>2026-03-28T10:05:01Z</time></trkpt><trkpt lat="45.529686101984005" lon="10.775304037694957"><ele>160.4</ele><time>2026-03-28T10:05:02Z</time></trkpt><trkpt lat="45.52977979145321" lon="10.77525149959745"><ele>160.60000000000002</ele><time>2026-03-28T10:05:03Z</time></trkpt><trkpt lat="45.52986011624632" lon="10.775233555152347"><ele>160.8</ele><time>2026-03-28T10:05:04Z</time></trkpt><trkpt lat="45.529951088235855" lon="10.775273136632107"><ele>161.0</ele><time>2026-03-28T10:05:05Z</time></trkpt><trkpt lat="45.530058868084545" lon="10.775360313090104"><ele>161.0</ele><time>2026-03-28T10:05:06Z</time></trkpt><trkpt lat="45.53019181018245" lon="10.775453873536422"><ele>161.0</ele><time>2026-03-28T10:05:07Z</time></trkpt><trkpt lat="45.53033307547063" lon="10.775527030743847"><ele>161.0</ele><time>2026-03-28T10:05:08Z</time></trkpt><trkpt lat="45.53045204459704" lon="10.775581302410526"><ele>161.0</ele><time>2026-03-28T10:05:09Z</time></trkpt><trkpt lat="45.53053942579436" lon="10.77564614539403"><ele>161.0</ele><time>2026-03-28T10:05:10Z</time></trkpt><trkpt lat="45.53062247765234" lon="10.775751600655058"><ele>161.0</ele><time>2026-03-28T10:05:11Z</time></trkpt><trkpt lat="45.53068297012759" lon="10.775885228365468"><ele>161.0</ele><time>2026-03-28T10:05:12Z</time></trkpt><trkpt lat="45.53072197065967" lon="10.776069201954666"><ele>161.0</ele><time>2026-03-28T10:05:13Z</time></trkpt><trkpt lat="45.530742669163935" lon="10.77624760502811"><ele>160.60000000000002</ele><time>2026-03-28T10:05:14Z</time></trkpt><trkpt lat="45.530779779692104" lon="10.776392622764392"><ele>160.20000000000002</ele><time>2026-03-28T10:05:15Z</time></trkpt><trkpt lat="45.53085062416195" lon="10.776504521008185"><ele>159.8</ele><time>2026-03-28T10:05:16Z</time></trkpt><trkpt lat="45.53093330901391" lon="10.776598553873212"><ele>159.4</ele><time>2026-03-28T10:05:17Z</time></trkpt><trkpt lat="45.53103187222918" lon="10.776672821913452"><ele>159.0</ele><time>2026-03-28T10:05:18Z</time></trkpt><trkpt lat="45.53114668030035" lon="10.776715529506355"><ele>159.6</ele><time>2026-03-28T10:05:19Z</time></trkpt><trkpt lat="45.53127986862344" lon="10.776752983544466"><ele>160.2</ele><time>2026-03-28T10:05:20Z</time></trkpt><trkpt lat="45.531401649888984" lon="10.776789863992201"><ele>160.79999999999998</ele><time>2026-03-28T10:05:21Z</time></trkpt><trkpt lat="45.53148264953269" lon="10.776831470111516"><ele>161.4</ele><time>2026-03-28T10:05:22Z</time></trkpt><trkpt lat="45.53153651660525" lon="10.77689958268288"><ele>162.0</ele><time>2026-03-28T10:05:23Z</time></trkpt><trkpt lat="45.531579501613045" lon="10.776998038305454"><ele>162.39999999999998</ele><time>2026-03-28T10:05:24Z</time></trkpt><trkpt lat="45.53160047167038" lon="10.777093671746712"><ele>162.79999999999998</ele><time>2026-03-28T10:05:25Z</time></trkpt><trkpt lat="45.53159761593896" lon="10.777237130850356"><ele>163.2</ele><time>2026-03-28T10:05:27Z</time></trkpt><trkpt lat="45.53174303053699" lon="10.777318345806815"><ele>163.6</ele><time>2026-03-28T10:05:39Z</time></trkpt><trkpt lat="45.53181178852468" lon="10.777212171668332"><ele>164.0</ele><time>2026-03-28T10:05:40Z</time></trkpt><trkpt lat="45.531890594670664" lon="10.777097940361191"><ele>164.0</ele><time>2026-03-28T10:05:41Z</time></trkpt><trkpt lat="45.53198947855121" lon="10.776993970354319"><ele>164.0</ele><time>2026-03-28T10:05:42Z</time></trkpt><trkpt lat="45.532106752227065" lon="10.776879168947978"><ele>164.0</ele><time>2026-03-28T10:05:43Z</time></trkpt><trkpt lat="45.53223247034329" lon="10.776760002222172"><ele>164.0</ele><time>2026-03-28T10:05:44Z</time></trkpt><trkpt lat="45.532365049988115" lon="10.776615833085641"><ele>164.33333333333331</ele><time>2026-03-28T10:05:45Z</time></trkpt><trkpt lat="45.532510009713576" lon="10.776489083029144"><ele>164.66666666666666</ele><time>2026-03-28T10:05:46Z</time></trkpt><trkpt lat="45.53264324168474" lon="10.776353644109312"><ele>165.0</ele><time>2026-03-28T10:05:47Z</time></trkpt><trkpt lat="45.53277183595279" lon="10.776196597997986"><ele>165.33333333333334</ele><time>2026-03-28T10:05:48Z</time></trkpt><trkpt lat="45.53291705947362" lon="10.776063845737145"><ele>165.66666666666669</ele><time>2026-03-28T10:05:49Z</time></trkpt><trkpt lat="45.53306506663015" lon="10.775951772686145"><ele>166.0</ele><time>2026-03-28T10:05:50Z</time></trkpt><trkpt lat="45.53319908305671" lon="10.775864905082255"><ele>165.33333333333334</ele><time>2026-03-28T10:05:51Z</time></trkpt><trkpt lat="45.533362508810804" lon="10.775815993373604"><ele>164.66666666666666</ele><time>2026-03-28T10:05:52Z</time></trkpt><trkpt lat="45.533529541811106" lon="10.775820276362568"><ele>164.0</ele><time>2026-03-28T10:05:53Z</time></trkpt><trkpt lat="45.53369209759402" lon="10.775839696765315"><ele>164.66666666666666</ele><time>2026-03-28T10:05:54Z</time></trkpt><trkpt lat="45.5338596003292" lon="10.775891141943962"><ele>165.33333333333334</ele><time>2026-03-28T10:05:55Z</time></trkpt><trkpt lat="45.534022224082484" lon="10.775950578766775"><ele>166.0</ele><time>2026-03-28T10:05:56Z</time></trkpt><trkpt lat="45.53418703227561" lon="10.776019575762048"><ele>166.33333333333334</ele><time>2026-03-28T10:05:57Z</time></trkpt><trkpt lat="45.53435000642079" lon="10.776086598627188"><ele>166.66666666666666</ele><time>2026-03-28T10:05:58Z</time></trkpt><trkpt lat="45.534510271461784" lon="10.776143313236977"><ele>167.0</ele><time>2026-03-28T10:05:59Z</time></trkpt><trkpt lat="45.534673178496895" lon="10.776197933503973"><ele>168.0</ele><time>2026-03-28T10:06:00Z</time></trkpt><trkpt lat="45.534821180438605" lon="10.776248313573936"><ele>169.0</ele><time>2026-03-28T10:06:01Z</time></trkpt><trkpt lat="45.53497638663485" lon="10.776277733459708"><ele>170.0</ele><time>2026-03-28T10:06:02Z</time></trkpt><trkpt lat="45.53512716761506" lon="10.776264920835999"><ele>170.0</ele><time>2026-03-28T10:06:03Z</time></trkpt><trkpt lat="45.53527352883721" lon="10.77621457788876"><ele>170.0</ele><time>2026-03-28T10:06:04Z</time></trkpt><trkpt lat="45.53541593606704" lon="10.776154109683764"><ele>170.0</ele><time>2026-03-28T10:06:05Z</time></trkpt><trkpt lat="45.53555653830943" lon="10.77608162031837"><ele>170.0</ele><time>2026-03-28T10:06:06Z</time></trkpt><trkpt lat="45.53569295064671" lon="10.775986754891711"><ele>170.0</ele><time>2026-03-28T10:06:07Z</time></trkpt><trkpt lat="45.535831601924116" lon="10.775893347385384"><ele>170.0</ele><time>2026-03-28T10:06:08Z</time></trkpt><trkpt lat="45.53598032414402" lon="10.775801661789949"><ele>170.0</ele><time>2026-03-28T10:06:09Z</time></trkpt><trkpt lat="45.53612916248371" lon="10.77571276568839"><ele>170.33333333333331</ele><time>2026-03-28T10:06:10Z</time></trkpt><trkpt lat="45.53628245978537" lon="10.775618539358776"><ele>170.66666666666666</ele><time>2026-03-28T10:06:11Z</time></trkpt><trkpt lat="45.536445767184524" lon="10.775527576276211"><ele>171.0</ele><time>2026-03-28T10:06:12Z</time></trkpt><trkpt lat="45.5366056429436" lon="10.775439318486086"><ele>171.0</ele><time>2026-03-28T10:06:13Z</time></trkpt><trkpt lat="45.53676105286483" lon="10.775353543831029"><ele>171.0</ele><time>2026-03-28T10:06:14Z</time></trkpt><trkpt lat="45.53689169228872" lon="10.775278940100334"><ele>171.0</ele><time>2026-03-28T10:06:15Z</time></trkpt><trkpt lat="45.53699673129789" lon="10.775216042255702"><ele>171.0</ele><time>2026-03-28T10:06:16Z</time></trkpt><trkpt lat="45.53709783251497" lon="10.775159991336496"><ele>171.5</ele><time>2026-03-28T10:06:17Z</time></trkpt><trkpt lat="45.53718707960653" lon="10.775111863559857"><ele>172.0</ele><time>2026-03-28T10:06:18Z</time></trkpt><trkpt lat="45.53726516028068" lon="10.77506504560629"><ele>172.5</ele><time>2026-03-28T10:06:19Z</time></trkpt><trkpt lat="45.53734368578525" lon="10.775029823001395"><ele>173.0</ele><time>2026-03-28T10:06:21Z</time></trkpt><trkpt lat="45.53741447438273" lon="10.775006299824737"><ele>173.5</ele><time>2026-03-28T10:06:24Z</time></trkpt><trkpt lat="45.53748026350735" lon="10.7749754031587"><ele>174.0</ele><time>2026-03-28T10:06:25Z</time></trkpt><trkpt lat="45.53755349583964" lon="10.774997641858052"><ele>174.25</ele><time>2026-03-28T10:06:26Z</time></trkpt><trkpt lat="45.537562236935024" lon="10.77520880375356"><ele>174.5</ele><time>2026-03-28T10:06:27Z</time></trkpt><trkpt lat="45.53756774057582" lon="10.77535955928157"><ele>174.75</ele><time>2026-03-28T10:06:28Z</time></trkpt><trkpt lat="45.5375662011112" lon="10.775545970266794"><ele>175.0</ele><time>2026-03-28T10:06:29Z</time></trkpt><trkpt lat="45.53757509623088" lon="10.775754609979185"><ele>175.0</ele><time>2026-03-28T10:06:30Z</time></trkpt><trkpt lat="45.53758876307378" lon="10.775976118616528"><ele>175.0</ele><time>2026-03-28T10:06:31Z</time></trkpt><trkpt lat="45.53760038393846" lon="10.776203338812255"><ele>175.0</ele><time>2026-03-28T10:06:32Z</time></trkpt><trkpt lat="45.53761128310241" lon="10.776439801207264"><ele>175.33333333333334</ele><time>2026-03-28T10:06:33Z</time></trkpt><trkpt lat="45.53761947489053" lon="10.776670266186452"><ele>175.66666666666666</ele><time>2026-03-28T10:06:34Z</time></trkpt><trkpt lat="45.53762778185226" lon="10.77688529417912"><ele>176.0</ele><time>2026-03-28T10:06:35Z</time></trkpt><trkpt lat="45.53763166778123" lon="10.777084211127018"><ele>176.0</ele><time>2026-03-28T10:06:36Z</time></trkpt><trkpt lat="45.53763584118961" lon="10.77726755349261"><ele>176.0</ele><time>2026-03-28T10:06:37Z</time></trkpt><trkpt lat="45.53764239928604" lon="10.777438391600233"><ele>176.0</ele><time>2026-03-28T10:06:38Z</time></trkpt><trkpt lat="45.53765182432782" lon="10.777603955583114"><ele>176.0</ele><time>2026-03-28T10:06:39Z</time></trkpt><trkpt lat="45.537663265265316" lon="10.77779450726587"><ele>175.66666666666666</ele><time>2026-03-28T10:06:40Z</time></trkpt><trkpt lat="45.53767561539374" lon="10.778020390655746"><ele>175.33333333333334</ele><time>2026-03-28T10:06:41Z</time></trkpt><trkpt lat="45.537689166455145" lon="10.778252028053046"><ele>175.0</ele><time>2026-03-28T10:06:42Z</time></trkpt><trkpt lat="45.53770283394945" lon="10.778480373135134"><ele>174.25</ele><time>2026-03-28T10:06:43Z</time></trkpt><trkpt lat="45.53771154357552" lon="10.778678670540184"><ele>173.5</ele><time>2026-03-28T10:06:44Z</time></trkpt><trkpt lat="45.53772414808928" lon="10.778877074206942"><ele>172.75</ele><time>2026-03-28T10:06:45Z</time></trkpt><trkpt lat="45.53772911252039" lon="10.779060009236407"><ele>172.0</ele><time>2026-03-28T10:06:46Z</time></trkpt><trkpt lat="45.53773919798219" lon="10.779238995273419"><ele>172.2</ele><time>2026-03-28T10:06:47Z</time></trkpt><trkpt lat="45.53775176809943" lon="10.779402773436326"><ele>172.39999999999998</ele><time>2026-03-28T10:06:48Z</time></trkpt><trkpt lat="45.537764224718686" lon="10.779557496359242"><ele>172.60000000000002</ele><time>2026-03-28T10:06:49Z</time></trkpt><trkpt lat="45.53777575070765" lon="10.779698758866127"><ele>172.8</ele><time>2026-03-28T10:06:50Z</time></trkpt><trkpt lat="45.53777656823566" lon="10.779822660366237"><ele>173.0</ele><time>2026-03-28T10:06:51Z</time></trkpt><trkpt lat="45.53777692877851" lon="10.779952631478615"><ele>173.0</ele><time>2026-03-28T10:06:52Z</time></trkpt><trkpt lat="45.53777929067004" lon="10.780089733812863"><ele>173.0</ele><time>2026-03-28T10:06:53Z</time></trkpt><trkpt lat="45.53763174724748" lon="10.780112263184114"><ele>173.0</ele><time>2026-03-28T10:06:56Z</time></trkpt><trkpt lat="45.537528151085276" lon="10.780118118831705"><ele>173.0</ele><time>2026-03-28T10:06:57Z</time></trkpt><trkpt lat="45.53740040715259" lon="10.780126196732269"><ele>173.0</ele><time>2026-03-28T10:06:58Z</time></trkpt><trkpt lat="45.53725036721096" lon="10.780165658347913"><ele>173.0</ele><time>2026-03-28T10:06:59Z</time></trkpt><trkpt lat="45.53706634787406" lon="10.780177982809835"><ele>173.0</ele><time>2026-03-28T10:07:00Z</time></trkpt><trkpt lat="45.53688374605345" lon="10.780219138306125"><ele>172.0</ele><time>2026-03-28T10:07:01Z</time></trkpt><trkpt lat="45.536692231664325" lon="10.780223798649136"><ele>171.0</ele><time>2026-03-28T10:07:02Z</time></trkpt><trkpt lat="45.53650154438104" lon="10.780254545237886"><ele>170.0</ele><time>2026-03-28T10:07:03Z</time></trkpt><trkpt lat="45.53632100021111" lon="10.780305436940333"><ele>167.66666666666666</ele><time>2026-03-28T10:07:04Z</time></trkpt><trkpt lat="45.536133285943905" lon="10.780315327192051"><ele>165.33333333333334</ele><time>2026-03-28T10:07:05Z</time></trkpt><trkpt lat="45.53595165672754" lon="10.780366299145443"><ele>163.0</ele><time>2026-03-28T10:07:06Z</time></trkpt><trkpt lat="45.53577524535184" lon="10.780397607095303"><ele>163.0</ele><time>2026-03-28T10:07:07Z</time></trkpt><trkpt lat="45.53559780496267" lon="10.78040370963934"><ele>163.0</ele><time>2026-03-28T10:07:08Z</time></trkpt><trkpt lat="45.53541708919694" lon="10.780434162450506"><ele>163.0</ele><time>2026-03-28T10:07:09Z</time></trkpt><trkpt lat="45.53522514098502" lon="10.780467840735383"><ele>163.33333333333334</ele><time>2026-03-28T10:07:10Z</time></trkpt><trkpt lat="45.535033732874865" lon="10.780523943667177"><ele>163.66666666666666</ele><time>2026-03-28T10:07:11Z</time></trkpt><trkpt lat="45.53483733886213" lon="10.780529760305942"><ele>164.0</ele><time>2026-03-28T10:07:12Z</time></trkpt><trkpt lat="45.53465162414159" lon="10.780575259071988"><ele>163.33333333333331</ele><time>2026-03-28T10:07:13Z</time></trkpt><trkpt lat="45.53448421895072" lon="10.780588367867995"><ele>162.66666666666666</ele><time>2026-03-28T10:07:14Z</time></trkpt><trkpt lat="45.53432298309156" lon="10.78060779492822"><ele>162.0</ele><time>2026-03-28T10:07:15Z</time></trkpt><trkpt lat="45.534169462435884" lon="10.780628413736162"><ele>162.0</ele><time>2026-03-28T10:07:16Z</time></trkpt><trkpt lat="45.53402359304877" lon="10.780616466294163"><ele>162.0</ele><time>2026-03-28T10:07:17Z</time></trkpt><trkpt lat="45.533911996348415" lon="10.780642995519326"><ele>162.0</ele><time>2026-03-28T10:07:18Z</time></trkpt><trkpt lat="45.53381258139177" lon="10.780655418159567"><ele>162.0</ele><time>2026-03-28T10:07:19Z</time></trkpt><trkpt lat="45.53372896577325" lon="10.780643945671722"><ele>162.0</ele><time>2026-03-28T10:07:20Z</time></trkpt><trkpt lat="45.533624039313736" lon="10.780665310753452"><ele>162.33333333333334</ele><time>2026-03-28T10:07:22Z</time></trkpt><trkpt lat="45.533567490550624" lon="10.780742023436067"><ele>162.66666666666666</ele><time>2026-03-28T10:07:23Z</time></trkpt><trkpt lat="45.53356675510622" lon="10.78087147076123"><ele>163.0</ele><time>2026-03-28T10:07:24Z</time></trkpt><trkpt lat="45.533644832052694" lon="10.780964325057358"><ele>163.33333333333331</ele><time>2026-03-28T10:07:25Z</time></trkpt><trkpt lat="45.533595208487505" lon="10.78090102080862"><ele>163.66666666666666</ele><time>2026-03-28T10:07:30Z</time></trkpt><trkpt lat="45.53356434370197" lon="10.780782049706758"><ele>164.0</ele><time>2026-03-28T10:07:31Z</time></trkpt><trkpt lat="45.533519001751536" lon="10.780709466929506"><ele>164.0</ele><time>2026-03-28T10:07:32Z</time></trkpt><trkpt lat="45.5334111470047" lon="10.780703514579642"><ele>164.0</ele><time>2026-03-28T10:07:34Z</time></trkpt><trkpt lat="45.53330990609373" lon="10.780739058023942"><ele>164.0</ele><time>2026-03-28T10:07:35Z</time></trkpt><trkpt lat="45.53318423193576" lon="10.780753283767483"><ele>164.0</ele><time>2026-03-28T10:07:36Z</time></trkpt><trkpt lat="45.5330419511643" lon="10.780770160819383"><ele>164.0</ele><time>2026-03-28T10:07:37Z</time></trkpt><trkpt lat="45.532893556658635" lon="10.780794083726585"><ele>164.0</ele><time>2026-03-28T10:07:38Z</time></trkpt><trkpt lat="45.53273824167408" lon="10.780818729152015"><ele>164.0</ele><time>2026-03-28T10:07:39Z</time></trkpt><trkpt lat="45.532579659710514" lon="10.780830014784577"><ele>164.5</ele><time>2026-03-28T10:07:40Z</time></trkpt><trkpt lat="45.53241531773712" lon="10.78085272423979"><ele>165.0</ele><time>2026-03-28T10:07:41Z</time></trkpt><trkpt lat="45.532277476439376" lon="10.78087757529144"><ele>165.5</ele><time>2026-03-28T10:07:42Z</time></trkpt><trkpt lat="45.532158028984185" lon="10.780905301468165"><ele>166.0</ele><time>2026-03-28T10:07:43Z</time></trkpt><trkpt lat="45.53205416408621" lon="10.780917230798384"><ele>165.0</ele><time>2026-03-28T10:07:44Z</time></trkpt><trkpt lat="45.531978692405" lon="10.780917774101443"><ele>164.0</ele><time>2026-03-28T10:07:45Z</time></trkpt><trkpt lat="45.53191250821827" lon="10.780995290088427"><ele>163.0</ele><time>2026-03-28T10:07:47Z</time></trkpt><trkpt lat="45.53191711779467" lon="10.781087568009017"><ele>162.0</ele><time>2026-03-28T10:07:48Z</time></trkpt><trkpt lat="45.53196751024341" lon="10.781218043345662"><ele>161.0</ele><time>2026-03-28T10:07:49Z</time></trkpt><trkpt lat="45.53204675053965" lon="10.781374475589724"><ele>161.0</ele><time>2026-03-28T10:07:50Z</time></trkpt><trkpt lat="45.532120957887166" lon="10.781575672368739"><ele>161.0</ele><time>2026-03-28T10:07:51Z</time></trkpt><trkpt lat="45.53219188437681" lon="10.78179127306561"><ele>161.0</ele><time>2026-03-28T10:07:52Z</time></trkpt><trkpt lat="45.53226845668948" lon="10.782027372489358"><ele>161.0</ele><time>2026-03-28T10:07:53Z</time></trkpt><trkpt lat="45.5323381533302" lon="10.782275221867076"><ele>161.0</ele><time>2026-03-28T10:07:54Z</time></trkpt><trkpt lat="45.53239267969828" lon="10.782507888354065"><ele>161.0</ele><time>2026-03-28T10:07:55Z</time></trkpt><trkpt lat="45.53243864081733" lon="10.782715157456193"><ele>161.5</ele><time>2026-03-28T10:07:56Z</time></trkpt><trkpt lat="45.53248123685025" lon="10.782898501216216"><ele>162.0</ele><time>2026-03-28T10:07:57Z</time></trkpt><trkpt lat="45.53252811677023" lon="10.783106575527134"><ele>162.5</ele><time>2026-03-28T10:07:58Z</time></trkpt><trkpt lat="45.532576705076785" lon="10.783287840387972"><ele>163.0</ele><time>2026-03-28T10:07:59Z</time></trkpt><trkpt lat="45.53260168719334" lon="10.783458692637025"><ele>163.5</ele><time>2026-03-28T10:08:00Z</time></trkpt><trkpt lat="45.53259323977875" lon="10.783592982051776"><ele>164.0</ele><time>2026-03-28T10:08:01Z</time></trkpt><trkpt lat="45.53255535108781" lon="10.783726660305778"><ele>164.5</ele><time>2026-03-28T10:08:02Z</time></trkpt><trkpt lat="45.53248729399751" lon="10.783881468552703"><ele>165.0</ele><time>2026-03-28T10:08:03Z</time></trkpt><trkpt lat="45.532414149177775" lon="10.784068976979317"><ele>165.0</ele><time>2026-03-28T10:08:04Z</time></trkpt><trkpt lat="45.53235408303382" lon="10.784248844420228"><ele>165.0</ele><time>2026-03-28T10:08:05Z</time></trkpt><trkpt lat="45.532295699278066" lon="10.784418899597092"><ele>165.0</ele><time>2026-03-28T10:08:06Z</time></trkpt><trkpt lat="45.53225062987558" lon="10.784568455342253"><ele>165.0</ele><time>2026-03-28T10:08:07Z</time></trkpt><trkpt lat="45.532219831674986" lon="10.784712297442969"><ele>165.4</ele><time>2026-03-28T10:08:08Z</time></trkpt><trkpt lat="45.53220955511036" lon="10.78485733569659"><ele>165.8</ele><time>2026-03-28T10:08:09Z</time></trkpt><trkpt lat="45.5322473960197" lon="10.785004932792841"><ele>166.2</ele><time>2026-03-28T10:08:10Z</time></trkpt><trkpt lat="45.532278586261945" lon="10.78516090387259"><ele>166.6</ele><time>2026-03-28T10:08:11Z</time></trkpt><trkpt lat="45.532287687463665" lon="10.785280341263022"><ele>167.0</ele><time>2026-03-28T10:08:12Z</time></trkpt><trkpt lat="45.53224372687397" lon="10.78539662478343"><ele>167.25</ele><time>2026-03-28T10:08:13Z</time></trkpt><trkpt lat="45.53217127445131" lon="10.785551620541696"><ele>167.5</ele><time>2026-03-28T10:08:14Z</time></trkpt><trkpt lat="45.532092267133166" lon="10.785705012840687"><ele>167.75</ele><time>2026-03-28T10:08:15Z</time></trkpt><trkpt lat="45.53197894898208" lon="10.785859209745349"><ele>168.0</ele><time>2026-03-28T10:08:16Z</time></trkpt><trkpt lat="45.53184664877414" lon="10.78600651587144"><ele>168.66666666666666</ele><time>2026-03-28T10:08:17Z</time></trkpt><trkpt lat="45.531717999698834" lon="10.786167751369591"><ele>169.33333333333331</ele><time>2026-03-28T10:08:18Z</time></trkpt><trkpt lat="45.531604003723615" lon="10.786350725682691"><ele>170.0</ele><time>2026-03-28T10:08:19Z</time></trkpt><trkpt lat="45.53150416833687" lon="10.786529421475628"><ele>170.0</ele><time>2026-03-28T10:08:20Z</time></trkpt><trkpt lat="45.53139685970886" lon="10.786701035771282"><ele>170.0</ele><time>2026-03-28T10:08:21Z</time></trkpt><trkpt lat="45.53128096509854" lon="10.786915118507599"><ele>170.0</ele><time>2026-03-28T10:08:22Z</time></trkpt><trkpt lat="45.531190887382614" lon="10.787090456680836"><ele>170.2</ele><time>2026-03-28T10:08:23Z</time></trkpt><trkpt lat="45.53115037424467" lon="10.787199779403016"><ele>170.4</ele><time>2026-03-28T10:08:24Z</time></trkpt><trkpt lat="45.53112599622157" lon="10.78728843590516"><ele>170.60000000000002</ele><time>2026-03-28T10:08:25Z</time></trkpt><trkpt lat="45.53112693358766" lon="10.787379796213184"><ele>170.8</ele><time>2026-03-28T10:08:26Z</time></trkpt><trkpt lat="45.53115179756613" lon="10.787525916727153"><ele>171.0</ele><time>2026-03-28T10:08:27Z</time></trkpt><trkpt lat="45.531183380016984" lon="10.787703583710842"><ele>172.20000000000002</ele><time>2026-03-28T10:08:28Z</time></trkpt><trkpt lat="45.5312188741916" lon="10.787856158889971"><ele>173.4</ele><time>2026-03-28T10:08:29Z</time></trkpt><trkpt lat="45.53127359618796" lon="10.787984420046046"><ele>174.6</ele><time>2026-03-28T10:08:30Z</time></trkpt><trkpt lat="45.53134734249234" lon="10.788119588458791"><ele>175.8</ele><time>2026-03-28T10:08:31Z</time></trkpt><trkpt lat="45.53141059587156" lon="10.78822895962331"><ele>177.0</ele><time>2026-03-28T10:08:32Z</time></trkpt><trkpt lat="45.53145137083498" lon="10.78836434517658"><ele>177.16666666666666</ele><time>2026-03-28T10:08:33Z</time></trkpt><trkpt lat="45.53148944553698" lon="10.78847020988883"><ele>177.33333333333334</ele><time>2026-03-28T10:08:34Z</time></trkpt><trkpt lat="45.531516224421566" lon="10.788561067315282"><ele>177.5</ele><time>2026-03-28T10:08:36Z</time></trkpt><trkpt lat="45.531589407750886" lon="10.7886020972122"><ele>177.66666666666669</ele><time>2026-03-28T10:08:39Z</time></trkpt><trkpt lat="45.531659592666934" lon="10.788560986259384"><ele>177.83333333333334</ele><time>2026-03-28T10:08:40Z</time></trkpt><trkpt lat="45.53174640307268" lon="10.788486679189893"><ele>178.0</ele><time>2026-03-28T10:08:41Z</time></trkpt><trkpt lat="45.53183863091608" lon="10.78839466661231"><ele>178.0</ele><time>2026-03-28T10:08:42Z</time></trkpt><trkpt lat="45.53194536226749" lon="10.7883030519188"><ele>178.0</ele><time>2026-03-28T10:08:43Z</time></trkpt><trkpt lat="45.53206592700768" lon="10.788209442147343"><ele>178.0</ele><time>2026-03-28T10:08:44Z</time></trkpt><trkpt lat="45.53220548989799" lon="10.788109249705665"><ele>178.0</ele><time>2026-03-28T10:08:45Z</time></trkpt><trkpt lat="45.53234564999326" lon="10.788015901731299"><ele>178.5</ele><time>2026-03-28T10:08:46Z</time></trkpt><trkpt lat="45.53248502515117" lon="10.787936944758272"><ele>179.0</ele><time>2026-03-28T10:08:47Z</time></trkpt><trkpt lat="45.53259621336092" lon="10.787874206234228"><ele>179.5</ele><time>2026-03-28T10:08:47.999Z</time></trkpt><trkpt lat="45.532694083559285" lon="10.78781593171497"><ele>180.0</ele><time>2026-03-28T10:08:48.999Z</time></trkpt><trkpt lat="45.53278919731682" lon="10.78776518522364"><ele>180.0</ele><time>2026-03-28T10:08:49.999Z</time></trkpt><trkpt lat="45.53285412851765" lon="10.787735132871957"><ele>180.0</ele><time>2026-03-28T10:08:50.999Z</time></trkpt><trkpt lat="45.53295534645423" lon="10.787922287673236"><ele>180.0</ele><time>2026-03-28T10:08:54Z</time></trkpt><trkpt lat="45.5330132532991" lon="10.788065522264228"><ele>180.0</ele><time>2026-03-28T10:08:55Z</time></trkpt><trkpt lat="45.533084858731975" lon="10.788230182278372"><ele>180.33333333333334</ele><time>2026-03-28T10:08:56Z</time></trkpt><trkpt lat="45.53317328207308" lon="10.788409495902345"><ele>180.66666666666669</ele><time>2026-03-28T10:08:57Z</time></trkpt><trkpt lat="45.533273997646084" lon="10.788600247023055"><ele>181.0</ele><time>2026-03-28T10:08:58Z</time></trkpt><trkpt lat="45.53337217297162" lon="10.788788666847909"><ele>181.5</ele><time>2026-03-28T10:08:59Z</time></trkpt><trkpt lat="45.53345564772736" lon="10.788969900899776"><ele>182.0</ele><time>2026-03-28T10:09:00Z</time></trkpt><trkpt lat="45.533509036581584" lon="10.789105760012944"><ele>182.5</ele><time>2026-03-28T10:09:01Z</time></trkpt><trkpt lat="45.533564735972504" lon="10.789233565875389"><ele>183.0</ele><time>2026-03-28T10:09:02Z</time></trkpt><trkpt lat="45.53363415623202" lon="10.789378675044025"><ele>184.25</ele><time>2026-03-28T10:09:03Z</time></trkpt><trkpt lat="45.53371940183655" lon="10.789525233721756"><ele>185.5</ele><time>2026-03-28T10:09:04Z</time></trkpt><trkpt lat="45.533797151244045" lon="10.789689210736766"><ele>186.75</ele><time>2026-03-28T10:09:05Z</time></trkpt><trkpt lat="45.533911263218535" lon="10.789803239714725"><ele>188.0</ele><time>2026-03-28T10:09:06Z</time></trkpt><trkpt lat="45.53402262758944" lon="10.789902438473293"><ele>190.60000000000002</ele><time>2026-03-28T10:09:07Z</time></trkpt><trkpt lat="45.53413115696702" lon="10.790003341250964"><ele>193.20000000000002</ele><time>2026-03-28T10:09:08Z</time></trkpt><trkpt lat="45.53422669460965" lon="10.790100701332825"><ele>195.8</ele><time>2026-03-28T10:09:09Z</time></trkpt><trkpt lat="45.53430862337541" lon="10.790193743574596"><ele>198.4</ele><time>2026-03-28T10:09:10Z</time></trkpt><trkpt lat="45.53436940117545" lon="10.790252433820124"><ele>201.0</ele><time>2026-03-28T10:09:11Z</time></trkpt><trkpt lat="45.5344930435976" lon="10.790306107440793"><ele>202.4</ele><time>2026-03-28T10:09:13Z</time></trkpt><trkpt lat="45.53457211817245" lon="10.790337835077532"><ele>203.8</ele><time>2026-03-28T10:09:14Z</time></trkpt><trkpt lat="45.53463843025275" lon="10.790381127967914"><ele>205.20000000000002</ele><time>2026-03-28T10:09:15Z</time></trkpt><trkpt lat="45.53471094516052" lon="10.790560856118844"><ele>206.60000000000002</ele><time>2026-03-28T10:09:17Z</time></trkpt><trkpt lat="45.534769192666175" lon="10.790686965799441"><ele>208.0</ele><time>2026-03-28T10:09:18Z</time></trkpt><trkpt lat="45.534839832213855" lon="10.790800191344024"><ele>208.0</ele><time>2026-03-28T10:09:19Z</time></trkpt><trkpt lat="45.53491237935639" lon="10.79089674585361"><ele>208.0</ele><time>2026-03-28T10:09:20Z</time></trkpt><trkpt lat="45.53496829349985" lon="10.79098153060811"><ele>208.0</ele><time>2026-03-28T10:09:21Z</time></trkpt><trkpt lat="45.5350425671805" lon="10.791039763821725"><ele>208.0</ele><time>2026-03-28T10:09:23Z</time></trkpt><trkpt lat="45.5351342610638" lon="10.790917981424387"><ele>208.0</ele><time>2026-03-28T10:09:26Z</time></trkpt><trkpt lat="45.53519360559371" lon="10.79083703688505"><ele>207.99999999999997</ele><time>2026-03-28T10:09:27Z</time></trkpt><trkpt lat="45.535249113052856" lon="10.790731332862029"><ele>208.0</ele><time>2026-03-28T10:09:28Z</time></trkpt><trkpt lat="45.53531092129909" lon="10.79062919112648"><ele>208.0</ele><time>2026-03-28T10:09:29Z</time></trkpt><trkpt lat="45.53538229422913" lon="10.790537520962241"><ele>208.0</ele><time>2026-03-28T10:09:30Z</time></trkpt><trkpt lat="45.53544989622801" lon="10.790474485144372"><ele>207.99999999999997</ele><time>2026-03-28T10:09:31Z</time></trkpt><trkpt lat="45.53538239813095" lon="10.790539312881423"><ele>208.0</ele><time>2026-03-28T10:09:59Z</time></trkpt><trkpt lat="45.535286193424746" lon="10.7906666022555"><ele>207.99999999999997</ele><time>2026-03-28T10:10:01Z</time></trkpt><trkpt lat="45.53523117074027" lon="10.79076092218686"><ele>208.0</ele><time>2026-03-28T10:10:02Z</time></trkpt><trkpt lat="45.53518226878186" lon="10.790843717116458"><ele>208.0</ele><time>2026-03-28T10:10:03Z</time></trkpt><trkpt lat="45.53514968173782" lon="10.790920683789242"><ele>208.0</ele><time>2026-03-28T10:10:04Z</time></trkpt><trkpt lat="45.53509008194585" lon="10.791021027899001"><ele>207.99999999999997</ele><time>2026-03-28T10:10:06Z</time></trkpt><trkpt lat="45.53516168137937" lon="10.791146004709477"><ele>208.0</ele><time>2026-03-28T10:10:13Z</time></trkpt><trkpt lat="45.535245763231" lon="10.791116535626069"><ele>208.0</ele><time>2026-03-28T10:10:15Z</time></trkpt><trkpt lat="45.53520481040316" lon="10.790985895820768"><ele>208.0</ele><time>2026-03-28T10:10:16Z</time></trkpt><trkpt lat="45.53521674781039" lon="10.790889980818603"><ele>208.0</ele><time>2026-03-28T10:10:19Z</time></trkpt><trkpt lat="45.5355057529571" lon="10.791085704127653"><ele>210.33333333333331</ele><time>2026-03-28T10:10:22Z</time></trkpt><trkpt lat="45.53559969659143" lon="10.791066057791738"><ele>212.66666666666669</ele><time>2026-03-28T10:10:24Z</time></trkpt><trkpt lat="45.5357120990044" lon="10.790720554807264"><ele>215.0</ele><time>2026-03-28T10:10:26Z</time></trkpt><trkpt lat="45.53582986889261" lon="10.790902923988288"><ele>215.0</ele><time>2026-03-28T10:10:27Z</time></trkpt><trkpt lat="45.53590944285596" lon="10.790953477326967"><ele>215.0</ele><time>2026-03-28T10:10:28Z</time></trkpt><trkpt lat="45.535889142903436" lon="10.791341345349599"><ele>215.0</ele><time>2026-03-28T10:10:29Z</time></trkpt><trkpt lat="45.535942617747914" lon="10.791456955379463"><ele>211.2</ele><time>2026-03-28T10:10:30Z</time></trkpt><trkpt lat="45.53598251272043" lon="10.791559114361245"><ele>207.4</ele><time>2026-03-28T10:10:31Z</time></trkpt><trkpt lat="45.53608000656393" lon="10.791659781054369"><ele>203.60000000000002</ele><time>2026-03-28T10:10:33Z</time></trkpt><trkpt lat="45.5361635393244" lon="10.79163308271727"><ele>199.8</ele><time>2026-03-28T10:10:35Z</time></trkpt><trkpt lat="45.53623051429425" lon="10.791511997224415"><ele>196.0</ele><time>2026-03-28T10:10:37Z</time></trkpt><trkpt lat="45.53625238923067" lon="10.791427704602"><ele>193.99999999999997</ele><time>2026-03-28T10:10:38Z</time></trkpt><trkpt lat="45.53630638173081" lon="10.791347637159145"><ele>192.0</ele><time>2026-03-28T10:10:39Z</time></trkpt><trkpt lat="45.53636238228708" lon="10.791305934618787"><ele>190.0</ele><time>2026-03-28T10:10:40Z</time></trkpt><trkpt lat="45.53643548945039" lon="10.791302229357095"><ele>188.0</ele><time>2026-03-28T10:10:41Z</time></trkpt><trkpt lat="45.53652104754616" lon="10.791313121255886"><ele>186.0</ele><time>2026-03-28T10:10:42Z</time></trkpt><trkpt lat="45.536616398500335" lon="10.79131073985204"><ele>184.0</ele><time>2026-03-28T10:10:43Z</time></trkpt><trkpt lat="45.53668338769916" lon="10.791332021588534"><ele>184.0</ele><time>2026-03-28T10:10:44Z</time></trkpt><trkpt lat="45.53675684222534" lon="10.791372493899555"><ele>184.0</ele><time>2026-03-28T10:10:45Z</time></trkpt><trkpt lat="45.53683967229272" lon="10.7913524658842"><ele>184.0</ele><time>2026-03-28T10:10:47Z</time></trkpt><trkpt lat="45.53695358463888" lon="10.791249814937832"><ele>184.0</ele><time>2026-03-28T10:10:49Z</time></trkpt><trkpt lat="45.53701776632587" lon="10.791176217084937"><ele>184.0</ele><time>2026-03-28T10:10:50Z</time></trkpt><trkpt lat="45.537068614491105" lon="10.791087534650913"><ele>185.0</ele><time>2026-03-28T10:10:51Z</time></trkpt><trkpt lat="45.53713883584757" lon="10.790994218028434"><ele>186.0</ele><time>2026-03-28T10:10:52Z</time></trkpt><trkpt lat="45.53720380333601" lon="10.79092719790363"><ele>187.0</ele><time>2026-03-28T10:10:53Z</time></trkpt><trkpt lat="45.53727547037285" lon="10.79092100741624"><ele>188.0</ele><time>2026-03-28T10:10:54Z</time></trkpt><trkpt lat="45.53739926764449" lon="10.790919430159256"><ele>189.0</ele><time>2026-03-28T10:10:56Z</time></trkpt><trkpt lat="45.53748782681674" lon="10.79084077407224"><ele>189.0</ele><time>2026-03-28T10:10:57Z</time></trkpt><trkpt lat="45.537576336062635" lon="10.790764414448153"><ele>189.0</ele><time>2026-03-28T10:10:58Z</time></trkpt><trkpt lat="45.537655213001344" lon="10.790697794758755"><ele>189.0</ele><time>2026-03-28T10:10:59Z</time></trkpt><trkpt lat="45.537727300495824" lon="10.790655892870376"><ele>189.0</ele><time>2026-03-28T10:11:00Z</time></trkpt><trkpt lat="45.53781194771687" lon="10.790634508645368"><ele>189.0</ele><time>2026-03-28T10:11:01Z</time></trkpt><trkpt lat="45.53790795197723" lon="10.79060014218864"><ele>185.0</ele><time>2026-03-28T10:11:02Z</time></trkpt><trkpt lat="45.53797744180071" lon="10.790555790478649"><ele>181.0</ele><time>2026-03-28T10:11:03Z</time></trkpt><trkpt lat="45.53804586726156" lon="10.79048033662369"><ele>177.0</ele><time>2026-03-28T10:11:04Z</time></trkpt><trkpt lat="45.53810826520771" lon="10.790367527243735"><ele>173.0</ele><time>2026-03-28T10:11:05Z</time></trkpt><trkpt lat="45.53820480810353" lon="10.79026977908948"><ele>169.0</ele><time>2026-03-28T10:11:06Z</time></trkpt><trkpt lat="45.53829535344713" lon="10.79020350912088"><ele>171.79999999999998</ele><time>2026-03-28T10:11:07Z</time></trkpt><trkpt lat="45.53835952751235" lon="10.79013225913462"><ele>174.6</ele><time>2026-03-28T10:11:08Z</time></trkpt><trkpt lat="45.5384276359806" lon="10.790008869936724"><ele>177.4</ele><time>2026-03-28T10:11:09Z</time></trkpt><trkpt lat="45.53850337881434" lon="10.789874670844513"><ele>180.2</ele><time>2026-03-28T10:11:10Z</time></trkpt><trkpt lat="45.538583164525676" lon="10.789738877514523"><ele>183.0</ele><time>2026-03-28T10:11:11Z</time></trkpt><trkpt lat="45.53866868170803" lon="10.789618333291093"><ele>181.60000000000002</ele><time>2026-03-28T10:11:12Z</time></trkpt><trkpt lat="45.538759162178366" lon="10.789509891158922"><ele>180.20000000000002</ele><time>2026-03-28T10:11:13Z</time></trkpt><trkpt lat="45.53885535741661" lon="10.789404864674715"><ele>178.8</ele><time>2026-03-28T10:11:14Z</time></trkpt><trkpt lat="45.53893956768905" lon="10.789311087333589"><ele>177.4</ele><time>2026-03-28T10:11:15Z</time></trkpt><trkpt lat="45.53900303672489" lon="10.789196039487626"><ele>176.0</ele><time>2026-03-28T10:11:16Z</time></trkpt><trkpt lat="45.539069271019194" lon="10.789069136840057"><ele>176.0</ele><time>2026-03-28T10:11:17Z</time></trkpt><trkpt lat="45.539131282030255" lon="10.78895793299853"><ele>176.0</ele><time>2026-03-28T10:11:18Z</time></trkpt><trkpt lat="45.5391957710317" lon="10.78881929520499"><ele>176.0</ele><time>2026-03-28T10:11:19Z</time></trkpt><trkpt lat="45.539259620476976" lon="10.788676509950864"><ele>176.0</ele><time>2026-03-28T10:11:20Z</time></trkpt><trkpt lat="45.53933787905216" lon="10.788548406568385"><ele>175.4</ele><time>2026-03-28T10:11:21Z</time></trkpt><trkpt lat="45.53939661206787" lon="10.788438190342784"><ele>174.8</ele><time>2026-03-28T10:11:22Z</time></trkpt><trkpt lat="45.53944373798375" lon="10.78831732507343"><ele>174.20000000000002</ele><time>2026-03-28T10:11:23Z</time></trkpt><trkpt lat="45.53948484184431" lon="10.788150990722006"><ele>173.60000000000002</ele><time>2026-03-28T10:11:24Z</time></trkpt><trkpt lat="45.53954039112852" lon="10.788011902446756"><ele>173.0</ele><time>2026-03-28T10:11:25Z</time></trkpt><trkpt lat="45.53959918820037" lon="10.787910699723565"><ele>173.0</ele><time>2026-03-28T10:11:26Z</time></trkpt><trkpt lat="45.53967131643415" lon="10.787839324011994"><ele>173.0</ele><time>2026-03-28T10:11:27Z</time></trkpt><trkpt lat="45.539732400941126" lon="10.787788008373187"><ele>173.0</ele><time>2026-03-28T10:11:28Z</time></trkpt><trkpt lat="45.539791100293435" lon="10.787716293382863"><ele>173.0</ele><time>2026-03-28T10:11:29Z</time></trkpt><trkpt lat="45.53987698380534" lon="10.78764598100949"><ele>173.0</ele><time>2026-03-28T10:11:30Z</time></trkpt><trkpt lat="45.539989631676185" lon="10.787575349594631"><ele>175.5</ele><time>2026-03-28T10:11:31Z</time></trkpt><trkpt lat="45.54008792905547" lon="10.78746936202739"><ele>178.0</ele><time>2026-03-28T10:11:32Z</time></trkpt><trkpt lat="45.54018592768254" lon="10.787328644290259"><ele>180.5</ele><time>2026-03-28T10:11:33Z</time></trkpt><trkpt lat="45.54027490746648" lon="10.787206169738939"><ele>183.0</ele><time>2026-03-28T10:11:34Z</time></trkpt><trkpt lat="45.54035584448609" lon="10.787098666070653"><ele>182.0</ele><time>2026-03-28T10:11:35Z</time></trkpt><trkpt lat="45.54041614607261" lon="10.786991818767014"><ele>181.0</ele><time>2026-03-28T10:11:36Z</time></trkpt><trkpt lat="45.540462385948416" lon="10.786898508989694"><ele>180.0</ele><time>2026-03-28T10:11:37Z</time></trkpt><trkpt lat="45.54049571062127" lon="10.78681860068836"><ele>179.0</ele><time>2026-03-28T10:11:38Z</time></trkpt><trkpt lat="45.54050708416044" lon="10.786606971711805"><ele>178.0</ele><time>2026-03-28T10:11:40Z</time></trkpt><trkpt lat="45.540544714294796" lon="10.786466145689511"><ele>178.0</ele><time>2026-03-28T10:11:41Z</time></trkpt><trkpt lat="45.54059579210922" lon="10.786324184557387"><ele>178.0</ele><time>2026-03-28T10:11:42Z</time></trkpt><trkpt lat="45.540666129615865" lon="10.786194957619562"><ele>178.0</ele><time>2026-03-28T10:11:43Z</time></trkpt><trkpt lat="45.54075144686856" lon="10.786041775858141"><ele>178.0</ele><time>2026-03-28T10:11:44Z</time></trkpt><trkpt lat="45.54083973432568" lon="10.785887312848637"><ele>177.75</ele><time>2026-03-28T10:11:45Z</time></trkpt><trkpt lat="45.54092768251383" lon="10.785739099460498"><ele>177.5</ele><time>2026-03-28T10:11:46Z</time></trkpt><trkpt lat="45.54103096093564" lon="10.78560389178917"><ele>177.25</ele><time>2026-03-28T10:11:47Z</time></trkpt><trkpt lat="45.54113703027191" lon="10.785472482034175"><ele>177.0</ele><time>2026-03-28T10:11:48Z</time></trkpt><trkpt lat="45.54123920941821" lon="10.785357728797445"><ele>177.0</ele><time>2026-03-28T10:11:49Z</time></trkpt><trkpt lat="45.54132838914566" lon="10.785266836559204"><ele>177.0</ele><time>2026-03-28T10:11:50Z</time></trkpt><trkpt lat="45.54142016215877" lon="10.785186995180037"><ele>177.0</ele><time>2026-03-28T10:11:51Z</time></trkpt><trkpt lat="45.54152970196197" lon="10.7851254780014"><ele>177.0</ele><time>2026-03-28T10:11:52Z</time></trkpt><trkpt lat="45.541641627519375" lon="10.7850645821498"><ele>178.25</ele><time>2026-03-28T10:11:53Z</time></trkpt><trkpt lat="45.541747578208735" lon="10.784915420065623"><ele>179.5</ele><time>2026-03-28T10:11:54Z</time></trkpt><trkpt lat="45.54187884078551" lon="10.784849593424171"><ele>180.75</ele><time>2026-03-28T10:11:55Z</time></trkpt><trkpt lat="45.542010590151214" lon="10.78476255666415"><ele>182.0</ele><time>2026-03-28T10:11:56Z</time></trkpt><trkpt lat="45.54211898125484" lon="10.784654660531876"><ele>182.0</ele><time>2026-03-28T10:11:57Z</time></trkpt><trkpt lat="45.542214038316864" lon="10.784520925541697"><ele>182.0</ele><time>2026-03-28T10:11:58Z</time></trkpt><trkpt lat="45.54230282251443" lon="10.784347261752643"><ele>182.0</ele><time>2026-03-28T10:11:59Z</time></trkpt><trkpt lat="45.5424151851204" lon="10.784145557739516"><ele>183.33333333333331</ele><time>2026-03-28T10:12:00Z</time></trkpt><trkpt lat="45.542491146784144" lon="10.783953889606982"><ele>184.66666666666666</ele><time>2026-03-28T10:12:01Z</time></trkpt><trkpt lat="45.54259034308685" lon="10.783763253152554"><ele>186.0</ele><time>2026-03-28T10:12:02Z</time></trkpt><trkpt lat="45.542703525206306" lon="10.783586275926059"><ele>186.0</ele><time>2026-03-28T10:12:03Z</time></trkpt><trkpt lat="45.54283823452513" lon="10.783430431727004"><ele>186.0</ele><time>2026-03-28T10:12:04Z</time></trkpt><trkpt lat="45.54296908421185" lon="10.783285998448108"><ele>186.0</ele><time>2026-03-28T10:12:05Z</time></trkpt><trkpt lat="45.54309686283944" lon="10.78313320147687"><ele>186.0</ele><time>2026-03-28T10:12:06Z</time></trkpt><trkpt lat="45.54319535501377" lon="10.782991590453763"><ele>186.0</ele><time>2026-03-28T10:12:07Z</time></trkpt><trkpt lat="45.54325383077107" lon="10.78285716952575"><ele>186.0</ele><time>2026-03-28T10:12:08Z</time></trkpt><trkpt lat="45.5432810744321" lon="10.78272939339376"><ele>186.0</ele><time>2026-03-28T10:12:09Z</time></trkpt><trkpt lat="45.54328153593137" lon="10.782623545172608"><ele>186.0</ele><time>2026-03-28T10:12:10Z</time></trkpt><trkpt lat="45.54328882550868" lon="10.782488761001417"><ele>187.0</ele><time>2026-03-28T10:12:12Z</time></trkpt><trkpt lat="45.54321044200586" lon="10.782360404463763"><ele>188.0</ele><time>2026-03-28T10:12:13Z</time></trkpt><trkpt lat="45.54318223908563" lon="10.782214226499109"><ele>189.0</ele><time>2026-03-28T10:12:14Z</time></trkpt><trkpt lat="45.543152950351946" lon="10.782059648682711"><ele>190.0</ele><time>2026-03-28T10:12:15Z</time></trkpt><trkpt lat="45.5431284592618" lon="10.781927769733493"><ele>191.0</ele><time>2026-03-28T10:12:16Z</time></trkpt><trkpt lat="45.54313144424129" lon="10.78178847998159"><ele>191.0</ele><time>2026-03-28T10:12:17Z</time></trkpt><trkpt lat="45.54318396794859" lon="10.781673157289406"><ele>191.0</ele><time>2026-03-28T10:12:18Z</time></trkpt><trkpt lat="45.54323898729852" lon="10.781506524961765"><ele>191.0</ele><time>2026-03-28T10:12:19Z</time></trkpt><trkpt lat="45.54330480940623" lon="10.781380084320373"><ele>191.0</ele><time>2026-03-28T10:12:20Z</time></trkpt><trkpt lat="45.54336048928759" lon="10.781255396118384"><ele>191.0</ele><time>2026-03-28T10:12:21Z</time></trkpt><trkpt lat="45.54339670205618" lon="10.781147076587416"><ele>191.0</ele><time>2026-03-28T10:12:22Z</time></trkpt><trkpt lat="45.54344111578839" lon="10.781075039626677"><ele>191.0</ele><time>2026-03-28T10:12:23Z</time></trkpt><trkpt lat="45.543551019880965" lon="10.78111148024422"><ele>191.0</ele><time>2026-03-28T10:12:25Z</time></trkpt><trkpt lat="45.543632760905844" lon="10.781203480922867"><ele>191.0</ele><time>2026-03-28T10:12:26Z</time></trkpt><trkpt lat="45.54370791946149" lon="10.781338677286397"><ele>191.0</ele><time>2026-03-28T10:12:27Z</time></trkpt><trkpt lat="45.543793850213014" lon="10.7815041540797"><ele>191.0</ele><time>2026-03-28T10:12:28Z</time></trkpt><trkpt lat="45.54389906440429" lon="10.781673436592284"><ele>191.0</ele><time>2026-03-28T10:12:29Z</time></trkpt><trkpt lat="45.54402669783493" lon="10.781830062296244"><ele>191.0</ele><time>2026-03-28T10:12:30Z</time></trkpt><trkpt lat="45.54417032745715" lon="10.781999502289997"><ele>189.66666666666666</ele><time>2026-03-28T10:12:31Z</time></trkpt><trkpt lat="45.54431204020908" lon="10.782177628081406"><ele>188.33333333333334</ele><time>2026-03-28T10:12:32Z</time></trkpt><trkpt lat="45.54445466922332" lon="10.782360891022185"><ele>187.0</ele><time>2026-03-28T10:12:33Z</time></trkpt><trkpt lat="45.54460951163348" lon="10.78255113406211"><ele>186.33333333333334</ele><time>2026-03-28T10:12:34Z</time></trkpt><trkpt lat="45.544768217876616" lon="10.782742141330576"><ele>185.66666666666666</ele><time>2026-03-28T10:12:35Z</time></trkpt><trkpt lat="45.5449283275103" lon="10.78294493904603"><ele>185.0</ele><time>2026-03-28T10:12:36Z</time></trkpt><trkpt lat="45.54508472054291" lon="10.78315162912565"><ele>185.0</ele><time>2026-03-28T10:12:37Z</time></trkpt><trkpt lat="45.545244474318096" lon="10.78336984443194"><ele>185.0</ele><time>2026-03-28T10:12:38Z</time></trkpt><trkpt lat="45.54540430725327" lon="10.783588161801655"><ele>185.0</ele><time>2026-03-28T10:12:39Z</time></trkpt><trkpt lat="45.545547221949214" lon="10.783808976862856"><ele>184.66666666666666</ele><time>2026-03-28T10:12:40Z</time></trkpt><trkpt lat="45.545689524224514" lon="10.784039096754519"><ele>184.33333333333334</ele><time>2026-03-28T10:12:41Z</time></trkpt><trkpt lat="45.545828432393044" lon="10.784275405154117"><ele>184.0</ele><time>2026-03-28T10:12:42Z</time></trkpt><trkpt lat="45.545960381534066" lon="10.784499900438565"><ele>183.33333333333334</ele><time>2026-03-28T10:12:43Z</time></trkpt><trkpt lat="45.54609615759527" lon="10.784714053262322"><ele>182.66666666666666</ele><time>2026-03-28T10:12:44Z</time></trkpt><trkpt lat="45.546198759586645" lon="10.784936679502302"><ele>182.0</ele><time>2026-03-28T10:12:45Z</time></trkpt><trkpt lat="45.54631902625942" lon="10.78516148804064"><ele>182.0</ele><time>2026-03-28T10:12:46Z</time></trkpt><trkpt lat="45.546437869613186" lon="10.785375571430103"><ele>182.0</ele><time>2026-03-28T10:12:47Z</time></trkpt><trkpt lat="45.54655587814551" lon="10.785580866330482"><ele>182.0</ele><time>2026-03-28T10:12:48Z</time></trkpt><trkpt lat="45.54667739383049" lon="10.785785427742073"><ele>182.0</ele><time>2026-03-28T10:12:49Z</time></trkpt><trkpt lat="45.54680377563081" lon="10.786005519987688"><ele>182.0</ele><time>2026-03-28T10:12:50Z</time></trkpt><trkpt lat="45.54692798143683" lon="10.786232016066053"><ele>182.0</ele><time>2026-03-28T10:12:51Z</time></trkpt><trkpt lat="45.547055906172474" lon="10.786457997659507"><ele>179.0</ele><time>2026-03-28T10:12:52Z</time></trkpt><trkpt lat="45.54719042196221" lon="10.786683255479774"><ele>176.0</ele><time>2026-03-28T10:12:53Z</time></trkpt><trkpt lat="45.54732688838062" lon="10.786916383948832"><ele>173.0</ele><time>2026-03-28T10:12:53.999Z</time></trkpt><trkpt lat="45.547456577313184" lon="10.787161574967206"><ele>173.0</ele><time>2026-03-28T10:12:54.999Z</time></trkpt><trkpt lat="45.54758779023971" lon="10.787409009580673"><ele>173.0</ele><time>2026-03-28T10:12:55.999Z</time></trkpt><trkpt lat="45.54771757399943" lon="10.787652512571034"><ele>173.0</ele><time>2026-03-28T10:12:56.999Z</time></trkpt><trkpt lat="45.547843696403454" lon="10.787886621622718"><ele>174.0</ele><time>2026-03-28T10:12:57.999Z</time></trkpt><trkpt lat="45.54795328356018" lon="10.788093852806142"><ele>175.0</ele><time>2026-03-28T10:12:58.999Z</time></trkpt><trkpt lat="45.54805175426819" lon="10.7882616477296"><ele>176.0</ele><time>2026-03-28T10:12:59.999Z</time></trkpt><trkpt lat="45.548138014267195" lon="10.788420751168312"><ele>177.0</ele><time>2026-03-28T10:13:00.999Z</time></trkpt><trkpt lat="45.548217096769434" lon="10.788541401621385"><ele>178.0</ele><time>2026-03-28T10:13:01.999Z</time></trkpt><trkpt lat="45.54827887861839" lon="10.788630732744593"><ele>179.0</ele><time>2026-03-28T10:13:02.999Z</time></trkpt><trkpt lat="45.54832172721103" lon="10.788704894871284"><ele>180.0</ele><time>2026-03-28T10:13:03.999Z</time></trkpt><trkpt lat="45.5482550281213" lon="10.788858993225745"><ele>181.0</ele><time>2026-03-28T10:13:07Z</time></trkpt><trkpt lat="45.54816825086889" lon="10.78890616372666"><ele>181.0</ele><time>2026-03-28T10:13:08Z</time></trkpt><trkpt lat="45.54809185686149" lon="10.788964542447546"><ele>181.0</ele><time>2026-03-28T10:13:09Z</time></trkpt><trkpt lat="45.54803163214666" lon="10.789041378864894"><ele>181.0</ele><time>2026-03-28T10:13:10Z</time></trkpt><trkpt lat="45.54794265544604" lon="10.789139751340596"><ele>181.0</ele><time>2026-03-28T10:13:11Z</time></trkpt><trkpt lat="45.54764871220459" lon="10.789499699977434"><ele>181.5</ele><time>2026-03-28T10:13:12Z</time></trkpt><trkpt lat="45.547540857144135" lon="10.789636690994481"><ele>182.0</ele><time>2026-03-28T10:13:13Z</time></trkpt><trkpt lat="45.54742050547564" lon="10.789692577268628"><ele>182.5</ele><time>2026-03-28T10:13:14Z</time></trkpt><trkpt lat="45.54729259884228" lon="10.78975686982514"><ele>183.0</ele><time>2026-03-28T10:13:15Z</time></trkpt><trkpt lat="45.547156293484335" lon="10.789847194493921"><ele>182.5</ele><time>2026-03-28T10:13:16Z</time></trkpt><trkpt lat="45.54702350221814" lon="10.789906536296634"><ele>182.0</ele><time>2026-03-28T10:13:17Z</time></trkpt><trkpt lat="45.54691446807449" lon="10.789965019985203"><ele>181.5</ele><time>2026-03-28T10:13:18Z</time></trkpt><trkpt lat="45.546815849732624" lon="10.790031518980587"><ele>181.0</ele><time>2026-03-28T10:13:19Z</time></trkpt><trkpt lat="45.546741678314255" lon="10.790109075960114"><ele>180.75</ele><time>2026-03-28T10:13:20Z</time></trkpt><trkpt lat="45.54667474145686" lon="10.790223203006217"><ele>180.5</ele><time>2026-03-28T10:13:21Z</time></trkpt><trkpt lat="45.546632301223354" lon="10.790388724981236"><ele>180.25</ele><time>2026-03-28T10:13:22Z</time></trkpt><trkpt lat="45.546610635756984" lon="10.790567433934822"><ele>180.0</ele><time>2026-03-28T10:13:23Z</time></trkpt><trkpt lat="45.546589943925085" lon="10.790769961509506"><ele>180.0</ele><time>2026-03-28T10:13:24Z</time></trkpt><trkpt lat="45.546554330236795" lon="10.790989256918058"><ele>180.0</ele><time>2026-03-28T10:13:25Z</time></trkpt><trkpt lat="45.546516444893676" lon="10.791226778173101"><ele>180.0</ele><time>2026-03-28T10:13:26Z</time></trkpt><trkpt lat="45.54648061512822" lon="10.791476537757006"><ele>181.0</ele><time>2026-03-28T10:13:27Z</time></trkpt><trkpt lat="45.5464412944517" lon="10.791715524262749"><ele>182.0</ele><time>2026-03-28T10:13:28Z</time></trkpt><trkpt lat="45.54641118763881" lon="10.791967982161939"><ele>183.0</ele><time>2026-03-28T10:13:29Z</time></trkpt><trkpt lat="45.54637218382805" lon="10.79219518194503"><ele>183.0</ele><time>2026-03-28T10:13:30Z</time></trkpt><trkpt lat="45.54633699645697" lon="10.792409367898102"><ele>183.0</ele><time>2026-03-28T10:13:31Z</time></trkpt><trkpt lat="45.54630956378857" lon="10.7925882190287"><ele>183.0</ele><time>2026-03-28T10:13:32Z</time></trkpt><trkpt lat="45.546286662292694" lon="10.792753947048206"><ele>183.0</ele><time>2026-03-28T10:13:33Z</time></trkpt><trkpt lat="45.54627066911286" lon="10.792891754250416"><ele>182.83333333333334</ele><time>2026-03-28T10:13:34Z</time></trkpt><trkpt lat="45.5462571745237" lon="10.792991197130938"><ele>182.66666666666666</ele><time>2026-03-28T10:13:35Z</time></trkpt><trkpt lat="45.54625997178284" lon="10.793086867515962"><ele>182.5</ele><time>2026-03-28T10:13:37Z</time></trkpt><trkpt lat="45.54635896111232" lon="10.793115232167693"><ele>182.33333333333331</ele><time>2026-03-28T10:13:38Z</time></trkpt><trkpt lat="45.54643778904698" lon="10.793137846140645"><ele>182.16666666666666</ele><time>2026-03-28T10:13:39Z</time></trkpt><trkpt lat="45.54651927614818" lon="10.793160020331078"><ele>182.0</ele><time>2026-03-28T10:13:40Z</time></trkpt><trkpt lat="45.54661359258393" lon="10.793195400405628"><ele>182.0</ele><time>2026-03-28T10:13:41Z</time></trkpt><trkpt lat="45.546724609747045" lon="10.793234271222136"><ele>182.0</ele><time>2026-03-28T10:13:42Z</time></trkpt><trkpt lat="45.54684506468913" lon="10.793274617274536"><ele>182.0</ele><time>2026-03-28T10:13:43Z</time></trkpt><trkpt lat="45.54697496284571" lon="10.793331370171842"><ele>182.0</ele><time>2026-03-28T10:13:44Z</time></trkpt><trkpt lat="45.54710590339201" lon="10.793391196605214"><ele>182.0</ele><time>2026-03-28T10:13:45Z</time></trkpt><trkpt lat="45.54721454642268" lon="10.793439009389822"><ele>182.0</ele><time>2026-03-28T10:13:46Z</time></trkpt><trkpt lat="45.5473022803316" lon="10.793479057968836"><ele>182.0</ele><time>2026-03-28T10:13:47Z</time></trkpt><trkpt lat="45.54736482320228" lon="10.793504903714357"><ele>182.0</ele><time>2026-03-28T10:13:48Z</time></trkpt><trkpt lat="45.54747891272972" lon="10.793436725409729"><ele>182.0</ele><time>2026-03-28T10:13:50Z</time></trkpt><trkpt lat="45.54750420620782" lon="10.793282596643381"><ele>182.0</ele><time>2026-03-28T10:13:51Z</time></trkpt><trkpt lat="45.54753159716704" lon="10.793129120359572"><ele>182.0</ele><time>2026-03-28T10:13:52Z</time></trkpt><trkpt lat="45.547561114988746" lon="10.792942966422398"><ele>182.0</ele><time>2026-03-28T10:13:53Z</time></trkpt><trkpt lat="45.547592454391655" lon="10.792745324689891"><ele>182.0</ele><time>2026-03-28T10:13:54Z</time></trkpt><trkpt lat="45.547625323421535" lon="10.792594147628037"><ele>181.83333333333331</ele><time>2026-03-28T10:13:55Z</time></trkpt><trkpt lat="45.547658683030924" lon="10.792486376050283"><ele>181.66666666666666</ele><time>2026-03-28T10:13:56Z</time></trkpt><trkpt lat="45.54774008065017" lon="10.792424356634426"><ele>181.5</ele><time>2026-03-28T10:13:58Z</time></trkpt><trkpt lat="45.54780931569955" lon="10.79239087371308"><ele>181.33333333333334</ele><time>2026-03-28T10:13:59Z</time></trkpt><trkpt lat="45.54788223401179" lon="10.792431046949913"><ele>181.16666666666669</ele><time>2026-03-28T10:14:00Z</time></trkpt><trkpt lat="45.54795285458507" lon="10.792520027137765"><ele>181.0</ele><time>2026-03-28T10:14:01Z</time></trkpt><trkpt lat="45.548035235287756" lon="10.79262946763338"><ele>181.5</ele><time>2026-03-28T10:14:02Z</time></trkpt><trkpt lat="45.548149282158256" lon="10.792724397995908"><ele>182.0</ele><time>2026-03-28T10:14:03Z</time></trkpt><trkpt lat="45.54827777798049" lon="10.792791869074462"><ele>182.5</ele><time>2026-03-28T10:14:04Z</time></trkpt><trkpt lat="45.54841367420709" lon="10.792822104473334"><ele>183.0</ele><time>2026-03-28T10:14:05Z</time></trkpt><trkpt lat="45.54855711921312" lon="10.792841085393457"><ele>183.0</ele><time>2026-03-28T10:14:06Z</time></trkpt><trkpt lat="45.54870414360243" lon="10.792833712649255"><ele>183.0</ele><time>2026-03-28T10:14:07Z</time></trkpt><trkpt lat="45.5488581982487" lon="10.792812638613308"><ele>183.0</ele><time>2026-03-28T10:14:08Z</time></trkpt><trkpt lat="45.54900159550514" lon="10.79277968947022"><ele>183.0</ele><time>2026-03-28T10:14:09Z</time></trkpt><trkpt lat="45.549131818993715" lon="10.792747805011219"><ele>183.75</ele><time>2026-03-28T10:14:10Z</time></trkpt><trkpt lat="45.54925897452378" lon="10.792733617406371"><ele>184.5</ele><time>2026-03-28T10:14:11Z</time></trkpt><trkpt lat="45.549386574043474" lon="10.792716928693574"><ele>185.25</ele><time>2026-03-28T10:14:12Z</time></trkpt><trkpt lat="45.549515894677846" lon="10.792733511199534"><ele>186.0</ele><time>2026-03-28T10:14:13Z</time></trkpt><trkpt lat="45.54961412217015" lon="10.792773738096743"><ele>186.0</ele><time>2026-03-28T10:14:14Z</time></trkpt><trkpt lat="45.54973007132263" lon="10.792844487582546"><ele>186.0</ele><time>2026-03-28T10:14:16Z</time></trkpt><trkpt lat="45.54979738429473" lon="10.792886407047767"><ele>186.0</ele><time>2026-03-28T10:14:17Z</time></trkpt><trkpt lat="45.54987083297186" lon="10.79298043641929"><ele>186.0</ele><time>2026-03-28T10:14:18Z</time></trkpt><trkpt lat="45.54996306364819" lon="10.793086176114716"><ele>186.0</ele><time>2026-03-28T10:14:19Z</time></trkpt><trkpt lat="45.55006849439388" lon="10.793186218096873"><ele>186.0</ele><time>2026-03-28T10:14:20Z</time></trkpt><trkpt lat="45.550170225196105" lon="10.7933062470669"><ele>186.0</ele><time>2026-03-28T10:14:21Z</time></trkpt><trkpt lat="45.55025428550651" lon="10.793453548955735"><ele>186.0</ele><time>2026-03-28T10:14:22Z</time></trkpt><trkpt lat="45.550344218059585" lon="10.793601318696476"><ele>186.0</ele><time>2026-03-28T10:14:23Z</time></trkpt><trkpt lat="45.55043859947624" lon="10.79376780472939"><ele>186.0</ele><time>2026-03-28T10:14:24Z</time></trkpt><trkpt lat="45.55052956006553" lon="10.793934110115309"><ele>186.0</ele><time>2026-03-28T10:14:25Z</time></trkpt><trkpt lat="45.550607812918265" lon="10.79407864657442"><ele>186.0</ele><time>2026-03-28T10:14:26Z</time></trkpt><trkpt lat="45.55068260361912" lon="10.794212111742517"><ele>186.0</ele><time>2026-03-28T10:14:27Z</time></trkpt><trkpt lat="45.55073287219777" lon="10.794352050645088"><ele>186.0</ele><time>2026-03-28T10:14:28Z</time></trkpt><trkpt lat="45.5507534352678" lon="10.794490499246741"><ele>186.0</ele><time>2026-03-28T10:14:29Z</time></trkpt><trkpt lat="45.55075314805014" lon="10.794589421269913"><ele>186.0</ele><time>2026-03-28T10:14:30Z</time></trkpt><trkpt lat="45.55075180035107" lon="10.794704741481693"><ele>186.0</ele><time>2026-03-28T10:14:31Z</time></trkpt><trkpt lat="45.55075588012578" lon="10.794844883818966"><ele>186.0</ele><time>2026-03-28T10:14:32Z</time></trkpt><trkpt lat="45.55076386922652" lon="10.795013426477755"><ele>186.0</ele><time>2026-03-28T10:14:33Z</time></trkpt><trkpt lat="45.55076689368579" lon="10.795208579948925"><ele>186.0</ele><time>2026-03-28T10:14:34Z</time></trkpt><trkpt lat="45.550749885434506" lon="10.795427275153578"><ele>186.0</ele><time>2026-03-28T10:14:35Z</time></trkpt><trkpt lat="45.55074293003314" lon="10.795654395962407"><ele>186.0</ele><time>2026-03-28T10:14:36Z</time></trkpt><trkpt lat="45.550758298262934" lon="10.795885272711914"><ele>186.0</ele><time>2026-03-28T10:14:37Z</time></trkpt><trkpt lat="45.55076050865746" lon="10.79608851886119"><ele>186.0</ele><time>2026-03-28T10:14:38Z</time></trkpt><trkpt lat="45.55076147975701" lon="10.79627634393881"><ele>186.0</ele><time>2026-03-28T10:14:39Z</time></trkpt><trkpt lat="45.55078656496218" lon="10.79643336237234"><ele>186.0</ele><time>2026-03-28T10:14:40Z</time></trkpt><trkpt lat="45.55078371859391" lon="10.796564615743602"><ele>186.0</ele><time>2026-03-28T10:14:41Z</time></trkpt><trkpt lat="45.55079518679477" lon="10.796677501182247"><ele>186.0</ele><time>2026-03-28T10:14:42Z</time></trkpt><trkpt lat="45.5508081509874" lon="10.796803004876319"><ele>186.0</ele><time>2026-03-28T10:14:44Z</time></trkpt><trkpt lat="45.55081784243003" lon="10.796894719198189"><ele>186.0</ele><time>2026-03-28T10:14:46Z</time></trkpt><trkpt lat="45.55082327484122" lon="10.796984369681379"><ele>186.0</ele><time>2026-03-28T10:14:47Z</time></trkpt><trkpt lat="45.55082185729062" lon="10.797122208711965"><ele>186.0</ele><time>2026-03-28T10:14:48Z</time></trkpt><trkpt lat="45.55081494715559" lon="10.797295453235941"><ele>186.0</ele><time>2026-03-28T10:14:49Z</time></trkpt><trkpt lat="45.55081062651308" lon="10.79749906840235"><ele>186.0</ele><time>2026-03-28T10:14:50Z</time></trkpt><trkpt lat="45.55080374639855" lon="10.79774150756413"><ele>186.0</ele><time>2026-03-28T10:14:51Z</time></trkpt><trkpt lat="45.550792632242846" lon="10.798008940601315"><ele>186.0</ele><time>2026-03-28T10:14:52Z</time></trkpt><trkpt lat="45.55077379774339" lon="10.79826476759711"><ele>186.0</ele><time>2026-03-28T10:14:53Z</time></trkpt><trkpt lat="45.55076339940834" lon="10.798482955876478"><ele>186.0</ele><time>2026-03-28T10:14:54Z</time></trkpt><trkpt lat="45.550753294557325" lon="10.798685834829584"><ele>185.75</ele><time>2026-03-28T10:14:55Z</time></trkpt><trkpt lat="45.550744059741795" lon="10.798888774239717"><ele>185.5</ele><time>2026-03-28T10:14:56Z</time></trkpt><trkpt lat="45.55073828580779" lon="10.79910373731399"><ele>185.25</ele><time>2026-03-28T10:14:57Z</time></trkpt><trkpt lat="45.55074293133137" lon="10.799310386000428"><ele>185.0</ele><time>2026-03-28T10:14:58Z</time></trkpt><trkpt lat="45.550751605750065" lon="10.799515512371837"><ele>184.75</ele><time>2026-03-28T10:14:59Z</time></trkpt><trkpt lat="45.55076255114032" lon="10.799707422177175"><ele>184.5</ele><time>2026-03-28T10:15:00Z</time></trkpt><trkpt lat="45.55076583780435" lon="10.799878402783765"><ele>184.25</ele><time>2026-03-28T10:15:01Z</time></trkpt><trkpt lat="45.55076783798297" lon="10.800040819334502"><ele>184.0</ele><time>2026-03-28T10:15:02Z</time></trkpt><trkpt lat="45.55077658947686" lon="10.800210619832168"><ele>183.0</ele><time>2026-03-28T10:15:03Z</time></trkpt><trkpt lat="45.55079293295167" lon="10.800376516932808"><ele>182.0</ele><time>2026-03-28T10:15:04Z</time></trkpt><trkpt lat="45.550803439470364" lon="10.800555208282816"><ele>181.0</ele><time>2026-03-28T10:15:05Z</time></trkpt><trkpt lat="45.5508183632865" lon="10.800730451867521"><ele>180.0</ele><time>2026-03-28T10:15:06Z</time></trkpt><trkpt lat="45.550835569380745" lon="10.80091967989444"><ele>179.25</ele><time>2026-03-28T10:15:07Z</time></trkpt><trkpt lat="45.5508534079212" lon="10.801115160074849"><ele>178.5</ele><time>2026-03-28T10:15:08Z</time></trkpt><trkpt lat="45.5508638352565" lon="10.80130992217726"><ele>177.75</ele><time>2026-03-28T10:15:09Z</time></trkpt><trkpt lat="45.550866481303096" lon="10.801492389136289"><ele>177.0</ele><time>2026-03-28T10:15:10Z</time></trkpt><trkpt lat="45.550864874020384" lon="10.801671596244752"><ele>177.0</ele><time>2026-03-28T10:15:11Z</time></trkpt><trkpt lat="45.55085101195891" lon="10.801857429027596"><ele>177.0</ele><time>2026-03-28T10:15:12.001Z</time></trkpt><trkpt lat="45.55085697197023" lon="10.80204342320795"><ele>177.0</ele><time>2026-03-28T10:15:13.001Z</time></trkpt><trkpt lat="45.550837096357114" lon="10.802215332161193"><ele>177.0</ele><time>2026-03-28T10:15:14.001Z</time></trkpt><trkpt lat="45.55079057124379" lon="10.80238650083393"><ele>177.0</ele><time>2026-03-28T10:15:15.001Z</time></trkpt><trkpt lat="45.5507756490259" lon="10.802540641346933"><ele>177.0</ele><time>2026-03-28T10:15:16.001Z</time></trkpt><trkpt lat="45.550753307836075" lon="10.802676513915321"><ele>177.0</ele><time>2026-03-28T10:15:17.001Z</time></trkpt><trkpt lat="45.55073031717275" lon="10.80279811690912"><ele>177.0</ele><time>2026-03-28T10:15:18.001Z</time></trkpt><trkpt lat="45.550694262689404" lon="10.802912435860405"><ele>177.0</ele><time>2026-03-28T10:15:19.001Z</time></trkpt><trkpt lat="45.550671466487195" lon="10.803046517059393"><ele>176.2</ele><time>2026-03-28T10:15:20.001Z</time></trkpt><trkpt lat="45.55060684549024" lon="10.803157699206363"><ele>175.39999999999998</ele><time>2026-03-28T10:15:21.001Z</time></trkpt><trkpt lat="45.55054610026636" lon="10.803279863869179"><ele>174.60000000000002</ele><time>2026-03-28T10:15:22.001Z</time></trkpt><trkpt lat="45.55048700799044" lon="10.803386967327675"><ele>173.8</ele><time>2026-03-28T10:15:23.001Z</time></trkpt><trkpt lat="45.55043419000995" lon="10.803472419099027"><ele>173.0</ele><time>2026-03-28T10:15:24.001Z</time></trkpt><trkpt lat="45.550379485476455" lon="10.803564113092351"><ele>172.60000000000002</ele><time>2026-03-28T10:15:25.001Z</time></trkpt><trkpt lat="45.55035182294134" lon="10.803657831807909"><ele>172.20000000000002</ele><time>2026-03-28T10:15:26.001Z</time></trkpt><trkpt lat="45.550400227320516" lon="10.803807935802165"><ele>171.8</ele><time>2026-03-28T10:15:28Z</time></trkpt><trkpt lat="45.55046081628838" lon="10.803880440373986"><ele>171.4</ele><time>2026-03-28T10:15:30Z</time></trkpt><trkpt lat="45.550543587871616" lon="10.803925336350567"><ele>171.0</ele><time>2026-03-28T10:15:31Z</time></trkpt><trkpt lat="45.55063874189224" lon="10.803971194675718"><ele>171.0</ele><time>2026-03-28T10:15:32Z</time></trkpt><trkpt lat="45.550746544491695" lon="10.804002215955682"><ele>171.0</ele><time>2026-03-28T10:15:33Z</time></trkpt><trkpt lat="45.550868075804274" lon="10.804008851587799"><ele>171.0</ele><time>2026-03-28T10:15:34Z</time></trkpt><trkpt lat="45.55099730941474" lon="10.803996861490402"><ele>171.0</ele><time>2026-03-28T10:15:35Z</time></trkpt><trkpt lat="45.551141566772685" lon="10.803981146312879"><ele>171.66666666666666</ele><time>2026-03-28T10:15:36Z</time></trkpt><trkpt lat="45.55129459537721" lon="10.803972655688282"><ele>172.33333333333331</ele><time>2026-03-28T10:15:37Z</time></trkpt><trkpt lat="45.55145757824161" lon="10.803960153147946"><ele>173.0</ele><time>2026-03-28T10:15:38Z</time></trkpt><trkpt lat="45.55162532763193" lon="10.803949862794438"><ele>173.0</ele><time>2026-03-28T10:15:39Z</time></trkpt><trkpt lat="45.55179524676159" lon="10.803940220211569"><ele>173.0</ele><time>2026-03-28T10:15:40Z</time></trkpt><trkpt lat="45.55197284557885" lon="10.803927349403816"><ele>173.0</ele><time>2026-03-28T10:15:41Z</time></trkpt><trkpt lat="45.5521542865016" lon="10.803912529731187"><ele>172.66666666666666</ele><time>2026-03-28T10:15:42Z</time></trkpt><trkpt lat="45.55234122282731" lon="10.803889961826773"><ele>172.33333333333334</ele><time>2026-03-28T10:15:43Z</time></trkpt><trkpt lat="45.55252810864056" lon="10.803864348889412"><ele>172.0</ele><time>2026-03-28T10:15:44Z</time></trkpt><trkpt lat="45.55271670834828" lon="10.803827752775847"><ele>173.0</ele><time>2026-03-28T10:15:45Z</time></trkpt><trkpt lat="45.552903391413984" lon="10.803786465992605"><ele>174.0</ele><time>2026-03-28T10:15:46Z</time></trkpt><trkpt lat="45.553088817038955" lon="10.803748447251841"><ele>175.0</ele><time>2026-03-28T10:15:47Z</time></trkpt><trkpt lat="45.55327291849339" lon="10.803715844375265"><ele>175.0</ele><time>2026-03-28T10:15:48Z</time></trkpt><trkpt lat="45.55345676861818" lon="10.803684801261163"><ele>175.0</ele><time>2026-03-28T10:15:49Z</time></trkpt><trkpt lat="45.55363925910711" lon="10.803654539924546"><ele>175.0</ele><time>2026-03-28T10:15:50Z</time></trkpt><trkpt lat="45.55382232061279" lon="10.803626253776812"><ele>175.0</ele><time>2026-03-28T10:15:51Z</time></trkpt><trkpt lat="45.554004351101575" lon="10.80360871924925"><ele>175.0</ele><time>2026-03-28T10:15:52Z</time></trkpt><trkpt lat="45.55418479888301" lon="10.803610402317021"><ele>175.0</ele><time>2026-03-28T10:15:53Z</time></trkpt><trkpt lat="45.554360867344805" lon="10.803622385779176"><ele>175.0</ele><time>2026-03-28T10:15:54Z</time></trkpt><trkpt lat="45.55453547544034" lon="10.803640866334405"><ele>175.0</ele><time>2026-03-28T10:15:55Z</time></trkpt><trkpt lat="45.554707962377655" lon="10.803652101172545"><ele>175.0</ele><time>2026-03-28T10:15:56Z</time></trkpt><trkpt lat="45.55487575367182" lon="10.80364585940032"><ele>176.0</ele><time>2026-03-28T10:15:57Z</time></trkpt><trkpt lat="45.55504209264419" lon="10.803609343402371"><ele>177.0</ele><time>2026-03-28T10:15:58Z</time></trkpt><trkpt lat="45.55521275258707" lon="10.803568719694193"><ele>178.0</ele><time>2026-03-28T10:15:59Z</time></trkpt><trkpt lat="45.55537789297438" lon="10.803483880588244"><ele>178.0</ele><time>2026-03-28T10:16:00Z</time></trkpt><trkpt lat="45.55552752353117" lon="10.803347445700295"><ele>178.0</ele><time>2026-03-28T10:16:01Z</time></trkpt><trkpt lat="45.55567574927449" lon="10.803224686321498"><ele>178.0</ele><time>2026-03-28T10:16:02Z</time></trkpt><trkpt lat="45.55582712400987" lon="10.803092633284939"><ele>178.0</ele><time>2026-03-28T10:16:03Z</time></trkpt><trkpt lat="45.555977667220446" lon="10.80295558272624"><ele>178.0</ele><time>2026-03-28T10:16:04Z</time></trkpt><trkpt lat="45.55612625322472" lon="10.80281959437675"><ele>178.0</ele><time>2026-03-28T10:16:05Z</time></trkpt><trkpt lat="45.556278355702425" lon="10.802683979549775"><ele>178.66666666666669</ele><time>2026-03-28T10:16:06Z</time></trkpt><trkpt lat="45.55642914878932" lon="10.802550076466591"><ele>179.33333333333334</ele><time>2026-03-28T10:16:07Z</time></trkpt><trkpt lat="45.55658183496963" lon="10.802415395555151"><ele>180.0</ele><time>2026-03-28T10:16:08Z</time></trkpt><trkpt lat="45.55673319806356" lon="10.802280379611291"><ele>180.0</ele><time>2026-03-28T10:16:09Z</time></trkpt><trkpt lat="45.556885917396066" lon="10.802139943979347"><ele>180.0</ele><time>2026-03-28T10:16:10Z</time></trkpt><trkpt lat="45.557037333203446" lon="10.801997571127286"><ele>180.0</ele><time>2026-03-28T10:16:11Z</time></trkpt><trkpt lat="45.55719393780766" lon="10.80185228062626"><ele>181.0</ele><time>2026-03-28T10:16:12Z</time></trkpt><trkpt lat="45.55734670400482" lon="10.801712258900643"><ele>182.0</ele><time>2026-03-28T10:16:13Z</time></trkpt><trkpt lat="45.55749752408654" lon="10.801572403070658"><ele>183.0</ele><time>2026-03-28T10:16:14Z</time></trkpt><trkpt lat="45.55763807911783" lon="10.801452959414798"><ele>183.0</ele><time>2026-03-28T10:16:15Z</time></trkpt><trkpt lat="45.55778439414367" lon="10.801337307985907"><ele>183.0</ele><time>2026-03-28T10:16:16Z</time></trkpt><trkpt lat="45.55793292561298" lon="10.801226370892753"><ele>183.0</ele><time>2026-03-28T10:16:17Z</time></trkpt><trkpt lat="45.55808121620196" lon="10.801110997472819"><ele>183.66666666666666</ele><time>2026-03-28T10:16:18Z</time></trkpt><trkpt lat="45.558223808859026" lon="10.800998205857045"><ele>184.33333333333331</ele><time>2026-03-28T10:16:19Z</time></trkpt><trkpt lat="45.55836621013597" lon="10.800876753201743"><ele>185.0</ele><time>2026-03-28T10:16:20Z</time></trkpt><trkpt lat="45.55850060182166" lon="10.800738988062712"><ele>185.0</ele><time>2026-03-28T10:16:21Z</time></trkpt><trkpt lat="45.55862282338818" lon="10.800586155792999"><ele>185.0</ele><time>2026-03-28T10:16:22Z</time></trkpt><trkpt lat="45.558742633896166" lon="10.800436588978348"><ele>185.0</ele><time>2026-03-28T10:16:23Z</time></trkpt><trkpt lat="45.55885429330319" lon="10.800306850452166"><ele>185.0</ele><time>2026-03-28T10:16:24Z</time></trkpt><trkpt lat="45.55897414356289" lon="10.800186500939558"><ele>185.0</ele><time>2026-03-28T10:16:25Z</time></trkpt><trkpt lat="45.55910811212944" lon="10.800084311886398"><ele>185.0</ele><time>2026-03-28T10:16:26Z</time></trkpt><trkpt lat="45.55925229289258" lon="10.79999573949738"><ele>185.0</ele><time>2026-03-28T10:16:27Z</time></trkpt><trkpt lat="45.55940932669914" lon="10.799930038333596"><ele>185.0</ele><time>2026-03-28T10:16:28Z</time></trkpt><trkpt lat="45.559575356964096" lon="10.79989761238971"><ele>185.0</ele><time>2026-03-28T10:16:29Z</time></trkpt><trkpt lat="45.55974609465192" lon="10.799898932001218"><ele>185.33333333333331</ele><time>2026-03-28T10:16:30Z</time></trkpt><trkpt lat="45.55991442013334" lon="10.799916344708155"><ele>185.66666666666666</ele><time>2026-03-28T10:16:31Z</time></trkpt><trkpt lat="45.56009050794788" lon="10.799937799182443"><ele>186.0</ele><time>2026-03-28T10:16:32Z</time></trkpt><trkpt lat="45.56026755067111" lon="10.79996081587191"><ele>185.66666666666666</ele><time>2026-03-28T10:16:33Z</time></trkpt><trkpt lat="45.56044722911146" lon="10.799980547252519"><ele>185.33333333333331</ele><time>2026-03-28T10:16:34Z</time></trkpt><trkpt lat="45.56062882962967" lon="10.79999688458737"><ele>185.0</ele><time>2026-03-28T10:16:35Z</time></trkpt><trkpt lat="45.560814397646226" lon="10.800015450987116"><ele>185.0</ele><time>2026-03-28T10:16:36Z</time></trkpt><trkpt lat="45.560999500785286" lon="10.80003498338342"><ele>185.0</ele><time>2026-03-28T10:16:37Z</time></trkpt><trkpt lat="45.5611847445127" lon="10.800057784354399"><ele>185.0</ele><time>2026-03-28T10:16:38Z</time></trkpt><trkpt lat="45.56137098396847" lon="10.800086624454464"><ele>185.33333333333331</ele><time>2026-03-28T10:16:39Z</time></trkpt><trkpt lat="45.56155504490441" lon="10.800113527640862"><ele>185.66666666666666</ele><time>2026-03-28T10:16:40Z</time></trkpt><trkpt lat="45.56173873807125" lon="10.800136693831059"><ele>186.0</ele><time>2026-03-28T10:16:41Z</time></trkpt><trkpt lat="45.561925233027765" lon="10.800154872761505"><ele>186.66666666666666</ele><time>2026-03-28T10:16:42Z</time></trkpt><trkpt lat="45.56211186779967" lon="10.800177424606911"><ele>187.33333333333331</ele><time>2026-03-28T10:16:43Z</time></trkpt><trkpt lat="45.562296668614145" lon="10.800209997540472"><ele>188.0</ele><time>2026-03-28T10:16:44Z</time></trkpt><trkpt lat="45.56248075430799" lon="10.800253510050142"><ele>188.0</ele><time>2026-03-28T10:16:45Z</time></trkpt><trkpt lat="45.562664291665776" lon="10.800309495101807"><ele>188.0</ele><time>2026-03-28T10:16:46Z</time></trkpt><trkpt lat="45.56284717603037" lon="10.80037274009273"><ele>188.0</ele><time>2026-03-28T10:16:47Z</time></trkpt><trkpt lat="45.56302753405659" lon="10.800435517489905"><ele>189.0</ele><time>2026-03-28T10:16:48Z</time></trkpt><trkpt lat="45.563200928597226" lon="10.800515823085217"><ele>190.0</ele><time>2026-03-28T10:16:49Z</time></trkpt><trkpt lat="45.56336433317733" lon="10.800620676063557"><ele>191.0</ele><time>2026-03-28T10:16:50Z</time></trkpt><trkpt lat="45.56352729001443" lon="10.800739630089046"><ele>191.0</ele><time>2026-03-28T10:16:51Z</time></trkpt><trkpt lat="45.5636843946036" lon="10.800864705185163"><ele>191.0</ele><time>2026-03-28T10:16:52Z</time></trkpt><trkpt lat="45.563840200111414" lon="10.801000573722098"><ele>191.0</ele><time>2026-03-28T10:16:53Z</time></trkpt><trkpt lat="45.56399807180401" lon="10.801139876619342"><ele>190.33333333333331</ele><time>2026-03-28T10:16:54Z</time></trkpt><trkpt lat="45.56415853683543" lon="10.801273945302961"><ele>189.66666666666666</ele><time>2026-03-28T10:16:55Z</time></trkpt><trkpt lat="45.564323308498935" lon="10.801403567913793"><ele>189.0</ele><time>2026-03-28T10:16:56Z</time></trkpt><trkpt lat="45.564492298774105" lon="10.801530513916177"><ele>189.66666666666666</ele><time>2026-03-28T10:16:57Z</time></trkpt><trkpt lat="45.56467047422661" lon="10.801647026994393"><ele>190.33333333333331</ele><time>2026-03-28T10:16:58Z</time></trkpt><trkpt lat="45.564848245525326" lon="10.801742012959913"><ele>191.0</ele><time>2026-03-28T10:16:59Z</time></trkpt><trkpt lat="45.5650319972831" lon="10.801815545216444"><ele>191.0</ele><time>2026-03-28T10:17:00Z</time></trkpt><trkpt lat="45.56521748603412" lon="10.801873315931847"><ele>191.0</ele><time>2026-03-28T10:17:01Z</time></trkpt><trkpt lat="45.56540685902988" lon="10.80191372835176"><ele>191.0</ele><time>2026-03-28T10:17:02Z</time></trkpt><trkpt lat="45.56559622864418" lon="10.80195299861821"><ele>191.0</ele><time>2026-03-28T10:17:03Z</time></trkpt><trkpt lat="45.56578756089883" lon="10.801994469256828"><ele>191.0</ele><time>2026-03-28T10:17:04Z</time></trkpt><trkpt lat="45.56597571429412" lon="10.802048467676737"><ele>191.0</ele><time>2026-03-28T10:17:05Z</time></trkpt><trkpt lat="45.56616628695517" lon="10.802097153120284"><ele>190.66666666666666</ele><time>2026-03-28T10:17:06Z</time></trkpt><trkpt lat="45.56636044539873" lon="10.80214505296265"><ele>190.33333333333334</ele><time>2026-03-28T10:17:07Z</time></trkpt><trkpt lat="45.56655497713131" lon="10.802191967691112"><ele>190.0</ele><time>2026-03-28T10:17:08Z</time></trkpt><trkpt lat="45.56674347772887" lon="10.802231702358993"><ele>190.0</ele><time>2026-03-28T10:17:09Z</time></trkpt><trkpt lat="45.56693326948184" lon="10.802257552601155"><ele>190.0</ele><time>2026-03-28T10:17:10Z</time></trkpt><trkpt lat="45.567124015807885" lon="10.802274554996623"><ele>190.0</ele><time>2026-03-28T10:17:11Z</time></trkpt><trkpt lat="45.56731422850086" lon="10.802275513266252"><ele>190.33333333333334</ele><time>2026-03-28T10:17:12Z</time></trkpt><trkpt lat="45.567502379907864" lon="10.802265371392748"><ele>190.66666666666666</ele><time>2026-03-28T10:17:13Z</time></trkpt><trkpt lat="45.56769140250784" lon="10.802239730636527"><ele>191.0</ele><time>2026-03-28T10:17:14Z</time></trkpt><trkpt lat="45.56788158140691" lon="10.802211873872846"><ele>191.0</ele><time>2026-03-28T10:17:15Z</time></trkpt><trkpt lat="45.568067586823865" lon="10.802186385834199"><ele>191.0</ele><time>2026-03-28T10:17:16Z</time></trkpt><trkpt lat="45.568243313571706" lon="10.802163177660534"><ele>191.0</ele><time>2026-03-28T10:17:17Z</time></trkpt><trkpt lat="45.568404800220726" lon="10.802143342541456"><ele>191.0</ele><time>2026-03-28T10:17:18.001Z</time></trkpt><trkpt lat="45.56855075661798" lon="10.802133773759387"><ele>191.0</ele><time>2026-03-28T10:17:19.001Z</time></trkpt><trkpt lat="45.568687943933426" lon="10.802130379948213"><ele>191.0</ele><time>2026-03-28T10:17:20.001Z</time></trkpt><trkpt lat="45.568811873511606" lon="10.80212776223685"><ele>191.0</ele><time>2026-03-28T10:17:21.001Z</time></trkpt><trkpt lat="45.568926400391334" lon="10.802127567024748"><ele>191.60000000000002</ele><time>2026-03-28T10:17:22.001Z</time></trkpt><trkpt lat="45.56903083245319" lon="10.802142328239045"><ele>192.2</ele><time>2026-03-28T10:17:23.001Z</time></trkpt><trkpt lat="45.56912697391704" lon="10.802159296673741"><ele>192.8</ele><time>2026-03-28T10:17:24.001Z</time></trkpt><trkpt lat="45.56920919668086" lon="10.802179906644001"><ele>193.39999999999998</ele><time>2026-03-28T10:17:25.001Z</time></trkpt><trkpt lat="45.569279166465115" lon="10.802199246686342"><ele>194.0</ele><time>2026-03-28T10:17:26.001Z</time></trkpt><trkpt lat="45.569345288761376" lon="10.802012760519833"><ele>194.0</ele><time>2026-03-28T10:17:27.001Z</time></trkpt><trkpt lat="45.569383566295954" lon="10.801877546263075"><ele>194.0</ele><time>2026-03-28T10:17:28.001Z</time></trkpt><trkpt lat="45.5694389973876" lon="10.80173095097655"><ele>194.0</ele><time>2026-03-28T10:17:29.001Z</time></trkpt><trkpt lat="45.56948574090347" lon="10.801554119594888"><ele>194.0</ele><time>2026-03-28T10:17:30.001Z</time></trkpt><trkpt lat="45.56951089968368" lon="10.801359907076257"><ele>193.5</ele><time>2026-03-28T10:17:31.001Z</time></trkpt><trkpt lat="45.56956223124011" lon="10.801172051413557"><ele>193.0</ele><time>2026-03-28T10:17:32.001Z</time></trkpt><trkpt lat="45.56951584206" lon="10.801007871012402"><ele>192.5</ele><time>2026-03-28T10:17:33.001Z</time></trkpt><trkpt lat="45.56948088553071" lon="10.800857363411028"><ele>192.0</ele><time>2026-03-28T10:17:34.001Z</time></trkpt><trkpt lat="45.5694434246691" lon="10.800704978157096"><ele>193.0</ele><time>2026-03-28T10:17:35.001Z</time></trkpt><trkpt lat="45.56949227194261" lon="10.79999224304836"><ele>193.33333333333331</ele><time>2026-03-28T10:17:36.001Z</time></trkpt><trkpt lat="45.56954384571592" lon="10.799846554179386"><ele>193.66666666666669</ele><time>2026-03-28T10:17:38.001Z</time></trkpt><trkpt lat="45.56967905197139" lon="10.79964219963094"><ele>194.0</ele><time>2026-03-28T10:17:39Z</time></trkpt><trkpt lat="45.56982686868697" lon="10.799552768332774"><ele>194.0</ele><time>2026-03-28T10:17:40Z</time></trkpt><trkpt lat="45.5699260813035" lon="10.799452397843913"><ele>194.0</ele><time>2026-03-28T10:17:42Z</time></trkpt><trkpt lat="45.57003056252561" lon="10.799366435467078"><ele>194.0</ele><time>2026-03-28T10:17:44Z</time></trkpt><trkpt lat="45.57014710469269" lon="10.799297145167133"><ele>194.0</ele><time>2026-03-28T10:17:46Z</time></trkpt><trkpt lat="45.57027710267823" lon="10.799368653121293"><ele>194.00000000000003</ele><time>2026-03-28T10:17:50Z</time></trkpt><trkpt lat="45.570334552420974" lon="10.799470143465296"><ele>194.0</ele><time>2026-03-28T10:17:53Z</time></trkpt><trkpt lat="45.57040315116317" lon="10.799553493519852"><ele>194.0</ele><time>2026-03-28T10:17:56Z</time></trkpt><trkpt lat="45.57035200809052" lon="10.79962437106385"><ele>194.0</ele><time>2026-03-28T10:18:21Z</time></trkpt><trkpt lat="45.57028814932102" lon="10.799627613097398"><ele>194.00000000000003</ele><time>2026-03-28T10:18:23Z</time></trkpt><trkpt lat="45.57021772568528" lon="10.799620748232131"><ele>194.0</ele><time>2026-03-28T10:18:25Z</time></trkpt><trkpt lat="45.570154120006094" lon="10.79962169254106"><ele>194.0</ele><time>2026-03-28T10:18:27Z</time></trkpt><trkpt lat="45.57006646073136" lon="10.79966179346985"><ele>194.0</ele><time>2026-03-28T10:18:30Z</time></trkpt><trkpt lat="45.570090304109016" lon="10.800022332255784"><ele>194.0</ele><time>2026-03-28T10:18:32Z</time></trkpt><trkpt lat="45.57000345468573" lon="10.800044605521911"><ele>194.0</ele><time>2026-03-28T10:18:33Z</time></trkpt><trkpt lat="45.56991726042291" lon="10.80008097483788"><ele>194.0</ele><time>2026-03-28T10:18:34Z</time></trkpt><trkpt lat="45.56984391210734" lon="10.800149959789676"><ele>194.0</ele><time>2026-03-28T10:18:36Z</time></trkpt><trkpt lat="45.56983294737486" lon="10.800250513715993"><ele>194.0</ele><time>2026-03-28T10:18:38Z</time></trkpt><trkpt lat="45.569965350973135" lon="10.800200383548782"><ele>194.0</ele><time>2026-03-28T10:18:41Z</time></trkpt><trkpt lat="45.570061398201304" lon="10.800138174817256"><ele>194.0</ele><time>2026-03-28T10:18:42Z</time></trkpt><trkpt lat="45.57017616980095" lon="10.800110835858165"><ele>194.0</ele><time>2026-03-28T10:18:43Z</time></trkpt><trkpt lat="45.57030649777164" lon="10.80009076378685"><ele>194.0</ele><time>2026-03-28T10:18:44Z</time></trkpt><trkpt lat="45.57043132939925" lon="10.800061122282214"><ele>194.0</ele><time>2026-03-28T10:18:45Z</time></trkpt><trkpt lat="45.570561721513435" lon="10.800012164472289"><ele>194.0</ele><time>2026-03-28T10:18:46Z</time></trkpt><trkpt lat="45.57067444022674" lon="10.799950572009537"><ele>194.75</ele><time>2026-03-28T10:18:47Z</time></trkpt><trkpt lat="45.570792501167546" lon="10.799872977912312"><ele>195.5</ele><time>2026-03-28T10:18:48Z</time></trkpt><trkpt lat="45.57091450251705" lon="10.799796335707626"><ele>196.25</ele><time>2026-03-28T10:18:49Z</time></trkpt><trkpt lat="45.57103873783418" lon="10.799715244285757"><ele>197.0</ele><time>2026-03-28T10:18:50Z</time></trkpt><trkpt lat="45.57116761736092" lon="10.799629732024556"><ele>197.0</ele><time>2026-03-28T10:18:51Z</time></trkpt><trkpt lat="45.571291897117284" lon="10.799540117375765"><ele>197.0</ele><time>2026-03-28T10:18:52Z</time></trkpt><trkpt lat="45.5714053105926" lon="10.799453784505443"><ele>197.0</ele><time>2026-03-28T10:18:53Z</time></trkpt><trkpt lat="45.571498554439074" lon="10.799374397331801"><ele>197.0</ele><time>2026-03-28T10:18:54Z</time></trkpt><trkpt lat="45.57158794977001" lon="10.799310474960345"><ele>197.8</ele><time>2026-03-28T10:18:55Z</time></trkpt><trkpt lat="45.57167021892239" lon="10.79926159570293"><ele>198.6</ele><time>2026-03-28T10:18:56Z</time></trkpt><trkpt lat="45.57174850492804" lon="10.799209762719801"><ele>199.4</ele><time>2026-03-28T10:18:57Z</time></trkpt><trkpt lat="45.571854430473884" lon="10.799117102378172"><ele>200.20000000000002</ele><time>2026-03-28T10:18:59Z</time></trkpt><trkpt lat="45.57194979685014" lon="10.799078145864266"><ele>201.0</ele><time>2026-03-28T10:19:01Z</time></trkpt><trkpt lat="45.571875541879386" lon="10.799108019041205"><ele>201.0</ele><time>2026-03-28T10:19:24.001Z</time></trkpt><trkpt lat="45.571817986920344" lon="10.799154134276742"><ele>201.0</ele><time>2026-03-28T10:19:25.001Z</time></trkpt><trkpt lat="45.57170472221935" lon="10.799237332940212"><ele>201.0</ele><time>2026-03-28T10:19:26.001Z</time></trkpt><trkpt lat="45.571610820955236" lon="10.799298386649152"><ele>201.0</ele><time>2026-03-28T10:19:27.001Z</time></trkpt><trkpt lat="45.57152271827652" lon="10.799358770349274"><ele>201.0</ele><time>2026-03-28T10:19:28.001Z</time></trkpt><trkpt lat="45.571432625898055" lon="10.799422689444018"><ele>200.20000000000002</ele><time>2026-03-28T10:19:29.001Z</time></trkpt><trkpt lat="45.57134320483925" lon="10.799490897987889"><ele>199.4</ele><time>2026-03-28T10:19:30.001Z</time></trkpt><trkpt lat="45.57124490827129" lon="10.799568565371095"><ele>198.6</ele><time>2026-03-28T10:19:31.001Z</time></trkpt><trkpt lat="45.57114450744368" lon="10.799639772731128"><ele>197.8</ele><time>2026-03-28T10:19:32.001Z</time></trkpt><trkpt lat="45.571044501387874" lon="10.79970067514613"><ele>197.0</ele><time>2026-03-28T10:19:33.001Z</time></trkpt><trkpt lat="45.57093962612103" lon="10.799765726543177"><ele>197.0</ele><time>2026-03-28T10:19:34.001Z</time></trkpt><trkpt lat="45.57083954477669" lon="10.799827499743143"><ele>197.0</ele><time>2026-03-28T10:19:35Z</time></trkpt><trkpt lat="45.57073541293209" lon="10.799897733834156"><ele>197.0</ele><time>2026-03-28T10:19:36Z</time></trkpt><trkpt lat="45.57063012971435" lon="10.799967095597644"><ele>197.0</ele><time>2026-03-28T10:19:37Z</time></trkpt><trkpt lat="45.57051261750759" lon="10.80002539679459"><ele>197.0</ele><time>2026-03-28T10:19:38Z</time></trkpt><trkpt lat="45.57039955615154" lon="10.800068096411298"><ele>197.0</ele><time>2026-03-28T10:19:39Z</time></trkpt><trkpt lat="45.570289874938375" lon="10.800101256428944"><ele>197.0</ele><time>2026-03-28T10:19:40Z</time></trkpt><trkpt lat="45.570178070975984" lon="10.800118310762825"><ele>197.0</ele><time>2026-03-28T10:19:41Z</time></trkpt><trkpt lat="45.57008060908288" lon="10.800134160604339"><ele>197.0</ele><time>2026-03-28T10:19:42Z</time></trkpt><trkpt lat="45.56997821870632" lon="10.80016176342058"><ele>196.39999999999998</ele><time>2026-03-28T10:19:43Z</time></trkpt><trkpt lat="45.56989704699195" lon="10.800201631039418"><ele>195.79999999999998</ele><time>2026-03-28T10:19:44Z</time></trkpt><trkpt lat="45.569833732884426" lon="10.800250897801584"><ele>195.2</ele><time>2026-03-28T10:19:46Z</time></trkpt><trkpt lat="45.56984059704885" lon="10.800149876118715"><ele>194.6</ele><time>2026-03-28T10:19:49Z</time></trkpt><trkpt lat="45.5699539628402" lon="10.800046230004765"><ele>194.0</ele><time>2026-03-28T10:19:51Z</time></trkpt><trkpt lat="45.570064303960606" lon="10.800016122060974"><ele>194.0</ele><time>2026-03-28T10:19:52Z</time></trkpt><trkpt lat="45.570184602900405" lon="10.799992259692187"><ele>194.0</ele><time>2026-03-28T10:19:53Z</time></trkpt><trkpt lat="45.57028731305503" lon="10.799968601221286"><ele>194.0</ele><time>2026-03-28T10:19:54Z</time></trkpt><trkpt lat="45.57040082367137" lon="10.799936243585288"><ele>194.0</ele><time>2026-03-28T10:19:55Z</time></trkpt><trkpt lat="45.57050929500226" lon="10.799897314389566"><ele>194.75</ele><time>2026-03-28T10:19:56Z</time></trkpt><trkpt lat="45.57062971758001" lon="10.79982819563803"><ele>195.5</ele><time>2026-03-28T10:19:57Z</time></trkpt><trkpt lat="45.570734905570276" lon="10.79973820556695"><ele>196.25</ele><time>2026-03-28T10:19:58Z</time></trkpt><trkpt lat="45.57081762404776" lon="10.799644219623731"><ele>197.0</ele><time>2026-03-28T10:19:59Z</time></trkpt><trkpt lat="45.5709175519994" lon="10.79956836332735"><ele>197.0</ele><time>2026-03-28T10:20:00Z</time></trkpt><trkpt lat="45.571022456220824" lon="10.799528110084866"><ele>197.0</ele><time>2026-03-28T10:20:01Z</time></trkpt><trkpt lat="45.571137438964556" lon="10.799472114516846"><ele>197.0</ele><time>2026-03-28T10:20:02Z</time></trkpt><trkpt lat="45.571247803767406" lon="10.799383211499427"><ele>197.0</ele><time>2026-03-28T10:20:03Z</time></trkpt><trkpt lat="45.57136246438198" lon="10.799284846018134"><ele>198.0</ele><time>2026-03-28T10:20:04Z</time></trkpt><trkpt lat="45.57148465177042" lon="10.799190587310028"><ele>199.0</ele><time>2026-03-28T10:20:05Z</time></trkpt><trkpt lat="45.57160042819278" lon="10.799096019962425"><ele>200.0</ele><time>2026-03-28T10:20:06Z</time></trkpt><trkpt lat="45.57172553514208" lon="10.799007269372135"><ele>201.0</ele><time>2026-03-28T10:20:07Z</time></trkpt><trkpt lat="45.57185327534966" lon="10.798910911424974"><ele>201.0</ele><time>2026-03-28T10:20:08Z</time></trkpt><trkpt lat="45.57197243585814" lon="10.798826999185437"><ele>201.0</ele><time>2026-03-28T10:20:09Z</time></trkpt><trkpt lat="45.57207987874458" lon="10.798739766059215"><ele>201.0</ele><time>2026-03-28T10:20:10Z</time></trkpt><trkpt lat="45.572163252985554" lon="10.7986473087311"><ele>201.0</ele><time>2026-03-28T10:20:11Z</time></trkpt><trkpt lat="45.57226825238915" lon="10.798560792697574"><ele>202.25</ele><time>2026-03-28T10:20:12Z</time></trkpt><trkpt lat="45.572394240551894" lon="10.798481524818113"><ele>203.5</ele><time>2026-03-28T10:20:13Z</time></trkpt><trkpt lat="45.572521737655" lon="10.798403385286052"><ele>204.75</ele><time>2026-03-28T10:20:14Z</time></trkpt><trkpt lat="45.57265309228672" lon="10.79831214610636"><ele>206.0</ele><time>2026-03-28T10:20:15Z</time></trkpt><trkpt lat="45.57278040284204" lon="10.798221808432531"><ele>205.25</ele><time>2026-03-28T10:20:16Z</time></trkpt><trkpt lat="45.57291119163069" lon="10.798151279779763"><ele>204.5</ele><time>2026-03-28T10:20:17Z</time></trkpt><trkpt lat="45.573052531880606" lon="10.798094567129944"><ele>203.75</ele><time>2026-03-28T10:20:18Z</time></trkpt><trkpt lat="45.573197373819" lon="10.798038088825297"><ele>203.0</ele><time>2026-03-28T10:20:19Z</time></trkpt><trkpt lat="45.57333365572193" lon="10.797977371502375"><ele>203.0</ele><time>2026-03-28T10:20:20Z</time></trkpt><trkpt lat="45.573468353005914" lon="10.797920679459049"><ele>203.0</ele><time>2026-03-28T10:20:21Z</time></trkpt><trkpt lat="45.573613486798514" lon="10.79785962594662"><ele>203.0</ele><time>2026-03-28T10:20:22Z</time></trkpt><trkpt lat="45.57374152203204" lon="10.797803380789079"><ele>203.0</ele><time>2026-03-28T10:20:23Z</time></trkpt><trkpt lat="45.573873023596214" lon="10.797748371755537"><ele>201.75</ele><time>2026-03-28T10:20:24Z</time></trkpt><trkpt lat="45.574003223322535" lon="10.797687291706378"><ele>200.5</ele><time>2026-03-28T10:20:25Z</time></trkpt><trkpt lat="45.574114997379496" lon="10.797616425677584"><ele>199.25</ele><time>2026-03-28T10:20:26Z</time></trkpt><trkpt lat="45.574228939436814" lon="10.797537887411496"><ele>198.0</ele><time>2026-03-28T10:20:27Z</time></trkpt><trkpt lat="45.57433257436203" lon="10.797449331012807"><ele>198.5</ele><time>2026-03-28T10:20:28Z</time></trkpt><trkpt lat="45.57442619330383" lon="10.79733916138574"><ele>199.0</ele><time>2026-03-28T10:20:29Z</time></trkpt><trkpt lat="45.574516246844766" lon="10.797194974498506"><ele>199.5</ele><time>2026-03-28T10:20:30Z</time></trkpt><trkpt lat="45.574608854479685" lon="10.797039559379572"><ele>200.0</ele><time>2026-03-28T10:20:31Z</time></trkpt><trkpt lat="45.574713512142615" lon="10.796918676809524"><ele>202.75</ele><time>2026-03-28T10:20:32Z</time></trkpt><trkpt lat="45.57483029455605" lon="10.79682740857758"><ele>205.5</ele><time>2026-03-28T10:20:33Z</time></trkpt><trkpt lat="45.57495969683905" lon="10.796740449983247"><ele>208.25</ele><time>2026-03-28T10:20:34Z</time></trkpt><trkpt lat="45.57509074380529" lon="10.796645452163967"><ele>211.0</ele><time>2026-03-28T10:20:35Z</time></trkpt><trkpt lat="45.57520964610838" lon="10.796535784548418"><ele>211.0</ele><time>2026-03-28T10:20:36Z</time></trkpt><trkpt lat="45.57531750879004" lon="10.796429102412928"><ele>211.0</ele><time>2026-03-28T10:20:37Z</time></trkpt><trkpt lat="45.57541798841314" lon="10.796309879355947"><ele>211.0</ele><time>2026-03-28T10:20:38Z</time></trkpt><trkpt lat="45.57550339141432" lon="10.796181014242565"><ele>211.0</ele><time>2026-03-28T10:20:39Z</time></trkpt><trkpt lat="45.57558788506378" lon="10.796059538862044"><ele>209.25</ele><time>2026-03-28T10:20:40Z</time></trkpt><trkpt lat="45.575679235841314" lon="10.795921994595332"><ele>207.5</ele><time>2026-03-28T10:20:41Z</time></trkpt><trkpt lat="45.57576772298502" lon="10.795764346825772"><ele>205.75</ele><time>2026-03-28T10:20:42Z</time></trkpt><trkpt lat="45.575855982743775" lon="10.795611520768425"><ele>204.0</ele><time>2026-03-28T10:20:43Z</time></trkpt><trkpt lat="45.57592819582213" lon="10.795466016282202"><ele>204.0</ele><time>2026-03-28T10:20:44Z</time></trkpt><trkpt lat="45.57601731028064" lon="10.795346727374836"><ele>204.0</ele><time>2026-03-28T10:20:45Z</time></trkpt><trkpt lat="45.57611444897223" lon="10.795254145795687"><ele>204.0</ele><time>2026-03-28T10:20:46Z</time></trkpt><trkpt lat="45.57620936202567" lon="10.795179077359087"><ele>204.0</ele><time>2026-03-28T10:20:47Z</time></trkpt><trkpt lat="45.576288588546284" lon="10.795133288670295"><ele>204.0</ele><time>2026-03-28T10:20:48Z</time></trkpt><trkpt lat="45.57638976604999" lon="10.795118640168344"><ele>203.5</ele><time>2026-03-28T10:20:50Z</time></trkpt><trkpt lat="45.57648039129293" lon="10.795179227205779"><ele>203.0</ele><time>2026-03-28T10:20:52Z</time></trkpt><trkpt lat="45.57651241889345" lon="10.794956810541375"><ele>202.5</ele><time>2026-03-28T10:20:55Z</time></trkpt><trkpt lat="45.576504682027874" lon="10.794826695777733"><ele>202.0</ele><time>2026-03-28T10:20:56Z</time></trkpt><trkpt lat="45.57649494730756" lon="10.794676307863368"><ele>202.0</ele><time>2026-03-28T10:20:57Z</time></trkpt><trkpt lat="45.57649120768218" lon="10.794506889281152"><ele>202.0</ele><time>2026-03-28T10:20:58Z</time></trkpt><trkpt lat="45.576528001224155" lon="10.794316647795128"><ele>202.0</ele><time>2026-03-28T10:20:59Z</time></trkpt><trkpt lat="45.576534399768995" lon="10.794100179383568"><ele>202.0</ele><time>2026-03-28T10:21:00Z</time></trkpt><trkpt lat="45.57654221031781" lon="10.793835941647803"><ele>202.0</ele><time>2026-03-28T10:21:01Z</time></trkpt><trkpt lat="45.57655194792966" lon="10.793506509762018"><ele>202.0</ele><time>2026-03-28T10:21:01.999Z</time></trkpt><trkpt lat="45.57654349222681" lon="10.793172113941191"><ele>202.0</ele><time>2026-03-28T10:21:02.999Z</time></trkpt><trkpt lat="45.576558125100966" lon="10.792805898305232"><ele>202.0</ele><time>2026-03-28T10:21:03.999Z</time></trkpt><trkpt lat="45.576566093246484" lon="10.792471460450397"><ele>202.0</ele><time>2026-03-28T10:21:04.999Z</time></trkpt><trkpt lat="45.57657757749506" lon="10.792170738990846"><ele>202.0</ele><time>2026-03-28T10:21:05.999Z</time></trkpt><trkpt lat="45.57661150881973" lon="10.791906967804954"><ele>202.0</ele><time>2026-03-28T10:21:06.999Z</time></trkpt><trkpt lat="45.576588718511196" lon="10.791690741346946"><ele>202.0</ele><time>2026-03-28T10:21:07.999Z</time></trkpt><trkpt lat="45.57652129573585" lon="10.791487151375225"><ele>202.0</ele><time>2026-03-28T10:21:08.999Z</time></trkpt><trkpt lat="45.57645933654102" lon="10.791283272930736"><ele>202.0</ele><time>2026-03-28T10:21:09.999Z</time></trkpt><trkpt lat="45.576374211851885" lon="10.7911020747464"><ele>203.0</ele><time>2026-03-28T10:21:10.999Z</time></trkpt><trkpt lat="45.57625549727601" lon="10.790931432508856"><ele>204.0</ele><time>2026-03-28T10:21:11.999Z</time></trkpt><trkpt lat="45.57614876147262" lon="10.790775832747162"><ele>205.0</ele><time>2026-03-28T10:21:12.999Z</time></trkpt><trkpt lat="45.57606624258634" lon="10.79061768882608"><ele>205.0</ele><time>2026-03-28T10:21:13.999Z</time></trkpt><trkpt lat="45.57599802369778" lon="10.790471836021469"><ele>205.0</ele><time>2026-03-28T10:21:14.999Z</time></trkpt><trkpt lat="45.57593174765888" lon="10.790321424443126"><ele>205.0</ele><time>2026-03-28T10:21:15.999Z</time></trkpt><trkpt lat="45.575867365522036" lon="10.790175311242924"><ele>205.0</ele><time>2026-03-28T10:21:16.999Z</time></trkpt><trkpt lat="45.575805422917824" lon="10.790023660317502"><ele>206.0</ele><time>2026-03-28T10:21:17.999Z</time></trkpt><trkpt lat="45.575742384547155" lon="10.789873345647129"><ele>207.0</ele><time>2026-03-28T10:21:18.999Z</time></trkpt><trkpt lat="45.57568080140767" lon="10.78972650097406"><ele>208.0</ele><time>2026-03-28T10:21:19.999Z</time></trkpt><trkpt lat="45.57562063159481" lon="10.789582756089937"><ele>209.0</ele><time>2026-03-28T10:21:20.999Z</time></trkpt><trkpt lat="45.575565437009516" lon="10.789439677040342"><ele>211.75</ele><time>2026-03-28T10:21:21.999Z</time></trkpt><trkpt lat="45.57551827522643" lon="10.789285274197681"><ele>214.5</ele><time>2026-03-28T10:21:22.999Z</time></trkpt><trkpt lat="45.575477675904935" lon="10.789106749310145"><ele>217.25</ele><time>2026-03-28T10:21:23.999Z</time></trkpt><trkpt lat="45.57545115904565" lon="10.788914151007935"><ele>220.0</ele><time>2026-03-28T10:21:24.999Z</time></trkpt><trkpt lat="45.57543131266117" lon="10.788710984530363"><ele>219.66666666666666</ele><time>2026-03-28T10:21:25.999Z</time></trkpt><trkpt lat="45.57544491437665" lon="10.788490619500598"><ele>219.33333333333331</ele><time>2026-03-28T10:21:26.999Z</time></trkpt><trkpt lat="45.575452299344185" lon="10.788266271183316"><ele>219.0</ele><time>2026-03-28T10:21:27.999Z</time></trkpt><trkpt lat="45.57544568833129" lon="10.788021260123108"><ele>219.0</ele><time>2026-03-28T10:21:28.999Z</time></trkpt><trkpt lat="45.57547659985258" lon="10.787774663185093"><ele>219.0</ele><time>2026-03-28T10:21:30Z</time></trkpt><trkpt lat="45.57550292932782" lon="10.787523291182868"><ele>219.0</ele><time>2026-03-28T10:21:31Z</time></trkpt><trkpt lat="45.57553726874637" lon="10.78725883200877"><ele>219.0</ele><time>2026-03-28T10:21:32Z</time></trkpt><trkpt lat="45.57557069085544" lon="10.78700626277428"><ele>219.0</ele><time>2026-03-28T10:21:33Z</time></trkpt><trkpt lat="45.57560457830635" lon="10.786750865992724"><ele>219.0</ele><time>2026-03-28T10:21:34Z</time></trkpt><trkpt lat="45.575635170705084" lon="10.786485445847584"><ele>219.0</ele><time>2026-03-28T10:21:35Z</time></trkpt><trkpt lat="45.575658844258584" lon="10.786229646333425"><ele>219.0</ele><time>2026-03-28T10:21:36Z</time></trkpt><trkpt lat="45.57564988995222" lon="10.785957964889404"><ele>219.0</ele><time>2026-03-28T10:21:37Z</time></trkpt><trkpt lat="45.57563321199434" lon="10.785700087353876"><ele>220.66666666666669</ele><time>2026-03-28T10:21:38Z</time></trkpt><trkpt lat="45.57560850772227" lon="10.785445155675571"><ele>222.33333333333334</ele><time>2026-03-28T10:21:39Z</time></trkpt><trkpt lat="45.575579553986465" lon="10.785186535034525"><ele>224.0</ele><time>2026-03-28T10:21:40Z</time></trkpt><trkpt lat="45.575550675738064" lon="10.784938245208517"><ele>226.33333333333334</ele><time>2026-03-28T10:21:41Z</time></trkpt><trkpt lat="45.575519042008764" lon="10.784697378588149"><ele>228.66666666666669</ele><time>2026-03-28T10:21:42Z</time></trkpt><trkpt lat="45.57548254309457" lon="10.784438841212173"><ele>231.0</ele><time>2026-03-28T10:21:43Z</time></trkpt><trkpt lat="45.57544428177359" lon="10.78419049071887"><ele>233.33333333333331</ele><time>2026-03-28T10:21:44Z</time></trkpt><trkpt lat="45.575404418523924" lon="10.783945461933826"><ele>235.66666666666666</ele><time>2026-03-28T10:21:45Z</time></trkpt><trkpt lat="45.57536444573592" lon="10.783699759859934"><ele>238.0</ele><time>2026-03-28T10:21:46Z</time></trkpt><trkpt lat="45.57532982630195" lon="10.783455425849665"><ele>233.0</ele><time>2026-03-28T10:21:47Z</time></trkpt><trkpt lat="45.57531495104257" lon="10.783213819156813"><ele>228.0</ele><time>2026-03-28T10:21:48Z</time></trkpt><trkpt lat="45.57530686604396" lon="10.7829655736209"><ele>223.0</ele><time>2026-03-28T10:21:49Z</time></trkpt><trkpt lat="45.57529894468492" lon="10.782714450676917"><ele>224.33333333333331</ele><time>2026-03-28T10:21:50Z</time></trkpt><trkpt lat="45.57529090217398" lon="10.782461917954942"><ele>225.66666666666669</ele><time>2026-03-28T10:21:51Z</time></trkpt><trkpt lat="45.57528346974219" lon="10.782213187553156"><ele>227.0</ele><time>2026-03-28T10:21:52Z</time></trkpt><trkpt lat="45.57528084781672" lon="10.781965838659357"><ele>228.33333333333334</ele><time>2026-03-28T10:21:53Z</time></trkpt><trkpt lat="45.5753237129174" lon="10.781734568343174"><ele>229.66666666666669</ele><time>2026-03-28T10:21:54Z</time></trkpt><trkpt lat="45.57539393659406" lon="10.78152076296267"><ele>231.0</ele><time>2026-03-28T10:21:55Z</time></trkpt><trkpt lat="45.575485851014896" lon="10.781317402224245"><ele>234.33333333333331</ele><time>2026-03-28T10:21:56Z</time></trkpt><trkpt lat="45.575592964179805" lon="10.781111227586306"><ele>237.66666666666666</ele><time>2026-03-28T10:21:57Z</time></trkpt><trkpt lat="45.57565948785117" lon="10.780874162132244"><ele>241.0</ele><time>2026-03-28T10:21:58Z</time></trkpt><trkpt lat="45.57569796651263" lon="10.780623323827683"><ele>241.0</ele><time>2026-03-28T10:21:59Z</time></trkpt><trkpt lat="45.57569470662343" lon="10.780367768331072"><ele>241.0</ele><time>2026-03-28T10:22:00Z</time></trkpt><trkpt lat="45.57568376774491" lon="10.780124173472764"><ele>241.0</ele><time>2026-03-28T10:22:01Z</time></trkpt><trkpt lat="45.5756382866328" lon="10.779879358912131"><ele>238.33333333333331</ele><time>2026-03-28T10:22:02Z</time></trkpt><trkpt lat="45.57556731602065" lon="10.779642845133333"><ele>235.66666666666669</ele><time>2026-03-28T10:22:03Z</time></trkpt><trkpt lat="45.57546166499958" lon="10.779424633856797"><ele>233.0</ele><time>2026-03-28T10:22:04Z</time></trkpt><trkpt lat="45.57533413168834" lon="10.779216596956006"><ele>233.0</ele><time>2026-03-28T10:22:05Z</time></trkpt><trkpt lat="45.57519612545178" lon="10.779013869076095"><ele>233.0</ele><time>2026-03-28T10:22:06Z</time></trkpt><trkpt lat="45.57506674344943" lon="10.778790999792086"><ele>233.0</ele><time>2026-03-28T10:22:07Z</time></trkpt><trkpt lat="45.5749344415196" lon="10.778569995676223"><ele>229.33333333333334</ele><time>2026-03-28T10:22:08Z</time></trkpt><trkpt lat="45.574815316002045" lon="10.778332589671145"><ele>225.66666666666669</ele><time>2026-03-28T10:22:09Z</time></trkpt><trkpt lat="45.57469939092385" lon="10.778084630414183"><ele>222.0</ele><time>2026-03-28T10:22:10Z</time></trkpt><trkpt lat="45.574590381902325" lon="10.777829067573554"><ele>221.0</ele><time>2026-03-28T10:22:11Z</time></trkpt><trkpt lat="45.574483848384155" lon="10.777568366716817"><ele>220.0</ele><time>2026-03-28T10:22:12Z</time></trkpt><trkpt lat="45.57437742824619" lon="10.777310184511778"><ele>219.0</ele><time>2026-03-28T10:22:13Z</time></trkpt><trkpt lat="45.57427503054131" lon="10.777061761006436"><ele>219.33333333333331</ele><time>2026-03-28T10:22:14Z</time></trkpt><trkpt lat="45.574175153889044" lon="10.776814503318418"><ele>219.66666666666666</ele><time>2026-03-28T10:22:15Z</time></trkpt><trkpt lat="45.57407628152069" lon="10.77656275447253"><ele>220.0</ele><time>2026-03-28T10:22:16Z</time></trkpt><trkpt lat="45.57397936600218" lon="10.776310675685718"><ele>220.0</ele><time>2026-03-28T10:22:17Z</time></trkpt><trkpt lat="45.57388716256515" lon="10.776053634372373"><ele>220.0</ele><time>2026-03-28T10:22:18Z</time></trkpt><trkpt lat="45.573798319878634" lon="10.7757927713899"><ele>220.0</ele><time>2026-03-28T10:22:19Z</time></trkpt><trkpt lat="45.57371327079993" lon="10.775531348004627"><ele>219.66666666666666</ele><time>2026-03-28T10:22:20Z</time></trkpt><trkpt lat="45.57363319505044" lon="10.775262774248457"><ele>219.33333333333331</ele><time>2026-03-28T10:22:21Z</time></trkpt><trkpt lat="45.57356028505804" lon="10.774996294535269"><ele>219.0</ele><time>2026-03-28T10:22:22Z</time></trkpt><trkpt lat="45.57350519667765" lon="10.774750770727257"><ele>218.25</ele><time>2026-03-28T10:22:23Z</time></trkpt><trkpt lat="45.57346807842609" lon="10.774537136419934"><ele>217.5</ele><time>2026-03-28T10:22:24Z</time></trkpt><trkpt lat="45.573441970527576" lon="10.774344440019142"><ele>216.75</ele><time>2026-03-28T10:22:25Z</time></trkpt><trkpt lat="45.57342283953987" lon="10.774169084386932"><ele>216.0</ele><time>2026-03-28T10:22:26Z</time></trkpt><trkpt lat="45.573397909622166" lon="10.774008947296243"><ele>215.60000000000002</ele><time>2026-03-28T10:22:27Z</time></trkpt><trkpt lat="45.57339158540032" lon="10.773866099070696"><ele>215.20000000000002</ele><time>2026-03-28T10:22:28Z</time></trkpt><trkpt lat="45.573391024423394" lon="10.773725526466718"><ele>214.79999999999998</ele><time>2026-03-28T10:22:29Z</time></trkpt><trkpt lat="45.57338346312085" lon="10.773565306390553"><ele>214.39999999999998</ele><time>2026-03-28T10:22:30Z</time></trkpt><trkpt lat="45.57337223696627" lon="10.773380616295665"><ele>214.0</ele><time>2026-03-28T10:22:31Z</time></trkpt><trkpt lat="45.57336302843248" lon="10.773184159740051"><ele>214.0</ele><time>2026-03-28T10:22:32Z</time></trkpt><trkpt lat="45.573365004293926" lon="10.77299070967355"><ele>214.0</ele><time>2026-03-28T10:22:33Z</time></trkpt><trkpt lat="45.57337387464359" lon="10.772792024342966"><ele>214.0</ele><time>2026-03-28T10:22:34Z</time></trkpt><trkpt lat="45.57338070139201" lon="10.772596984162366"><ele>214.0</ele><time>2026-03-28T10:22:35Z</time></trkpt><trkpt lat="45.57339207143368" lon="10.772401462533006"><ele>213.75</ele><time>2026-03-28T10:22:36Z</time></trkpt><trkpt lat="45.57340883893775" lon="10.772195897021046"><ele>213.5</ele><time>2026-03-28T10:22:37Z</time></trkpt><trkpt lat="45.57342876554322" lon="10.771985166840224"><ele>213.25</ele><time>2026-03-28T10:22:38Z</time></trkpt><trkpt lat="45.57345260934822" lon="10.771771384279198"><ele>213.0</ele><time>2026-03-28T10:22:39Z</time></trkpt><trkpt lat="45.57347718855423" lon="10.771563055102567"><ele>212.33333333333331</ele><time>2026-03-28T10:22:40Z</time></trkpt><trkpt lat="45.573508493167374" lon="10.7713565480183"><ele>211.66666666666666</ele><time>2026-03-28T10:22:41Z</time></trkpt><trkpt lat="45.57353821288802" lon="10.771140674354578"><ele>211.0</ele><time>2026-03-28T10:22:42Z</time></trkpt><trkpt lat="45.57357061629311" lon="10.770914134910564"><ele>210.66666666666666</ele><time>2026-03-28T10:22:43Z</time></trkpt><trkpt lat="45.57362112055844" lon="10.77067831206187"><ele>210.33333333333331</ele><time>2026-03-28T10:22:44Z</time></trkpt><trkpt lat="45.573644415338165" lon="10.770440709370689"><ele>210.0</ele><time>2026-03-28T10:22:44.999Z</time></trkpt><trkpt lat="45.57364648596083" lon="10.770197785826863"><ele>209.66666666666669</ele><time>2026-03-28T10:22:45.999Z</time></trkpt><trkpt lat="45.573645231170495" lon="10.769955504507083"><ele>209.33333333333334</ele><time>2026-03-28T10:22:46.999Z</time></trkpt><trkpt lat="45.57363178448096" lon="10.769714743096555"><ele>209.0</ele><time>2026-03-28T10:22:47.999Z</time></trkpt><trkpt lat="45.57364977871995" lon="10.76947572851762"><ele>208.66666666666669</ele><time>2026-03-28T10:22:48.999Z</time></trkpt><trkpt lat="45.57365839766448" lon="10.769244924524498"><ele>208.33333333333331</ele><time>2026-03-28T10:22:49.999Z</time></trkpt><trkpt lat="45.57366812455221" lon="10.769010445455267"><ele>208.0</ele><time>2026-03-28T10:22:50.999Z</time></trkpt><trkpt lat="45.573673609967145" lon="10.768765314522275"><ele>207.33333333333331</ele><time>2026-03-28T10:22:51.999Z</time></trkpt><trkpt lat="45.57365882967355" lon="10.76852102736927"><ele>206.66666666666669</ele><time>2026-03-28T10:22:52.999Z</time></trkpt><trkpt lat="45.57365248153643" lon="10.768291326608315"><ele>206.0</ele><time>2026-03-28T10:22:53.999Z</time></trkpt><trkpt lat="45.573661117637144" lon="10.76806606363374"><ele>206.0</ele><time>2026-03-28T10:22:54.999Z</time></trkpt><trkpt lat="45.57365446802883" lon="10.76784713696105"><ele>206.0</ele><time>2026-03-28T10:22:55.999Z</time></trkpt><trkpt lat="45.57365212884856" lon="10.767628565427344"><ele>206.0</ele><time>2026-03-28T10:22:56.999Z</time></trkpt><trkpt lat="45.57365368211242" lon="10.767416567168958"><ele>205.75</ele><time>2026-03-28T10:22:57.999Z</time></trkpt><trkpt lat="45.573657935524686" lon="10.76720682480245"><ele>205.5</ele><time>2026-03-28T10:22:58.999Z</time></trkpt><trkpt lat="45.573667157832475" lon="10.767013986624669"><ele>205.25</ele><time>2026-03-28T10:22:59.999Z</time></trkpt><trkpt lat="45.57367729898396" lon="10.766832084537626"><ele>205.0</ele><time>2026-03-28T10:23:00.999Z</time></trkpt><trkpt lat="45.57368718943021" lon="10.76666934812532"><ele>205.0</ele><time>2026-03-28T10:23:01.999Z</time></trkpt><trkpt lat="45.57369667314939" lon="10.766507669964362"><ele>205.0</ele><time>2026-03-28T10:23:02.999Z</time></trkpt><trkpt lat="45.57368664543079" lon="10.766347403336182"><ele>205.0</ele><time>2026-03-28T10:23:03.999Z</time></trkpt><trkpt lat="45.573705929489094" lon="10.766195211265257"><ele>205.0</ele><time>2026-03-28T10:23:04.999Z</time></trkpt><trkpt lat="45.57370236109094" lon="10.766047337110528"><ele>205.0</ele><time>2026-03-28T10:23:05.999Z</time></trkpt><trkpt lat="45.573689103501934" lon="10.765884176010056"><ele>205.0</ele><time>2026-03-28T10:23:06.999Z</time></trkpt><trkpt lat="45.573658799349666" lon="10.765710186936879"><ele>205.0</ele><time>2026-03-28T10:23:07.999Z</time></trkpt><trkpt lat="45.57361369386657" lon="10.765542103714422"><ele>205.0</ele><time>2026-03-28T10:23:08.999Z</time></trkpt><trkpt lat="45.573543542120674" lon="10.765351253146177"><ele>205.0</ele><time>2026-03-28T10:23:09.999Z</time></trkpt><trkpt lat="45.573453444020025" lon="10.765156730829569"><ele>205.66666666666666</ele><time>2026-03-28T10:23:10.999Z</time></trkpt><trkpt lat="45.57335180472225" lon="10.764964491035181"><ele>206.33333333333331</ele><time>2026-03-28T10:23:11.999Z</time></trkpt><trkpt lat="45.573254612996564" lon="10.76478624402015"><ele>207.0</ele><time>2026-03-28T10:23:12.999Z</time></trkpt><trkpt lat="45.573161779294374" lon="10.76460957455482"><ele>207.0</ele><time>2026-03-28T10:23:13.999Z</time></trkpt><trkpt lat="45.57308328880637" lon="10.764423358936217"><ele>207.0</ele><time>2026-03-28T10:23:14.999Z</time></trkpt><trkpt lat="45.573050070325245" lon="10.764216002629183"><ele>207.0</ele><time>2026-03-28T10:23:15.999Z</time></trkpt><trkpt lat="45.57301835461772" lon="10.763999720280076"><ele>206.66666666666669</ele><time>2026-03-28T10:23:16.999Z</time></trkpt><trkpt lat="45.57298511216733" lon="10.763773370673135"><ele>206.33333333333334</ele><time>2026-03-28T10:23:17.999Z</time></trkpt><trkpt lat="45.57295235473155" lon="10.763535089843755"><ele>206.0</ele><time>2026-03-28T10:23:18.999Z</time></trkpt><trkpt lat="45.57291976396273" lon="10.763298021381507"><ele>205.33333333333334</ele><time>2026-03-28T10:23:19.999Z</time></trkpt><trkpt lat="45.57288603650015" lon="10.763052684489265"><ele>204.66666666666669</ele><time>2026-03-28T10:23:20.999Z</time></trkpt><trkpt lat="45.57285105405072" lon="10.762805755287427"><ele>204.0</ele><time>2026-03-28T10:23:21.999Z</time></trkpt><trkpt lat="45.57281731955591" lon="10.762575011900656"><ele>203.5</ele><time>2026-03-28T10:23:22.999Z</time></trkpt><trkpt lat="45.572782388962246" lon="10.762367279053025"><ele>203.0</ele><time>2026-03-28T10:23:23.999Z</time></trkpt><trkpt lat="45.57275230512051" lon="10.762188690052367"><ele>202.5</ele><time>2026-03-28T10:23:24.999Z</time></trkpt><trkpt lat="45.572725106932985" lon="10.762027231379854"><ele>202.0</ele><time>2026-03-28T10:23:25.999Z</time></trkpt><trkpt lat="45.57269759281656" lon="10.761864399906843"><ele>202.0</ele><time>2026-03-28T10:23:26.999Z</time></trkpt><trkpt lat="45.57266888662029" lon="10.761685386729575"><ele>202.0</ele><time>2026-03-28T10:23:27.999Z</time></trkpt><trkpt lat="45.57263810331909" lon="10.761493420612114"><ele>202.0</ele><time>2026-03-28T10:23:28.999Z</time></trkpt><trkpt lat="45.57261211623053" lon="10.761331363872603"><ele>202.0</ele><time>2026-03-28T10:23:29.999Z</time></trkpt><trkpt lat="45.57259175664329" lon="10.761204400550485"><ele>202.0</ele><time>2026-03-28T10:23:30.999Z</time></trkpt><trkpt lat="45.57257179383837" lon="10.761079911555116"><ele>202.0</ele><time>2026-03-28T10:23:31.999Z</time></trkpt><trkpt lat="45.57254948157888" lon="10.760940771269484"><ele>202.0</ele><time>2026-03-28T10:23:32.999Z</time></trkpt><trkpt lat="45.57252429214204" lon="10.760783688754934"><ele>202.0</ele><time>2026-03-28T10:23:33.999Z</time></trkpt><trkpt lat="45.57249739581461" lon="10.76061596226886"><ele>202.0</ele><time>2026-03-28T10:23:34.999Z</time></trkpt><trkpt lat="45.572467454966485" lon="10.760435599887732"><ele>202.0</ele><time>2026-03-28T10:23:36Z</time></trkpt><trkpt lat="45.572436086184844" lon="10.760251426744217"><ele>202.0</ele><time>2026-03-28T10:23:37Z</time></trkpt><trkpt lat="45.57240871053416" lon="10.760090698168913"><ele>202.0</ele><time>2026-03-28T10:23:38Z</time></trkpt><trkpt lat="45.572381757805005" lon="10.759932452637676"><ele>202.0</ele><time>2026-03-28T10:23:39Z</time></trkpt><trkpt lat="45.57235449167052" lon="10.759772367058599"><ele>202.0</ele><time>2026-03-28T10:23:40Z</time></trkpt><trkpt lat="45.572329466935415" lon="10.759625441218427"><ele>202.0</ele><time>2026-03-28T10:23:41Z</time></trkpt><trkpt lat="45.57230486576089" lon="10.75948100221869"><ele>202.0</ele><time>2026-03-28T10:23:42Z</time></trkpt><trkpt lat="45.572278111261895" lon="10.75932242589941"><ele>202.0</ele><time>2026-03-28T10:23:43Z</time></trkpt><trkpt lat="45.572252745616076" lon="10.759171541207001"><ele>202.0</ele><time>2026-03-28T10:23:44Z</time></trkpt><trkpt lat="45.572230903626505" lon="10.759044654880434"><ele>202.33333333333331</ele><time>2026-03-28T10:23:45Z</time></trkpt><trkpt lat="45.572211500795866" lon="10.758942257622637"><ele>202.66666666666666</ele><time>2026-03-28T10:23:46Z</time></trkpt><trkpt lat="45.57219254985124" lon="10.758847273561644"><ele>203.0</ele><time>2026-03-28T10:23:47Z</time></trkpt><trkpt lat="45.5721709945587" lon="10.758753229778845"><ele>203.33333333333331</ele><time>2026-03-28T10:23:50Z</time></trkpt><trkpt lat="45.57215847567472" lon="10.75860031309635"><ele>203.66666666666666</ele><time>2026-03-28T10:23:52Z</time></trkpt><trkpt lat="45.57216893678488" lon="10.758417338279534"><ele>204.0</ele><time>2026-03-28T10:23:54Z</time></trkpt><trkpt lat="45.57213122033652" lon="10.758333679629347"><ele>204.0</ele><time>2026-03-28T10:23:55Z</time></trkpt><trkpt lat="45.57207625199475" lon="10.758281819182152"><ele>204.0</ele><time>2026-03-28T10:23:56Z</time></trkpt><trkpt lat="45.572009530669106" lon="10.758265054221397"><ele>204.0</ele><time>2026-03-28T10:23:57Z</time></trkpt><trkpt lat="45.57192819231855" lon="10.758361884342058"><ele>204.0</ele><time>2026-03-28T10:23:58Z</time></trkpt><trkpt lat="45.571865435085996" lon="10.758488877676644"><ele>204.0</ele><time>2026-03-28T10:23:59Z</time></trkpt><trkpt lat="45.571754632111926" lon="10.75859335921636"><ele>204.0</ele><time>2026-03-28T10:24:00Z</time></trkpt><trkpt lat="45.57163100144942" lon="10.758733186810598"><ele>204.0</ele><time>2026-03-28T10:24:01Z</time></trkpt><trkpt lat="45.5715059537566" lon="10.758803786288922"><ele>204.0</ele><time>2026-03-28T10:24:02Z</time></trkpt><trkpt lat="45.571420416589596" lon="10.758873293970254"><ele>204.0</ele><time>2026-03-28T10:24:03Z</time></trkpt><trkpt lat="45.571332445511636" lon="10.758941796060816"><ele>204.0</ele><time>2026-03-28T10:24:04Z</time></trkpt><trkpt lat="45.57124064374783" lon="10.759013705843296"><ele>204.0</ele><time>2026-03-28T10:24:05Z</time></trkpt><trkpt lat="45.57114770601677" lon="10.75909115946587"><ele>204.0</ele><time>2026-03-28T10:24:06Z</time></trkpt><trkpt lat="45.57105054993835" lon="10.75917167060737"><ele>204.0</ele><time>2026-03-28T10:24:07Z</time></trkpt><trkpt lat="45.57095904880286" lon="10.75924305888783"><ele>204.0</ele><time>2026-03-28T10:24:08Z</time></trkpt><trkpt lat="45.570859616834895" lon="10.759322671593987"><ele>203.75</ele><time>2026-03-28T10:24:09Z</time></trkpt><trkpt lat="45.570729234131015" lon="10.759436437619692"><ele>203.5</ele><time>2026-03-28T10:24:10Z</time></trkpt><trkpt lat="45.57059005636838" lon="10.759551776787134"><ele>203.25</ele><time>2026-03-28T10:24:11Z</time></trkpt><trkpt lat="45.57047449355162" lon="10.759633197483563"><ele>203.0</ele><time>2026-03-28T10:24:12Z</time></trkpt><trkpt lat="45.57037012186805" lon="10.75971068758532"><ele>202.75</ele><time>2026-03-28T10:24:13Z</time></trkpt><trkpt lat="45.5702676691591" lon="10.759796373943637"><ele>202.5</ele><time>2026-03-28T10:24:14Z</time></trkpt><trkpt lat="45.570156543707334" lon="10.759889903621751"><ele>202.25</ele><time>2026-03-28T10:24:15Z</time></trkpt><trkpt lat="45.57003824291484" lon="10.759984256125792"><ele>202.0</ele><time>2026-03-28T10:24:16Z</time></trkpt><trkpt lat="45.56991501212882" lon="10.760075058647876"><ele>202.0</ele><time>2026-03-28T10:24:17Z</time></trkpt><trkpt lat="45.56979547559466" lon="10.760170496085093"><ele>202.0</ele><time>2026-03-28T10:24:18Z</time></trkpt><trkpt lat="45.56969118194991" lon="10.760251516467122"><ele>202.0</ele><time>2026-03-28T10:24:19Z</time></trkpt><trkpt lat="45.56959965478781" lon="10.760308779372554"><ele>202.0</ele><time>2026-03-28T10:24:20Z</time></trkpt><trkpt lat="45.569521915273185" lon="10.760369763164213"><ele>202.0</ele><time>2026-03-28T10:24:21Z</time></trkpt><trkpt lat="45.56944533052523" lon="10.76042984108491"><ele>202.0</ele><time>2026-03-28T10:24:22Z</time></trkpt><trkpt lat="45.569372531359704" lon="10.76048694935715"><ele>202.0</ele><time>2026-03-28T10:24:23Z</time></trkpt><trkpt lat="45.569287595120095" lon="10.760553578718701"><ele>202.0</ele><time>2026-03-28T10:24:25Z</time></trkpt><trkpt lat="45.5693828596209" lon="10.760740410969902"><ele>202.0</ele><time>2026-03-28T10:24:28Z</time></trkpt><trkpt lat="45.56952457688206" lon="10.760623168200443"><ele>201.99999999999997</ele><time>2026-03-28T10:24:36Z</time></trkpt><trkpt lat="45.56959903785461" lon="10.760502409533393"><ele>202.0</ele><time>2026-03-28T10:27:53.001Z</time></trkpt><trkpt lat="45.569632402671196" lon="10.760424667379361"><ele>202.0</ele><time>2026-03-28T10:27:54.001Z</time></trkpt><trkpt lat="45.56968100300673" lon="10.760338306605808"><ele>202.0</ele><time>2026-03-28T10:27:55.001Z</time></trkpt><trkpt lat="45.56973951197722" lon="10.76024441397558"><ele>201.99999999999997</ele><time>2026-03-28T10:27:56.001Z</time></trkpt><trkpt lat="45.569819695552866" lon="10.760166773308125"><ele>202.0</ele><time>2026-03-28T10:27:57.001Z</time></trkpt><trkpt lat="45.56991736094785" lon="10.760092261387896"><ele>202.0</ele><time>2026-03-28T10:27:58.001Z</time></trkpt><trkpt lat="45.570007102843206" lon="10.760019609770664"><ele>202.0</ele><time>2026-03-28T10:27:59.001Z</time></trkpt><trkpt lat="45.57007774522853" lon="10.759963846126189"><ele>202.0</ele><time>2026-03-28T10:28:00.001Z</time></trkpt><trkpt lat="45.57019469028964" lon="10.759870892224802"><ele>202.0</ele><time>2026-03-28T10:28:02.001Z</time></trkpt><trkpt lat="45.57027710597804" lon="10.759805723005902"><ele>202.0</ele><time>2026-03-28T10:28:03.001Z</time></trkpt><trkpt lat="45.57036284994518" lon="10.759744160246774"><ele>202.2</ele><time>2026-03-28T10:28:04.001Z</time></trkpt><trkpt lat="45.57042424957176" lon="10.759695284564144"><ele>202.39999999999998</ele><time>2026-03-28T10:28:05.001Z</time></trkpt><trkpt lat="45.57048341866259" lon="10.759644826947277"><ele>202.60000000000002</ele><time>2026-03-28T10:28:06.001Z</time></trkpt><trkpt lat="45.57058991932543" lon="10.759579671970544"><ele>202.8</ele><time>2026-03-28T10:28:07.001Z</time></trkpt><trkpt lat="45.57071466638284" lon="10.75946641595786"><ele>203.0</ele><time>2026-03-28T10:28:08.001Z</time></trkpt><trkpt lat="45.57083138515187" lon="10.759376177940814"><ele>203.2</ele><time>2026-03-28T10:28:09.001Z</time></trkpt><trkpt lat="45.570923739508544" lon="10.759298193041307"><ele>203.4</ele><time>2026-03-28T10:28:10.001Z</time></trkpt><trkpt lat="45.571022414742444" lon="10.759220637625459"><ele>203.6</ele><time>2026-03-28T10:28:11Z</time></trkpt><trkpt lat="45.57111834690896" lon="10.759147319432934"><ele>203.79999999999998</ele><time>2026-03-28T10:28:12Z</time></trkpt><trkpt lat="45.57121102508332" lon="10.759074817575423"><ele>204.0</ele><time>2026-03-28T10:28:13Z</time></trkpt><trkpt lat="45.57130364952093" lon="10.759000879070252"><ele>204.0</ele><time>2026-03-28T10:28:14Z</time></trkpt><trkpt lat="45.57139462902517" lon="10.758926888651974"><ele>204.0</ele><time>2026-03-28T10:28:15Z</time></trkpt><trkpt lat="45.5714742969883" lon="10.758859879556743"><ele>204.0</ele><time>2026-03-28T10:28:16Z</time></trkpt><trkpt lat="45.57154511890994" lon="10.758798219450556"><ele>204.0</ele><time>2026-03-28T10:28:17Z</time></trkpt><trkpt lat="45.5716192711621" lon="10.75874567409745"><ele>204.0</ele><time>2026-03-28T10:28:18Z</time></trkpt><trkpt lat="45.57168897815452" lon="10.758698910343194"><ele>204.0</ele><time>2026-03-28T10:28:19Z</time></trkpt><trkpt lat="45.57174904090217" lon="10.75866566661455"><ele>204.0</ele><time>2026-03-28T10:28:20Z</time></trkpt><trkpt lat="45.571860302882804" lon="10.75862072689969"><ele>204.0</ele><time>2026-03-28T10:28:22Z</time></trkpt><trkpt lat="45.57192656980393" lon="10.758618474842846"><ele>204.0</ele><time>2026-03-28T10:28:23Z</time></trkpt><trkpt lat="45.571996391728774" lon="10.758618750598414"><ele>204.0</ele><time>2026-03-28T10:28:24Z</time></trkpt><trkpt lat="45.572060108532305" lon="10.758641350503169"><ele>204.0</ele><time>2026-03-28T10:28:25Z</time></trkpt><trkpt lat="45.572186738194574" lon="10.75855903143713"><ele>204.5</ele><time>2026-03-28T10:28:27Z</time></trkpt><trkpt lat="45.572217827663465" lon="10.758444807703183"><ele>205.0</ele><time>2026-03-28T10:28:28Z</time></trkpt><trkpt lat="45.57227518764781" lon="10.758372755375795"><ele>205.5</ele><time>2026-03-28T10:28:29Z</time></trkpt><trkpt lat="45.57234253754653" lon="10.758320251934713"><ele>206.0</ele><time>2026-03-28T10:28:30Z</time></trkpt><trkpt lat="45.57240536527295" lon="10.75827754675883"><ele>206.5</ele><time>2026-03-28T10:28:31Z</time></trkpt><trkpt lat="45.57247750496253" lon="10.758251108700394"><ele>207.0</ele><time>2026-03-28T10:28:32Z</time></trkpt><trkpt lat="45.57255754976235" lon="10.758227987722936"><ele>207.0</ele><time>2026-03-28T10:28:33Z</time></trkpt><trkpt lat="45.57265385211261" lon="10.758192698117432"><ele>207.0</ele><time>2026-03-28T10:28:34Z</time></trkpt><trkpt lat="45.57275878805595" lon="10.758152313909639"><ele>207.0</ele><time>2026-03-28T10:28:35Z</time></trkpt><trkpt lat="45.572864634404404" lon="10.758115514386573"><ele>207.0</ele><time>2026-03-28T10:28:36Z</time></trkpt><trkpt lat="45.57296811992265" lon="10.758084723210848"><ele>207.0</ele><time>2026-03-28T10:28:37Z</time></trkpt><trkpt lat="45.5730817524406" lon="10.758046344381444"><ele>206.75</ele><time>2026-03-28T10:28:38Z</time></trkpt><trkpt lat="45.57318788170373" lon="10.758016757744272"><ele>206.5</ele><time>2026-03-28T10:28:39Z</time></trkpt><trkpt lat="45.573302129486244" lon="10.757979391731554"><ele>206.25</ele><time>2026-03-28T10:28:40Z</time></trkpt><trkpt lat="45.57342009432932" lon="10.757943044608053"><ele>206.0</ele><time>2026-03-28T10:28:41Z</time></trkpt><trkpt lat="45.57354519695976" lon="10.757900334740588"><ele>206.0</ele><time>2026-03-28T10:28:42Z</time></trkpt><trkpt lat="45.57367538195138" lon="10.757857561559751"><ele>206.0</ele><time>2026-03-28T10:28:43Z</time></trkpt><trkpt lat="45.57379527807256" lon="10.757813655241913"><ele>206.0</ele><time>2026-03-28T10:28:44Z</time></trkpt><trkpt lat="45.57390794595344" lon="10.757770445719952"><ele>206.0</ele><time>2026-03-28T10:28:45Z</time></trkpt><trkpt lat="45.57403136914507" lon="10.757732029690255"><ele>205.75</ele><time>2026-03-28T10:28:46Z</time></trkpt><trkpt lat="45.57415443547812" lon="10.757693676565788"><ele>205.5</ele><time>2026-03-28T10:28:47Z</time></trkpt><trkpt lat="45.57428242553319" lon="10.757661594990678"><ele>205.25</ele><time>2026-03-28T10:28:48Z</time></trkpt><trkpt lat="45.574413185912015" lon="10.757632669822758"><ele>205.0</ele><time>2026-03-28T10:28:49Z</time></trkpt><trkpt lat="45.57453751734954" lon="10.757594659359887"><ele>205.5</ele><time>2026-03-28T10:28:50Z</time></trkpt><trkpt lat="45.574661674732575" lon="10.757556537387615"><ele>206.0</ele><time>2026-03-28T10:28:51Z</time></trkpt><trkpt lat="45.57478617663873" lon="10.757514520957553"><ele>206.5</ele><time>2026-03-28T10:28:52Z</time></trkpt><trkpt lat="45.57491426412215" lon="10.757471361160375"><ele>207.0</ele><time>2026-03-28T10:28:53Z</time></trkpt><trkpt lat="45.575045938462075" lon="10.757426699272868"><ele>207.0</ele><time>2026-03-28T10:28:54Z</time></trkpt><trkpt lat="45.57518138358277" lon="10.757374583902541"><ele>207.0</ele><time>2026-03-28T10:28:55Z</time></trkpt><trkpt lat="45.575318807193625" lon="10.757325853016729"><ele>207.0</ele><time>2026-03-28T10:28:56Z</time></trkpt><trkpt lat="45.575457283118986" lon="10.757279160199495"><ele>207.0</ele><time>2026-03-28T10:28:57Z</time></trkpt><trkpt lat="45.57559766684284" lon="10.757230307543868"><ele>207.33333333333331</ele><time>2026-03-28T10:28:58Z</time></trkpt><trkpt lat="45.57574262696115" lon="10.757178404743303"><ele>207.66666666666666</ele><time>2026-03-28T10:28:59Z</time></trkpt><trkpt lat="45.57589167555636" lon="10.757130045504377"><ele>208.0</ele><time>2026-03-28T10:29:00Z</time></trkpt><trkpt lat="45.57603770367694" lon="10.757083629175142"><ele>208.0</ele><time>2026-03-28T10:29:01Z</time></trkpt><trkpt lat="45.57616929355386" lon="10.757040724328714"><ele>208.0</ele><time>2026-03-28T10:29:02Z</time></trkpt><trkpt lat="45.576288197247834" lon="10.757001471982786"><ele>208.0</ele><time>2026-03-28T10:29:03Z</time></trkpt><trkpt lat="45.576374207538265" lon="10.756967723688474"><ele>208.0</ele><time>2026-03-28T10:29:04Z</time></trkpt><trkpt lat="45.57644534636259" lon="10.756939692516434"><ele>208.0</ele><time>2026-03-28T10:29:05Z</time></trkpt><trkpt lat="45.57651119495778" lon="10.756916916915552"><ele>207.66666666666666</ele><time>2026-03-28T10:29:05.999Z</time></trkpt><trkpt lat="45.576585442988986" lon="10.75689237076521"><ele>207.33333333333331</ele><time>2026-03-28T10:29:06.999Z</time></trkpt><trkpt lat="45.57666667514124" lon="10.75686587723108"><ele>207.0</ele><time>2026-03-28T10:29:07.999Z</time></trkpt><trkpt lat="45.57673890883926" lon="10.75684081542682"><ele>206.66666666666669</ele><time>2026-03-28T10:29:08.999Z</time></trkpt><trkpt lat="45.57680550979459" lon="10.756818862463888"><ele>206.33333333333334</ele><time>2026-03-28T10:29:09.999Z</time></trkpt><trkpt lat="45.576870037382186" lon="10.756817624978666"><ele>206.0</ele><time>2026-03-28T10:29:10.999Z</time></trkpt><trkpt lat="45.57692023107661" lon="10.756722783742836"><ele>206.00000000000003</ele><time>2026-03-28T10:29:11.999Z</time></trkpt><trkpt lat="45.57696412320612" lon="10.75662464873971"><ele>206.0</ele><time>2026-03-28T10:29:12.999Z</time></trkpt><trkpt lat="45.576990872301685" lon="10.75654172352877"><ele>206.0</ele><time>2026-03-28T10:29:13.999Z</time></trkpt><trkpt lat="45.57703217004402" lon="10.756454102832803"><ele>206.0</ele><time>2026-03-28T10:29:14.999Z</time></trkpt><trkpt lat="45.57711505157307" lon="10.756391154553365"><ele>206.00000000000003</ele><time>2026-03-28T10:29:15.999Z</time></trkpt><trkpt lat="45.57716719780665" lon="10.756274223593824"><ele>206.0</ele><time>2026-03-28T10:29:16.999Z</time></trkpt><trkpt lat="45.57720180820955" lon="10.756134577209531"><ele>206.0</ele><time>2026-03-28T10:29:17.999Z</time></trkpt><trkpt lat="45.57722725233322" lon="10.755995209461833"><ele>206.0</ele><time>2026-03-28T10:29:18.999Z</time></trkpt><trkpt lat="45.577247102105225" lon="10.755847367093695"><ele>206.0</ele><time>2026-03-28T10:29:19.999Z</time></trkpt><trkpt lat="45.57725414466384" lon="10.755681450190135"><ele>206.0</ele><time>2026-03-28T10:29:20.999Z</time></trkpt><trkpt lat="45.57724425197642" lon="10.755517012559478"><ele>206.0</ele><time>2026-03-28T10:29:21.999Z</time></trkpt><trkpt lat="45.57722912240112" lon="10.755366942255717"><ele>206.00000000000003</ele><time>2026-03-28T10:29:22.999Z</time></trkpt><trkpt lat="45.57720977469393" lon="10.755234991613593"><ele>206.0</ele><time>2026-03-28T10:29:23.999Z</time></trkpt><trkpt lat="45.57719443039658" lon="10.755128301113608"><ele>206.0</ele><time>2026-03-28T10:29:24.999Z</time></trkpt><trkpt lat="45.57718003968843" lon="10.755028240993013"><ele>206.0</ele><time>2026-03-28T10:29:25.999Z</time></trkpt><trkpt lat="45.577162454871896" lon="10.754905971915985"><ele>206.00000000000003</ele><time>2026-03-28T10:29:26.999Z</time></trkpt><trkpt lat="45.57714278401122" lon="10.754774843919767"><ele>206.0</ele><time>2026-03-28T10:29:27.999Z</time></trkpt><trkpt lat="45.57712349590025" lon="10.75465326452286"><ele>206.16666666666669</ele><time>2026-03-28T10:29:28.999Z</time></trkpt><trkpt lat="45.57710214342109" lon="10.75453259743828"><ele>206.33333333333334</ele><time>2026-03-28T10:29:29.999Z</time></trkpt><trkpt lat="45.5770779521965" lon="10.754420932087827"><ele>206.5</ele><time>2026-03-28T10:29:30.999Z</time></trkpt><trkpt lat="45.5770507600297" lon="10.754323773882941"><ele>206.66666666666669</ele><time>2026-03-28T10:29:31.999Z</time></trkpt><trkpt lat="45.577019081422414" lon="10.75423828150819"><ele>206.83333333333334</ele><time>2026-03-28T10:29:32.999Z</time></trkpt><trkpt lat="45.57693753743148" lon="10.75420662118432"><ele>207.0</ele><time>2026-03-28T10:29:33.999Z</time></trkpt><trkpt lat="45.57682921543207" lon="10.754151096844295"><ele>207.5</ele><time>2026-03-28T10:29:35.999Z</time></trkpt><trkpt lat="45.57677412724107" lon="10.754245663986868"><ele>208.0</ele><time>2026-03-28T10:29:37.999Z</time></trkpt><trkpt lat="45.57666199143814" lon="10.754151749136676"><ele>208.5</ele><time>2026-03-28T10:29:39.999Z</time></trkpt><trkpt lat="45.57660232256816" lon="10.754112483858233"><ele>209.0</ele><time>2026-03-28T10:29:42.999Z</time></trkpt><trkpt lat="45.576554498868525" lon="10.754190758310646"><ele>209.5</ele><time>2026-03-28T10:29:43.999Z</time></trkpt><trkpt lat="45.576612207948756" lon="10.754283874962693"><ele>210.0</ele><time>2026-03-28T10:29:47.999Z</time></trkpt><trkpt lat="45.576649679640354" lon="10.754180394054162"><ele>210.0</ele><time>2026-03-28T10:30:22Z</time></trkpt></trkseg></trk></gpx>